<?xml version="1.0" encoding="UTF-8" standalone="no" ?>
<gpx xmlns="http://www.topografix.com/GPX/1/1" xmlns:xsi="http://www.w3.org/2001/XMLSchema-instance" xsi:schemaLocation="http://www.topografix.com/GPX/1/1 http://www.topografix.com/GPX/1/1/gpx.xsd" version="1.1" creator="VisuGPX - https://www.visugpx.com">
  <metadata>
    <name>Vétété avant de voter</name>
    <desc><![CDATA[Vétété avant de voter]]></desc>
  </metadata>
  <wpt lat="47.50405" lon="6.76694">
    <ele>397</ele>
    <name><![CDATA[Point de cheminement 1]]></name>
    <desc><![CDATA[]]></desc>
  </wpt>
  <wpt lat="47.49333" lon="6.74973">
    <ele>351</ele>
    <name><![CDATA[Point de cheminement 2]]></name>
    <desc><![CDATA[]]></desc>
  </wpt>
  <wpt lat="47.49319" lon="6.72431">
    <ele>410</ele>
    <name><![CDATA[Point de cheminement 3]]></name>
    <desc><![CDATA[]]></desc>
  </wpt>
  <wpt lat="47.49417" lon="6.7165">
    <ele>451</ele>
    <name><![CDATA[Point de cheminement 4]]></name>
    <desc><![CDATA[]]></desc>
  </wpt>
  <wpt lat="47.48637" lon="6.68334">
    <ele>347</ele>
    <name><![CDATA[Point de cheminement 5]]></name>
    <desc><![CDATA[]]></desc>
  </wpt>
  <wpt lat="47.49392" lon="6.66448">
    <ele>417</ele>
    <name><![CDATA[Point de cheminement 6]]></name>
    <desc><![CDATA[]]></desc>
  </wpt>
  <wpt lat="47.50212" lon="6.63695">
    <ele>456</ele>
    <name><![CDATA[Point de cheminement 7]]></name>
    <desc><![CDATA[]]></desc>
  </wpt>
  <wpt lat="47.48918" lon="6.6419">
    <ele>397</ele>
    <name><![CDATA[Point de cheminement 8]]></name>
    <desc><![CDATA[]]></desc>
  </wpt>
  <wpt lat="47.47796" lon="6.64379">
    <ele>406</ele>
    <name><![CDATA[Point de cheminement 9]]></name>
    <desc><![CDATA[]]></desc>
  </wpt>
  <wpt lat="47.47855" lon="6.67389">
    <ele>444</ele>
    <name><![CDATA[Point de cheminement 10]]></name>
    <desc><![CDATA[]]></desc>
  </wpt>
  <wpt lat="47.48499" lon="6.68937">
    <ele>354</ele>
    <name><![CDATA[Point de cheminement 11]]></name>
    <desc><![CDATA[]]></desc>
  </wpt>
  <wpt lat="47.49882" lon="6.7051">
    <ele>374</ele>
    <name><![CDATA[Point de cheminement 12]]></name>
    <desc><![CDATA[]]></desc>
  </wpt>
  <wpt lat="47.50704" lon="6.75973">
    <ele>384</ele>
    <name><![CDATA[Point de cheminement 13]]></name>
    <desc><![CDATA[]]></desc>
  </wpt>
  <trk>
    <name><![CDATA[Rue Antoine Coysevox]]></name>
    <desc><![CDATA[]]></desc>
    <trkseg>
      <trkpt lat="47.51794" lon="6.77484">
        <ele>388</ele>
        <time>2015-12-06T08:17:06.214Z</time>
      </trkpt>
      <trkpt lat="47.51797" lon="6.77456">
        <ele>388</ele>
        <time>2015-12-06T08:17:07.203Z</time>
      </trkpt>
      <trkpt lat="47.51799" lon="6.77471">
        <ele>388</ele>
        <time>2015-12-06T08:17:08.182Z</time>
      </trkpt>
      <trkpt lat="47.51801" lon="6.7748">
        <ele>388</ele>
        <time>2015-12-06T08:17:09.195Z</time>
      </trkpt>
      <trkpt lat="47.51807" lon="6.7747">
        <ele>388</ele>
        <time>2015-12-06T08:17:10.000Z</time>
      </trkpt>
      <trkpt lat="47.51806" lon="6.77472">
        <ele>388</ele>
        <time>2015-12-06T08:24:05.000Z</time>
      </trkpt>
      <trkpt lat="47.51803" lon="6.77485">
        <ele>388</ele>
        <time>2015-12-06T08:24:06.000Z</time>
      </trkpt>
      <trkpt lat="47.51806" lon="6.7749">
        <ele>388</ele>
        <time>2015-12-06T08:24:21.000Z</time>
      </trkpt>
      <trkpt lat="47.51806" lon="6.77492">
        <ele>388</ele>
        <time>2015-12-06T08:24:22.000Z</time>
      </trkpt>
      <trkpt lat="47.51804" lon="6.77495">
        <ele>388</ele>
        <time>2015-12-06T08:24:24.000Z</time>
      </trkpt>
      <trkpt lat="47.51801" lon="6.77496">
        <ele>388</ele>
        <time>2015-12-06T08:24:25.000Z</time>
      </trkpt>
      <trkpt lat="47.51798" lon="6.77495">
        <ele>388</ele>
        <time>2015-12-06T08:24:26.000Z</time>
      </trkpt>
      <trkpt lat="47.51794" lon="6.77493">
        <ele>388</ele>
        <time>2015-12-06T08:24:27.000Z</time>
      </trkpt>
      <trkpt lat="47.51787" lon="6.77489">
        <ele>388</ele>
        <time>2015-12-06T08:24:28.000Z</time>
      </trkpt>
      <trkpt lat="47.51783" lon="6.77488">
        <ele>388</ele>
        <time>2015-12-06T08:24:29.000Z</time>
      </trkpt>
      <trkpt lat="47.51779" lon="6.77486">
        <ele>388</ele>
        <time>2015-12-06T08:24:30.000Z</time>
      </trkpt>
      <trkpt lat="47.51775" lon="6.77485">
        <ele>388</ele>
        <time>2015-12-06T08:24:31.000Z</time>
      </trkpt>
      <trkpt lat="47.51771" lon="6.77485">
        <ele>388</ele>
        <time>2015-12-06T08:24:32.000Z</time>
      </trkpt>
      <trkpt lat="47.51767" lon="6.77483">
        <ele>389</ele>
        <time>2015-12-06T08:24:33.000Z</time>
      </trkpt>
      <trkpt lat="47.51763" lon="6.77482">
        <ele>389</ele>
        <time>2015-12-06T08:24:34.000Z</time>
      </trkpt>
      <trkpt lat="47.5176" lon="6.77482">
        <ele>389</ele>
        <time>2015-12-06T08:24:35.000Z</time>
      </trkpt>
      <trkpt lat="47.51756" lon="6.77481">
        <ele>389</ele>
        <time>2015-12-06T08:24:36.000Z</time>
      </trkpt>
      <trkpt lat="47.51752" lon="6.77481">
        <ele>389</ele>
        <time>2015-12-06T08:24:37.000Z</time>
      </trkpt>
      <trkpt lat="47.51747" lon="6.77481">
        <ele>389</ele>
        <time>2015-12-06T08:24:38.000Z</time>
      </trkpt>
      <trkpt lat="47.51743" lon="6.7748">
        <ele>389</ele>
        <time>2015-12-06T08:24:39.000Z</time>
      </trkpt>
      <trkpt lat="47.51739" lon="6.7748">
        <ele>389</ele>
        <time>2015-12-06T08:24:39.999Z</time>
      </trkpt>
      <trkpt lat="47.51735" lon="6.77479">
        <ele>389</ele>
        <time>2015-12-06T08:24:41.000Z</time>
      </trkpt>
      <trkpt lat="47.51732" lon="6.7748">
        <ele>389</ele>
        <time>2015-12-06T08:24:42.000Z</time>
      </trkpt>
      <trkpt lat="47.51729" lon="6.77487">
        <ele>389</ele>
        <time>2015-12-06T08:24:43.000Z</time>
      </trkpt>
      <trkpt lat="47.51726" lon="6.77492">
        <ele>389</ele>
        <time>2015-12-06T08:24:43.999Z</time>
      </trkpt>
      <trkpt lat="47.51723" lon="6.77499">
        <ele>389</ele>
        <time>2015-12-06T08:24:45.000Z</time>
      </trkpt>
      <trkpt lat="47.51722" lon="6.77506">
        <ele>390</ele>
        <time>2015-12-06T08:24:46.000Z</time>
      </trkpt>
      <trkpt lat="47.5172" lon="6.77514">
        <ele>390</ele>
        <time>2015-12-06T08:24:47.000Z</time>
      </trkpt>
      <trkpt lat="47.51719" lon="6.77522">
        <ele>390</ele>
        <time>2015-12-06T08:24:48.000Z</time>
      </trkpt>
      <trkpt lat="47.51717" lon="6.77529">
        <ele>390</ele>
        <time>2015-12-06T08:24:49.000Z</time>
      </trkpt>
      <trkpt lat="47.51716" lon="6.77536">
        <ele>390</ele>
        <time>2015-12-06T08:24:50.000Z</time>
      </trkpt>
      <trkpt lat="47.51714" lon="6.77543">
        <ele>390</ele>
        <time>2015-12-06T08:24:51.000Z</time>
      </trkpt>
      <trkpt lat="47.51712" lon="6.77549">
        <ele>390</ele>
        <time>2015-12-06T08:24:52.000Z</time>
      </trkpt>
      <trkpt lat="47.51706" lon="6.7755">
        <ele>390</ele>
        <time>2015-12-06T08:24:53.000Z</time>
      </trkpt>
      <trkpt lat="47.51702" lon="6.7755">
        <ele>390</ele>
        <time>2015-12-06T08:24:54.000Z</time>
      </trkpt>
      <trkpt lat="47.51698" lon="6.77549">
        <ele>390</ele>
        <time>2015-12-06T08:24:55.000Z</time>
      </trkpt>
      <trkpt lat="47.51694" lon="6.77546">
        <ele>390</ele>
        <time>2015-12-06T08:24:56.000Z</time>
      </trkpt>
      <trkpt lat="47.51689" lon="6.77541">
        <ele>390</ele>
        <time>2015-12-06T08:24:57.000Z</time>
      </trkpt>
      <trkpt lat="47.51683" lon="6.77536">
        <ele>390</ele>
        <time>2015-12-06T08:24:58.000Z</time>
      </trkpt>
      <trkpt lat="47.51679" lon="6.77531">
        <ele>390</ele>
        <time>2015-12-06T08:24:59.000Z</time>
      </trkpt>
      <trkpt lat="47.51675" lon="6.77524">
        <ele>390</ele>
        <time>2015-12-06T08:25:00.000Z</time>
      </trkpt>
      <trkpt lat="47.5167" lon="6.77518">
        <ele>389</ele>
        <time>2015-12-06T08:25:01.000Z</time>
      </trkpt>
      <trkpt lat="47.51665" lon="6.77512">
        <ele>388</ele>
        <time>2015-12-06T08:25:02.000Z</time>
      </trkpt>
      <trkpt lat="47.51659" lon="6.77505">
        <ele>388</ele>
        <time>2015-12-06T08:25:03.000Z</time>
      </trkpt>
      <trkpt lat="47.51654" lon="6.77498">
        <ele>388</ele>
        <time>2015-12-06T08:25:04.000Z</time>
      </trkpt>
      <trkpt lat="47.51649" lon="6.77492">
        <ele>387</ele>
        <time>2015-12-06T08:25:05.000Z</time>
      </trkpt>
      <trkpt lat="47.51644" lon="6.77484">
        <ele>387</ele>
        <time>2015-12-06T08:25:06.000Z</time>
      </trkpt>
      <trkpt lat="47.51639" lon="6.77477">
        <ele>386</ele>
        <time>2015-12-06T08:25:07.000Z</time>
      </trkpt>
      <trkpt lat="47.51633" lon="6.77469">
        <ele>386</ele>
        <time>2015-12-06T08:25:08.000Z</time>
      </trkpt>
      <trkpt lat="47.51627" lon="6.77462">
        <ele>386</ele>
        <time>2015-12-06T08:25:09.000Z</time>
      </trkpt>
      <trkpt lat="47.5162" lon="6.77454">
        <ele>386</ele>
        <time>2015-12-06T08:25:10.000Z</time>
      </trkpt>
      <trkpt lat="47.51614" lon="6.77448">
        <ele>385</ele>
        <time>2015-12-06T08:25:11.000Z</time>
      </trkpt>
      <trkpt lat="47.51608" lon="6.77441">
        <ele>385</ele>
        <time>2015-12-06T08:25:12.000Z</time>
      </trkpt>
      <trkpt lat="47.51602" lon="6.77433">
        <ele>385</ele>
        <time>2015-12-06T08:25:13.000Z</time>
      </trkpt>
      <trkpt lat="47.51596" lon="6.77424">
        <ele>384</ele>
        <time>2015-12-06T08:25:14.000Z</time>
      </trkpt>
      <trkpt lat="47.51589" lon="6.77417">
        <ele>384</ele>
        <time>2015-12-06T08:25:15.000Z</time>
      </trkpt>
      <trkpt lat="47.51582" lon="6.77408">
        <ele>382</ele>
        <time>2015-12-06T08:25:16.000Z</time>
      </trkpt>
      <trkpt lat="47.51575" lon="6.774">
        <ele>382</ele>
        <time>2015-12-06T08:25:17.000Z</time>
      </trkpt>
      <trkpt lat="47.51569" lon="6.77392">
        <ele>381</ele>
        <time>2015-12-06T08:25:18.000Z</time>
      </trkpt>
      <trkpt lat="47.51562" lon="6.77385">
        <ele>381</ele>
        <time>2015-12-06T08:25:19.000Z</time>
      </trkpt>
      <trkpt lat="47.51556" lon="6.77377">
        <ele>381</ele>
        <time>2015-12-06T08:25:20.000Z</time>
      </trkpt>
      <trkpt lat="47.51548" lon="6.77371">
        <ele>381</ele>
        <time>2015-12-06T08:25:21.000Z</time>
      </trkpt>
      <trkpt lat="47.51541" lon="6.77362">
        <ele>380</ele>
        <time>2015-12-06T08:25:22.000Z</time>
      </trkpt>
      <trkpt lat="47.51534" lon="6.77353">
        <ele>380</ele>
        <time>2015-12-06T08:25:23.000Z</time>
      </trkpt>
      <trkpt lat="47.51527" lon="6.77344">
        <ele>380</ele>
        <time>2015-12-06T08:25:24.000Z</time>
      </trkpt>
      <trkpt lat="47.51521" lon="6.77336">
        <ele>379</ele>
        <time>2015-12-06T08:25:25.000Z</time>
      </trkpt>
      <trkpt lat="47.51515" lon="6.77329">
        <ele>378</ele>
        <time>2015-12-06T08:25:26.000Z</time>
      </trkpt>
      <trkpt lat="47.51509" lon="6.77322">
        <ele>378</ele>
        <time>2015-12-06T08:25:27.000Z</time>
      </trkpt>
      <trkpt lat="47.51504" lon="6.77315">
        <ele>378</ele>
        <time>2015-12-06T08:25:28.000Z</time>
      </trkpt>
      <trkpt lat="47.51499" lon="6.77308">
        <ele>377</ele>
        <time>2015-12-06T08:25:29.000Z</time>
      </trkpt>
      <trkpt lat="47.51496" lon="6.77303">
        <ele>377</ele>
        <time>2015-12-06T08:25:30.000Z</time>
      </trkpt>
      <trkpt lat="47.51494" lon="6.77299">
        <ele>377</ele>
        <time>2015-12-06T08:25:31.000Z</time>
      </trkpt>
      <trkpt lat="47.51491" lon="6.77293">
        <ele>377</ele>
        <time>2015-12-06T08:25:32.000Z</time>
      </trkpt>
      <trkpt lat="47.5149" lon="6.77285">
        <ele>377</ele>
        <time>2015-12-06T08:25:33.000Z</time>
      </trkpt>
      <trkpt lat="47.51489" lon="6.77277">
        <ele>377</ele>
        <time>2015-12-06T08:25:34.000Z</time>
      </trkpt>
      <trkpt lat="47.51488" lon="6.77271">
        <ele>377</ele>
        <time>2015-12-06T08:25:35.000Z</time>
      </trkpt>
      <trkpt lat="47.51487" lon="6.77261">
        <ele>376</ele>
        <time>2015-12-06T08:25:36.000Z</time>
      </trkpt>
      <trkpt lat="47.51487" lon="6.77253">
        <ele>376</ele>
        <time>2015-12-06T08:25:37.000Z</time>
      </trkpt>
      <trkpt lat="47.51487" lon="6.77244">
        <ele>376</ele>
        <time>2015-12-06T08:25:38.000Z</time>
      </trkpt>
      <trkpt lat="47.51486" lon="6.77235">
        <ele>375</ele>
        <time>2015-12-06T08:25:39.000Z</time>
      </trkpt>
      <trkpt lat="47.51485" lon="6.77226">
        <ele>375</ele>
        <time>2015-12-06T08:25:40.000Z</time>
      </trkpt>
      <trkpt lat="47.51484" lon="6.77217">
        <ele>375</ele>
        <time>2015-12-06T08:25:41.000Z</time>
      </trkpt>
      <trkpt lat="47.51483" lon="6.7721">
        <ele>375</ele>
        <time>2015-12-06T08:25:42.000Z</time>
      </trkpt>
      <trkpt lat="47.51481" lon="6.77203">
        <ele>375</ele>
        <time>2015-12-06T08:25:43.000Z</time>
      </trkpt>
      <trkpt lat="47.51477" lon="6.77201">
        <ele>375</ele>
        <time>2015-12-06T08:25:44.000Z</time>
      </trkpt>
      <trkpt lat="47.51471" lon="6.772">
        <ele>375</ele>
        <time>2015-12-06T08:25:45.000Z</time>
      </trkpt>
      <trkpt lat="47.51465" lon="6.77202">
        <ele>375</ele>
        <time>2015-12-06T08:25:46.000Z</time>
      </trkpt>
      <trkpt lat="47.51458" lon="6.77204">
        <ele>375</ele>
        <time>2015-12-06T08:25:47.000Z</time>
      </trkpt>
      <trkpt lat="47.51452" lon="6.77209">
        <ele>375</ele>
        <time>2015-12-06T08:25:48.000Z</time>
      </trkpt>
      <trkpt lat="47.51444" lon="6.77213">
        <ele>375</ele>
        <time>2015-12-06T08:25:49.000Z</time>
      </trkpt>
      <trkpt lat="47.51436" lon="6.77215">
        <ele>375</ele>
        <time>2015-12-06T08:25:50.000Z</time>
      </trkpt>
      <trkpt lat="47.5143" lon="6.77219">
        <ele>375</ele>
        <time>2015-12-06T08:25:51.000Z</time>
      </trkpt>
      <trkpt lat="47.51424" lon="6.77223">
        <ele>375</ele>
        <time>2015-12-06T08:25:52.000Z</time>
      </trkpt>
      <trkpt lat="47.51417" lon="6.77226">
        <ele>375</ele>
        <time>2015-12-06T08:25:53.000Z</time>
      </trkpt>
      <trkpt lat="47.51411" lon="6.7723">
        <ele>376</ele>
        <time>2015-12-06T08:25:54.000Z</time>
      </trkpt>
      <trkpt lat="47.51405" lon="6.77232">
        <ele>376</ele>
        <time>2015-12-06T08:25:55.000Z</time>
      </trkpt>
      <trkpt lat="47.51399" lon="6.77235">
        <ele>376</ele>
        <time>2015-12-06T08:25:56.000Z</time>
      </trkpt>
      <trkpt lat="47.51394" lon="6.77239">
        <ele>376</ele>
        <time>2015-12-06T08:25:57.000Z</time>
      </trkpt>
      <trkpt lat="47.51389" lon="6.77242">
        <ele>376</ele>
        <time>2015-12-06T08:25:58.000Z</time>
      </trkpt>
      <trkpt lat="47.51384" lon="6.77244">
        <ele>376</ele>
        <time>2015-12-06T08:25:59.000Z</time>
      </trkpt>
      <trkpt lat="47.5138" lon="6.77246">
        <ele>376</ele>
        <time>2015-12-06T08:26:00.000Z</time>
      </trkpt>
      <trkpt lat="47.51376" lon="6.7725">
        <ele>376</ele>
        <time>2015-12-06T08:26:01.000Z</time>
      </trkpt>
      <trkpt lat="47.51371" lon="6.77252">
        <ele>377</ele>
        <time>2015-12-06T08:26:02.000Z</time>
      </trkpt>
      <trkpt lat="47.51366" lon="6.77255">
        <ele>378</ele>
        <time>2015-12-06T08:26:03.000Z</time>
      </trkpt>
      <trkpt lat="47.51362" lon="6.77258">
        <ele>378</ele>
        <time>2015-12-06T08:26:04.001Z</time>
      </trkpt>
      <trkpt lat="47.51358" lon="6.77259">
        <ele>378</ele>
        <time>2015-12-06T08:26:05.000Z</time>
      </trkpt>
      <trkpt lat="47.51356" lon="6.77262">
        <ele>378</ele>
        <time>2015-12-06T08:26:06.000Z</time>
      </trkpt>
      <trkpt lat="47.51354" lon="6.77264">
        <ele>378</ele>
        <time>2015-12-06T08:26:07.000Z</time>
      </trkpt>
      <trkpt lat="47.51351" lon="6.77265">
        <ele>378</ele>
        <time>2015-12-06T08:26:08.000Z</time>
      </trkpt>
      <trkpt lat="47.51348" lon="6.77266">
        <ele>378</ele>
        <time>2015-12-06T08:26:09.000Z</time>
      </trkpt>
      <trkpt lat="47.51345" lon="6.77269">
        <ele>378</ele>
        <time>2015-12-06T08:26:10.000Z</time>
      </trkpt>
      <trkpt lat="47.51343" lon="6.77271">
        <ele>378</ele>
        <time>2015-12-06T08:26:11.000Z</time>
      </trkpt>
      <trkpt lat="47.5134" lon="6.77273">
        <ele>378</ele>
        <time>2015-12-06T08:26:12.000Z</time>
      </trkpt>
      <trkpt lat="47.51338" lon="6.77275">
        <ele>378</ele>
        <time>2015-12-06T08:26:13.000Z</time>
      </trkpt>
      <trkpt lat="47.51335" lon="6.77277">
        <ele>378</ele>
        <time>2015-12-06T08:26:14.000Z</time>
      </trkpt>
      <trkpt lat="47.51332" lon="6.77279">
        <ele>377</ele>
        <time>2015-12-06T08:26:15.000Z</time>
      </trkpt>
      <trkpt lat="47.51329" lon="6.7728">
        <ele>377</ele>
        <time>2015-12-06T08:26:16.000Z</time>
      </trkpt>
      <trkpt lat="47.51326" lon="6.77281">
        <ele>377</ele>
        <time>2015-12-06T08:26:17.000Z</time>
      </trkpt>
      <trkpt lat="47.51323" lon="6.77281">
        <ele>377</ele>
        <time>2015-12-06T08:26:18.000Z</time>
      </trkpt>
      <trkpt lat="47.5132" lon="6.77281">
        <ele>377</ele>
        <time>2015-12-06T08:26:19.000Z</time>
      </trkpt>
      <trkpt lat="47.51317" lon="6.77281">
        <ele>377</ele>
        <time>2015-12-06T08:26:20.000Z</time>
      </trkpt>
      <trkpt lat="47.51313" lon="6.7728">
        <ele>377</ele>
        <time>2015-12-06T08:26:21.000Z</time>
      </trkpt>
      <trkpt lat="47.51309" lon="6.77278">
        <ele>377</ele>
        <time>2015-12-06T08:26:22.000Z</time>
      </trkpt>
      <trkpt lat="47.51305" lon="6.77277">
        <ele>377</ele>
        <time>2015-12-06T08:26:23.000Z</time>
      </trkpt>
      <trkpt lat="47.51301" lon="6.77275">
        <ele>377</ele>
        <time>2015-12-06T08:26:24.000Z</time>
      </trkpt>
      <trkpt lat="47.51297" lon="6.77273">
        <ele>377</ele>
        <time>2015-12-06T08:26:25.000Z</time>
      </trkpt>
      <trkpt lat="47.51294" lon="6.77271">
        <ele>377</ele>
        <time>2015-12-06T08:26:26.000Z</time>
      </trkpt>
      <trkpt lat="47.5129" lon="6.77269">
        <ele>377</ele>
        <time>2015-12-06T08:26:27.000Z</time>
      </trkpt>
      <trkpt lat="47.51286" lon="6.77267">
        <ele>377</ele>
        <time>2015-12-06T08:26:28.000Z</time>
      </trkpt>
      <trkpt lat="47.51282" lon="6.77265">
        <ele>377</ele>
        <time>2015-12-06T08:26:29.000Z</time>
      </trkpt>
      <trkpt lat="47.51278" lon="6.77262">
        <ele>377</ele>
        <time>2015-12-06T08:26:30.000Z</time>
      </trkpt>
      <trkpt lat="47.51275" lon="6.7726">
        <ele>377</ele>
        <time>2015-12-06T08:26:31.000Z</time>
      </trkpt>
      <trkpt lat="47.51271" lon="6.77258">
        <ele>377</ele>
        <time>2015-12-06T08:26:32.000Z</time>
      </trkpt>
      <trkpt lat="47.51267" lon="6.77255">
        <ele>378</ele>
        <time>2015-12-06T08:26:33.000Z</time>
      </trkpt>
      <trkpt lat="47.51264" lon="6.77253">
        <ele>378</ele>
        <time>2015-12-06T08:26:34.000Z</time>
      </trkpt>
      <trkpt lat="47.5126" lon="6.77249">
        <ele>379</ele>
        <time>2015-12-06T08:26:35.000Z</time>
      </trkpt>
      <trkpt lat="47.51257" lon="6.77242">
        <ele>379</ele>
        <time>2015-12-06T08:26:36.000Z</time>
      </trkpt>
      <trkpt lat="47.51253" lon="6.77237">
        <ele>378</ele>
        <time>2015-12-06T08:26:37.000Z</time>
      </trkpt>
      <trkpt lat="47.51248" lon="6.77232">
        <ele>377</ele>
        <time>2015-12-06T08:26:38.000Z</time>
      </trkpt>
      <trkpt lat="47.51245" lon="6.77225">
        <ele>376</ele>
        <time>2015-12-06T08:26:39.000Z</time>
      </trkpt>
      <trkpt lat="47.51242" lon="6.7722">
        <ele>376</ele>
        <time>2015-12-06T08:26:40.000Z</time>
      </trkpt>
      <trkpt lat="47.51239" lon="6.77213">
        <ele>376</ele>
        <time>2015-12-06T08:26:41.000Z</time>
      </trkpt>
      <trkpt lat="47.51236" lon="6.77205">
        <ele>376</ele>
        <time>2015-12-06T08:26:42.000Z</time>
      </trkpt>
      <trkpt lat="47.51233" lon="6.77198">
        <ele>376</ele>
        <time>2015-12-06T08:26:43.000Z</time>
      </trkpt>
      <trkpt lat="47.51231" lon="6.7719">
        <ele>376</ele>
        <time>2015-12-06T08:26:44.000Z</time>
      </trkpt>
      <trkpt lat="47.51227" lon="6.77184">
        <ele>376</ele>
        <time>2015-12-06T08:26:45.000Z</time>
      </trkpt>
      <trkpt lat="47.51224" lon="6.77178">
        <ele>376</ele>
        <time>2015-12-06T08:26:46.000Z</time>
      </trkpt>
      <trkpt lat="47.51221" lon="6.77172">
        <ele>376</ele>
        <time>2015-12-06T08:26:47.000Z</time>
      </trkpt>
      <trkpt lat="47.51217" lon="6.77165">
        <ele>378</ele>
        <time>2015-12-06T08:26:48.000Z</time>
      </trkpt>
      <trkpt lat="47.51214" lon="6.77158">
        <ele>378</ele>
        <time>2015-12-06T08:26:49.000Z</time>
      </trkpt>
      <trkpt lat="47.5121" lon="6.77151">
        <ele>378</ele>
        <time>2015-12-06T08:26:50.000Z</time>
      </trkpt>
      <trkpt lat="47.51206" lon="6.77144">
        <ele>378</ele>
        <time>2015-12-06T08:26:51.000Z</time>
      </trkpt>
      <trkpt lat="47.51202" lon="6.77135">
        <ele>378</ele>
        <time>2015-12-06T08:26:52.000Z</time>
      </trkpt>
      <trkpt lat="47.51198" lon="6.77127">
        <ele>378</ele>
        <time>2015-12-06T08:26:53.000Z</time>
      </trkpt>
      <trkpt lat="47.51193" lon="6.77118">
        <ele>378</ele>
        <time>2015-12-06T08:26:54.000Z</time>
      </trkpt>
      <trkpt lat="47.51188" lon="6.77111">
        <ele>378</ele>
        <time>2015-12-06T08:26:55.000Z</time>
      </trkpt>
      <trkpt lat="47.51184" lon="6.77103">
        <ele>378</ele>
        <time>2015-12-06T08:26:56.000Z</time>
      </trkpt>
      <trkpt lat="47.5118" lon="6.77094">
        <ele>378</ele>
        <time>2015-12-06T08:26:57.000Z</time>
      </trkpt>
      <trkpt lat="47.51176" lon="6.77085">
        <ele>378</ele>
        <time>2015-12-06T08:26:58.000Z</time>
      </trkpt>
      <trkpt lat="47.51171" lon="6.77076">
        <ele>377</ele>
        <time>2015-12-06T08:26:59.000Z</time>
      </trkpt>
      <trkpt lat="47.51166" lon="6.77068">
        <ele>377</ele>
        <time>2015-12-06T08:27:00.000Z</time>
      </trkpt>
      <trkpt lat="47.5116" lon="6.77061">
        <ele>376</ele>
        <time>2015-12-06T08:27:01.000Z</time>
      </trkpt>
      <trkpt lat="47.51155" lon="6.77054">
        <ele>376</ele>
        <time>2015-12-06T08:27:02.000Z</time>
      </trkpt>
      <trkpt lat="47.51148" lon="6.77048">
        <ele>376</ele>
        <time>2015-12-06T08:27:03.000Z</time>
      </trkpt>
      <trkpt lat="47.51142" lon="6.77043">
        <ele>376</ele>
        <time>2015-12-06T08:27:04.000Z</time>
      </trkpt>
      <trkpt lat="47.51135" lon="6.77038">
        <ele>375</ele>
        <time>2015-12-06T08:27:05.000Z</time>
      </trkpt>
      <trkpt lat="47.51129" lon="6.77032">
        <ele>375</ele>
        <time>2015-12-06T08:27:06.000Z</time>
      </trkpt>
      <trkpt lat="47.51123" lon="6.77027">
        <ele>375</ele>
        <time>2015-12-06T08:27:07.000Z</time>
      </trkpt>
      <trkpt lat="47.51116" lon="6.77022">
        <ele>375</ele>
        <time>2015-12-06T08:27:08.000Z</time>
      </trkpt>
      <trkpt lat="47.5111" lon="6.77018">
        <ele>375</ele>
        <time>2015-12-06T08:27:09.000Z</time>
      </trkpt>
      <trkpt lat="47.51104" lon="6.77013">
        <ele>375</ele>
        <time>2015-12-06T08:27:10.000Z</time>
      </trkpt>
      <trkpt lat="47.51098" lon="6.77009">
        <ele>375</ele>
        <time>2015-12-06T08:27:11.000Z</time>
      </trkpt>
      <trkpt lat="47.51093" lon="6.77004">
        <ele>375</ele>
        <time>2015-12-06T08:27:12.000Z</time>
      </trkpt>
      <trkpt lat="47.51087" lon="6.77">
        <ele>375</ele>
        <time>2015-12-06T08:27:13.000Z</time>
      </trkpt>
      <trkpt lat="47.5108" lon="6.76995">
        <ele>375</ele>
        <time>2015-12-06T08:27:14.000Z</time>
      </trkpt>
      <trkpt lat="47.51074" lon="6.7699">
        <ele>375</ele>
        <time>2015-12-06T08:27:15.000Z</time>
      </trkpt>
      <trkpt lat="47.51068" lon="6.76985">
        <ele>375</ele>
        <time>2015-12-06T08:27:16.000Z</time>
      </trkpt>
      <trkpt lat="47.51062" lon="6.76979">
        <ele>375</ele>
        <time>2015-12-06T08:27:17.000Z</time>
      </trkpt>
      <trkpt lat="47.51056" lon="6.76974">
        <ele>375</ele>
        <time>2015-12-06T08:27:18.000Z</time>
      </trkpt>
      <trkpt lat="47.5105" lon="6.7697">
        <ele>375</ele>
        <time>2015-12-06T08:27:19.000Z</time>
      </trkpt>
      <trkpt lat="47.51046" lon="6.76965">
        <ele>375</ele>
        <time>2015-12-06T08:27:20.000Z</time>
      </trkpt>
      <trkpt lat="47.5104" lon="6.7696">
        <ele>375</ele>
        <time>2015-12-06T08:27:21.000Z</time>
      </trkpt>
      <trkpt lat="47.51034" lon="6.76954">
        <ele>375</ele>
        <time>2015-12-06T08:27:22.000Z</time>
      </trkpt>
      <trkpt lat="47.5103" lon="6.7695">
        <ele>375</ele>
        <time>2015-12-06T08:27:23.000Z</time>
      </trkpt>
      <trkpt lat="47.51024" lon="6.76946">
        <ele>375</ele>
        <time>2015-12-06T08:27:24.000Z</time>
      </trkpt>
      <trkpt lat="47.5102" lon="6.76941">
        <ele>375</ele>
        <time>2015-12-06T08:27:25.000Z</time>
      </trkpt>
      <trkpt lat="47.51015" lon="6.76938">
        <ele>375</ele>
        <time>2015-12-06T08:27:26.000Z</time>
      </trkpt>
      <trkpt lat="47.5101" lon="6.76934">
        <ele>375</ele>
        <time>2015-12-06T08:27:27.000Z</time>
      </trkpt>
      <trkpt lat="47.51005" lon="6.76931">
        <ele>375</ele>
        <time>2015-12-06T08:27:28.000Z</time>
      </trkpt>
      <trkpt lat="47.51001" lon="6.76928">
        <ele>376</ele>
        <time>2015-12-06T08:27:29.000Z</time>
      </trkpt>
      <trkpt lat="47.50996" lon="6.76922">
        <ele>375</ele>
        <time>2015-12-06T08:27:30.000Z</time>
      </trkpt>
      <trkpt lat="47.50994" lon="6.76915">
        <ele>376</ele>
        <time>2015-12-06T08:27:31.000Z</time>
      </trkpt>
      <trkpt lat="47.50993" lon="6.76908">
        <ele>377</ele>
        <time>2015-12-06T08:27:32.000Z</time>
      </trkpt>
      <trkpt lat="47.50991" lon="6.76903">
        <ele>377</ele>
        <time>2015-12-06T08:27:33.000Z</time>
      </trkpt>
      <trkpt lat="47.50988" lon="6.76898">
        <ele>377</ele>
        <time>2015-12-06T08:27:34.000Z</time>
      </trkpt>
      <trkpt lat="47.50983" lon="6.76894">
        <ele>377</ele>
        <time>2015-12-06T08:27:35.000Z</time>
      </trkpt>
      <trkpt lat="47.50979" lon="6.76891">
        <ele>377</ele>
        <time>2015-12-06T08:27:36.000Z</time>
      </trkpt>
      <trkpt lat="47.50975" lon="6.76892">
        <ele>377</ele>
        <time>2015-12-06T08:27:37.000Z</time>
      </trkpt>
      <trkpt lat="47.50972" lon="6.76891">
        <ele>377</ele>
        <time>2015-12-06T08:27:38.000Z</time>
      </trkpt>
      <trkpt lat="47.50968" lon="6.76889">
        <ele>377</ele>
        <time>2015-12-06T08:27:39.000Z</time>
      </trkpt>
      <trkpt lat="47.50964" lon="6.76887">
        <ele>377</ele>
        <time>2015-12-06T08:27:40.000Z</time>
      </trkpt>
      <trkpt lat="47.50959" lon="6.76885">
        <ele>377</ele>
        <time>2015-12-06T08:27:41.000Z</time>
      </trkpt>
      <trkpt lat="47.50954" lon="6.76883">
        <ele>378</ele>
        <time>2015-12-06T08:27:42.000Z</time>
      </trkpt>
      <trkpt lat="47.5095" lon="6.76879">
        <ele>378</ele>
        <time>2015-12-06T08:27:43.000Z</time>
      </trkpt>
      <trkpt lat="47.50947" lon="6.76877">
        <ele>378</ele>
        <time>2015-12-06T08:27:44.000Z</time>
      </trkpt>
      <trkpt lat="47.50944" lon="6.76872">
        <ele>378</ele>
        <time>2015-12-06T08:27:45.000Z</time>
      </trkpt>
      <trkpt lat="47.50942" lon="6.76867">
        <ele>378</ele>
        <time>2015-12-06T08:27:46.000Z</time>
      </trkpt>
      <trkpt lat="47.50939" lon="6.76862">
        <ele>378</ele>
        <time>2015-12-06T08:27:47.000Z</time>
      </trkpt>
      <trkpt lat="47.50935" lon="6.76859">
        <ele>378</ele>
        <time>2015-12-06T08:27:48.000Z</time>
      </trkpt>
      <trkpt lat="47.50932" lon="6.76854">
        <ele>378</ele>
        <time>2015-12-06T08:27:49.000Z</time>
      </trkpt>
      <trkpt lat="47.5093" lon="6.76849">
        <ele>379</ele>
        <time>2015-12-06T08:27:50.000Z</time>
      </trkpt>
      <trkpt lat="47.50927" lon="6.76844">
        <ele>379</ele>
        <time>2015-12-06T08:27:51.000Z</time>
      </trkpt>
      <trkpt lat="47.50924" lon="6.76839">
        <ele>379</ele>
        <time>2015-12-06T08:27:52.000Z</time>
      </trkpt>
      <trkpt lat="47.50922" lon="6.76833">
        <ele>379</ele>
        <time>2015-12-06T08:27:53.000Z</time>
      </trkpt>
      <trkpt lat="47.50919" lon="6.76828">
        <ele>379</ele>
        <time>2015-12-06T08:27:54.000Z</time>
      </trkpt>
      <trkpt lat="47.50917" lon="6.76822">
        <ele>379</ele>
        <time>2015-12-06T08:27:55.000Z</time>
      </trkpt>
      <trkpt lat="47.50915" lon="6.76817">
        <ele>381</ele>
        <time>2015-12-06T08:27:56.000Z</time>
      </trkpt>
      <trkpt lat="47.50912" lon="6.76811">
        <ele>381</ele>
        <time>2015-12-06T08:27:57.000Z</time>
      </trkpt>
      <trkpt lat="47.5091" lon="6.76806">
        <ele>381</ele>
        <time>2015-12-06T08:27:58.000Z</time>
      </trkpt>
      <trkpt lat="47.50907" lon="6.76801">
        <ele>381</ele>
        <time>2015-12-06T08:27:59.000Z</time>
      </trkpt>
      <trkpt lat="47.50905" lon="6.76796">
        <ele>381</ele>
        <time>2015-12-06T08:28:00.000Z</time>
      </trkpt>
      <trkpt lat="47.50903" lon="6.76792">
        <ele>381</ele>
        <time>2015-12-06T08:28:01.000Z</time>
      </trkpt>
      <trkpt lat="47.509" lon="6.76787">
        <ele>381</ele>
        <time>2015-12-06T08:28:02.000Z</time>
      </trkpt>
      <trkpt lat="47.50898" lon="6.76782">
        <ele>381</ele>
        <time>2015-12-06T08:28:03.000Z</time>
      </trkpt>
      <trkpt lat="47.50896" lon="6.76777">
        <ele>381</ele>
        <time>2015-12-06T08:28:04.000Z</time>
      </trkpt>
      <trkpt lat="47.50894" lon="6.76772">
        <ele>381</ele>
        <time>2015-12-06T08:28:05.000Z</time>
      </trkpt>
      <trkpt lat="47.50891" lon="6.76767">
        <ele>381</ele>
        <time>2015-12-06T08:28:06.000Z</time>
      </trkpt>
      <trkpt lat="47.50889" lon="6.76762">
        <ele>381</ele>
        <time>2015-12-06T08:28:07.000Z</time>
      </trkpt>
      <trkpt lat="47.50887" lon="6.76757">
        <ele>381</ele>
        <time>2015-12-06T08:28:08.000Z</time>
      </trkpt>
      <trkpt lat="47.50885" lon="6.76752">
        <ele>381</ele>
        <time>2015-12-06T08:28:09.000Z</time>
      </trkpt>
      <trkpt lat="47.50883" lon="6.76747">
        <ele>382</ele>
        <time>2015-12-06T08:28:10.000Z</time>
      </trkpt>
      <trkpt lat="47.50881" lon="6.76742">
        <ele>382</ele>
        <time>2015-12-06T08:28:11.000Z</time>
      </trkpt>
      <trkpt lat="47.50879" lon="6.76737">
        <ele>383</ele>
        <time>2015-12-06T08:28:12.000Z</time>
      </trkpt>
      <trkpt lat="47.50877" lon="6.76732">
        <ele>383</ele>
        <time>2015-12-06T08:28:13.000Z</time>
      </trkpt>
      <trkpt lat="47.50876" lon="6.76728">
        <ele>383</ele>
        <time>2015-12-06T08:28:14.000Z</time>
      </trkpt>
      <trkpt lat="47.50875" lon="6.76723">
        <ele>383</ele>
        <time>2015-12-06T08:28:15.000Z</time>
      </trkpt>
      <trkpt lat="47.50873" lon="6.76718">
        <ele>383</ele>
        <time>2015-12-06T08:28:16.000Z</time>
      </trkpt>
      <trkpt lat="47.50872" lon="6.76714">
        <ele>383</ele>
        <time>2015-12-06T08:28:17.000Z</time>
      </trkpt>
      <trkpt lat="47.5087" lon="6.76709">
        <ele>383</ele>
        <time>2015-12-06T08:28:18.000Z</time>
      </trkpt>
      <trkpt lat="47.50869" lon="6.76704">
        <ele>384</ele>
        <time>2015-12-06T08:28:19.000Z</time>
      </trkpt>
      <trkpt lat="47.50868" lon="6.76699">
        <ele>384</ele>
        <time>2015-12-06T08:28:20.000Z</time>
      </trkpt>
      <trkpt lat="47.50866" lon="6.76695">
        <ele>384</ele>
        <time>2015-12-06T08:28:21.000Z</time>
      </trkpt>
      <trkpt lat="47.50864" lon="6.7669">
        <ele>384</ele>
        <time>2015-12-06T08:28:22.000Z</time>
      </trkpt>
      <trkpt lat="47.50863" lon="6.76685">
        <ele>384</ele>
        <time>2015-12-06T08:28:23.000Z</time>
      </trkpt>
      <trkpt lat="47.50861" lon="6.7668">
        <ele>385</ele>
        <time>2015-12-06T08:28:24.000Z</time>
      </trkpt>
      <trkpt lat="47.50859" lon="6.76676">
        <ele>385</ele>
        <time>2015-12-06T08:28:25.000Z</time>
      </trkpt>
      <trkpt lat="47.50857" lon="6.76671">
        <ele>385</ele>
        <time>2015-12-06T08:28:26.000Z</time>
      </trkpt>
      <trkpt lat="47.50855" lon="6.76667">
        <ele>387</ele>
        <time>2015-12-06T08:28:27.000Z</time>
      </trkpt>
      <trkpt lat="47.50852" lon="6.76662">
        <ele>387</ele>
        <time>2015-12-06T08:28:28.000Z</time>
      </trkpt>
      <trkpt lat="47.5085" lon="6.76658">
        <ele>387</ele>
        <time>2015-12-06T08:28:28.999Z</time>
      </trkpt>
      <trkpt lat="47.50848" lon="6.76653">
        <ele>387</ele>
        <time>2015-12-06T08:28:30.000Z</time>
      </trkpt>
      <trkpt lat="47.50846" lon="6.76647">
        <ele>387</ele>
        <time>2015-12-06T08:28:31.000Z</time>
      </trkpt>
      <trkpt lat="47.50844" lon="6.76642">
        <ele>387</ele>
        <time>2015-12-06T08:28:32.000Z</time>
      </trkpt>
      <trkpt lat="47.50842" lon="6.76638">
        <ele>387</ele>
        <time>2015-12-06T08:28:33.000Z</time>
      </trkpt>
      <trkpt lat="47.5084" lon="6.76634">
        <ele>387</ele>
        <time>2015-12-06T08:28:34.000Z</time>
      </trkpt>
      <trkpt lat="47.50838" lon="6.7663">
        <ele>387</ele>
        <time>2015-12-06T08:28:35.000Z</time>
      </trkpt>
      <trkpt lat="47.50836" lon="6.76626">
        <ele>387</ele>
        <time>2015-12-06T08:28:36.000Z</time>
      </trkpt>
      <trkpt lat="47.50834" lon="6.76622">
        <ele>387</ele>
        <time>2015-12-06T08:28:37.000Z</time>
      </trkpt>
      <trkpt lat="47.50832" lon="6.76618">
        <ele>390</ele>
        <time>2015-12-06T08:28:38.000Z</time>
      </trkpt>
      <trkpt lat="47.5083" lon="6.76614">
        <ele>390</ele>
        <time>2015-12-06T08:28:39.000Z</time>
      </trkpt>
      <trkpt lat="47.50829" lon="6.7661">
        <ele>390</ele>
        <time>2015-12-06T08:28:40.000Z</time>
      </trkpt>
      <trkpt lat="47.50827" lon="6.76606">
        <ele>390</ele>
        <time>2015-12-06T08:28:41.000Z</time>
      </trkpt>
      <trkpt lat="47.50825" lon="6.76602">
        <ele>390</ele>
        <time>2015-12-06T08:28:42.000Z</time>
      </trkpt>
      <trkpt lat="47.50824" lon="6.76597">
        <ele>390</ele>
        <time>2015-12-06T08:28:43.000Z</time>
      </trkpt>
      <trkpt lat="47.50822" lon="6.76593">
        <ele>390</ele>
        <time>2015-12-06T08:28:44.000Z</time>
      </trkpt>
      <trkpt lat="47.50818" lon="6.7659">
        <ele>390</ele>
        <time>2015-12-06T08:28:46.000Z</time>
      </trkpt>
      <trkpt lat="47.50816" lon="6.76591">
        <ele>390</ele>
        <time>2015-12-06T08:28:47.000Z</time>
      </trkpt>
      <trkpt lat="47.50813" lon="6.76592">
        <ele>390</ele>
        <time>2015-12-06T08:28:48.000Z</time>
      </trkpt>
      <trkpt lat="47.50811" lon="6.76593">
        <ele>390</ele>
        <time>2015-12-06T08:28:49.000Z</time>
      </trkpt>
      <trkpt lat="47.50809" lon="6.76592">
        <ele>390</ele>
        <time>2015-12-06T08:28:50.000Z</time>
      </trkpt>
      <trkpt lat="47.50807" lon="6.76589">
        <ele>390</ele>
        <time>2015-12-06T08:28:51.000Z</time>
      </trkpt>
      <trkpt lat="47.50805" lon="6.76587">
        <ele>390</ele>
        <time>2015-12-06T08:28:52.000Z</time>
      </trkpt>
      <trkpt lat="47.50803" lon="6.76585">
        <ele>391</ele>
        <time>2015-12-06T08:28:53.000Z</time>
      </trkpt>
      <trkpt lat="47.508" lon="6.76585">
        <ele>391</ele>
        <time>2015-12-06T08:28:54.000Z</time>
      </trkpt>
      <trkpt lat="47.50798" lon="6.76586">
        <ele>391</ele>
        <time>2015-12-06T08:28:55.000Z</time>
      </trkpt>
      <trkpt lat="47.50795" lon="6.76587">
        <ele>391</ele>
        <time>2015-12-06T08:28:56.000Z</time>
      </trkpt>
      <trkpt lat="47.50792" lon="6.76588">
        <ele>391</ele>
        <time>2015-12-06T08:28:57.000Z</time>
      </trkpt>
      <trkpt lat="47.50788" lon="6.7659">
        <ele>391</ele>
        <time>2015-12-06T08:28:59.000Z</time>
      </trkpt>
      <trkpt lat="47.50786" lon="6.7659">
        <ele>391</ele>
        <time>2015-12-06T08:29:00.000Z</time>
      </trkpt>
      <trkpt lat="47.50784" lon="6.76591">
        <ele>391</ele>
        <time>2015-12-06T08:29:01.000Z</time>
      </trkpt>
      <trkpt lat="47.50782" lon="6.76591">
        <ele>391</ele>
        <time>2015-12-06T08:29:02.000Z</time>
      </trkpt>
      <trkpt lat="47.50779" lon="6.76592">
        <ele>392</ele>
        <time>2015-12-06T08:29:03.000Z</time>
      </trkpt>
      <trkpt lat="47.50776" lon="6.76593">
        <ele>392</ele>
        <time>2015-12-06T08:29:04.000Z</time>
      </trkpt>
      <trkpt lat="47.50772" lon="6.76593">
        <ele>392</ele>
        <time>2015-12-06T08:29:05.000Z</time>
      </trkpt>
      <trkpt lat="47.50769" lon="6.76594">
        <ele>392</ele>
        <time>2015-12-06T08:29:06.000Z</time>
      </trkpt>
      <trkpt lat="47.50765" lon="6.76595">
        <ele>392</ele>
        <time>2015-12-06T08:29:07.000Z</time>
      </trkpt>
      <trkpt lat="47.50762" lon="6.76595">
        <ele>392</ele>
        <time>2015-12-06T08:29:08.000Z</time>
      </trkpt>
      <trkpt lat="47.50758" lon="6.76595">
        <ele>393</ele>
        <time>2015-12-06T08:29:09.000Z</time>
      </trkpt>
      <trkpt lat="47.50755" lon="6.76595">
        <ele>393</ele>
        <time>2015-12-06T08:29:10.000Z</time>
      </trkpt>
      <trkpt lat="47.50752" lon="6.76595">
        <ele>393</ele>
        <time>2015-12-06T08:29:11.000Z</time>
      </trkpt>
      <trkpt lat="47.50748" lon="6.76595">
        <ele>394</ele>
        <time>2015-12-06T08:29:12.000Z</time>
      </trkpt>
      <trkpt lat="47.50746" lon="6.76594">
        <ele>394</ele>
        <time>2015-12-06T08:29:13.000Z</time>
      </trkpt>
      <trkpt lat="47.50743" lon="6.76594">
        <ele>394</ele>
        <time>2015-12-06T08:29:14.001Z</time>
      </trkpt>
      <trkpt lat="47.50741" lon="6.76596">
        <ele>394</ele>
        <time>2015-12-06T08:29:49.000Z</time>
      </trkpt>
      <trkpt lat="47.50738" lon="6.76595">
        <ele>394</ele>
        <time>2015-12-06T08:29:50.000Z</time>
      </trkpt>
      <trkpt lat="47.50735" lon="6.76595">
        <ele>394</ele>
        <time>2015-12-06T08:29:51.000Z</time>
      </trkpt>
      <trkpt lat="47.50731" lon="6.76594">
        <ele>394</ele>
        <time>2015-12-06T08:29:52.000Z</time>
      </trkpt>
      <trkpt lat="47.50728" lon="6.76593">
        <ele>394</ele>
        <time>2015-12-06T08:29:53.000Z</time>
      </trkpt>
      <trkpt lat="47.50724" lon="6.76593">
        <ele>394</ele>
        <time>2015-12-06T08:29:54.000Z</time>
      </trkpt>
      <trkpt lat="47.50721" lon="6.76592">
        <ele>394</ele>
        <time>2015-12-06T08:29:55.000Z</time>
      </trkpt>
      <trkpt lat="47.50717" lon="6.76591">
        <ele>394</ele>
        <time>2015-12-06T08:29:56.000Z</time>
      </trkpt>
      <trkpt lat="47.50713" lon="6.7659">
        <ele>395</ele>
        <time>2015-12-06T08:29:57.000Z</time>
      </trkpt>
      <trkpt lat="47.5071" lon="6.76589">
        <ele>395</ele>
        <time>2015-12-06T08:29:58.000Z</time>
      </trkpt>
      <trkpt lat="47.50706" lon="6.76588">
        <ele>395</ele>
        <time>2015-12-06T08:29:59.000Z</time>
      </trkpt>
      <trkpt lat="47.50703" lon="6.76587">
        <ele>395</ele>
        <time>2015-12-06T08:30:00.000Z</time>
      </trkpt>
      <trkpt lat="47.50701" lon="6.76587">
        <ele>395</ele>
        <time>2015-12-06T08:30:13.000Z</time>
      </trkpt>
      <trkpt lat="47.50698" lon="6.76587">
        <ele>395</ele>
        <time>2015-12-06T08:30:14.000Z</time>
      </trkpt>
      <trkpt lat="47.50695" lon="6.76588">
        <ele>395</ele>
        <time>2015-12-06T08:30:15.000Z</time>
      </trkpt>
      <trkpt lat="47.50692" lon="6.76588">
        <ele>395</ele>
        <time>2015-12-06T08:30:16.000Z</time>
      </trkpt>
      <trkpt lat="47.50688" lon="6.76588">
        <ele>395</ele>
        <time>2015-12-06T08:30:17.000Z</time>
      </trkpt>
      <trkpt lat="47.50684" lon="6.76588">
        <ele>396</ele>
        <time>2015-12-06T08:30:18.000Z</time>
      </trkpt>
      <trkpt lat="47.5068" lon="6.76589">
        <ele>396</ele>
        <time>2015-12-06T08:30:19.000Z</time>
      </trkpt>
      <trkpt lat="47.50676" lon="6.7659">
        <ele>396</ele>
        <time>2015-12-06T08:30:20.000Z</time>
      </trkpt>
      <trkpt lat="47.50672" lon="6.76591">
        <ele>396</ele>
        <time>2015-12-06T08:30:21.000Z</time>
      </trkpt>
      <trkpt lat="47.50668" lon="6.76592">
        <ele>396</ele>
        <time>2015-12-06T08:30:22.000Z</time>
      </trkpt>
      <trkpt lat="47.50665" lon="6.76593">
        <ele>397</ele>
        <time>2015-12-06T08:30:23.000Z</time>
      </trkpt>
      <trkpt lat="47.50661" lon="6.76594">
        <ele>397</ele>
        <time>2015-12-06T08:30:24.000Z</time>
      </trkpt>
      <trkpt lat="47.50658" lon="6.76595">
        <ele>397</ele>
        <time>2015-12-06T08:30:25.000Z</time>
      </trkpt>
      <trkpt lat="47.50654" lon="6.76597">
        <ele>397</ele>
        <time>2015-12-06T08:30:26.000Z</time>
      </trkpt>
      <trkpt lat="47.50651" lon="6.76598">
        <ele>397</ele>
        <time>2015-12-06T08:30:27.000Z</time>
      </trkpt>
      <trkpt lat="47.50647" lon="6.766">
        <ele>397</ele>
        <time>2015-12-06T08:30:28.000Z</time>
      </trkpt>
      <trkpt lat="47.50643" lon="6.76602">
        <ele>397</ele>
        <time>2015-12-06T08:30:29.000Z</time>
      </trkpt>
      <trkpt lat="47.5064" lon="6.76603">
        <ele>397</ele>
        <time>2015-12-06T08:30:30.000Z</time>
      </trkpt>
      <trkpt lat="47.50636" lon="6.76605">
        <ele>397</ele>
        <time>2015-12-06T08:30:31.000Z</time>
      </trkpt>
      <trkpt lat="47.50633" lon="6.76607">
        <ele>397</ele>
        <time>2015-12-06T08:30:32.000Z</time>
      </trkpt>
      <trkpt lat="47.5063" lon="6.76609">
        <ele>397</ele>
        <time>2015-12-06T08:30:33.000Z</time>
      </trkpt>
      <trkpt lat="47.50627" lon="6.76611">
        <ele>397</ele>
        <time>2015-12-06T08:30:34.000Z</time>
      </trkpt>
      <trkpt lat="47.50624" lon="6.76613">
        <ele>397</ele>
        <time>2015-12-06T08:30:35.000Z</time>
      </trkpt>
      <trkpt lat="47.50621" lon="6.76614">
        <ele>397</ele>
        <time>2015-12-06T08:30:36.000Z</time>
      </trkpt>
      <trkpt lat="47.50618" lon="6.76616">
        <ele>397</ele>
        <time>2015-12-06T08:30:37.000Z</time>
      </trkpt>
      <trkpt lat="47.50614" lon="6.76617">
        <ele>397</ele>
        <time>2015-12-06T08:30:38.000Z</time>
      </trkpt>
      <trkpt lat="47.50611" lon="6.76619">
        <ele>398</ele>
        <time>2015-12-06T08:30:39.000Z</time>
      </trkpt>
      <trkpt lat="47.50607" lon="6.7662">
        <ele>398</ele>
        <time>2015-12-06T08:30:40.000Z</time>
      </trkpt>
      <trkpt lat="47.50604" lon="6.76621">
        <ele>398</ele>
        <time>2015-12-06T08:30:41.000Z</time>
      </trkpt>
      <trkpt lat="47.50601" lon="6.76623">
        <ele>398</ele>
        <time>2015-12-06T08:30:42.000Z</time>
      </trkpt>
      <trkpt lat="47.50598" lon="6.76624">
        <ele>398</ele>
        <time>2015-12-06T08:30:43.000Z</time>
      </trkpt>
      <trkpt lat="47.50594" lon="6.76625">
        <ele>398</ele>
        <time>2015-12-06T08:30:44.000Z</time>
      </trkpt>
      <trkpt lat="47.50591" lon="6.76626">
        <ele>398</ele>
        <time>2015-12-06T08:30:45.000Z</time>
      </trkpt>
      <trkpt lat="47.50588" lon="6.76627">
        <ele>398</ele>
        <time>2015-12-06T08:30:46.000Z</time>
      </trkpt>
      <trkpt lat="47.50584" lon="6.76628">
        <ele>398</ele>
        <time>2015-12-06T08:30:47.000Z</time>
      </trkpt>
      <trkpt lat="47.50581" lon="6.76629">
        <ele>399</ele>
        <time>2015-12-06T08:30:48.000Z</time>
      </trkpt>
      <trkpt lat="47.50578" lon="6.7663">
        <ele>399</ele>
        <time>2015-12-06T08:30:49.000Z</time>
      </trkpt>
      <trkpt lat="47.50575" lon="6.76631">
        <ele>399</ele>
        <time>2015-12-06T08:30:50.000Z</time>
      </trkpt>
      <trkpt lat="47.50572" lon="6.76632">
        <ele>399</ele>
        <time>2015-12-06T08:30:51.000Z</time>
      </trkpt>
      <trkpt lat="47.50569" lon="6.76633">
        <ele>399</ele>
        <time>2015-12-06T08:30:52.000Z</time>
      </trkpt>
      <trkpt lat="47.50566" lon="6.76634">
        <ele>399</ele>
        <time>2015-12-06T08:30:53.000Z</time>
      </trkpt>
      <trkpt lat="47.50562" lon="6.76635">
        <ele>399</ele>
        <time>2015-12-06T08:30:54.000Z</time>
      </trkpt>
      <trkpt lat="47.50559" lon="6.76636">
        <ele>399</ele>
        <time>2015-12-06T08:30:55.000Z</time>
      </trkpt>
      <trkpt lat="47.50556" lon="6.76636">
        <ele>399</ele>
        <time>2015-12-06T08:30:56.000Z</time>
      </trkpt>
      <trkpt lat="47.50552" lon="6.76637">
        <ele>399</ele>
        <time>2015-12-06T08:30:57.000Z</time>
      </trkpt>
      <trkpt lat="47.50549" lon="6.76639">
        <ele>399</ele>
        <time>2015-12-06T08:30:58.000Z</time>
      </trkpt>
      <trkpt lat="47.50545" lon="6.7664">
        <ele>399</ele>
        <time>2015-12-06T08:30:59.000Z</time>
      </trkpt>
      <trkpt lat="47.50542" lon="6.76641">
        <ele>399</ele>
        <time>2015-12-06T08:31:00.000Z</time>
      </trkpt>
      <trkpt lat="47.50539" lon="6.76642">
        <ele>399</ele>
        <time>2015-12-06T08:31:01.000Z</time>
      </trkpt>
      <trkpt lat="47.50535" lon="6.76644">
        <ele>399</ele>
        <time>2015-12-06T08:31:02.000Z</time>
      </trkpt>
      <trkpt lat="47.50532" lon="6.76645">
        <ele>399</ele>
        <time>2015-12-06T08:31:03.000Z</time>
      </trkpt>
      <trkpt lat="47.50528" lon="6.76646">
        <ele>399</ele>
        <time>2015-12-06T08:31:04.000Z</time>
      </trkpt>
      <trkpt lat="47.50524" lon="6.76647">
        <ele>399</ele>
        <time>2015-12-06T08:31:05.000Z</time>
      </trkpt>
      <trkpt lat="47.5052" lon="6.76648">
        <ele>399</ele>
        <time>2015-12-06T08:31:06.000Z</time>
      </trkpt>
      <trkpt lat="47.50515" lon="6.76651">
        <ele>399</ele>
        <time>2015-12-06T08:31:07.000Z</time>
      </trkpt>
      <trkpt lat="47.5051" lon="6.76652">
        <ele>399</ele>
        <time>2015-12-06T08:31:08.000Z</time>
      </trkpt>
      <trkpt lat="47.50506" lon="6.76653">
        <ele>399</ele>
        <time>2015-12-06T08:31:09.000Z</time>
      </trkpt>
      <trkpt lat="47.50501" lon="6.76656">
        <ele>399</ele>
        <time>2015-12-06T08:31:10.000Z</time>
      </trkpt>
      <trkpt lat="47.50497" lon="6.76657">
        <ele>399</ele>
        <time>2015-12-06T08:31:11.000Z</time>
      </trkpt>
      <trkpt lat="47.50493" lon="6.76658">
        <ele>399</ele>
        <time>2015-12-06T08:31:12.000Z</time>
      </trkpt>
      <trkpt lat="47.50488" lon="6.7666">
        <ele>399</ele>
        <time>2015-12-06T08:31:13.000Z</time>
      </trkpt>
      <trkpt lat="47.50483" lon="6.76661">
        <ele>399</ele>
        <time>2015-12-06T08:31:14.000Z</time>
      </trkpt>
      <trkpt lat="47.50478" lon="6.76663">
        <ele>399</ele>
        <time>2015-12-06T08:31:15.000Z</time>
      </trkpt>
      <trkpt lat="47.50472" lon="6.76665">
        <ele>398</ele>
        <time>2015-12-06T08:31:16.000Z</time>
      </trkpt>
      <trkpt lat="47.50468" lon="6.76667">
        <ele>397</ele>
        <time>2015-12-06T08:31:17.000Z</time>
      </trkpt>
      <trkpt lat="47.50463" lon="6.7667">
        <ele>397</ele>
        <time>2015-12-06T08:31:18.000Z</time>
      </trkpt>
      <trkpt lat="47.50458" lon="6.76672">
        <ele>397</ele>
        <time>2015-12-06T08:31:19.000Z</time>
      </trkpt>
      <trkpt lat="47.50453" lon="6.76674">
        <ele>397</ele>
        <time>2015-12-06T08:31:20.000Z</time>
      </trkpt>
      <trkpt lat="47.50448" lon="6.76676">
        <ele>397</ele>
        <time>2015-12-06T08:31:21.001Z</time>
      </trkpt>
      <trkpt lat="47.50443" lon="6.76678">
        <ele>397</ele>
        <time>2015-12-06T08:31:22.000Z</time>
      </trkpt>
      <trkpt lat="47.50439" lon="6.7668">
        <ele>397</ele>
        <time>2015-12-06T08:31:23.000Z</time>
      </trkpt>
      <trkpt lat="47.50434" lon="6.76681">
        <ele>397</ele>
        <time>2015-12-06T08:31:24.000Z</time>
      </trkpt>
      <trkpt lat="47.5043" lon="6.76683">
        <ele>397</ele>
        <time>2015-12-06T08:31:25.000Z</time>
      </trkpt>
      <trkpt lat="47.50426" lon="6.76685">
        <ele>397</ele>
        <time>2015-12-06T08:31:25.999Z</time>
      </trkpt>
      <trkpt lat="47.50422" lon="6.76687">
        <ele>397</ele>
        <time>2015-12-06T08:31:27.000Z</time>
      </trkpt>
      <trkpt lat="47.50418" lon="6.76688">
        <ele>397</ele>
        <time>2015-12-06T08:31:28.000Z</time>
      </trkpt>
      <trkpt lat="47.50414" lon="6.76689">
        <ele>397</ele>
        <time>2015-12-06T08:31:29.000Z</time>
      </trkpt>
      <trkpt lat="47.50409" lon="6.76691">
        <ele>397</ele>
        <time>2015-12-06T08:31:30.000Z</time>
      </trkpt>
      <trkpt lat="47.50405" lon="6.76694">
        <ele>397</ele>
        <time>2015-12-06T08:31:31.000Z</time>
      </trkpt>
      <trkpt lat="47.504" lon="6.76695">
        <ele>397</ele>
        <time>2015-12-06T08:31:32.000Z</time>
      </trkpt>
      <trkpt lat="47.50396" lon="6.76697">
        <ele>397</ele>
        <time>2015-12-06T08:31:33.000Z</time>
      </trkpt>
      <trkpt lat="47.50392" lon="6.76699">
        <ele>397</ele>
        <time>2015-12-06T08:31:34.000Z</time>
      </trkpt>
      <trkpt lat="47.50387" lon="6.767">
        <ele>397</ele>
        <time>2015-12-06T08:31:35.000Z</time>
      </trkpt>
      <trkpt lat="47.50383" lon="6.76701">
        <ele>397</ele>
        <time>2015-12-06T08:31:36.000Z</time>
      </trkpt>
      <trkpt lat="47.50378" lon="6.76704">
        <ele>397</ele>
        <time>2015-12-06T08:31:37.000Z</time>
      </trkpt>
      <trkpt lat="47.50374" lon="6.76706">
        <ele>397</ele>
        <time>2015-12-06T08:31:38.000Z</time>
      </trkpt>
      <trkpt lat="47.50371" lon="6.76708">
        <ele>397</ele>
        <time>2015-12-06T08:31:39.000Z</time>
      </trkpt>
      <trkpt lat="47.50366" lon="6.7671">
        <ele>398</ele>
        <time>2015-12-06T08:31:40.000Z</time>
      </trkpt>
      <trkpt lat="47.50362" lon="6.76712">
        <ele>398</ele>
        <time>2015-12-06T08:31:41.000Z</time>
      </trkpt>
      <trkpt lat="47.50358" lon="6.76714">
        <ele>398</ele>
        <time>2015-12-06T08:31:42.000Z</time>
      </trkpt>
      <trkpt lat="47.50354" lon="6.76715">
        <ele>398</ele>
        <time>2015-12-06T08:31:43.000Z</time>
      </trkpt>
      <trkpt lat="47.50349" lon="6.76716">
        <ele>398</ele>
        <time>2015-12-06T08:31:44.000Z</time>
      </trkpt>
      <trkpt lat="47.50345" lon="6.76719">
        <ele>398</ele>
        <time>2015-12-06T08:31:45.000Z</time>
      </trkpt>
      <trkpt lat="47.50341" lon="6.7672">
        <ele>398</ele>
        <time>2015-12-06T08:31:46.000Z</time>
      </trkpt>
      <trkpt lat="47.50339" lon="6.76723">
        <ele>398</ele>
        <time>2015-12-06T08:31:47.000Z</time>
      </trkpt>
      <trkpt lat="47.50334" lon="6.76725">
        <ele>398</ele>
        <time>2015-12-06T08:31:48.000Z</time>
      </trkpt>
      <trkpt lat="47.5033" lon="6.76727">
        <ele>398</ele>
        <time>2015-12-06T08:31:49.000Z</time>
      </trkpt>
      <trkpt lat="47.50326" lon="6.76729">
        <ele>398</ele>
        <time>2015-12-06T08:31:50.000Z</time>
      </trkpt>
      <trkpt lat="47.50322" lon="6.76731">
        <ele>398</ele>
        <time>2015-12-06T08:31:51.000Z</time>
      </trkpt>
      <trkpt lat="47.50318" lon="6.76733">
        <ele>398</ele>
        <time>2015-12-06T08:31:52.000Z</time>
      </trkpt>
      <trkpt lat="47.50314" lon="6.76735">
        <ele>398</ele>
        <time>2015-12-06T08:31:53.000Z</time>
      </trkpt>
      <trkpt lat="47.5031" lon="6.76737">
        <ele>398</ele>
        <time>2015-12-06T08:31:54.000Z</time>
      </trkpt>
      <trkpt lat="47.50307" lon="6.76737">
        <ele>398</ele>
        <time>2015-12-06T08:31:55.000Z</time>
      </trkpt>
      <trkpt lat="47.50303" lon="6.76738">
        <ele>398</ele>
        <time>2015-12-06T08:31:56.000Z</time>
      </trkpt>
      <trkpt lat="47.50299" lon="6.76739">
        <ele>399</ele>
        <time>2015-12-06T08:31:57.001Z</time>
      </trkpt>
      <trkpt lat="47.50295" lon="6.7674">
        <ele>399</ele>
        <time>2015-12-06T08:31:58.000Z</time>
      </trkpt>
      <trkpt lat="47.50291" lon="6.7674">
        <ele>399</ele>
        <time>2015-12-06T08:31:59.000Z</time>
      </trkpt>
      <trkpt lat="47.50287" lon="6.76741">
        <ele>399</ele>
        <time>2015-12-06T08:32:00.001Z</time>
      </trkpt>
      <trkpt lat="47.50283" lon="6.76742">
        <ele>399</ele>
        <time>2015-12-06T08:32:01.000Z</time>
      </trkpt>
      <trkpt lat="47.50279" lon="6.76743">
        <ele>399</ele>
        <time>2015-12-06T08:32:02.000Z</time>
      </trkpt>
      <trkpt lat="47.50275" lon="6.76743">
        <ele>399</ele>
        <time>2015-12-06T08:32:03.000Z</time>
      </trkpt>
      <trkpt lat="47.50271" lon="6.76744">
        <ele>399</ele>
        <time>2015-12-06T08:32:04.000Z</time>
      </trkpt>
      <trkpt lat="47.50268" lon="6.76745">
        <ele>399</ele>
        <time>2015-12-06T08:32:05.000Z</time>
      </trkpt>
      <trkpt lat="47.50264" lon="6.76746">
        <ele>399</ele>
        <time>2015-12-06T08:32:06.000Z</time>
      </trkpt>
      <trkpt lat="47.50261" lon="6.76747">
        <ele>399</ele>
        <time>2015-12-06T08:32:07.000Z</time>
      </trkpt>
      <trkpt lat="47.50257" lon="6.76747">
        <ele>400</ele>
        <time>2015-12-06T08:32:08.000Z</time>
      </trkpt>
      <trkpt lat="47.50254" lon="6.76748">
        <ele>400</ele>
        <time>2015-12-06T08:32:09.000Z</time>
      </trkpt>
      <trkpt lat="47.50251" lon="6.76749">
        <ele>400</ele>
        <time>2015-12-06T08:32:10.000Z</time>
      </trkpt>
      <trkpt lat="47.50247" lon="6.76749">
        <ele>400</ele>
        <time>2015-12-06T08:32:11.000Z</time>
      </trkpt>
      <trkpt lat="47.50244" lon="6.76748">
        <ele>401</ele>
        <time>2015-12-06T08:32:12.000Z</time>
      </trkpt>
      <trkpt lat="47.50242" lon="6.76746">
        <ele>401</ele>
        <time>2015-12-06T08:32:13.000Z</time>
      </trkpt>
      <trkpt lat="47.50239" lon="6.76743">
        <ele>401</ele>
        <time>2015-12-06T08:32:14.000Z</time>
      </trkpt>
      <trkpt lat="47.50238" lon="6.76739">
        <ele>401</ele>
        <time>2015-12-06T08:32:15.000Z</time>
      </trkpt>
      <trkpt lat="47.50236" lon="6.76735">
        <ele>401</ele>
        <time>2015-12-06T08:32:16.000Z</time>
      </trkpt>
      <trkpt lat="47.50234" lon="6.76731">
        <ele>401</ele>
        <time>2015-12-06T08:32:17.000Z</time>
      </trkpt>
      <trkpt lat="47.50232" lon="6.76727">
        <ele>402</ele>
        <time>2015-12-06T08:32:18.000Z</time>
      </trkpt>
      <trkpt lat="47.5023" lon="6.76723">
        <ele>402</ele>
        <time>2015-12-06T08:32:19.000Z</time>
      </trkpt>
      <trkpt lat="47.50228" lon="6.76718">
        <ele>402</ele>
        <time>2015-12-06T08:32:20.000Z</time>
      </trkpt>
      <trkpt lat="47.50227" lon="6.76713">
        <ele>402</ele>
        <time>2015-12-06T08:32:21.000Z</time>
      </trkpt>
      <trkpt lat="47.50225" lon="6.76708">
        <ele>402</ele>
        <time>2015-12-06T08:32:22.000Z</time>
      </trkpt>
      <trkpt lat="47.50223" lon="6.76703">
        <ele>402</ele>
        <time>2015-12-06T08:32:23.000Z</time>
      </trkpt>
      <trkpt lat="47.50221" lon="6.76698">
        <ele>402</ele>
        <time>2015-12-06T08:32:24.000Z</time>
      </trkpt>
      <trkpt lat="47.5022" lon="6.76693">
        <ele>402</ele>
        <time>2015-12-06T08:32:25.000Z</time>
      </trkpt>
      <trkpt lat="47.50218" lon="6.76688">
        <ele>402</ele>
        <time>2015-12-06T08:32:26.000Z</time>
      </trkpt>
      <trkpt lat="47.50217" lon="6.76682">
        <ele>402</ele>
        <time>2015-12-06T08:32:27.000Z</time>
      </trkpt>
      <trkpt lat="47.50215" lon="6.76677">
        <ele>402</ele>
        <time>2015-12-06T08:32:28.000Z</time>
      </trkpt>
      <trkpt lat="47.50214" lon="6.76671">
        <ele>402</ele>
        <time>2015-12-06T08:32:29.000Z</time>
      </trkpt>
      <trkpt lat="47.50213" lon="6.76666">
        <ele>402</ele>
        <time>2015-12-06T08:32:30.000Z</time>
      </trkpt>
      <trkpt lat="47.50212" lon="6.76661">
        <ele>402</ele>
        <time>2015-12-06T08:32:31.000Z</time>
      </trkpt>
      <trkpt lat="47.5021" lon="6.76655">
        <ele>402</ele>
        <time>2015-12-06T08:32:32.000Z</time>
      </trkpt>
      <trkpt lat="47.50209" lon="6.7665">
        <ele>402</ele>
        <time>2015-12-06T08:32:33.000Z</time>
      </trkpt>
      <trkpt lat="47.50207" lon="6.76644">
        <ele>402</ele>
        <time>2015-12-06T08:32:34.000Z</time>
      </trkpt>
      <trkpt lat="47.50205" lon="6.76639">
        <ele>402</ele>
        <time>2015-12-06T08:32:35.000Z</time>
      </trkpt>
      <trkpt lat="47.50204" lon="6.76633">
        <ele>402</ele>
        <time>2015-12-06T08:32:36.000Z</time>
      </trkpt>
      <trkpt lat="47.50202" lon="6.76627">
        <ele>402</ele>
        <time>2015-12-06T08:32:37.000Z</time>
      </trkpt>
      <trkpt lat="47.502" lon="6.76621">
        <ele>402</ele>
        <time>2015-12-06T08:32:38.000Z</time>
      </trkpt>
      <trkpt lat="47.50198" lon="6.76616">
        <ele>403</ele>
        <time>2015-12-06T08:32:39.000Z</time>
      </trkpt>
      <trkpt lat="47.50196" lon="6.76611">
        <ele>403</ele>
        <time>2015-12-06T08:32:40.001Z</time>
      </trkpt>
      <trkpt lat="47.50195" lon="6.76607">
        <ele>403</ele>
        <time>2015-12-06T08:32:41.000Z</time>
      </trkpt>
      <trkpt lat="47.50193" lon="6.76602">
        <ele>403</ele>
        <time>2015-12-06T08:32:42.000Z</time>
      </trkpt>
      <trkpt lat="47.50193" lon="6.76599">
        <ele>403</ele>
        <time>2015-12-06T08:32:43.000Z</time>
      </trkpt>
      <trkpt lat="47.50193" lon="6.76594">
        <ele>403</ele>
        <time>2015-12-06T08:32:44.000Z</time>
      </trkpt>
      <trkpt lat="47.50193" lon="6.7659">
        <ele>403</ele>
        <time>2015-12-06T08:32:44.999Z</time>
      </trkpt>
      <trkpt lat="47.50193" lon="6.76586">
        <ele>403</ele>
        <time>2015-12-06T08:32:46.000Z</time>
      </trkpt>
      <trkpt lat="47.50193" lon="6.76582">
        <ele>403</ele>
        <time>2015-12-06T08:32:47.000Z</time>
      </trkpt>
      <trkpt lat="47.50193" lon="6.76578">
        <ele>403</ele>
        <time>2015-12-06T08:32:48.000Z</time>
      </trkpt>
      <trkpt lat="47.50192" lon="6.76574">
        <ele>403</ele>
        <time>2015-12-06T08:32:49.000Z</time>
      </trkpt>
      <trkpt lat="47.50192" lon="6.76571">
        <ele>403</ele>
        <time>2015-12-06T08:32:50.000Z</time>
      </trkpt>
      <trkpt lat="47.50194" lon="6.76568">
        <ele>402</ele>
        <time>2015-12-06T08:32:51.000Z</time>
      </trkpt>
      <trkpt lat="47.50195" lon="6.76565">
        <ele>402</ele>
        <time>2015-12-06T08:32:51.999Z</time>
      </trkpt>
      <trkpt lat="47.502" lon="6.76565">
        <ele>402</ele>
        <time>2015-12-06T08:32:53.000Z</time>
      </trkpt>
      <trkpt lat="47.50203" lon="6.76565">
        <ele>402</ele>
        <time>2015-12-06T08:32:54.000Z</time>
      </trkpt>
      <trkpt lat="47.50206" lon="6.76564">
        <ele>401</ele>
        <time>2015-12-06T08:32:54.999Z</time>
      </trkpt>
      <trkpt lat="47.50208" lon="6.7656">
        <ele>401</ele>
        <time>2015-12-06T08:33:03.000Z</time>
      </trkpt>
      <trkpt lat="47.50209" lon="6.76558">
        <ele>401</ele>
        <time>2015-12-06T08:33:04.001Z</time>
      </trkpt>
      <trkpt lat="47.5021" lon="6.76553">
        <ele>401</ele>
        <time>2015-12-06T08:33:06.000Z</time>
      </trkpt>
      <trkpt lat="47.5021" lon="6.76551">
        <ele>401</ele>
        <time>2015-12-06T08:33:07.000Z</time>
      </trkpt>
      <trkpt lat="47.50213" lon="6.76545">
        <ele>401</ele>
        <time>2015-12-06T08:33:15.000Z</time>
      </trkpt>
      <trkpt lat="47.50213" lon="6.76545">
        <ele>401</ele>
        <time>2015-12-06T08:33:16.000Z</time>
      </trkpt>
      <trkpt lat="47.50214" lon="6.7654">
        <ele>400</ele>
        <time>2015-12-06T08:33:25.000Z</time>
      </trkpt>
      <trkpt lat="47.50215" lon="6.76537">
        <ele>400</ele>
        <time>2015-12-06T08:33:26.000Z</time>
      </trkpt>
      <trkpt lat="47.50216" lon="6.76534">
        <ele>400</ele>
        <time>2015-12-06T08:33:28.000Z</time>
      </trkpt>
      <trkpt lat="47.50217" lon="6.76531">
        <ele>400</ele>
        <time>2015-12-06T08:33:29.000Z</time>
      </trkpt>
      <trkpt lat="47.50218" lon="6.76528">
        <ele>400</ele>
        <time>2015-12-06T08:33:30.000Z</time>
      </trkpt>
      <trkpt lat="47.50218" lon="6.76524">
        <ele>399</ele>
        <time>2015-12-06T08:33:31.000Z</time>
      </trkpt>
      <trkpt lat="47.50218" lon="6.76519">
        <ele>399</ele>
        <time>2015-12-06T08:33:32.000Z</time>
      </trkpt>
      <trkpt lat="47.50218" lon="6.76515">
        <ele>399</ele>
        <time>2015-12-06T08:33:33.000Z</time>
      </trkpt>
      <trkpt lat="47.50217" lon="6.7651">
        <ele>399</ele>
        <time>2015-12-06T08:33:34.000Z</time>
      </trkpt>
      <trkpt lat="47.50216" lon="6.76505">
        <ele>399</ele>
        <time>2015-12-06T08:33:35.000Z</time>
      </trkpt>
      <trkpt lat="47.50214" lon="6.765">
        <ele>396</ele>
        <time>2015-12-06T08:33:36.000Z</time>
      </trkpt>
      <trkpt lat="47.50211" lon="6.76494">
        <ele>396</ele>
        <time>2015-12-06T08:33:37.000Z</time>
      </trkpt>
      <trkpt lat="47.50201" lon="6.76475">
        <ele>397</ele>
        <time>2015-12-06T08:33:38.000Z</time>
      </trkpt>
      <trkpt lat="47.50198" lon="6.76466">
        <ele>397</ele>
        <time>2015-12-06T08:33:39.000Z</time>
      </trkpt>
      <trkpt lat="47.50194" lon="6.76456">
        <ele>396</ele>
        <time>2015-12-06T08:33:40.000Z</time>
      </trkpt>
      <trkpt lat="47.50191" lon="6.76446">
        <ele>396</ele>
        <time>2015-12-06T08:33:41.000Z</time>
      </trkpt>
      <trkpt lat="47.50188" lon="6.76436">
        <ele>396</ele>
        <time>2015-12-06T08:33:42.000Z</time>
      </trkpt>
      <trkpt lat="47.50187" lon="6.76424">
        <ele>396</ele>
        <time>2015-12-06T08:33:43.000Z</time>
      </trkpt>
      <trkpt lat="47.50185" lon="6.76416">
        <ele>394</ele>
        <time>2015-12-06T08:33:44.000Z</time>
      </trkpt>
      <trkpt lat="47.5018" lon="6.76409">
        <ele>394</ele>
        <time>2015-12-06T08:33:45.000Z</time>
      </trkpt>
      <trkpt lat="47.50178" lon="6.76402">
        <ele>394</ele>
        <time>2015-12-06T08:33:46.000Z</time>
      </trkpt>
      <trkpt lat="47.50176" lon="6.76393">
        <ele>393</ele>
        <time>2015-12-06T08:33:47.000Z</time>
      </trkpt>
      <trkpt lat="47.50174" lon="6.76386">
        <ele>392</ele>
        <time>2015-12-06T08:33:48.000Z</time>
      </trkpt>
      <trkpt lat="47.50172" lon="6.76378">
        <ele>391</ele>
        <time>2015-12-06T08:33:49.000Z</time>
      </trkpt>
      <trkpt lat="47.50168" lon="6.7637">
        <ele>391</ele>
        <time>2015-12-06T08:33:50.000Z</time>
      </trkpt>
      <trkpt lat="47.50166" lon="6.76361">
        <ele>398</ele>
        <time>2015-12-06T08:33:51.000Z</time>
      </trkpt>
      <trkpt lat="47.5016" lon="6.76352">
        <ele>397</ele>
        <time>2015-12-06T08:33:52.000Z</time>
      </trkpt>
      <trkpt lat="47.50158" lon="6.76342">
        <ele>396</ele>
        <time>2015-12-06T08:33:53.000Z</time>
      </trkpt>
      <trkpt lat="47.50155" lon="6.76334">
        <ele>396</ele>
        <time>2015-12-06T08:33:54.000Z</time>
      </trkpt>
      <trkpt lat="47.50152" lon="6.76322">
        <ele>394</ele>
        <time>2015-12-06T08:33:55.000Z</time>
      </trkpt>
      <trkpt lat="47.5015" lon="6.76313">
        <ele>395</ele>
        <time>2015-12-06T08:33:56.000Z</time>
      </trkpt>
      <trkpt lat="47.50148" lon="6.76304">
        <ele>395</ele>
        <time>2015-12-06T08:33:57.000Z</time>
      </trkpt>
      <trkpt lat="47.50145" lon="6.76296">
        <ele>395</ele>
        <time>2015-12-06T08:33:58.000Z</time>
      </trkpt>
      <trkpt lat="47.50144" lon="6.76289">
        <ele>395</ele>
        <time>2015-12-06T08:33:59.000Z</time>
      </trkpt>
      <trkpt lat="47.50142" lon="6.7628">
        <ele>395</ele>
        <time>2015-12-06T08:34:00.000Z</time>
      </trkpt>
      <trkpt lat="47.5014" lon="6.76273">
        <ele>395</ele>
        <time>2015-12-06T08:34:01.000Z</time>
      </trkpt>
      <trkpt lat="47.50138" lon="6.76264">
        <ele>395</ele>
        <time>2015-12-06T08:34:02.000Z</time>
      </trkpt>
      <trkpt lat="47.50135" lon="6.76254">
        <ele>395</ele>
        <time>2015-12-06T08:34:03.000Z</time>
      </trkpt>
      <trkpt lat="47.50133" lon="6.76244">
        <ele>391</ele>
        <time>2015-12-06T08:34:04.000Z</time>
      </trkpt>
      <trkpt lat="47.50132" lon="6.76234">
        <ele>391</ele>
        <time>2015-12-06T08:34:05.000Z</time>
      </trkpt>
      <trkpt lat="47.50131" lon="6.76225">
        <ele>391</ele>
        <time>2015-12-06T08:34:06.000Z</time>
      </trkpt>
      <trkpt lat="47.5013" lon="6.76214">
        <ele>390</ele>
        <time>2015-12-06T08:34:07.000Z</time>
      </trkpt>
      <trkpt lat="47.50128" lon="6.76202">
        <ele>390</ele>
        <time>2015-12-06T08:34:08.000Z</time>
      </trkpt>
      <trkpt lat="47.50127" lon="6.76191">
        <ele>390</ele>
        <time>2015-12-06T08:34:09.000Z</time>
      </trkpt>
      <trkpt lat="47.50123" lon="6.76181">
        <ele>390</ele>
        <time>2015-12-06T08:34:10.000Z</time>
      </trkpt>
      <trkpt lat="47.5012" lon="6.76169">
        <ele>390</ele>
        <time>2015-12-06T08:34:11.000Z</time>
      </trkpt>
      <trkpt lat="47.50118" lon="6.76157">
        <ele>386</ele>
        <time>2015-12-06T08:34:12.000Z</time>
      </trkpt>
      <trkpt lat="47.50116" lon="6.76142">
        <ele>386</ele>
        <time>2015-12-06T08:34:13.000Z</time>
      </trkpt>
      <trkpt lat="47.50114" lon="6.76133">
        <ele>385</ele>
        <time>2015-12-06T08:34:14.000Z</time>
      </trkpt>
      <trkpt lat="47.50112" lon="6.76125">
        <ele>385</ele>
        <time>2015-12-06T08:34:15.000Z</time>
      </trkpt>
      <trkpt lat="47.5011" lon="6.76117">
        <ele>385</ele>
        <time>2015-12-06T08:34:16.000Z</time>
      </trkpt>
      <trkpt lat="47.50108" lon="6.7611">
        <ele>385</ele>
        <time>2015-12-06T08:34:17.000Z</time>
      </trkpt>
      <trkpt lat="47.50107" lon="6.76103">
        <ele>385</ele>
        <time>2015-12-06T08:34:18.000Z</time>
      </trkpt>
      <trkpt lat="47.50106" lon="6.76097">
        <ele>385</ele>
        <time>2015-12-06T08:34:19.000Z</time>
      </trkpt>
      <trkpt lat="47.50105" lon="6.76092">
        <ele>386</ele>
        <time>2015-12-06T08:34:20.000Z</time>
      </trkpt>
      <trkpt lat="47.50104" lon="6.76084">
        <ele>386</ele>
        <time>2015-12-06T08:34:21.000Z</time>
      </trkpt>
      <trkpt lat="47.50103" lon="6.76075">
        <ele>383</ele>
        <time>2015-12-06T08:34:22.000Z</time>
      </trkpt>
      <trkpt lat="47.50101" lon="6.76068">
        <ele>382</ele>
        <time>2015-12-06T08:34:23.000Z</time>
      </trkpt>
      <trkpt lat="47.50098" lon="6.7606">
        <ele>382</ele>
        <time>2015-12-06T08:34:24.000Z</time>
      </trkpt>
      <trkpt lat="47.50097" lon="6.76053">
        <ele>381</ele>
        <time>2015-12-06T08:34:25.000Z</time>
      </trkpt>
      <trkpt lat="47.50097" lon="6.76042">
        <ele>380</ele>
        <time>2015-12-06T08:34:26.000Z</time>
      </trkpt>
      <trkpt lat="47.50096" lon="6.76036">
        <ele>380</ele>
        <time>2015-12-06T08:34:27.000Z</time>
      </trkpt>
      <trkpt lat="47.50097" lon="6.76031">
        <ele>380</ele>
        <time>2015-12-06T08:34:28.000Z</time>
      </trkpt>
      <trkpt lat="47.50097" lon="6.76024">
        <ele>379</ele>
        <time>2015-12-06T08:34:29.000Z</time>
      </trkpt>
      <trkpt lat="47.50097" lon="6.76018">
        <ele>379</ele>
        <time>2015-12-06T08:34:30.000Z</time>
      </trkpt>
      <trkpt lat="47.50095" lon="6.76009">
        <ele>379</ele>
        <time>2015-12-06T08:34:31.000Z</time>
      </trkpt>
      <trkpt lat="47.50092" lon="6.76002">
        <ele>380</ele>
        <time>2015-12-06T08:34:32.000Z</time>
      </trkpt>
      <trkpt lat="47.50088" lon="6.75994">
        <ele>378</ele>
        <time>2015-12-06T08:34:33.000Z</time>
      </trkpt>
      <trkpt lat="47.50085" lon="6.75987">
        <ele>377</ele>
        <time>2015-12-06T08:34:34.000Z</time>
      </trkpt>
      <trkpt lat="47.50083" lon="6.75978">
        <ele>379</ele>
        <time>2015-12-06T08:34:35.000Z</time>
      </trkpt>
      <trkpt lat="47.50079" lon="6.75969">
        <ele>379</ele>
        <time>2015-12-06T08:34:36.000Z</time>
      </trkpt>
      <trkpt lat="47.50074" lon="6.75958">
        <ele>378</ele>
        <time>2015-12-06T08:34:37.000Z</time>
      </trkpt>
      <trkpt lat="47.50069" lon="6.7595">
        <ele>378</ele>
        <time>2015-12-06T08:34:38.000Z</time>
      </trkpt>
      <trkpt lat="47.50063" lon="6.75939">
        <ele>377</ele>
        <time>2015-12-06T08:34:39.000Z</time>
      </trkpt>
      <trkpt lat="47.50057" lon="6.75931">
        <ele>377</ele>
        <time>2015-12-06T08:34:40.000Z</time>
      </trkpt>
      <trkpt lat="47.50052" lon="6.75923">
        <ele>377</ele>
        <time>2015-12-06T08:34:41.000Z</time>
      </trkpt>
      <trkpt lat="47.50047" lon="6.75915">
        <ele>376</ele>
        <time>2015-12-06T08:34:42.000Z</time>
      </trkpt>
      <trkpt lat="47.50043" lon="6.75907">
        <ele>376</ele>
        <time>2015-12-06T08:34:42.998Z</time>
      </trkpt>
      <trkpt lat="47.50036" lon="6.759">
        <ele>376</ele>
        <time>2015-12-06T08:34:44.000Z</time>
      </trkpt>
      <trkpt lat="47.50028" lon="6.75894">
        <ele>376</ele>
        <time>2015-12-06T08:34:45.000Z</time>
      </trkpt>
      <trkpt lat="47.50022" lon="6.75887">
        <ele>377</ele>
        <time>2015-12-06T08:34:46.000Z</time>
      </trkpt>
      <trkpt lat="47.50016" lon="6.75879">
        <ele>377</ele>
        <time>2015-12-06T08:34:47.000Z</time>
      </trkpt>
      <trkpt lat="47.50011" lon="6.75869">
        <ele>377</ele>
        <time>2015-12-06T08:34:48.000Z</time>
      </trkpt>
      <trkpt lat="47.50006" lon="6.75857">
        <ele>377</ele>
        <time>2015-12-06T08:34:49.000Z</time>
      </trkpt>
      <trkpt lat="47.50001" lon="6.75847">
        <ele>378</ele>
        <time>2015-12-06T08:34:50.000Z</time>
      </trkpt>
      <trkpt lat="47.49996" lon="6.75837">
        <ele>378</ele>
        <time>2015-12-06T08:34:51.000Z</time>
      </trkpt>
      <trkpt lat="47.49992" lon="6.75827">
        <ele>377</ele>
        <time>2015-12-06T08:34:52.000Z</time>
      </trkpt>
      <trkpt lat="47.49984" lon="6.75819">
        <ele>376</ele>
        <time>2015-12-06T08:34:53.000Z</time>
      </trkpt>
      <trkpt lat="47.49979" lon="6.75811">
        <ele>375</ele>
        <time>2015-12-06T08:34:54.000Z</time>
      </trkpt>
      <trkpt lat="47.49973" lon="6.75802">
        <ele>375</ele>
        <time>2015-12-06T08:34:55.000Z</time>
      </trkpt>
      <trkpt lat="47.49969" lon="6.75789">
        <ele>374</ele>
        <time>2015-12-06T08:34:56.000Z</time>
      </trkpt>
      <trkpt lat="47.49964" lon="6.75781">
        <ele>374</ele>
        <time>2015-12-06T08:34:57.000Z</time>
      </trkpt>
      <trkpt lat="47.49958" lon="6.75773">
        <ele>374</ele>
        <time>2015-12-06T08:34:58.000Z</time>
      </trkpt>
      <trkpt lat="47.4995" lon="6.75765">
        <ele>373</ele>
        <time>2015-12-06T08:34:59.000Z</time>
      </trkpt>
      <trkpt lat="47.49943" lon="6.75756">
        <ele>372</ele>
        <time>2015-12-06T08:35:00.000Z</time>
      </trkpt>
      <trkpt lat="47.49936" lon="6.75746">
        <ele>370</ele>
        <time>2015-12-06T08:35:01.000Z</time>
      </trkpt>
      <trkpt lat="47.4993" lon="6.75738">
        <ele>370</ele>
        <time>2015-12-06T08:35:02.000Z</time>
      </trkpt>
      <trkpt lat="47.49923" lon="6.75729">
        <ele>370</ele>
        <time>2015-12-06T08:35:03.000Z</time>
      </trkpt>
      <trkpt lat="47.49916" lon="6.75722">
        <ele>365</ele>
        <time>2015-12-06T08:35:04.000Z</time>
      </trkpt>
      <trkpt lat="47.49908" lon="6.75719">
        <ele>365</ele>
        <time>2015-12-06T08:35:05.000Z</time>
      </trkpt>
      <trkpt lat="47.49899" lon="6.75718">
        <ele>364</ele>
        <time>2015-12-06T08:35:06.000Z</time>
      </trkpt>
      <trkpt lat="47.49891" lon="6.7572">
        <ele>364</ele>
        <time>2015-12-06T08:35:07.000Z</time>
      </trkpt>
      <trkpt lat="47.49883" lon="6.7572">
        <ele>363</ele>
        <time>2015-12-06T08:35:08.000Z</time>
      </trkpt>
      <trkpt lat="47.49872" lon="6.75723">
        <ele>363</ele>
        <time>2015-12-06T08:35:09.000Z</time>
      </trkpt>
      <trkpt lat="47.49863" lon="6.75725">
        <ele>362</ele>
        <time>2015-12-06T08:35:10.000Z</time>
      </trkpt>
      <trkpt lat="47.49852" lon="6.75727">
        <ele>361</ele>
        <time>2015-12-06T08:35:11.000Z</time>
      </trkpt>
      <trkpt lat="47.49844" lon="6.75729">
        <ele>361</ele>
        <time>2015-12-06T08:35:12.000Z</time>
      </trkpt>
      <trkpt lat="47.49834" lon="6.75733">
        <ele>360</ele>
        <time>2015-12-06T08:35:13.000Z</time>
      </trkpt>
      <trkpt lat="47.49824" lon="6.75739">
        <ele>355</ele>
        <time>2015-12-06T08:35:14.000Z</time>
      </trkpt>
      <trkpt lat="47.49815" lon="6.75741">
        <ele>354</ele>
        <time>2015-12-06T08:35:15.000Z</time>
      </trkpt>
      <trkpt lat="47.49806" lon="6.75742">
        <ele>353</ele>
        <time>2015-12-06T08:35:16.000Z</time>
      </trkpt>
      <trkpt lat="47.49797" lon="6.75746">
        <ele>353</ele>
        <time>2015-12-06T08:35:17.000Z</time>
      </trkpt>
      <trkpt lat="47.49787" lon="6.75749">
        <ele>352</ele>
        <time>2015-12-06T08:35:18.000Z</time>
      </trkpt>
      <trkpt lat="47.49777" lon="6.75753">
        <ele>357</ele>
        <time>2015-12-06T08:35:19.000Z</time>
      </trkpt>
      <trkpt lat="47.49768" lon="6.75755">
        <ele>356</ele>
        <time>2015-12-06T08:35:20.000Z</time>
      </trkpt>
      <trkpt lat="47.49759" lon="6.75757">
        <ele>355</ele>
        <time>2015-12-06T08:35:21.000Z</time>
      </trkpt>
      <trkpt lat="47.4975" lon="6.75761">
        <ele>353</ele>
        <time>2015-12-06T08:35:22.000Z</time>
      </trkpt>
      <trkpt lat="47.4974" lon="6.75765">
        <ele>353</ele>
        <time>2015-12-06T08:35:23.000Z</time>
      </trkpt>
      <trkpt lat="47.49732" lon="6.75768">
        <ele>353</ele>
        <time>2015-12-06T08:35:24.000Z</time>
      </trkpt>
      <trkpt lat="47.49723" lon="6.75771">
        <ele>354</ele>
        <time>2015-12-06T08:35:25.000Z</time>
      </trkpt>
      <trkpt lat="47.49715" lon="6.75775">
        <ele>354</ele>
        <time>2015-12-06T08:35:26.000Z</time>
      </trkpt>
      <trkpt lat="47.49706" lon="6.75779">
        <ele>354</ele>
        <time>2015-12-06T08:35:27.000Z</time>
      </trkpt>
      <trkpt lat="47.49698" lon="6.75782">
        <ele>353</ele>
        <time>2015-12-06T08:35:28.000Z</time>
      </trkpt>
      <trkpt lat="47.49688" lon="6.75786">
        <ele>353</ele>
        <time>2015-12-06T08:35:29.000Z</time>
      </trkpt>
      <trkpt lat="47.49681" lon="6.75788">
        <ele>353</ele>
        <time>2015-12-06T08:35:30.000Z</time>
      </trkpt>
      <trkpt lat="47.49672" lon="6.7579">
        <ele>353</ele>
        <time>2015-12-06T08:35:31.000Z</time>
      </trkpt>
      <trkpt lat="47.49665" lon="6.7579">
        <ele>348</ele>
        <time>2015-12-06T08:35:32.000Z</time>
      </trkpt>
      <trkpt lat="47.49659" lon="6.7579">
        <ele>348</ele>
        <time>2015-12-06T08:35:33.000Z</time>
      </trkpt>
      <trkpt lat="47.49651" lon="6.7579">
        <ele>347</ele>
        <time>2015-12-06T08:35:34.000Z</time>
      </trkpt>
      <trkpt lat="47.49641" lon="6.75787">
        <ele>347</ele>
        <time>2015-12-06T08:35:35.000Z</time>
      </trkpt>
      <trkpt lat="47.49632" lon="6.75787">
        <ele>346</ele>
        <time>2015-12-06T08:35:36.000Z</time>
      </trkpt>
      <trkpt lat="47.49623" lon="6.75786">
        <ele>346</ele>
        <time>2015-12-06T08:35:37.000Z</time>
      </trkpt>
      <trkpt lat="47.49616" lon="6.75784">
        <ele>345</ele>
        <time>2015-12-06T08:35:38.000Z</time>
      </trkpt>
      <trkpt lat="47.49609" lon="6.75785">
        <ele>345</ele>
        <time>2015-12-06T08:35:39.000Z</time>
      </trkpt>
      <trkpt lat="47.49601" lon="6.75786">
        <ele>344</ele>
        <time>2015-12-06T08:35:40.000Z</time>
      </trkpt>
      <trkpt lat="47.49594" lon="6.75784">
        <ele>344</ele>
        <time>2015-12-06T08:35:41.000Z</time>
      </trkpt>
      <trkpt lat="47.49587" lon="6.75783">
        <ele>343</ele>
        <time>2015-12-06T08:35:42.000Z</time>
      </trkpt>
      <trkpt lat="47.49576" lon="6.7578">
        <ele>337</ele>
        <time>2015-12-06T08:35:43.000Z</time>
      </trkpt>
      <trkpt lat="47.49569" lon="6.75775">
        <ele>336</ele>
        <time>2015-12-06T08:35:44.000Z</time>
      </trkpt>
      <trkpt lat="47.49562" lon="6.75772">
        <ele>336</ele>
        <time>2015-12-06T08:35:45.000Z</time>
      </trkpt>
      <trkpt lat="47.49556" lon="6.75768">
        <ele>335</ele>
        <time>2015-12-06T08:35:46.000Z</time>
      </trkpt>
      <trkpt lat="47.49553" lon="6.75764">
        <ele>335</ele>
        <time>2015-12-06T08:35:47.000Z</time>
      </trkpt>
      <trkpt lat="47.49553" lon="6.75757">
        <ele>335</ele>
        <time>2015-12-06T08:35:48.000Z</time>
      </trkpt>
      <trkpt lat="47.49557" lon="6.75753">
        <ele>335</ele>
        <time>2015-12-06T08:35:49.000Z</time>
      </trkpt>
      <trkpt lat="47.4956" lon="6.75749">
        <ele>329</ele>
        <time>2015-12-06T08:35:50.000Z</time>
      </trkpt>
      <trkpt lat="47.49565" lon="6.75747">
        <ele>329</ele>
        <time>2015-12-06T08:35:51.000Z</time>
      </trkpt>
      <trkpt lat="47.49569" lon="6.75745">
        <ele>330</ele>
        <time>2015-12-06T08:35:52.000Z</time>
      </trkpt>
      <trkpt lat="47.49573" lon="6.75741">
        <ele>330</ele>
        <time>2015-12-06T08:35:53.000Z</time>
      </trkpt>
      <trkpt lat="47.49577" lon="6.75737">
        <ele>330</ele>
        <time>2015-12-06T08:35:54.000Z</time>
      </trkpt>
      <trkpt lat="47.49582" lon="6.75733">
        <ele>329</ele>
        <time>2015-12-06T08:35:55.000Z</time>
      </trkpt>
      <trkpt lat="47.49585" lon="6.75728">
        <ele>332</ele>
        <time>2015-12-06T08:35:56.000Z</time>
      </trkpt>
      <trkpt lat="47.49589" lon="6.75721">
        <ele>331</ele>
        <time>2015-12-06T08:35:57.000Z</time>
      </trkpt>
      <trkpt lat="47.49593" lon="6.75715">
        <ele>331</ele>
        <time>2015-12-06T08:35:58.000Z</time>
      </trkpt>
      <trkpt lat="47.49596" lon="6.75709">
        <ele>330</ele>
        <time>2015-12-06T08:35:59.000Z</time>
      </trkpt>
      <trkpt lat="47.49597" lon="6.757">
        <ele>329</ele>
        <time>2015-12-06T08:36:00.000Z</time>
      </trkpt>
      <trkpt lat="47.49596" lon="6.75692">
        <ele>328</ele>
        <time>2015-12-06T08:36:01.000Z</time>
      </trkpt>
      <trkpt lat="47.49593" lon="6.75686">
        <ele>327</ele>
        <time>2015-12-06T08:36:02.000Z</time>
      </trkpt>
      <trkpt lat="47.49589" lon="6.7568">
        <ele>326</ele>
        <time>2015-12-06T08:36:03.000Z</time>
      </trkpt>
      <trkpt lat="47.49585" lon="6.75675">
        <ele>324</ele>
        <time>2015-12-06T08:36:04.000Z</time>
      </trkpt>
      <trkpt lat="47.49582" lon="6.7567">
        <ele>322</ele>
        <time>2015-12-06T08:36:05.000Z</time>
      </trkpt>
      <trkpt lat="47.49577" lon="6.75666">
        <ele>321</ele>
        <time>2015-12-06T08:36:06.000Z</time>
      </trkpt>
      <trkpt lat="47.49572" lon="6.75668">
        <ele>323</ele>
        <time>2015-12-06T08:36:07.000Z</time>
      </trkpt>
      <trkpt lat="47.49567" lon="6.75672">
        <ele>323</ele>
        <time>2015-12-06T08:36:08.000Z</time>
      </trkpt>
      <trkpt lat="47.49563" lon="6.75678">
        <ele>324</ele>
        <time>2015-12-06T08:36:09.000Z</time>
      </trkpt>
      <trkpt lat="47.49559" lon="6.75684">
        <ele>324</ele>
        <time>2015-12-06T08:36:10.000Z</time>
      </trkpt>
      <trkpt lat="47.49554" lon="6.7569">
        <ele>324</ele>
        <time>2015-12-06T08:36:11.000Z</time>
      </trkpt>
      <trkpt lat="47.4955" lon="6.75696">
        <ele>325</ele>
        <time>2015-12-06T08:36:12.000Z</time>
      </trkpt>
      <trkpt lat="47.49546" lon="6.75701">
        <ele>325</ele>
        <time>2015-12-06T08:36:13.000Z</time>
      </trkpt>
      <trkpt lat="47.49541" lon="6.75707">
        <ele>325</ele>
        <time>2015-12-06T08:36:14.000Z</time>
      </trkpt>
      <trkpt lat="47.49536" lon="6.75712">
        <ele>325</ele>
        <time>2015-12-06T08:36:15.000Z</time>
      </trkpt>
      <trkpt lat="47.49531" lon="6.75716">
        <ele>325</ele>
        <time>2015-12-06T08:36:16.000Z</time>
      </trkpt>
      <trkpt lat="47.49526" lon="6.7572">
        <ele>325</ele>
        <time>2015-12-06T08:36:17.000Z</time>
      </trkpt>
      <trkpt lat="47.49521" lon="6.75724">
        <ele>325</ele>
        <time>2015-12-06T08:36:18.000Z</time>
      </trkpt>
      <trkpt lat="47.49515" lon="6.75727">
        <ele>325</ele>
        <time>2015-12-06T08:36:19.000Z</time>
      </trkpt>
      <trkpt lat="47.4951" lon="6.75731">
        <ele>325</ele>
        <time>2015-12-06T08:36:20.000Z</time>
      </trkpt>
      <trkpt lat="47.49505" lon="6.75732">
        <ele>325</ele>
        <time>2015-12-06T08:36:21.000Z</time>
      </trkpt>
      <trkpt lat="47.495" lon="6.75734">
        <ele>323</ele>
        <time>2015-12-06T08:36:22.000Z</time>
      </trkpt>
      <trkpt lat="47.49494" lon="6.75736">
        <ele>323</ele>
        <time>2015-12-06T08:36:23.000Z</time>
      </trkpt>
      <trkpt lat="47.4949" lon="6.75736">
        <ele>322</ele>
        <time>2015-12-06T08:36:24.000Z</time>
      </trkpt>
      <trkpt lat="47.49485" lon="6.75735">
        <ele>322</ele>
        <time>2015-12-06T08:36:25.000Z</time>
      </trkpt>
      <trkpt lat="47.49481" lon="6.75731">
        <ele>322</ele>
        <time>2015-12-06T08:36:26.000Z</time>
      </trkpt>
      <trkpt lat="47.49478" lon="6.75724">
        <ele>322</ele>
        <time>2015-12-06T08:36:27.000Z</time>
      </trkpt>
      <trkpt lat="47.49476" lon="6.75717">
        <ele>321</ele>
        <time>2015-12-06T08:36:28.000Z</time>
      </trkpt>
      <trkpt lat="47.49473" lon="6.7571">
        <ele>321</ele>
        <time>2015-12-06T08:36:29.000Z</time>
      </trkpt>
      <trkpt lat="47.49471" lon="6.75703">
        <ele>321</ele>
        <time>2015-12-06T08:36:30.000Z</time>
      </trkpt>
      <trkpt lat="47.49468" lon="6.75698">
        <ele>321</ele>
        <time>2015-12-06T08:36:31.000Z</time>
      </trkpt>
      <trkpt lat="47.49463" lon="6.75696">
        <ele>321</ele>
        <time>2015-12-06T08:36:32.000Z</time>
      </trkpt>
      <trkpt lat="47.49458" lon="6.75695">
        <ele>321</ele>
        <time>2015-12-06T08:36:33.000Z</time>
      </trkpt>
      <trkpt lat="47.49453" lon="6.75697">
        <ele>321</ele>
        <time>2015-12-06T08:36:34.000Z</time>
      </trkpt>
      <trkpt lat="47.49449" lon="6.75699">
        <ele>321</ele>
        <time>2015-12-06T08:36:35.000Z</time>
      </trkpt>
      <trkpt lat="47.49445" lon="6.75702">
        <ele>321</ele>
        <time>2015-12-06T08:36:36.000Z</time>
      </trkpt>
      <trkpt lat="47.4944" lon="6.75703">
        <ele>321</ele>
        <time>2015-12-06T08:36:37.000Z</time>
      </trkpt>
      <trkpt lat="47.4944" lon="6.7569">
        <ele>320</ele>
        <time>2015-12-06T08:36:38.000Z</time>
      </trkpt>
      <trkpt lat="47.49439" lon="6.75683">
        <ele>320</ele>
        <time>2015-12-06T08:36:39.000Z</time>
      </trkpt>
      <trkpt lat="47.49437" lon="6.75677">
        <ele>320</ele>
        <time>2015-12-06T08:36:40.000Z</time>
      </trkpt>
      <trkpt lat="47.49436" lon="6.75672">
        <ele>320</ele>
        <time>2015-12-06T08:36:41.000Z</time>
      </trkpt>
      <trkpt lat="47.49433" lon="6.75673">
        <ele>320</ele>
        <time>2015-12-06T08:36:42.000Z</time>
      </trkpt>
      <trkpt lat="47.4943" lon="6.75674">
        <ele>320</ele>
        <time>2015-12-06T08:36:43.000Z</time>
      </trkpt>
      <trkpt lat="47.49427" lon="6.75675">
        <ele>320</ele>
        <time>2015-12-06T08:36:44.000Z</time>
      </trkpt>
      <trkpt lat="47.49422" lon="6.7568">
        <ele>320</ele>
        <time>2015-12-06T08:36:45.000Z</time>
      </trkpt>
      <trkpt lat="47.49417" lon="6.75683">
        <ele>319</ele>
        <time>2015-12-06T08:36:46.000Z</time>
      </trkpt>
      <trkpt lat="47.49412" lon="6.75686">
        <ele>319</ele>
        <time>2015-12-06T08:36:47.000Z</time>
      </trkpt>
      <trkpt lat="47.49407" lon="6.75688">
        <ele>319</ele>
        <time>2015-12-06T08:36:48.000Z</time>
      </trkpt>
      <trkpt lat="47.49403" lon="6.75692">
        <ele>319</ele>
        <time>2015-12-06T08:36:49.000Z</time>
      </trkpt>
      <trkpt lat="47.49398" lon="6.75695">
        <ele>319</ele>
        <time>2015-12-06T08:36:50.000Z</time>
      </trkpt>
      <trkpt lat="47.49393" lon="6.75698">
        <ele>319</ele>
        <time>2015-12-06T08:36:51.000Z</time>
      </trkpt>
      <trkpt lat="47.49389" lon="6.75701">
        <ele>319</ele>
        <time>2015-12-06T08:36:51.999Z</time>
      </trkpt>
      <trkpt lat="47.49385" lon="6.75704">
        <ele>319</ele>
        <time>2015-12-06T08:36:53.000Z</time>
      </trkpt>
      <trkpt lat="47.49381" lon="6.75707">
        <ele>319</ele>
        <time>2015-12-06T08:36:54.000Z</time>
      </trkpt>
      <trkpt lat="47.49377" lon="6.7571">
        <ele>319</ele>
        <time>2015-12-06T08:36:55.000Z</time>
      </trkpt>
      <trkpt lat="47.49374" lon="6.75713">
        <ele>319</ele>
        <time>2015-12-06T08:36:56.001Z</time>
      </trkpt>
      <trkpt lat="47.49368" lon="6.75717">
        <ele>319</ele>
        <time>2015-12-06T08:36:57.000Z</time>
      </trkpt>
      <trkpt lat="47.49365" lon="6.75722">
        <ele>319</ele>
        <time>2015-12-06T08:36:58.000Z</time>
      </trkpt>
      <trkpt lat="47.49364" lon="6.75724">
        <ele>319</ele>
        <time>2015-12-06T08:36:59.000Z</time>
      </trkpt>
      <trkpt lat="47.4936" lon="6.75726">
        <ele>319</ele>
        <time>2015-12-06T08:37:01.000Z</time>
      </trkpt>
      <trkpt lat="47.49357" lon="6.75729">
        <ele>319</ele>
        <time>2015-12-06T08:37:02.000Z</time>
      </trkpt>
      <trkpt lat="47.49354" lon="6.75729">
        <ele>319</ele>
        <time>2015-12-06T08:37:03.000Z</time>
      </trkpt>
      <trkpt lat="47.4935" lon="6.7573">
        <ele>319</ele>
        <time>2015-12-06T08:37:03.999Z</time>
      </trkpt>
      <trkpt lat="47.49345" lon="6.75735">
        <ele>318</ele>
        <time>2015-12-06T08:37:05.000Z</time>
      </trkpt>
      <trkpt lat="47.49341" lon="6.75737">
        <ele>318</ele>
        <time>2015-12-06T08:37:06.000Z</time>
      </trkpt>
      <trkpt lat="47.49336" lon="6.75738">
        <ele>318</ele>
        <time>2015-12-06T08:37:07.000Z</time>
      </trkpt>
      <trkpt lat="47.4933" lon="6.75743">
        <ele>318</ele>
        <time>2015-12-06T08:37:08.000Z</time>
      </trkpt>
      <trkpt lat="47.49325" lon="6.75746">
        <ele>318</ele>
        <time>2015-12-06T08:37:09.000Z</time>
      </trkpt>
      <trkpt lat="47.49318" lon="6.75754">
        <ele>318</ele>
        <time>2015-12-06T08:37:10.000Z</time>
      </trkpt>
      <trkpt lat="47.49311" lon="6.7576">
        <ele>318</ele>
        <time>2015-12-06T08:37:11.000Z</time>
      </trkpt>
      <trkpt lat="47.49306" lon="6.75768">
        <ele>318</ele>
        <time>2015-12-06T08:37:12.000Z</time>
      </trkpt>
      <trkpt lat="47.49301" lon="6.75773">
        <ele>318</ele>
        <time>2015-12-06T08:37:13.000Z</time>
      </trkpt>
      <trkpt lat="47.49297" lon="6.75778">
        <ele>318</ele>
        <time>2015-12-06T08:37:13.999Z</time>
      </trkpt>
      <trkpt lat="47.49294" lon="6.75784">
        <ele>318</ele>
        <time>2015-12-06T08:37:15.000Z</time>
      </trkpt>
      <trkpt lat="47.49289" lon="6.75789">
        <ele>318</ele>
        <time>2015-12-06T08:37:16.000Z</time>
      </trkpt>
      <trkpt lat="47.49285" lon="6.75794">
        <ele>318</ele>
        <time>2015-12-06T08:37:17.000Z</time>
      </trkpt>
      <trkpt lat="47.4928" lon="6.758">
        <ele>318</ele>
        <time>2015-12-06T08:37:17.999Z</time>
      </trkpt>
      <trkpt lat="47.49276" lon="6.75806">
        <ele>317</ele>
        <time>2015-12-06T08:37:19.000Z</time>
      </trkpt>
      <trkpt lat="47.49271" lon="6.75814">
        <ele>317</ele>
        <time>2015-12-06T08:37:20.000Z</time>
      </trkpt>
      <trkpt lat="47.49267" lon="6.75819">
        <ele>316</ele>
        <time>2015-12-06T08:37:21.000Z</time>
      </trkpt>
      <trkpt lat="47.49263" lon="6.75825">
        <ele>315</ele>
        <time>2015-12-06T08:37:22.000Z</time>
      </trkpt>
      <trkpt lat="47.49259" lon="6.75832">
        <ele>315</ele>
        <time>2015-12-06T08:37:23.000Z</time>
      </trkpt>
      <trkpt lat="47.49255" lon="6.75839">
        <ele>315</ele>
        <time>2015-12-06T08:37:24.000Z</time>
      </trkpt>
      <trkpt lat="47.49252" lon="6.75844">
        <ele>316</ele>
        <time>2015-12-06T08:37:25.000Z</time>
      </trkpt>
      <trkpt lat="47.49248" lon="6.75851">
        <ele>316</ele>
        <time>2015-12-06T08:37:26.000Z</time>
      </trkpt>
      <trkpt lat="47.49245" lon="6.75858">
        <ele>317</ele>
        <time>2015-12-06T08:37:27.000Z</time>
      </trkpt>
      <trkpt lat="47.49241" lon="6.75865">
        <ele>318</ele>
        <time>2015-12-06T08:37:28.000Z</time>
      </trkpt>
      <trkpt lat="47.49237" lon="6.75873">
        <ele>318</ele>
        <time>2015-12-06T08:37:29.000Z</time>
      </trkpt>
      <trkpt lat="47.49234" lon="6.7588">
        <ele>318</ele>
        <time>2015-12-06T08:37:30.000Z</time>
      </trkpt>
      <trkpt lat="47.4923" lon="6.75887">
        <ele>318</ele>
        <time>2015-12-06T08:37:30.999Z</time>
      </trkpt>
      <trkpt lat="47.49226" lon="6.75893">
        <ele>319</ele>
        <time>2015-12-06T08:37:32.000Z</time>
      </trkpt>
      <trkpt lat="47.49221" lon="6.759">
        <ele>319</ele>
        <time>2015-12-06T08:37:33.000Z</time>
      </trkpt>
      <trkpt lat="47.49218" lon="6.75907">
        <ele>319</ele>
        <time>2015-12-06T08:37:34.000Z</time>
      </trkpt>
      <trkpt lat="47.49214" lon="6.75915">
        <ele>319</ele>
        <time>2015-12-06T08:37:35.000Z</time>
      </trkpt>
      <trkpt lat="47.49209" lon="6.75921">
        <ele>320</ele>
        <time>2015-12-06T08:37:36.000Z</time>
      </trkpt>
      <trkpt lat="47.49204" lon="6.75926">
        <ele>320</ele>
        <time>2015-12-06T08:37:36.999Z</time>
      </trkpt>
      <trkpt lat="47.49201" lon="6.75935">
        <ele>320</ele>
        <time>2015-12-06T08:37:38.000Z</time>
      </trkpt>
      <trkpt lat="47.49201" lon="6.75942">
        <ele>320</ele>
        <time>2015-12-06T08:37:39.000Z</time>
      </trkpt>
      <trkpt lat="47.49198" lon="6.75948">
        <ele>320</ele>
        <time>2015-12-06T08:37:40.000Z</time>
      </trkpt>
      <trkpt lat="47.49195" lon="6.75953">
        <ele>320</ele>
        <time>2015-12-06T08:37:41.000Z</time>
      </trkpt>
      <trkpt lat="47.49194" lon="6.75964">
        <ele>320</ele>
        <time>2015-12-06T08:37:42.000Z</time>
      </trkpt>
      <trkpt lat="47.49192" lon="6.75971">
        <ele>320</ele>
        <time>2015-12-06T08:37:43.000Z</time>
      </trkpt>
      <trkpt lat="47.49189" lon="6.75978">
        <ele>320</ele>
        <time>2015-12-06T08:37:44.000Z</time>
      </trkpt>
      <trkpt lat="47.49186" lon="6.75987">
        <ele>320</ele>
        <time>2015-12-06T08:37:45.000Z</time>
      </trkpt>
      <trkpt lat="47.49183" lon="6.75996">
        <ele>320</ele>
        <time>2015-12-06T08:37:46.000Z</time>
      </trkpt>
      <trkpt lat="47.4918" lon="6.76005">
        <ele>320</ele>
        <time>2015-12-06T08:37:47.000Z</time>
      </trkpt>
      <trkpt lat="47.49179" lon="6.76012">
        <ele>320</ele>
        <time>2015-12-06T08:37:48.000Z</time>
      </trkpt>
      <trkpt lat="47.49176" lon="6.7602">
        <ele>320</ele>
        <time>2015-12-06T08:37:49.000Z</time>
      </trkpt>
      <trkpt lat="47.49174" lon="6.76027">
        <ele>320</ele>
        <time>2015-12-06T08:37:50.000Z</time>
      </trkpt>
      <trkpt lat="47.4917" lon="6.76033">
        <ele>320</ele>
        <time>2015-12-06T08:37:51.000Z</time>
      </trkpt>
      <trkpt lat="47.49167" lon="6.76042">
        <ele>322</ele>
        <time>2015-12-06T08:37:52.000Z</time>
      </trkpt>
      <trkpt lat="47.49163" lon="6.7605">
        <ele>322</ele>
        <time>2015-12-06T08:37:53.000Z</time>
      </trkpt>
      <trkpt lat="47.49161" lon="6.76059">
        <ele>322</ele>
        <time>2015-12-06T08:37:54.000Z</time>
      </trkpt>
      <trkpt lat="47.49157" lon="6.76067">
        <ele>321</ele>
        <time>2015-12-06T08:37:55.000Z</time>
      </trkpt>
      <trkpt lat="47.49154" lon="6.76075">
        <ele>321</ele>
        <time>2015-12-06T08:37:56.000Z</time>
      </trkpt>
      <trkpt lat="47.49151" lon="6.76083">
        <ele>321</ele>
        <time>2015-12-06T08:37:57.000Z</time>
      </trkpt>
      <trkpt lat="47.49148" lon="6.76091">
        <ele>321</ele>
        <time>2015-12-06T08:37:58.000Z</time>
      </trkpt>
      <trkpt lat="47.49146" lon="6.76099">
        <ele>321</ele>
        <time>2015-12-06T08:37:59.000Z</time>
      </trkpt>
      <trkpt lat="47.49144" lon="6.76109">
        <ele>321</ele>
        <time>2015-12-06T08:38:00.000Z</time>
      </trkpt>
      <trkpt lat="47.49143" lon="6.76117">
        <ele>321</ele>
        <time>2015-12-06T08:38:01.000Z</time>
      </trkpt>
      <trkpt lat="47.49141" lon="6.76125">
        <ele>322</ele>
        <time>2015-12-06T08:38:02.000Z</time>
      </trkpt>
      <trkpt lat="47.4914" lon="6.76134">
        <ele>322</ele>
        <time>2015-12-06T08:38:03.000Z</time>
      </trkpt>
      <trkpt lat="47.49138" lon="6.76143">
        <ele>322</ele>
        <time>2015-12-06T08:38:04.000Z</time>
      </trkpt>
      <trkpt lat="47.49137" lon="6.76152">
        <ele>321</ele>
        <time>2015-12-06T08:38:05.000Z</time>
      </trkpt>
      <trkpt lat="47.49136" lon="6.76161">
        <ele>321</ele>
        <time>2015-12-06T08:38:06.000Z</time>
      </trkpt>
      <trkpt lat="47.49135" lon="6.76169">
        <ele>321</ele>
        <time>2015-12-06T08:38:07.000Z</time>
      </trkpt>
      <trkpt lat="47.49133" lon="6.76176">
        <ele>321</ele>
        <time>2015-12-06T08:38:08.000Z</time>
      </trkpt>
      <trkpt lat="47.4913" lon="6.7618">
        <ele>321</ele>
        <time>2015-12-06T08:38:09.000Z</time>
      </trkpt>
      <trkpt lat="47.49127" lon="6.76185">
        <ele>321</ele>
        <time>2015-12-06T08:38:10.001Z</time>
      </trkpt>
      <trkpt lat="47.49129" lon="6.76193">
        <ele>321</ele>
        <time>2015-12-06T08:38:11.000Z</time>
      </trkpt>
      <trkpt lat="47.4913" lon="6.76201">
        <ele>321</ele>
        <time>2015-12-06T08:38:12.000Z</time>
      </trkpt>
      <trkpt lat="47.49129" lon="6.76211">
        <ele>321</ele>
        <time>2015-12-06T08:38:13.000Z</time>
      </trkpt>
      <trkpt lat="47.4913" lon="6.76218">
        <ele>321</ele>
        <time>2015-12-06T08:38:14.000Z</time>
      </trkpt>
      <trkpt lat="47.4913" lon="6.76228">
        <ele>321</ele>
        <time>2015-12-06T08:38:15.000Z</time>
      </trkpt>
      <trkpt lat="47.49131" lon="6.76238">
        <ele>320</ele>
        <time>2015-12-06T08:38:16.000Z</time>
      </trkpt>
      <trkpt lat="47.4913" lon="6.76246">
        <ele>320</ele>
        <time>2015-12-06T08:38:17.000Z</time>
      </trkpt>
      <trkpt lat="47.49129" lon="6.76254">
        <ele>320</ele>
        <time>2015-12-06T08:38:18.000Z</time>
      </trkpt>
      <trkpt lat="47.49128" lon="6.76262">
        <ele>320</ele>
        <time>2015-12-06T08:38:19.000Z</time>
      </trkpt>
      <trkpt lat="47.49127" lon="6.76268">
        <ele>320</ele>
        <time>2015-12-06T08:38:20.000Z</time>
      </trkpt>
      <trkpt lat="47.49126" lon="6.76276">
        <ele>320</ele>
        <time>2015-12-06T08:38:21.000Z</time>
      </trkpt>
      <trkpt lat="47.49128" lon="6.76285">
        <ele>319</ele>
        <time>2015-12-06T08:38:22.000Z</time>
      </trkpt>
      <trkpt lat="47.49126" lon="6.76294">
        <ele>319</ele>
        <time>2015-12-06T08:38:23.000Z</time>
      </trkpt>
      <trkpt lat="47.49126" lon="6.76302">
        <ele>319</ele>
        <time>2015-12-06T08:38:24.000Z</time>
      </trkpt>
      <trkpt lat="47.49126" lon="6.76312">
        <ele>319</ele>
        <time>2015-12-06T08:38:25.000Z</time>
      </trkpt>
      <trkpt lat="47.49126" lon="6.7632">
        <ele>319</ele>
        <time>2015-12-06T08:38:26.000Z</time>
      </trkpt>
      <trkpt lat="47.49126" lon="6.76328">
        <ele>319</ele>
        <time>2015-12-06T08:38:27.001Z</time>
      </trkpt>
      <trkpt lat="47.49126" lon="6.76337">
        <ele>318</ele>
        <time>2015-12-06T08:38:28.000Z</time>
      </trkpt>
      <trkpt lat="47.49125" lon="6.76346">
        <ele>318</ele>
        <time>2015-12-06T08:38:29.000Z</time>
      </trkpt>
      <trkpt lat="47.49124" lon="6.76355">
        <ele>318</ele>
        <time>2015-12-06T08:38:30.000Z</time>
      </trkpt>
      <trkpt lat="47.49122" lon="6.76363">
        <ele>318</ele>
        <time>2015-12-06T08:38:31.000Z</time>
      </trkpt>
      <trkpt lat="47.49121" lon="6.76371">
        <ele>318</ele>
        <time>2015-12-06T08:38:32.000Z</time>
      </trkpt>
      <trkpt lat="47.49122" lon="6.7638">
        <ele>318</ele>
        <time>2015-12-06T08:38:33.000Z</time>
      </trkpt>
      <trkpt lat="47.49121" lon="6.7639">
        <ele>318</ele>
        <time>2015-12-06T08:38:34.000Z</time>
      </trkpt>
      <trkpt lat="47.49121" lon="6.76398">
        <ele>318</ele>
        <time>2015-12-06T08:38:35.000Z</time>
      </trkpt>
      <trkpt lat="47.4912" lon="6.76407">
        <ele>318</ele>
        <time>2015-12-06T08:38:36.000Z</time>
      </trkpt>
      <trkpt lat="47.49119" lon="6.76416">
        <ele>318</ele>
        <time>2015-12-06T08:38:37.000Z</time>
      </trkpt>
      <trkpt lat="47.4912" lon="6.76426">
        <ele>317</ele>
        <time>2015-12-06T08:38:38.000Z</time>
      </trkpt>
      <trkpt lat="47.49122" lon="6.76435">
        <ele>317</ele>
        <time>2015-12-06T08:38:39.000Z</time>
      </trkpt>
      <trkpt lat="47.49121" lon="6.76443">
        <ele>317</ele>
        <time>2015-12-06T08:38:40.000Z</time>
      </trkpt>
      <trkpt lat="47.49121" lon="6.76452">
        <ele>317</ele>
        <time>2015-12-06T08:38:41.000Z</time>
      </trkpt>
      <trkpt lat="47.49119" lon="6.76461">
        <ele>317</ele>
        <time>2015-12-06T08:38:42.000Z</time>
      </trkpt>
      <trkpt lat="47.49119" lon="6.76471">
        <ele>317</ele>
        <time>2015-12-06T08:38:43.000Z</time>
      </trkpt>
      <trkpt lat="47.4912" lon="6.76478">
        <ele>317</ele>
        <time>2015-12-06T08:38:44.000Z</time>
      </trkpt>
      <trkpt lat="47.49118" lon="6.76486">
        <ele>317</ele>
        <time>2015-12-06T08:38:45.000Z</time>
      </trkpt>
      <trkpt lat="47.49117" lon="6.76494">
        <ele>318</ele>
        <time>2015-12-06T08:38:46.000Z</time>
      </trkpt>
      <trkpt lat="47.49117" lon="6.76504">
        <ele>317</ele>
        <time>2015-12-06T08:38:47.000Z</time>
      </trkpt>
      <trkpt lat="47.49119" lon="6.76512">
        <ele>317</ele>
        <time>2015-12-06T08:38:48.000Z</time>
      </trkpt>
      <trkpt lat="47.49122" lon="6.76519">
        <ele>316</ele>
        <time>2015-12-06T08:38:49.000Z</time>
      </trkpt>
      <trkpt lat="47.49128" lon="6.76522">
        <ele>316</ele>
        <time>2015-12-06T08:38:50.000Z</time>
      </trkpt>
      <trkpt lat="47.49133" lon="6.76523">
        <ele>316</ele>
        <time>2015-12-06T08:38:51.000Z</time>
      </trkpt>
      <trkpt lat="47.49139" lon="6.76523">
        <ele>315</ele>
        <time>2015-12-06T08:38:52.000Z</time>
      </trkpt>
      <trkpt lat="47.49145" lon="6.7652">
        <ele>315</ele>
        <time>2015-12-06T08:38:53.000Z</time>
      </trkpt>
      <trkpt lat="47.49152" lon="6.76516">
        <ele>315</ele>
        <time>2015-12-06T08:38:54.000Z</time>
      </trkpt>
      <trkpt lat="47.49159" lon="6.76513">
        <ele>314</ele>
        <time>2015-12-06T08:38:55.000Z</time>
      </trkpt>
      <trkpt lat="47.49163" lon="6.7651">
        <ele>314</ele>
        <time>2015-12-06T08:38:56.000Z</time>
      </trkpt>
      <trkpt lat="47.49167" lon="6.76508">
        <ele>314</ele>
        <time>2015-12-06T08:38:57.000Z</time>
      </trkpt>
      <trkpt lat="47.49169" lon="6.76505">
        <ele>314</ele>
        <time>2015-12-06T08:38:58.000Z</time>
      </trkpt>
      <trkpt lat="47.49173" lon="6.76503">
        <ele>314</ele>
        <time>2015-12-06T08:38:59.001Z</time>
      </trkpt>
      <trkpt lat="47.49175" lon="6.76495">
        <ele>315</ele>
        <time>2015-12-06T08:39:00.000Z</time>
      </trkpt>
      <trkpt lat="47.49174" lon="6.76489">
        <ele>315</ele>
        <time>2015-12-06T08:39:02.000Z</time>
      </trkpt>
      <trkpt lat="47.49173" lon="6.76486">
        <ele>315</ele>
        <time>2015-12-06T08:39:03.000Z</time>
      </trkpt>
      <trkpt lat="47.49171" lon="6.7648">
        <ele>316</ele>
        <time>2015-12-06T08:40:00.000Z</time>
      </trkpt>
      <trkpt lat="47.4917" lon="6.76479">
        <ele>316</ele>
        <time>2015-12-06T08:40:01.000Z</time>
      </trkpt>
      <trkpt lat="47.49174" lon="6.76479">
        <ele>316</ele>
        <time>2015-12-06T08:40:16.000Z</time>
      </trkpt>
      <trkpt lat="47.49175" lon="6.76481">
        <ele>316</ele>
        <time>2015-12-06T08:40:17.000Z</time>
      </trkpt>
      <trkpt lat="47.49172" lon="6.76478">
        <ele>316</ele>
        <time>2015-12-06T08:40:30.000Z</time>
      </trkpt>
      <trkpt lat="47.49172" lon="6.76476">
        <ele>316</ele>
        <time>2015-12-06T08:40:31.000Z</time>
      </trkpt>
      <trkpt lat="47.49171" lon="6.76482">
        <ele>315</ele>
        <time>2015-12-06T08:40:40.000Z</time>
      </trkpt>
      <trkpt lat="47.49171" lon="6.76483">
        <ele>315</ele>
        <time>2015-12-06T08:40:41.000Z</time>
      </trkpt>
      <trkpt lat="47.49175" lon="6.76487">
        <ele>315</ele>
        <time>2015-12-06T08:40:46.000Z</time>
      </trkpt>
      <trkpt lat="47.49177" lon="6.76488">
        <ele>315</ele>
        <time>2015-12-06T08:40:47.000Z</time>
      </trkpt>
      <trkpt lat="47.49179" lon="6.76492">
        <ele>315</ele>
        <time>2015-12-06T08:40:49.000Z</time>
      </trkpt>
      <trkpt lat="47.49179" lon="6.76496">
        <ele>315</ele>
        <time>2015-12-06T08:40:50.000Z</time>
      </trkpt>
      <trkpt lat="47.49178" lon="6.76499">
        <ele>315</ele>
        <time>2015-12-06T08:40:51.000Z</time>
      </trkpt>
      <trkpt lat="47.49176" lon="6.76502">
        <ele>314</ele>
        <time>2015-12-06T08:40:52.000Z</time>
      </trkpt>
      <trkpt lat="47.49173" lon="6.76505">
        <ele>314</ele>
        <time>2015-12-06T08:40:54.000Z</time>
      </trkpt>
      <trkpt lat="47.4917" lon="6.76507">
        <ele>314</ele>
        <time>2015-12-06T08:40:55.000Z</time>
      </trkpt>
      <trkpt lat="47.49168" lon="6.76508">
        <ele>314</ele>
        <time>2015-12-06T08:40:56.000Z</time>
      </trkpt>
      <trkpt lat="47.49165" lon="6.7651">
        <ele>314</ele>
        <time>2015-12-06T08:40:57.000Z</time>
      </trkpt>
      <trkpt lat="47.49159" lon="6.76512">
        <ele>314</ele>
        <time>2015-12-06T08:40:58.000Z</time>
      </trkpt>
      <trkpt lat="47.49153" lon="6.76515">
        <ele>315</ele>
        <time>2015-12-06T08:40:59.000Z</time>
      </trkpt>
      <trkpt lat="47.49149" lon="6.76519">
        <ele>315</ele>
        <time>2015-12-06T08:41:00.000Z</time>
      </trkpt>
      <trkpt lat="47.49144" lon="6.76522">
        <ele>315</ele>
        <time>2015-12-06T08:41:01.000Z</time>
      </trkpt>
      <trkpt lat="47.49139" lon="6.76524">
        <ele>315</ele>
        <time>2015-12-06T08:41:02.000Z</time>
      </trkpt>
      <trkpt lat="47.49135" lon="6.76524">
        <ele>316</ele>
        <time>2015-12-06T08:41:03.000Z</time>
      </trkpt>
      <trkpt lat="47.4913" lon="6.76524">
        <ele>316</ele>
        <time>2015-12-06T08:41:04.000Z</time>
      </trkpt>
      <trkpt lat="47.49127" lon="6.76522">
        <ele>316</ele>
        <time>2015-12-06T08:41:05.000Z</time>
      </trkpt>
      <trkpt lat="47.49123" lon="6.76518">
        <ele>316</ele>
        <time>2015-12-06T08:41:06.000Z</time>
      </trkpt>
      <trkpt lat="47.49121" lon="6.76513">
        <ele>316</ele>
        <time>2015-12-06T08:41:07.000Z</time>
      </trkpt>
      <trkpt lat="47.4912" lon="6.76507">
        <ele>317</ele>
        <time>2015-12-06T08:41:08.000Z</time>
      </trkpt>
      <trkpt lat="47.4912" lon="6.76502">
        <ele>317</ele>
        <time>2015-12-06T08:41:09.000Z</time>
      </trkpt>
      <trkpt lat="47.4912" lon="6.76497">
        <ele>317</ele>
        <time>2015-12-06T08:41:10.000Z</time>
      </trkpt>
      <trkpt lat="47.4912" lon="6.76493">
        <ele>317</ele>
        <time>2015-12-06T08:41:11.000Z</time>
      </trkpt>
      <trkpt lat="47.49121" lon="6.76488">
        <ele>317</ele>
        <time>2015-12-06T08:41:12.000Z</time>
      </trkpt>
      <trkpt lat="47.49121" lon="6.76484">
        <ele>317</ele>
        <time>2015-12-06T08:41:13.000Z</time>
      </trkpt>
      <trkpt lat="47.49121" lon="6.76479">
        <ele>317</ele>
        <time>2015-12-06T08:41:14.000Z</time>
      </trkpt>
      <trkpt lat="47.49121" lon="6.76475">
        <ele>317</ele>
        <time>2015-12-06T08:41:15.000Z</time>
      </trkpt>
      <trkpt lat="47.49122" lon="6.76469">
        <ele>317</ele>
        <time>2015-12-06T08:41:16.000Z</time>
      </trkpt>
      <trkpt lat="47.49123" lon="6.76464">
        <ele>317</ele>
        <time>2015-12-06T08:41:17.000Z</time>
      </trkpt>
      <trkpt lat="47.49123" lon="6.76459">
        <ele>317</ele>
        <time>2015-12-06T08:41:18.000Z</time>
      </trkpt>
      <trkpt lat="47.49123" lon="6.76454">
        <ele>317</ele>
        <time>2015-12-06T08:41:19.000Z</time>
      </trkpt>
      <trkpt lat="47.49122" lon="6.76449">
        <ele>317</ele>
        <time>2015-12-06T08:41:20.000Z</time>
      </trkpt>
      <trkpt lat="47.49122" lon="6.76445">
        <ele>317</ele>
        <time>2015-12-06T08:41:21.000Z</time>
      </trkpt>
      <trkpt lat="47.49121" lon="6.76441">
        <ele>317</ele>
        <time>2015-12-06T08:41:22.000Z</time>
      </trkpt>
      <trkpt lat="47.49121" lon="6.76438">
        <ele>317</ele>
        <time>2015-12-06T08:41:23.000Z</time>
      </trkpt>
      <trkpt lat="47.49122" lon="6.76432">
        <ele>317</ele>
        <time>2015-12-06T08:41:25.000Z</time>
      </trkpt>
      <trkpt lat="47.49122" lon="6.7643">
        <ele>317</ele>
        <time>2015-12-06T08:41:26.000Z</time>
      </trkpt>
      <trkpt lat="47.4912" lon="6.76428">
        <ele>317</ele>
        <time>2015-12-06T08:41:28.000Z</time>
      </trkpt>
      <trkpt lat="47.49117" lon="6.76428">
        <ele>318</ele>
        <time>2015-12-06T08:41:29.000Z</time>
      </trkpt>
      <trkpt lat="47.49114" lon="6.76428">
        <ele>318</ele>
        <time>2015-12-06T08:41:30.000Z</time>
      </trkpt>
      <trkpt lat="47.49111" lon="6.76428">
        <ele>318</ele>
        <time>2015-12-06T08:41:31.000Z</time>
      </trkpt>
      <trkpt lat="47.49108" lon="6.76428">
        <ele>318</ele>
        <time>2015-12-06T08:41:32.000Z</time>
      </trkpt>
      <trkpt lat="47.49105" lon="6.76428">
        <ele>318</ele>
        <time>2015-12-06T08:41:33.000Z</time>
      </trkpt>
      <trkpt lat="47.49103" lon="6.76428">
        <ele>319</ele>
        <time>2015-12-06T08:41:34.001Z</time>
      </trkpt>
      <trkpt lat="47.491" lon="6.76426">
        <ele>319</ele>
        <time>2015-12-06T08:41:35.000Z</time>
      </trkpt>
      <trkpt lat="47.49098" lon="6.76423">
        <ele>319</ele>
        <time>2015-12-06T08:41:36.000Z</time>
      </trkpt>
      <trkpt lat="47.49097" lon="6.76419">
        <ele>319</ele>
        <time>2015-12-06T08:41:37.000Z</time>
      </trkpt>
      <trkpt lat="47.49097" lon="6.76413">
        <ele>320</ele>
        <time>2015-12-06T08:41:38.000Z</time>
      </trkpt>
      <trkpt lat="47.49097" lon="6.76409">
        <ele>319</ele>
        <time>2015-12-06T08:41:39.000Z</time>
      </trkpt>
      <trkpt lat="47.49099" lon="6.76401">
        <ele>319</ele>
        <time>2015-12-06T08:41:40.000Z</time>
      </trkpt>
      <trkpt lat="47.49099" lon="6.76395">
        <ele>319</ele>
        <time>2015-12-06T08:41:41.000Z</time>
      </trkpt>
      <trkpt lat="47.491" lon="6.7639">
        <ele>319</ele>
        <time>2015-12-06T08:41:42.000Z</time>
      </trkpt>
      <trkpt lat="47.491" lon="6.76385">
        <ele>319</ele>
        <time>2015-12-06T08:41:43.000Z</time>
      </trkpt>
      <trkpt lat="47.491" lon="6.76381">
        <ele>319</ele>
        <time>2015-12-06T08:41:44.000Z</time>
      </trkpt>
      <trkpt lat="47.49101" lon="6.76377">
        <ele>319</ele>
        <time>2015-12-06T08:41:45.000Z</time>
      </trkpt>
      <trkpt lat="47.49101" lon="6.76374">
        <ele>319</ele>
        <time>2015-12-06T08:41:45.999Z</time>
      </trkpt>
      <trkpt lat="47.49102" lon="6.7637">
        <ele>319</ele>
        <time>2015-12-06T08:41:47.000Z</time>
      </trkpt>
      <trkpt lat="47.49103" lon="6.76366">
        <ele>319</ele>
        <time>2015-12-06T08:41:48.000Z</time>
      </trkpt>
      <trkpt lat="47.49103" lon="6.76362">
        <ele>319</ele>
        <time>2015-12-06T08:41:49.000Z</time>
      </trkpt>
      <trkpt lat="47.49102" lon="6.76357">
        <ele>319</ele>
        <time>2015-12-06T08:41:50.000Z</time>
      </trkpt>
      <trkpt lat="47.49102" lon="6.76353">
        <ele>319</ele>
        <time>2015-12-06T08:41:51.000Z</time>
      </trkpt>
      <trkpt lat="47.49101" lon="6.7635">
        <ele>320</ele>
        <time>2015-12-06T08:41:52.000Z</time>
      </trkpt>
      <trkpt lat="47.491" lon="6.76346">
        <ele>320</ele>
        <time>2015-12-06T08:41:53.000Z</time>
      </trkpt>
      <trkpt lat="47.49098" lon="6.76342">
        <ele>320</ele>
        <time>2015-12-06T08:41:54.000Z</time>
      </trkpt>
      <trkpt lat="47.49097" lon="6.76337">
        <ele>321</ele>
        <time>2015-12-06T08:41:55.000Z</time>
      </trkpt>
      <trkpt lat="47.49097" lon="6.76332">
        <ele>321</ele>
        <time>2015-12-06T08:41:56.000Z</time>
      </trkpt>
      <trkpt lat="47.49097" lon="6.76326">
        <ele>321</ele>
        <time>2015-12-06T08:41:57.000Z</time>
      </trkpt>
      <trkpt lat="47.49097" lon="6.76321">
        <ele>321</ele>
        <time>2015-12-06T08:41:58.000Z</time>
      </trkpt>
      <trkpt lat="47.49098" lon="6.76316">
        <ele>321</ele>
        <time>2015-12-06T08:41:59.000Z</time>
      </trkpt>
      <trkpt lat="47.49098" lon="6.76311">
        <ele>321</ele>
        <time>2015-12-06T08:41:59.998Z</time>
      </trkpt>
      <trkpt lat="47.49098" lon="6.76306">
        <ele>321</ele>
        <time>2015-12-06T08:42:01.000Z</time>
      </trkpt>
      <trkpt lat="47.49098" lon="6.76302">
        <ele>321</ele>
        <time>2015-12-06T08:42:02.000Z</time>
      </trkpt>
      <trkpt lat="47.49098" lon="6.76299">
        <ele>321</ele>
        <time>2015-12-06T08:42:03.000Z</time>
      </trkpt>
      <trkpt lat="47.49098" lon="6.76294">
        <ele>321</ele>
        <time>2015-12-06T08:42:04.000Z</time>
      </trkpt>
      <trkpt lat="47.49097" lon="6.76289">
        <ele>321</ele>
        <time>2015-12-06T08:42:05.000Z</time>
      </trkpt>
      <trkpt lat="47.49097" lon="6.76284">
        <ele>321</ele>
        <time>2015-12-06T08:42:06.000Z</time>
      </trkpt>
      <trkpt lat="47.49097" lon="6.76279">
        <ele>321</ele>
        <time>2015-12-06T08:42:07.000Z</time>
      </trkpt>
      <trkpt lat="47.49097" lon="6.76274">
        <ele>321</ele>
        <time>2015-12-06T08:42:08.000Z</time>
      </trkpt>
      <trkpt lat="47.49097" lon="6.76269">
        <ele>322</ele>
        <time>2015-12-06T08:42:09.000Z</time>
      </trkpt>
      <trkpt lat="47.49096" lon="6.76265">
        <ele>322</ele>
        <time>2015-12-06T08:42:10.000Z</time>
      </trkpt>
      <trkpt lat="47.49095" lon="6.7626">
        <ele>322</ele>
        <time>2015-12-06T08:42:11.000Z</time>
      </trkpt>
      <trkpt lat="47.49094" lon="6.76256">
        <ele>323</ele>
        <time>2015-12-06T08:42:12.000Z</time>
      </trkpt>
      <trkpt lat="47.49093" lon="6.76251">
        <ele>323</ele>
        <time>2015-12-06T08:42:13.000Z</time>
      </trkpt>
      <trkpt lat="47.49093" lon="6.76246">
        <ele>324</ele>
        <time>2015-12-06T08:42:14.000Z</time>
      </trkpt>
      <trkpt lat="47.49093" lon="6.76242">
        <ele>323</ele>
        <time>2015-12-06T08:42:15.000Z</time>
      </trkpt>
      <trkpt lat="47.49093" lon="6.76237">
        <ele>323</ele>
        <time>2015-12-06T08:42:16.000Z</time>
      </trkpt>
      <trkpt lat="47.49093" lon="6.76232">
        <ele>323</ele>
        <time>2015-12-06T08:42:17.000Z</time>
      </trkpt>
      <trkpt lat="47.49094" lon="6.76227">
        <ele>323</ele>
        <time>2015-12-06T08:42:18.000Z</time>
      </trkpt>
      <trkpt lat="47.49094" lon="6.76221">
        <ele>322</ele>
        <time>2015-12-06T08:42:19.000Z</time>
      </trkpt>
      <trkpt lat="47.49095" lon="6.76216">
        <ele>322</ele>
        <time>2015-12-06T08:42:20.000Z</time>
      </trkpt>
      <trkpt lat="47.49095" lon="6.76211">
        <ele>322</ele>
        <time>2015-12-06T08:42:21.000Z</time>
      </trkpt>
      <trkpt lat="47.49097" lon="6.76206">
        <ele>322</ele>
        <time>2015-12-06T08:42:22.000Z</time>
      </trkpt>
      <trkpt lat="47.49097" lon="6.76202">
        <ele>322</ele>
        <time>2015-12-06T08:42:23.000Z</time>
      </trkpt>
      <trkpt lat="47.49098" lon="6.76198">
        <ele>322</ele>
        <time>2015-12-06T08:42:24.000Z</time>
      </trkpt>
      <trkpt lat="47.49098" lon="6.76194">
        <ele>322</ele>
        <time>2015-12-06T08:42:25.001Z</time>
      </trkpt>
      <trkpt lat="47.49098" lon="6.76188">
        <ele>322</ele>
        <time>2015-12-06T08:42:26.000Z</time>
      </trkpt>
      <trkpt lat="47.49098" lon="6.76184">
        <ele>322</ele>
        <time>2015-12-06T08:42:27.000Z</time>
      </trkpt>
      <trkpt lat="47.49099" lon="6.7618">
        <ele>322</ele>
        <time>2015-12-06T08:42:28.000Z</time>
      </trkpt>
      <trkpt lat="47.49098" lon="6.76174">
        <ele>323</ele>
        <time>2015-12-06T08:42:29.000Z</time>
      </trkpt>
      <trkpt lat="47.49098" lon="6.7617">
        <ele>323</ele>
        <time>2015-12-06T08:42:30.000Z</time>
      </trkpt>
      <trkpt lat="47.49098" lon="6.76164">
        <ele>323</ele>
        <time>2015-12-06T08:42:31.000Z</time>
      </trkpt>
      <trkpt lat="47.49098" lon="6.76158">
        <ele>323</ele>
        <time>2015-12-06T08:42:32.000Z</time>
      </trkpt>
      <trkpt lat="47.49099" lon="6.76153">
        <ele>323</ele>
        <time>2015-12-06T08:42:33.000Z</time>
      </trkpt>
      <trkpt lat="47.49098" lon="6.76147">
        <ele>323</ele>
        <time>2015-12-06T08:42:34.000Z</time>
      </trkpt>
      <trkpt lat="47.49098" lon="6.76142">
        <ele>323</ele>
        <time>2015-12-06T08:42:35.000Z</time>
      </trkpt>
      <trkpt lat="47.49098" lon="6.76138">
        <ele>323</ele>
        <time>2015-12-06T08:42:36.000Z</time>
      </trkpt>
      <trkpt lat="47.49098" lon="6.76133">
        <ele>323</ele>
        <time>2015-12-06T08:42:37.000Z</time>
      </trkpt>
      <trkpt lat="47.49098" lon="6.76128">
        <ele>323</ele>
        <time>2015-12-06T08:42:38.000Z</time>
      </trkpt>
      <trkpt lat="47.49098" lon="6.76123">
        <ele>323</ele>
        <time>2015-12-06T08:42:39.000Z</time>
      </trkpt>
      <trkpt lat="47.49098" lon="6.76119">
        <ele>324</ele>
        <time>2015-12-06T08:42:40.000Z</time>
      </trkpt>
      <trkpt lat="47.49098" lon="6.76113">
        <ele>324</ele>
        <time>2015-12-06T08:42:42.001Z</time>
      </trkpt>
      <trkpt lat="47.49098" lon="6.76109">
        <ele>324</ele>
        <time>2015-12-06T08:42:43.000Z</time>
      </trkpt>
      <trkpt lat="47.49098" lon="6.76107">
        <ele>324</ele>
        <time>2015-12-06T08:42:44.001Z</time>
      </trkpt>
      <trkpt lat="47.49098" lon="6.76102">
        <ele>324</ele>
        <time>2015-12-06T08:42:45.000Z</time>
      </trkpt>
      <trkpt lat="47.49098" lon="6.76099">
        <ele>325</ele>
        <time>2015-12-06T08:42:46.000Z</time>
      </trkpt>
      <trkpt lat="47.49098" lon="6.76093">
        <ele>325</ele>
        <time>2015-12-06T08:42:47.000Z</time>
      </trkpt>
      <trkpt lat="47.49098" lon="6.76089">
        <ele>325</ele>
        <time>2015-12-06T08:42:48.000Z</time>
      </trkpt>
      <trkpt lat="47.49099" lon="6.76085">
        <ele>325</ele>
        <time>2015-12-06T08:42:49.000Z</time>
      </trkpt>
      <trkpt lat="47.49099" lon="6.7608">
        <ele>326</ele>
        <time>2015-12-06T08:42:50.000Z</time>
      </trkpt>
      <trkpt lat="47.491" lon="6.76077">
        <ele>326</ele>
        <time>2015-12-06T08:42:51.000Z</time>
      </trkpt>
      <trkpt lat="47.49101" lon="6.76073">
        <ele>326</ele>
        <time>2015-12-06T08:42:52.002Z</time>
      </trkpt>
      <trkpt lat="47.49101" lon="6.7607">
        <ele>326</ele>
        <time>2015-12-06T08:42:53.001Z</time>
      </trkpt>
      <trkpt lat="47.49104" lon="6.76065">
        <ele>326</ele>
        <time>2015-12-06T08:42:55.001Z</time>
      </trkpt>
      <trkpt lat="47.49104" lon="6.7606">
        <ele>326</ele>
        <time>2015-12-06T08:42:56.000Z</time>
      </trkpt>
      <trkpt lat="47.49104" lon="6.76055">
        <ele>326</ele>
        <time>2015-12-06T08:42:57.000Z</time>
      </trkpt>
      <trkpt lat="47.49104" lon="6.76052">
        <ele>326</ele>
        <time>2015-12-06T08:42:58.001Z</time>
      </trkpt>
      <trkpt lat="47.49104" lon="6.76045">
        <ele>326</ele>
        <time>2015-12-06T08:42:59.000Z</time>
      </trkpt>
      <trkpt lat="47.49105" lon="6.7604">
        <ele>326</ele>
        <time>2015-12-06T08:43:00.000Z</time>
      </trkpt>
      <trkpt lat="47.49105" lon="6.76035">
        <ele>326</ele>
        <time>2015-12-06T08:43:01.000Z</time>
      </trkpt>
      <trkpt lat="47.49106" lon="6.7603">
        <ele>326</ele>
        <time>2015-12-06T08:43:02.000Z</time>
      </trkpt>
      <trkpt lat="47.49107" lon="6.76025">
        <ele>326</ele>
        <time>2015-12-06T08:43:03.000Z</time>
      </trkpt>
      <trkpt lat="47.49108" lon="6.76021">
        <ele>327</ele>
        <time>2015-12-06T08:43:04.000Z</time>
      </trkpt>
      <trkpt lat="47.49109" lon="6.76016">
        <ele>327</ele>
        <time>2015-12-06T08:43:05.000Z</time>
      </trkpt>
      <trkpt lat="47.49109" lon="6.76012">
        <ele>327</ele>
        <time>2015-12-06T08:43:06.000Z</time>
      </trkpt>
      <trkpt lat="47.4911" lon="6.76007">
        <ele>327</ele>
        <time>2015-12-06T08:43:07.000Z</time>
      </trkpt>
      <trkpt lat="47.49111" lon="6.76003">
        <ele>327</ele>
        <time>2015-12-06T08:43:08.000Z</time>
      </trkpt>
      <trkpt lat="47.49112" lon="6.75999">
        <ele>329</ele>
        <time>2015-12-06T08:43:09.000Z</time>
      </trkpt>
      <trkpt lat="47.49113" lon="6.75995">
        <ele>329</ele>
        <time>2015-12-06T08:43:10.000Z</time>
      </trkpt>
      <trkpt lat="47.49114" lon="6.75991">
        <ele>329</ele>
        <time>2015-12-06T08:43:11.000Z</time>
      </trkpt>
      <trkpt lat="47.49116" lon="6.75987">
        <ele>329</ele>
        <time>2015-12-06T08:43:12.000Z</time>
      </trkpt>
      <trkpt lat="47.49117" lon="6.75983">
        <ele>329</ele>
        <time>2015-12-06T08:43:13.000Z</time>
      </trkpt>
      <trkpt lat="47.49118" lon="6.75978">
        <ele>328</ele>
        <time>2015-12-06T08:43:14.000Z</time>
      </trkpt>
      <trkpt lat="47.4912" lon="6.75974">
        <ele>328</ele>
        <time>2015-12-06T08:43:15.000Z</time>
      </trkpt>
      <trkpt lat="47.49122" lon="6.7597">
        <ele>328</ele>
        <time>2015-12-06T08:43:16.000Z</time>
      </trkpt>
      <trkpt lat="47.49123" lon="6.75966">
        <ele>328</ele>
        <time>2015-12-06T08:43:17.000Z</time>
      </trkpt>
      <trkpt lat="47.49125" lon="6.75962">
        <ele>328</ele>
        <time>2015-12-06T08:43:18.000Z</time>
      </trkpt>
      <trkpt lat="47.49126" lon="6.75959">
        <ele>328</ele>
        <time>2015-12-06T08:43:19.000Z</time>
      </trkpt>
      <trkpt lat="47.49128" lon="6.75955">
        <ele>328</ele>
        <time>2015-12-06T08:43:20.000Z</time>
      </trkpt>
      <trkpt lat="47.49129" lon="6.75951">
        <ele>328</ele>
        <time>2015-12-06T08:43:21.000Z</time>
      </trkpt>
      <trkpt lat="47.49131" lon="6.75947">
        <ele>328</ele>
        <time>2015-12-06T08:43:22.000Z</time>
      </trkpt>
      <trkpt lat="47.49132" lon="6.75944">
        <ele>328</ele>
        <time>2015-12-06T08:43:23.000Z</time>
      </trkpt>
      <trkpt lat="47.49133" lon="6.7594">
        <ele>328</ele>
        <time>2015-12-06T08:43:24.000Z</time>
      </trkpt>
      <trkpt lat="47.49134" lon="6.75936">
        <ele>328</ele>
        <time>2015-12-06T08:43:25.000Z</time>
      </trkpt>
      <trkpt lat="47.49134" lon="6.75931">
        <ele>328</ele>
        <time>2015-12-06T08:43:26.000Z</time>
      </trkpt>
      <trkpt lat="47.49135" lon="6.75927">
        <ele>328</ele>
        <time>2015-12-06T08:43:27.000Z</time>
      </trkpt>
      <trkpt lat="47.49136" lon="6.75922">
        <ele>328</ele>
        <time>2015-12-06T08:43:28.000Z</time>
      </trkpt>
      <trkpt lat="47.49137" lon="6.75916">
        <ele>330</ele>
        <time>2015-12-06T08:43:29.000Z</time>
      </trkpt>
      <trkpt lat="47.49138" lon="6.75911">
        <ele>330</ele>
        <time>2015-12-06T08:43:30.000Z</time>
      </trkpt>
      <trkpt lat="47.4914" lon="6.75906">
        <ele>330</ele>
        <time>2015-12-06T08:43:31.000Z</time>
      </trkpt>
      <trkpt lat="47.49141" lon="6.75901">
        <ele>330</ele>
        <time>2015-12-06T08:43:32.000Z</time>
      </trkpt>
      <trkpt lat="47.49143" lon="6.75897">
        <ele>330</ele>
        <time>2015-12-06T08:43:33.000Z</time>
      </trkpt>
      <trkpt lat="47.49144" lon="6.75893">
        <ele>330</ele>
        <time>2015-12-06T08:43:34.000Z</time>
      </trkpt>
      <trkpt lat="47.49146" lon="6.75888">
        <ele>330</ele>
        <time>2015-12-06T08:43:35.000Z</time>
      </trkpt>
      <trkpt lat="47.49147" lon="6.75884">
        <ele>331</ele>
        <time>2015-12-06T08:43:36.000Z</time>
      </trkpt>
      <trkpt lat="47.49149" lon="6.75879">
        <ele>331</ele>
        <time>2015-12-06T08:43:37.000Z</time>
      </trkpt>
      <trkpt lat="47.49151" lon="6.75873">
        <ele>331</ele>
        <time>2015-12-06T08:43:38.000Z</time>
      </trkpt>
      <trkpt lat="47.49152" lon="6.75868">
        <ele>331</ele>
        <time>2015-12-06T08:43:39.000Z</time>
      </trkpt>
      <trkpt lat="47.49154" lon="6.75862">
        <ele>330</ele>
        <time>2015-12-06T08:43:40.000Z</time>
      </trkpt>
      <trkpt lat="47.49155" lon="6.75856">
        <ele>330</ele>
        <time>2015-12-06T08:43:41.000Z</time>
      </trkpt>
      <trkpt lat="47.49157" lon="6.7585">
        <ele>330</ele>
        <time>2015-12-06T08:43:42.000Z</time>
      </trkpt>
      <trkpt lat="47.49158" lon="6.75843">
        <ele>329</ele>
        <time>2015-12-06T08:43:43.000Z</time>
      </trkpt>
      <trkpt lat="47.4916" lon="6.75836">
        <ele>328</ele>
        <time>2015-12-06T08:43:44.000Z</time>
      </trkpt>
      <trkpt lat="47.49161" lon="6.75829">
        <ele>329</ele>
        <time>2015-12-06T08:43:45.000Z</time>
      </trkpt>
      <trkpt lat="47.49163" lon="6.75822">
        <ele>331</ele>
        <time>2015-12-06T08:43:46.000Z</time>
      </trkpt>
      <trkpt lat="47.49164" lon="6.75815">
        <ele>333</ele>
        <time>2015-12-06T08:43:47.000Z</time>
      </trkpt>
      <trkpt lat="47.49165" lon="6.75809">
        <ele>334</ele>
        <time>2015-12-06T08:43:48.000Z</time>
      </trkpt>
      <trkpt lat="47.49167" lon="6.75803">
        <ele>325</ele>
        <time>2015-12-06T08:43:49.000Z</time>
      </trkpt>
      <trkpt lat="47.4917" lon="6.75796">
        <ele>326</ele>
        <time>2015-12-06T08:43:50.000Z</time>
      </trkpt>
      <trkpt lat="47.49172" lon="6.7579">
        <ele>326</ele>
        <time>2015-12-06T08:43:51.000Z</time>
      </trkpt>
      <trkpt lat="47.49174" lon="6.75783">
        <ele>326</ele>
        <time>2015-12-06T08:43:52.000Z</time>
      </trkpt>
      <trkpt lat="47.49177" lon="6.75768">
        <ele>328</ele>
        <time>2015-12-06T08:43:53.000Z</time>
      </trkpt>
      <trkpt lat="47.49179" lon="6.75762">
        <ele>329</ele>
        <time>2015-12-06T08:43:54.000Z</time>
      </trkpt>
      <trkpt lat="47.49181" lon="6.75756">
        <ele>330</ele>
        <time>2015-12-06T08:43:55.000Z</time>
      </trkpt>
      <trkpt lat="47.49181" lon="6.75748">
        <ele>333</ele>
        <time>2015-12-06T08:43:56.000Z</time>
      </trkpt>
      <trkpt lat="47.49184" lon="6.75741">
        <ele>333</ele>
        <time>2015-12-06T08:43:57.000Z</time>
      </trkpt>
      <trkpt lat="47.49187" lon="6.75736">
        <ele>333</ele>
        <time>2015-12-06T08:43:58.000Z</time>
      </trkpt>
      <trkpt lat="47.49189" lon="6.75731">
        <ele>332</ele>
        <time>2015-12-06T08:43:59.000Z</time>
      </trkpt>
      <trkpt lat="47.49191" lon="6.75725">
        <ele>332</ele>
        <time>2015-12-06T08:44:00.000Z</time>
      </trkpt>
      <trkpt lat="47.49193" lon="6.7572">
        <ele>332</ele>
        <time>2015-12-06T08:44:01.000Z</time>
      </trkpt>
      <trkpt lat="47.49194" lon="6.75716">
        <ele>332</ele>
        <time>2015-12-06T08:44:02.000Z</time>
      </trkpt>
      <trkpt lat="47.49196" lon="6.75711">
        <ele>333</ele>
        <time>2015-12-06T08:44:03.000Z</time>
      </trkpt>
      <trkpt lat="47.49197" lon="6.75703">
        <ele>333</ele>
        <time>2015-12-06T08:44:04.000Z</time>
      </trkpt>
      <trkpt lat="47.49198" lon="6.75696">
        <ele>333</ele>
        <time>2015-12-06T08:44:05.000Z</time>
      </trkpt>
      <trkpt lat="47.49202" lon="6.75693">
        <ele>333</ele>
        <time>2015-12-06T08:44:06.000Z</time>
      </trkpt>
      <trkpt lat="47.49204" lon="6.75688">
        <ele>333</ele>
        <time>2015-12-06T08:44:07.000Z</time>
      </trkpt>
      <trkpt lat="47.49206" lon="6.75683">
        <ele>333</ele>
        <time>2015-12-06T08:44:08.000Z</time>
      </trkpt>
      <trkpt lat="47.49208" lon="6.75679">
        <ele>333</ele>
        <time>2015-12-06T08:44:09.000Z</time>
      </trkpt>
      <trkpt lat="47.49209" lon="6.75675">
        <ele>332</ele>
        <time>2015-12-06T08:44:10.000Z</time>
      </trkpt>
      <trkpt lat="47.49211" lon="6.75672">
        <ele>332</ele>
        <time>2015-12-06T08:44:11.000Z</time>
      </trkpt>
      <trkpt lat="47.49212" lon="6.75669">
        <ele>332</ele>
        <time>2015-12-06T08:44:12.000Z</time>
      </trkpt>
      <trkpt lat="47.49213" lon="6.75666">
        <ele>337</ele>
        <time>2015-12-06T08:44:13.000Z</time>
      </trkpt>
      <trkpt lat="47.49214" lon="6.75662">
        <ele>337</ele>
        <time>2015-12-06T08:44:14.000Z</time>
      </trkpt>
      <trkpt lat="47.49215" lon="6.75658">
        <ele>337</ele>
        <time>2015-12-06T08:44:15.000Z</time>
      </trkpt>
      <trkpt lat="47.49215" lon="6.75654">
        <ele>337</ele>
        <time>2015-12-06T08:44:16.000Z</time>
      </trkpt>
      <trkpt lat="47.49216" lon="6.75649">
        <ele>337</ele>
        <time>2015-12-06T08:44:17.000Z</time>
      </trkpt>
      <trkpt lat="47.49217" lon="6.75644">
        <ele>337</ele>
        <time>2015-12-06T08:44:18.000Z</time>
      </trkpt>
      <trkpt lat="47.49219" lon="6.7564">
        <ele>337</ele>
        <time>2015-12-06T08:44:19.000Z</time>
      </trkpt>
      <trkpt lat="47.49221" lon="6.75636">
        <ele>337</ele>
        <time>2015-12-06T08:44:20.000Z</time>
      </trkpt>
      <trkpt lat="47.49224" lon="6.75631">
        <ele>337</ele>
        <time>2015-12-06T08:44:21.000Z</time>
      </trkpt>
      <trkpt lat="47.49226" lon="6.75626">
        <ele>337</ele>
        <time>2015-12-06T08:44:22.000Z</time>
      </trkpt>
      <trkpt lat="47.49228" lon="6.7562">
        <ele>337</ele>
        <time>2015-12-06T08:44:23.000Z</time>
      </trkpt>
      <trkpt lat="47.4923" lon="6.75615">
        <ele>337</ele>
        <time>2015-12-06T08:44:24.000Z</time>
      </trkpt>
      <trkpt lat="47.49232" lon="6.75609">
        <ele>337</ele>
        <time>2015-12-06T08:44:25.000Z</time>
      </trkpt>
      <trkpt lat="47.49233" lon="6.75603">
        <ele>337</ele>
        <time>2015-12-06T08:44:26.000Z</time>
      </trkpt>
      <trkpt lat="47.49235" lon="6.75597">
        <ele>337</ele>
        <time>2015-12-06T08:44:27.000Z</time>
      </trkpt>
      <trkpt lat="47.49236" lon="6.75592">
        <ele>336</ele>
        <time>2015-12-06T08:44:28.000Z</time>
      </trkpt>
      <trkpt lat="47.49237" lon="6.75586">
        <ele>336</ele>
        <time>2015-12-06T08:44:29.000Z</time>
      </trkpt>
      <trkpt lat="47.49239" lon="6.7558">
        <ele>338</ele>
        <time>2015-12-06T08:44:30.000Z</time>
      </trkpt>
      <trkpt lat="47.49241" lon="6.75575">
        <ele>339</ele>
        <time>2015-12-06T08:44:31.000Z</time>
      </trkpt>
      <trkpt lat="47.49243" lon="6.75569">
        <ele>340</ele>
        <time>2015-12-06T08:44:32.000Z</time>
      </trkpt>
      <trkpt lat="47.49246" lon="6.75564">
        <ele>340</ele>
        <time>2015-12-06T08:44:33.000Z</time>
      </trkpt>
      <trkpt lat="47.49248" lon="6.7556">
        <ele>341</ele>
        <time>2015-12-06T08:44:34.000Z</time>
      </trkpt>
      <trkpt lat="47.4925" lon="6.75555">
        <ele>342</ele>
        <time>2015-12-06T08:44:35.000Z</time>
      </trkpt>
      <trkpt lat="47.49251" lon="6.75551">
        <ele>331</ele>
        <time>2015-12-06T08:44:36.000Z</time>
      </trkpt>
      <trkpt lat="47.49252" lon="6.75547">
        <ele>331</ele>
        <time>2015-12-06T08:44:37.000Z</time>
      </trkpt>
      <trkpt lat="47.49253" lon="6.75543">
        <ele>332</ele>
        <time>2015-12-06T08:44:38.000Z</time>
      </trkpt>
      <trkpt lat="47.49254" lon="6.75538">
        <ele>332</ele>
        <time>2015-12-06T08:44:39.000Z</time>
      </trkpt>
      <trkpt lat="47.49255" lon="6.75533">
        <ele>332</ele>
        <time>2015-12-06T08:44:40.000Z</time>
      </trkpt>
      <trkpt lat="47.49256" lon="6.75529">
        <ele>332</ele>
        <time>2015-12-06T08:44:41.000Z</time>
      </trkpt>
      <trkpt lat="47.49257" lon="6.75524">
        <ele>333</ele>
        <time>2015-12-06T08:44:42.000Z</time>
      </trkpt>
      <trkpt lat="47.49258" lon="6.75519">
        <ele>334</ele>
        <time>2015-12-06T08:44:43.000Z</time>
      </trkpt>
      <trkpt lat="47.49259" lon="6.75514">
        <ele>334</ele>
        <time>2015-12-06T08:44:44.000Z</time>
      </trkpt>
      <trkpt lat="47.49259" lon="6.7551">
        <ele>335</ele>
        <time>2015-12-06T08:44:45.000Z</time>
      </trkpt>
      <trkpt lat="47.4926" lon="6.75505">
        <ele>335</ele>
        <time>2015-12-06T08:44:46.000Z</time>
      </trkpt>
      <trkpt lat="47.4926" lon="6.755">
        <ele>336</ele>
        <time>2015-12-06T08:44:47.000Z</time>
      </trkpt>
      <trkpt lat="47.49261" lon="6.75495">
        <ele>337</ele>
        <time>2015-12-06T08:44:48.000Z</time>
      </trkpt>
      <trkpt lat="47.49262" lon="6.75489">
        <ele>337</ele>
        <time>2015-12-06T08:44:49.000Z</time>
      </trkpt>
      <trkpt lat="47.49263" lon="6.75483">
        <ele>337</ele>
        <time>2015-12-06T08:44:50.000Z</time>
      </trkpt>
      <trkpt lat="47.49264" lon="6.75478">
        <ele>336</ele>
        <time>2015-12-06T08:44:51.000Z</time>
      </trkpt>
      <trkpt lat="47.49265" lon="6.75471">
        <ele>336</ele>
        <time>2015-12-06T08:44:52.000Z</time>
      </trkpt>
      <trkpt lat="47.49266" lon="6.75464">
        <ele>336</ele>
        <time>2015-12-06T08:44:53.000Z</time>
      </trkpt>
      <trkpt lat="47.49267" lon="6.75456">
        <ele>337</ele>
        <time>2015-12-06T08:44:54.001Z</time>
      </trkpt>
      <trkpt lat="47.49268" lon="6.75449">
        <ele>337</ele>
        <time>2015-12-06T08:44:55.000Z</time>
      </trkpt>
      <trkpt lat="47.49269" lon="6.75443">
        <ele>337</ele>
        <time>2015-12-06T08:44:56.000Z</time>
      </trkpt>
      <trkpt lat="47.4927" lon="6.75435">
        <ele>338</ele>
        <time>2015-12-06T08:44:57.000Z</time>
      </trkpt>
      <trkpt lat="47.4927" lon="6.75428">
        <ele>338</ele>
        <time>2015-12-06T08:44:58.000Z</time>
      </trkpt>
      <trkpt lat="47.49272" lon="6.75423">
        <ele>338</ele>
        <time>2015-12-06T08:44:59.000Z</time>
      </trkpt>
      <trkpt lat="47.49274" lon="6.75419">
        <ele>338</ele>
        <time>2015-12-06T08:45:00.000Z</time>
      </trkpt>
      <trkpt lat="47.49275" lon="6.75414">
        <ele>340</ele>
        <time>2015-12-06T08:45:01.000Z</time>
      </trkpt>
      <trkpt lat="47.49277" lon="6.75409">
        <ele>340</ele>
        <time>2015-12-06T08:45:02.000Z</time>
      </trkpt>
      <trkpt lat="47.49278" lon="6.75405">
        <ele>340</ele>
        <time>2015-12-06T08:45:02.999Z</time>
      </trkpt>
      <trkpt lat="47.49279" lon="6.75399">
        <ele>339</ele>
        <time>2015-12-06T08:45:04.000Z</time>
      </trkpt>
      <trkpt lat="47.49279" lon="6.75393">
        <ele>339</ele>
        <time>2015-12-06T08:45:05.000Z</time>
      </trkpt>
      <trkpt lat="47.4928" lon="6.75388">
        <ele>339</ele>
        <time>2015-12-06T08:45:06.000Z</time>
      </trkpt>
      <trkpt lat="47.49282" lon="6.75383">
        <ele>339</ele>
        <time>2015-12-06T08:45:07.000Z</time>
      </trkpt>
      <trkpt lat="47.49284" lon="6.75379">
        <ele>339</ele>
        <time>2015-12-06T08:45:08.000Z</time>
      </trkpt>
      <trkpt lat="47.49285" lon="6.75368">
        <ele>339</ele>
        <time>2015-12-06T08:45:09.000Z</time>
      </trkpt>
      <trkpt lat="47.49286" lon="6.7536">
        <ele>339</ele>
        <time>2015-12-06T08:45:10.000Z</time>
      </trkpt>
      <trkpt lat="47.49287" lon="6.75353">
        <ele>339</ele>
        <time>2015-12-06T08:45:11.000Z</time>
      </trkpt>
      <trkpt lat="47.49288" lon="6.75349">
        <ele>339</ele>
        <time>2015-12-06T08:45:12.000Z</time>
      </trkpt>
      <trkpt lat="47.49289" lon="6.75345">
        <ele>339</ele>
        <time>2015-12-06T08:45:12.999Z</time>
      </trkpt>
      <trkpt lat="47.49288" lon="6.75339">
        <ele>339</ele>
        <time>2015-12-06T08:45:14.000Z</time>
      </trkpt>
      <trkpt lat="47.49289" lon="6.75334">
        <ele>339</ele>
        <time>2015-12-06T08:45:15.000Z</time>
      </trkpt>
      <trkpt lat="47.4929" lon="6.7533">
        <ele>340</ele>
        <time>2015-12-06T08:45:16.000Z</time>
      </trkpt>
      <trkpt lat="47.49289" lon="6.75325">
        <ele>340</ele>
        <time>2015-12-06T08:45:17.000Z</time>
      </trkpt>
      <trkpt lat="47.49289" lon="6.75321">
        <ele>340</ele>
        <time>2015-12-06T08:45:18.000Z</time>
      </trkpt>
      <trkpt lat="47.4929" lon="6.75317">
        <ele>340</ele>
        <time>2015-12-06T08:45:19.000Z</time>
      </trkpt>
      <trkpt lat="47.4929" lon="6.75312">
        <ele>340</ele>
        <time>2015-12-06T08:45:20.000Z</time>
      </trkpt>
      <trkpt lat="47.4929" lon="6.75307">
        <ele>340</ele>
        <time>2015-12-06T08:45:21.000Z</time>
      </trkpt>
      <trkpt lat="47.49292" lon="6.75302">
        <ele>340</ele>
        <time>2015-12-06T08:45:23.000Z</time>
      </trkpt>
      <trkpt lat="47.49292" lon="6.753">
        <ele>340</ele>
        <time>2015-12-06T08:45:24.000Z</time>
      </trkpt>
      <trkpt lat="47.49294" lon="6.75296">
        <ele>340</ele>
        <time>2015-12-06T08:45:26.001Z</time>
      </trkpt>
      <trkpt lat="47.49293" lon="6.75291">
        <ele>340</ele>
        <time>2015-12-06T08:45:27.001Z</time>
      </trkpt>
      <trkpt lat="47.49292" lon="6.75288">
        <ele>340</ele>
        <time>2015-12-06T08:45:28.000Z</time>
      </trkpt>
      <trkpt lat="47.49292" lon="6.75283">
        <ele>340</ele>
        <time>2015-12-06T08:45:29.000Z</time>
      </trkpt>
      <trkpt lat="47.49291" lon="6.7528">
        <ele>340</ele>
        <time>2015-12-06T08:45:30.000Z</time>
      </trkpt>
      <trkpt lat="47.49291" lon="6.75277">
        <ele>340</ele>
        <time>2015-12-06T08:45:31.000Z</time>
      </trkpt>
      <trkpt lat="47.4929" lon="6.75272">
        <ele>340</ele>
        <time>2015-12-06T08:45:32.000Z</time>
      </trkpt>
      <trkpt lat="47.4929" lon="6.7527">
        <ele>340</ele>
        <time>2015-12-06T08:45:33.001Z</time>
      </trkpt>
      <trkpt lat="47.49289" lon="6.75265">
        <ele>340</ele>
        <time>2015-12-06T08:45:34.000Z</time>
      </trkpt>
      <trkpt lat="47.49289" lon="6.75261">
        <ele>340</ele>
        <time>2015-12-06T08:45:35.000Z</time>
      </trkpt>
      <trkpt lat="47.49288" lon="6.75258">
        <ele>341</ele>
        <time>2015-12-06T08:45:36.000Z</time>
      </trkpt>
      <trkpt lat="47.49287" lon="6.75253">
        <ele>341</ele>
        <time>2015-12-06T08:45:37.000Z</time>
      </trkpt>
      <trkpt lat="47.49287" lon="6.75249">
        <ele>343</ele>
        <time>2015-12-06T08:45:38.000Z</time>
      </trkpt>
      <trkpt lat="47.49286" lon="6.75244">
        <ele>343</ele>
        <time>2015-12-06T08:45:39.000Z</time>
      </trkpt>
      <trkpt lat="47.49286" lon="6.75239">
        <ele>343</ele>
        <time>2015-12-06T08:45:40.000Z</time>
      </trkpt>
      <trkpt lat="47.49287" lon="6.75234">
        <ele>343</ele>
        <time>2015-12-06T08:45:41.000Z</time>
      </trkpt>
      <trkpt lat="47.49287" lon="6.75228">
        <ele>343</ele>
        <time>2015-12-06T08:45:42.000Z</time>
      </trkpt>
      <trkpt lat="47.49287" lon="6.75223">
        <ele>343</ele>
        <time>2015-12-06T08:45:43.000Z</time>
      </trkpt>
      <trkpt lat="47.49288" lon="6.75217">
        <ele>343</ele>
        <time>2015-12-06T08:45:44.000Z</time>
      </trkpt>
      <trkpt lat="47.49288" lon="6.75211">
        <ele>343</ele>
        <time>2015-12-06T08:45:45.000Z</time>
      </trkpt>
      <trkpt lat="47.49288" lon="6.75204">
        <ele>343</ele>
        <time>2015-12-06T08:45:46.000Z</time>
      </trkpt>
      <trkpt lat="47.49288" lon="6.75198">
        <ele>344</ele>
        <time>2015-12-06T08:45:47.000Z</time>
      </trkpt>
      <trkpt lat="47.49288" lon="6.75192">
        <ele>344</ele>
        <time>2015-12-06T08:45:48.000Z</time>
      </trkpt>
      <trkpt lat="47.49288" lon="6.75187">
        <ele>344</ele>
        <time>2015-12-06T08:45:49.000Z</time>
      </trkpt>
      <trkpt lat="47.49288" lon="6.75183">
        <ele>344</ele>
        <time>2015-12-06T08:45:50.000Z</time>
      </trkpt>
      <trkpt lat="47.49288" lon="6.75179">
        <ele>344</ele>
        <time>2015-12-06T08:45:51.000Z</time>
      </trkpt>
      <trkpt lat="47.49289" lon="6.75173">
        <ele>344</ele>
        <time>2015-12-06T08:45:52.000Z</time>
      </trkpt>
      <trkpt lat="47.49289" lon="6.75168">
        <ele>344</ele>
        <time>2015-12-06T08:45:53.000Z</time>
      </trkpt>
      <trkpt lat="47.4929" lon="6.75162">
        <ele>347</ele>
        <time>2015-12-06T08:45:54.000Z</time>
      </trkpt>
      <trkpt lat="47.4929" lon="6.75157">
        <ele>347</ele>
        <time>2015-12-06T08:45:55.000Z</time>
      </trkpt>
      <trkpt lat="47.4929" lon="6.75152">
        <ele>347</ele>
        <time>2015-12-06T08:45:56.000Z</time>
      </trkpt>
      <trkpt lat="47.4929" lon="6.75147">
        <ele>347</ele>
        <time>2015-12-06T08:45:57.000Z</time>
      </trkpt>
      <trkpt lat="47.49291" lon="6.75142">
        <ele>347</ele>
        <time>2015-12-06T08:45:58.000Z</time>
      </trkpt>
      <trkpt lat="47.49291" lon="6.75137">
        <ele>347</ele>
        <time>2015-12-06T08:45:59.000Z</time>
      </trkpt>
      <trkpt lat="47.49292" lon="6.75132">
        <ele>347</ele>
        <time>2015-12-06T08:46:00.000Z</time>
      </trkpt>
      <trkpt lat="47.49292" lon="6.75127">
        <ele>347</ele>
        <time>2015-12-06T08:46:01.000Z</time>
      </trkpt>
      <trkpt lat="47.49291" lon="6.7512">
        <ele>347</ele>
        <time>2015-12-06T08:46:02.000Z</time>
      </trkpt>
      <trkpt lat="47.4929" lon="6.75114">
        <ele>347</ele>
        <time>2015-12-06T08:46:03.000Z</time>
      </trkpt>
      <trkpt lat="47.4929" lon="6.75108">
        <ele>348</ele>
        <time>2015-12-06T08:46:04.000Z</time>
      </trkpt>
      <trkpt lat="47.49291" lon="6.75102">
        <ele>348</ele>
        <time>2015-12-06T08:46:05.000Z</time>
      </trkpt>
      <trkpt lat="47.49292" lon="6.75096">
        <ele>347</ele>
        <time>2015-12-06T08:46:06.000Z</time>
      </trkpt>
      <trkpt lat="47.49294" lon="6.7509">
        <ele>347</ele>
        <time>2015-12-06T08:46:07.000Z</time>
      </trkpt>
      <trkpt lat="47.49297" lon="6.75084">
        <ele>347</ele>
        <time>2015-12-06T08:46:08.000Z</time>
      </trkpt>
      <trkpt lat="47.493" lon="6.75078">
        <ele>348</ele>
        <time>2015-12-06T08:46:09.000Z</time>
      </trkpt>
      <trkpt lat="47.49303" lon="6.75073">
        <ele>348</ele>
        <time>2015-12-06T08:46:10.000Z</time>
      </trkpt>
      <trkpt lat="47.49306" lon="6.75068">
        <ele>348</ele>
        <time>2015-12-06T08:46:11.000Z</time>
      </trkpt>
      <trkpt lat="47.49309" lon="6.75063">
        <ele>347</ele>
        <time>2015-12-06T08:46:12.002Z</time>
      </trkpt>
      <trkpt lat="47.49314" lon="6.75057">
        <ele>347</ele>
        <time>2015-12-06T08:46:13.001Z</time>
      </trkpt>
      <trkpt lat="47.49318" lon="6.75051">
        <ele>347</ele>
        <time>2015-12-06T08:46:14.000Z</time>
      </trkpt>
      <trkpt lat="47.49324" lon="6.75039">
        <ele>347</ele>
        <time>2015-12-06T08:46:15.000Z</time>
      </trkpt>
      <trkpt lat="47.49328" lon="6.75034">
        <ele>347</ele>
        <time>2015-12-06T08:46:16.000Z</time>
      </trkpt>
      <trkpt lat="47.49331" lon="6.75029">
        <ele>347</ele>
        <time>2015-12-06T08:46:17.000Z</time>
      </trkpt>
      <trkpt lat="47.49333" lon="6.75025">
        <ele>347</ele>
        <time>2015-12-06T08:46:17.999Z</time>
      </trkpt>
      <trkpt lat="47.49333" lon="6.75021">
        <ele>347</ele>
        <time>2015-12-06T08:46:19.000Z</time>
      </trkpt>
      <trkpt lat="47.49333" lon="6.75016">
        <ele>346</ele>
        <time>2015-12-06T08:46:20.000Z</time>
      </trkpt>
      <trkpt lat="47.49333" lon="6.75009">
        <ele>345</ele>
        <time>2015-12-06T08:46:21.000Z</time>
      </trkpt>
      <trkpt lat="47.49333" lon="6.75003">
        <ele>344</ele>
        <time>2015-12-06T08:46:22.000Z</time>
      </trkpt>
      <trkpt lat="47.49333" lon="6.75">
        <ele>343</ele>
        <time>2015-12-06T08:46:23.001Z</time>
      </trkpt>
      <trkpt lat="47.49333" lon="6.74995">
        <ele>345</ele>
        <time>2015-12-06T08:46:24.000Z</time>
      </trkpt>
      <trkpt lat="47.49333" lon="6.74992">
        <ele>346</ele>
        <time>2015-12-06T08:46:25.001Z</time>
      </trkpt>
      <trkpt lat="47.49333" lon="6.74986">
        <ele>348</ele>
        <time>2015-12-06T08:46:27.001Z</time>
      </trkpt>
      <trkpt lat="47.49333" lon="6.74983">
        <ele>349</ele>
        <time>2015-12-06T08:46:28.000Z</time>
      </trkpt>
      <trkpt lat="47.49333" lon="6.74976">
        <ele>350</ele>
        <time>2015-12-06T08:46:30.000Z</time>
      </trkpt>
      <trkpt lat="47.49333" lon="6.74973">
        <ele>351</ele>
        <time>2015-12-06T08:46:31.000Z</time>
      </trkpt>
      <trkpt lat="47.49333" lon="6.74969">
        <ele>351</ele>
        <time>2015-12-06T08:46:32.000Z</time>
      </trkpt>
      <trkpt lat="47.49332" lon="6.74964">
        <ele>352</ele>
        <time>2015-12-06T08:46:33.000Z</time>
      </trkpt>
      <trkpt lat="47.49332" lon="6.7496">
        <ele>352</ele>
        <time>2015-12-06T08:46:34.000Z</time>
      </trkpt>
      <trkpt lat="47.49331" lon="6.74956">
        <ele>352</ele>
        <time>2015-12-06T08:46:35.000Z</time>
      </trkpt>
      <trkpt lat="47.49331" lon="6.74951">
        <ele>352</ele>
        <time>2015-12-06T08:46:36.000Z</time>
      </trkpt>
      <trkpt lat="47.49331" lon="6.74947">
        <ele>352</ele>
        <time>2015-12-06T08:46:37.000Z</time>
      </trkpt>
      <trkpt lat="47.49332" lon="6.74941">
        <ele>352</ele>
        <time>2015-12-06T08:46:39.000Z</time>
      </trkpt>
      <trkpt lat="47.49333" lon="6.74939">
        <ele>352</ele>
        <time>2015-12-06T08:46:40.000Z</time>
      </trkpt>
      <trkpt lat="47.49333" lon="6.74933">
        <ele>351</ele>
        <time>2015-12-06T08:46:42.000Z</time>
      </trkpt>
      <trkpt lat="47.49333" lon="6.7493">
        <ele>351</ele>
        <time>2015-12-06T08:46:43.000Z</time>
      </trkpt>
      <trkpt lat="47.49332" lon="6.74927">
        <ele>350</ele>
        <time>2015-12-06T08:46:44.000Z</time>
      </trkpt>
      <trkpt lat="47.49331" lon="6.74923">
        <ele>350</ele>
        <time>2015-12-06T08:46:45.000Z</time>
      </trkpt>
      <trkpt lat="47.4933" lon="6.74919">
        <ele>349</ele>
        <time>2015-12-06T08:46:46.000Z</time>
      </trkpt>
      <trkpt lat="47.4933" lon="6.74914">
        <ele>350</ele>
        <time>2015-12-06T08:46:47.000Z</time>
      </trkpt>
      <trkpt lat="47.49329" lon="6.74909">
        <ele>351</ele>
        <time>2015-12-06T08:46:48.000Z</time>
      </trkpt>
      <trkpt lat="47.49329" lon="6.74904">
        <ele>353</ele>
        <time>2015-12-06T08:46:49.000Z</time>
      </trkpt>
      <trkpt lat="47.49328" lon="6.74899">
        <ele>354</ele>
        <time>2015-12-06T08:46:50.000Z</time>
      </trkpt>
      <trkpt lat="47.49328" lon="6.74895">
        <ele>354</ele>
        <time>2015-12-06T08:46:51.000Z</time>
      </trkpt>
      <trkpt lat="47.49328" lon="6.74892">
        <ele>355</ele>
        <time>2015-12-06T08:46:52.000Z</time>
      </trkpt>
      <trkpt lat="47.49328" lon="6.74888">
        <ele>355</ele>
        <time>2015-12-06T08:46:53.000Z</time>
      </trkpt>
      <trkpt lat="47.49328" lon="6.74884">
        <ele>355</ele>
        <time>2015-12-06T08:46:54.000Z</time>
      </trkpt>
      <trkpt lat="47.49329" lon="6.7488">
        <ele>356</ele>
        <time>2015-12-06T08:46:55.000Z</time>
      </trkpt>
      <trkpt lat="47.49329" lon="6.74876">
        <ele>356</ele>
        <time>2015-12-06T08:46:56.000Z</time>
      </trkpt>
      <trkpt lat="47.4933" lon="6.74873">
        <ele>356</ele>
        <time>2015-12-06T08:46:57.000Z</time>
      </trkpt>
      <trkpt lat="47.49331" lon="6.74867">
        <ele>355</ele>
        <time>2015-12-06T08:46:59.000Z</time>
      </trkpt>
      <trkpt lat="47.49331" lon="6.74863">
        <ele>355</ele>
        <time>2015-12-06T08:47:00.000Z</time>
      </trkpt>
      <trkpt lat="47.49331" lon="6.74859">
        <ele>355</ele>
        <time>2015-12-06T08:47:01.000Z</time>
      </trkpt>
      <trkpt lat="47.49331" lon="6.74855">
        <ele>355</ele>
        <time>2015-12-06T08:47:02.000Z</time>
      </trkpt>
      <trkpt lat="47.4933" lon="6.7485">
        <ele>354</ele>
        <time>2015-12-06T08:47:03.000Z</time>
      </trkpt>
      <trkpt lat="47.49331" lon="6.74846">
        <ele>353</ele>
        <time>2015-12-06T08:47:04.000Z</time>
      </trkpt>
      <trkpt lat="47.49331" lon="6.74841">
        <ele>352</ele>
        <time>2015-12-06T08:47:05.001Z</time>
      </trkpt>
      <trkpt lat="47.49333" lon="6.74838">
        <ele>351</ele>
        <time>2015-12-06T08:47:06.000Z</time>
      </trkpt>
      <trkpt lat="47.49334" lon="6.74834">
        <ele>349</ele>
        <time>2015-12-06T08:47:07.001Z</time>
      </trkpt>
      <trkpt lat="47.49334" lon="6.74831">
        <ele>349</ele>
        <time>2015-12-06T08:47:08.000Z</time>
      </trkpt>
      <trkpt lat="47.49333" lon="6.74825">
        <ele>353</ele>
        <time>2015-12-06T08:47:10.000Z</time>
      </trkpt>
      <trkpt lat="47.49333" lon="6.74821">
        <ele>354</ele>
        <time>2015-12-06T08:47:11.000Z</time>
      </trkpt>
      <trkpt lat="47.49332" lon="6.74817">
        <ele>356</ele>
        <time>2015-12-06T08:47:12.000Z</time>
      </trkpt>
      <trkpt lat="47.49332" lon="6.74814">
        <ele>356</ele>
        <time>2015-12-06T08:47:13.000Z</time>
      </trkpt>
      <trkpt lat="47.49332" lon="6.74809">
        <ele>357</ele>
        <time>2015-12-06T08:47:14.999Z</time>
      </trkpt>
      <trkpt lat="47.49332" lon="6.74805">
        <ele>358</ele>
        <time>2015-12-06T08:47:16.000Z</time>
      </trkpt>
      <trkpt lat="47.49333" lon="6.74801">
        <ele>358</ele>
        <time>2015-12-06T08:47:17.000Z</time>
      </trkpt>
      <trkpt lat="47.49333" lon="6.74797">
        <ele>359</ele>
        <time>2015-12-06T08:47:18.000Z</time>
      </trkpt>
      <trkpt lat="47.49333" lon="6.74793">
        <ele>359</ele>
        <time>2015-12-06T08:47:19.000Z</time>
      </trkpt>
      <trkpt lat="47.49333" lon="6.74788">
        <ele>347</ele>
        <time>2015-12-06T08:47:20.000Z</time>
      </trkpt>
      <trkpt lat="47.49333" lon="6.74784">
        <ele>347</ele>
        <time>2015-12-06T08:47:21.000Z</time>
      </trkpt>
      <trkpt lat="47.49333" lon="6.7478">
        <ele>359</ele>
        <time>2015-12-06T08:47:22.000Z</time>
      </trkpt>
      <trkpt lat="47.49333" lon="6.74775">
        <ele>359</ele>
        <time>2015-12-06T08:47:23.000Z</time>
      </trkpt>
      <trkpt lat="47.49333" lon="6.74771">
        <ele>359</ele>
        <time>2015-12-06T08:47:24.000Z</time>
      </trkpt>
      <trkpt lat="47.49332" lon="6.74766">
        <ele>358</ele>
        <time>2015-12-06T08:47:25.000Z</time>
      </trkpt>
      <trkpt lat="47.49332" lon="6.74762">
        <ele>357</ele>
        <time>2015-12-06T08:47:26.000Z</time>
      </trkpt>
      <trkpt lat="47.49333" lon="6.74756">
        <ele>356</ele>
        <time>2015-12-06T08:47:28.000Z</time>
      </trkpt>
      <trkpt lat="47.49334" lon="6.74753">
        <ele>353</ele>
        <time>2015-12-06T08:47:29.000Z</time>
      </trkpt>
      <trkpt lat="47.49335" lon="6.74747">
        <ele>353</ele>
        <time>2015-12-06T08:47:31.000Z</time>
      </trkpt>
      <trkpt lat="47.49334" lon="6.74744">
        <ele>353</ele>
        <time>2015-12-06T08:47:32.000Z</time>
      </trkpt>
      <trkpt lat="47.49332" lon="6.74739">
        <ele>359</ele>
        <time>2015-12-06T08:47:33.000Z</time>
      </trkpt>
      <trkpt lat="47.49332" lon="6.74737">
        <ele>360</ele>
        <time>2015-12-06T08:47:34.001Z</time>
      </trkpt>
      <trkpt lat="47.4933" lon="6.74732">
        <ele>361</ele>
        <time>2015-12-06T08:47:35.000Z</time>
      </trkpt>
      <trkpt lat="47.49329" lon="6.74728">
        <ele>362</ele>
        <time>2015-12-06T08:47:36.000Z</time>
      </trkpt>
      <trkpt lat="47.49328" lon="6.74725">
        <ele>363</ele>
        <time>2015-12-06T08:47:37.000Z</time>
      </trkpt>
      <trkpt lat="47.49327" lon="6.7472">
        <ele>364</ele>
        <time>2015-12-06T08:47:38.000Z</time>
      </trkpt>
      <trkpt lat="47.49327" lon="6.74713">
        <ele>364</ele>
        <time>2015-12-06T08:47:39.000Z</time>
      </trkpt>
      <trkpt lat="47.49327" lon="6.74706">
        <ele>365</ele>
        <time>2015-12-06T08:47:40.000Z</time>
      </trkpt>
      <trkpt lat="47.49327" lon="6.74701">
        <ele>365</ele>
        <time>2015-12-06T08:47:41.000Z</time>
      </trkpt>
      <trkpt lat="47.49327" lon="6.74694">
        <ele>365</ele>
        <time>2015-12-06T08:47:41.999Z</time>
      </trkpt>
      <trkpt lat="47.49328" lon="6.74689">
        <ele>365</ele>
        <time>2015-12-06T08:47:43.000Z</time>
      </trkpt>
      <trkpt lat="47.49329" lon="6.74685">
        <ele>364</ele>
        <time>2015-12-06T08:47:44.001Z</time>
      </trkpt>
      <trkpt lat="47.4933" lon="6.74682">
        <ele>364</ele>
        <time>2015-12-06T08:47:45.000Z</time>
      </trkpt>
      <trkpt lat="47.4933" lon="6.74678">
        <ele>363</ele>
        <time>2015-12-06T08:47:46.000Z</time>
      </trkpt>
      <trkpt lat="47.49331" lon="6.74674">
        <ele>362</ele>
        <time>2015-12-06T08:47:47.000Z</time>
      </trkpt>
      <trkpt lat="47.49332" lon="6.7467">
        <ele>361</ele>
        <time>2015-12-06T08:47:48.000Z</time>
      </trkpt>
      <trkpt lat="47.49332" lon="6.74666">
        <ele>361</ele>
        <time>2015-12-06T08:47:49.000Z</time>
      </trkpt>
      <trkpt lat="47.49332" lon="6.74662">
        <ele>362</ele>
        <time>2015-12-06T08:47:50.000Z</time>
      </trkpt>
      <trkpt lat="47.49331" lon="6.74658">
        <ele>363</ele>
        <time>2015-12-06T08:47:51.000Z</time>
      </trkpt>
      <trkpt lat="47.49332" lon="6.74653">
        <ele>365</ele>
        <time>2015-12-06T08:47:52.000Z</time>
      </trkpt>
      <trkpt lat="47.49332" lon="6.74649">
        <ele>365</ele>
        <time>2015-12-06T08:47:52.999Z</time>
      </trkpt>
      <trkpt lat="47.49332" lon="6.74644">
        <ele>366</ele>
        <time>2015-12-06T08:47:54.000Z</time>
      </trkpt>
      <trkpt lat="47.49333" lon="6.7464">
        <ele>367</ele>
        <time>2015-12-06T08:47:55.000Z</time>
      </trkpt>
      <trkpt lat="47.49332" lon="6.74636">
        <ele>367</ele>
        <time>2015-12-06T08:47:56.000Z</time>
      </trkpt>
      <trkpt lat="47.49332" lon="6.74632">
        <ele>367</ele>
        <time>2015-12-06T08:47:57.000Z</time>
      </trkpt>
      <trkpt lat="47.49332" lon="6.74629">
        <ele>367</ele>
        <time>2015-12-06T08:47:58.000Z</time>
      </trkpt>
      <trkpt lat="47.49332" lon="6.74625">
        <ele>367</ele>
        <time>2015-12-06T08:47:59.000Z</time>
      </trkpt>
      <trkpt lat="47.49333" lon="6.74621">
        <ele>367</ele>
        <time>2015-12-06T08:48:00.000Z</time>
      </trkpt>
      <trkpt lat="47.49334" lon="6.74617">
        <ele>354</ele>
        <time>2015-12-06T08:48:01.000Z</time>
      </trkpt>
      <trkpt lat="47.49335" lon="6.74613">
        <ele>354</ele>
        <time>2015-12-06T08:48:02.000Z</time>
      </trkpt>
      <trkpt lat="47.49336" lon="6.74609">
        <ele>355</ele>
        <time>2015-12-06T08:48:03.000Z</time>
      </trkpt>
      <trkpt lat="47.49336" lon="6.74604">
        <ele>355</ele>
        <time>2015-12-06T08:48:04.000Z</time>
      </trkpt>
      <trkpt lat="47.49335" lon="6.74599">
        <ele>356</ele>
        <time>2015-12-06T08:48:05.000Z</time>
      </trkpt>
      <trkpt lat="47.49335" lon="6.74594">
        <ele>357</ele>
        <time>2015-12-06T08:48:06.000Z</time>
      </trkpt>
      <trkpt lat="47.49335" lon="6.74588">
        <ele>358</ele>
        <time>2015-12-06T08:48:07.000Z</time>
      </trkpt>
      <trkpt lat="47.49335" lon="6.74582">
        <ele>360</ele>
        <time>2015-12-06T08:48:08.000Z</time>
      </trkpt>
      <trkpt lat="47.49335" lon="6.74577">
        <ele>358</ele>
        <time>2015-12-06T08:48:09.000Z</time>
      </trkpt>
      <trkpt lat="47.49335" lon="6.74571">
        <ele>357</ele>
        <time>2015-12-06T08:48:10.000Z</time>
      </trkpt>
      <trkpt lat="47.49334" lon="6.74563">
        <ele>356</ele>
        <time>2015-12-06T08:48:11.000Z</time>
      </trkpt>
      <trkpt lat="47.49334" lon="6.74557">
        <ele>356</ele>
        <time>2015-12-06T08:48:12.000Z</time>
      </trkpt>
      <trkpt lat="47.49333" lon="6.74553">
        <ele>356</ele>
        <time>2015-12-06T08:48:13.000Z</time>
      </trkpt>
      <trkpt lat="47.49334" lon="6.7455">
        <ele>356</ele>
        <time>2015-12-06T08:48:14.000Z</time>
      </trkpt>
      <trkpt lat="47.49335" lon="6.74546">
        <ele>356</ele>
        <time>2015-12-06T08:48:15.000Z</time>
      </trkpt>
      <trkpt lat="47.49336" lon="6.74542">
        <ele>356</ele>
        <time>2015-12-06T08:48:16.000Z</time>
      </trkpt>
      <trkpt lat="47.49339" lon="6.74537">
        <ele>356</ele>
        <time>2015-12-06T08:48:17.000Z</time>
      </trkpt>
      <trkpt lat="47.49339" lon="6.74529">
        <ele>356</ele>
        <time>2015-12-06T08:48:18.000Z</time>
      </trkpt>
      <trkpt lat="47.49341" lon="6.74524">
        <ele>357</ele>
        <time>2015-12-06T08:48:19.000Z</time>
      </trkpt>
      <trkpt lat="47.49342" lon="6.7452">
        <ele>357</ele>
        <time>2015-12-06T08:48:20.000Z</time>
      </trkpt>
      <trkpt lat="47.49343" lon="6.74515">
        <ele>357</ele>
        <time>2015-12-06T08:48:21.000Z</time>
      </trkpt>
      <trkpt lat="47.49343" lon="6.7451">
        <ele>358</ele>
        <time>2015-12-06T08:48:22.000Z</time>
      </trkpt>
      <trkpt lat="47.49343" lon="6.74505">
        <ele>359</ele>
        <time>2015-12-06T08:48:23.000Z</time>
      </trkpt>
      <trkpt lat="47.49343" lon="6.74499">
        <ele>360</ele>
        <time>2015-12-06T08:48:24.000Z</time>
      </trkpt>
      <trkpt lat="47.49343" lon="6.74493">
        <ele>359</ele>
        <time>2015-12-06T08:48:25.000Z</time>
      </trkpt>
      <trkpt lat="47.49343" lon="6.74487">
        <ele>359</ele>
        <time>2015-12-06T08:48:26.000Z</time>
      </trkpt>
      <trkpt lat="47.49344" lon="6.74482">
        <ele>358</ele>
        <time>2015-12-06T08:48:27.000Z</time>
      </trkpt>
      <trkpt lat="47.49345" lon="6.74476">
        <ele>358</ele>
        <time>2015-12-06T08:48:28.000Z</time>
      </trkpt>
      <trkpt lat="47.49346" lon="6.7447">
        <ele>357</ele>
        <time>2015-12-06T08:48:29.000Z</time>
      </trkpt>
      <trkpt lat="47.49347" lon="6.74465">
        <ele>357</ele>
        <time>2015-12-06T08:48:30.000Z</time>
      </trkpt>
      <trkpt lat="47.49348" lon="6.74453">
        <ele>357</ele>
        <time>2015-12-06T08:48:32.000Z</time>
      </trkpt>
      <trkpt lat="47.49348" lon="6.74446">
        <ele>358</ele>
        <time>2015-12-06T08:48:33.000Z</time>
      </trkpt>
      <trkpt lat="47.49348" lon="6.74439">
        <ele>358</ele>
        <time>2015-12-06T08:48:34.000Z</time>
      </trkpt>
      <trkpt lat="47.49348" lon="6.74433">
        <ele>359</ele>
        <time>2015-12-06T08:48:35.000Z</time>
      </trkpt>
      <trkpt lat="47.49349" lon="6.74426">
        <ele>359</ele>
        <time>2015-12-06T08:48:36.000Z</time>
      </trkpt>
      <trkpt lat="47.49349" lon="6.74421">
        <ele>359</ele>
        <time>2015-12-06T08:48:37.000Z</time>
      </trkpt>
      <trkpt lat="47.49349" lon="6.74416">
        <ele>360</ele>
        <time>2015-12-06T08:48:38.000Z</time>
      </trkpt>
      <trkpt lat="47.49349" lon="6.74411">
        <ele>360</ele>
        <time>2015-12-06T08:48:39.000Z</time>
      </trkpt>
      <trkpt lat="47.4935" lon="6.74407">
        <ele>359</ele>
        <time>2015-12-06T08:48:40.000Z</time>
      </trkpt>
      <trkpt lat="47.49351" lon="6.74403">
        <ele>359</ele>
        <time>2015-12-06T08:48:41.000Z</time>
      </trkpt>
      <trkpt lat="47.49351" lon="6.74398">
        <ele>359</ele>
        <time>2015-12-06T08:48:42.000Z</time>
      </trkpt>
      <trkpt lat="47.49352" lon="6.74394">
        <ele>358</ele>
        <time>2015-12-06T08:48:42.999Z</time>
      </trkpt>
      <trkpt lat="47.49352" lon="6.74388">
        <ele>358</ele>
        <time>2015-12-06T08:48:44.000Z</time>
      </trkpt>
      <trkpt lat="47.49352" lon="6.74382">
        <ele>358</ele>
        <time>2015-12-06T08:48:45.000Z</time>
      </trkpt>
      <trkpt lat="47.49353" lon="6.74376">
        <ele>358</ele>
        <time>2015-12-06T08:48:46.000Z</time>
      </trkpt>
      <trkpt lat="47.49352" lon="6.74372">
        <ele>358</ele>
        <time>2015-12-06T08:48:47.000Z</time>
      </trkpt>
      <trkpt lat="47.49352" lon="6.74368">
        <ele>358</ele>
        <time>2015-12-06T08:48:48.000Z</time>
      </trkpt>
      <trkpt lat="47.49352" lon="6.74364">
        <ele>358</ele>
        <time>2015-12-06T08:48:49.000Z</time>
      </trkpt>
      <trkpt lat="47.49353" lon="6.74358">
        <ele>359</ele>
        <time>2015-12-06T08:48:51.000Z</time>
      </trkpt>
      <trkpt lat="47.49355" lon="6.74356">
        <ele>359</ele>
        <time>2015-12-06T08:48:52.000Z</time>
      </trkpt>
      <trkpt lat="47.49356" lon="6.74353">
        <ele>359</ele>
        <time>2015-12-06T08:48:53.000Z</time>
      </trkpt>
      <trkpt lat="47.49356" lon="6.74349">
        <ele>359</ele>
        <time>2015-12-06T08:48:54.000Z</time>
      </trkpt>
      <trkpt lat="47.49357" lon="6.74347">
        <ele>359</ele>
        <time>2015-12-06T08:48:55.000Z</time>
      </trkpt>
      <trkpt lat="47.49356" lon="6.7434">
        <ele>360</ele>
        <time>2015-12-06T08:48:56.001Z</time>
      </trkpt>
      <trkpt lat="47.49355" lon="6.74334">
        <ele>360</ele>
        <time>2015-12-06T08:48:57.000Z</time>
      </trkpt>
      <trkpt lat="47.49355" lon="6.74328">
        <ele>361</ele>
        <time>2015-12-06T08:48:58.000Z</time>
      </trkpt>
      <trkpt lat="47.49354" lon="6.74323">
        <ele>360</ele>
        <time>2015-12-06T08:48:59.000Z</time>
      </trkpt>
      <trkpt lat="47.49354" lon="6.74319">
        <ele>360</ele>
        <time>2015-12-06T08:49:00.000Z</time>
      </trkpt>
      <trkpt lat="47.49354" lon="6.74315">
        <ele>360</ele>
        <time>2015-12-06T08:49:01.000Z</time>
      </trkpt>
      <trkpt lat="47.49354" lon="6.74312">
        <ele>360</ele>
        <time>2015-12-06T08:49:02.000Z</time>
      </trkpt>
      <trkpt lat="47.49355" lon="6.74309">
        <ele>360</ele>
        <time>2015-12-06T08:49:03.000Z</time>
      </trkpt>
      <trkpt lat="47.49353" lon="6.74303">
        <ele>359</ele>
        <time>2015-12-06T08:49:04.000Z</time>
      </trkpt>
      <trkpt lat="47.49353" lon="6.74298">
        <ele>359</ele>
        <time>2015-12-06T08:49:05.000Z</time>
      </trkpt>
      <trkpt lat="47.49352" lon="6.74293">
        <ele>360</ele>
        <time>2015-12-06T08:49:06.000Z</time>
      </trkpt>
      <trkpt lat="47.49352" lon="6.74288">
        <ele>360</ele>
        <time>2015-12-06T08:49:07.000Z</time>
      </trkpt>
      <trkpt lat="47.49352" lon="6.74284">
        <ele>360</ele>
        <time>2015-12-06T08:49:08.000Z</time>
      </trkpt>
      <trkpt lat="47.49353" lon="6.74279">
        <ele>360</ele>
        <time>2015-12-06T08:49:09.000Z</time>
      </trkpt>
      <trkpt lat="47.49354" lon="6.74275">
        <ele>360</ele>
        <time>2015-12-06T08:49:10.000Z</time>
      </trkpt>
      <trkpt lat="47.49356" lon="6.7427">
        <ele>360</ele>
        <time>2015-12-06T08:49:11.000Z</time>
      </trkpt>
      <trkpt lat="47.49357" lon="6.74265">
        <ele>360</ele>
        <time>2015-12-06T08:49:12.000Z</time>
      </trkpt>
      <trkpt lat="47.49359" lon="6.7426">
        <ele>360</ele>
        <time>2015-12-06T08:49:13.000Z</time>
      </trkpt>
      <trkpt lat="47.4936" lon="6.74255">
        <ele>360</ele>
        <time>2015-12-06T08:49:14.000Z</time>
      </trkpt>
      <trkpt lat="47.49362" lon="6.74251">
        <ele>360</ele>
        <time>2015-12-06T08:49:15.000Z</time>
      </trkpt>
      <trkpt lat="47.49364" lon="6.74247">
        <ele>360</ele>
        <time>2015-12-06T08:49:16.000Z</time>
      </trkpt>
      <trkpt lat="47.49366" lon="6.74242">
        <ele>360</ele>
        <time>2015-12-06T08:49:17.000Z</time>
      </trkpt>
      <trkpt lat="47.49367" lon="6.74237">
        <ele>359</ele>
        <time>2015-12-06T08:49:18.000Z</time>
      </trkpt>
      <trkpt lat="47.49368" lon="6.74232">
        <ele>359</ele>
        <time>2015-12-06T08:49:19.000Z</time>
      </trkpt>
      <trkpt lat="47.4937" lon="6.74227">
        <ele>359</ele>
        <time>2015-12-06T08:49:20.000Z</time>
      </trkpt>
      <trkpt lat="47.49371" lon="6.74221">
        <ele>358</ele>
        <time>2015-12-06T08:49:21.000Z</time>
      </trkpt>
      <trkpt lat="47.49372" lon="6.74216">
        <ele>358</ele>
        <time>2015-12-06T08:49:22.000Z</time>
      </trkpt>
      <trkpt lat="47.49375" lon="6.74205">
        <ele>358</ele>
        <time>2015-12-06T08:49:23.000Z</time>
      </trkpt>
      <trkpt lat="47.49377" lon="6.74198">
        <ele>358</ele>
        <time>2015-12-06T08:49:24.000Z</time>
      </trkpt>
      <trkpt lat="47.49378" lon="6.7419">
        <ele>357</ele>
        <time>2015-12-06T08:49:25.000Z</time>
      </trkpt>
      <trkpt lat="47.4938" lon="6.74182">
        <ele>357</ele>
        <time>2015-12-06T08:49:26.000Z</time>
      </trkpt>
      <trkpt lat="47.49378" lon="6.74172">
        <ele>357</ele>
        <time>2015-12-06T08:49:27.000Z</time>
      </trkpt>
      <trkpt lat="47.49379" lon="6.74163">
        <ele>357</ele>
        <time>2015-12-06T08:49:28.000Z</time>
      </trkpt>
      <trkpt lat="47.49381" lon="6.74155">
        <ele>357</ele>
        <time>2015-12-06T08:49:29.000Z</time>
      </trkpt>
      <trkpt lat="47.49382" lon="6.74148">
        <ele>357</ele>
        <time>2015-12-06T08:49:30.000Z</time>
      </trkpt>
      <trkpt lat="47.49383" lon="6.74139">
        <ele>357</ele>
        <time>2015-12-06T08:49:31.000Z</time>
      </trkpt>
      <trkpt lat="47.49384" lon="6.74134">
        <ele>356</ele>
        <time>2015-12-06T08:49:32.000Z</time>
      </trkpt>
      <trkpt lat="47.49387" lon="6.74128">
        <ele>356</ele>
        <time>2015-12-06T08:49:33.000Z</time>
      </trkpt>
      <trkpt lat="47.4939" lon="6.7412">
        <ele>356</ele>
        <time>2015-12-06T08:49:34.000Z</time>
      </trkpt>
      <trkpt lat="47.49393" lon="6.74111">
        <ele>355</ele>
        <time>2015-12-06T08:49:35.000Z</time>
      </trkpt>
      <trkpt lat="47.49392" lon="6.74096">
        <ele>355</ele>
        <time>2015-12-06T08:49:36.000Z</time>
      </trkpt>
      <trkpt lat="47.49393" lon="6.74088">
        <ele>354</ele>
        <time>2015-12-06T08:49:37.000Z</time>
      </trkpt>
      <trkpt lat="47.49397" lon="6.7408">
        <ele>353</ele>
        <time>2015-12-06T08:49:38.000Z</time>
      </trkpt>
      <trkpt lat="47.494" lon="6.74072">
        <ele>352</ele>
        <time>2015-12-06T08:49:39.000Z</time>
      </trkpt>
      <trkpt lat="47.49402" lon="6.74064">
        <ele>353</ele>
        <time>2015-12-06T08:49:40.000Z</time>
      </trkpt>
      <trkpt lat="47.49403" lon="6.74056">
        <ele>353</ele>
        <time>2015-12-06T08:49:41.000Z</time>
      </trkpt>
      <trkpt lat="47.49403" lon="6.74051">
        <ele>354</ele>
        <time>2015-12-06T08:49:42.000Z</time>
      </trkpt>
      <trkpt lat="47.49403" lon="6.74044">
        <ele>354</ele>
        <time>2015-12-06T08:49:43.000Z</time>
      </trkpt>
      <trkpt lat="47.49403" lon="6.74039">
        <ele>354</ele>
        <time>2015-12-06T08:49:44.000Z</time>
      </trkpt>
      <trkpt lat="47.49403" lon="6.74035">
        <ele>354</ele>
        <time>2015-12-06T08:49:45.000Z</time>
      </trkpt>
      <trkpt lat="47.49402" lon="6.74029">
        <ele>354</ele>
        <time>2015-12-06T08:49:47.000Z</time>
      </trkpt>
      <trkpt lat="47.49401" lon="6.74025">
        <ele>354</ele>
        <time>2015-12-06T08:49:48.000Z</time>
      </trkpt>
      <trkpt lat="47.49399" lon="6.7402">
        <ele>354</ele>
        <time>2015-12-06T08:49:50.000Z</time>
      </trkpt>
      <trkpt lat="47.49398" lon="6.74018">
        <ele>354</ele>
        <time>2015-12-06T08:49:51.000Z</time>
      </trkpt>
      <trkpt lat="47.49399" lon="6.74012">
        <ele>353</ele>
        <time>2015-12-06T08:49:57.000Z</time>
      </trkpt>
      <trkpt lat="47.49399" lon="6.7401">
        <ele>353</ele>
        <time>2015-12-06T08:49:58.000Z</time>
      </trkpt>
      <trkpt lat="47.49398" lon="6.74004">
        <ele>353</ele>
        <time>2015-12-06T08:50:07.000Z</time>
      </trkpt>
      <trkpt lat="47.49397" lon="6.74002">
        <ele>353</ele>
        <time>2015-12-06T08:50:08.000Z</time>
      </trkpt>
      <trkpt lat="47.49396" lon="6.73998">
        <ele>352</ele>
        <time>2015-12-06T08:50:09.998Z</time>
      </trkpt>
      <trkpt lat="47.49395" lon="6.73994">
        <ele>352</ele>
        <time>2015-12-06T08:50:11.000Z</time>
      </trkpt>
      <trkpt lat="47.49395" lon="6.7399">
        <ele>352</ele>
        <time>2015-12-06T08:50:12.000Z</time>
      </trkpt>
      <trkpt lat="47.49394" lon="6.73986">
        <ele>353</ele>
        <time>2015-12-06T08:50:13.000Z</time>
      </trkpt>
      <trkpt lat="47.49393" lon="6.73983">
        <ele>353</ele>
        <time>2015-12-06T08:50:13.999Z</time>
      </trkpt>
      <trkpt lat="47.49391" lon="6.73978">
        <ele>353</ele>
        <time>2015-12-06T08:50:15.000Z</time>
      </trkpt>
      <trkpt lat="47.4939" lon="6.73974">
        <ele>353</ele>
        <time>2015-12-06T08:50:16.000Z</time>
      </trkpt>
      <trkpt lat="47.49388" lon="6.7397">
        <ele>353</ele>
        <time>2015-12-06T08:50:17.000Z</time>
      </trkpt>
      <trkpt lat="47.49387" lon="6.73965">
        <ele>353</ele>
        <time>2015-12-06T08:50:18.000Z</time>
      </trkpt>
      <trkpt lat="47.49386" lon="6.7396">
        <ele>353</ele>
        <time>2015-12-06T08:50:19.000Z</time>
      </trkpt>
      <trkpt lat="47.49384" lon="6.73956">
        <ele>353</ele>
        <time>2015-12-06T08:50:20.000Z</time>
      </trkpt>
      <trkpt lat="47.49383" lon="6.73952">
        <ele>353</ele>
        <time>2015-12-06T08:50:21.000Z</time>
      </trkpt>
      <trkpt lat="47.49381" lon="6.73948">
        <ele>353</ele>
        <time>2015-12-06T08:50:22.000Z</time>
      </trkpt>
      <trkpt lat="47.4938" lon="6.73946">
        <ele>353</ele>
        <time>2015-12-06T08:50:23.000Z</time>
      </trkpt>
      <trkpt lat="47.49377" lon="6.73943">
        <ele>354</ele>
        <time>2015-12-06T08:50:24.000Z</time>
      </trkpt>
      <trkpt lat="47.49376" lon="6.7394">
        <ele>354</ele>
        <time>2015-12-06T08:50:25.000Z</time>
      </trkpt>
      <trkpt lat="47.49374" lon="6.73937">
        <ele>354</ele>
        <time>2015-12-06T08:50:26.000Z</time>
      </trkpt>
      <trkpt lat="47.49372" lon="6.73933">
        <ele>354</ele>
        <time>2015-12-06T08:50:27.000Z</time>
      </trkpt>
      <trkpt lat="47.49371" lon="6.73929">
        <ele>354</ele>
        <time>2015-12-06T08:50:28.000Z</time>
      </trkpt>
      <trkpt lat="47.49369" lon="6.73924">
        <ele>354</ele>
        <time>2015-12-06T08:50:29.000Z</time>
      </trkpt>
      <trkpt lat="47.49368" lon="6.73921">
        <ele>354</ele>
        <time>2015-12-06T08:50:30.000Z</time>
      </trkpt>
      <trkpt lat="47.49366" lon="6.73915">
        <ele>353</ele>
        <time>2015-12-06T08:50:31.000Z</time>
      </trkpt>
      <trkpt lat="47.49365" lon="6.73912">
        <ele>353</ele>
        <time>2015-12-06T08:50:32.000Z</time>
      </trkpt>
      <trkpt lat="47.49362" lon="6.73907">
        <ele>353</ele>
        <time>2015-12-06T08:50:33.000Z</time>
      </trkpt>
      <trkpt lat="47.4936" lon="6.73903">
        <ele>353</ele>
        <time>2015-12-06T08:50:34.000Z</time>
      </trkpt>
      <trkpt lat="47.49353" lon="6.73889">
        <ele>353</ele>
        <time>2015-12-06T08:50:35.000Z</time>
      </trkpt>
      <trkpt lat="47.49348" lon="6.73882">
        <ele>353</ele>
        <time>2015-12-06T08:50:36.000Z</time>
      </trkpt>
      <trkpt lat="47.49344" lon="6.73876">
        <ele>353</ele>
        <time>2015-12-06T08:50:37.000Z</time>
      </trkpt>
      <trkpt lat="47.4934" lon="6.73865">
        <ele>352</ele>
        <time>2015-12-06T08:50:38.000Z</time>
      </trkpt>
      <trkpt lat="47.49337" lon="6.73855">
        <ele>353</ele>
        <time>2015-12-06T08:50:38.999Z</time>
      </trkpt>
      <trkpt lat="47.49333" lon="6.73848">
        <ele>356</ele>
        <time>2015-12-06T08:50:40.000Z</time>
      </trkpt>
      <trkpt lat="47.49329" lon="6.73841">
        <ele>355</ele>
        <time>2015-12-06T08:50:41.000Z</time>
      </trkpt>
      <trkpt lat="47.49325" lon="6.73837">
        <ele>355</ele>
        <time>2015-12-06T08:50:42.000Z</time>
      </trkpt>
      <trkpt lat="47.49321" lon="6.73834">
        <ele>356</ele>
        <time>2015-12-06T08:50:42.999Z</time>
      </trkpt>
      <trkpt lat="47.49317" lon="6.73833">
        <ele>355</ele>
        <time>2015-12-06T08:50:44.000Z</time>
      </trkpt>
      <trkpt lat="47.49316" lon="6.73828">
        <ele>355</ele>
        <time>2015-12-06T08:50:45.000Z</time>
      </trkpt>
      <trkpt lat="47.49315" lon="6.73825">
        <ele>356</ele>
        <time>2015-12-06T08:50:46.000Z</time>
      </trkpt>
      <trkpt lat="47.49312" lon="6.73822">
        <ele>356</ele>
        <time>2015-12-06T08:50:49.000Z</time>
      </trkpt>
      <trkpt lat="47.4931" lon="6.73819">
        <ele>356</ele>
        <time>2015-12-06T08:50:50.000Z</time>
      </trkpt>
      <trkpt lat="47.49308" lon="6.73814">
        <ele>356</ele>
        <time>2015-12-06T08:50:52.000Z</time>
      </trkpt>
      <trkpt lat="47.49308" lon="6.73812">
        <ele>356</ele>
        <time>2015-12-06T08:50:53.000Z</time>
      </trkpt>
      <trkpt lat="47.49307" lon="6.73806">
        <ele>356</ele>
        <time>2015-12-06T08:50:57.000Z</time>
      </trkpt>
      <trkpt lat="47.49307" lon="6.73805">
        <ele>356</ele>
        <time>2015-12-06T08:50:58.000Z</time>
      </trkpt>
      <trkpt lat="47.4931" lon="6.73802">
        <ele>356</ele>
        <time>2015-12-06T08:51:01.000Z</time>
      </trkpt>
      <trkpt lat="47.49311" lon="6.738">
        <ele>356</ele>
        <time>2015-12-06T08:51:02.000Z</time>
      </trkpt>
      <trkpt lat="47.49314" lon="6.73796">
        <ele>356</ele>
        <time>2015-12-06T08:51:04.999Z</time>
      </trkpt>
      <trkpt lat="47.49315" lon="6.73795">
        <ele>356</ele>
        <time>2015-12-06T08:51:06.000Z</time>
      </trkpt>
      <trkpt lat="47.49318" lon="6.73792">
        <ele>356</ele>
        <time>2015-12-06T08:51:10.000Z</time>
      </trkpt>
      <trkpt lat="47.49318" lon="6.7379">
        <ele>356</ele>
        <time>2015-12-06T08:51:11.000Z</time>
      </trkpt>
      <trkpt lat="47.49318" lon="6.73785">
        <ele>356</ele>
        <time>2015-12-06T08:51:15.000Z</time>
      </trkpt>
      <trkpt lat="47.49318" lon="6.73783">
        <ele>356</ele>
        <time>2015-12-06T08:51:16.000Z</time>
      </trkpt>
      <trkpt lat="47.49318" lon="6.73777">
        <ele>356</ele>
        <time>2015-12-06T08:51:19.000Z</time>
      </trkpt>
      <trkpt lat="47.49319" lon="6.73776">
        <ele>356</ele>
        <time>2015-12-06T08:51:20.000Z</time>
      </trkpt>
      <trkpt lat="47.49319" lon="6.7377">
        <ele>356</ele>
        <time>2015-12-06T08:51:26.999Z</time>
      </trkpt>
      <trkpt lat="47.49318" lon="6.73769">
        <ele>356</ele>
        <time>2015-12-06T08:51:28.000Z</time>
      </trkpt>
      <trkpt lat="47.49319" lon="6.73762">
        <ele>356</ele>
        <time>2015-12-06T08:52:01.000Z</time>
      </trkpt>
      <trkpt lat="47.49319" lon="6.73762">
        <ele>356</ele>
        <time>2015-12-06T08:52:02.002Z</time>
      </trkpt>
      <trkpt lat="47.4932" lon="6.73756">
        <ele>356</ele>
        <time>2015-12-06T08:52:06.000Z</time>
      </trkpt>
      <trkpt lat="47.4932" lon="6.73753">
        <ele>356</ele>
        <time>2015-12-06T08:52:07.000Z</time>
      </trkpt>
      <trkpt lat="47.49319" lon="6.73748">
        <ele>357</ele>
        <time>2015-12-06T08:52:10.000Z</time>
      </trkpt>
      <trkpt lat="47.49319" lon="6.73746">
        <ele>358</ele>
        <time>2015-12-06T08:52:11.000Z</time>
      </trkpt>
      <trkpt lat="47.49318" lon="6.7374">
        <ele>358</ele>
        <time>2015-12-06T08:52:14.000Z</time>
      </trkpt>
      <trkpt lat="47.49317" lon="6.73737">
        <ele>358</ele>
        <time>2015-12-06T08:52:15.000Z</time>
      </trkpt>
      <trkpt lat="47.49315" lon="6.73732">
        <ele>358</ele>
        <time>2015-12-06T08:52:18.000Z</time>
      </trkpt>
      <trkpt lat="47.49314" lon="6.7373">
        <ele>358</ele>
        <time>2015-12-06T08:52:19.000Z</time>
      </trkpt>
      <trkpt lat="47.4931" lon="6.73728">
        <ele>358</ele>
        <time>2015-12-06T08:52:26.000Z</time>
      </trkpt>
      <trkpt lat="47.4931" lon="6.73727">
        <ele>358</ele>
        <time>2015-12-06T08:52:27.000Z</time>
      </trkpt>
      <trkpt lat="47.49309" lon="6.73722">
        <ele>359</ele>
        <time>2015-12-06T08:52:30.000Z</time>
      </trkpt>
      <trkpt lat="47.49308" lon="6.73718">
        <ele>359</ele>
        <time>2015-12-06T08:52:31.000Z</time>
      </trkpt>
      <trkpt lat="47.49307" lon="6.73713">
        <ele>359</ele>
        <time>2015-12-06T08:52:33.000Z</time>
      </trkpt>
      <trkpt lat="47.49305" lon="6.7371">
        <ele>359</ele>
        <time>2015-12-06T08:52:34.000Z</time>
      </trkpt>
      <trkpt lat="47.49304" lon="6.73703">
        <ele>359</ele>
        <time>2015-12-06T08:52:36.000Z</time>
      </trkpt>
      <trkpt lat="47.49304" lon="6.73701">
        <ele>359</ele>
        <time>2015-12-06T08:52:36.999Z</time>
      </trkpt>
      <trkpt lat="47.49304" lon="6.73697">
        <ele>359</ele>
        <time>2015-12-06T08:52:38.000Z</time>
      </trkpt>
      <trkpt lat="47.49304" lon="6.73694">
        <ele>359</ele>
        <time>2015-12-06T08:52:39.000Z</time>
      </trkpt>
      <trkpt lat="47.49303" lon="6.73688">
        <ele>359</ele>
        <time>2015-12-06T08:52:41.000Z</time>
      </trkpt>
      <trkpt lat="47.49303" lon="6.73684">
        <ele>360</ele>
        <time>2015-12-06T08:52:42.000Z</time>
      </trkpt>
      <trkpt lat="47.49301" lon="6.73679">
        <ele>360</ele>
        <time>2015-12-06T08:52:44.000Z</time>
      </trkpt>
      <trkpt lat="47.49301" lon="6.73677">
        <ele>360</ele>
        <time>2015-12-06T08:52:45.000Z</time>
      </trkpt>
      <trkpt lat="47.493" lon="6.73674">
        <ele>360</ele>
        <time>2015-12-06T08:52:47.000Z</time>
      </trkpt>
      <trkpt lat="47.49299" lon="6.73671">
        <ele>360</ele>
        <time>2015-12-06T08:52:48.000Z</time>
      </trkpt>
      <trkpt lat="47.49298" lon="6.73668">
        <ele>360</ele>
        <time>2015-12-06T08:52:49.000Z</time>
      </trkpt>
      <trkpt lat="47.49298" lon="6.73664">
        <ele>361</ele>
        <time>2015-12-06T08:52:50.000Z</time>
      </trkpt>
      <trkpt lat="47.49297" lon="6.73658">
        <ele>361</ele>
        <time>2015-12-06T08:52:52.000Z</time>
      </trkpt>
      <trkpt lat="47.49296" lon="6.73657">
        <ele>361</ele>
        <time>2015-12-06T08:52:53.000Z</time>
      </trkpt>
      <trkpt lat="47.49295" lon="6.73651">
        <ele>361</ele>
        <time>2015-12-06T08:52:55.000Z</time>
      </trkpt>
      <trkpt lat="47.49295" lon="6.73648">
        <ele>361</ele>
        <time>2015-12-06T08:52:56.000Z</time>
      </trkpt>
      <trkpt lat="47.49294" lon="6.73642">
        <ele>362</ele>
        <time>2015-12-06T08:52:57.000Z</time>
      </trkpt>
      <trkpt lat="47.49293" lon="6.73637">
        <ele>362</ele>
        <time>2015-12-06T08:52:58.000Z</time>
      </trkpt>
      <trkpt lat="47.49291" lon="6.73634">
        <ele>362</ele>
        <time>2015-12-06T08:52:59.000Z</time>
      </trkpt>
      <trkpt lat="47.4929" lon="6.73631">
        <ele>362</ele>
        <time>2015-12-06T08:52:59.999Z</time>
      </trkpt>
      <trkpt lat="47.49287" lon="6.73628">
        <ele>362</ele>
        <time>2015-12-06T08:53:01.998Z</time>
      </trkpt>
      <trkpt lat="47.49285" lon="6.73629">
        <ele>362</ele>
        <time>2015-12-06T08:53:03.000Z</time>
      </trkpt>
      <trkpt lat="47.49281" lon="6.7363">
        <ele>362</ele>
        <time>2015-12-06T08:53:05.000Z</time>
      </trkpt>
      <trkpt lat="47.49279" lon="6.73631">
        <ele>362</ele>
        <time>2015-12-06T08:53:06.000Z</time>
      </trkpt>
      <trkpt lat="47.49276" lon="6.73633">
        <ele>363</ele>
        <time>2015-12-06T08:53:08.000Z</time>
      </trkpt>
      <trkpt lat="47.49275" lon="6.73634">
        <ele>363</ele>
        <time>2015-12-06T08:53:09.001Z</time>
      </trkpt>
      <trkpt lat="47.49271" lon="6.73636">
        <ele>363</ele>
        <time>2015-12-06T08:53:12.000Z</time>
      </trkpt>
      <trkpt lat="47.49269" lon="6.73636">
        <ele>363</ele>
        <time>2015-12-06T08:53:13.000Z</time>
      </trkpt>
      <trkpt lat="47.49265" lon="6.73635">
        <ele>363</ele>
        <time>2015-12-06T08:53:20.000Z</time>
      </trkpt>
      <trkpt lat="47.49263" lon="6.73634">
        <ele>363</ele>
        <time>2015-12-06T08:53:21.000Z</time>
      </trkpt>
      <trkpt lat="47.49259" lon="6.73633">
        <ele>363</ele>
        <time>2015-12-06T08:53:23.000Z</time>
      </trkpt>
      <trkpt lat="47.49257" lon="6.73631">
        <ele>363</ele>
        <time>2015-12-06T08:53:24.000Z</time>
      </trkpt>
      <trkpt lat="47.49253" lon="6.7363">
        <ele>363</ele>
        <time>2015-12-06T08:53:27.000Z</time>
      </trkpt>
      <trkpt lat="47.49251" lon="6.73629">
        <ele>363</ele>
        <time>2015-12-06T08:53:28.000Z</time>
      </trkpt>
      <trkpt lat="47.49248" lon="6.73628">
        <ele>368</ele>
        <time>2015-12-06T08:53:30.000Z</time>
      </trkpt>
      <trkpt lat="47.49246" lon="6.73627">
        <ele>368</ele>
        <time>2015-12-06T08:53:31.000Z</time>
      </trkpt>
      <trkpt lat="47.49243" lon="6.73627">
        <ele>369</ele>
        <time>2015-12-06T08:53:33.000Z</time>
      </trkpt>
      <trkpt lat="47.49241" lon="6.73627">
        <ele>369</ele>
        <time>2015-12-06T08:53:34.000Z</time>
      </trkpt>
      <trkpt lat="47.49237" lon="6.73625">
        <ele>369</ele>
        <time>2015-12-06T08:53:37.000Z</time>
      </trkpt>
      <trkpt lat="47.49236" lon="6.73624">
        <ele>369</ele>
        <time>2015-12-06T08:53:38.000Z</time>
      </trkpt>
      <trkpt lat="47.49233" lon="6.73621">
        <ele>369</ele>
        <time>2015-12-06T08:53:41.000Z</time>
      </trkpt>
      <trkpt lat="47.49232" lon="6.7362">
        <ele>369</ele>
        <time>2015-12-06T08:53:42.000Z</time>
      </trkpt>
      <trkpt lat="47.49228" lon="6.73617">
        <ele>369</ele>
        <time>2015-12-06T08:53:46.998Z</time>
      </trkpt>
      <trkpt lat="47.49227" lon="6.73616">
        <ele>369</ele>
        <time>2015-12-06T08:53:48.000Z</time>
      </trkpt>
      <trkpt lat="47.49223" lon="6.73614">
        <ele>369</ele>
        <time>2015-12-06T08:53:51.000Z</time>
      </trkpt>
      <trkpt lat="47.49222" lon="6.73613">
        <ele>369</ele>
        <time>2015-12-06T08:53:52.000Z</time>
      </trkpt>
      <trkpt lat="47.49218" lon="6.73613">
        <ele>370</ele>
        <time>2015-12-06T08:53:56.000Z</time>
      </trkpt>
      <trkpt lat="47.49217" lon="6.73612">
        <ele>370</ele>
        <time>2015-12-06T08:53:57.000Z</time>
      </trkpt>
      <trkpt lat="47.49215" lon="6.73607">
        <ele>370</ele>
        <time>2015-12-06T08:54:00.000Z</time>
      </trkpt>
      <trkpt lat="47.49214" lon="6.73606">
        <ele>370</ele>
        <time>2015-12-06T08:54:01.000Z</time>
      </trkpt>
      <trkpt lat="47.49211" lon="6.73602">
        <ele>370</ele>
        <time>2015-12-06T08:54:03.000Z</time>
      </trkpt>
      <trkpt lat="47.4921" lon="6.736">
        <ele>370</ele>
        <time>2015-12-06T08:54:04.000Z</time>
      </trkpt>
      <trkpt lat="47.49207" lon="6.73597">
        <ele>371</ele>
        <time>2015-12-06T08:54:07.000Z</time>
      </trkpt>
      <trkpt lat="47.49207" lon="6.73595">
        <ele>371</ele>
        <time>2015-12-06T08:54:08.000Z</time>
      </trkpt>
      <trkpt lat="47.49205" lon="6.73589">
        <ele>371</ele>
        <time>2015-12-06T08:54:11.000Z</time>
      </trkpt>
      <trkpt lat="47.49204" lon="6.73587">
        <ele>371</ele>
        <time>2015-12-06T08:54:12.000Z</time>
      </trkpt>
      <trkpt lat="47.49202" lon="6.73583">
        <ele>374</ele>
        <time>2015-12-06T08:54:17.000Z</time>
      </trkpt>
      <trkpt lat="47.49201" lon="6.73581">
        <ele>374</ele>
        <time>2015-12-06T08:54:18.000Z</time>
      </trkpt>
      <trkpt lat="47.49199" lon="6.73577">
        <ele>374</ele>
        <time>2015-12-06T08:54:22.000Z</time>
      </trkpt>
      <trkpt lat="47.49198" lon="6.73576">
        <ele>374</ele>
        <time>2015-12-06T08:54:23.000Z</time>
      </trkpt>
      <trkpt lat="47.49193" lon="6.73576">
        <ele>374</ele>
        <time>2015-12-06T08:54:25.999Z</time>
      </trkpt>
      <trkpt lat="47.49191" lon="6.73576">
        <ele>375</ele>
        <time>2015-12-06T08:54:27.000Z</time>
      </trkpt>
      <trkpt lat="47.49187" lon="6.73573">
        <ele>375</ele>
        <time>2015-12-06T08:54:31.000Z</time>
      </trkpt>
      <trkpt lat="47.49187" lon="6.73571">
        <ele>375</ele>
        <time>2015-12-06T08:54:32.000Z</time>
      </trkpt>
      <trkpt lat="47.49186" lon="6.73564">
        <ele>375</ele>
        <time>2015-12-06T08:54:35.000Z</time>
      </trkpt>
      <trkpt lat="47.49186" lon="6.73562">
        <ele>375</ele>
        <time>2015-12-06T08:54:36.000Z</time>
      </trkpt>
      <trkpt lat="47.49187" lon="6.73556">
        <ele>375</ele>
        <time>2015-12-06T08:54:39.000Z</time>
      </trkpt>
      <trkpt lat="47.49188" lon="6.73554">
        <ele>375</ele>
        <time>2015-12-06T08:54:40.000Z</time>
      </trkpt>
      <trkpt lat="47.4919" lon="6.73548">
        <ele>375</ele>
        <time>2015-12-06T08:54:43.000Z</time>
      </trkpt>
      <trkpt lat="47.4919" lon="6.73545">
        <ele>375</ele>
        <time>2015-12-06T08:54:44.000Z</time>
      </trkpt>
      <trkpt lat="47.49192" lon="6.73539">
        <ele>375</ele>
        <time>2015-12-06T08:54:46.000Z</time>
      </trkpt>
      <trkpt lat="47.49193" lon="6.73536">
        <ele>375</ele>
        <time>2015-12-06T08:54:47.000Z</time>
      </trkpt>
      <trkpt lat="47.49193" lon="6.73532">
        <ele>375</ele>
        <time>2015-12-06T08:54:48.000Z</time>
      </trkpt>
      <trkpt lat="47.49193" lon="6.73529">
        <ele>375</ele>
        <time>2015-12-06T08:54:49.000Z</time>
      </trkpt>
      <trkpt lat="47.49193" lon="6.73525">
        <ele>375</ele>
        <time>2015-12-06T08:54:50.000Z</time>
      </trkpt>
      <trkpt lat="47.49193" lon="6.73521">
        <ele>375</ele>
        <time>2015-12-06T08:54:51.000Z</time>
      </trkpt>
      <trkpt lat="47.49192" lon="6.73517">
        <ele>375</ele>
        <time>2015-12-06T08:54:52.000Z</time>
      </trkpt>
      <trkpt lat="47.49192" lon="6.73514">
        <ele>376</ele>
        <time>2015-12-06T08:54:53.000Z</time>
      </trkpt>
      <trkpt lat="47.49191" lon="6.73511">
        <ele>376</ele>
        <time>2015-12-06T08:54:54.000Z</time>
      </trkpt>
      <trkpt lat="47.4919" lon="6.73507">
        <ele>376</ele>
        <time>2015-12-06T08:54:55.000Z</time>
      </trkpt>
      <trkpt lat="47.49189" lon="6.73504">
        <ele>376</ele>
        <time>2015-12-06T08:54:56.000Z</time>
      </trkpt>
      <trkpt lat="47.49188" lon="6.73501">
        <ele>376</ele>
        <time>2015-12-06T08:54:57.000Z</time>
      </trkpt>
      <trkpt lat="47.49186" lon="6.73495">
        <ele>379</ele>
        <time>2015-12-06T08:54:59.000Z</time>
      </trkpt>
      <trkpt lat="47.49186" lon="6.73493">
        <ele>379</ele>
        <time>2015-12-06T08:55:00.000Z</time>
      </trkpt>
      <trkpt lat="47.49185" lon="6.73488">
        <ele>379</ele>
        <time>2015-12-06T08:55:02.000Z</time>
      </trkpt>
      <trkpt lat="47.49185" lon="6.73485">
        <ele>379</ele>
        <time>2015-12-06T08:55:03.000Z</time>
      </trkpt>
      <trkpt lat="47.49186" lon="6.73481">
        <ele>379</ele>
        <time>2015-12-06T08:55:05.000Z</time>
      </trkpt>
      <trkpt lat="47.49186" lon="6.73478">
        <ele>379</ele>
        <time>2015-12-06T08:55:06.000Z</time>
      </trkpt>
      <trkpt lat="47.49185" lon="6.73473">
        <ele>379</ele>
        <time>2015-12-06T08:55:08.000Z</time>
      </trkpt>
      <trkpt lat="47.49184" lon="6.7347">
        <ele>379</ele>
        <time>2015-12-06T08:55:09.000Z</time>
      </trkpt>
      <trkpt lat="47.49182" lon="6.73465">
        <ele>380</ele>
        <time>2015-12-06T08:55:11.000Z</time>
      </trkpt>
      <trkpt lat="47.49181" lon="6.73463">
        <ele>380</ele>
        <time>2015-12-06T08:55:12.000Z</time>
      </trkpt>
      <trkpt lat="47.49179" lon="6.73458">
        <ele>380</ele>
        <time>2015-12-06T08:55:14.000Z</time>
      </trkpt>
      <trkpt lat="47.49177" lon="6.73457">
        <ele>380</ele>
        <time>2015-12-06T08:55:15.000Z</time>
      </trkpt>
      <trkpt lat="47.49175" lon="6.73452">
        <ele>380</ele>
        <time>2015-12-06T08:55:17.000Z</time>
      </trkpt>
      <trkpt lat="47.49174" lon="6.7345">
        <ele>381</ele>
        <time>2015-12-06T08:55:18.000Z</time>
      </trkpt>
      <trkpt lat="47.49172" lon="6.73444">
        <ele>381</ele>
        <time>2015-12-06T08:55:20.000Z</time>
      </trkpt>
      <trkpt lat="47.49171" lon="6.7344">
        <ele>381</ele>
        <time>2015-12-06T08:55:21.000Z</time>
      </trkpt>
      <trkpt lat="47.49169" lon="6.73434">
        <ele>382</ele>
        <time>2015-12-06T08:55:23.000Z</time>
      </trkpt>
      <trkpt lat="47.49168" lon="6.73431">
        <ele>382</ele>
        <time>2015-12-06T08:55:24.000Z</time>
      </trkpt>
      <trkpt lat="47.49167" lon="6.73426">
        <ele>383</ele>
        <time>2015-12-06T08:55:26.000Z</time>
      </trkpt>
      <trkpt lat="47.49166" lon="6.73424">
        <ele>384</ele>
        <time>2015-12-06T08:55:27.000Z</time>
      </trkpt>
      <trkpt lat="47.49164" lon="6.73421">
        <ele>384</ele>
        <time>2015-12-06T08:55:29.000Z</time>
      </trkpt>
      <trkpt lat="47.49163" lon="6.73419">
        <ele>384</ele>
        <time>2015-12-06T08:55:30.000Z</time>
      </trkpt>
      <trkpt lat="47.49161" lon="6.73415">
        <ele>385</ele>
        <time>2015-12-06T08:55:32.000Z</time>
      </trkpt>
      <trkpt lat="47.4916" lon="6.73413">
        <ele>385</ele>
        <time>2015-12-06T08:55:33.000Z</time>
      </trkpt>
      <trkpt lat="47.49157" lon="6.73409">
        <ele>385</ele>
        <time>2015-12-06T08:55:36.000Z</time>
      </trkpt>
      <trkpt lat="47.49156" lon="6.73407">
        <ele>385</ele>
        <time>2015-12-06T08:55:37.000Z</time>
      </trkpt>
      <trkpt lat="47.49154" lon="6.73402">
        <ele>385</ele>
        <time>2015-12-06T08:55:39.000Z</time>
      </trkpt>
      <trkpt lat="47.49153" lon="6.734">
        <ele>385</ele>
        <time>2015-12-06T08:55:40.000Z</time>
      </trkpt>
      <trkpt lat="47.4915" lon="6.73398">
        <ele>386</ele>
        <time>2015-12-06T08:55:42.000Z</time>
      </trkpt>
      <trkpt lat="47.49149" lon="6.73396">
        <ele>386</ele>
        <time>2015-12-06T08:55:43.000Z</time>
      </trkpt>
      <trkpt lat="47.49144" lon="6.73394">
        <ele>386</ele>
        <time>2015-12-06T08:55:45.000Z</time>
      </trkpt>
      <trkpt lat="47.49143" lon="6.73394">
        <ele>386</ele>
        <time>2015-12-06T08:55:46.000Z</time>
      </trkpt>
      <trkpt lat="47.49138" lon="6.73394">
        <ele>386</ele>
        <time>2015-12-06T08:55:51.000Z</time>
      </trkpt>
      <trkpt lat="47.49137" lon="6.73394">
        <ele>386</ele>
        <time>2015-12-06T08:55:52.000Z</time>
      </trkpt>
      <trkpt lat="47.49133" lon="6.73392">
        <ele>386</ele>
        <time>2015-12-06T08:55:58.000Z</time>
      </trkpt>
      <trkpt lat="47.49132" lon="6.73393">
        <ele>386</ele>
        <time>2015-12-06T08:55:59.000Z</time>
      </trkpt>
      <trkpt lat="47.49129" lon="6.73393">
        <ele>386</ele>
        <time>2015-12-06T08:56:00.999Z</time>
      </trkpt>
      <trkpt lat="47.49127" lon="6.73394">
        <ele>386</ele>
        <time>2015-12-06T08:56:02.000Z</time>
      </trkpt>
      <trkpt lat="47.49123" lon="6.73394">
        <ele>386</ele>
        <time>2015-12-06T08:56:04.000Z</time>
      </trkpt>
      <trkpt lat="47.49121" lon="6.73393">
        <ele>386</ele>
        <time>2015-12-06T08:56:05.000Z</time>
      </trkpt>
      <trkpt lat="47.49118" lon="6.73391">
        <ele>386</ele>
        <time>2015-12-06T08:56:07.000Z</time>
      </trkpt>
      <trkpt lat="47.49116" lon="6.7339">
        <ele>386</ele>
        <time>2015-12-06T08:56:08.000Z</time>
      </trkpt>
      <trkpt lat="47.49112" lon="6.73389">
        <ele>387</ele>
        <time>2015-12-06T08:56:10.000Z</time>
      </trkpt>
      <trkpt lat="47.4911" lon="6.73388">
        <ele>387</ele>
        <time>2015-12-06T08:56:11.000Z</time>
      </trkpt>
      <trkpt lat="47.49106" lon="6.73387">
        <ele>387</ele>
        <time>2015-12-06T08:56:13.000Z</time>
      </trkpt>
      <trkpt lat="47.49105" lon="6.73386">
        <ele>387</ele>
        <time>2015-12-06T08:56:14.000Z</time>
      </trkpt>
      <trkpt lat="47.49102" lon="6.73383">
        <ele>387</ele>
        <time>2015-12-06T08:56:16.000Z</time>
      </trkpt>
      <trkpt lat="47.49101" lon="6.7338">
        <ele>387</ele>
        <time>2015-12-06T08:56:17.000Z</time>
      </trkpt>
      <trkpt lat="47.49098" lon="6.73376">
        <ele>387</ele>
        <time>2015-12-06T08:56:18.999Z</time>
      </trkpt>
      <trkpt lat="47.49097" lon="6.73372">
        <ele>387</ele>
        <time>2015-12-06T08:56:20.000Z</time>
      </trkpt>
      <trkpt lat="47.49096" lon="6.73368">
        <ele>387</ele>
        <time>2015-12-06T08:56:21.000Z</time>
      </trkpt>
      <trkpt lat="47.49096" lon="6.73364">
        <ele>387</ele>
        <time>2015-12-06T08:56:22.000Z</time>
      </trkpt>
      <trkpt lat="47.49096" lon="6.73362">
        <ele>387</ele>
        <time>2015-12-06T08:56:23.000Z</time>
      </trkpt>
      <trkpt lat="47.49098" lon="6.73357">
        <ele>387</ele>
        <time>2015-12-06T08:56:24.000Z</time>
      </trkpt>
      <trkpt lat="47.49099" lon="6.73353">
        <ele>387</ele>
        <time>2015-12-06T08:56:25.000Z</time>
      </trkpt>
      <trkpt lat="47.49099" lon="6.73349">
        <ele>387</ele>
        <time>2015-12-06T08:56:26.000Z</time>
      </trkpt>
      <trkpt lat="47.491" lon="6.73345">
        <ele>387</ele>
        <time>2015-12-06T08:56:27.000Z</time>
      </trkpt>
      <trkpt lat="47.491" lon="6.73341">
        <ele>387</ele>
        <time>2015-12-06T08:56:28.000Z</time>
      </trkpt>
      <trkpt lat="47.49101" lon="6.73336">
        <ele>387</ele>
        <time>2015-12-06T08:56:29.000Z</time>
      </trkpt>
      <trkpt lat="47.49102" lon="6.73332">
        <ele>388</ele>
        <time>2015-12-06T08:56:30.000Z</time>
      </trkpt>
      <trkpt lat="47.49104" lon="6.73327">
        <ele>388</ele>
        <time>2015-12-06T08:56:31.000Z</time>
      </trkpt>
      <trkpt lat="47.49105" lon="6.73323">
        <ele>388</ele>
        <time>2015-12-06T08:56:32.000Z</time>
      </trkpt>
      <trkpt lat="47.49105" lon="6.73319">
        <ele>388</ele>
        <time>2015-12-06T08:56:33.000Z</time>
      </trkpt>
      <trkpt lat="47.49106" lon="6.73316">
        <ele>388</ele>
        <time>2015-12-06T08:56:34.001Z</time>
      </trkpt>
      <trkpt lat="47.49107" lon="6.7331">
        <ele>389</ele>
        <time>2015-12-06T08:56:36.000Z</time>
      </trkpt>
      <trkpt lat="47.49108" lon="6.73308">
        <ele>389</ele>
        <time>2015-12-06T08:56:37.000Z</time>
      </trkpt>
      <trkpt lat="47.49108" lon="6.73301">
        <ele>389</ele>
        <time>2015-12-06T08:56:39.999Z</time>
      </trkpt>
      <trkpt lat="47.49108" lon="6.733">
        <ele>389</ele>
        <time>2015-12-06T08:56:41.000Z</time>
      </trkpt>
      <trkpt lat="47.4911" lon="6.73296">
        <ele>389</ele>
        <time>2015-12-06T08:56:43.998Z</time>
      </trkpt>
      <trkpt lat="47.4911" lon="6.73294">
        <ele>389</ele>
        <time>2015-12-06T08:56:45.000Z</time>
      </trkpt>
      <trkpt lat="47.49112" lon="6.73289">
        <ele>389</ele>
        <time>2015-12-06T08:56:47.000Z</time>
      </trkpt>
      <trkpt lat="47.49114" lon="6.73286">
        <ele>389</ele>
        <time>2015-12-06T08:56:48.000Z</time>
      </trkpt>
      <trkpt lat="47.49115" lon="6.7328">
        <ele>389</ele>
        <time>2015-12-06T08:56:51.000Z</time>
      </trkpt>
      <trkpt lat="47.49115" lon="6.73278">
        <ele>389</ele>
        <time>2015-12-06T08:56:52.000Z</time>
      </trkpt>
      <trkpt lat="47.49117" lon="6.73273">
        <ele>389</ele>
        <time>2015-12-06T08:56:54.000Z</time>
      </trkpt>
      <trkpt lat="47.49118" lon="6.7327">
        <ele>389</ele>
        <time>2015-12-06T08:56:55.000Z</time>
      </trkpt>
      <trkpt lat="47.4912" lon="6.73264">
        <ele>389</ele>
        <time>2015-12-06T08:56:57.000Z</time>
      </trkpt>
      <trkpt lat="47.49121" lon="6.73262">
        <ele>389</ele>
        <time>2015-12-06T08:56:58.000Z</time>
      </trkpt>
      <trkpt lat="47.49123" lon="6.73257">
        <ele>389</ele>
        <time>2015-12-06T08:57:00.002Z</time>
      </trkpt>
      <trkpt lat="47.49124" lon="6.73254">
        <ele>389</ele>
        <time>2015-12-06T08:57:01.000Z</time>
      </trkpt>
      <trkpt lat="47.49127" lon="6.7325">
        <ele>390</ele>
        <time>2015-12-06T08:57:03.000Z</time>
      </trkpt>
      <trkpt lat="47.49128" lon="6.73249">
        <ele>391</ele>
        <time>2015-12-06T08:57:04.000Z</time>
      </trkpt>
      <trkpt lat="47.4913" lon="6.73244">
        <ele>391</ele>
        <time>2015-12-06T08:57:07.000Z</time>
      </trkpt>
      <trkpt lat="47.49131" lon="6.73243">
        <ele>392</ele>
        <time>2015-12-06T08:57:08.000Z</time>
      </trkpt>
      <trkpt lat="47.49133" lon="6.73239">
        <ele>392</ele>
        <time>2015-12-06T08:57:10.000Z</time>
      </trkpt>
      <trkpt lat="47.49134" lon="6.73237">
        <ele>392</ele>
        <time>2015-12-06T08:57:11.000Z</time>
      </trkpt>
      <trkpt lat="47.49136" lon="6.73232">
        <ele>392</ele>
        <time>2015-12-06T08:57:13.000Z</time>
      </trkpt>
      <trkpt lat="47.49137" lon="6.73229">
        <ele>392</ele>
        <time>2015-12-06T08:57:14.000Z</time>
      </trkpt>
      <trkpt lat="47.49139" lon="6.73227">
        <ele>392</ele>
        <time>2015-12-06T08:57:15.000Z</time>
      </trkpt>
      <trkpt lat="47.4914" lon="6.73224">
        <ele>392</ele>
        <time>2015-12-06T08:57:16.000Z</time>
      </trkpt>
      <trkpt lat="47.49142" lon="6.73221">
        <ele>392</ele>
        <time>2015-12-06T08:57:17.000Z</time>
      </trkpt>
      <trkpt lat="47.49143" lon="6.73219">
        <ele>392</ele>
        <time>2015-12-06T08:57:18.000Z</time>
      </trkpt>
      <trkpt lat="47.49145" lon="6.73213">
        <ele>392</ele>
        <time>2015-12-06T08:57:20.000Z</time>
      </trkpt>
      <trkpt lat="47.49146" lon="6.73211">
        <ele>393</ele>
        <time>2015-12-06T08:57:21.000Z</time>
      </trkpt>
      <trkpt lat="47.49149" lon="6.73207">
        <ele>393</ele>
        <time>2015-12-06T08:57:23.000Z</time>
      </trkpt>
      <trkpt lat="47.4915" lon="6.73204">
        <ele>393</ele>
        <time>2015-12-06T08:57:24.000Z</time>
      </trkpt>
      <trkpt lat="47.49152" lon="6.73201">
        <ele>393</ele>
        <time>2015-12-06T08:57:25.000Z</time>
      </trkpt>
      <trkpt lat="47.49153" lon="6.73199">
        <ele>393</ele>
        <time>2015-12-06T08:57:26.000Z</time>
      </trkpt>
      <trkpt lat="47.49156" lon="6.73195">
        <ele>394</ele>
        <time>2015-12-06T08:57:28.000Z</time>
      </trkpt>
      <trkpt lat="47.49157" lon="6.73192">
        <ele>394</ele>
        <time>2015-12-06T08:57:29.000Z</time>
      </trkpt>
      <trkpt lat="47.49159" lon="6.73187">
        <ele>394</ele>
        <time>2015-12-06T08:57:31.000Z</time>
      </trkpt>
      <trkpt lat="47.4916" lon="6.73186">
        <ele>394</ele>
        <time>2015-12-06T08:57:32.000Z</time>
      </trkpt>
      <trkpt lat="47.49162" lon="6.73181">
        <ele>395</ele>
        <time>2015-12-06T08:57:35.000Z</time>
      </trkpt>
      <trkpt lat="47.49162" lon="6.73179">
        <ele>395</ele>
        <time>2015-12-06T08:57:36.000Z</time>
      </trkpt>
      <trkpt lat="47.49162" lon="6.73174">
        <ele>396</ele>
        <time>2015-12-06T08:57:37.999Z</time>
      </trkpt>
      <trkpt lat="47.49162" lon="6.73169">
        <ele>397</ele>
        <time>2015-12-06T08:57:39.000Z</time>
      </trkpt>
      <trkpt lat="47.49163" lon="6.73163">
        <ele>397</ele>
        <time>2015-12-06T08:57:41.000Z</time>
      </trkpt>
      <trkpt lat="47.49164" lon="6.7316">
        <ele>396</ele>
        <time>2015-12-06T08:57:42.000Z</time>
      </trkpt>
      <trkpt lat="47.49165" lon="6.73157">
        <ele>396</ele>
        <time>2015-12-06T08:57:43.000Z</time>
      </trkpt>
      <trkpt lat="47.49166" lon="6.73153">
        <ele>395</ele>
        <time>2015-12-06T08:57:44.000Z</time>
      </trkpt>
      <trkpt lat="47.49167" lon="6.7315">
        <ele>397</ele>
        <time>2015-12-06T08:57:45.000Z</time>
      </trkpt>
      <trkpt lat="47.49167" lon="6.73146">
        <ele>397</ele>
        <time>2015-12-06T08:57:46.000Z</time>
      </trkpt>
      <trkpt lat="47.49167" lon="6.73141">
        <ele>397</ele>
        <time>2015-12-06T08:57:47.000Z</time>
      </trkpt>
      <trkpt lat="47.49167" lon="6.73138">
        <ele>396</ele>
        <time>2015-12-06T08:57:47.999Z</time>
      </trkpt>
      <trkpt lat="47.49166" lon="6.73134">
        <ele>393</ele>
        <time>2015-12-06T08:57:49.000Z</time>
      </trkpt>
      <trkpt lat="47.49166" lon="6.73131">
        <ele>393</ele>
        <time>2015-12-06T08:57:50.000Z</time>
      </trkpt>
      <trkpt lat="47.49168" lon="6.73125">
        <ele>396</ele>
        <time>2015-12-06T08:57:52.000Z</time>
      </trkpt>
      <trkpt lat="47.4917" lon="6.73123">
        <ele>396</ele>
        <time>2015-12-06T08:57:53.000Z</time>
      </trkpt>
      <trkpt lat="47.49171" lon="6.7312">
        <ele>396</ele>
        <time>2015-12-06T08:57:54.000Z</time>
      </trkpt>
      <trkpt lat="47.49173" lon="6.73117">
        <ele>396</ele>
        <time>2015-12-06T08:57:55.000Z</time>
      </trkpt>
      <trkpt lat="47.49175" lon="6.73114">
        <ele>396</ele>
        <time>2015-12-06T08:57:56.000Z</time>
      </trkpt>
      <trkpt lat="47.49176" lon="6.73111">
        <ele>396</ele>
        <time>2015-12-06T08:57:57.000Z</time>
      </trkpt>
      <trkpt lat="47.49177" lon="6.73107">
        <ele>395</ele>
        <time>2015-12-06T08:57:58.000Z</time>
      </trkpt>
      <trkpt lat="47.49179" lon="6.73103">
        <ele>395</ele>
        <time>2015-12-06T08:57:59.000Z</time>
      </trkpt>
      <trkpt lat="47.49181" lon="6.731">
        <ele>395</ele>
        <time>2015-12-06T08:58:00.000Z</time>
      </trkpt>
      <trkpt lat="47.49182" lon="6.73097">
        <ele>395</ele>
        <time>2015-12-06T08:58:01.000Z</time>
      </trkpt>
      <trkpt lat="47.49185" lon="6.73093">
        <ele>395</ele>
        <time>2015-12-06T08:58:02.000Z</time>
      </trkpt>
      <trkpt lat="47.49186" lon="6.73089">
        <ele>395</ele>
        <time>2015-12-06T08:58:03.000Z</time>
      </trkpt>
      <trkpt lat="47.49186" lon="6.73085">
        <ele>395</ele>
        <time>2015-12-06T08:58:04.000Z</time>
      </trkpt>
      <trkpt lat="47.49187" lon="6.7308">
        <ele>395</ele>
        <time>2015-12-06T08:58:05.000Z</time>
      </trkpt>
      <trkpt lat="47.49187" lon="6.73077">
        <ele>395</ele>
        <time>2015-12-06T08:58:06.000Z</time>
      </trkpt>
      <trkpt lat="47.49188" lon="6.73073">
        <ele>395</ele>
        <time>2015-12-06T08:58:07.000Z</time>
      </trkpt>
      <trkpt lat="47.49188" lon="6.73069">
        <ele>395</ele>
        <time>2015-12-06T08:58:08.000Z</time>
      </trkpt>
      <trkpt lat="47.49189" lon="6.73065">
        <ele>395</ele>
        <time>2015-12-06T08:58:09.000Z</time>
      </trkpt>
      <trkpt lat="47.4919" lon="6.7306">
        <ele>395</ele>
        <time>2015-12-06T08:58:10.000Z</time>
      </trkpt>
      <trkpt lat="47.4919" lon="6.73056">
        <ele>395</ele>
        <time>2015-12-06T08:58:11.000Z</time>
      </trkpt>
      <trkpt lat="47.4919" lon="6.73051">
        <ele>395</ele>
        <time>2015-12-06T08:58:12.000Z</time>
      </trkpt>
      <trkpt lat="47.4919" lon="6.73047">
        <ele>395</ele>
        <time>2015-12-06T08:58:13.000Z</time>
      </trkpt>
      <trkpt lat="47.49189" lon="6.73042">
        <ele>395</ele>
        <time>2015-12-06T08:58:14.000Z</time>
      </trkpt>
      <trkpt lat="47.49189" lon="6.73039">
        <ele>395</ele>
        <time>2015-12-06T08:58:15.000Z</time>
      </trkpt>
      <trkpt lat="47.49188" lon="6.73035">
        <ele>395</ele>
        <time>2015-12-06T08:58:16.000Z</time>
      </trkpt>
      <trkpt lat="47.49188" lon="6.73032">
        <ele>394</ele>
        <time>2015-12-06T08:58:17.000Z</time>
      </trkpt>
      <trkpt lat="47.49189" lon="6.73026">
        <ele>394</ele>
        <time>2015-12-06T08:58:19.000Z</time>
      </trkpt>
      <trkpt lat="47.4919" lon="6.73024">
        <ele>394</ele>
        <time>2015-12-06T08:58:20.000Z</time>
      </trkpt>
      <trkpt lat="47.4919" lon="6.7302">
        <ele>394</ele>
        <time>2015-12-06T08:58:22.000Z</time>
      </trkpt>
      <trkpt lat="47.49191" lon="6.73017">
        <ele>394</ele>
        <time>2015-12-06T08:58:23.000Z</time>
      </trkpt>
      <trkpt lat="47.49192" lon="6.73014">
        <ele>394</ele>
        <time>2015-12-06T08:58:24.000Z</time>
      </trkpt>
      <trkpt lat="47.49194" lon="6.73011">
        <ele>394</ele>
        <time>2015-12-06T08:58:25.000Z</time>
      </trkpt>
      <trkpt lat="47.49195" lon="6.73005">
        <ele>394</ele>
        <time>2015-12-06T08:58:27.000Z</time>
      </trkpt>
      <trkpt lat="47.49195" lon="6.73002">
        <ele>394</ele>
        <time>2015-12-06T08:58:28.000Z</time>
      </trkpt>
      <trkpt lat="47.49195" lon="6.73">
        <ele>394</ele>
        <time>2015-12-06T08:58:29.000Z</time>
      </trkpt>
      <trkpt lat="47.49193" lon="6.72996">
        <ele>394</ele>
        <time>2015-12-06T08:58:30.000Z</time>
      </trkpt>
      <trkpt lat="47.49192" lon="6.72992">
        <ele>394</ele>
        <time>2015-12-06T08:58:31.000Z</time>
      </trkpt>
      <trkpt lat="47.49191" lon="6.72988">
        <ele>394</ele>
        <time>2015-12-06T08:58:31.999Z</time>
      </trkpt>
      <trkpt lat="47.49191" lon="6.72984">
        <ele>394</ele>
        <time>2015-12-06T08:58:33.000Z</time>
      </trkpt>
      <trkpt lat="47.49191" lon="6.7298">
        <ele>394</ele>
        <time>2015-12-06T08:58:34.000Z</time>
      </trkpt>
      <trkpt lat="47.49191" lon="6.72976">
        <ele>394</ele>
        <time>2015-12-06T08:58:35.000Z</time>
      </trkpt>
      <trkpt lat="47.49192" lon="6.72972">
        <ele>394</ele>
        <time>2015-12-06T08:58:36.000Z</time>
      </trkpt>
      <trkpt lat="47.49193" lon="6.72969">
        <ele>394</ele>
        <time>2015-12-06T08:58:37.000Z</time>
      </trkpt>
      <trkpt lat="47.49194" lon="6.72965">
        <ele>395</ele>
        <time>2015-12-06T08:58:38.000Z</time>
      </trkpt>
      <trkpt lat="47.49196" lon="6.72963">
        <ele>395</ele>
        <time>2015-12-06T08:58:39.000Z</time>
      </trkpt>
      <trkpt lat="47.49197" lon="6.7296">
        <ele>395</ele>
        <time>2015-12-06T08:58:40.000Z</time>
      </trkpt>
      <trkpt lat="47.49199" lon="6.72956">
        <ele>395</ele>
        <time>2015-12-06T08:58:42.000Z</time>
      </trkpt>
      <trkpt lat="47.492" lon="6.72954">
        <ele>395</ele>
        <time>2015-12-06T08:58:43.000Z</time>
      </trkpt>
      <trkpt lat="47.49203" lon="6.7295">
        <ele>395</ele>
        <time>2015-12-06T08:58:54.000Z</time>
      </trkpt>
      <trkpt lat="47.49203" lon="6.7295">
        <ele>395</ele>
        <time>2015-12-06T08:58:55.000Z</time>
      </trkpt>
      <trkpt lat="47.49203" lon="6.72946">
        <ele>395</ele>
        <time>2015-12-06T08:59:03.000Z</time>
      </trkpt>
      <trkpt lat="47.49203" lon="6.72943">
        <ele>395</ele>
        <time>2015-12-06T08:59:04.000Z</time>
      </trkpt>
      <trkpt lat="47.49203" lon="6.72937">
        <ele>395</ele>
        <time>2015-12-06T08:59:06.000Z</time>
      </trkpt>
      <trkpt lat="47.49204" lon="6.72933">
        <ele>395</ele>
        <time>2015-12-06T08:59:07.000Z</time>
      </trkpt>
      <trkpt lat="47.49205" lon="6.72929">
        <ele>395</ele>
        <time>2015-12-06T08:59:08.000Z</time>
      </trkpt>
      <trkpt lat="47.49206" lon="6.72925">
        <ele>395</ele>
        <time>2015-12-06T08:59:09.000Z</time>
      </trkpt>
      <trkpt lat="47.49207" lon="6.72922">
        <ele>395</ele>
        <time>2015-12-06T08:59:10.000Z</time>
      </trkpt>
      <trkpt lat="47.49209" lon="6.72918">
        <ele>395</ele>
        <time>2015-12-06T08:59:11.000Z</time>
      </trkpt>
      <trkpt lat="47.49211" lon="6.72915">
        <ele>395</ele>
        <time>2015-12-06T08:59:12.000Z</time>
      </trkpt>
      <trkpt lat="47.49213" lon="6.72912">
        <ele>395</ele>
        <time>2015-12-06T08:59:13.000Z</time>
      </trkpt>
      <trkpt lat="47.49214" lon="6.72909">
        <ele>395</ele>
        <time>2015-12-06T08:59:14.000Z</time>
      </trkpt>
      <trkpt lat="47.49217" lon="6.72906">
        <ele>396</ele>
        <time>2015-12-06T08:59:15.000Z</time>
      </trkpt>
      <trkpt lat="47.49219" lon="6.72903">
        <ele>396</ele>
        <time>2015-12-06T08:59:16.000Z</time>
      </trkpt>
      <trkpt lat="47.49221" lon="6.729">
        <ele>396</ele>
        <time>2015-12-06T08:59:17.000Z</time>
      </trkpt>
      <trkpt lat="47.49223" lon="6.72897">
        <ele>396</ele>
        <time>2015-12-06T08:59:18.000Z</time>
      </trkpt>
      <trkpt lat="47.49225" lon="6.72894">
        <ele>396</ele>
        <time>2015-12-06T08:59:19.000Z</time>
      </trkpt>
      <trkpt lat="47.49226" lon="6.72891">
        <ele>396</ele>
        <time>2015-12-06T08:59:20.000Z</time>
      </trkpt>
      <trkpt lat="47.49228" lon="6.72888">
        <ele>396</ele>
        <time>2015-12-06T08:59:21.000Z</time>
      </trkpt>
      <trkpt lat="47.4923" lon="6.72884">
        <ele>396</ele>
        <time>2015-12-06T08:59:22.000Z</time>
      </trkpt>
      <trkpt lat="47.49232" lon="6.7288">
        <ele>396</ele>
        <time>2015-12-06T08:59:23.000Z</time>
      </trkpt>
      <trkpt lat="47.49234" lon="6.72876">
        <ele>396</ele>
        <time>2015-12-06T08:59:23.999Z</time>
      </trkpt>
      <trkpt lat="47.4924" lon="6.72872">
        <ele>396</ele>
        <time>2015-12-06T08:59:25.000Z</time>
      </trkpt>
      <trkpt lat="47.49244" lon="6.72869">
        <ele>396</ele>
        <time>2015-12-06T08:59:26.000Z</time>
      </trkpt>
      <trkpt lat="47.49248" lon="6.72866">
        <ele>396</ele>
        <time>2015-12-06T08:59:27.000Z</time>
      </trkpt>
      <trkpt lat="47.49251" lon="6.72864">
        <ele>397</ele>
        <time>2015-12-06T08:59:28.000Z</time>
      </trkpt>
      <trkpt lat="47.49255" lon="6.7286">
        <ele>397</ele>
        <time>2015-12-06T08:59:29.000Z</time>
      </trkpt>
      <trkpt lat="47.49259" lon="6.72857">
        <ele>397</ele>
        <time>2015-12-06T08:59:30.002Z</time>
      </trkpt>
      <trkpt lat="47.49262" lon="6.72853">
        <ele>397</ele>
        <time>2015-12-06T08:59:31.000Z</time>
      </trkpt>
      <trkpt lat="47.49265" lon="6.72849">
        <ele>397</ele>
        <time>2015-12-06T08:59:32.000Z</time>
      </trkpt>
      <trkpt lat="47.49269" lon="6.72845">
        <ele>397</ele>
        <time>2015-12-06T08:59:33.000Z</time>
      </trkpt>
      <trkpt lat="47.4927" lon="6.72842">
        <ele>397</ele>
        <time>2015-12-06T08:59:34.000Z</time>
      </trkpt>
      <trkpt lat="47.49272" lon="6.72838">
        <ele>397</ele>
        <time>2015-12-06T08:59:35.000Z</time>
      </trkpt>
      <trkpt lat="47.49274" lon="6.72834">
        <ele>397</ele>
        <time>2015-12-06T08:59:36.000Z</time>
      </trkpt>
      <trkpt lat="47.49275" lon="6.7283">
        <ele>398</ele>
        <time>2015-12-06T08:59:37.000Z</time>
      </trkpt>
      <trkpt lat="47.49277" lon="6.72826">
        <ele>398</ele>
        <time>2015-12-06T08:59:38.000Z</time>
      </trkpt>
      <trkpt lat="47.49278" lon="6.72822">
        <ele>398</ele>
        <time>2015-12-06T08:59:39.000Z</time>
      </trkpt>
      <trkpt lat="47.4928" lon="6.72818">
        <ele>398</ele>
        <time>2015-12-06T08:59:41.000Z</time>
      </trkpt>
      <trkpt lat="47.49281" lon="6.72815">
        <ele>398</ele>
        <time>2015-12-06T08:59:42.000Z</time>
      </trkpt>
      <trkpt lat="47.49283" lon="6.72812">
        <ele>397</ele>
        <time>2015-12-06T08:59:43.000Z</time>
      </trkpt>
      <trkpt lat="47.49284" lon="6.72809">
        <ele>397</ele>
        <time>2015-12-06T08:59:44.000Z</time>
      </trkpt>
      <trkpt lat="47.49285" lon="6.72805">
        <ele>397</ele>
        <time>2015-12-06T08:59:45.000Z</time>
      </trkpt>
      <trkpt lat="47.49286" lon="6.72802">
        <ele>397</ele>
        <time>2015-12-06T08:59:46.000Z</time>
      </trkpt>
      <trkpt lat="47.49287" lon="6.72799">
        <ele>397</ele>
        <time>2015-12-06T08:59:47.000Z</time>
      </trkpt>
      <trkpt lat="47.49288" lon="6.72795">
        <ele>397</ele>
        <time>2015-12-06T08:59:48.000Z</time>
      </trkpt>
      <trkpt lat="47.4929" lon="6.72792">
        <ele>398</ele>
        <time>2015-12-06T08:59:49.000Z</time>
      </trkpt>
      <trkpt lat="47.4929" lon="6.72789">
        <ele>398</ele>
        <time>2015-12-06T08:59:50.000Z</time>
      </trkpt>
      <trkpt lat="47.49291" lon="6.72785">
        <ele>398</ele>
        <time>2015-12-06T08:59:51.000Z</time>
      </trkpt>
      <trkpt lat="47.49292" lon="6.72781">
        <ele>398</ele>
        <time>2015-12-06T08:59:52.000Z</time>
      </trkpt>
      <trkpt lat="47.49292" lon="6.72776">
        <ele>398</ele>
        <time>2015-12-06T08:59:53.000Z</time>
      </trkpt>
      <trkpt lat="47.49292" lon="6.72772">
        <ele>398</ele>
        <time>2015-12-06T08:59:54.000Z</time>
      </trkpt>
      <trkpt lat="47.49293" lon="6.72768">
        <ele>398</ele>
        <time>2015-12-06T08:59:55.000Z</time>
      </trkpt>
      <trkpt lat="47.49294" lon="6.72764">
        <ele>398</ele>
        <time>2015-12-06T08:59:56.000Z</time>
      </trkpt>
      <trkpt lat="47.49294" lon="6.72758">
        <ele>398</ele>
        <time>2015-12-06T08:59:57.000Z</time>
      </trkpt>
      <trkpt lat="47.49295" lon="6.72753">
        <ele>398</ele>
        <time>2015-12-06T08:59:58.000Z</time>
      </trkpt>
      <trkpt lat="47.49296" lon="6.72747">
        <ele>399</ele>
        <time>2015-12-06T08:59:59.000Z</time>
      </trkpt>
      <trkpt lat="47.49296" lon="6.72742">
        <ele>399</ele>
        <time>2015-12-06T09:00:00.000Z</time>
      </trkpt>
      <trkpt lat="47.49297" lon="6.72738">
        <ele>399</ele>
        <time>2015-12-06T09:00:01.000Z</time>
      </trkpt>
      <trkpt lat="47.49298" lon="6.72734">
        <ele>399</ele>
        <time>2015-12-06T09:00:02.000Z</time>
      </trkpt>
      <trkpt lat="47.49299" lon="6.7273">
        <ele>399</ele>
        <time>2015-12-06T09:00:03.000Z</time>
      </trkpt>
      <trkpt lat="47.493" lon="6.72728">
        <ele>399</ele>
        <time>2015-12-06T09:00:04.000Z</time>
      </trkpt>
      <trkpt lat="47.49302" lon="6.72724">
        <ele>399</ele>
        <time>2015-12-06T09:00:06.001Z</time>
      </trkpt>
      <trkpt lat="47.49299" lon="6.72715">
        <ele>399</ele>
        <time>2015-12-06T09:00:07.000Z</time>
      </trkpt>
      <trkpt lat="47.49299" lon="6.72709">
        <ele>399</ele>
        <time>2015-12-06T09:00:08.000Z</time>
      </trkpt>
      <trkpt lat="47.493" lon="6.72706">
        <ele>399</ele>
        <time>2015-12-06T09:00:09.000Z</time>
      </trkpt>
      <trkpt lat="47.49301" lon="6.72704">
        <ele>399</ele>
        <time>2015-12-06T09:00:10.000Z</time>
      </trkpt>
      <trkpt lat="47.49303" lon="6.727">
        <ele>400</ele>
        <time>2015-12-06T09:00:11.000Z</time>
      </trkpt>
      <trkpt lat="47.49303" lon="6.72694">
        <ele>400</ele>
        <time>2015-12-06T09:00:13.000Z</time>
      </trkpt>
      <trkpt lat="47.49302" lon="6.7269">
        <ele>400</ele>
        <time>2015-12-06T09:00:14.000Z</time>
      </trkpt>
      <trkpt lat="47.49302" lon="6.72687">
        <ele>400</ele>
        <time>2015-12-06T09:00:15.000Z</time>
      </trkpt>
      <trkpt lat="47.49302" lon="6.72683">
        <ele>400</ele>
        <time>2015-12-06T09:00:16.000Z</time>
      </trkpt>
      <trkpt lat="47.49302" lon="6.72679">
        <ele>400</ele>
        <time>2015-12-06T09:00:17.000Z</time>
      </trkpt>
      <trkpt lat="47.49302" lon="6.72676">
        <ele>400</ele>
        <time>2015-12-06T09:00:18.000Z</time>
      </trkpt>
      <trkpt lat="47.49302" lon="6.72673">
        <ele>400</ele>
        <time>2015-12-06T09:00:19.000Z</time>
      </trkpt>
      <trkpt lat="47.49303" lon="6.72669">
        <ele>400</ele>
        <time>2015-12-06T09:00:20.000Z</time>
      </trkpt>
      <trkpt lat="47.49303" lon="6.72666">
        <ele>401</ele>
        <time>2015-12-06T09:00:21.000Z</time>
      </trkpt>
      <trkpt lat="47.49305" lon="6.72662">
        <ele>402</ele>
        <time>2015-12-06T09:00:22.000Z</time>
      </trkpt>
      <trkpt lat="47.49306" lon="6.72658">
        <ele>402</ele>
        <time>2015-12-06T09:00:23.000Z</time>
      </trkpt>
      <trkpt lat="47.49308" lon="6.72654">
        <ele>402</ele>
        <time>2015-12-06T09:00:24.000Z</time>
      </trkpt>
      <trkpt lat="47.49309" lon="6.7265">
        <ele>402</ele>
        <time>2015-12-06T09:00:25.000Z</time>
      </trkpt>
      <trkpt lat="47.49309" lon="6.72646">
        <ele>402</ele>
        <time>2015-12-06T09:00:26.000Z</time>
      </trkpt>
      <trkpt lat="47.4931" lon="6.72642">
        <ele>402</ele>
        <time>2015-12-06T09:00:27.000Z</time>
      </trkpt>
      <trkpt lat="47.4931" lon="6.72638">
        <ele>402</ele>
        <time>2015-12-06T09:00:28.001Z</time>
      </trkpt>
      <trkpt lat="47.4931" lon="6.72632">
        <ele>402</ele>
        <time>2015-12-06T09:00:29.000Z</time>
      </trkpt>
      <trkpt lat="47.4931" lon="6.72628">
        <ele>402</ele>
        <time>2015-12-06T09:00:30.000Z</time>
      </trkpt>
      <trkpt lat="47.49311" lon="6.72623">
        <ele>402</ele>
        <time>2015-12-06T09:00:31.000Z</time>
      </trkpt>
      <trkpt lat="47.49311" lon="6.72617">
        <ele>402</ele>
        <time>2015-12-06T09:00:32.000Z</time>
      </trkpt>
      <trkpt lat="47.49312" lon="6.72613">
        <ele>402</ele>
        <time>2015-12-06T09:00:33.000Z</time>
      </trkpt>
      <trkpt lat="47.49312" lon="6.72609">
        <ele>403</ele>
        <time>2015-12-06T09:00:34.000Z</time>
      </trkpt>
      <trkpt lat="47.49312" lon="6.72604">
        <ele>403</ele>
        <time>2015-12-06T09:00:35.000Z</time>
      </trkpt>
      <trkpt lat="47.49313" lon="6.726">
        <ele>403</ele>
        <time>2015-12-06T09:00:36.000Z</time>
      </trkpt>
      <trkpt lat="47.49314" lon="6.72596">
        <ele>403</ele>
        <time>2015-12-06T09:00:37.000Z</time>
      </trkpt>
      <trkpt lat="47.49315" lon="6.72592">
        <ele>403</ele>
        <time>2015-12-06T09:00:38.000Z</time>
      </trkpt>
      <trkpt lat="47.49316" lon="6.72586">
        <ele>404</ele>
        <time>2015-12-06T09:00:40.000Z</time>
      </trkpt>
      <trkpt lat="47.49317" lon="6.72584">
        <ele>404</ele>
        <time>2015-12-06T09:00:41.000Z</time>
      </trkpt>
      <trkpt lat="47.49318" lon="6.72581">
        <ele>405</ele>
        <time>2015-12-06T09:00:42.000Z</time>
      </trkpt>
      <trkpt lat="47.49319" lon="6.72577">
        <ele>405</ele>
        <time>2015-12-06T09:00:43.000Z</time>
      </trkpt>
      <trkpt lat="47.4932" lon="6.72574">
        <ele>405</ele>
        <time>2015-12-06T09:00:44.000Z</time>
      </trkpt>
      <trkpt lat="47.49321" lon="6.7257">
        <ele>405</ele>
        <time>2015-12-06T09:00:45.000Z</time>
      </trkpt>
      <trkpt lat="47.49323" lon="6.72564">
        <ele>405</ele>
        <time>2015-12-06T09:00:46.998Z</time>
      </trkpt>
      <trkpt lat="47.49324" lon="6.72561">
        <ele>406</ele>
        <time>2015-12-06T09:00:48.000Z</time>
      </trkpt>
      <trkpt lat="47.49325" lon="6.72558">
        <ele>406</ele>
        <time>2015-12-06T09:00:49.000Z</time>
      </trkpt>
      <trkpt lat="47.49326" lon="6.72554">
        <ele>406</ele>
        <time>2015-12-06T09:00:50.000Z</time>
      </trkpt>
      <trkpt lat="47.49327" lon="6.72548">
        <ele>406</ele>
        <time>2015-12-06T09:00:52.000Z</time>
      </trkpt>
      <trkpt lat="47.49327" lon="6.72546">
        <ele>406</ele>
        <time>2015-12-06T09:00:53.000Z</time>
      </trkpt>
      <trkpt lat="47.49328" lon="6.72541">
        <ele>406</ele>
        <time>2015-12-06T09:00:55.000Z</time>
      </trkpt>
      <trkpt lat="47.49328" lon="6.72538">
        <ele>406</ele>
        <time>2015-12-06T09:00:56.000Z</time>
      </trkpt>
      <trkpt lat="47.49328" lon="6.72533">
        <ele>406</ele>
        <time>2015-12-06T09:00:58.000Z</time>
      </trkpt>
      <trkpt lat="47.49328" lon="6.7253">
        <ele>406</ele>
        <time>2015-12-06T09:00:59.000Z</time>
      </trkpt>
      <trkpt lat="47.49329" lon="6.72526">
        <ele>407</ele>
        <time>2015-12-06T09:01:00.000Z</time>
      </trkpt>
      <trkpt lat="47.49329" lon="6.72522">
        <ele>407</ele>
        <time>2015-12-06T09:01:01.000Z</time>
      </trkpt>
      <trkpt lat="47.4933" lon="6.72519">
        <ele>407</ele>
        <time>2015-12-06T09:01:02.000Z</time>
      </trkpt>
      <trkpt lat="47.4933" lon="6.72515">
        <ele>407</ele>
        <time>2015-12-06T09:01:03.000Z</time>
      </trkpt>
      <trkpt lat="47.4933" lon="6.72511">
        <ele>408</ele>
        <time>2015-12-06T09:01:04.000Z</time>
      </trkpt>
      <trkpt lat="47.4933" lon="6.72507">
        <ele>408</ele>
        <time>2015-12-06T09:01:05.000Z</time>
      </trkpt>
      <trkpt lat="47.49331" lon="6.72503">
        <ele>408</ele>
        <time>2015-12-06T09:01:06.000Z</time>
      </trkpt>
      <trkpt lat="47.49331" lon="6.72499">
        <ele>409</ele>
        <time>2015-12-06T09:01:07.000Z</time>
      </trkpt>
      <trkpt lat="47.49332" lon="6.72495">
        <ele>409</ele>
        <time>2015-12-06T09:01:08.000Z</time>
      </trkpt>
      <trkpt lat="47.49332" lon="6.72491">
        <ele>409</ele>
        <time>2015-12-06T09:01:09.000Z</time>
      </trkpt>
      <trkpt lat="47.49333" lon="6.72487">
        <ele>409</ele>
        <time>2015-12-06T09:01:10.000Z</time>
      </trkpt>
      <trkpt lat="47.49333" lon="6.72484">
        <ele>409</ele>
        <time>2015-12-06T09:01:11.000Z</time>
      </trkpt>
      <trkpt lat="47.49334" lon="6.72478">
        <ele>408</ele>
        <time>2015-12-06T09:01:13.000Z</time>
      </trkpt>
      <trkpt lat="47.49334" lon="6.72474">
        <ele>408</ele>
        <time>2015-12-06T09:01:14.000Z</time>
      </trkpt>
      <trkpt lat="47.49334" lon="6.7247">
        <ele>408</ele>
        <time>2015-12-06T09:01:15.000Z</time>
      </trkpt>
      <trkpt lat="47.49333" lon="6.72466">
        <ele>408</ele>
        <time>2015-12-06T09:01:16.000Z</time>
      </trkpt>
      <trkpt lat="47.49333" lon="6.72461">
        <ele>409</ele>
        <time>2015-12-06T09:01:17.000Z</time>
      </trkpt>
      <trkpt lat="47.49332" lon="6.72457">
        <ele>409</ele>
        <time>2015-12-06T09:01:18.000Z</time>
      </trkpt>
      <trkpt lat="47.49331" lon="6.72453">
        <ele>409</ele>
        <time>2015-12-06T09:01:20.000Z</time>
      </trkpt>
      <trkpt lat="47.49329" lon="6.72451">
        <ele>409</ele>
        <time>2015-12-06T09:01:21.000Z</time>
      </trkpt>
      <trkpt lat="47.49325" lon="6.72448">
        <ele>409</ele>
        <time>2015-12-06T09:01:23.000Z</time>
      </trkpt>
      <trkpt lat="47.49323" lon="6.72446">
        <ele>409</ele>
        <time>2015-12-06T09:01:24.000Z</time>
      </trkpt>
      <trkpt lat="47.49321" lon="6.72442">
        <ele>409</ele>
        <time>2015-12-06T09:01:26.000Z</time>
      </trkpt>
      <trkpt lat="47.49319" lon="6.7244">
        <ele>409</ele>
        <time>2015-12-06T09:01:27.001Z</time>
      </trkpt>
      <trkpt lat="47.4932" lon="6.72434">
        <ele>410</ele>
        <time>2015-12-06T09:01:29.000Z</time>
      </trkpt>
      <trkpt lat="47.49319" lon="6.72431">
        <ele>410</ele>
        <time>2015-12-06T09:01:30.001Z</time>
      </trkpt>
      <trkpt lat="47.4932" lon="6.72425">
        <ele>410</ele>
        <time>2015-12-06T09:01:31.000Z</time>
      </trkpt>
      <trkpt lat="47.4932" lon="6.7242">
        <ele>410</ele>
        <time>2015-12-06T09:01:32.000Z</time>
      </trkpt>
      <trkpt lat="47.49321" lon="6.72415">
        <ele>411</ele>
        <time>2015-12-06T09:01:33.000Z</time>
      </trkpt>
      <trkpt lat="47.49321" lon="6.72411">
        <ele>411</ele>
        <time>2015-12-06T09:01:34.001Z</time>
      </trkpt>
      <trkpt lat="47.49322" lon="6.72407">
        <ele>411</ele>
        <time>2015-12-06T09:01:35.000Z</time>
      </trkpt>
      <trkpt lat="47.49322" lon="6.72404">
        <ele>411</ele>
        <time>2015-12-06T09:01:36.000Z</time>
      </trkpt>
      <trkpt lat="47.49323" lon="6.72398">
        <ele>411</ele>
        <time>2015-12-06T09:01:38.000Z</time>
      </trkpt>
      <trkpt lat="47.49324" lon="6.72393">
        <ele>411</ele>
        <time>2015-12-06T09:01:39.000Z</time>
      </trkpt>
      <trkpt lat="47.49323" lon="6.72389">
        <ele>411</ele>
        <time>2015-12-06T09:01:40.000Z</time>
      </trkpt>
      <trkpt lat="47.49324" lon="6.72385">
        <ele>411</ele>
        <time>2015-12-06T09:01:41.000Z</time>
      </trkpt>
      <trkpt lat="47.49324" lon="6.7238">
        <ele>411</ele>
        <time>2015-12-06T09:01:42.000Z</time>
      </trkpt>
      <trkpt lat="47.49324" lon="6.72375">
        <ele>411</ele>
        <time>2015-12-06T09:01:43.000Z</time>
      </trkpt>
      <trkpt lat="47.49325" lon="6.72371">
        <ele>411</ele>
        <time>2015-12-06T09:01:44.000Z</time>
      </trkpt>
      <trkpt lat="47.49325" lon="6.72366">
        <ele>411</ele>
        <time>2015-12-06T09:01:45.000Z</time>
      </trkpt>
      <trkpt lat="47.49326" lon="6.72363">
        <ele>412</ele>
        <time>2015-12-06T09:01:46.000Z</time>
      </trkpt>
      <trkpt lat="47.49326" lon="6.72359">
        <ele>412</ele>
        <time>2015-12-06T09:01:47.000Z</time>
      </trkpt>
      <trkpt lat="47.49326" lon="6.72356">
        <ele>412</ele>
        <time>2015-12-06T09:01:48.000Z</time>
      </trkpt>
      <trkpt lat="47.49326" lon="6.72351">
        <ele>412</ele>
        <time>2015-12-06T09:01:49.000Z</time>
      </trkpt>
      <trkpt lat="47.49326" lon="6.72347">
        <ele>412</ele>
        <time>2015-12-06T09:01:50.000Z</time>
      </trkpt>
      <trkpt lat="47.49326" lon="6.72341">
        <ele>413</ele>
        <time>2015-12-06T09:01:51.000Z</time>
      </trkpt>
      <trkpt lat="47.49327" lon="6.72336">
        <ele>413</ele>
        <time>2015-12-06T09:01:52.000Z</time>
      </trkpt>
      <trkpt lat="47.49328" lon="6.72331">
        <ele>414</ele>
        <time>2015-12-06T09:01:53.000Z</time>
      </trkpt>
      <trkpt lat="47.49329" lon="6.72326">
        <ele>414</ele>
        <time>2015-12-06T09:01:54.000Z</time>
      </trkpt>
      <trkpt lat="47.4933" lon="6.72321">
        <ele>414</ele>
        <time>2015-12-06T09:01:54.999Z</time>
      </trkpt>
      <trkpt lat="47.49331" lon="6.72314">
        <ele>414</ele>
        <time>2015-12-06T09:01:56.000Z</time>
      </trkpt>
      <trkpt lat="47.49332" lon="6.72308">
        <ele>414</ele>
        <time>2015-12-06T09:01:57.000Z</time>
      </trkpt>
      <trkpt lat="47.49333" lon="6.72303">
        <ele>414</ele>
        <time>2015-12-06T09:01:58.000Z</time>
      </trkpt>
      <trkpt lat="47.49334" lon="6.72299">
        <ele>415</ele>
        <time>2015-12-06T09:01:59.000Z</time>
      </trkpt>
      <trkpt lat="47.49335" lon="6.72295">
        <ele>415</ele>
        <time>2015-12-06T09:02:00.000Z</time>
      </trkpt>
      <trkpt lat="47.49336" lon="6.72292">
        <ele>415</ele>
        <time>2015-12-06T09:02:00.999Z</time>
      </trkpt>
      <trkpt lat="47.49336" lon="6.72289">
        <ele>415</ele>
        <time>2015-12-06T09:02:02.000Z</time>
      </trkpt>
      <trkpt lat="47.49336" lon="6.72285">
        <ele>416</ele>
        <time>2015-12-06T09:02:03.000Z</time>
      </trkpt>
      <trkpt lat="47.49337" lon="6.72281">
        <ele>416</ele>
        <time>2015-12-06T09:02:04.000Z</time>
      </trkpt>
      <trkpt lat="47.49337" lon="6.72277">
        <ele>416</ele>
        <time>2015-12-06T09:02:05.000Z</time>
      </trkpt>
      <trkpt lat="47.49338" lon="6.72274">
        <ele>416</ele>
        <time>2015-12-06T09:02:05.999Z</time>
      </trkpt>
      <trkpt lat="47.49339" lon="6.7227">
        <ele>416</ele>
        <time>2015-12-06T09:02:07.000Z</time>
      </trkpt>
      <trkpt lat="47.4934" lon="6.72267">
        <ele>416</ele>
        <time>2015-12-06T09:02:08.000Z</time>
      </trkpt>
      <trkpt lat="47.49342" lon="6.72264">
        <ele>417</ele>
        <time>2015-12-06T09:02:09.000Z</time>
      </trkpt>
      <trkpt lat="47.49344" lon="6.72261">
        <ele>417</ele>
        <time>2015-12-06T09:02:10.000Z</time>
      </trkpt>
      <trkpt lat="47.49346" lon="6.72259">
        <ele>417</ele>
        <time>2015-12-06T09:02:11.000Z</time>
      </trkpt>
      <trkpt lat="47.49348" lon="6.72256">
        <ele>417</ele>
        <time>2015-12-06T09:02:12.000Z</time>
      </trkpt>
      <trkpt lat="47.4935" lon="6.72251">
        <ele>417</ele>
        <time>2015-12-06T09:02:14.000Z</time>
      </trkpt>
      <trkpt lat="47.49349" lon="6.72247">
        <ele>419</ele>
        <time>2015-12-06T09:02:15.000Z</time>
      </trkpt>
      <trkpt lat="47.49349" lon="6.72244">
        <ele>419</ele>
        <time>2015-12-06T09:02:16.000Z</time>
      </trkpt>
      <trkpt lat="47.49349" lon="6.7224">
        <ele>419</ele>
        <time>2015-12-06T09:02:17.000Z</time>
      </trkpt>
      <trkpt lat="47.49349" lon="6.72236">
        <ele>419</ele>
        <time>2015-12-06T09:02:18.000Z</time>
      </trkpt>
      <trkpt lat="47.49349" lon="6.72233">
        <ele>419</ele>
        <time>2015-12-06T09:02:19.000Z</time>
      </trkpt>
      <trkpt lat="47.49349" lon="6.7223">
        <ele>419</ele>
        <time>2015-12-06T09:02:20.001Z</time>
      </trkpt>
      <trkpt lat="47.4935" lon="6.72226">
        <ele>419</ele>
        <time>2015-12-06T09:02:21.000Z</time>
      </trkpt>
      <trkpt lat="47.49351" lon="6.7222">
        <ele>419</ele>
        <time>2015-12-06T09:02:23.000Z</time>
      </trkpt>
      <trkpt lat="47.49352" lon="6.72218">
        <ele>419</ele>
        <time>2015-12-06T09:02:24.000Z</time>
      </trkpt>
      <trkpt lat="47.49352" lon="6.72213">
        <ele>419</ele>
        <time>2015-12-06T09:02:25.000Z</time>
      </trkpt>
      <trkpt lat="47.49352" lon="6.72211">
        <ele>419</ele>
        <time>2015-12-06T09:02:25.999Z</time>
      </trkpt>
      <trkpt lat="47.49352" lon="6.72207">
        <ele>419</ele>
        <time>2015-12-06T09:02:27.000Z</time>
      </trkpt>
      <trkpt lat="47.49352" lon="6.72204">
        <ele>420</ele>
        <time>2015-12-06T09:02:28.000Z</time>
      </trkpt>
      <trkpt lat="47.49353" lon="6.72198">
        <ele>420</ele>
        <time>2015-12-06T09:02:30.000Z</time>
      </trkpt>
      <trkpt lat="47.49354" lon="6.72193">
        <ele>420</ele>
        <time>2015-12-06T09:02:31.000Z</time>
      </trkpt>
      <trkpt lat="47.49354" lon="6.72188">
        <ele>420</ele>
        <time>2015-12-06T09:02:32.000Z</time>
      </trkpt>
      <trkpt lat="47.49354" lon="6.72182">
        <ele>420</ele>
        <time>2015-12-06T09:02:33.000Z</time>
      </trkpt>
      <trkpt lat="47.49354" lon="6.72178">
        <ele>420</ele>
        <time>2015-12-06T09:02:34.000Z</time>
      </trkpt>
      <trkpt lat="47.49354" lon="6.72174">
        <ele>420</ele>
        <time>2015-12-06T09:02:35.000Z</time>
      </trkpt>
      <trkpt lat="47.49356" lon="6.72168">
        <ele>420</ele>
        <time>2015-12-06T09:02:37.000Z</time>
      </trkpt>
      <trkpt lat="47.49357" lon="6.72165">
        <ele>422</ele>
        <time>2015-12-06T09:02:38.000Z</time>
      </trkpt>
      <trkpt lat="47.49357" lon="6.72163">
        <ele>422</ele>
        <time>2015-12-06T09:02:39.000Z</time>
      </trkpt>
      <trkpt lat="47.49359" lon="6.72159">
        <ele>422</ele>
        <time>2015-12-06T09:02:40.000Z</time>
      </trkpt>
      <trkpt lat="47.49361" lon="6.72155">
        <ele>422</ele>
        <time>2015-12-06T09:02:42.000Z</time>
      </trkpt>
      <trkpt lat="47.49362" lon="6.72153">
        <ele>422</ele>
        <time>2015-12-06T09:02:43.000Z</time>
      </trkpt>
      <trkpt lat="47.49362" lon="6.72148">
        <ele>422</ele>
        <time>2015-12-06T09:02:45.000Z</time>
      </trkpt>
      <trkpt lat="47.49362" lon="6.72144">
        <ele>422</ele>
        <time>2015-12-06T09:02:46.000Z</time>
      </trkpt>
      <trkpt lat="47.49363" lon="6.7214">
        <ele>423</ele>
        <time>2015-12-06T09:02:47.000Z</time>
      </trkpt>
      <trkpt lat="47.49362" lon="6.72137">
        <ele>423</ele>
        <time>2015-12-06T09:02:48.000Z</time>
      </trkpt>
      <trkpt lat="47.49362" lon="6.7213">
        <ele>423</ele>
        <time>2015-12-06T09:02:50.000Z</time>
      </trkpt>
      <trkpt lat="47.49363" lon="6.72127">
        <ele>423</ele>
        <time>2015-12-06T09:02:51.000Z</time>
      </trkpt>
      <trkpt lat="47.49364" lon="6.72121">
        <ele>423</ele>
        <time>2015-12-06T09:02:53.000Z</time>
      </trkpt>
      <trkpt lat="47.49364" lon="6.72119">
        <ele>423</ele>
        <time>2015-12-06T09:02:54.000Z</time>
      </trkpt>
      <trkpt lat="47.49363" lon="6.72112">
        <ele>423</ele>
        <time>2015-12-06T09:02:56.000Z</time>
      </trkpt>
      <trkpt lat="47.49363" lon="6.72109">
        <ele>423</ele>
        <time>2015-12-06T09:02:57.000Z</time>
      </trkpt>
      <trkpt lat="47.49363" lon="6.72106">
        <ele>423</ele>
        <time>2015-12-06T09:02:58.001Z</time>
      </trkpt>
      <trkpt lat="47.49364" lon="6.72102">
        <ele>423</ele>
        <time>2015-12-06T09:02:59.000Z</time>
      </trkpt>
      <trkpt lat="47.49366" lon="6.72097">
        <ele>423</ele>
        <time>2015-12-06T09:03:01.000Z</time>
      </trkpt>
      <trkpt lat="47.49368" lon="6.72095">
        <ele>423</ele>
        <time>2015-12-06T09:03:02.000Z</time>
      </trkpt>
      <trkpt lat="47.4937" lon="6.72092">
        <ele>423</ele>
        <time>2015-12-06T09:03:04.000Z</time>
      </trkpt>
      <trkpt lat="47.49371" lon="6.7209">
        <ele>423</ele>
        <time>2015-12-06T09:03:05.000Z</time>
      </trkpt>
      <trkpt lat="47.49373" lon="6.72085">
        <ele>423</ele>
        <time>2015-12-06T09:03:07.000Z</time>
      </trkpt>
      <trkpt lat="47.49375" lon="6.72084">
        <ele>423</ele>
        <time>2015-12-06T09:03:08.000Z</time>
      </trkpt>
      <trkpt lat="47.49376" lon="6.72078">
        <ele>425</ele>
        <time>2015-12-06T09:03:10.000Z</time>
      </trkpt>
      <trkpt lat="47.49377" lon="6.72076">
        <ele>425</ele>
        <time>2015-12-06T09:03:11.000Z</time>
      </trkpt>
      <trkpt lat="47.4938" lon="6.72072">
        <ele>425</ele>
        <time>2015-12-06T09:03:13.000Z</time>
      </trkpt>
      <trkpt lat="47.49381" lon="6.7207">
        <ele>425</ele>
        <time>2015-12-06T09:03:14.000Z</time>
      </trkpt>
      <trkpt lat="47.49383" lon="6.72067">
        <ele>425</ele>
        <time>2015-12-06T09:03:15.000Z</time>
      </trkpt>
      <trkpt lat="47.49383" lon="6.72064">
        <ele>425</ele>
        <time>2015-12-06T09:03:16.000Z</time>
      </trkpt>
      <trkpt lat="47.49384" lon="6.7206">
        <ele>425</ele>
        <time>2015-12-06T09:03:17.000Z</time>
      </trkpt>
      <trkpt lat="47.49383" lon="6.72056">
        <ele>425</ele>
        <time>2015-12-06T09:03:18.000Z</time>
      </trkpt>
      <trkpt lat="47.49384" lon="6.7205">
        <ele>426</ele>
        <time>2015-12-06T09:03:20.000Z</time>
      </trkpt>
      <trkpt lat="47.49384" lon="6.72047">
        <ele>426</ele>
        <time>2015-12-06T09:03:21.000Z</time>
      </trkpt>
      <trkpt lat="47.49385" lon="6.72043">
        <ele>426</ele>
        <time>2015-12-06T09:03:22.000Z</time>
      </trkpt>
      <trkpt lat="47.49385" lon="6.72039">
        <ele>426</ele>
        <time>2015-12-06T09:03:23.000Z</time>
      </trkpt>
      <trkpt lat="47.49386" lon="6.72033">
        <ele>426</ele>
        <time>2015-12-06T09:03:25.000Z</time>
      </trkpt>
      <trkpt lat="47.49386" lon="6.72029">
        <ele>426</ele>
        <time>2015-12-06T09:03:26.000Z</time>
      </trkpt>
      <trkpt lat="47.49386" lon="6.72026">
        <ele>426</ele>
        <time>2015-12-06T09:03:27.000Z</time>
      </trkpt>
      <trkpt lat="47.49386" lon="6.72023">
        <ele>426</ele>
        <time>2015-12-06T09:03:28.000Z</time>
      </trkpt>
      <trkpt lat="47.49387" lon="6.72017">
        <ele>426</ele>
        <time>2015-12-06T09:03:30.000Z</time>
      </trkpt>
      <trkpt lat="47.49387" lon="6.72015">
        <ele>426</ele>
        <time>2015-12-06T09:03:30.999Z</time>
      </trkpt>
      <trkpt lat="47.49386" lon="6.72009">
        <ele>426</ele>
        <time>2015-12-06T09:03:33.000Z</time>
      </trkpt>
      <trkpt lat="47.49386" lon="6.72007">
        <ele>426</ele>
        <time>2015-12-06T09:03:34.000Z</time>
      </trkpt>
      <trkpt lat="47.49386" lon="6.72001">
        <ele>426</ele>
        <time>2015-12-06T09:03:36.000Z</time>
      </trkpt>
      <trkpt lat="47.49386" lon="6.71997">
        <ele>429</ele>
        <time>2015-12-06T09:03:37.000Z</time>
      </trkpt>
      <trkpt lat="47.49387" lon="6.71994">
        <ele>429</ele>
        <time>2015-12-06T09:03:38.000Z</time>
      </trkpt>
      <trkpt lat="47.49387" lon="6.7199">
        <ele>429</ele>
        <time>2015-12-06T09:03:39.000Z</time>
      </trkpt>
      <trkpt lat="47.49388" lon="6.71986">
        <ele>429</ele>
        <time>2015-12-06T09:03:40.000Z</time>
      </trkpt>
      <trkpt lat="47.49389" lon="6.71983">
        <ele>429</ele>
        <time>2015-12-06T09:03:41.000Z</time>
      </trkpt>
      <trkpt lat="47.4939" lon="6.71979">
        <ele>429</ele>
        <time>2015-12-06T09:03:42.000Z</time>
      </trkpt>
      <trkpt lat="47.49391" lon="6.71976">
        <ele>429</ele>
        <time>2015-12-06T09:03:43.000Z</time>
      </trkpt>
      <trkpt lat="47.49393" lon="6.71971">
        <ele>430</ele>
        <time>2015-12-06T09:03:45.001Z</time>
      </trkpt>
      <trkpt lat="47.49394" lon="6.71968">
        <ele>430</ele>
        <time>2015-12-06T09:03:46.001Z</time>
      </trkpt>
      <trkpt lat="47.49395" lon="6.71962">
        <ele>430</ele>
        <time>2015-12-06T09:03:48.000Z</time>
      </trkpt>
      <trkpt lat="47.49395" lon="6.7196">
        <ele>430</ele>
        <time>2015-12-06T09:03:49.000Z</time>
      </trkpt>
      <trkpt lat="47.49396" lon="6.71954">
        <ele>431</ele>
        <time>2015-12-06T09:03:51.000Z</time>
      </trkpt>
      <trkpt lat="47.49395" lon="6.71951">
        <ele>431</ele>
        <time>2015-12-06T09:03:52.000Z</time>
      </trkpt>
      <trkpt lat="47.49395" lon="6.71946">
        <ele>431</ele>
        <time>2015-12-06T09:03:54.000Z</time>
      </trkpt>
      <trkpt lat="47.49397" lon="6.71942">
        <ele>431</ele>
        <time>2015-12-06T09:03:55.000Z</time>
      </trkpt>
      <trkpt lat="47.49399" lon="6.71939">
        <ele>431</ele>
        <time>2015-12-06T09:03:56.000Z</time>
      </trkpt>
      <trkpt lat="47.494" lon="6.71936">
        <ele>432</ele>
        <time>2015-12-06T09:03:57.000Z</time>
      </trkpt>
      <trkpt lat="47.49402" lon="6.71932">
        <ele>432</ele>
        <time>2015-12-06T09:03:59.001Z</time>
      </trkpt>
      <trkpt lat="47.49402" lon="6.71929">
        <ele>432</ele>
        <time>2015-12-06T09:04:00.000Z</time>
      </trkpt>
      <trkpt lat="47.49402" lon="6.71924">
        <ele>432</ele>
        <time>2015-12-06T09:04:02.000Z</time>
      </trkpt>
      <trkpt lat="47.49402" lon="6.71921">
        <ele>432</ele>
        <time>2015-12-06T09:04:03.000Z</time>
      </trkpt>
      <trkpt lat="47.49402" lon="6.71916">
        <ele>434</ele>
        <time>2015-12-06T09:04:05.000Z</time>
      </trkpt>
      <trkpt lat="47.49403" lon="6.71913">
        <ele>434</ele>
        <time>2015-12-06T09:04:06.000Z</time>
      </trkpt>
      <trkpt lat="47.49403" lon="6.71909">
        <ele>434</ele>
        <time>2015-12-06T09:04:08.000Z</time>
      </trkpt>
      <trkpt lat="47.49403" lon="6.71906">
        <ele>434</ele>
        <time>2015-12-06T09:04:09.000Z</time>
      </trkpt>
      <trkpt lat="47.49402" lon="6.719">
        <ele>435</ele>
        <time>2015-12-06T09:04:11.000Z</time>
      </trkpt>
      <trkpt lat="47.49402" lon="6.71898">
        <ele>435</ele>
        <time>2015-12-06T09:04:12.000Z</time>
      </trkpt>
      <trkpt lat="47.49403" lon="6.71892">
        <ele>435</ele>
        <time>2015-12-06T09:04:15.000Z</time>
      </trkpt>
      <trkpt lat="47.49402" lon="6.71888">
        <ele>435</ele>
        <time>2015-12-06T09:04:16.000Z</time>
      </trkpt>
      <trkpt lat="47.49402" lon="6.71883">
        <ele>435</ele>
        <time>2015-12-06T09:04:19.000Z</time>
      </trkpt>
      <trkpt lat="47.49402" lon="6.71881">
        <ele>435</ele>
        <time>2015-12-06T09:04:20.000Z</time>
      </trkpt>
      <trkpt lat="47.49402" lon="6.71876">
        <ele>435</ele>
        <time>2015-12-06T09:04:22.000Z</time>
      </trkpt>
      <trkpt lat="47.49402" lon="6.71873">
        <ele>435</ele>
        <time>2015-12-06T09:04:23.000Z</time>
      </trkpt>
      <trkpt lat="47.49404" lon="6.71867">
        <ele>435</ele>
        <time>2015-12-06T09:04:26.000Z</time>
      </trkpt>
      <trkpt lat="47.49405" lon="6.71866">
        <ele>435</ele>
        <time>2015-12-06T09:04:27.000Z</time>
      </trkpt>
      <trkpt lat="47.49407" lon="6.71862">
        <ele>436</ele>
        <time>2015-12-06T09:04:32.000Z</time>
      </trkpt>
      <trkpt lat="47.49407" lon="6.71859">
        <ele>436</ele>
        <time>2015-12-06T09:04:33.000Z</time>
      </trkpt>
      <trkpt lat="47.49408" lon="6.71853">
        <ele>436</ele>
        <time>2015-12-06T09:04:35.000Z</time>
      </trkpt>
      <trkpt lat="47.49408" lon="6.71851">
        <ele>436</ele>
        <time>2015-12-06T09:04:36.000Z</time>
      </trkpt>
      <trkpt lat="47.49409" lon="6.71845">
        <ele>437</ele>
        <time>2015-12-06T09:04:38.000Z</time>
      </trkpt>
      <trkpt lat="47.49409" lon="6.71844">
        <ele>437</ele>
        <time>2015-12-06T09:04:39.000Z</time>
      </trkpt>
      <trkpt lat="47.49411" lon="6.71838">
        <ele>437</ele>
        <time>2015-12-06T09:04:40.000Z</time>
      </trkpt>
      <trkpt lat="47.49412" lon="6.71834">
        <ele>437</ele>
        <time>2015-12-06T09:04:41.000Z</time>
      </trkpt>
      <trkpt lat="47.49414" lon="6.7183">
        <ele>438</ele>
        <time>2015-12-06T09:04:42.000Z</time>
      </trkpt>
      <trkpt lat="47.49415" lon="6.71827">
        <ele>438</ele>
        <time>2015-12-06T09:04:43.000Z</time>
      </trkpt>
      <trkpt lat="47.49416" lon="6.71823">
        <ele>438</ele>
        <time>2015-12-06T09:04:44.000Z</time>
      </trkpt>
      <trkpt lat="47.49418" lon="6.71819">
        <ele>439</ele>
        <time>2015-12-06T09:04:45.000Z</time>
      </trkpt>
      <trkpt lat="47.49419" lon="6.71816">
        <ele>439</ele>
        <time>2015-12-06T09:04:46.001Z</time>
      </trkpt>
      <trkpt lat="47.49421" lon="6.71813">
        <ele>440</ele>
        <time>2015-12-06T09:04:47.000Z</time>
      </trkpt>
      <trkpt lat="47.49423" lon="6.71808">
        <ele>440</ele>
        <time>2015-12-06T09:04:49.000Z</time>
      </trkpt>
      <trkpt lat="47.49424" lon="6.71806">
        <ele>440</ele>
        <time>2015-12-06T09:04:50.000Z</time>
      </trkpt>
      <trkpt lat="47.49426" lon="6.71799">
        <ele>440</ele>
        <time>2015-12-06T09:04:52.000Z</time>
      </trkpt>
      <trkpt lat="47.49426" lon="6.71798">
        <ele>441</ele>
        <time>2015-12-06T09:04:53.000Z</time>
      </trkpt>
      <trkpt lat="47.49425" lon="6.71792">
        <ele>441</ele>
        <time>2015-12-06T09:04:56.000Z</time>
      </trkpt>
      <trkpt lat="47.49425" lon="6.7179">
        <ele>441</ele>
        <time>2015-12-06T09:04:57.000Z</time>
      </trkpt>
      <trkpt lat="47.49424" lon="6.71786">
        <ele>441</ele>
        <time>2015-12-06T09:04:58.999Z</time>
      </trkpt>
      <trkpt lat="47.49424" lon="6.71783">
        <ele>442</ele>
        <time>2015-12-06T09:05:00.000Z</time>
      </trkpt>
      <trkpt lat="47.49423" lon="6.71779">
        <ele>442</ele>
        <time>2015-12-06T09:05:01.000Z</time>
      </trkpt>
      <trkpt lat="47.49424" lon="6.71775">
        <ele>442</ele>
        <time>2015-12-06T09:05:02.000Z</time>
      </trkpt>
      <trkpt lat="47.49424" lon="6.71771">
        <ele>443</ele>
        <time>2015-12-06T09:05:03.000Z</time>
      </trkpt>
      <trkpt lat="47.49424" lon="6.71767">
        <ele>443</ele>
        <time>2015-12-06T09:05:04.000Z</time>
      </trkpt>
      <trkpt lat="47.49425" lon="6.71763">
        <ele>444</ele>
        <time>2015-12-06T09:05:05.000Z</time>
      </trkpt>
      <trkpt lat="47.49424" lon="6.7176">
        <ele>444</ele>
        <time>2015-12-06T09:05:06.000Z</time>
      </trkpt>
      <trkpt lat="47.49423" lon="6.71754">
        <ele>445</ele>
        <time>2015-12-06T09:05:08.000Z</time>
      </trkpt>
      <trkpt lat="47.49422" lon="6.71751">
        <ele>445</ele>
        <time>2015-12-06T09:05:09.000Z</time>
      </trkpt>
      <trkpt lat="47.49421" lon="6.71745">
        <ele>446</ele>
        <time>2015-12-06T09:05:11.000Z</time>
      </trkpt>
      <trkpt lat="47.49421" lon="6.71742">
        <ele>447</ele>
        <time>2015-12-06T09:05:12.000Z</time>
      </trkpt>
      <trkpt lat="47.4942" lon="6.71737">
        <ele>447</ele>
        <time>2015-12-06T09:05:14.000Z</time>
      </trkpt>
      <trkpt lat="47.49419" lon="6.71734">
        <ele>447</ele>
        <time>2015-12-06T09:05:15.000Z</time>
      </trkpt>
      <trkpt lat="47.49419" lon="6.71731">
        <ele>447</ele>
        <time>2015-12-06T09:05:16.000Z</time>
      </trkpt>
      <trkpt lat="47.49419" lon="6.71728">
        <ele>447</ele>
        <time>2015-12-06T09:05:17.000Z</time>
      </trkpt>
      <trkpt lat="47.49419" lon="6.71721">
        <ele>447</ele>
        <time>2015-12-06T09:05:19.000Z</time>
      </trkpt>
      <trkpt lat="47.4942" lon="6.71717">
        <ele>448</ele>
        <time>2015-12-06T09:05:20.000Z</time>
      </trkpt>
      <trkpt lat="47.4942" lon="6.71715">
        <ele>448</ele>
        <time>2015-12-06T09:05:21.000Z</time>
      </trkpt>
      <trkpt lat="47.4942" lon="6.71709">
        <ele>448</ele>
        <time>2015-12-06T09:05:22.000Z</time>
      </trkpt>
      <trkpt lat="47.49419" lon="6.71705">
        <ele>448</ele>
        <time>2015-12-06T09:05:23.000Z</time>
      </trkpt>
      <trkpt lat="47.49418" lon="6.71701">
        <ele>448</ele>
        <time>2015-12-06T09:05:24.000Z</time>
      </trkpt>
      <trkpt lat="47.49418" lon="6.71698">
        <ele>449</ele>
        <time>2015-12-06T09:05:25.000Z</time>
      </trkpt>
      <trkpt lat="47.49418" lon="6.71694">
        <ele>449</ele>
        <time>2015-12-06T09:05:26.000Z</time>
      </trkpt>
      <trkpt lat="47.49418" lon="6.71691">
        <ele>449</ele>
        <time>2015-12-06T09:05:27.000Z</time>
      </trkpt>
      <trkpt lat="47.49419" lon="6.71687">
        <ele>449</ele>
        <time>2015-12-06T09:05:28.000Z</time>
      </trkpt>
      <trkpt lat="47.49419" lon="6.71684">
        <ele>449</ele>
        <time>2015-12-06T09:05:29.000Z</time>
      </trkpt>
      <trkpt lat="47.49419" lon="6.7168">
        <ele>450</ele>
        <time>2015-12-06T09:05:30.000Z</time>
      </trkpt>
      <trkpt lat="47.4942" lon="6.71674">
        <ele>450</ele>
        <time>2015-12-06T09:05:32.000Z</time>
      </trkpt>
      <trkpt lat="47.49422" lon="6.71672">
        <ele>450</ele>
        <time>2015-12-06T09:05:33.000Z</time>
      </trkpt>
      <trkpt lat="47.49422" lon="6.71667">
        <ele>450</ele>
        <time>2015-12-06T09:05:35.000Z</time>
      </trkpt>
      <trkpt lat="47.49422" lon="6.71664">
        <ele>451</ele>
        <time>2015-12-06T09:05:36.000Z</time>
      </trkpt>
      <trkpt lat="47.49421" lon="6.71658">
        <ele>451</ele>
        <time>2015-12-06T09:05:38.000Z</time>
      </trkpt>
      <trkpt lat="47.49421" lon="6.71657">
        <ele>451</ele>
        <time>2015-12-06T09:05:39.000Z</time>
      </trkpt>
      <trkpt lat="47.49417" lon="6.71656">
        <ele>450</ele>
        <time>2015-12-06T09:09:16.001Z</time>
      </trkpt>
      <trkpt lat="47.49416" lon="6.71656">
        <ele>450</ele>
        <time>2015-12-06T09:09:17.001Z</time>
      </trkpt>
      <trkpt lat="47.49417" lon="6.7165">
        <ele>451</ele>
        <time>2015-12-06T09:13:15.000Z</time>
      </trkpt>
      <trkpt lat="47.49417" lon="6.7165">
        <ele>451</ele>
        <time>2015-12-06T09:13:16.000Z</time>
      </trkpt>
      <trkpt lat="47.49417" lon="6.71656">
        <ele>450</ele>
        <time>2015-12-06T09:16:49.000Z</time>
      </trkpt>
      <trkpt lat="47.49417" lon="6.71656">
        <ele>450</ele>
        <time>2015-12-06T09:16:50.000Z</time>
      </trkpt>
      <trkpt lat="47.49418" lon="6.71651">
        <ele>451</ele>
        <time>2015-12-06T09:17:58.000Z</time>
      </trkpt>
      <trkpt lat="47.49418" lon="6.71648">
        <ele>451</ele>
        <time>2015-12-06T09:17:59.000Z</time>
      </trkpt>
      <trkpt lat="47.49417" lon="6.71644">
        <ele>451</ele>
        <time>2015-12-06T09:18:00.000Z</time>
      </trkpt>
      <trkpt lat="47.49417" lon="6.7164">
        <ele>452</ele>
        <time>2015-12-06T09:18:01.000Z</time>
      </trkpt>
      <trkpt lat="47.49417" lon="6.71636">
        <ele>452</ele>
        <time>2015-12-06T09:18:02.000Z</time>
      </trkpt>
      <trkpt lat="47.49417" lon="6.71632">
        <ele>452</ele>
        <time>2015-12-06T09:18:03.000Z</time>
      </trkpt>
      <trkpt lat="47.49417" lon="6.71627">
        <ele>452</ele>
        <time>2015-12-06T09:18:04.000Z</time>
      </trkpt>
      <trkpt lat="47.49416" lon="6.71623">
        <ele>450</ele>
        <time>2015-12-06T09:18:05.000Z</time>
      </trkpt>
      <trkpt lat="47.49415" lon="6.71618">
        <ele>450</ele>
        <time>2015-12-06T09:18:06.000Z</time>
      </trkpt>
      <trkpt lat="47.49413" lon="6.71613">
        <ele>450</ele>
        <time>2015-12-06T09:18:07.000Z</time>
      </trkpt>
      <trkpt lat="47.49412" lon="6.71608">
        <ele>451</ele>
        <time>2015-12-06T09:18:08.000Z</time>
      </trkpt>
      <trkpt lat="47.49411" lon="6.71603">
        <ele>451</ele>
        <time>2015-12-06T09:18:09.000Z</time>
      </trkpt>
      <trkpt lat="47.4941" lon="6.71598">
        <ele>451</ele>
        <time>2015-12-06T09:18:10.000Z</time>
      </trkpt>
      <trkpt lat="47.4941" lon="6.71593">
        <ele>452</ele>
        <time>2015-12-06T09:18:11.000Z</time>
      </trkpt>
      <trkpt lat="47.49411" lon="6.71588">
        <ele>453</ele>
        <time>2015-12-06T09:18:12.000Z</time>
      </trkpt>
      <trkpt lat="47.49411" lon="6.71583">
        <ele>453</ele>
        <time>2015-12-06T09:18:13.000Z</time>
      </trkpt>
      <trkpt lat="47.49411" lon="6.71578">
        <ele>453</ele>
        <time>2015-12-06T09:18:13.999Z</time>
      </trkpt>
      <trkpt lat="47.49411" lon="6.71572">
        <ele>453</ele>
        <time>2015-12-06T09:18:15.000Z</time>
      </trkpt>
      <trkpt lat="47.49411" lon="6.71567">
        <ele>453</ele>
        <time>2015-12-06T09:18:16.000Z</time>
      </trkpt>
      <trkpt lat="47.4941" lon="6.71562">
        <ele>453</ele>
        <time>2015-12-06T09:18:17.000Z</time>
      </trkpt>
      <trkpt lat="47.4941" lon="6.71557">
        <ele>453</ele>
        <time>2015-12-06T09:18:18.000Z</time>
      </trkpt>
      <trkpt lat="47.49411" lon="6.71552">
        <ele>453</ele>
        <time>2015-12-06T09:18:19.000Z</time>
      </trkpt>
      <trkpt lat="47.4941" lon="6.71541">
        <ele>453</ele>
        <time>2015-12-06T09:18:20.000Z</time>
      </trkpt>
      <trkpt lat="47.49409" lon="6.71534">
        <ele>454</ele>
        <time>2015-12-06T09:18:21.000Z</time>
      </trkpt>
      <trkpt lat="47.49408" lon="6.71529">
        <ele>454</ele>
        <time>2015-12-06T09:18:23.000Z</time>
      </trkpt>
      <trkpt lat="47.49408" lon="6.71526">
        <ele>454</ele>
        <time>2015-12-06T09:18:24.000Z</time>
      </trkpt>
      <trkpt lat="47.49408" lon="6.71522">
        <ele>454</ele>
        <time>2015-12-06T09:18:25.000Z</time>
      </trkpt>
      <trkpt lat="47.49408" lon="6.71519">
        <ele>455</ele>
        <time>2015-12-06T09:18:26.000Z</time>
      </trkpt>
      <trkpt lat="47.49409" lon="6.71513">
        <ele>455</ele>
        <time>2015-12-06T09:18:27.000Z</time>
      </trkpt>
      <trkpt lat="47.49409" lon="6.71509">
        <ele>456</ele>
        <time>2015-12-06T09:18:28.000Z</time>
      </trkpt>
      <trkpt lat="47.4941" lon="6.71503">
        <ele>456</ele>
        <time>2015-12-06T09:18:29.000Z</time>
      </trkpt>
      <trkpt lat="47.4941" lon="6.71499">
        <ele>457</ele>
        <time>2015-12-06T09:18:30.001Z</time>
      </trkpt>
      <trkpt lat="47.49409" lon="6.71492">
        <ele>456</ele>
        <time>2015-12-06T09:18:31.000Z</time>
      </trkpt>
      <trkpt lat="47.49409" lon="6.71488">
        <ele>456</ele>
        <time>2015-12-06T09:18:32.000Z</time>
      </trkpt>
      <trkpt lat="47.49409" lon="6.71484">
        <ele>456</ele>
        <time>2015-12-06T09:18:33.000Z</time>
      </trkpt>
      <trkpt lat="47.49409" lon="6.7148">
        <ele>456</ele>
        <time>2015-12-06T09:18:34.000Z</time>
      </trkpt>
      <trkpt lat="47.49409" lon="6.71477">
        <ele>455</ele>
        <time>2015-12-06T09:18:35.000Z</time>
      </trkpt>
      <trkpt lat="47.49409" lon="6.71474">
        <ele>455</ele>
        <time>2015-12-06T09:18:36.000Z</time>
      </trkpt>
      <trkpt lat="47.49409" lon="6.7147">
        <ele>455</ele>
        <time>2015-12-06T09:18:37.000Z</time>
      </trkpt>
      <trkpt lat="47.49409" lon="6.71466">
        <ele>455</ele>
        <time>2015-12-06T09:18:38.000Z</time>
      </trkpt>
      <trkpt lat="47.49409" lon="6.71461">
        <ele>455</ele>
        <time>2015-12-06T09:18:39.000Z</time>
      </trkpt>
      <trkpt lat="47.49409" lon="6.71456">
        <ele>455</ele>
        <time>2015-12-06T09:18:40.000Z</time>
      </trkpt>
      <trkpt lat="47.49408" lon="6.71451">
        <ele>455</ele>
        <time>2015-12-06T09:18:41.000Z</time>
      </trkpt>
      <trkpt lat="47.49407" lon="6.71445">
        <ele>455</ele>
        <time>2015-12-06T09:18:42.000Z</time>
      </trkpt>
      <trkpt lat="47.49407" lon="6.71441">
        <ele>455</ele>
        <time>2015-12-06T09:18:43.000Z</time>
      </trkpt>
      <trkpt lat="47.49406" lon="6.71437">
        <ele>455</ele>
        <time>2015-12-06T09:18:44.000Z</time>
      </trkpt>
      <trkpt lat="47.49405" lon="6.71433">
        <ele>456</ele>
        <time>2015-12-06T09:18:45.000Z</time>
      </trkpt>
      <trkpt lat="47.49405" lon="6.7143">
        <ele>456</ele>
        <time>2015-12-06T09:18:46.000Z</time>
      </trkpt>
      <trkpt lat="47.49406" lon="6.71426">
        <ele>456</ele>
        <time>2015-12-06T09:18:47.000Z</time>
      </trkpt>
      <trkpt lat="47.49407" lon="6.71422">
        <ele>456</ele>
        <time>2015-12-06T09:18:48.000Z</time>
      </trkpt>
      <trkpt lat="47.49407" lon="6.71418">
        <ele>457</ele>
        <time>2015-12-06T09:18:49.000Z</time>
      </trkpt>
      <trkpt lat="47.49407" lon="6.71414">
        <ele>457</ele>
        <time>2015-12-06T09:18:50.000Z</time>
      </trkpt>
      <trkpt lat="47.49406" lon="6.71409">
        <ele>457</ele>
        <time>2015-12-06T09:18:51.000Z</time>
      </trkpt>
      <trkpt lat="47.49406" lon="6.71404">
        <ele>457</ele>
        <time>2015-12-06T09:18:52.000Z</time>
      </trkpt>
      <trkpt lat="47.49406" lon="6.714">
        <ele>456</ele>
        <time>2015-12-06T09:18:52.999Z</time>
      </trkpt>
      <trkpt lat="47.49405" lon="6.71394">
        <ele>456</ele>
        <time>2015-12-06T09:18:54.000Z</time>
      </trkpt>
      <trkpt lat="47.49404" lon="6.71389">
        <ele>456</ele>
        <time>2015-12-06T09:18:55.000Z</time>
      </trkpt>
      <trkpt lat="47.49404" lon="6.71384">
        <ele>456</ele>
        <time>2015-12-06T09:18:56.000Z</time>
      </trkpt>
      <trkpt lat="47.49403" lon="6.71378">
        <ele>456</ele>
        <time>2015-12-06T09:18:57.000Z</time>
      </trkpt>
      <trkpt lat="47.49402" lon="6.71374">
        <ele>456</ele>
        <time>2015-12-06T09:18:57.998Z</time>
      </trkpt>
      <trkpt lat="47.49399" lon="6.71366">
        <ele>457</ele>
        <time>2015-12-06T09:18:59.000Z</time>
      </trkpt>
      <trkpt lat="47.49397" lon="6.7136">
        <ele>457</ele>
        <time>2015-12-06T09:19:00.000Z</time>
      </trkpt>
      <trkpt lat="47.49395" lon="6.71354">
        <ele>457</ele>
        <time>2015-12-06T09:19:01.000Z</time>
      </trkpt>
      <trkpt lat="47.49393" lon="6.71348">
        <ele>457</ele>
        <time>2015-12-06T09:19:02.000Z</time>
      </trkpt>
      <trkpt lat="47.49392" lon="6.71335">
        <ele>457</ele>
        <time>2015-12-06T09:19:03.000Z</time>
      </trkpt>
      <trkpt lat="47.49392" lon="6.71327">
        <ele>459</ele>
        <time>2015-12-06T09:19:04.000Z</time>
      </trkpt>
      <trkpt lat="47.4939" lon="6.71318">
        <ele>459</ele>
        <time>2015-12-06T09:19:05.000Z</time>
      </trkpt>
      <trkpt lat="47.49389" lon="6.71309">
        <ele>459</ele>
        <time>2015-12-06T09:19:06.000Z</time>
      </trkpt>
      <trkpt lat="47.49389" lon="6.71301">
        <ele>459</ele>
        <time>2015-12-06T09:19:07.000Z</time>
      </trkpt>
      <trkpt lat="47.49391" lon="6.71295">
        <ele>459</ele>
        <time>2015-12-06T09:19:08.000Z</time>
      </trkpt>
      <trkpt lat="47.4939" lon="6.71289">
        <ele>459</ele>
        <time>2015-12-06T09:19:09.000Z</time>
      </trkpt>
      <trkpt lat="47.49391" lon="6.71286">
        <ele>459</ele>
        <time>2015-12-06T09:19:10.000Z</time>
      </trkpt>
      <trkpt lat="47.49393" lon="6.71283">
        <ele>460</ele>
        <time>2015-12-06T09:19:11.000Z</time>
      </trkpt>
      <trkpt lat="47.49394" lon="6.71278">
        <ele>460</ele>
        <time>2015-12-06T09:19:13.000Z</time>
      </trkpt>
      <trkpt lat="47.49393" lon="6.71276">
        <ele>460</ele>
        <time>2015-12-06T09:19:14.000Z</time>
      </trkpt>
      <trkpt lat="47.49392" lon="6.71272">
        <ele>460</ele>
        <time>2015-12-06T09:19:15.000Z</time>
      </trkpt>
      <trkpt lat="47.49391" lon="6.71268">
        <ele>460</ele>
        <time>2015-12-06T09:19:16.000Z</time>
      </trkpt>
      <trkpt lat="47.4939" lon="6.71263">
        <ele>460</ele>
        <time>2015-12-06T09:19:18.000Z</time>
      </trkpt>
      <trkpt lat="47.49389" lon="6.7126">
        <ele>460</ele>
        <time>2015-12-06T09:19:19.000Z</time>
      </trkpt>
      <trkpt lat="47.49388" lon="6.71254">
        <ele>460</ele>
        <time>2015-12-06T09:19:21.000Z</time>
      </trkpt>
      <trkpt lat="47.49387" lon="6.71252">
        <ele>460</ele>
        <time>2015-12-06T09:19:22.000Z</time>
      </trkpt>
      <trkpt lat="47.49385" lon="6.71247">
        <ele>461</ele>
        <time>2015-12-06T09:19:24.000Z</time>
      </trkpt>
      <trkpt lat="47.49383" lon="6.71244">
        <ele>461</ele>
        <time>2015-12-06T09:19:25.000Z</time>
      </trkpt>
      <trkpt lat="47.49382" lon="6.71241">
        <ele>461</ele>
        <time>2015-12-06T09:19:25.999Z</time>
      </trkpt>
      <trkpt lat="47.49381" lon="6.71236">
        <ele>461</ele>
        <time>2015-12-06T09:19:27.000Z</time>
      </trkpt>
      <trkpt lat="47.49379" lon="6.71232">
        <ele>461</ele>
        <time>2015-12-06T09:19:28.000Z</time>
      </trkpt>
      <trkpt lat="47.49378" lon="6.71228">
        <ele>461</ele>
        <time>2015-12-06T09:19:29.002Z</time>
      </trkpt>
      <trkpt lat="47.49377" lon="6.71222">
        <ele>461</ele>
        <time>2015-12-06T09:19:30.000Z</time>
      </trkpt>
      <trkpt lat="47.49376" lon="6.71218">
        <ele>460</ele>
        <time>2015-12-06T09:19:31.000Z</time>
      </trkpt>
      <trkpt lat="47.49375" lon="6.71214">
        <ele>460</ele>
        <time>2015-12-06T09:19:32.000Z</time>
      </trkpt>
      <trkpt lat="47.49374" lon="6.7121">
        <ele>460</ele>
        <time>2015-12-06T09:19:33.000Z</time>
      </trkpt>
      <trkpt lat="47.49373" lon="6.71206">
        <ele>460</ele>
        <time>2015-12-06T09:19:34.000Z</time>
      </trkpt>
      <trkpt lat="47.49372" lon="6.71203">
        <ele>460</ele>
        <time>2015-12-06T09:19:35.000Z</time>
      </trkpt>
      <trkpt lat="47.49372" lon="6.71199">
        <ele>460</ele>
        <time>2015-12-06T09:19:36.000Z</time>
      </trkpt>
      <trkpt lat="47.49371" lon="6.71196">
        <ele>460</ele>
        <time>2015-12-06T09:19:37.000Z</time>
      </trkpt>
      <trkpt lat="47.4937" lon="6.71192">
        <ele>460</ele>
        <time>2015-12-06T09:19:38.000Z</time>
      </trkpt>
      <trkpt lat="47.49369" lon="6.71189">
        <ele>460</ele>
        <time>2015-12-06T09:19:39.000Z</time>
      </trkpt>
      <trkpt lat="47.49368" lon="6.71186">
        <ele>460</ele>
        <time>2015-12-06T09:19:40.000Z</time>
      </trkpt>
      <trkpt lat="47.49367" lon="6.71182">
        <ele>460</ele>
        <time>2015-12-06T09:19:41.000Z</time>
      </trkpt>
      <trkpt lat="47.49367" lon="6.71179">
        <ele>460</ele>
        <time>2015-12-06T09:19:42.000Z</time>
      </trkpt>
      <trkpt lat="47.49367" lon="6.71175">
        <ele>460</ele>
        <time>2015-12-06T09:19:43.000Z</time>
      </trkpt>
      <trkpt lat="47.49367" lon="6.71172">
        <ele>460</ele>
        <time>2015-12-06T09:19:44.000Z</time>
      </trkpt>
      <trkpt lat="47.49366" lon="6.71168">
        <ele>460</ele>
        <time>2015-12-06T09:19:45.000Z</time>
      </trkpt>
      <trkpt lat="47.49366" lon="6.71164">
        <ele>460</ele>
        <time>2015-12-06T09:19:46.000Z</time>
      </trkpt>
      <trkpt lat="47.49365" lon="6.7116">
        <ele>460</ele>
        <time>2015-12-06T09:19:47.000Z</time>
      </trkpt>
      <trkpt lat="47.49364" lon="6.71155">
        <ele>460</ele>
        <time>2015-12-06T09:19:48.000Z</time>
      </trkpt>
      <trkpt lat="47.49363" lon="6.71151">
        <ele>460</ele>
        <time>2015-12-06T09:19:49.000Z</time>
      </trkpt>
      <trkpt lat="47.49362" lon="6.71147">
        <ele>460</ele>
        <time>2015-12-06T09:19:50.000Z</time>
      </trkpt>
      <trkpt lat="47.49361" lon="6.71143">
        <ele>460</ele>
        <time>2015-12-06T09:19:51.000Z</time>
      </trkpt>
      <trkpt lat="47.49361" lon="6.71139">
        <ele>460</ele>
        <time>2015-12-06T09:19:52.000Z</time>
      </trkpt>
      <trkpt lat="47.49359" lon="6.71135">
        <ele>460</ele>
        <time>2015-12-06T09:19:53.000Z</time>
      </trkpt>
      <trkpt lat="47.49357" lon="6.71129">
        <ele>460</ele>
        <time>2015-12-06T09:19:54.000Z</time>
      </trkpt>
      <trkpt lat="47.49356" lon="6.71125">
        <ele>460</ele>
        <time>2015-12-06T09:19:54.999Z</time>
      </trkpt>
      <trkpt lat="47.49354" lon="6.71119">
        <ele>459</ele>
        <time>2015-12-06T09:19:56.000Z</time>
      </trkpt>
      <trkpt lat="47.49353" lon="6.71115">
        <ele>459</ele>
        <time>2015-12-06T09:19:57.000Z</time>
      </trkpt>
      <trkpt lat="47.49352" lon="6.7111">
        <ele>459</ele>
        <time>2015-12-06T09:19:58.000Z</time>
      </trkpt>
      <trkpt lat="47.49351" lon="6.71106">
        <ele>459</ele>
        <time>2015-12-06T09:19:59.000Z</time>
      </trkpt>
      <trkpt lat="47.49349" lon="6.71101">
        <ele>459</ele>
        <time>2015-12-06T09:20:00.000Z</time>
      </trkpt>
      <trkpt lat="47.49348" lon="6.71097">
        <ele>459</ele>
        <time>2015-12-06T09:20:01.001Z</time>
      </trkpt>
      <trkpt lat="47.49345" lon="6.71094">
        <ele>459</ele>
        <time>2015-12-06T09:20:02.000Z</time>
      </trkpt>
      <trkpt lat="47.49343" lon="6.7109">
        <ele>459</ele>
        <time>2015-12-06T09:20:03.000Z</time>
      </trkpt>
      <trkpt lat="47.49341" lon="6.71086">
        <ele>459</ele>
        <time>2015-12-06T09:20:04.000Z</time>
      </trkpt>
      <trkpt lat="47.49339" lon="6.71081">
        <ele>458</ele>
        <time>2015-12-06T09:20:05.000Z</time>
      </trkpt>
      <trkpt lat="47.49337" lon="6.71077">
        <ele>458</ele>
        <time>2015-12-06T09:20:06.000Z</time>
      </trkpt>
      <trkpt lat="47.49336" lon="6.71072">
        <ele>459</ele>
        <time>2015-12-06T09:20:07.000Z</time>
      </trkpt>
      <trkpt lat="47.49334" lon="6.71068">
        <ele>459</ele>
        <time>2015-12-06T09:20:08.000Z</time>
      </trkpt>
      <trkpt lat="47.49333" lon="6.71063">
        <ele>455</ele>
        <time>2015-12-06T09:20:09.000Z</time>
      </trkpt>
      <trkpt lat="47.49331" lon="6.71059">
        <ele>455</ele>
        <time>2015-12-06T09:20:10.000Z</time>
      </trkpt>
      <trkpt lat="47.49329" lon="6.71055">
        <ele>455</ele>
        <time>2015-12-06T09:20:11.000Z</time>
      </trkpt>
      <trkpt lat="47.49326" lon="6.71052">
        <ele>455</ele>
        <time>2015-12-06T09:20:12.000Z</time>
      </trkpt>
      <trkpt lat="47.49324" lon="6.71049">
        <ele>455</ele>
        <time>2015-12-06T09:20:13.000Z</time>
      </trkpt>
      <trkpt lat="47.49321" lon="6.71047">
        <ele>455</ele>
        <time>2015-12-06T09:20:14.000Z</time>
      </trkpt>
      <trkpt lat="47.49319" lon="6.71042">
        <ele>454</ele>
        <time>2015-12-06T09:20:15.000Z</time>
      </trkpt>
      <trkpt lat="47.49317" lon="6.71038">
        <ele>454</ele>
        <time>2015-12-06T09:20:16.000Z</time>
      </trkpt>
      <trkpt lat="47.49316" lon="6.71034">
        <ele>454</ele>
        <time>2015-12-06T09:20:17.000Z</time>
      </trkpt>
      <trkpt lat="47.49315" lon="6.71029">
        <ele>455</ele>
        <time>2015-12-06T09:20:18.000Z</time>
      </trkpt>
      <trkpt lat="47.49314" lon="6.71025">
        <ele>455</ele>
        <time>2015-12-06T09:20:19.000Z</time>
      </trkpt>
      <trkpt lat="47.49312" lon="6.7102">
        <ele>455</ele>
        <time>2015-12-06T09:20:20.000Z</time>
      </trkpt>
      <trkpt lat="47.4931" lon="6.71015">
        <ele>455</ele>
        <time>2015-12-06T09:20:21.000Z</time>
      </trkpt>
      <trkpt lat="47.49308" lon="6.7101">
        <ele>455</ele>
        <time>2015-12-06T09:20:22.000Z</time>
      </trkpt>
      <trkpt lat="47.49306" lon="6.71006">
        <ele>455</ele>
        <time>2015-12-06T09:20:23.000Z</time>
      </trkpt>
      <trkpt lat="47.49305" lon="6.71002">
        <ele>454</ele>
        <time>2015-12-06T09:20:24.000Z</time>
      </trkpt>
      <trkpt lat="47.49304" lon="6.70998">
        <ele>455</ele>
        <time>2015-12-06T09:20:25.000Z</time>
      </trkpt>
      <trkpt lat="47.49303" lon="6.70994">
        <ele>455</ele>
        <time>2015-12-06T09:20:26.000Z</time>
      </trkpt>
      <trkpt lat="47.49302" lon="6.70991">
        <ele>455</ele>
        <time>2015-12-06T09:20:27.001Z</time>
      </trkpt>
      <trkpt lat="47.493" lon="6.70985">
        <ele>455</ele>
        <time>2015-12-06T09:20:29.001Z</time>
      </trkpt>
      <trkpt lat="47.493" lon="6.70983">
        <ele>455</ele>
        <time>2015-12-06T09:20:30.000Z</time>
      </trkpt>
      <trkpt lat="47.49298" lon="6.70979">
        <ele>455</ele>
        <time>2015-12-06T09:20:32.000Z</time>
      </trkpt>
      <trkpt lat="47.49298" lon="6.70977">
        <ele>455</ele>
        <time>2015-12-06T09:20:33.001Z</time>
      </trkpt>
      <trkpt lat="47.49294" lon="6.70971">
        <ele>455</ele>
        <time>2015-12-06T09:20:34.000Z</time>
      </trkpt>
      <trkpt lat="47.49289" lon="6.70966">
        <ele>455</ele>
        <time>2015-12-06T09:20:35.000Z</time>
      </trkpt>
      <trkpt lat="47.49286" lon="6.70963">
        <ele>454</ele>
        <time>2015-12-06T09:20:36.000Z</time>
      </trkpt>
      <trkpt lat="47.49283" lon="6.70959">
        <ele>454</ele>
        <time>2015-12-06T09:20:37.000Z</time>
      </trkpt>
      <trkpt lat="47.49279" lon="6.70955">
        <ele>454</ele>
        <time>2015-12-06T09:20:38.000Z</time>
      </trkpt>
      <trkpt lat="47.49276" lon="6.7095">
        <ele>454</ele>
        <time>2015-12-06T09:20:39.000Z</time>
      </trkpt>
      <trkpt lat="47.49273" lon="6.70945">
        <ele>454</ele>
        <time>2015-12-06T09:20:40.000Z</time>
      </trkpt>
      <trkpt lat="47.4927" lon="6.70941">
        <ele>454</ele>
        <time>2015-12-06T09:20:41.000Z</time>
      </trkpt>
      <trkpt lat="47.49266" lon="6.70936">
        <ele>454</ele>
        <time>2015-12-06T09:20:42.000Z</time>
      </trkpt>
      <trkpt lat="47.49263" lon="6.70931">
        <ele>454</ele>
        <time>2015-12-06T09:20:43.000Z</time>
      </trkpt>
      <trkpt lat="47.4926" lon="6.70927">
        <ele>454</ele>
        <time>2015-12-06T09:20:44.000Z</time>
      </trkpt>
      <trkpt lat="47.49257" lon="6.70923">
        <ele>454</ele>
        <time>2015-12-06T09:20:45.000Z</time>
      </trkpt>
      <trkpt lat="47.49253" lon="6.70915">
        <ele>454</ele>
        <time>2015-12-06T09:20:46.000Z</time>
      </trkpt>
      <trkpt lat="47.49252" lon="6.70909">
        <ele>454</ele>
        <time>2015-12-06T09:20:47.000Z</time>
      </trkpt>
      <trkpt lat="47.4925" lon="6.70903">
        <ele>454</ele>
        <time>2015-12-06T09:20:48.000Z</time>
      </trkpt>
      <trkpt lat="47.49248" lon="6.709">
        <ele>452</ele>
        <time>2015-12-06T09:20:49.000Z</time>
      </trkpt>
      <trkpt lat="47.49246" lon="6.70895">
        <ele>452</ele>
        <time>2015-12-06T09:20:50.000Z</time>
      </trkpt>
      <trkpt lat="47.49244" lon="6.70891">
        <ele>451</ele>
        <time>2015-12-06T09:20:51.000Z</time>
      </trkpt>
      <trkpt lat="47.49241" lon="6.70886">
        <ele>451</ele>
        <time>2015-12-06T09:20:52.000Z</time>
      </trkpt>
      <trkpt lat="47.49237" lon="6.70882">
        <ele>451</ele>
        <time>2015-12-06T09:20:53.000Z</time>
      </trkpt>
      <trkpt lat="47.49235" lon="6.70877">
        <ele>451</ele>
        <time>2015-12-06T09:20:54.000Z</time>
      </trkpt>
      <trkpt lat="47.49232" lon="6.70871">
        <ele>451</ele>
        <time>2015-12-06T09:20:55.000Z</time>
      </trkpt>
      <trkpt lat="47.4923" lon="6.70865">
        <ele>451</ele>
        <time>2015-12-06T09:20:56.000Z</time>
      </trkpt>
      <trkpt lat="47.49228" lon="6.70861">
        <ele>451</ele>
        <time>2015-12-06T09:20:57.000Z</time>
      </trkpt>
      <trkpt lat="47.49227" lon="6.70855">
        <ele>451</ele>
        <time>2015-12-06T09:20:58.000Z</time>
      </trkpt>
      <trkpt lat="47.49225" lon="6.7085">
        <ele>451</ele>
        <time>2015-12-06T09:20:59.000Z</time>
      </trkpt>
      <trkpt lat="47.49224" lon="6.70845">
        <ele>451</ele>
        <time>2015-12-06T09:20:59.999Z</time>
      </trkpt>
      <trkpt lat="47.49221" lon="6.70841">
        <ele>451</ele>
        <time>2015-12-06T09:21:01.000Z</time>
      </trkpt>
      <trkpt lat="47.49218" lon="6.70837">
        <ele>451</ele>
        <time>2015-12-06T09:21:02.000Z</time>
      </trkpt>
      <trkpt lat="47.49216" lon="6.70833">
        <ele>452</ele>
        <time>2015-12-06T09:21:03.000Z</time>
      </trkpt>
      <trkpt lat="47.49212" lon="6.70829">
        <ele>452</ele>
        <time>2015-12-06T09:21:04.000Z</time>
      </trkpt>
      <trkpt lat="47.4921" lon="6.70825">
        <ele>452</ele>
        <time>2015-12-06T09:21:05.000Z</time>
      </trkpt>
      <trkpt lat="47.49207" lon="6.70821">
        <ele>452</ele>
        <time>2015-12-06T09:21:06.000Z</time>
      </trkpt>
      <trkpt lat="47.49205" lon="6.70817">
        <ele>452</ele>
        <time>2015-12-06T09:21:07.000Z</time>
      </trkpt>
      <trkpt lat="47.49204" lon="6.70815">
        <ele>452</ele>
        <time>2015-12-06T09:21:08.000Z</time>
      </trkpt>
      <trkpt lat="47.49202" lon="6.70812">
        <ele>452</ele>
        <time>2015-12-06T09:21:09.000Z</time>
      </trkpt>
      <trkpt lat="47.492" lon="6.70809">
        <ele>452</ele>
        <time>2015-12-06T09:21:10.000Z</time>
      </trkpt>
      <trkpt lat="47.49199" lon="6.70807">
        <ele>452</ele>
        <time>2015-12-06T09:21:11.001Z</time>
      </trkpt>
      <trkpt lat="47.49197" lon="6.70802">
        <ele>452</ele>
        <time>2015-12-06T09:21:12.000Z</time>
      </trkpt>
      <trkpt lat="47.49195" lon="6.70798">
        <ele>452</ele>
        <time>2015-12-06T09:21:13.000Z</time>
      </trkpt>
      <trkpt lat="47.49193" lon="6.70794">
        <ele>452</ele>
        <time>2015-12-06T09:21:14.000Z</time>
      </trkpt>
      <trkpt lat="47.4919" lon="6.7079">
        <ele>452</ele>
        <time>2015-12-06T09:21:15.000Z</time>
      </trkpt>
      <trkpt lat="47.49184" lon="6.70778">
        <ele>452</ele>
        <time>2015-12-06T09:21:16.000Z</time>
      </trkpt>
      <trkpt lat="47.49181" lon="6.70772">
        <ele>452</ele>
        <time>2015-12-06T09:21:17.000Z</time>
      </trkpt>
      <trkpt lat="47.49179" lon="6.70767">
        <ele>453</ele>
        <time>2015-12-06T09:21:18.000Z</time>
      </trkpt>
      <trkpt lat="47.49177" lon="6.70763">
        <ele>453</ele>
        <time>2015-12-06T09:21:18.998Z</time>
      </trkpt>
      <trkpt lat="47.49176" lon="6.70755">
        <ele>453</ele>
        <time>2015-12-06T09:21:20.000Z</time>
      </trkpt>
      <trkpt lat="47.49175" lon="6.70751">
        <ele>453</ele>
        <time>2015-12-06T09:21:21.000Z</time>
      </trkpt>
      <trkpt lat="47.49171" lon="6.70748">
        <ele>453</ele>
        <time>2015-12-06T09:21:22.000Z</time>
      </trkpt>
      <trkpt lat="47.49168" lon="6.70743">
        <ele>453</ele>
        <time>2015-12-06T09:21:23.000Z</time>
      </trkpt>
      <trkpt lat="47.49166" lon="6.7074">
        <ele>452</ele>
        <time>2015-12-06T09:21:24.000Z</time>
      </trkpt>
      <trkpt lat="47.49164" lon="6.70739">
        <ele>452</ele>
        <time>2015-12-06T09:21:25.000Z</time>
      </trkpt>
      <trkpt lat="47.49161" lon="6.70734">
        <ele>451</ele>
        <time>2015-12-06T09:21:26.000Z</time>
      </trkpt>
      <trkpt lat="47.4916" lon="6.70728">
        <ele>451</ele>
        <time>2015-12-06T09:21:27.000Z</time>
      </trkpt>
      <trkpt lat="47.49158" lon="6.70724">
        <ele>451</ele>
        <time>2015-12-06T09:21:28.000Z</time>
      </trkpt>
      <trkpt lat="47.49156" lon="6.7072">
        <ele>451</ele>
        <time>2015-12-06T09:21:29.000Z</time>
      </trkpt>
      <trkpt lat="47.49154" lon="6.70716">
        <ele>451</ele>
        <time>2015-12-06T09:21:30.000Z</time>
      </trkpt>
      <trkpt lat="47.49151" lon="6.70712">
        <ele>451</ele>
        <time>2015-12-06T09:21:31.000Z</time>
      </trkpt>
      <trkpt lat="47.49149" lon="6.70708">
        <ele>451</ele>
        <time>2015-12-06T09:21:32.000Z</time>
      </trkpt>
      <trkpt lat="47.49146" lon="6.70704">
        <ele>451</ele>
        <time>2015-12-06T09:21:33.000Z</time>
      </trkpt>
      <trkpt lat="47.49143" lon="6.70695">
        <ele>451</ele>
        <time>2015-12-06T09:21:34.000Z</time>
      </trkpt>
      <trkpt lat="47.49142" lon="6.70691">
        <ele>451</ele>
        <time>2015-12-06T09:21:35.000Z</time>
      </trkpt>
      <trkpt lat="47.49141" lon="6.70688">
        <ele>451</ele>
        <time>2015-12-06T09:21:36.000Z</time>
      </trkpt>
      <trkpt lat="47.4914" lon="6.70684">
        <ele>451</ele>
        <time>2015-12-06T09:21:37.000Z</time>
      </trkpt>
      <trkpt lat="47.49138" lon="6.70682">
        <ele>451</ele>
        <time>2015-12-06T09:21:38.000Z</time>
      </trkpt>
      <trkpt lat="47.49136" lon="6.70677">
        <ele>451</ele>
        <time>2015-12-06T09:21:40.000Z</time>
      </trkpt>
      <trkpt lat="47.49133" lon="6.70673">
        <ele>451</ele>
        <time>2015-12-06T09:21:41.000Z</time>
      </trkpt>
      <trkpt lat="47.49131" lon="6.70667">
        <ele>451</ele>
        <time>2015-12-06T09:21:42.000Z</time>
      </trkpt>
      <trkpt lat="47.49129" lon="6.70662">
        <ele>453</ele>
        <time>2015-12-06T09:21:43.000Z</time>
      </trkpt>
      <trkpt lat="47.49128" lon="6.70659">
        <ele>453</ele>
        <time>2015-12-06T09:21:43.998Z</time>
      </trkpt>
      <trkpt lat="47.49126" lon="6.70654">
        <ele>453</ele>
        <time>2015-12-06T09:21:45.000Z</time>
      </trkpt>
      <trkpt lat="47.49124" lon="6.7065">
        <ele>453</ele>
        <time>2015-12-06T09:21:46.000Z</time>
      </trkpt>
      <trkpt lat="47.49123" lon="6.70646">
        <ele>453</ele>
        <time>2015-12-06T09:21:47.000Z</time>
      </trkpt>
      <trkpt lat="47.49121" lon="6.70641">
        <ele>453</ele>
        <time>2015-12-06T09:21:48.000Z</time>
      </trkpt>
      <trkpt lat="47.49119" lon="6.70637">
        <ele>453</ele>
        <time>2015-12-06T09:21:49.000Z</time>
      </trkpt>
      <trkpt lat="47.49118" lon="6.70631">
        <ele>453</ele>
        <time>2015-12-06T09:21:50.000Z</time>
      </trkpt>
      <trkpt lat="47.49116" lon="6.70626">
        <ele>453</ele>
        <time>2015-12-06T09:21:51.000Z</time>
      </trkpt>
      <trkpt lat="47.49115" lon="6.70622">
        <ele>453</ele>
        <time>2015-12-06T09:21:52.000Z</time>
      </trkpt>
      <trkpt lat="47.49113" lon="6.70619">
        <ele>453</ele>
        <time>2015-12-06T09:21:53.000Z</time>
      </trkpt>
      <trkpt lat="47.49112" lon="6.70616">
        <ele>453</ele>
        <time>2015-12-06T09:21:54.000Z</time>
      </trkpt>
      <trkpt lat="47.4911" lon="6.7061">
        <ele>453</ele>
        <time>2015-12-06T09:21:56.000Z</time>
      </trkpt>
      <trkpt lat="47.4911" lon="6.70608">
        <ele>453</ele>
        <time>2015-12-06T09:21:57.000Z</time>
      </trkpt>
      <trkpt lat="47.49109" lon="6.70602">
        <ele>453</ele>
        <time>2015-12-06T09:21:59.000Z</time>
      </trkpt>
      <trkpt lat="47.49108" lon="6.70598">
        <ele>453</ele>
        <time>2015-12-06T09:22:00.002Z</time>
      </trkpt>
      <trkpt lat="47.49106" lon="6.70592">
        <ele>453</ele>
        <time>2015-12-06T09:22:01.000Z</time>
      </trkpt>
      <trkpt lat="47.49104" lon="6.70587">
        <ele>453</ele>
        <time>2015-12-06T09:22:02.000Z</time>
      </trkpt>
      <trkpt lat="47.49102" lon="6.70582">
        <ele>453</ele>
        <time>2015-12-06T09:22:03.000Z</time>
      </trkpt>
      <trkpt lat="47.491" lon="6.70577">
        <ele>453</ele>
        <time>2015-12-06T09:22:04.000Z</time>
      </trkpt>
      <trkpt lat="47.49098" lon="6.70572">
        <ele>453</ele>
        <time>2015-12-06T09:22:05.000Z</time>
      </trkpt>
      <trkpt lat="47.49096" lon="6.70568">
        <ele>453</ele>
        <time>2015-12-06T09:22:06.000Z</time>
      </trkpt>
      <trkpt lat="47.49093" lon="6.70563">
        <ele>453</ele>
        <time>2015-12-06T09:22:07.000Z</time>
      </trkpt>
      <trkpt lat="47.49091" lon="6.70559">
        <ele>453</ele>
        <time>2015-12-06T09:22:08.000Z</time>
      </trkpt>
      <trkpt lat="47.49088" lon="6.70554">
        <ele>453</ele>
        <time>2015-12-06T09:22:09.000Z</time>
      </trkpt>
      <trkpt lat="47.49085" lon="6.7055">
        <ele>453</ele>
        <time>2015-12-06T09:22:10.000Z</time>
      </trkpt>
      <trkpt lat="47.49083" lon="6.70545">
        <ele>450</ele>
        <time>2015-12-06T09:22:11.000Z</time>
      </trkpt>
      <trkpt lat="47.49081" lon="6.70539">
        <ele>450</ele>
        <time>2015-12-06T09:22:12.000Z</time>
      </trkpt>
      <trkpt lat="47.49079" lon="6.70533">
        <ele>450</ele>
        <time>2015-12-06T09:22:13.000Z</time>
      </trkpt>
      <trkpt lat="47.49077" lon="6.70527">
        <ele>450</ele>
        <time>2015-12-06T09:22:14.000Z</time>
      </trkpt>
      <trkpt lat="47.49072" lon="6.70518">
        <ele>450</ele>
        <time>2015-12-06T09:22:15.000Z</time>
      </trkpt>
      <trkpt lat="47.4907" lon="6.70512">
        <ele>450</ele>
        <time>2015-12-06T09:22:16.000Z</time>
      </trkpt>
      <trkpt lat="47.49068" lon="6.70508">
        <ele>450</ele>
        <time>2015-12-06T09:22:17.000Z</time>
      </trkpt>
      <trkpt lat="47.49066" lon="6.70504">
        <ele>450</ele>
        <time>2015-12-06T09:22:18.000Z</time>
      </trkpt>
      <trkpt lat="47.49064" lon="6.70501">
        <ele>450</ele>
        <time>2015-12-06T09:22:19.000Z</time>
      </trkpt>
      <trkpt lat="47.49062" lon="6.70496">
        <ele>450</ele>
        <time>2015-12-06T09:22:20.000Z</time>
      </trkpt>
      <trkpt lat="47.49061" lon="6.70491">
        <ele>450</ele>
        <time>2015-12-06T09:22:21.000Z</time>
      </trkpt>
      <trkpt lat="47.49059" lon="6.70485">
        <ele>450</ele>
        <time>2015-12-06T09:22:22.000Z</time>
      </trkpt>
      <trkpt lat="47.49058" lon="6.7048">
        <ele>449</ele>
        <time>2015-12-06T09:22:23.000Z</time>
      </trkpt>
      <trkpt lat="47.49055" lon="6.70474">
        <ele>449</ele>
        <time>2015-12-06T09:22:24.000Z</time>
      </trkpt>
      <trkpt lat="47.4905" lon="6.70461">
        <ele>449</ele>
        <time>2015-12-06T09:22:25.000Z</time>
      </trkpt>
      <trkpt lat="47.49048" lon="6.70453">
        <ele>449</ele>
        <time>2015-12-06T09:22:26.000Z</time>
      </trkpt>
      <trkpt lat="47.49044" lon="6.70439">
        <ele>449</ele>
        <time>2015-12-06T09:22:27.000Z</time>
      </trkpt>
      <trkpt lat="47.49043" lon="6.70432">
        <ele>449</ele>
        <time>2015-12-06T09:22:28.000Z</time>
      </trkpt>
      <trkpt lat="47.49038" lon="6.70422">
        <ele>448</ele>
        <time>2015-12-06T09:22:29.000Z</time>
      </trkpt>
      <trkpt lat="47.49034" lon="6.70412">
        <ele>448</ele>
        <time>2015-12-06T09:22:30.000Z</time>
      </trkpt>
      <trkpt lat="47.49031" lon="6.70401">
        <ele>448</ele>
        <time>2015-12-06T09:22:31.000Z</time>
      </trkpt>
      <trkpt lat="47.49028" lon="6.7039">
        <ele>448</ele>
        <time>2015-12-06T09:22:32.000Z</time>
      </trkpt>
      <trkpt lat="47.49025" lon="6.7038">
        <ele>448</ele>
        <time>2015-12-06T09:22:33.000Z</time>
      </trkpt>
      <trkpt lat="47.49022" lon="6.7037">
        <ele>448</ele>
        <time>2015-12-06T09:22:34.000Z</time>
      </trkpt>
      <trkpt lat="47.49019" lon="6.70363">
        <ele>448</ele>
        <time>2015-12-06T09:22:35.000Z</time>
      </trkpt>
      <trkpt lat="47.49017" lon="6.70357">
        <ele>448</ele>
        <time>2015-12-06T09:22:35.999Z</time>
      </trkpt>
      <trkpt lat="47.49015" lon="6.70344">
        <ele>448</ele>
        <time>2015-12-06T09:22:37.000Z</time>
      </trkpt>
      <trkpt lat="47.49015" lon="6.70332">
        <ele>448</ele>
        <time>2015-12-06T09:22:38.000Z</time>
      </trkpt>
      <trkpt lat="47.49013" lon="6.70323">
        <ele>448</ele>
        <time>2015-12-06T09:22:39.001Z</time>
      </trkpt>
      <trkpt lat="47.49012" lon="6.70317">
        <ele>448</ele>
        <time>2015-12-06T09:22:40.000Z</time>
      </trkpt>
      <trkpt lat="47.4901" lon="6.70309">
        <ele>448</ele>
        <time>2015-12-06T09:22:41.001Z</time>
      </trkpt>
      <trkpt lat="47.49007" lon="6.703">
        <ele>448</ele>
        <time>2015-12-06T09:22:42.000Z</time>
      </trkpt>
      <trkpt lat="47.49006" lon="6.7029">
        <ele>448</ele>
        <time>2015-12-06T09:22:43.000Z</time>
      </trkpt>
      <trkpt lat="47.49004" lon="6.70281">
        <ele>447</ele>
        <time>2015-12-06T09:22:44.000Z</time>
      </trkpt>
      <trkpt lat="47.49003" lon="6.70274">
        <ele>447</ele>
        <time>2015-12-06T09:22:45.000Z</time>
      </trkpt>
      <trkpt lat="47.48999" lon="6.70264">
        <ele>442</ele>
        <time>2015-12-06T09:22:46.001Z</time>
      </trkpt>
      <trkpt lat="47.48998" lon="6.70259">
        <ele>443</ele>
        <time>2015-12-06T09:22:47.000Z</time>
      </trkpt>
      <trkpt lat="47.48996" lon="6.7025">
        <ele>444</ele>
        <time>2015-12-06T09:22:48.000Z</time>
      </trkpt>
      <trkpt lat="47.48994" lon="6.70241">
        <ele>443</ele>
        <time>2015-12-06T09:22:48.999Z</time>
      </trkpt>
      <trkpt lat="47.48993" lon="6.70231">
        <ele>441</ele>
        <time>2015-12-06T09:22:50.000Z</time>
      </trkpt>
      <trkpt lat="47.48991" lon="6.70223">
        <ele>440</ele>
        <time>2015-12-06T09:22:51.000Z</time>
      </trkpt>
      <trkpt lat="47.4899" lon="6.70214">
        <ele>440</ele>
        <time>2015-12-06T09:22:52.000Z</time>
      </trkpt>
      <trkpt lat="47.48988" lon="6.70206">
        <ele>440</ele>
        <time>2015-12-06T09:22:53.000Z</time>
      </trkpt>
      <trkpt lat="47.48985" lon="6.70202">
        <ele>440</ele>
        <time>2015-12-06T09:22:54.000Z</time>
      </trkpt>
      <trkpt lat="47.48983" lon="6.70194">
        <ele>439</ele>
        <time>2015-12-06T09:22:55.000Z</time>
      </trkpt>
      <trkpt lat="47.48981" lon="6.70187">
        <ele>439</ele>
        <time>2015-12-06T09:22:56.000Z</time>
      </trkpt>
      <trkpt lat="47.48977" lon="6.70178">
        <ele>439</ele>
        <time>2015-12-06T09:22:57.000Z</time>
      </trkpt>
      <trkpt lat="47.48976" lon="6.70165">
        <ele>437</ele>
        <time>2015-12-06T09:22:58.000Z</time>
      </trkpt>
      <trkpt lat="47.48975" lon="6.70155">
        <ele>437</ele>
        <time>2015-12-06T09:22:59.000Z</time>
      </trkpt>
      <trkpt lat="47.48973" lon="6.70144">
        <ele>436</ele>
        <time>2015-12-06T09:23:00.000Z</time>
      </trkpt>
      <trkpt lat="47.48971" lon="6.70134">
        <ele>435</ele>
        <time>2015-12-06T09:23:01.000Z</time>
      </trkpt>
      <trkpt lat="47.48968" lon="6.70126">
        <ele>434</ele>
        <time>2015-12-06T09:23:02.000Z</time>
      </trkpt>
      <trkpt lat="47.48963" lon="6.70119">
        <ele>434</ele>
        <time>2015-12-06T09:23:03.000Z</time>
      </trkpt>
      <trkpt lat="47.48959" lon="6.70111">
        <ele>433</ele>
        <time>2015-12-06T09:23:04.000Z</time>
      </trkpt>
      <trkpt lat="47.48957" lon="6.70105">
        <ele>433</ele>
        <time>2015-12-06T09:23:05.000Z</time>
      </trkpt>
      <trkpt lat="47.48955" lon="6.701">
        <ele>433</ele>
        <time>2015-12-06T09:23:06.000Z</time>
      </trkpt>
      <trkpt lat="47.48955" lon="6.70094">
        <ele>433</ele>
        <time>2015-12-06T09:23:07.000Z</time>
      </trkpt>
      <trkpt lat="47.48954" lon="6.7009">
        <ele>432</ele>
        <time>2015-12-06T09:23:08.000Z</time>
      </trkpt>
      <trkpt lat="47.4895" lon="6.70082">
        <ele>428</ele>
        <time>2015-12-06T09:23:09.001Z</time>
      </trkpt>
      <trkpt lat="47.48949" lon="6.70075">
        <ele>428</ele>
        <time>2015-12-06T09:23:10.000Z</time>
      </trkpt>
      <trkpt lat="47.48945" lon="6.70069">
        <ele>428</ele>
        <time>2015-12-06T09:23:11.000Z</time>
      </trkpt>
      <trkpt lat="47.48942" lon="6.70063">
        <ele>428</ele>
        <time>2015-12-06T09:23:12.000Z</time>
      </trkpt>
      <trkpt lat="47.48939" lon="6.70055">
        <ele>427</ele>
        <time>2015-12-06T09:23:13.000Z</time>
      </trkpt>
      <trkpt lat="47.48934" lon="6.70045">
        <ele>427</ele>
        <time>2015-12-06T09:23:14.000Z</time>
      </trkpt>
      <trkpt lat="47.48928" lon="6.70035">
        <ele>427</ele>
        <time>2015-12-06T09:23:15.000Z</time>
      </trkpt>
      <trkpt lat="47.48924" lon="6.70026">
        <ele>426</ele>
        <time>2015-12-06T09:23:16.000Z</time>
      </trkpt>
      <trkpt lat="47.48921" lon="6.70017">
        <ele>425</ele>
        <time>2015-12-06T09:23:17.000Z</time>
      </trkpt>
      <trkpt lat="47.48918" lon="6.70006">
        <ele>424</ele>
        <time>2015-12-06T09:23:18.000Z</time>
      </trkpt>
      <trkpt lat="47.48911" lon="6.69993">
        <ele>422</ele>
        <time>2015-12-06T09:23:19.000Z</time>
      </trkpt>
      <trkpt lat="47.48905" lon="6.69984">
        <ele>422</ele>
        <time>2015-12-06T09:23:20.000Z</time>
      </trkpt>
      <trkpt lat="47.489" lon="6.69972">
        <ele>421</ele>
        <time>2015-12-06T09:23:21.000Z</time>
      </trkpt>
      <trkpt lat="47.48895" lon="6.6996">
        <ele>421</ele>
        <time>2015-12-06T09:23:22.000Z</time>
      </trkpt>
      <trkpt lat="47.48889" lon="6.69946">
        <ele>420</ele>
        <time>2015-12-06T09:23:23.000Z</time>
      </trkpt>
      <trkpt lat="47.48882" lon="6.69936">
        <ele>420</ele>
        <time>2015-12-06T09:23:24.000Z</time>
      </trkpt>
      <trkpt lat="47.48875" lon="6.69925">
        <ele>420</ele>
        <time>2015-12-06T09:23:25.000Z</time>
      </trkpt>
      <trkpt lat="47.48868" lon="6.69915">
        <ele>415</ele>
        <time>2015-12-06T09:23:25.999Z</time>
      </trkpt>
      <trkpt lat="47.48861" lon="6.69902">
        <ele>415</ele>
        <time>2015-12-06T09:23:27.000Z</time>
      </trkpt>
      <trkpt lat="47.48855" lon="6.6989">
        <ele>414</ele>
        <time>2015-12-06T09:23:28.000Z</time>
      </trkpt>
      <trkpt lat="47.48848" lon="6.69881">
        <ele>414</ele>
        <time>2015-12-06T09:23:29.000Z</time>
      </trkpt>
      <trkpt lat="47.48841" lon="6.6987">
        <ele>413</ele>
        <time>2015-12-06T09:23:30.000Z</time>
      </trkpt>
      <trkpt lat="47.48834" lon="6.69859">
        <ele>412</ele>
        <time>2015-12-06T09:23:31.001Z</time>
      </trkpt>
      <trkpt lat="47.48828" lon="6.69848">
        <ele>409</ele>
        <time>2015-12-06T09:23:32.000Z</time>
      </trkpt>
      <trkpt lat="47.48821" lon="6.69836">
        <ele>409</ele>
        <time>2015-12-06T09:23:33.000Z</time>
      </trkpt>
      <trkpt lat="47.48814" lon="6.69824">
        <ele>405</ele>
        <time>2015-12-06T09:23:34.000Z</time>
      </trkpt>
      <trkpt lat="47.48806" lon="6.69813">
        <ele>405</ele>
        <time>2015-12-06T09:23:35.000Z</time>
      </trkpt>
      <trkpt lat="47.488" lon="6.69802">
        <ele>404</ele>
        <time>2015-12-06T09:23:35.999Z</time>
      </trkpt>
      <trkpt lat="47.48794" lon="6.69792">
        <ele>404</ele>
        <time>2015-12-06T09:23:37.000Z</time>
      </trkpt>
      <trkpt lat="47.48787" lon="6.69781">
        <ele>403</ele>
        <time>2015-12-06T09:23:38.001Z</time>
      </trkpt>
      <trkpt lat="47.4878" lon="6.69775">
        <ele>403</ele>
        <time>2015-12-06T09:23:39.000Z</time>
      </trkpt>
      <trkpt lat="47.48774" lon="6.6976">
        <ele>402</ele>
        <time>2015-12-06T09:23:40.000Z</time>
      </trkpt>
      <trkpt lat="47.48768" lon="6.69749">
        <ele>399</ele>
        <time>2015-12-06T09:23:41.000Z</time>
      </trkpt>
      <trkpt lat="47.4876" lon="6.69736">
        <ele>399</ele>
        <time>2015-12-06T09:23:42.000Z</time>
      </trkpt>
      <trkpt lat="47.48753" lon="6.69725">
        <ele>398</ele>
        <time>2015-12-06T09:23:43.000Z</time>
      </trkpt>
      <trkpt lat="47.48747" lon="6.69713">
        <ele>397</ele>
        <time>2015-12-06T09:23:44.000Z</time>
      </trkpt>
      <trkpt lat="47.48741" lon="6.69702">
        <ele>396</ele>
        <time>2015-12-06T09:23:44.999Z</time>
      </trkpt>
      <trkpt lat="47.48733" lon="6.69691">
        <ele>396</ele>
        <time>2015-12-06T09:23:46.000Z</time>
      </trkpt>
      <trkpt lat="47.48726" lon="6.6968">
        <ele>395</ele>
        <time>2015-12-06T09:23:47.000Z</time>
      </trkpt>
      <trkpt lat="47.48717" lon="6.69672">
        <ele>395</ele>
        <time>2015-12-06T09:23:48.000Z</time>
      </trkpt>
      <trkpt lat="47.4871" lon="6.69662">
        <ele>392</ele>
        <time>2015-12-06T09:23:49.000Z</time>
      </trkpt>
      <trkpt lat="47.48704" lon="6.69655">
        <ele>392</ele>
        <time>2015-12-06T09:23:50.000Z</time>
      </trkpt>
      <trkpt lat="47.48698" lon="6.69647">
        <ele>392</ele>
        <time>2015-12-06T09:23:51.000Z</time>
      </trkpt>
      <trkpt lat="47.48691" lon="6.69638">
        <ele>391</ele>
        <time>2015-12-06T09:23:52.000Z</time>
      </trkpt>
      <trkpt lat="47.48682" lon="6.69623">
        <ele>391</ele>
        <time>2015-12-06T09:23:53.001Z</time>
      </trkpt>
      <trkpt lat="47.48674" lon="6.69607">
        <ele>390</ele>
        <time>2015-12-06T09:23:54.000Z</time>
      </trkpt>
      <trkpt lat="47.48664" lon="6.69595">
        <ele>389</ele>
        <time>2015-12-06T09:23:55.000Z</time>
      </trkpt>
      <trkpt lat="47.48656" lon="6.69586">
        <ele>389</ele>
        <time>2015-12-06T09:23:56.000Z</time>
      </trkpt>
      <trkpt lat="47.48649" lon="6.69571">
        <ele>386</ele>
        <time>2015-12-06T09:23:57.000Z</time>
      </trkpt>
      <trkpt lat="47.4864" lon="6.6956">
        <ele>385</ele>
        <time>2015-12-06T09:23:58.000Z</time>
      </trkpt>
      <trkpt lat="47.48633" lon="6.69551">
        <ele>385</ele>
        <time>2015-12-06T09:23:59.000Z</time>
      </trkpt>
      <trkpt lat="47.48627" lon="6.69543">
        <ele>385</ele>
        <time>2015-12-06T09:24:00.000Z</time>
      </trkpt>
      <trkpt lat="47.4862" lon="6.69533">
        <ele>384</ele>
        <time>2015-12-06T09:24:01.000Z</time>
      </trkpt>
      <trkpt lat="47.48611" lon="6.69527">
        <ele>384</ele>
        <time>2015-12-06T09:24:02.000Z</time>
      </trkpt>
      <trkpt lat="47.48603" lon="6.6952">
        <ele>384</ele>
        <time>2015-12-06T09:24:03.000Z</time>
      </trkpt>
      <trkpt lat="47.48595" lon="6.69513">
        <ele>383</ele>
        <time>2015-12-06T09:24:04.001Z</time>
      </trkpt>
      <trkpt lat="47.48587" lon="6.69501">
        <ele>382</ele>
        <time>2015-12-06T09:24:05.001Z</time>
      </trkpt>
      <trkpt lat="47.4858" lon="6.69489">
        <ele>381</ele>
        <time>2015-12-06T09:24:06.000Z</time>
      </trkpt>
      <trkpt lat="47.48572" lon="6.6948">
        <ele>380</ele>
        <time>2015-12-06T09:24:06.999Z</time>
      </trkpt>
      <trkpt lat="47.48564" lon="6.69473">
        <ele>380</ele>
        <time>2015-12-06T09:24:08.001Z</time>
      </trkpt>
      <trkpt lat="47.48564" lon="6.69463">
        <ele>380</ele>
        <time>2015-12-06T09:24:09.000Z</time>
      </trkpt>
      <trkpt lat="47.48559" lon="6.69456">
        <ele>379</ele>
        <time>2015-12-06T09:24:10.000Z</time>
      </trkpt>
      <trkpt lat="47.48552" lon="6.69446">
        <ele>379</ele>
        <time>2015-12-06T09:24:11.000Z</time>
      </trkpt>
      <trkpt lat="47.48545" lon="6.69438">
        <ele>379</ele>
        <time>2015-12-06T09:24:12.000Z</time>
      </trkpt>
      <trkpt lat="47.4854" lon="6.6943">
        <ele>379</ele>
        <time>2015-12-06T09:24:13.000Z</time>
      </trkpt>
      <trkpt lat="47.48531" lon="6.69422">
        <ele>378</ele>
        <time>2015-12-06T09:24:14.000Z</time>
      </trkpt>
      <trkpt lat="47.48524" lon="6.69412">
        <ele>376</ele>
        <time>2015-12-06T09:24:15.000Z</time>
      </trkpt>
      <trkpt lat="47.48515" lon="6.69403">
        <ele>376</ele>
        <time>2015-12-06T09:24:16.000Z</time>
      </trkpt>
      <trkpt lat="47.48506" lon="6.69393">
        <ele>375</ele>
        <time>2015-12-06T09:24:17.000Z</time>
      </trkpt>
      <trkpt lat="47.48499" lon="6.69381">
        <ele>374</ele>
        <time>2015-12-06T09:24:18.000Z</time>
      </trkpt>
      <trkpt lat="47.48492" lon="6.69369">
        <ele>374</ele>
        <time>2015-12-06T09:24:19.000Z</time>
      </trkpt>
      <trkpt lat="47.48485" lon="6.69361">
        <ele>373</ele>
        <time>2015-12-06T09:24:20.000Z</time>
      </trkpt>
      <trkpt lat="47.48478" lon="6.6935">
        <ele>373</ele>
        <time>2015-12-06T09:24:21.000Z</time>
      </trkpt>
      <trkpt lat="47.48472" lon="6.6934">
        <ele>373</ele>
        <time>2015-12-06T09:24:22.000Z</time>
      </trkpt>
      <trkpt lat="47.48465" lon="6.6933">
        <ele>370</ele>
        <time>2015-12-06T09:24:23.000Z</time>
      </trkpt>
      <trkpt lat="47.48458" lon="6.6932">
        <ele>370</ele>
        <time>2015-12-06T09:24:24.000Z</time>
      </trkpt>
      <trkpt lat="47.48451" lon="6.6931">
        <ele>370</ele>
        <time>2015-12-06T09:24:25.000Z</time>
      </trkpt>
      <trkpt lat="47.48443" lon="6.69303">
        <ele>370</ele>
        <time>2015-12-06T09:24:26.000Z</time>
      </trkpt>
      <trkpt lat="47.48437" lon="6.69294">
        <ele>370</ele>
        <time>2015-12-06T09:24:27.000Z</time>
      </trkpt>
      <trkpt lat="47.48431" lon="6.69287">
        <ele>370</ele>
        <time>2015-12-06T09:24:28.000Z</time>
      </trkpt>
      <trkpt lat="47.48425" lon="6.69281">
        <ele>370</ele>
        <time>2015-12-06T09:24:29.000Z</time>
      </trkpt>
      <trkpt lat="47.48417" lon="6.69271">
        <ele>370</ele>
        <time>2015-12-06T09:24:30.000Z</time>
      </trkpt>
      <trkpt lat="47.4841" lon="6.69263">
        <ele>370</ele>
        <time>2015-12-06T09:24:31.000Z</time>
      </trkpt>
      <trkpt lat="47.48405" lon="6.69257">
        <ele>370</ele>
        <time>2015-12-06T09:24:32.000Z</time>
      </trkpt>
      <trkpt lat="47.484" lon="6.69251">
        <ele>370</ele>
        <time>2015-12-06T09:24:33.000Z</time>
      </trkpt>
      <trkpt lat="47.48395" lon="6.69247">
        <ele>370</ele>
        <time>2015-12-06T09:24:33.999Z</time>
      </trkpt>
      <trkpt lat="47.48388" lon="6.69244">
        <ele>369</ele>
        <time>2015-12-06T09:24:35.000Z</time>
      </trkpt>
      <trkpt lat="47.48381" lon="6.6924">
        <ele>369</ele>
        <time>2015-12-06T09:24:36.000Z</time>
      </trkpt>
      <trkpt lat="47.48374" lon="6.69238">
        <ele>369</ele>
        <time>2015-12-06T09:24:37.000Z</time>
      </trkpt>
      <trkpt lat="47.48368" lon="6.69236">
        <ele>369</ele>
        <time>2015-12-06T09:24:38.000Z</time>
      </trkpt>
      <trkpt lat="47.48361" lon="6.69235">
        <ele>369</ele>
        <time>2015-12-06T09:24:39.000Z</time>
      </trkpt>
      <trkpt lat="47.48354" lon="6.69232">
        <ele>368</ele>
        <time>2015-12-06T09:24:40.000Z</time>
      </trkpt>
      <trkpt lat="47.48349" lon="6.69228">
        <ele>368</ele>
        <time>2015-12-06T09:24:41.000Z</time>
      </trkpt>
      <trkpt lat="47.4834" lon="6.69223">
        <ele>368</ele>
        <time>2015-12-06T09:24:42.000Z</time>
      </trkpt>
      <trkpt lat="47.48334" lon="6.69219">
        <ele>368</ele>
        <time>2015-12-06T09:24:43.000Z</time>
      </trkpt>
      <trkpt lat="47.48329" lon="6.69216">
        <ele>363</ele>
        <time>2015-12-06T09:24:44.000Z</time>
      </trkpt>
      <trkpt lat="47.48324" lon="6.69218">
        <ele>363</ele>
        <time>2015-12-06T09:24:45.000Z</time>
      </trkpt>
      <trkpt lat="47.48318" lon="6.69223">
        <ele>363</ele>
        <time>2015-12-06T09:24:46.000Z</time>
      </trkpt>
      <trkpt lat="47.48312" lon="6.69226">
        <ele>363</ele>
        <time>2015-12-06T09:24:47.000Z</time>
      </trkpt>
      <trkpt lat="47.48307" lon="6.6923">
        <ele>362</ele>
        <time>2015-12-06T09:24:48.000Z</time>
      </trkpt>
      <trkpt lat="47.48302" lon="6.69235">
        <ele>362</ele>
        <time>2015-12-06T09:24:49.000Z</time>
      </trkpt>
      <trkpt lat="47.48297" lon="6.69238">
        <ele>362</ele>
        <time>2015-12-06T09:24:50.000Z</time>
      </trkpt>
      <trkpt lat="47.48289" lon="6.69237">
        <ele>361</ele>
        <time>2015-12-06T09:24:51.000Z</time>
      </trkpt>
      <trkpt lat="47.48281" lon="6.69233">
        <ele>360</ele>
        <time>2015-12-06T09:24:52.000Z</time>
      </trkpt>
      <trkpt lat="47.48275" lon="6.69228">
        <ele>360</ele>
        <time>2015-12-06T09:24:53.000Z</time>
      </trkpt>
      <trkpt lat="47.48268" lon="6.69229">
        <ele>359</ele>
        <time>2015-12-06T09:24:54.000Z</time>
      </trkpt>
      <trkpt lat="47.48262" lon="6.69228">
        <ele>359</ele>
        <time>2015-12-06T09:24:55.000Z</time>
      </trkpt>
      <trkpt lat="47.48258" lon="6.69223">
        <ele>359</ele>
        <time>2015-12-06T09:24:56.000Z</time>
      </trkpt>
      <trkpt lat="47.48255" lon="6.69218">
        <ele>359</ele>
        <time>2015-12-06T09:24:57.000Z</time>
      </trkpt>
      <trkpt lat="47.48252" lon="6.69211">
        <ele>359</ele>
        <time>2015-12-06T09:24:58.000Z</time>
      </trkpt>
      <trkpt lat="47.48249" lon="6.69205">
        <ele>354</ele>
        <time>2015-12-06T09:24:59.000Z</time>
      </trkpt>
      <trkpt lat="47.48247" lon="6.69199">
        <ele>354</ele>
        <time>2015-12-06T09:25:00.000Z</time>
      </trkpt>
      <trkpt lat="47.48244" lon="6.69193">
        <ele>354</ele>
        <time>2015-12-06T09:25:01.000Z</time>
      </trkpt>
      <trkpt lat="47.48241" lon="6.69188">
        <ele>354</ele>
        <time>2015-12-06T09:25:02.000Z</time>
      </trkpt>
      <trkpt lat="47.48239" lon="6.69182">
        <ele>354</ele>
        <time>2015-12-06T09:25:03.000Z</time>
      </trkpt>
      <trkpt lat="47.48237" lon="6.69176">
        <ele>354</ele>
        <time>2015-12-06T09:25:04.000Z</time>
      </trkpt>
      <trkpt lat="47.48235" lon="6.69171">
        <ele>354</ele>
        <time>2015-12-06T09:25:05.000Z</time>
      </trkpt>
      <trkpt lat="47.48233" lon="6.69167">
        <ele>354</ele>
        <time>2015-12-06T09:25:06.000Z</time>
      </trkpt>
      <trkpt lat="47.48232" lon="6.69163">
        <ele>354</ele>
        <time>2015-12-06T09:25:07.000Z</time>
      </trkpt>
      <trkpt lat="47.48231" lon="6.69157">
        <ele>354</ele>
        <time>2015-12-06T09:25:08.000Z</time>
      </trkpt>
      <trkpt lat="47.48229" lon="6.69152">
        <ele>354</ele>
        <time>2015-12-06T09:25:09.000Z</time>
      </trkpt>
      <trkpt lat="47.48226" lon="6.69147">
        <ele>354</ele>
        <time>2015-12-06T09:25:11.000Z</time>
      </trkpt>
      <trkpt lat="47.48225" lon="6.69144">
        <ele>354</ele>
        <time>2015-12-06T09:25:12.000Z</time>
      </trkpt>
      <trkpt lat="47.48223" lon="6.6914">
        <ele>354</ele>
        <time>2015-12-06T09:25:14.000Z</time>
      </trkpt>
      <trkpt lat="47.48222" lon="6.69137">
        <ele>354</ele>
        <time>2015-12-06T09:25:15.000Z</time>
      </trkpt>
      <trkpt lat="47.48218" lon="6.69135">
        <ele>354</ele>
        <time>2015-12-06T09:25:29.000Z</time>
      </trkpt>
      <trkpt lat="47.48217" lon="6.69135">
        <ele>354</ele>
        <time>2015-12-06T09:25:30.000Z</time>
      </trkpt>
      <trkpt lat="47.48214" lon="6.69133">
        <ele>354</ele>
        <time>2015-12-06T09:25:40.000Z</time>
      </trkpt>
      <trkpt lat="47.48213" lon="6.69131">
        <ele>354</ele>
        <time>2015-12-06T09:25:41.000Z</time>
      </trkpt>
      <trkpt lat="47.48211" lon="6.69128">
        <ele>354</ele>
        <time>2015-12-06T09:25:42.000Z</time>
      </trkpt>
      <trkpt lat="47.4821" lon="6.69123">
        <ele>354</ele>
        <time>2015-12-06T09:25:43.000Z</time>
      </trkpt>
      <trkpt lat="47.48208" lon="6.69118">
        <ele>354</ele>
        <time>2015-12-06T09:25:44.000Z</time>
      </trkpt>
      <trkpt lat="47.48206" lon="6.69114">
        <ele>354</ele>
        <time>2015-12-06T09:25:45.000Z</time>
      </trkpt>
      <trkpt lat="47.48205" lon="6.69107">
        <ele>354</ele>
        <time>2015-12-06T09:25:46.000Z</time>
      </trkpt>
      <trkpt lat="47.48204" lon="6.69103">
        <ele>354</ele>
        <time>2015-12-06T09:25:47.000Z</time>
      </trkpt>
      <trkpt lat="47.48204" lon="6.69099">
        <ele>354</ele>
        <time>2015-12-06T09:25:48.000Z</time>
      </trkpt>
      <trkpt lat="47.48207" lon="6.69095">
        <ele>354</ele>
        <time>2015-12-06T09:25:50.000Z</time>
      </trkpt>
      <trkpt lat="47.48207" lon="6.69093">
        <ele>354</ele>
        <time>2015-12-06T09:25:51.000Z</time>
      </trkpt>
      <trkpt lat="47.48209" lon="6.69098">
        <ele>354</ele>
        <time>2015-12-06T09:25:58.000Z</time>
      </trkpt>
      <trkpt lat="47.48209" lon="6.69099">
        <ele>354</ele>
        <time>2015-12-06T09:25:58.998Z</time>
      </trkpt>
      <trkpt lat="47.48212" lon="6.69094">
        <ele>354</ele>
        <time>2015-12-06T09:26:59.000Z</time>
      </trkpt>
      <trkpt lat="47.48213" lon="6.69092">
        <ele>354</ele>
        <time>2015-12-06T09:26:59.999Z</time>
      </trkpt>
      <trkpt lat="47.48213" lon="6.69088">
        <ele>354</ele>
        <time>2015-12-06T09:27:02.000Z</time>
      </trkpt>
      <trkpt lat="47.48214" lon="6.69086">
        <ele>354</ele>
        <time>2015-12-06T09:27:03.000Z</time>
      </trkpt>
      <trkpt lat="47.48216" lon="6.69081">
        <ele>355</ele>
        <time>2015-12-06T09:27:05.000Z</time>
      </trkpt>
      <trkpt lat="47.48218" lon="6.69077">
        <ele>355</ele>
        <time>2015-12-06T09:27:06.000Z</time>
      </trkpt>
      <trkpt lat="47.4822" lon="6.69074">
        <ele>355</ele>
        <time>2015-12-06T09:27:07.000Z</time>
      </trkpt>
      <trkpt lat="47.48222" lon="6.6907">
        <ele>355</ele>
        <time>2015-12-06T09:27:08.000Z</time>
      </trkpt>
      <trkpt lat="47.48224" lon="6.69067">
        <ele>355</ele>
        <time>2015-12-06T09:27:08.999Z</time>
      </trkpt>
      <trkpt lat="47.48226" lon="6.69065">
        <ele>355</ele>
        <time>2015-12-06T09:27:10.000Z</time>
      </trkpt>
      <trkpt lat="47.48228" lon="6.69063">
        <ele>355</ele>
        <time>2015-12-06T09:27:11.000Z</time>
      </trkpt>
      <trkpt lat="47.4823" lon="6.69061">
        <ele>355</ele>
        <time>2015-12-06T09:27:12.000Z</time>
      </trkpt>
      <trkpt lat="47.48233" lon="6.69058">
        <ele>355</ele>
        <time>2015-12-06T09:27:13.000Z</time>
      </trkpt>
      <trkpt lat="47.48235" lon="6.69053">
        <ele>355</ele>
        <time>2015-12-06T09:27:14.000Z</time>
      </trkpt>
      <trkpt lat="47.48237" lon="6.69049">
        <ele>355</ele>
        <time>2015-12-06T09:27:15.000Z</time>
      </trkpt>
      <trkpt lat="47.48239" lon="6.69046">
        <ele>355</ele>
        <time>2015-12-06T09:27:16.000Z</time>
      </trkpt>
      <trkpt lat="47.48241" lon="6.69042">
        <ele>355</ele>
        <time>2015-12-06T09:27:17.000Z</time>
      </trkpt>
      <trkpt lat="47.48243" lon="6.69039">
        <ele>355</ele>
        <time>2015-12-06T09:27:18.000Z</time>
      </trkpt>
      <trkpt lat="47.48245" lon="6.69036">
        <ele>355</ele>
        <time>2015-12-06T09:27:19.000Z</time>
      </trkpt>
      <trkpt lat="47.48248" lon="6.69032">
        <ele>355</ele>
        <time>2015-12-06T09:27:20.000Z</time>
      </trkpt>
      <trkpt lat="47.4825" lon="6.69028">
        <ele>357</ele>
        <time>2015-12-06T09:27:21.000Z</time>
      </trkpt>
      <trkpt lat="47.48253" lon="6.69024">
        <ele>357</ele>
        <time>2015-12-06T09:27:22.000Z</time>
      </trkpt>
      <trkpt lat="47.48255" lon="6.6902">
        <ele>357</ele>
        <time>2015-12-06T09:27:23.000Z</time>
      </trkpt>
      <trkpt lat="47.48258" lon="6.69016">
        <ele>357</ele>
        <time>2015-12-06T09:27:24.000Z</time>
      </trkpt>
      <trkpt lat="47.48261" lon="6.69013">
        <ele>357</ele>
        <time>2015-12-06T09:27:25.000Z</time>
      </trkpt>
      <trkpt lat="47.48265" lon="6.69011">
        <ele>357</ele>
        <time>2015-12-06T09:27:26.000Z</time>
      </trkpt>
      <trkpt lat="47.48268" lon="6.69009">
        <ele>357</ele>
        <time>2015-12-06T09:27:27.000Z</time>
      </trkpt>
      <trkpt lat="47.48272" lon="6.69008">
        <ele>357</ele>
        <time>2015-12-06T09:27:28.000Z</time>
      </trkpt>
      <trkpt lat="47.48275" lon="6.69007">
        <ele>357</ele>
        <time>2015-12-06T09:27:29.000Z</time>
      </trkpt>
      <trkpt lat="47.48279" lon="6.69007">
        <ele>357</ele>
        <time>2015-12-06T09:27:30.000Z</time>
      </trkpt>
      <trkpt lat="47.48282" lon="6.69007">
        <ele>357</ele>
        <time>2015-12-06T09:27:31.000Z</time>
      </trkpt>
      <trkpt lat="47.48286" lon="6.69007">
        <ele>357</ele>
        <time>2015-12-06T09:27:32.000Z</time>
      </trkpt>
      <trkpt lat="47.4829" lon="6.69007">
        <ele>357</ele>
        <time>2015-12-06T09:27:33.000Z</time>
      </trkpt>
      <trkpt lat="47.48294" lon="6.69008">
        <ele>357</ele>
        <time>2015-12-06T09:27:34.000Z</time>
      </trkpt>
      <trkpt lat="47.48298" lon="6.69009">
        <ele>357</ele>
        <time>2015-12-06T09:27:35.000Z</time>
      </trkpt>
      <trkpt lat="47.48302" lon="6.6901">
        <ele>357</ele>
        <time>2015-12-06T09:27:36.000Z</time>
      </trkpt>
      <trkpt lat="47.48306" lon="6.69012">
        <ele>357</ele>
        <time>2015-12-06T09:27:37.000Z</time>
      </trkpt>
      <trkpt lat="47.4831" lon="6.69013">
        <ele>357</ele>
        <time>2015-12-06T09:27:38.000Z</time>
      </trkpt>
      <trkpt lat="47.48314" lon="6.69013">
        <ele>357</ele>
        <time>2015-12-06T09:27:39.000Z</time>
      </trkpt>
      <trkpt lat="47.48318" lon="6.69014">
        <ele>357</ele>
        <time>2015-12-06T09:27:40.000Z</time>
      </trkpt>
      <trkpt lat="47.48322" lon="6.69014">
        <ele>356</ele>
        <time>2015-12-06T09:27:41.000Z</time>
      </trkpt>
      <trkpt lat="47.48327" lon="6.69019">
        <ele>357</ele>
        <time>2015-12-06T09:27:42.000Z</time>
      </trkpt>
      <trkpt lat="47.4833" lon="6.69021">
        <ele>357</ele>
        <time>2015-12-06T09:27:43.000Z</time>
      </trkpt>
      <trkpt lat="47.48333" lon="6.69021">
        <ele>359</ele>
        <time>2015-12-06T09:27:44.000Z</time>
      </trkpt>
      <trkpt lat="47.48338" lon="6.69021">
        <ele>359</ele>
        <time>2015-12-06T09:27:45.000Z</time>
      </trkpt>
      <trkpt lat="47.48341" lon="6.6902">
        <ele>359</ele>
        <time>2015-12-06T09:27:46.000Z</time>
      </trkpt>
      <trkpt lat="47.48345" lon="6.6902">
        <ele>359</ele>
        <time>2015-12-06T09:27:47.000Z</time>
      </trkpt>
      <trkpt lat="47.48349" lon="6.69019">
        <ele>359</ele>
        <time>2015-12-06T09:27:48.000Z</time>
      </trkpt>
      <trkpt lat="47.48353" lon="6.69021">
        <ele>359</ele>
        <time>2015-12-06T09:27:49.000Z</time>
      </trkpt>
      <trkpt lat="47.48357" lon="6.69019">
        <ele>360</ele>
        <time>2015-12-06T09:27:50.000Z</time>
      </trkpt>
      <trkpt lat="47.4836" lon="6.69019">
        <ele>360</ele>
        <time>2015-12-06T09:27:51.000Z</time>
      </trkpt>
      <trkpt lat="47.48364" lon="6.69017">
        <ele>360</ele>
        <time>2015-12-06T09:27:52.000Z</time>
      </trkpt>
      <trkpt lat="47.48367" lon="6.69015">
        <ele>360</ele>
        <time>2015-12-06T09:27:53.000Z</time>
      </trkpt>
      <trkpt lat="47.48371" lon="6.69012">
        <ele>360</ele>
        <time>2015-12-06T09:27:54.000Z</time>
      </trkpt>
      <trkpt lat="47.48374" lon="6.69008">
        <ele>360</ele>
        <time>2015-12-06T09:27:55.000Z</time>
      </trkpt>
      <trkpt lat="47.48377" lon="6.69004">
        <ele>360</ele>
        <time>2015-12-06T09:27:56.000Z</time>
      </trkpt>
      <trkpt lat="47.48379" lon="6.69">
        <ele>360</ele>
        <time>2015-12-06T09:27:57.000Z</time>
      </trkpt>
      <trkpt lat="47.48382" lon="6.68996">
        <ele>356</ele>
        <time>2015-12-06T09:27:58.000Z</time>
      </trkpt>
      <trkpt lat="47.48384" lon="6.68992">
        <ele>356</ele>
        <time>2015-12-06T09:27:59.000Z</time>
      </trkpt>
      <trkpt lat="47.48386" lon="6.68987">
        <ele>356</ele>
        <time>2015-12-06T09:28:00.000Z</time>
      </trkpt>
      <trkpt lat="47.48388" lon="6.68982">
        <ele>356</ele>
        <time>2015-12-06T09:28:01.000Z</time>
      </trkpt>
      <trkpt lat="47.4839" lon="6.68977">
        <ele>356</ele>
        <time>2015-12-06T09:28:02.000Z</time>
      </trkpt>
      <trkpt lat="47.48392" lon="6.68971">
        <ele>355</ele>
        <time>2015-12-06T09:28:03.000Z</time>
      </trkpt>
      <trkpt lat="47.48394" lon="6.68966">
        <ele>355</ele>
        <time>2015-12-06T09:28:04.000Z</time>
      </trkpt>
      <trkpt lat="47.48396" lon="6.68961">
        <ele>355</ele>
        <time>2015-12-06T09:28:05.000Z</time>
      </trkpt>
      <trkpt lat="47.48398" lon="6.68956">
        <ele>354</ele>
        <time>2015-12-06T09:28:06.000Z</time>
      </trkpt>
      <trkpt lat="47.484" lon="6.68951">
        <ele>354</ele>
        <time>2015-12-06T09:28:07.000Z</time>
      </trkpt>
      <trkpt lat="47.48402" lon="6.68946">
        <ele>354</ele>
        <time>2015-12-06T09:28:08.000Z</time>
      </trkpt>
      <trkpt lat="47.48404" lon="6.68941">
        <ele>354</ele>
        <time>2015-12-06T09:28:09.000Z</time>
      </trkpt>
      <trkpt lat="47.48407" lon="6.68935">
        <ele>353</ele>
        <time>2015-12-06T09:28:10.000Z</time>
      </trkpt>
      <trkpt lat="47.48409" lon="6.68929">
        <ele>353</ele>
        <time>2015-12-06T09:28:11.000Z</time>
      </trkpt>
      <trkpt lat="47.48411" lon="6.68924">
        <ele>353</ele>
        <time>2015-12-06T09:28:12.000Z</time>
      </trkpt>
      <trkpt lat="47.48414" lon="6.68918">
        <ele>352</ele>
        <time>2015-12-06T09:28:13.000Z</time>
      </trkpt>
      <trkpt lat="47.48416" lon="6.68913">
        <ele>352</ele>
        <time>2015-12-06T09:28:14.000Z</time>
      </trkpt>
      <trkpt lat="47.48418" lon="6.68906">
        <ele>351</ele>
        <time>2015-12-06T09:28:15.000Z</time>
      </trkpt>
      <trkpt lat="47.48421" lon="6.68901">
        <ele>351</ele>
        <time>2015-12-06T09:28:16.000Z</time>
      </trkpt>
      <trkpt lat="47.48423" lon="6.68896">
        <ele>351</ele>
        <time>2015-12-06T09:28:17.000Z</time>
      </trkpt>
      <trkpt lat="47.48424" lon="6.68889">
        <ele>351</ele>
        <time>2015-12-06T09:28:18.000Z</time>
      </trkpt>
      <trkpt lat="47.48426" lon="6.68883">
        <ele>351</ele>
        <time>2015-12-06T09:28:19.000Z</time>
      </trkpt>
      <trkpt lat="47.48429" lon="6.68874">
        <ele>351</ele>
        <time>2015-12-06T09:28:20.000Z</time>
      </trkpt>
      <trkpt lat="47.48431" lon="6.68865">
        <ele>350</ele>
        <time>2015-12-06T09:28:21.000Z</time>
      </trkpt>
      <trkpt lat="47.48433" lon="6.68857">
        <ele>350</ele>
        <time>2015-12-06T09:28:22.000Z</time>
      </trkpt>
      <trkpt lat="47.48435" lon="6.68849">
        <ele>350</ele>
        <time>2015-12-06T09:28:23.000Z</time>
      </trkpt>
      <trkpt lat="47.48439" lon="6.68846">
        <ele>350</ele>
        <time>2015-12-06T09:28:24.000Z</time>
      </trkpt>
      <trkpt lat="47.48441" lon="6.68836">
        <ele>350</ele>
        <time>2015-12-06T09:28:25.000Z</time>
      </trkpt>
      <trkpt lat="47.48443" lon="6.68828">
        <ele>348</ele>
        <time>2015-12-06T09:28:26.000Z</time>
      </trkpt>
      <trkpt lat="47.48445" lon="6.6882">
        <ele>348</ele>
        <time>2015-12-06T09:28:27.000Z</time>
      </trkpt>
      <trkpt lat="47.48448" lon="6.68812">
        <ele>348</ele>
        <time>2015-12-06T09:28:28.000Z</time>
      </trkpt>
      <trkpt lat="47.48451" lon="6.68804">
        <ele>347</ele>
        <time>2015-12-06T09:28:29.000Z</time>
      </trkpt>
      <trkpt lat="47.48454" lon="6.68796">
        <ele>347</ele>
        <time>2015-12-06T09:28:30.000Z</time>
      </trkpt>
      <trkpt lat="47.48457" lon="6.68789">
        <ele>347</ele>
        <time>2015-12-06T09:28:31.000Z</time>
      </trkpt>
      <trkpt lat="47.4846" lon="6.68782">
        <ele>347</ele>
        <time>2015-12-06T09:28:32.000Z</time>
      </trkpt>
      <trkpt lat="47.48464" lon="6.68776">
        <ele>347</ele>
        <time>2015-12-06T09:28:33.000Z</time>
      </trkpt>
      <trkpt lat="47.48468" lon="6.68773">
        <ele>346</ele>
        <time>2015-12-06T09:28:34.000Z</time>
      </trkpt>
      <trkpt lat="47.48472" lon="6.68769">
        <ele>346</ele>
        <time>2015-12-06T09:28:35.000Z</time>
      </trkpt>
      <trkpt lat="47.48481" lon="6.6877">
        <ele>346</ele>
        <time>2015-12-06T09:28:36.000Z</time>
      </trkpt>
      <trkpt lat="47.48486" lon="6.68765">
        <ele>346</ele>
        <time>2015-12-06T09:28:37.000Z</time>
      </trkpt>
      <trkpt lat="47.4849" lon="6.68762">
        <ele>345</ele>
        <time>2015-12-06T09:28:38.000Z</time>
      </trkpt>
      <trkpt lat="47.48494" lon="6.68756">
        <ele>345</ele>
        <time>2015-12-06T09:28:39.000Z</time>
      </trkpt>
      <trkpt lat="47.48497" lon="6.68748">
        <ele>344</ele>
        <time>2015-12-06T09:28:40.000Z</time>
      </trkpt>
      <trkpt lat="47.48502" lon="6.68742">
        <ele>343</ele>
        <time>2015-12-06T09:28:41.000Z</time>
      </trkpt>
      <trkpt lat="47.48503" lon="6.68732">
        <ele>343</ele>
        <time>2015-12-06T09:28:42.000Z</time>
      </trkpt>
      <trkpt lat="47.48506" lon="6.68723">
        <ele>342</ele>
        <time>2015-12-06T09:28:43.000Z</time>
      </trkpt>
      <trkpt lat="47.48504" lon="6.68718">
        <ele>342</ele>
        <time>2015-12-06T09:28:44.000Z</time>
      </trkpt>
      <trkpt lat="47.48504" lon="6.68712">
        <ele>342</ele>
        <time>2015-12-06T09:28:45.000Z</time>
      </trkpt>
      <trkpt lat="47.48504" lon="6.68705">
        <ele>341</ele>
        <time>2015-12-06T09:28:46.000Z</time>
      </trkpt>
      <trkpt lat="47.48507" lon="6.68703">
        <ele>341</ele>
        <time>2015-12-06T09:28:47.000Z</time>
      </trkpt>
      <trkpt lat="47.48508" lon="6.68699">
        <ele>341</ele>
        <time>2015-12-06T09:28:48.000Z</time>
      </trkpt>
      <trkpt lat="47.4851" lon="6.68696">
        <ele>341</ele>
        <time>2015-12-06T09:28:49.000Z</time>
      </trkpt>
      <trkpt lat="47.48516" lon="6.68691">
        <ele>341</ele>
        <time>2015-12-06T09:28:50.000Z</time>
      </trkpt>
      <trkpt lat="47.48527" lon="6.68691">
        <ele>341</ele>
        <time>2015-12-06T09:28:51.000Z</time>
      </trkpt>
      <trkpt lat="47.48533" lon="6.68689">
        <ele>341</ele>
        <time>2015-12-06T09:28:52.000Z</time>
      </trkpt>
      <trkpt lat="47.48539" lon="6.68687">
        <ele>342</ele>
        <time>2015-12-06T09:28:53.000Z</time>
      </trkpt>
      <trkpt lat="47.48543" lon="6.68686">
        <ele>342</ele>
        <time>2015-12-06T09:28:54.000Z</time>
      </trkpt>
      <trkpt lat="47.48547" lon="6.68686">
        <ele>342</ele>
        <time>2015-12-06T09:28:55.000Z</time>
      </trkpt>
      <trkpt lat="47.4855" lon="6.68684">
        <ele>342</ele>
        <time>2015-12-06T09:28:56.000Z</time>
      </trkpt>
      <trkpt lat="47.48552" lon="6.68682">
        <ele>342</ele>
        <time>2015-12-06T09:28:57.000Z</time>
      </trkpt>
      <trkpt lat="47.48554" lon="6.6868">
        <ele>342</ele>
        <time>2015-12-06T09:28:58.000Z</time>
      </trkpt>
      <trkpt lat="47.48556" lon="6.68676">
        <ele>342</ele>
        <time>2015-12-06T09:28:59.000Z</time>
      </trkpt>
      <trkpt lat="47.48557" lon="6.68673">
        <ele>342</ele>
        <time>2015-12-06T09:29:00.000Z</time>
      </trkpt>
      <trkpt lat="47.48557" lon="6.68669">
        <ele>342</ele>
        <time>2015-12-06T09:29:01.000Z</time>
      </trkpt>
      <trkpt lat="47.48559" lon="6.68665">
        <ele>342</ele>
        <time>2015-12-06T09:29:03.000Z</time>
      </trkpt>
      <trkpt lat="47.4856" lon="6.68663">
        <ele>342</ele>
        <time>2015-12-06T09:29:04.000Z</time>
      </trkpt>
      <trkpt lat="47.48561" lon="6.68658">
        <ele>342</ele>
        <time>2015-12-06T09:29:08.002Z</time>
      </trkpt>
      <trkpt lat="47.48561" lon="6.68656">
        <ele>342</ele>
        <time>2015-12-06T09:29:09.000Z</time>
      </trkpt>
      <trkpt lat="47.48562" lon="6.68649">
        <ele>342</ele>
        <time>2015-12-06T09:29:13.000Z</time>
      </trkpt>
      <trkpt lat="47.48563" lon="6.68648">
        <ele>342</ele>
        <time>2015-12-06T09:29:14.000Z</time>
      </trkpt>
      <trkpt lat="47.48566" lon="6.68644">
        <ele>343</ele>
        <time>2015-12-06T09:29:19.000Z</time>
      </trkpt>
      <trkpt lat="47.48566" lon="6.68643">
        <ele>343</ele>
        <time>2015-12-06T09:29:20.000Z</time>
      </trkpt>
      <trkpt lat="47.48568" lon="6.68637">
        <ele>343</ele>
        <time>2015-12-06T09:29:24.000Z</time>
      </trkpt>
      <trkpt lat="47.48569" lon="6.68636">
        <ele>343</ele>
        <time>2015-12-06T09:29:25.000Z</time>
      </trkpt>
      <trkpt lat="47.48573" lon="6.68635">
        <ele>343</ele>
        <time>2015-12-06T09:29:28.000Z</time>
      </trkpt>
      <trkpt lat="47.48573" lon="6.68633">
        <ele>343</ele>
        <time>2015-12-06T09:29:29.000Z</time>
      </trkpt>
      <trkpt lat="47.48574" lon="6.68627">
        <ele>343</ele>
        <time>2015-12-06T09:29:32.001Z</time>
      </trkpt>
      <trkpt lat="47.48575" lon="6.68626">
        <ele>343</ele>
        <time>2015-12-06T09:29:33.000Z</time>
      </trkpt>
      <trkpt lat="47.48578" lon="6.68623">
        <ele>343</ele>
        <time>2015-12-06T09:29:38.000Z</time>
      </trkpt>
      <trkpt lat="47.48578" lon="6.68621">
        <ele>343</ele>
        <time>2015-12-06T09:29:39.000Z</time>
      </trkpt>
      <trkpt lat="47.48578" lon="6.68615">
        <ele>343</ele>
        <time>2015-12-06T09:29:41.000Z</time>
      </trkpt>
      <trkpt lat="47.48578" lon="6.68613">
        <ele>343</ele>
        <time>2015-12-06T09:29:42.000Z</time>
      </trkpt>
      <trkpt lat="47.48581" lon="6.68607">
        <ele>344</ele>
        <time>2015-12-06T09:29:53.001Z</time>
      </trkpt>
      <trkpt lat="47.48581" lon="6.68606">
        <ele>344</ele>
        <time>2015-12-06T09:29:54.000Z</time>
      </trkpt>
      <trkpt lat="47.48582" lon="6.68601">
        <ele>344</ele>
        <time>2015-12-06T09:29:57.000Z</time>
      </trkpt>
      <trkpt lat="47.48582" lon="6.68598">
        <ele>344</ele>
        <time>2015-12-06T09:29:58.000Z</time>
      </trkpt>
      <trkpt lat="47.48583" lon="6.68593">
        <ele>345</ele>
        <time>2015-12-06T09:30:00.000Z</time>
      </trkpt>
      <trkpt lat="47.48584" lon="6.68591">
        <ele>346</ele>
        <time>2015-12-06T09:30:01.000Z</time>
      </trkpt>
      <trkpt lat="47.48584" lon="6.68586">
        <ele>346</ele>
        <time>2015-12-06T09:30:03.000Z</time>
      </trkpt>
      <trkpt lat="47.48584" lon="6.68584">
        <ele>346</ele>
        <time>2015-12-06T09:30:04.000Z</time>
      </trkpt>
      <trkpt lat="47.48584" lon="6.68579">
        <ele>346</ele>
        <time>2015-12-06T09:30:06.000Z</time>
      </trkpt>
      <trkpt lat="47.48583" lon="6.68576">
        <ele>346</ele>
        <time>2015-12-06T09:30:07.000Z</time>
      </trkpt>
      <trkpt lat="47.48582" lon="6.6857">
        <ele>346</ele>
        <time>2015-12-06T09:30:10.000Z</time>
      </trkpt>
      <trkpt lat="47.48582" lon="6.68568">
        <ele>346</ele>
        <time>2015-12-06T09:30:11.000Z</time>
      </trkpt>
      <trkpt lat="47.48583" lon="6.68563">
        <ele>346</ele>
        <time>2015-12-06T09:30:14.000Z</time>
      </trkpt>
      <trkpt lat="47.48583" lon="6.68561">
        <ele>346</ele>
        <time>2015-12-06T09:30:15.000Z</time>
      </trkpt>
      <trkpt lat="47.48584" lon="6.68557">
        <ele>347</ele>
        <time>2015-12-06T09:30:17.000Z</time>
      </trkpt>
      <trkpt lat="47.48584" lon="6.68554">
        <ele>347</ele>
        <time>2015-12-06T09:30:18.000Z</time>
      </trkpt>
      <trkpt lat="47.48584" lon="6.68549">
        <ele>348</ele>
        <time>2015-12-06T09:30:20.000Z</time>
      </trkpt>
      <trkpt lat="47.48584" lon="6.68547">
        <ele>348</ele>
        <time>2015-12-06T09:30:21.000Z</time>
      </trkpt>
      <trkpt lat="47.48584" lon="6.68542">
        <ele>348</ele>
        <time>2015-12-06T09:30:23.000Z</time>
      </trkpt>
      <trkpt lat="47.48584" lon="6.68539">
        <ele>348</ele>
        <time>2015-12-06T09:30:24.000Z</time>
      </trkpt>
      <trkpt lat="47.48584" lon="6.68534">
        <ele>348</ele>
        <time>2015-12-06T09:30:27.000Z</time>
      </trkpt>
      <trkpt lat="47.48585" lon="6.68532">
        <ele>348</ele>
        <time>2015-12-06T09:30:28.000Z</time>
      </trkpt>
      <trkpt lat="47.48586" lon="6.68527">
        <ele>348</ele>
        <time>2015-12-06T09:30:30.000Z</time>
      </trkpt>
      <trkpt lat="47.48586" lon="6.68524">
        <ele>348</ele>
        <time>2015-12-06T09:30:31.000Z</time>
      </trkpt>
      <trkpt lat="47.48587" lon="6.68519">
        <ele>348</ele>
        <time>2015-12-06T09:30:33.000Z</time>
      </trkpt>
      <trkpt lat="47.48588" lon="6.68517">
        <ele>348</ele>
        <time>2015-12-06T09:30:34.000Z</time>
      </trkpt>
      <trkpt lat="47.4859" lon="6.68512">
        <ele>349</ele>
        <time>2015-12-06T09:30:36.000Z</time>
      </trkpt>
      <trkpt lat="47.48592" lon="6.68509">
        <ele>349</ele>
        <time>2015-12-06T09:30:37.000Z</time>
      </trkpt>
      <trkpt lat="47.48594" lon="6.68504">
        <ele>349</ele>
        <time>2015-12-06T09:30:39.000Z</time>
      </trkpt>
      <trkpt lat="47.48595" lon="6.68501">
        <ele>349</ele>
        <time>2015-12-06T09:30:40.000Z</time>
      </trkpt>
      <trkpt lat="47.48596" lon="6.68496">
        <ele>349</ele>
        <time>2015-12-06T09:30:42.000Z</time>
      </trkpt>
      <trkpt lat="47.48597" lon="6.68494">
        <ele>349</ele>
        <time>2015-12-06T09:30:43.000Z</time>
      </trkpt>
      <trkpt lat="47.48598" lon="6.68489">
        <ele>348</ele>
        <time>2015-12-06T09:30:45.000Z</time>
      </trkpt>
      <trkpt lat="47.48599" lon="6.68487">
        <ele>348</ele>
        <time>2015-12-06T09:30:46.000Z</time>
      </trkpt>
      <trkpt lat="47.48599" lon="6.68482">
        <ele>348</ele>
        <time>2015-12-06T09:30:48.000Z</time>
      </trkpt>
      <trkpt lat="47.486" lon="6.68479">
        <ele>348</ele>
        <time>2015-12-06T09:30:49.000Z</time>
      </trkpt>
      <trkpt lat="47.48602" lon="6.68474">
        <ele>348</ele>
        <time>2015-12-06T09:30:51.000Z</time>
      </trkpt>
      <trkpt lat="47.48603" lon="6.68471">
        <ele>348</ele>
        <time>2015-12-06T09:30:52.000Z</time>
      </trkpt>
      <trkpt lat="47.48603" lon="6.68468">
        <ele>348</ele>
        <time>2015-12-06T09:30:53.000Z</time>
      </trkpt>
      <trkpt lat="47.48605" lon="6.68465">
        <ele>348</ele>
        <time>2015-12-06T09:30:54.000Z</time>
      </trkpt>
      <trkpt lat="47.48606" lon="6.68458">
        <ele>348</ele>
        <time>2015-12-06T09:30:56.000Z</time>
      </trkpt>
      <trkpt lat="47.48607" lon="6.68456">
        <ele>348</ele>
        <time>2015-12-06T09:30:57.000Z</time>
      </trkpt>
      <trkpt lat="47.48608" lon="6.68452">
        <ele>348</ele>
        <time>2015-12-06T09:30:58.000Z</time>
      </trkpt>
      <trkpt lat="47.48609" lon="6.68449">
        <ele>348</ele>
        <time>2015-12-06T09:30:59.000Z</time>
      </trkpt>
      <trkpt lat="47.48609" lon="6.68446">
        <ele>348</ele>
        <time>2015-12-06T09:31:00.002Z</time>
      </trkpt>
      <trkpt lat="47.48611" lon="6.68442">
        <ele>348</ele>
        <time>2015-12-06T09:31:01.000Z</time>
      </trkpt>
      <trkpt lat="47.48611" lon="6.68438">
        <ele>348</ele>
        <time>2015-12-06T09:31:02.000Z</time>
      </trkpt>
      <trkpt lat="47.48612" lon="6.68435">
        <ele>348</ele>
        <time>2015-12-06T09:31:03.000Z</time>
      </trkpt>
      <trkpt lat="47.48613" lon="6.68431">
        <ele>348</ele>
        <time>2015-12-06T09:31:04.000Z</time>
      </trkpt>
      <trkpt lat="47.48614" lon="6.68428">
        <ele>347</ele>
        <time>2015-12-06T09:31:05.000Z</time>
      </trkpt>
      <trkpt lat="47.48615" lon="6.68424">
        <ele>347</ele>
        <time>2015-12-06T09:31:06.000Z</time>
      </trkpt>
      <trkpt lat="47.48616" lon="6.68422">
        <ele>347</ele>
        <time>2015-12-06T09:31:07.000Z</time>
      </trkpt>
      <trkpt lat="47.48619" lon="6.68417">
        <ele>348</ele>
        <time>2015-12-06T09:31:09.000Z</time>
      </trkpt>
      <trkpt lat="47.4862" lon="6.68414">
        <ele>347</ele>
        <time>2015-12-06T09:31:10.000Z</time>
      </trkpt>
      <trkpt lat="47.4862" lon="6.68409">
        <ele>347</ele>
        <time>2015-12-06T09:31:11.000Z</time>
      </trkpt>
      <trkpt lat="47.4862" lon="6.68403">
        <ele>347</ele>
        <time>2015-12-06T09:31:12.000Z</time>
      </trkpt>
      <trkpt lat="47.48621" lon="6.68397">
        <ele>347</ele>
        <time>2015-12-06T09:31:13.000Z</time>
      </trkpt>
      <trkpt lat="47.48622" lon="6.68392">
        <ele>347</ele>
        <time>2015-12-06T09:31:14.000Z</time>
      </trkpt>
      <trkpt lat="47.48623" lon="6.68388">
        <ele>347</ele>
        <time>2015-12-06T09:31:15.000Z</time>
      </trkpt>
      <trkpt lat="47.48624" lon="6.68385">
        <ele>347</ele>
        <time>2015-12-06T09:31:16.000Z</time>
      </trkpt>
      <trkpt lat="47.48624" lon="6.68381">
        <ele>347</ele>
        <time>2015-12-06T09:31:17.000Z</time>
      </trkpt>
      <trkpt lat="47.48625" lon="6.68377">
        <ele>347</ele>
        <time>2015-12-06T09:31:18.000Z</time>
      </trkpt>
      <trkpt lat="47.48626" lon="6.68374">
        <ele>347</ele>
        <time>2015-12-06T09:31:19.000Z</time>
      </trkpt>
      <trkpt lat="47.48627" lon="6.6837">
        <ele>347</ele>
        <time>2015-12-06T09:31:20.000Z</time>
      </trkpt>
      <trkpt lat="47.48628" lon="6.68367">
        <ele>347</ele>
        <time>2015-12-06T09:31:21.000Z</time>
      </trkpt>
      <trkpt lat="47.48629" lon="6.68363">
        <ele>347</ele>
        <time>2015-12-06T09:31:22.000Z</time>
      </trkpt>
      <trkpt lat="47.4863" lon="6.68359">
        <ele>347</ele>
        <time>2015-12-06T09:31:23.000Z</time>
      </trkpt>
      <trkpt lat="47.48631" lon="6.68355">
        <ele>347</ele>
        <time>2015-12-06T09:31:24.000Z</time>
      </trkpt>
      <trkpt lat="47.48632" lon="6.68352">
        <ele>347</ele>
        <time>2015-12-06T09:31:25.000Z</time>
      </trkpt>
      <trkpt lat="47.48633" lon="6.68349">
        <ele>347</ele>
        <time>2015-12-06T09:31:25.999Z</time>
      </trkpt>
      <trkpt lat="47.48634" lon="6.68345">
        <ele>347</ele>
        <time>2015-12-06T09:31:27.000Z</time>
      </trkpt>
      <trkpt lat="47.48635" lon="6.68341">
        <ele>347</ele>
        <time>2015-12-06T09:31:28.000Z</time>
      </trkpt>
      <trkpt lat="47.48636" lon="6.68338">
        <ele>347</ele>
        <time>2015-12-06T09:31:29.000Z</time>
      </trkpt>
      <trkpt lat="47.48637" lon="6.68334">
        <ele>347</ele>
        <time>2015-12-06T09:31:30.000Z</time>
      </trkpt>
      <trkpt lat="47.48638" lon="6.68332">
        <ele>348</ele>
        <time>2015-12-06T09:31:31.001Z</time>
      </trkpt>
      <trkpt lat="47.48639" lon="6.68329">
        <ele>348</ele>
        <time>2015-12-06T09:31:32.000Z</time>
      </trkpt>
      <trkpt lat="47.48641" lon="6.68326">
        <ele>348</ele>
        <time>2015-12-06T09:31:33.000Z</time>
      </trkpt>
      <trkpt lat="47.48642" lon="6.68324">
        <ele>349</ele>
        <time>2015-12-06T09:31:34.000Z</time>
      </trkpt>
      <trkpt lat="47.48646" lon="6.68323">
        <ele>349</ele>
        <time>2015-12-06T09:31:36.000Z</time>
      </trkpt>
      <trkpt lat="47.48648" lon="6.68323">
        <ele>349</ele>
        <time>2015-12-06T09:31:36.998Z</time>
      </trkpt>
      <trkpt lat="47.4865" lon="6.68326">
        <ele>349</ele>
        <time>2015-12-06T09:31:38.000Z</time>
      </trkpt>
      <trkpt lat="47.48652" lon="6.68328">
        <ele>349</ele>
        <time>2015-12-06T09:31:39.000Z</time>
      </trkpt>
      <trkpt lat="47.48653" lon="6.68331">
        <ele>349</ele>
        <time>2015-12-06T09:31:40.000Z</time>
      </trkpt>
      <trkpt lat="47.48655" lon="6.68334">
        <ele>348</ele>
        <time>2015-12-06T09:31:41.000Z</time>
      </trkpt>
      <trkpt lat="47.48656" lon="6.68336">
        <ele>348</ele>
        <time>2015-12-06T09:31:42.000Z</time>
      </trkpt>
      <trkpt lat="47.48658" lon="6.68339">
        <ele>348</ele>
        <time>2015-12-06T09:31:43.000Z</time>
      </trkpt>
      <trkpt lat="47.48659" lon="6.68343">
        <ele>348</ele>
        <time>2015-12-06T09:31:44.000Z</time>
      </trkpt>
      <trkpt lat="47.4866" lon="6.68346">
        <ele>348</ele>
        <time>2015-12-06T09:31:45.000Z</time>
      </trkpt>
      <trkpt lat="47.48661" lon="6.68349">
        <ele>348</ele>
        <time>2015-12-06T09:31:46.000Z</time>
      </trkpt>
      <trkpt lat="47.48663" lon="6.68351">
        <ele>348</ele>
        <time>2015-12-06T09:31:47.000Z</time>
      </trkpt>
      <trkpt lat="47.48665" lon="6.68354">
        <ele>348</ele>
        <time>2015-12-06T09:31:48.000Z</time>
      </trkpt>
      <trkpt lat="47.48666" lon="6.68357">
        <ele>348</ele>
        <time>2015-12-06T09:31:49.000Z</time>
      </trkpt>
      <trkpt lat="47.48668" lon="6.68359">
        <ele>350</ele>
        <time>2015-12-06T09:31:50.000Z</time>
      </trkpt>
      <trkpt lat="47.48669" lon="6.68361">
        <ele>350</ele>
        <time>2015-12-06T09:31:51.000Z</time>
      </trkpt>
      <trkpt lat="47.48672" lon="6.68365">
        <ele>350</ele>
        <time>2015-12-06T09:31:53.000Z</time>
      </trkpt>
      <trkpt lat="47.48673" lon="6.68367">
        <ele>350</ele>
        <time>2015-12-06T09:31:54.000Z</time>
      </trkpt>
      <trkpt lat="47.48675" lon="6.68371">
        <ele>350</ele>
        <time>2015-12-06T09:31:56.000Z</time>
      </trkpt>
      <trkpt lat="47.48677" lon="6.68373">
        <ele>350</ele>
        <time>2015-12-06T09:31:57.000Z</time>
      </trkpt>
      <trkpt lat="47.4868" lon="6.68376">
        <ele>350</ele>
        <time>2015-12-06T09:31:59.000Z</time>
      </trkpt>
      <trkpt lat="47.48681" lon="6.68376">
        <ele>350</ele>
        <time>2015-12-06T09:32:00.000Z</time>
      </trkpt>
      <trkpt lat="47.48685" lon="6.68376">
        <ele>350</ele>
        <time>2015-12-06T09:32:02.000Z</time>
      </trkpt>
      <trkpt lat="47.48687" lon="6.68374">
        <ele>350</ele>
        <time>2015-12-06T09:32:03.000Z</time>
      </trkpt>
      <trkpt lat="47.48691" lon="6.68373">
        <ele>350</ele>
        <time>2015-12-06T09:32:05.000Z</time>
      </trkpt>
      <trkpt lat="47.48693" lon="6.68369">
        <ele>350</ele>
        <time>2015-12-06T09:32:06.000Z</time>
      </trkpt>
      <trkpt lat="47.48695" lon="6.68364">
        <ele>350</ele>
        <time>2015-12-06T09:32:08.000Z</time>
      </trkpt>
      <trkpt lat="47.48696" lon="6.68361">
        <ele>351</ele>
        <time>2015-12-06T09:32:09.000Z</time>
      </trkpt>
      <trkpt lat="47.48699" lon="6.68358">
        <ele>351</ele>
        <time>2015-12-06T09:32:11.000Z</time>
      </trkpt>
      <trkpt lat="47.487" lon="6.68356">
        <ele>351</ele>
        <time>2015-12-06T09:32:12.000Z</time>
      </trkpt>
      <trkpt lat="47.48703" lon="6.68353">
        <ele>351</ele>
        <time>2015-12-06T09:32:14.000Z</time>
      </trkpt>
      <trkpt lat="47.48704" lon="6.68352">
        <ele>351</ele>
        <time>2015-12-06T09:32:15.000Z</time>
      </trkpt>
      <trkpt lat="47.48707" lon="6.68351">
        <ele>351</ele>
        <time>2015-12-06T09:32:17.000Z</time>
      </trkpt>
      <trkpt lat="47.48709" lon="6.6835">
        <ele>351</ele>
        <time>2015-12-06T09:32:18.000Z</time>
      </trkpt>
      <trkpt lat="47.48711" lon="6.68345">
        <ele>351</ele>
        <time>2015-12-06T09:32:21.000Z</time>
      </trkpt>
      <trkpt lat="47.48712" lon="6.68343">
        <ele>351</ele>
        <time>2015-12-06T09:32:22.000Z</time>
      </trkpt>
      <trkpt lat="47.48714" lon="6.6834">
        <ele>351</ele>
        <time>2015-12-06T09:32:23.999Z</time>
      </trkpt>
      <trkpt lat="47.48716" lon="6.68339">
        <ele>351</ele>
        <time>2015-12-06T09:32:25.000Z</time>
      </trkpt>
      <trkpt lat="47.4872" lon="6.68337">
        <ele>352</ele>
        <time>2015-12-06T09:32:27.000Z</time>
      </trkpt>
      <trkpt lat="47.48721" lon="6.68337">
        <ele>352</ele>
        <time>2015-12-06T09:32:28.000Z</time>
      </trkpt>
      <trkpt lat="47.48724" lon="6.68335">
        <ele>352</ele>
        <time>2015-12-06T09:32:30.000Z</time>
      </trkpt>
      <trkpt lat="47.48726" lon="6.68334">
        <ele>352</ele>
        <time>2015-12-06T09:32:31.000Z</time>
      </trkpt>
      <trkpt lat="47.48729" lon="6.68333">
        <ele>353</ele>
        <time>2015-12-06T09:32:33.000Z</time>
      </trkpt>
      <trkpt lat="47.48731" lon="6.68332">
        <ele>353</ele>
        <time>2015-12-06T09:32:34.000Z</time>
      </trkpt>
      <trkpt lat="47.48734" lon="6.68331">
        <ele>354</ele>
        <time>2015-12-06T09:32:37.000Z</time>
      </trkpt>
      <trkpt lat="47.48736" lon="6.68331">
        <ele>354</ele>
        <time>2015-12-06T09:32:38.000Z</time>
      </trkpt>
      <trkpt lat="47.4874" lon="6.6833">
        <ele>354</ele>
        <time>2015-12-06T09:32:42.000Z</time>
      </trkpt>
      <trkpt lat="47.48741" lon="6.6833">
        <ele>354</ele>
        <time>2015-12-06T09:32:43.000Z</time>
      </trkpt>
      <trkpt lat="47.48744" lon="6.6833">
        <ele>354</ele>
        <time>2015-12-06T09:32:45.000Z</time>
      </trkpt>
      <trkpt lat="47.48746" lon="6.68331">
        <ele>354</ele>
        <time>2015-12-06T09:32:46.000Z</time>
      </trkpt>
      <trkpt lat="47.48749" lon="6.68331">
        <ele>354</ele>
        <time>2015-12-06T09:32:47.000Z</time>
      </trkpt>
      <trkpt lat="47.48751" lon="6.68331">
        <ele>354</ele>
        <time>2015-12-06T09:32:48.000Z</time>
      </trkpt>
      <trkpt lat="47.48754" lon="6.6833">
        <ele>354</ele>
        <time>2015-12-06T09:32:49.000Z</time>
      </trkpt>
      <trkpt lat="47.48756" lon="6.6833">
        <ele>354</ele>
        <time>2015-12-06T09:32:50.000Z</time>
      </trkpt>
      <trkpt lat="47.48758" lon="6.68329">
        <ele>355</ele>
        <time>2015-12-06T09:32:51.000Z</time>
      </trkpt>
      <trkpt lat="47.48761" lon="6.68329">
        <ele>355</ele>
        <time>2015-12-06T09:32:52.000Z</time>
      </trkpt>
      <trkpt lat="47.48763" lon="6.68329">
        <ele>355</ele>
        <time>2015-12-06T09:32:53.000Z</time>
      </trkpt>
      <trkpt lat="47.48766" lon="6.68328">
        <ele>355</ele>
        <time>2015-12-06T09:32:54.000Z</time>
      </trkpt>
      <trkpt lat="47.48768" lon="6.68327">
        <ele>355</ele>
        <time>2015-12-06T09:32:55.000Z</time>
      </trkpt>
      <trkpt lat="47.48771" lon="6.68326">
        <ele>355</ele>
        <time>2015-12-06T09:32:56.000Z</time>
      </trkpt>
      <trkpt lat="47.48774" lon="6.68325">
        <ele>355</ele>
        <time>2015-12-06T09:32:57.000Z</time>
      </trkpt>
      <trkpt lat="47.48776" lon="6.68325">
        <ele>355</ele>
        <time>2015-12-06T09:32:57.999Z</time>
      </trkpt>
      <trkpt lat="47.48779" lon="6.68324">
        <ele>355</ele>
        <time>2015-12-06T09:32:59.000Z</time>
      </trkpt>
      <trkpt lat="47.48782" lon="6.68324">
        <ele>355</ele>
        <time>2015-12-06T09:33:00.001Z</time>
      </trkpt>
      <trkpt lat="47.48784" lon="6.68322">
        <ele>355</ele>
        <time>2015-12-06T09:33:01.000Z</time>
      </trkpt>
      <trkpt lat="47.48786" lon="6.68321">
        <ele>355</ele>
        <time>2015-12-06T09:33:02.000Z</time>
      </trkpt>
      <trkpt lat="47.48789" lon="6.68319">
        <ele>355</ele>
        <time>2015-12-06T09:33:03.000Z</time>
      </trkpt>
      <trkpt lat="47.48791" lon="6.68317">
        <ele>355</ele>
        <time>2015-12-06T09:33:03.999Z</time>
      </trkpt>
      <trkpt lat="47.48794" lon="6.68315">
        <ele>355</ele>
        <time>2015-12-06T09:33:05.000Z</time>
      </trkpt>
      <trkpt lat="47.48796" lon="6.68313">
        <ele>356</ele>
        <time>2015-12-06T09:33:06.000Z</time>
      </trkpt>
      <trkpt lat="47.48798" lon="6.68312">
        <ele>356</ele>
        <time>2015-12-06T09:33:07.001Z</time>
      </trkpt>
      <trkpt lat="47.48801" lon="6.68311">
        <ele>356</ele>
        <time>2015-12-06T09:33:08.000Z</time>
      </trkpt>
      <trkpt lat="47.48803" lon="6.68309">
        <ele>356</ele>
        <time>2015-12-06T09:33:09.000Z</time>
      </trkpt>
      <trkpt lat="47.48805" lon="6.68308">
        <ele>356</ele>
        <time>2015-12-06T09:33:09.998Z</time>
      </trkpt>
      <trkpt lat="47.48807" lon="6.68305">
        <ele>356</ele>
        <time>2015-12-06T09:33:11.000Z</time>
      </trkpt>
      <trkpt lat="47.48808" lon="6.68304">
        <ele>356</ele>
        <time>2015-12-06T09:33:12.000Z</time>
      </trkpt>
      <trkpt lat="47.48812" lon="6.68301">
        <ele>356</ele>
        <time>2015-12-06T09:33:14.000Z</time>
      </trkpt>
      <trkpt lat="47.48814" lon="6.68299">
        <ele>356</ele>
        <time>2015-12-06T09:33:15.000Z</time>
      </trkpt>
      <trkpt lat="47.48816" lon="6.68295">
        <ele>356</ele>
        <time>2015-12-06T09:33:16.000Z</time>
      </trkpt>
      <trkpt lat="47.48818" lon="6.68293">
        <ele>356</ele>
        <time>2015-12-06T09:33:17.000Z</time>
      </trkpt>
      <trkpt lat="47.4882" lon="6.68289">
        <ele>356</ele>
        <time>2015-12-06T09:33:18.000Z</time>
      </trkpt>
      <trkpt lat="47.48821" lon="6.68286">
        <ele>356</ele>
        <time>2015-12-06T09:33:19.000Z</time>
      </trkpt>
      <trkpt lat="47.48822" lon="6.68283">
        <ele>356</ele>
        <time>2015-12-06T09:33:20.000Z</time>
      </trkpt>
      <trkpt lat="47.48824" lon="6.6828">
        <ele>356</ele>
        <time>2015-12-06T09:33:21.000Z</time>
      </trkpt>
      <trkpt lat="47.48825" lon="6.68276">
        <ele>357</ele>
        <time>2015-12-06T09:33:22.000Z</time>
      </trkpt>
      <trkpt lat="47.48826" lon="6.68273">
        <ele>357</ele>
        <time>2015-12-06T09:33:23.000Z</time>
      </trkpt>
      <trkpt lat="47.48828" lon="6.68269">
        <ele>357</ele>
        <time>2015-12-06T09:33:24.000Z</time>
      </trkpt>
      <trkpt lat="47.48829" lon="6.68266">
        <ele>357</ele>
        <time>2015-12-06T09:33:25.000Z</time>
      </trkpt>
      <trkpt lat="47.4883" lon="6.68262">
        <ele>357</ele>
        <time>2015-12-06T09:33:26.000Z</time>
      </trkpt>
      <trkpt lat="47.48832" lon="6.68259">
        <ele>357</ele>
        <time>2015-12-06T09:33:27.000Z</time>
      </trkpt>
      <trkpt lat="47.48833" lon="6.68256">
        <ele>358</ele>
        <time>2015-12-06T09:33:28.000Z</time>
      </trkpt>
      <trkpt lat="47.48834" lon="6.68252">
        <ele>358</ele>
        <time>2015-12-06T09:33:29.000Z</time>
      </trkpt>
      <trkpt lat="47.48835" lon="6.68248">
        <ele>358</ele>
        <time>2015-12-06T09:33:30.000Z</time>
      </trkpt>
      <trkpt lat="47.48836" lon="6.68245">
        <ele>358</ele>
        <time>2015-12-06T09:33:31.000Z</time>
      </trkpt>
      <trkpt lat="47.48837" lon="6.68241">
        <ele>358</ele>
        <time>2015-12-06T09:33:32.000Z</time>
      </trkpt>
      <trkpt lat="47.48838" lon="6.68238">
        <ele>358</ele>
        <time>2015-12-06T09:33:33.000Z</time>
      </trkpt>
      <trkpt lat="47.48839" lon="6.68234">
        <ele>359</ele>
        <time>2015-12-06T09:33:34.000Z</time>
      </trkpt>
      <trkpt lat="47.48841" lon="6.68231">
        <ele>359</ele>
        <time>2015-12-06T09:33:35.000Z</time>
      </trkpt>
      <trkpt lat="47.48842" lon="6.68228">
        <ele>359</ele>
        <time>2015-12-06T09:33:36.000Z</time>
      </trkpt>
      <trkpt lat="47.48843" lon="6.68225">
        <ele>359</ele>
        <time>2015-12-06T09:33:37.000Z</time>
      </trkpt>
      <trkpt lat="47.48844" lon="6.68222">
        <ele>359</ele>
        <time>2015-12-06T09:33:38.000Z</time>
      </trkpt>
      <trkpt lat="47.48845" lon="6.68219">
        <ele>359</ele>
        <time>2015-12-06T09:33:39.000Z</time>
      </trkpt>
      <trkpt lat="47.48846" lon="6.68216">
        <ele>359</ele>
        <time>2015-12-06T09:33:40.000Z</time>
      </trkpt>
      <trkpt lat="47.48847" lon="6.68213">
        <ele>359</ele>
        <time>2015-12-06T09:33:41.000Z</time>
      </trkpt>
      <trkpt lat="47.4885" lon="6.68209">
        <ele>359</ele>
        <time>2015-12-06T09:33:43.000Z</time>
      </trkpt>
      <trkpt lat="47.48851" lon="6.68207">
        <ele>359</ele>
        <time>2015-12-06T09:33:44.000Z</time>
      </trkpt>
      <trkpt lat="47.48852" lon="6.68204">
        <ele>359</ele>
        <time>2015-12-06T09:33:45.000Z</time>
      </trkpt>
      <trkpt lat="47.48853" lon="6.68201">
        <ele>359</ele>
        <time>2015-12-06T09:33:46.000Z</time>
      </trkpt>
      <trkpt lat="47.48855" lon="6.68197">
        <ele>360</ele>
        <time>2015-12-06T09:33:47.000Z</time>
      </trkpt>
      <trkpt lat="47.48856" lon="6.68194">
        <ele>360</ele>
        <time>2015-12-06T09:33:48.000Z</time>
      </trkpt>
      <trkpt lat="47.48859" lon="6.68189">
        <ele>360</ele>
        <time>2015-12-06T09:33:50.000Z</time>
      </trkpt>
      <trkpt lat="47.4886" lon="6.68187">
        <ele>360</ele>
        <time>2015-12-06T09:33:51.000Z</time>
      </trkpt>
      <trkpt lat="47.48862" lon="6.68183">
        <ele>360</ele>
        <time>2015-12-06T09:33:53.000Z</time>
      </trkpt>
      <trkpt lat="47.48864" lon="6.6818">
        <ele>360</ele>
        <time>2015-12-06T09:33:54.000Z</time>
      </trkpt>
      <trkpt lat="47.48866" lon="6.68178">
        <ele>360</ele>
        <time>2015-12-06T09:33:55.000Z</time>
      </trkpt>
      <trkpt lat="47.48867" lon="6.68175">
        <ele>360</ele>
        <time>2015-12-06T09:33:56.000Z</time>
      </trkpt>
      <trkpt lat="47.48869" lon="6.68172">
        <ele>360</ele>
        <time>2015-12-06T09:33:57.000Z</time>
      </trkpt>
      <trkpt lat="47.4887" lon="6.6817">
        <ele>360</ele>
        <time>2015-12-06T09:33:58.000Z</time>
      </trkpt>
      <trkpt lat="47.48871" lon="6.68166">
        <ele>362</ele>
        <time>2015-12-06T09:33:59.000Z</time>
      </trkpt>
      <trkpt lat="47.48873" lon="6.68163">
        <ele>362</ele>
        <time>2015-12-06T09:34:00.000Z</time>
      </trkpt>
      <trkpt lat="47.48874" lon="6.6816">
        <ele>362</ele>
        <time>2015-12-06T09:34:01.000Z</time>
      </trkpt>
      <trkpt lat="47.48876" lon="6.68156">
        <ele>362</ele>
        <time>2015-12-06T09:34:02.000Z</time>
      </trkpt>
      <trkpt lat="47.48877" lon="6.68153">
        <ele>362</ele>
        <time>2015-12-06T09:34:03.000Z</time>
      </trkpt>
      <trkpt lat="47.48879" lon="6.68149">
        <ele>362</ele>
        <time>2015-12-06T09:34:04.000Z</time>
      </trkpt>
      <trkpt lat="47.48881" lon="6.68146">
        <ele>362</ele>
        <time>2015-12-06T09:34:05.000Z</time>
      </trkpt>
      <trkpt lat="47.48882" lon="6.68143">
        <ele>362</ele>
        <time>2015-12-06T09:34:06.000Z</time>
      </trkpt>
      <trkpt lat="47.48884" lon="6.6814">
        <ele>362</ele>
        <time>2015-12-06T09:34:07.000Z</time>
      </trkpt>
      <trkpt lat="47.48885" lon="6.68136">
        <ele>362</ele>
        <time>2015-12-06T09:34:08.000Z</time>
      </trkpt>
      <trkpt lat="47.48887" lon="6.68132">
        <ele>362</ele>
        <time>2015-12-06T09:34:09.000Z</time>
      </trkpt>
      <trkpt lat="47.48889" lon="6.68128">
        <ele>362</ele>
        <time>2015-12-06T09:34:10.000Z</time>
      </trkpt>
      <trkpt lat="47.48891" lon="6.68124">
        <ele>362</ele>
        <time>2015-12-06T09:34:11.000Z</time>
      </trkpt>
      <trkpt lat="47.48893" lon="6.68121">
        <ele>362</ele>
        <time>2015-12-06T09:34:12.000Z</time>
      </trkpt>
      <trkpt lat="47.48895" lon="6.68117">
        <ele>362</ele>
        <time>2015-12-06T09:34:13.000Z</time>
      </trkpt>
      <trkpt lat="47.48897" lon="6.68113">
        <ele>362</ele>
        <time>2015-12-06T09:34:14.000Z</time>
      </trkpt>
      <trkpt lat="47.48898" lon="6.68109">
        <ele>362</ele>
        <time>2015-12-06T09:34:15.000Z</time>
      </trkpt>
      <trkpt lat="47.489" lon="6.68105">
        <ele>362</ele>
        <time>2015-12-06T09:34:16.000Z</time>
      </trkpt>
      <trkpt lat="47.48902" lon="6.68101">
        <ele>362</ele>
        <time>2015-12-06T09:34:17.000Z</time>
      </trkpt>
      <trkpt lat="47.48904" lon="6.68096">
        <ele>362</ele>
        <time>2015-12-06T09:34:18.000Z</time>
      </trkpt>
      <trkpt lat="47.48907" lon="6.6809">
        <ele>362</ele>
        <time>2015-12-06T09:34:19.000Z</time>
      </trkpt>
      <trkpt lat="47.48909" lon="6.68084">
        <ele>362</ele>
        <time>2015-12-06T09:34:20.000Z</time>
      </trkpt>
      <trkpt lat="47.48912" lon="6.68077">
        <ele>363</ele>
        <time>2015-12-06T09:34:21.000Z</time>
      </trkpt>
      <trkpt lat="47.48915" lon="6.6807">
        <ele>363</ele>
        <time>2015-12-06T09:34:22.000Z</time>
      </trkpt>
      <trkpt lat="47.48919" lon="6.68063">
        <ele>361</ele>
        <time>2015-12-06T09:34:23.000Z</time>
      </trkpt>
      <trkpt lat="47.48922" lon="6.68056">
        <ele>361</ele>
        <time>2015-12-06T09:34:24.000Z</time>
      </trkpt>
      <trkpt lat="47.48925" lon="6.68049">
        <ele>361</ele>
        <time>2015-12-06T09:34:24.999Z</time>
      </trkpt>
      <trkpt lat="47.48928" lon="6.6804">
        <ele>361</ele>
        <time>2015-12-06T09:34:26.000Z</time>
      </trkpt>
      <trkpt lat="47.48932" lon="6.68031">
        <ele>361</ele>
        <time>2015-12-06T09:34:27.000Z</time>
      </trkpt>
      <trkpt lat="47.48935" lon="6.68022">
        <ele>361</ele>
        <time>2015-12-06T09:34:28.000Z</time>
      </trkpt>
      <trkpt lat="47.48939" lon="6.68015">
        <ele>361</ele>
        <time>2015-12-06T09:34:29.000Z</time>
      </trkpt>
      <trkpt lat="47.48942" lon="6.68008">
        <ele>361</ele>
        <time>2015-12-06T09:34:30.002Z</time>
      </trkpt>
      <trkpt lat="47.48945" lon="6.68002">
        <ele>361</ele>
        <time>2015-12-06T09:34:31.000Z</time>
      </trkpt>
      <trkpt lat="47.48947" lon="6.67998">
        <ele>362</ele>
        <time>2015-12-06T09:34:32.000Z</time>
      </trkpt>
      <trkpt lat="47.4895" lon="6.67992">
        <ele>362</ele>
        <time>2015-12-06T09:34:33.000Z</time>
      </trkpt>
      <trkpt lat="47.48953" lon="6.67988">
        <ele>362</ele>
        <time>2015-12-06T09:34:34.000Z</time>
      </trkpt>
      <trkpt lat="47.48955" lon="6.67984">
        <ele>362</ele>
        <time>2015-12-06T09:34:35.000Z</time>
      </trkpt>
      <trkpt lat="47.48958" lon="6.67979">
        <ele>362</ele>
        <time>2015-12-06T09:34:36.000Z</time>
      </trkpt>
      <trkpt lat="47.48961" lon="6.67973">
        <ele>362</ele>
        <time>2015-12-06T09:34:37.000Z</time>
      </trkpt>
      <trkpt lat="47.48964" lon="6.67967">
        <ele>362</ele>
        <time>2015-12-06T09:34:38.000Z</time>
      </trkpt>
      <trkpt lat="47.48967" lon="6.67961">
        <ele>362</ele>
        <time>2015-12-06T09:34:39.000Z</time>
      </trkpt>
      <trkpt lat="47.48971" lon="6.67955">
        <ele>362</ele>
        <time>2015-12-06T09:34:40.000Z</time>
      </trkpt>
      <trkpt lat="47.48975" lon="6.67948">
        <ele>361</ele>
        <time>2015-12-06T09:34:41.000Z</time>
      </trkpt>
      <trkpt lat="47.48979" lon="6.67941">
        <ele>361</ele>
        <time>2015-12-06T09:34:42.000Z</time>
      </trkpt>
      <trkpt lat="47.48983" lon="6.67935">
        <ele>361</ele>
        <time>2015-12-06T09:34:43.000Z</time>
      </trkpt>
      <trkpt lat="47.48987" lon="6.67928">
        <ele>360</ele>
        <time>2015-12-06T09:34:43.999Z</time>
      </trkpt>
      <trkpt lat="47.48991" lon="6.67922">
        <ele>360</ele>
        <time>2015-12-06T09:34:45.000Z</time>
      </trkpt>
      <trkpt lat="47.48995" lon="6.67916">
        <ele>359</ele>
        <time>2015-12-06T09:34:46.000Z</time>
      </trkpt>
      <trkpt lat="47.48999" lon="6.6791">
        <ele>360</ele>
        <time>2015-12-06T09:34:47.000Z</time>
      </trkpt>
      <trkpt lat="47.49002" lon="6.67904">
        <ele>357</ele>
        <time>2015-12-06T09:34:48.000Z</time>
      </trkpt>
      <trkpt lat="47.49006" lon="6.67898">
        <ele>357</ele>
        <time>2015-12-06T09:34:49.000Z</time>
      </trkpt>
      <trkpt lat="47.49009" lon="6.67892">
        <ele>357</ele>
        <time>2015-12-06T09:34:50.000Z</time>
      </trkpt>
      <trkpt lat="47.49012" lon="6.67885">
        <ele>357</ele>
        <time>2015-12-06T09:34:51.000Z</time>
      </trkpt>
      <trkpt lat="47.49016" lon="6.67879">
        <ele>357</ele>
        <time>2015-12-06T09:34:52.000Z</time>
      </trkpt>
      <trkpt lat="47.49019" lon="6.67873">
        <ele>357</ele>
        <time>2015-12-06T09:34:53.000Z</time>
      </trkpt>
      <trkpt lat="47.49022" lon="6.67867">
        <ele>357</ele>
        <time>2015-12-06T09:34:54.000Z</time>
      </trkpt>
      <trkpt lat="47.49026" lon="6.6786">
        <ele>357</ele>
        <time>2015-12-06T09:34:55.000Z</time>
      </trkpt>
      <trkpt lat="47.4903" lon="6.67855">
        <ele>357</ele>
        <time>2015-12-06T09:34:56.000Z</time>
      </trkpt>
      <trkpt lat="47.49034" lon="6.67849">
        <ele>357</ele>
        <time>2015-12-06T09:34:57.000Z</time>
      </trkpt>
      <trkpt lat="47.49037" lon="6.67844">
        <ele>357</ele>
        <time>2015-12-06T09:34:58.000Z</time>
      </trkpt>
      <trkpt lat="47.4904" lon="6.67839">
        <ele>356</ele>
        <time>2015-12-06T09:34:59.000Z</time>
      </trkpt>
      <trkpt lat="47.49043" lon="6.67834">
        <ele>356</ele>
        <time>2015-12-06T09:35:00.000Z</time>
      </trkpt>
      <trkpt lat="47.49047" lon="6.67828">
        <ele>358</ele>
        <time>2015-12-06T09:35:01.000Z</time>
      </trkpt>
      <trkpt lat="47.4905" lon="6.67822">
        <ele>358</ele>
        <time>2015-12-06T09:35:02.000Z</time>
      </trkpt>
      <trkpt lat="47.49054" lon="6.67815">
        <ele>358</ele>
        <time>2015-12-06T09:35:03.000Z</time>
      </trkpt>
      <trkpt lat="47.49057" lon="6.6781">
        <ele>358</ele>
        <time>2015-12-06T09:35:04.000Z</time>
      </trkpt>
      <trkpt lat="47.4906" lon="6.67804">
        <ele>358</ele>
        <time>2015-12-06T09:35:05.000Z</time>
      </trkpt>
      <trkpt lat="47.49062" lon="6.67797">
        <ele>358</ele>
        <time>2015-12-06T09:35:06.000Z</time>
      </trkpt>
      <trkpt lat="47.49065" lon="6.67791">
        <ele>358</ele>
        <time>2015-12-06T09:35:07.000Z</time>
      </trkpt>
      <trkpt lat="47.49068" lon="6.67785">
        <ele>358</ele>
        <time>2015-12-06T09:35:08.000Z</time>
      </trkpt>
      <trkpt lat="47.49071" lon="6.67781">
        <ele>358</ele>
        <time>2015-12-06T09:35:09.000Z</time>
      </trkpt>
      <trkpt lat="47.49073" lon="6.67777">
        <ele>358</ele>
        <time>2015-12-06T09:35:10.000Z</time>
      </trkpt>
      <trkpt lat="47.49075" lon="6.67773">
        <ele>358</ele>
        <time>2015-12-06T09:35:11.000Z</time>
      </trkpt>
      <trkpt lat="47.49078" lon="6.67768">
        <ele>358</ele>
        <time>2015-12-06T09:35:12.000Z</time>
      </trkpt>
      <trkpt lat="47.4908" lon="6.67763">
        <ele>358</ele>
        <time>2015-12-06T09:35:13.000Z</time>
      </trkpt>
      <trkpt lat="47.49082" lon="6.67759">
        <ele>358</ele>
        <time>2015-12-06T09:35:14.000Z</time>
      </trkpt>
      <trkpt lat="47.49085" lon="6.67754">
        <ele>356</ele>
        <time>2015-12-06T09:35:15.000Z</time>
      </trkpt>
      <trkpt lat="47.49086" lon="6.67748">
        <ele>357</ele>
        <time>2015-12-06T09:35:16.000Z</time>
      </trkpt>
      <trkpt lat="47.49088" lon="6.67745">
        <ele>357</ele>
        <time>2015-12-06T09:35:17.000Z</time>
      </trkpt>
      <trkpt lat="47.4909" lon="6.67741">
        <ele>357</ele>
        <time>2015-12-06T09:35:18.000Z</time>
      </trkpt>
      <trkpt lat="47.49092" lon="6.67738">
        <ele>357</ele>
        <time>2015-12-06T09:35:19.000Z</time>
      </trkpt>
      <trkpt lat="47.49094" lon="6.67734">
        <ele>357</ele>
        <time>2015-12-06T09:35:20.000Z</time>
      </trkpt>
      <trkpt lat="47.49095" lon="6.67731">
        <ele>358</ele>
        <time>2015-12-06T09:35:21.000Z</time>
      </trkpt>
      <trkpt lat="47.49097" lon="6.67727">
        <ele>358</ele>
        <time>2015-12-06T09:35:22.000Z</time>
      </trkpt>
      <trkpt lat="47.49098" lon="6.67723">
        <ele>358</ele>
        <time>2015-12-06T09:35:23.000Z</time>
      </trkpt>
      <trkpt lat="47.49098" lon="6.67719">
        <ele>358</ele>
        <time>2015-12-06T09:35:24.000Z</time>
      </trkpt>
      <trkpt lat="47.49099" lon="6.67715">
        <ele>358</ele>
        <time>2015-12-06T09:35:25.000Z</time>
      </trkpt>
      <trkpt lat="47.49099" lon="6.6771">
        <ele>358</ele>
        <time>2015-12-06T09:35:26.000Z</time>
      </trkpt>
      <trkpt lat="47.49099" lon="6.67704">
        <ele>358</ele>
        <time>2015-12-06T09:35:27.000Z</time>
      </trkpt>
      <trkpt lat="47.49099" lon="6.67699">
        <ele>359</ele>
        <time>2015-12-06T09:35:28.000Z</time>
      </trkpt>
      <trkpt lat="47.49099" lon="6.67694">
        <ele>359</ele>
        <time>2015-12-06T09:35:29.000Z</time>
      </trkpt>
      <trkpt lat="47.49099" lon="6.67688">
        <ele>359</ele>
        <time>2015-12-06T09:35:30.000Z</time>
      </trkpt>
      <trkpt lat="47.49099" lon="6.67683">
        <ele>359</ele>
        <time>2015-12-06T09:35:31.000Z</time>
      </trkpt>
      <trkpt lat="47.49099" lon="6.67678">
        <ele>360</ele>
        <time>2015-12-06T09:35:32.000Z</time>
      </trkpt>
      <trkpt lat="47.49099" lon="6.67673">
        <ele>360</ele>
        <time>2015-12-06T09:35:33.000Z</time>
      </trkpt>
      <trkpt lat="47.491" lon="6.67669">
        <ele>360</ele>
        <time>2015-12-06T09:35:34.000Z</time>
      </trkpt>
      <trkpt lat="47.491" lon="6.67664">
        <ele>361</ele>
        <time>2015-12-06T09:35:35.000Z</time>
      </trkpt>
      <trkpt lat="47.491" lon="6.6766">
        <ele>361</ele>
        <time>2015-12-06T09:35:36.000Z</time>
      </trkpt>
      <trkpt lat="47.491" lon="6.67656">
        <ele>361</ele>
        <time>2015-12-06T09:35:37.000Z</time>
      </trkpt>
      <trkpt lat="47.49101" lon="6.67651">
        <ele>361</ele>
        <time>2015-12-06T09:35:38.000Z</time>
      </trkpt>
      <trkpt lat="47.49101" lon="6.67647">
        <ele>361</ele>
        <time>2015-12-06T09:35:39.000Z</time>
      </trkpt>
      <trkpt lat="47.49101" lon="6.67642">
        <ele>361</ele>
        <time>2015-12-06T09:35:40.000Z</time>
      </trkpt>
      <trkpt lat="47.49102" lon="6.67637">
        <ele>361</ele>
        <time>2015-12-06T09:35:41.000Z</time>
      </trkpt>
      <trkpt lat="47.49102" lon="6.67632">
        <ele>361</ele>
        <time>2015-12-06T09:35:42.000Z</time>
      </trkpt>
      <trkpt lat="47.49102" lon="6.67627">
        <ele>361</ele>
        <time>2015-12-06T09:35:43.000Z</time>
      </trkpt>
      <trkpt lat="47.49102" lon="6.67622">
        <ele>361</ele>
        <time>2015-12-06T09:35:44.000Z</time>
      </trkpt>
      <trkpt lat="47.49102" lon="6.67617">
        <ele>361</ele>
        <time>2015-12-06T09:35:45.000Z</time>
      </trkpt>
      <trkpt lat="47.49102" lon="6.67612">
        <ele>361</ele>
        <time>2015-12-06T09:35:46.000Z</time>
      </trkpt>
      <trkpt lat="47.49101" lon="6.67607">
        <ele>361</ele>
        <time>2015-12-06T09:35:47.000Z</time>
      </trkpt>
      <trkpt lat="47.491" lon="6.67602">
        <ele>362</ele>
        <time>2015-12-06T09:35:48.000Z</time>
      </trkpt>
      <trkpt lat="47.49099" lon="6.67598">
        <ele>362</ele>
        <time>2015-12-06T09:35:49.000Z</time>
      </trkpt>
      <trkpt lat="47.49099" lon="6.67593">
        <ele>362</ele>
        <time>2015-12-06T09:35:50.000Z</time>
      </trkpt>
      <trkpt lat="47.49098" lon="6.67587">
        <ele>362</ele>
        <time>2015-12-06T09:35:51.000Z</time>
      </trkpt>
      <trkpt lat="47.49097" lon="6.67582">
        <ele>362</ele>
        <time>2015-12-06T09:35:52.000Z</time>
      </trkpt>
      <trkpt lat="47.49097" lon="6.67576">
        <ele>362</ele>
        <time>2015-12-06T09:35:53.000Z</time>
      </trkpt>
      <trkpt lat="47.49097" lon="6.6757">
        <ele>362</ele>
        <time>2015-12-06T09:35:54.000Z</time>
      </trkpt>
      <trkpt lat="47.49098" lon="6.67563">
        <ele>361</ele>
        <time>2015-12-06T09:35:55.000Z</time>
      </trkpt>
      <trkpt lat="47.49099" lon="6.67557">
        <ele>361</ele>
        <time>2015-12-06T09:35:56.000Z</time>
      </trkpt>
      <trkpt lat="47.49098" lon="6.67549">
        <ele>361</ele>
        <time>2015-12-06T09:35:57.000Z</time>
      </trkpt>
      <trkpt lat="47.49097" lon="6.67541">
        <ele>361</ele>
        <time>2015-12-06T09:35:58.000Z</time>
      </trkpt>
      <trkpt lat="47.49096" lon="6.67533">
        <ele>361</ele>
        <time>2015-12-06T09:35:59.000Z</time>
      </trkpt>
      <trkpt lat="47.49093" lon="6.67525">
        <ele>360</ele>
        <time>2015-12-06T09:36:00.000Z</time>
      </trkpt>
      <trkpt lat="47.49091" lon="6.67517">
        <ele>360</ele>
        <time>2015-12-06T09:36:00.999Z</time>
      </trkpt>
      <trkpt lat="47.49085" lon="6.67514">
        <ele>360</ele>
        <time>2015-12-06T09:36:02.000Z</time>
      </trkpt>
      <trkpt lat="47.4908" lon="6.67508">
        <ele>361</ele>
        <time>2015-12-06T09:36:03.000Z</time>
      </trkpt>
      <trkpt lat="47.49075" lon="6.67502">
        <ele>361</ele>
        <time>2015-12-06T09:36:04.000Z</time>
      </trkpt>
      <trkpt lat="47.49069" lon="6.67497">
        <ele>360</ele>
        <time>2015-12-06T09:36:05.000Z</time>
      </trkpt>
      <trkpt lat="47.49063" lon="6.6749">
        <ele>360</ele>
        <time>2015-12-06T09:36:06.000Z</time>
      </trkpt>
      <trkpt lat="47.49059" lon="6.6748">
        <ele>359</ele>
        <time>2015-12-06T09:36:07.000Z</time>
      </trkpt>
      <trkpt lat="47.49057" lon="6.67469">
        <ele>359</ele>
        <time>2015-12-06T09:36:08.000Z</time>
      </trkpt>
      <trkpt lat="47.49056" lon="6.67459">
        <ele>359</ele>
        <time>2015-12-06T09:36:09.000Z</time>
      </trkpt>
      <trkpt lat="47.49057" lon="6.67448">
        <ele>358</ele>
        <time>2015-12-06T09:36:10.000Z</time>
      </trkpt>
      <trkpt lat="47.49059" lon="6.67437">
        <ele>358</ele>
        <time>2015-12-06T09:36:10.999Z</time>
      </trkpt>
      <trkpt lat="47.49061" lon="6.67427">
        <ele>358</ele>
        <time>2015-12-06T09:36:12.000Z</time>
      </trkpt>
      <trkpt lat="47.49063" lon="6.67416">
        <ele>356</ele>
        <time>2015-12-06T09:36:13.000Z</time>
      </trkpt>
      <trkpt lat="47.49065" lon="6.67406">
        <ele>356</ele>
        <time>2015-12-06T09:36:14.000Z</time>
      </trkpt>
      <trkpt lat="47.49067" lon="6.67397">
        <ele>356</ele>
        <time>2015-12-06T09:36:15.000Z</time>
      </trkpt>
      <trkpt lat="47.49069" lon="6.67388">
        <ele>356</ele>
        <time>2015-12-06T09:36:16.000Z</time>
      </trkpt>
      <trkpt lat="47.49071" lon="6.6738">
        <ele>356</ele>
        <time>2015-12-06T09:36:17.000Z</time>
      </trkpt>
      <trkpt lat="47.49072" lon="6.67372">
        <ele>355</ele>
        <time>2015-12-06T09:36:17.999Z</time>
      </trkpt>
      <trkpt lat="47.49074" lon="6.67367">
        <ele>355</ele>
        <time>2015-12-06T09:36:19.000Z</time>
      </trkpt>
      <trkpt lat="47.49075" lon="6.67361">
        <ele>355</ele>
        <time>2015-12-06T09:36:20.000Z</time>
      </trkpt>
      <trkpt lat="47.49076" lon="6.67355">
        <ele>355</ele>
        <time>2015-12-06T09:36:21.000Z</time>
      </trkpt>
      <trkpt lat="47.49078" lon="6.6735">
        <ele>355</ele>
        <time>2015-12-06T09:36:22.000Z</time>
      </trkpt>
      <trkpt lat="47.49079" lon="6.67346">
        <ele>355</ele>
        <time>2015-12-06T09:36:23.000Z</time>
      </trkpt>
      <trkpt lat="47.49081" lon="6.67341">
        <ele>354</ele>
        <time>2015-12-06T09:36:24.000Z</time>
      </trkpt>
      <trkpt lat="47.49082" lon="6.67335">
        <ele>354</ele>
        <time>2015-12-06T09:36:25.000Z</time>
      </trkpt>
      <trkpt lat="47.49083" lon="6.6733">
        <ele>354</ele>
        <time>2015-12-06T09:36:26.000Z</time>
      </trkpt>
      <trkpt lat="47.49084" lon="6.67325">
        <ele>355</ele>
        <time>2015-12-06T09:36:27.000Z</time>
      </trkpt>
      <trkpt lat="47.49085" lon="6.67321">
        <ele>355</ele>
        <time>2015-12-06T09:36:28.000Z</time>
      </trkpt>
      <trkpt lat="47.49086" lon="6.67315">
        <ele>355</ele>
        <time>2015-12-06T09:36:29.000Z</time>
      </trkpt>
      <trkpt lat="47.49086" lon="6.67311">
        <ele>355</ele>
        <time>2015-12-06T09:36:30.000Z</time>
      </trkpt>
      <trkpt lat="47.49087" lon="6.67306">
        <ele>356</ele>
        <time>2015-12-06T09:36:31.000Z</time>
      </trkpt>
      <trkpt lat="47.49088" lon="6.67301">
        <ele>356</ele>
        <time>2015-12-06T09:36:32.000Z</time>
      </trkpt>
      <trkpt lat="47.49089" lon="6.67298">
        <ele>356</ele>
        <time>2015-12-06T09:36:33.000Z</time>
      </trkpt>
      <trkpt lat="47.49091" lon="6.67294">
        <ele>356</ele>
        <time>2015-12-06T09:36:34.000Z</time>
      </trkpt>
      <trkpt lat="47.49091" lon="6.67289">
        <ele>356</ele>
        <time>2015-12-06T09:36:35.000Z</time>
      </trkpt>
      <trkpt lat="47.49092" lon="6.67285">
        <ele>356</ele>
        <time>2015-12-06T09:36:36.001Z</time>
      </trkpt>
      <trkpt lat="47.49093" lon="6.6728">
        <ele>356</ele>
        <time>2015-12-06T09:36:37.000Z</time>
      </trkpt>
      <trkpt lat="47.49094" lon="6.67275">
        <ele>356</ele>
        <time>2015-12-06T09:36:38.000Z</time>
      </trkpt>
      <trkpt lat="47.49095" lon="6.6727">
        <ele>356</ele>
        <time>2015-12-06T09:36:39.000Z</time>
      </trkpt>
      <trkpt lat="47.49096" lon="6.67266">
        <ele>356</ele>
        <time>2015-12-06T09:36:40.000Z</time>
      </trkpt>
      <trkpt lat="47.49098" lon="6.67261">
        <ele>356</ele>
        <time>2015-12-06T09:36:41.000Z</time>
      </trkpt>
      <trkpt lat="47.49099" lon="6.67257">
        <ele>356</ele>
        <time>2015-12-06T09:36:42.000Z</time>
      </trkpt>
      <trkpt lat="47.491" lon="6.67253">
        <ele>356</ele>
        <time>2015-12-06T09:36:43.000Z</time>
      </trkpt>
      <trkpt lat="47.49101" lon="6.67249">
        <ele>358</ele>
        <time>2015-12-06T09:36:44.000Z</time>
      </trkpt>
      <trkpt lat="47.49103" lon="6.67245">
        <ele>358</ele>
        <time>2015-12-06T09:36:45.000Z</time>
      </trkpt>
      <trkpt lat="47.49105" lon="6.67241">
        <ele>358</ele>
        <time>2015-12-06T09:36:46.000Z</time>
      </trkpt>
      <trkpt lat="47.49106" lon="6.67237">
        <ele>358</ele>
        <time>2015-12-06T09:36:47.000Z</time>
      </trkpt>
      <trkpt lat="47.49107" lon="6.67233">
        <ele>358</ele>
        <time>2015-12-06T09:36:48.000Z</time>
      </trkpt>
      <trkpt lat="47.49108" lon="6.67229">
        <ele>359</ele>
        <time>2015-12-06T09:36:49.000Z</time>
      </trkpt>
      <trkpt lat="47.49109" lon="6.67226">
        <ele>359</ele>
        <time>2015-12-06T09:36:50.000Z</time>
      </trkpt>
      <trkpt lat="47.4911" lon="6.67222">
        <ele>359</ele>
        <time>2015-12-06T09:36:51.000Z</time>
      </trkpt>
      <trkpt lat="47.49111" lon="6.67218">
        <ele>359</ele>
        <time>2015-12-06T09:36:52.000Z</time>
      </trkpt>
      <trkpt lat="47.49111" lon="6.67215">
        <ele>359</ele>
        <time>2015-12-06T09:36:53.000Z</time>
      </trkpt>
      <trkpt lat="47.49112" lon="6.67211">
        <ele>359</ele>
        <time>2015-12-06T09:36:54.000Z</time>
      </trkpt>
      <trkpt lat="47.49112" lon="6.67206">
        <ele>359</ele>
        <time>2015-12-06T09:36:55.000Z</time>
      </trkpt>
      <trkpt lat="47.49113" lon="6.67202">
        <ele>360</ele>
        <time>2015-12-06T09:36:56.000Z</time>
      </trkpt>
      <trkpt lat="47.49113" lon="6.67197">
        <ele>360</ele>
        <time>2015-12-06T09:36:57.000Z</time>
      </trkpt>
      <trkpt lat="47.49114" lon="6.67193">
        <ele>360</ele>
        <time>2015-12-06T09:36:58.000Z</time>
      </trkpt>
      <trkpt lat="47.49114" lon="6.67189">
        <ele>360</ele>
        <time>2015-12-06T09:36:59.000Z</time>
      </trkpt>
      <trkpt lat="47.49114" lon="6.67185">
        <ele>360</ele>
        <time>2015-12-06T09:37:00.000Z</time>
      </trkpt>
      <trkpt lat="47.49114" lon="6.6718">
        <ele>360</ele>
        <time>2015-12-06T09:37:01.000Z</time>
      </trkpt>
      <trkpt lat="47.49114" lon="6.67176">
        <ele>360</ele>
        <time>2015-12-06T09:37:02.000Z</time>
      </trkpt>
      <trkpt lat="47.49114" lon="6.67172">
        <ele>360</ele>
        <time>2015-12-06T09:37:03.000Z</time>
      </trkpt>
      <trkpt lat="47.49113" lon="6.67167">
        <ele>360</ele>
        <time>2015-12-06T09:37:04.000Z</time>
      </trkpt>
      <trkpt lat="47.49113" lon="6.67162">
        <ele>363</ele>
        <time>2015-12-06T09:37:05.000Z</time>
      </trkpt>
      <trkpt lat="47.49112" lon="6.67157">
        <ele>363</ele>
        <time>2015-12-06T09:37:06.000Z</time>
      </trkpt>
      <trkpt lat="47.49112" lon="6.67153">
        <ele>363</ele>
        <time>2015-12-06T09:37:07.000Z</time>
      </trkpt>
      <trkpt lat="47.49112" lon="6.67149">
        <ele>363</ele>
        <time>2015-12-06T09:37:08.000Z</time>
      </trkpt>
      <trkpt lat="47.49112" lon="6.67145">
        <ele>363</ele>
        <time>2015-12-06T09:37:09.000Z</time>
      </trkpt>
      <trkpt lat="47.49111" lon="6.67141">
        <ele>363</ele>
        <time>2015-12-06T09:37:10.000Z</time>
      </trkpt>
      <trkpt lat="47.49111" lon="6.67138">
        <ele>363</ele>
        <time>2015-12-06T09:37:11.000Z</time>
      </trkpt>
      <trkpt lat="47.4911" lon="6.67133">
        <ele>364</ele>
        <time>2015-12-06T09:37:12.000Z</time>
      </trkpt>
      <trkpt lat="47.4911" lon="6.67129">
        <ele>364</ele>
        <time>2015-12-06T09:37:13.000Z</time>
      </trkpt>
      <trkpt lat="47.49109" lon="6.67126">
        <ele>364</ele>
        <time>2015-12-06T09:37:14.000Z</time>
      </trkpt>
      <trkpt lat="47.49109" lon="6.67122">
        <ele>364</ele>
        <time>2015-12-06T09:37:15.000Z</time>
      </trkpt>
      <trkpt lat="47.49109" lon="6.67119">
        <ele>364</ele>
        <time>2015-12-06T09:37:16.000Z</time>
      </trkpt>
      <trkpt lat="47.49109" lon="6.67115">
        <ele>364</ele>
        <time>2015-12-06T09:37:17.000Z</time>
      </trkpt>
      <trkpt lat="47.49108" lon="6.67112">
        <ele>364</ele>
        <time>2015-12-06T09:37:18.000Z</time>
      </trkpt>
      <trkpt lat="47.49108" lon="6.67108">
        <ele>364</ele>
        <time>2015-12-06T09:37:19.000Z</time>
      </trkpt>
      <trkpt lat="47.49108" lon="6.67104">
        <ele>365</ele>
        <time>2015-12-06T09:37:20.000Z</time>
      </trkpt>
      <trkpt lat="47.49108" lon="6.671">
        <ele>365</ele>
        <time>2015-12-06T09:37:21.000Z</time>
      </trkpt>
      <trkpt lat="47.49108" lon="6.67097">
        <ele>365</ele>
        <time>2015-12-06T09:37:22.000Z</time>
      </trkpt>
      <trkpt lat="47.49108" lon="6.67093">
        <ele>365</ele>
        <time>2015-12-06T09:37:23.000Z</time>
      </trkpt>
      <trkpt lat="47.49108" lon="6.67089">
        <ele>365</ele>
        <time>2015-12-06T09:37:24.000Z</time>
      </trkpt>
      <trkpt lat="47.49108" lon="6.67086">
        <ele>365</ele>
        <time>2015-12-06T09:37:25.000Z</time>
      </trkpt>
      <trkpt lat="47.49108" lon="6.67082">
        <ele>368</ele>
        <time>2015-12-06T09:37:26.000Z</time>
      </trkpt>
      <trkpt lat="47.49108" lon="6.67079">
        <ele>368</ele>
        <time>2015-12-06T09:37:27.000Z</time>
      </trkpt>
      <trkpt lat="47.49108" lon="6.67075">
        <ele>368</ele>
        <time>2015-12-06T09:37:28.000Z</time>
      </trkpt>
      <trkpt lat="47.49108" lon="6.67071">
        <ele>368</ele>
        <time>2015-12-06T09:37:29.000Z</time>
      </trkpt>
      <trkpt lat="47.49108" lon="6.67068">
        <ele>368</ele>
        <time>2015-12-06T09:37:30.000Z</time>
      </trkpt>
      <trkpt lat="47.49108" lon="6.67064">
        <ele>368</ele>
        <time>2015-12-06T09:37:31.000Z</time>
      </trkpt>
      <trkpt lat="47.49107" lon="6.67061">
        <ele>368</ele>
        <time>2015-12-06T09:37:32.000Z</time>
      </trkpt>
      <trkpt lat="47.49107" lon="6.67057">
        <ele>368</ele>
        <time>2015-12-06T09:37:33.000Z</time>
      </trkpt>
      <trkpt lat="47.49106" lon="6.67054">
        <ele>368</ele>
        <time>2015-12-06T09:37:34.000Z</time>
      </trkpt>
      <trkpt lat="47.49106" lon="6.6705">
        <ele>369</ele>
        <time>2015-12-06T09:37:35.000Z</time>
      </trkpt>
      <trkpt lat="47.49105" lon="6.67046">
        <ele>369</ele>
        <time>2015-12-06T09:37:36.000Z</time>
      </trkpt>
      <trkpt lat="47.49105" lon="6.67042">
        <ele>369</ele>
        <time>2015-12-06T09:37:37.000Z</time>
      </trkpt>
      <trkpt lat="47.49104" lon="6.67039">
        <ele>369</ele>
        <time>2015-12-06T09:37:38.000Z</time>
      </trkpt>
      <trkpt lat="47.49103" lon="6.67036">
        <ele>369</ele>
        <time>2015-12-06T09:37:39.000Z</time>
      </trkpt>
      <trkpt lat="47.49102" lon="6.67033">
        <ele>369</ele>
        <time>2015-12-06T09:37:40.000Z</time>
      </trkpt>
      <trkpt lat="47.49101" lon="6.67026">
        <ele>370</ele>
        <time>2015-12-06T09:37:42.000Z</time>
      </trkpt>
      <trkpt lat="47.49101" lon="6.67023">
        <ele>370</ele>
        <time>2015-12-06T09:37:43.000Z</time>
      </trkpt>
      <trkpt lat="47.491" lon="6.67019">
        <ele>370</ele>
        <time>2015-12-06T09:37:44.000Z</time>
      </trkpt>
      <trkpt lat="47.491" lon="6.67015">
        <ele>370</ele>
        <time>2015-12-06T09:37:45.000Z</time>
      </trkpt>
      <trkpt lat="47.491" lon="6.67011">
        <ele>370</ele>
        <time>2015-12-06T09:37:46.000Z</time>
      </trkpt>
      <trkpt lat="47.49099" lon="6.67007">
        <ele>370</ele>
        <time>2015-12-06T09:37:47.000Z</time>
      </trkpt>
      <trkpt lat="47.49098" lon="6.67003">
        <ele>371</ele>
        <time>2015-12-06T09:37:48.000Z</time>
      </trkpt>
      <trkpt lat="47.49097" lon="6.66999">
        <ele>373</ele>
        <time>2015-12-06T09:37:49.000Z</time>
      </trkpt>
      <trkpt lat="47.49096" lon="6.66996">
        <ele>373</ele>
        <time>2015-12-06T09:37:50.000Z</time>
      </trkpt>
      <trkpt lat="47.49095" lon="6.66993">
        <ele>373</ele>
        <time>2015-12-06T09:37:51.000Z</time>
      </trkpt>
      <trkpt lat="47.49095" lon="6.66989">
        <ele>373</ele>
        <time>2015-12-06T09:37:52.000Z</time>
      </trkpt>
      <trkpt lat="47.49094" lon="6.66986">
        <ele>373</ele>
        <time>2015-12-06T09:37:53.000Z</time>
      </trkpt>
      <trkpt lat="47.49093" lon="6.66982">
        <ele>373</ele>
        <time>2015-12-06T09:37:54.000Z</time>
      </trkpt>
      <trkpt lat="47.49092" lon="6.66979">
        <ele>373</ele>
        <time>2015-12-06T09:37:55.000Z</time>
      </trkpt>
      <trkpt lat="47.49092" lon="6.66975">
        <ele>373</ele>
        <time>2015-12-06T09:37:56.000Z</time>
      </trkpt>
      <trkpt lat="47.49092" lon="6.66972">
        <ele>374</ele>
        <time>2015-12-06T09:37:57.000Z</time>
      </trkpt>
      <trkpt lat="47.49091" lon="6.66965">
        <ele>374</ele>
        <time>2015-12-06T09:37:59.000Z</time>
      </trkpt>
      <trkpt lat="47.4909" lon="6.66962">
        <ele>374</ele>
        <time>2015-12-06T09:38:00.000Z</time>
      </trkpt>
      <trkpt lat="47.49088" lon="6.66958">
        <ele>374</ele>
        <time>2015-12-06T09:38:02.000Z</time>
      </trkpt>
      <trkpt lat="47.49087" lon="6.66955">
        <ele>374</ele>
        <time>2015-12-06T09:38:03.000Z</time>
      </trkpt>
      <trkpt lat="47.49084" lon="6.6695">
        <ele>375</ele>
        <time>2015-12-06T09:38:05.000Z</time>
      </trkpt>
      <trkpt lat="47.49083" lon="6.66947">
        <ele>376</ele>
        <time>2015-12-06T09:38:06.000Z</time>
      </trkpt>
      <trkpt lat="47.49082" lon="6.66944">
        <ele>376</ele>
        <time>2015-12-06T09:38:06.999Z</time>
      </trkpt>
      <trkpt lat="47.4908" lon="6.66942">
        <ele>376</ele>
        <time>2015-12-06T09:38:08.000Z</time>
      </trkpt>
      <trkpt lat="47.49078" lon="6.6694">
        <ele>376</ele>
        <time>2015-12-06T09:38:09.000Z</time>
      </trkpt>
      <trkpt lat="47.49076" lon="6.66937">
        <ele>376</ele>
        <time>2015-12-06T09:38:10.000Z</time>
      </trkpt>
      <trkpt lat="47.49074" lon="6.66934">
        <ele>376</ele>
        <time>2015-12-06T09:38:11.000Z</time>
      </trkpt>
      <trkpt lat="47.49072" lon="6.66931">
        <ele>377</ele>
        <time>2015-12-06T09:38:12.000Z</time>
      </trkpt>
      <trkpt lat="47.4907" lon="6.66929">
        <ele>377</ele>
        <time>2015-12-06T09:38:13.000Z</time>
      </trkpt>
      <trkpt lat="47.49068" lon="6.66926">
        <ele>377</ele>
        <time>2015-12-06T09:38:14.000Z</time>
      </trkpt>
      <trkpt lat="47.49067" lon="6.66924">
        <ele>377</ele>
        <time>2015-12-06T09:38:15.000Z</time>
      </trkpt>
      <trkpt lat="47.49065" lon="6.66921">
        <ele>377</ele>
        <time>2015-12-06T09:38:16.000Z</time>
      </trkpt>
      <trkpt lat="47.49062" lon="6.66917">
        <ele>379</ele>
        <time>2015-12-06T09:38:18.000Z</time>
      </trkpt>
      <trkpt lat="47.49061" lon="6.66914">
        <ele>379</ele>
        <time>2015-12-06T09:38:19.000Z</time>
      </trkpt>
      <trkpt lat="47.49058" lon="6.66911">
        <ele>379</ele>
        <time>2015-12-06T09:38:21.000Z</time>
      </trkpt>
      <trkpt lat="47.49057" lon="6.66909">
        <ele>379</ele>
        <time>2015-12-06T09:38:22.000Z</time>
      </trkpt>
      <trkpt lat="47.49053" lon="6.66906">
        <ele>380</ele>
        <time>2015-12-06T09:38:24.000Z</time>
      </trkpt>
      <trkpt lat="47.49052" lon="6.66904">
        <ele>380</ele>
        <time>2015-12-06T09:38:25.000Z</time>
      </trkpt>
      <trkpt lat="47.49049" lon="6.66899">
        <ele>380</ele>
        <time>2015-12-06T09:38:27.000Z</time>
      </trkpt>
      <trkpt lat="47.49048" lon="6.66896">
        <ele>380</ele>
        <time>2015-12-06T09:38:28.000Z</time>
      </trkpt>
      <trkpt lat="47.49045" lon="6.66891">
        <ele>380</ele>
        <time>2015-12-06T09:38:30.000Z</time>
      </trkpt>
      <trkpt lat="47.49044" lon="6.66889">
        <ele>380</ele>
        <time>2015-12-06T09:38:31.000Z</time>
      </trkpt>
      <trkpt lat="47.49041" lon="6.66885">
        <ele>380</ele>
        <time>2015-12-06T09:38:33.000Z</time>
      </trkpt>
      <trkpt lat="47.49039" lon="6.66883">
        <ele>380</ele>
        <time>2015-12-06T09:38:34.000Z</time>
      </trkpt>
      <trkpt lat="47.49036" lon="6.66878">
        <ele>381</ele>
        <time>2015-12-06T09:38:35.999Z</time>
      </trkpt>
      <trkpt lat="47.49036" lon="6.66876">
        <ele>381</ele>
        <time>2015-12-06T09:38:37.000Z</time>
      </trkpt>
      <trkpt lat="47.49035" lon="6.66869">
        <ele>381</ele>
        <time>2015-12-06T09:38:39.000Z</time>
      </trkpt>
      <trkpt lat="47.49037" lon="6.66866">
        <ele>381</ele>
        <time>2015-12-06T09:38:40.000Z</time>
      </trkpt>
      <trkpt lat="47.49039" lon="6.66864">
        <ele>381</ele>
        <time>2015-12-06T09:38:41.000Z</time>
      </trkpt>
      <trkpt lat="47.49042" lon="6.66863">
        <ele>381</ele>
        <time>2015-12-06T09:38:42.000Z</time>
      </trkpt>
      <trkpt lat="47.49044" lon="6.66863">
        <ele>381</ele>
        <time>2015-12-06T09:38:43.000Z</time>
      </trkpt>
      <trkpt lat="47.49046" lon="6.66863">
        <ele>381</ele>
        <time>2015-12-06T09:38:44.000Z</time>
      </trkpt>
      <trkpt lat="47.49051" lon="6.66861">
        <ele>381</ele>
        <time>2015-12-06T09:38:46.000Z</time>
      </trkpt>
      <trkpt lat="47.49053" lon="6.66861">
        <ele>381</ele>
        <time>2015-12-06T09:38:47.000Z</time>
      </trkpt>
      <trkpt lat="47.49056" lon="6.6686">
        <ele>381</ele>
        <time>2015-12-06T09:38:49.000Z</time>
      </trkpt>
      <trkpt lat="47.49058" lon="6.6686">
        <ele>382</ele>
        <time>2015-12-06T09:38:50.000Z</time>
      </trkpt>
      <trkpt lat="47.49061" lon="6.66859">
        <ele>382</ele>
        <time>2015-12-06T09:38:52.000Z</time>
      </trkpt>
      <trkpt lat="47.49063" lon="6.66858">
        <ele>382</ele>
        <time>2015-12-06T09:38:53.000Z</time>
      </trkpt>
      <trkpt lat="47.49067" lon="6.66856">
        <ele>382</ele>
        <time>2015-12-06T09:38:55.000Z</time>
      </trkpt>
      <trkpt lat="47.49068" lon="6.66855">
        <ele>382</ele>
        <time>2015-12-06T09:38:56.000Z</time>
      </trkpt>
      <trkpt lat="47.49072" lon="6.66852">
        <ele>382</ele>
        <time>2015-12-06T09:38:58.000Z</time>
      </trkpt>
      <trkpt lat="47.49074" lon="6.66851">
        <ele>382</ele>
        <time>2015-12-06T09:38:59.000Z</time>
      </trkpt>
      <trkpt lat="47.49077" lon="6.66849">
        <ele>383</ele>
        <time>2015-12-06T09:39:01.000Z</time>
      </trkpt>
      <trkpt lat="47.49079" lon="6.66848">
        <ele>383</ele>
        <time>2015-12-06T09:39:02.000Z</time>
      </trkpt>
      <trkpt lat="47.49083" lon="6.66846">
        <ele>383</ele>
        <time>2015-12-06T09:39:04.000Z</time>
      </trkpt>
      <trkpt lat="47.49085" lon="6.66845">
        <ele>383</ele>
        <time>2015-12-06T09:39:05.000Z</time>
      </trkpt>
      <trkpt lat="47.49088" lon="6.66843">
        <ele>384</ele>
        <time>2015-12-06T09:39:07.000Z</time>
      </trkpt>
      <trkpt lat="47.4909" lon="6.66841">
        <ele>384</ele>
        <time>2015-12-06T09:39:08.000Z</time>
      </trkpt>
      <trkpt lat="47.49094" lon="6.66838">
        <ele>384</ele>
        <time>2015-12-06T09:39:10.000Z</time>
      </trkpt>
      <trkpt lat="47.49096" lon="6.66836">
        <ele>384</ele>
        <time>2015-12-06T09:39:11.000Z</time>
      </trkpt>
      <trkpt lat="47.49099" lon="6.66833">
        <ele>387</ele>
        <time>2015-12-06T09:39:13.000Z</time>
      </trkpt>
      <trkpt lat="47.49101" lon="6.66831">
        <ele>387</ele>
        <time>2015-12-06T09:39:14.000Z</time>
      </trkpt>
      <trkpt lat="47.49105" lon="6.66827">
        <ele>387</ele>
        <time>2015-12-06T09:39:16.000Z</time>
      </trkpt>
      <trkpt lat="47.49106" lon="6.66825">
        <ele>388</ele>
        <time>2015-12-06T09:39:17.000Z</time>
      </trkpt>
      <trkpt lat="47.49108" lon="6.66822">
        <ele>388</ele>
        <time>2015-12-06T09:39:18.000Z</time>
      </trkpt>
      <trkpt lat="47.4911" lon="6.6682">
        <ele>388</ele>
        <time>2015-12-06T09:39:19.000Z</time>
      </trkpt>
      <trkpt lat="47.49111" lon="6.66817">
        <ele>388</ele>
        <time>2015-12-06T09:39:20.000Z</time>
      </trkpt>
      <trkpt lat="47.49113" lon="6.66815">
        <ele>388</ele>
        <time>2015-12-06T09:39:21.000Z</time>
      </trkpt>
      <trkpt lat="47.49116" lon="6.6681">
        <ele>389</ele>
        <time>2015-12-06T09:39:23.000Z</time>
      </trkpt>
      <trkpt lat="47.49118" lon="6.66808">
        <ele>389</ele>
        <time>2015-12-06T09:39:24.000Z</time>
      </trkpt>
      <trkpt lat="47.4912" lon="6.66804">
        <ele>389</ele>
        <time>2015-12-06T09:39:26.000Z</time>
      </trkpt>
      <trkpt lat="47.49121" lon="6.66802">
        <ele>389</ele>
        <time>2015-12-06T09:39:27.000Z</time>
      </trkpt>
      <trkpt lat="47.49124" lon="6.668">
        <ele>389</ele>
        <time>2015-12-06T09:39:29.000Z</time>
      </trkpt>
      <trkpt lat="47.49126" lon="6.66799">
        <ele>389</ele>
        <time>2015-12-06T09:39:30.000Z</time>
      </trkpt>
      <trkpt lat="47.49129" lon="6.66796">
        <ele>389</ele>
        <time>2015-12-06T09:39:32.000Z</time>
      </trkpt>
      <trkpt lat="47.49131" lon="6.66795">
        <ele>389</ele>
        <time>2015-12-06T09:39:33.000Z</time>
      </trkpt>
      <trkpt lat="47.49135" lon="6.66793">
        <ele>390</ele>
        <time>2015-12-06T09:39:35.000Z</time>
      </trkpt>
      <trkpt lat="47.49137" lon="6.66791">
        <ele>390</ele>
        <time>2015-12-06T09:39:36.000Z</time>
      </trkpt>
      <trkpt lat="47.4914" lon="6.66789">
        <ele>390</ele>
        <time>2015-12-06T09:39:37.000Z</time>
      </trkpt>
      <trkpt lat="47.49143" lon="6.66788">
        <ele>390</ele>
        <time>2015-12-06T09:39:38.000Z</time>
      </trkpt>
      <trkpt lat="47.49145" lon="6.66787">
        <ele>390</ele>
        <time>2015-12-06T09:39:39.000Z</time>
      </trkpt>
      <trkpt lat="47.49148" lon="6.66786">
        <ele>390</ele>
        <time>2015-12-06T09:39:40.000Z</time>
      </trkpt>
      <trkpt lat="47.49151" lon="6.66785">
        <ele>390</ele>
        <time>2015-12-06T09:39:40.998Z</time>
      </trkpt>
      <trkpt lat="47.49154" lon="6.66784">
        <ele>390</ele>
        <time>2015-12-06T09:39:42.000Z</time>
      </trkpt>
      <trkpt lat="47.49157" lon="6.66783">
        <ele>391</ele>
        <time>2015-12-06T09:39:43.000Z</time>
      </trkpt>
      <trkpt lat="47.4916" lon="6.66782">
        <ele>391</ele>
        <time>2015-12-06T09:39:44.000Z</time>
      </trkpt>
      <trkpt lat="47.49164" lon="6.66781">
        <ele>391</ele>
        <time>2015-12-06T09:39:45.000Z</time>
      </trkpt>
      <trkpt lat="47.49167" lon="6.6678">
        <ele>391</ele>
        <time>2015-12-06T09:39:46.000Z</time>
      </trkpt>
      <trkpt lat="47.4917" lon="6.66779">
        <ele>391</ele>
        <time>2015-12-06T09:39:47.000Z</time>
      </trkpt>
      <trkpt lat="47.49173" lon="6.66778">
        <ele>391</ele>
        <time>2015-12-06T09:39:48.000Z</time>
      </trkpt>
      <trkpt lat="47.49175" lon="6.66777">
        <ele>392</ele>
        <time>2015-12-06T09:39:49.000Z</time>
      </trkpt>
      <trkpt lat="47.49178" lon="6.66775">
        <ele>392</ele>
        <time>2015-12-06T09:39:50.000Z</time>
      </trkpt>
      <trkpt lat="47.4918" lon="6.66774">
        <ele>392</ele>
        <time>2015-12-06T09:39:51.000Z</time>
      </trkpt>
      <trkpt lat="47.49183" lon="6.66773">
        <ele>392</ele>
        <time>2015-12-06T09:39:52.000Z</time>
      </trkpt>
      <trkpt lat="47.49186" lon="6.66772">
        <ele>392</ele>
        <time>2015-12-06T09:39:53.000Z</time>
      </trkpt>
      <trkpt lat="47.49188" lon="6.66771">
        <ele>392</ele>
        <time>2015-12-06T09:39:54.000Z</time>
      </trkpt>
      <trkpt lat="47.49191" lon="6.66769">
        <ele>392</ele>
        <time>2015-12-06T09:39:55.000Z</time>
      </trkpt>
      <trkpt lat="47.49193" lon="6.66768">
        <ele>392</ele>
        <time>2015-12-06T09:39:56.000Z</time>
      </trkpt>
      <trkpt lat="47.49196" lon="6.66766">
        <ele>392</ele>
        <time>2015-12-06T09:39:57.000Z</time>
      </trkpt>
      <trkpt lat="47.49199" lon="6.66765">
        <ele>392</ele>
        <time>2015-12-06T09:39:58.000Z</time>
      </trkpt>
      <trkpt lat="47.49201" lon="6.66763">
        <ele>392</ele>
        <time>2015-12-06T09:39:59.000Z</time>
      </trkpt>
      <trkpt lat="47.49204" lon="6.66761">
        <ele>392</ele>
        <time>2015-12-06T09:40:00.000Z</time>
      </trkpt>
      <trkpt lat="47.49206" lon="6.6676">
        <ele>392</ele>
        <time>2015-12-06T09:40:01.000Z</time>
      </trkpt>
      <trkpt lat="47.49208" lon="6.66758">
        <ele>392</ele>
        <time>2015-12-06T09:40:02.000Z</time>
      </trkpt>
      <trkpt lat="47.49211" lon="6.66756">
        <ele>392</ele>
        <time>2015-12-06T09:40:03.000Z</time>
      </trkpt>
      <trkpt lat="47.49213" lon="6.66755">
        <ele>392</ele>
        <time>2015-12-06T09:40:04.000Z</time>
      </trkpt>
      <trkpt lat="47.49216" lon="6.66754">
        <ele>392</ele>
        <time>2015-12-06T09:40:05.000Z</time>
      </trkpt>
      <trkpt lat="47.49218" lon="6.66753">
        <ele>392</ele>
        <time>2015-12-06T09:40:06.000Z</time>
      </trkpt>
      <trkpt lat="47.49221" lon="6.66753">
        <ele>392</ele>
        <time>2015-12-06T09:40:07.000Z</time>
      </trkpt>
      <trkpt lat="47.49223" lon="6.66751">
        <ele>392</ele>
        <time>2015-12-06T09:40:08.000Z</time>
      </trkpt>
      <trkpt lat="47.49226" lon="6.66749">
        <ele>397</ele>
        <time>2015-12-06T09:40:10.000Z</time>
      </trkpt>
      <trkpt lat="47.49228" lon="6.66749">
        <ele>397</ele>
        <time>2015-12-06T09:40:11.000Z</time>
      </trkpt>
      <trkpt lat="47.49232" lon="6.66748">
        <ele>397</ele>
        <time>2015-12-06T09:40:13.000Z</time>
      </trkpt>
      <trkpt lat="47.49235" lon="6.66748">
        <ele>397</ele>
        <time>2015-12-06T09:40:14.000Z</time>
      </trkpt>
      <trkpt lat="47.49237" lon="6.66747">
        <ele>397</ele>
        <time>2015-12-06T09:40:15.000Z</time>
      </trkpt>
      <trkpt lat="47.49239" lon="6.66746">
        <ele>397</ele>
        <time>2015-12-06T09:40:16.000Z</time>
      </trkpt>
      <trkpt lat="47.49241" lon="6.66745">
        <ele>396</ele>
        <time>2015-12-06T09:40:17.000Z</time>
      </trkpt>
      <trkpt lat="47.49244" lon="6.66743">
        <ele>396</ele>
        <time>2015-12-06T09:40:18.000Z</time>
      </trkpt>
      <trkpt lat="47.49246" lon="6.66742">
        <ele>396</ele>
        <time>2015-12-06T09:40:19.000Z</time>
      </trkpt>
      <trkpt lat="47.49248" lon="6.66741">
        <ele>396</ele>
        <time>2015-12-06T09:40:20.000Z</time>
      </trkpt>
      <trkpt lat="47.4925" lon="6.6674">
        <ele>397</ele>
        <time>2015-12-06T09:40:21.000Z</time>
      </trkpt>
      <trkpt lat="47.49253" lon="6.66738">
        <ele>397</ele>
        <time>2015-12-06T09:40:22.000Z</time>
      </trkpt>
      <trkpt lat="47.49255" lon="6.66737">
        <ele>397</ele>
        <time>2015-12-06T09:40:23.000Z</time>
      </trkpt>
      <trkpt lat="47.49257" lon="6.66735">
        <ele>397</ele>
        <time>2015-12-06T09:40:24.000Z</time>
      </trkpt>
      <trkpt lat="47.49259" lon="6.66733">
        <ele>398</ele>
        <time>2015-12-06T09:40:25.000Z</time>
      </trkpt>
      <trkpt lat="47.49261" lon="6.66731">
        <ele>398</ele>
        <time>2015-12-06T09:40:26.000Z</time>
      </trkpt>
      <trkpt lat="47.49263" lon="6.66729">
        <ele>398</ele>
        <time>2015-12-06T09:40:27.000Z</time>
      </trkpt>
      <trkpt lat="47.49265" lon="6.66728">
        <ele>398</ele>
        <time>2015-12-06T09:40:28.000Z</time>
      </trkpt>
      <trkpt lat="47.49267" lon="6.66726">
        <ele>398</ele>
        <time>2015-12-06T09:40:29.000Z</time>
      </trkpt>
      <trkpt lat="47.49269" lon="6.66725">
        <ele>399</ele>
        <time>2015-12-06T09:40:30.000Z</time>
      </trkpt>
      <trkpt lat="47.49271" lon="6.66724">
        <ele>399</ele>
        <time>2015-12-06T09:40:31.000Z</time>
      </trkpt>
      <trkpt lat="47.49273" lon="6.66722">
        <ele>399</ele>
        <time>2015-12-06T09:40:32.000Z</time>
      </trkpt>
      <trkpt lat="47.49276" lon="6.66721">
        <ele>399</ele>
        <time>2015-12-06T09:40:33.000Z</time>
      </trkpt>
      <trkpt lat="47.49279" lon="6.6672">
        <ele>399</ele>
        <time>2015-12-06T09:40:34.000Z</time>
      </trkpt>
      <trkpt lat="47.49281" lon="6.66719">
        <ele>399</ele>
        <time>2015-12-06T09:40:35.000Z</time>
      </trkpt>
      <trkpt lat="47.49284" lon="6.66719">
        <ele>399</ele>
        <time>2015-12-06T09:40:36.000Z</time>
      </trkpt>
      <trkpt lat="47.49287" lon="6.66718">
        <ele>399</ele>
        <time>2015-12-06T09:40:37.000Z</time>
      </trkpt>
      <trkpt lat="47.4929" lon="6.66717">
        <ele>399</ele>
        <time>2015-12-06T09:40:38.000Z</time>
      </trkpt>
      <trkpt lat="47.49293" lon="6.66717">
        <ele>399</ele>
        <time>2015-12-06T09:40:39.000Z</time>
      </trkpt>
      <trkpt lat="47.49296" lon="6.66716">
        <ele>399</ele>
        <time>2015-12-06T09:40:40.000Z</time>
      </trkpt>
      <trkpt lat="47.49298" lon="6.66716">
        <ele>399</ele>
        <time>2015-12-06T09:40:41.000Z</time>
      </trkpt>
      <trkpt lat="47.49301" lon="6.66715">
        <ele>399</ele>
        <time>2015-12-06T09:40:42.000Z</time>
      </trkpt>
      <trkpt lat="47.49303" lon="6.66715">
        <ele>399</ele>
        <time>2015-12-06T09:40:43.000Z</time>
      </trkpt>
      <trkpt lat="47.49306" lon="6.66714">
        <ele>399</ele>
        <time>2015-12-06T09:40:44.000Z</time>
      </trkpt>
      <trkpt lat="47.49308" lon="6.66714">
        <ele>399</ele>
        <time>2015-12-06T09:40:44.999Z</time>
      </trkpt>
      <trkpt lat="47.49311" lon="6.66712">
        <ele>400</ele>
        <time>2015-12-06T09:40:46.000Z</time>
      </trkpt>
      <trkpt lat="47.49314" lon="6.6671">
        <ele>400</ele>
        <time>2015-12-06T09:40:47.000Z</time>
      </trkpt>
      <trkpt lat="47.49317" lon="6.66709">
        <ele>400</ele>
        <time>2015-12-06T09:40:48.000Z</time>
      </trkpt>
      <trkpt lat="47.4932" lon="6.66708">
        <ele>400</ele>
        <time>2015-12-06T09:40:49.000Z</time>
      </trkpt>
      <trkpt lat="47.49322" lon="6.66708">
        <ele>400</ele>
        <time>2015-12-06T09:40:50.000Z</time>
      </trkpt>
      <trkpt lat="47.49325" lon="6.66707">
        <ele>400</ele>
        <time>2015-12-06T09:40:51.000Z</time>
      </trkpt>
      <trkpt lat="47.49327" lon="6.66706">
        <ele>400</ele>
        <time>2015-12-06T09:40:52.000Z</time>
      </trkpt>
      <trkpt lat="47.49331" lon="6.66703">
        <ele>400</ele>
        <time>2015-12-06T09:40:54.000Z</time>
      </trkpt>
      <trkpt lat="47.49333" lon="6.667">
        <ele>401</ele>
        <time>2015-12-06T09:40:55.000Z</time>
      </trkpt>
      <trkpt lat="47.49334" lon="6.66697">
        <ele>399</ele>
        <time>2015-12-06T09:40:56.000Z</time>
      </trkpt>
      <trkpt lat="47.49334" lon="6.66692">
        <ele>400</ele>
        <time>2015-12-06T09:40:57.000Z</time>
      </trkpt>
      <trkpt lat="47.49335" lon="6.66688">
        <ele>401</ele>
        <time>2015-12-06T09:40:58.000Z</time>
      </trkpt>
      <trkpt lat="47.49336" lon="6.66684">
        <ele>401</ele>
        <time>2015-12-06T09:40:59.000Z</time>
      </trkpt>
      <trkpt lat="47.49337" lon="6.6668">
        <ele>402</ele>
        <time>2015-12-06T09:41:00.000Z</time>
      </trkpt>
      <trkpt lat="47.49338" lon="6.66678">
        <ele>402</ele>
        <time>2015-12-06T09:41:01.000Z</time>
      </trkpt>
      <trkpt lat="47.49337" lon="6.66673">
        <ele>403</ele>
        <time>2015-12-06T09:41:06.000Z</time>
      </trkpt>
      <trkpt lat="47.49337" lon="6.6667">
        <ele>403</ele>
        <time>2015-12-06T09:41:07.000Z</time>
      </trkpt>
      <trkpt lat="47.49337" lon="6.66665">
        <ele>405</ele>
        <time>2015-12-06T09:41:09.000Z</time>
      </trkpt>
      <trkpt lat="47.49337" lon="6.66662">
        <ele>405</ele>
        <time>2015-12-06T09:41:10.000Z</time>
      </trkpt>
      <trkpt lat="47.49338" lon="6.66656">
        <ele>405</ele>
        <time>2015-12-06T09:41:12.000Z</time>
      </trkpt>
      <trkpt lat="47.49339" lon="6.66654">
        <ele>405</ele>
        <time>2015-12-06T09:41:13.000Z</time>
      </trkpt>
      <trkpt lat="47.49342" lon="6.66651">
        <ele>405</ele>
        <time>2015-12-06T09:41:15.000Z</time>
      </trkpt>
      <trkpt lat="47.49343" lon="6.6665">
        <ele>405</ele>
        <time>2015-12-06T09:41:16.000Z</time>
      </trkpt>
      <trkpt lat="47.49346" lon="6.66647">
        <ele>405</ele>
        <time>2015-12-06T09:41:18.000Z</time>
      </trkpt>
      <trkpt lat="47.49347" lon="6.66645">
        <ele>405</ele>
        <time>2015-12-06T09:41:19.000Z</time>
      </trkpt>
      <trkpt lat="47.49348" lon="6.66641">
        <ele>405</ele>
        <time>2015-12-06T09:41:20.000Z</time>
      </trkpt>
      <trkpt lat="47.49349" lon="6.66638">
        <ele>405</ele>
        <time>2015-12-06T09:41:21.000Z</time>
      </trkpt>
      <trkpt lat="47.4935" lon="6.66632">
        <ele>405</ele>
        <time>2015-12-06T09:41:23.000Z</time>
      </trkpt>
      <trkpt lat="47.49351" lon="6.66629">
        <ele>405</ele>
        <time>2015-12-06T09:41:24.000Z</time>
      </trkpt>
      <trkpt lat="47.4935" lon="6.66625">
        <ele>406</ele>
        <time>2015-12-06T09:41:25.000Z</time>
      </trkpt>
      <trkpt lat="47.4935" lon="6.66622">
        <ele>406</ele>
        <time>2015-12-06T09:41:26.000Z</time>
      </trkpt>
      <trkpt lat="47.49351" lon="6.66618">
        <ele>406</ele>
        <time>2015-12-06T09:41:28.001Z</time>
      </trkpt>
      <trkpt lat="47.49351" lon="6.66615">
        <ele>406</ele>
        <time>2015-12-06T09:41:29.000Z</time>
      </trkpt>
      <trkpt lat="47.49351" lon="6.6661">
        <ele>406</ele>
        <time>2015-12-06T09:41:31.002Z</time>
      </trkpt>
      <trkpt lat="47.4935" lon="6.66606">
        <ele>407</ele>
        <time>2015-12-06T09:41:32.000Z</time>
      </trkpt>
      <trkpt lat="47.4935" lon="6.66603">
        <ele>407</ele>
        <time>2015-12-06T09:41:33.000Z</time>
      </trkpt>
      <trkpt lat="47.49349" lon="6.666">
        <ele>407</ele>
        <time>2015-12-06T09:41:34.000Z</time>
      </trkpt>
      <trkpt lat="47.49349" lon="6.66596">
        <ele>408</ele>
        <time>2015-12-06T09:41:35.000Z</time>
      </trkpt>
      <trkpt lat="47.49349" lon="6.66593">
        <ele>408</ele>
        <time>2015-12-06T09:41:36.000Z</time>
      </trkpt>
      <trkpt lat="47.49348" lon="6.66587">
        <ele>408</ele>
        <time>2015-12-06T09:41:38.000Z</time>
      </trkpt>
      <trkpt lat="47.49348" lon="6.66584">
        <ele>408</ele>
        <time>2015-12-06T09:41:39.000Z</time>
      </trkpt>
      <trkpt lat="47.49346" lon="6.66579">
        <ele>411</ele>
        <time>2015-12-06T09:41:41.000Z</time>
      </trkpt>
      <trkpt lat="47.49345" lon="6.66576">
        <ele>411</ele>
        <time>2015-12-06T09:41:42.000Z</time>
      </trkpt>
      <trkpt lat="47.49343" lon="6.66572">
        <ele>411</ele>
        <time>2015-12-06T09:41:44.000Z</time>
      </trkpt>
      <trkpt lat="47.49343" lon="6.66569">
        <ele>411</ele>
        <time>2015-12-06T09:41:45.000Z</time>
      </trkpt>
      <trkpt lat="47.49341" lon="6.66565">
        <ele>411</ele>
        <time>2015-12-06T09:41:47.000Z</time>
      </trkpt>
      <trkpt lat="47.49341" lon="6.66563">
        <ele>411</ele>
        <time>2015-12-06T09:41:48.000Z</time>
      </trkpt>
      <trkpt lat="47.4934" lon="6.66558">
        <ele>411</ele>
        <time>2015-12-06T09:41:49.998Z</time>
      </trkpt>
      <trkpt lat="47.49341" lon="6.66556">
        <ele>411</ele>
        <time>2015-12-06T09:41:51.000Z</time>
      </trkpt>
      <trkpt lat="47.49341" lon="6.6655">
        <ele>412</ele>
        <time>2015-12-06T09:41:53.000Z</time>
      </trkpt>
      <trkpt lat="47.49341" lon="6.66546">
        <ele>412</ele>
        <time>2015-12-06T09:41:54.000Z</time>
      </trkpt>
      <trkpt lat="47.49342" lon="6.66542">
        <ele>412</ele>
        <time>2015-12-06T09:41:55.000Z</time>
      </trkpt>
      <trkpt lat="47.49343" lon="6.66539">
        <ele>412</ele>
        <time>2015-12-06T09:41:56.000Z</time>
      </trkpt>
      <trkpt lat="47.49345" lon="6.66536">
        <ele>412</ele>
        <time>2015-12-06T09:41:57.000Z</time>
      </trkpt>
      <trkpt lat="47.49347" lon="6.66533">
        <ele>412</ele>
        <time>2015-12-06T09:41:58.000Z</time>
      </trkpt>
      <trkpt lat="47.49349" lon="6.66531">
        <ele>412</ele>
        <time>2015-12-06T09:41:59.000Z</time>
      </trkpt>
      <trkpt lat="47.49351" lon="6.66529">
        <ele>412</ele>
        <time>2015-12-06T09:42:00.000Z</time>
      </trkpt>
      <trkpt lat="47.49354" lon="6.66528">
        <ele>412</ele>
        <time>2015-12-06T09:42:01.000Z</time>
      </trkpt>
      <trkpt lat="47.49355" lon="6.66526">
        <ele>412</ele>
        <time>2015-12-06T09:42:02.000Z</time>
      </trkpt>
      <trkpt lat="47.49359" lon="6.66523">
        <ele>412</ele>
        <time>2015-12-06T09:42:04.000Z</time>
      </trkpt>
      <trkpt lat="47.4936" lon="6.66521">
        <ele>412</ele>
        <time>2015-12-06T09:42:05.000Z</time>
      </trkpt>
      <trkpt lat="47.49364" lon="6.66518">
        <ele>412</ele>
        <time>2015-12-06T09:42:07.000Z</time>
      </trkpt>
      <trkpt lat="47.49366" lon="6.66517">
        <ele>412</ele>
        <time>2015-12-06T09:42:08.000Z</time>
      </trkpt>
      <trkpt lat="47.4937" lon="6.66514">
        <ele>412</ele>
        <time>2015-12-06T09:42:10.000Z</time>
      </trkpt>
      <trkpt lat="47.49371" lon="6.66512">
        <ele>412</ele>
        <time>2015-12-06T09:42:11.000Z</time>
      </trkpt>
      <trkpt lat="47.49375" lon="6.66509">
        <ele>412</ele>
        <time>2015-12-06T09:42:13.000Z</time>
      </trkpt>
      <trkpt lat="47.49377" lon="6.66507">
        <ele>412</ele>
        <time>2015-12-06T09:42:14.000Z</time>
      </trkpt>
      <trkpt lat="47.49379" lon="6.66506">
        <ele>412</ele>
        <time>2015-12-06T09:42:15.001Z</time>
      </trkpt>
      <trkpt lat="47.49381" lon="6.66503">
        <ele>412</ele>
        <time>2015-12-06T09:42:16.000Z</time>
      </trkpt>
      <trkpt lat="47.49383" lon="6.665">
        <ele>414</ele>
        <time>2015-12-06T09:42:17.000Z</time>
      </trkpt>
      <trkpt lat="47.49385" lon="6.66497">
        <ele>415</ele>
        <time>2015-12-06T09:42:18.000Z</time>
      </trkpt>
      <trkpt lat="47.49387" lon="6.66494">
        <ele>415</ele>
        <time>2015-12-06T09:42:19.000Z</time>
      </trkpt>
      <trkpt lat="47.49388" lon="6.66492">
        <ele>415</ele>
        <time>2015-12-06T09:42:19.999Z</time>
      </trkpt>
      <trkpt lat="47.49391" lon="6.66489">
        <ele>416</ele>
        <time>2015-12-06T09:42:21.000Z</time>
      </trkpt>
      <trkpt lat="47.49393" lon="6.66486">
        <ele>416</ele>
        <time>2015-12-06T09:42:22.000Z</time>
      </trkpt>
      <trkpt lat="47.49395" lon="6.66484">
        <ele>416</ele>
        <time>2015-12-06T09:42:23.000Z</time>
      </trkpt>
      <trkpt lat="47.49397" lon="6.66481">
        <ele>416</ele>
        <time>2015-12-06T09:42:23.999Z</time>
      </trkpt>
      <trkpt lat="47.49399" lon="6.66479">
        <ele>416</ele>
        <time>2015-12-06T09:42:25.000Z</time>
      </trkpt>
      <trkpt lat="47.49401" lon="6.66476">
        <ele>416</ele>
        <time>2015-12-06T09:42:26.001Z</time>
      </trkpt>
      <trkpt lat="47.494" lon="6.66473">
        <ele>416</ele>
        <time>2015-12-06T09:42:27.000Z</time>
      </trkpt>
      <trkpt lat="47.49399" lon="6.6647">
        <ele>416</ele>
        <time>2015-12-06T09:42:28.000Z</time>
      </trkpt>
      <trkpt lat="47.49398" lon="6.66467">
        <ele>416</ele>
        <time>2015-12-06T09:42:29.000Z</time>
      </trkpt>
      <trkpt lat="47.49396" lon="6.66464">
        <ele>416</ele>
        <time>2015-12-06T09:42:30.000Z</time>
      </trkpt>
      <trkpt lat="47.49394" lon="6.6646">
        <ele>416</ele>
        <time>2015-12-06T09:42:32.000Z</time>
      </trkpt>
      <trkpt lat="47.49393" lon="6.66458">
        <ele>416</ele>
        <time>2015-12-06T09:42:33.000Z</time>
      </trkpt>
      <trkpt lat="47.49392" lon="6.66453">
        <ele>416</ele>
        <time>2015-12-06T09:42:36.000Z</time>
      </trkpt>
      <trkpt lat="47.49392" lon="6.66451">
        <ele>417</ele>
        <time>2015-12-06T09:42:37.000Z</time>
      </trkpt>
      <trkpt lat="47.49391" lon="6.66445">
        <ele>417</ele>
        <time>2015-12-06T09:42:40.000Z</time>
      </trkpt>
      <trkpt lat="47.49391" lon="6.66444">
        <ele>417</ele>
        <time>2015-12-06T09:42:41.000Z</time>
      </trkpt>
      <trkpt lat="47.49393" lon="6.66438">
        <ele>417</ele>
        <time>2015-12-06T09:42:48.000Z</time>
      </trkpt>
      <trkpt lat="47.49394" lon="6.66438">
        <ele>417</ele>
        <time>2015-12-06T09:42:49.000Z</time>
      </trkpt>
      <trkpt lat="47.49398" lon="6.66438">
        <ele>417</ele>
        <time>2015-12-06T09:42:52.000Z</time>
      </trkpt>
      <trkpt lat="47.49399" lon="6.66438">
        <ele>417</ele>
        <time>2015-12-06T09:42:53.000Z</time>
      </trkpt>
      <trkpt lat="47.49397" lon="6.66443">
        <ele>417</ele>
        <time>2015-12-06T09:43:22.000Z</time>
      </trkpt>
      <trkpt lat="47.49396" lon="6.66444">
        <ele>417</ele>
        <time>2015-12-06T09:43:23.000Z</time>
      </trkpt>
      <trkpt lat="47.49393" lon="6.66447">
        <ele>417</ele>
        <time>2015-12-06T09:43:26.000Z</time>
      </trkpt>
      <trkpt lat="47.49392" lon="6.66448">
        <ele>417</ele>
        <time>2015-12-06T09:43:27.000Z</time>
      </trkpt>
      <trkpt lat="47.49388" lon="6.66448">
        <ele>417</ele>
        <time>2015-12-06T09:49:24.000Z</time>
      </trkpt>
      <trkpt lat="47.49387" lon="6.66446">
        <ele>417</ele>
        <time>2015-12-06T09:49:25.000Z</time>
      </trkpt>
      <trkpt lat="47.49384" lon="6.66442">
        <ele>417</ele>
        <time>2015-12-06T09:49:27.000Z</time>
      </trkpt>
      <trkpt lat="47.49382" lon="6.66439">
        <ele>417</ele>
        <time>2015-12-06T09:49:28.000Z</time>
      </trkpt>
      <trkpt lat="47.4938" lon="6.66433">
        <ele>417</ele>
        <time>2015-12-06T09:49:30.000Z</time>
      </trkpt>
      <trkpt lat="47.49379" lon="6.66431">
        <ele>417</ele>
        <time>2015-12-06T09:49:31.000Z</time>
      </trkpt>
      <trkpt lat="47.49378" lon="6.66425">
        <ele>417</ele>
        <time>2015-12-06T09:49:33.000Z</time>
      </trkpt>
      <trkpt lat="47.49377" lon="6.66422">
        <ele>417</ele>
        <time>2015-12-06T09:49:34.000Z</time>
      </trkpt>
      <trkpt lat="47.49376" lon="6.66418">
        <ele>417</ele>
        <time>2015-12-06T09:49:35.000Z</time>
      </trkpt>
      <trkpt lat="47.49375" lon="6.66415">
        <ele>418</ele>
        <time>2015-12-06T09:49:36.000Z</time>
      </trkpt>
      <trkpt lat="47.49374" lon="6.66411">
        <ele>418</ele>
        <time>2015-12-06T09:49:37.000Z</time>
      </trkpt>
      <trkpt lat="47.49373" lon="6.66408">
        <ele>418</ele>
        <time>2015-12-06T09:49:38.000Z</time>
      </trkpt>
      <trkpt lat="47.49372" lon="6.66405">
        <ele>418</ele>
        <time>2015-12-06T09:49:39.000Z</time>
      </trkpt>
      <trkpt lat="47.49371" lon="6.66401">
        <ele>418</ele>
        <time>2015-12-06T09:49:40.000Z</time>
      </trkpt>
      <trkpt lat="47.4937" lon="6.66398">
        <ele>418</ele>
        <time>2015-12-06T09:49:41.000Z</time>
      </trkpt>
      <trkpt lat="47.49369" lon="6.66394">
        <ele>418</ele>
        <time>2015-12-06T09:49:42.000Z</time>
      </trkpt>
      <trkpt lat="47.49368" lon="6.66391">
        <ele>418</ele>
        <time>2015-12-06T09:49:43.000Z</time>
      </trkpt>
      <trkpt lat="47.49367" lon="6.66387">
        <ele>418</ele>
        <time>2015-12-06T09:49:44.000Z</time>
      </trkpt>
      <trkpt lat="47.49366" lon="6.66384">
        <ele>418</ele>
        <time>2015-12-06T09:49:45.000Z</time>
      </trkpt>
      <trkpt lat="47.49365" lon="6.6638">
        <ele>419</ele>
        <time>2015-12-06T09:49:46.000Z</time>
      </trkpt>
      <trkpt lat="47.49364" lon="6.66377">
        <ele>419</ele>
        <time>2015-12-06T09:49:46.998Z</time>
      </trkpt>
      <trkpt lat="47.49363" lon="6.66373">
        <ele>419</ele>
        <time>2015-12-06T09:49:48.000Z</time>
      </trkpt>
      <trkpt lat="47.49361" lon="6.66369">
        <ele>418</ele>
        <time>2015-12-06T09:49:49.000Z</time>
      </trkpt>
      <trkpt lat="47.4936" lon="6.66365">
        <ele>418</ele>
        <time>2015-12-06T09:49:50.000Z</time>
      </trkpt>
      <trkpt lat="47.49358" lon="6.66361">
        <ele>418</ele>
        <time>2015-12-06T09:49:51.000Z</time>
      </trkpt>
      <trkpt lat="47.49357" lon="6.66356">
        <ele>418</ele>
        <time>2015-12-06T09:49:52.000Z</time>
      </trkpt>
      <trkpt lat="47.49356" lon="6.66352">
        <ele>418</ele>
        <time>2015-12-06T09:49:53.000Z</time>
      </trkpt>
      <trkpt lat="47.49355" lon="6.66347">
        <ele>418</ele>
        <time>2015-12-06T09:49:54.000Z</time>
      </trkpt>
      <trkpt lat="47.49354" lon="6.66342">
        <ele>418</ele>
        <time>2015-12-06T09:49:55.000Z</time>
      </trkpt>
      <trkpt lat="47.49353" lon="6.66338">
        <ele>418</ele>
        <time>2015-12-06T09:49:56.000Z</time>
      </trkpt>
      <trkpt lat="47.49351" lon="6.66333">
        <ele>419</ele>
        <time>2015-12-06T09:49:57.000Z</time>
      </trkpt>
      <trkpt lat="47.4935" lon="6.66328">
        <ele>419</ele>
        <time>2015-12-06T09:49:58.000Z</time>
      </trkpt>
      <trkpt lat="47.49348" lon="6.66323">
        <ele>419</ele>
        <time>2015-12-06T09:49:59.000Z</time>
      </trkpt>
      <trkpt lat="47.49347" lon="6.66318">
        <ele>419</ele>
        <time>2015-12-06T09:50:00.000Z</time>
      </trkpt>
      <trkpt lat="47.49345" lon="6.66314">
        <ele>419</ele>
        <time>2015-12-06T09:50:01.000Z</time>
      </trkpt>
      <trkpt lat="47.49343" lon="6.66309">
        <ele>419</ele>
        <time>2015-12-06T09:50:02.000Z</time>
      </trkpt>
      <trkpt lat="47.49341" lon="6.66304">
        <ele>419</ele>
        <time>2015-12-06T09:50:03.000Z</time>
      </trkpt>
      <trkpt lat="47.49339" lon="6.66299">
        <ele>419</ele>
        <time>2015-12-06T09:50:04.000Z</time>
      </trkpt>
      <trkpt lat="47.49338" lon="6.66293">
        <ele>419</ele>
        <time>2015-12-06T09:50:05.000Z</time>
      </trkpt>
      <trkpt lat="47.49336" lon="6.66288">
        <ele>419</ele>
        <time>2015-12-06T09:50:06.000Z</time>
      </trkpt>
      <trkpt lat="47.49334" lon="6.66281">
        <ele>419</ele>
        <time>2015-12-06T09:50:07.000Z</time>
      </trkpt>
      <trkpt lat="47.49331" lon="6.66275">
        <ele>417</ele>
        <time>2015-12-06T09:50:08.000Z</time>
      </trkpt>
      <trkpt lat="47.49329" lon="6.6627">
        <ele>417</ele>
        <time>2015-12-06T09:50:09.000Z</time>
      </trkpt>
      <trkpt lat="47.49327" lon="6.66264">
        <ele>418</ele>
        <time>2015-12-06T09:50:10.000Z</time>
      </trkpt>
      <trkpt lat="47.49325" lon="6.66258">
        <ele>418</ele>
        <time>2015-12-06T09:50:11.000Z</time>
      </trkpt>
      <trkpt lat="47.49323" lon="6.66252">
        <ele>418</ele>
        <time>2015-12-06T09:50:12.000Z</time>
      </trkpt>
      <trkpt lat="47.49322" lon="6.66246">
        <ele>418</ele>
        <time>2015-12-06T09:50:13.000Z</time>
      </trkpt>
      <trkpt lat="47.4932" lon="6.6624">
        <ele>418</ele>
        <time>2015-12-06T09:50:14.000Z</time>
      </trkpt>
      <trkpt lat="47.49319" lon="6.66234">
        <ele>417</ele>
        <time>2015-12-06T09:50:15.000Z</time>
      </trkpt>
      <trkpt lat="47.49319" lon="6.66228">
        <ele>417</ele>
        <time>2015-12-06T09:50:16.000Z</time>
      </trkpt>
      <trkpt lat="47.49317" lon="6.66222">
        <ele>417</ele>
        <time>2015-12-06T09:50:17.000Z</time>
      </trkpt>
      <trkpt lat="47.49316" lon="6.66214">
        <ele>417</ele>
        <time>2015-12-06T09:50:18.000Z</time>
      </trkpt>
      <trkpt lat="47.49316" lon="6.66208">
        <ele>417</ele>
        <time>2015-12-06T09:50:19.000Z</time>
      </trkpt>
      <trkpt lat="47.49318" lon="6.66202">
        <ele>417</ele>
        <time>2015-12-06T09:50:20.000Z</time>
      </trkpt>
      <trkpt lat="47.49321" lon="6.66197">
        <ele>417</ele>
        <time>2015-12-06T09:50:21.000Z</time>
      </trkpt>
      <trkpt lat="47.49323" lon="6.66192">
        <ele>417</ele>
        <time>2015-12-06T09:50:22.000Z</time>
      </trkpt>
      <trkpt lat="47.49325" lon="6.66187">
        <ele>417</ele>
        <time>2015-12-06T09:50:23.000Z</time>
      </trkpt>
      <trkpt lat="47.49327" lon="6.66181">
        <ele>417</ele>
        <time>2015-12-06T09:50:24.000Z</time>
      </trkpt>
      <trkpt lat="47.49329" lon="6.66176">
        <ele>417</ele>
        <time>2015-12-06T09:50:25.000Z</time>
      </trkpt>
      <trkpt lat="47.49332" lon="6.6617">
        <ele>418</ele>
        <time>2015-12-06T09:50:26.000Z</time>
      </trkpt>
      <trkpt lat="47.49335" lon="6.66164">
        <ele>418</ele>
        <time>2015-12-06T09:50:27.000Z</time>
      </trkpt>
      <trkpt lat="47.49337" lon="6.66158">
        <ele>418</ele>
        <time>2015-12-06T09:50:28.000Z</time>
      </trkpt>
      <trkpt lat="47.49339" lon="6.66153">
        <ele>418</ele>
        <time>2015-12-06T09:50:29.000Z</time>
      </trkpt>
      <trkpt lat="47.4934" lon="6.66147">
        <ele>418</ele>
        <time>2015-12-06T09:50:30.000Z</time>
      </trkpt>
      <trkpt lat="47.49343" lon="6.66142">
        <ele>418</ele>
        <time>2015-12-06T09:50:31.000Z</time>
      </trkpt>
      <trkpt lat="47.49345" lon="6.66137">
        <ele>418</ele>
        <time>2015-12-06T09:50:32.000Z</time>
      </trkpt>
      <trkpt lat="47.49347" lon="6.66131">
        <ele>418</ele>
        <time>2015-12-06T09:50:33.000Z</time>
      </trkpt>
      <trkpt lat="47.49349" lon="6.66125">
        <ele>418</ele>
        <time>2015-12-06T09:50:34.000Z</time>
      </trkpt>
      <trkpt lat="47.4935" lon="6.6612">
        <ele>418</ele>
        <time>2015-12-06T09:50:35.000Z</time>
      </trkpt>
      <trkpt lat="47.49353" lon="6.66114">
        <ele>418</ele>
        <time>2015-12-06T09:50:36.000Z</time>
      </trkpt>
      <trkpt lat="47.49354" lon="6.66108">
        <ele>418</ele>
        <time>2015-12-06T09:50:37.000Z</time>
      </trkpt>
      <trkpt lat="47.49356" lon="6.66102">
        <ele>418</ele>
        <time>2015-12-06T09:50:38.000Z</time>
      </trkpt>
      <trkpt lat="47.49357" lon="6.66094">
        <ele>418</ele>
        <time>2015-12-06T09:50:39.000Z</time>
      </trkpt>
      <trkpt lat="47.49359" lon="6.66088">
        <ele>418</ele>
        <time>2015-12-06T09:50:40.000Z</time>
      </trkpt>
      <trkpt lat="47.49362" lon="6.66081">
        <ele>417</ele>
        <time>2015-12-06T09:50:41.000Z</time>
      </trkpt>
      <trkpt lat="47.49364" lon="6.66075">
        <ele>417</ele>
        <time>2015-12-06T09:50:42.000Z</time>
      </trkpt>
      <trkpt lat="47.49364" lon="6.66069">
        <ele>417</ele>
        <time>2015-12-06T09:50:43.000Z</time>
      </trkpt>
      <trkpt lat="47.49366" lon="6.66063">
        <ele>417</ele>
        <time>2015-12-06T09:50:44.000Z</time>
      </trkpt>
      <trkpt lat="47.49368" lon="6.66055">
        <ele>417</ele>
        <time>2015-12-06T09:50:45.000Z</time>
      </trkpt>
      <trkpt lat="47.4937" lon="6.66049">
        <ele>417</ele>
        <time>2015-12-06T09:50:46.000Z</time>
      </trkpt>
      <trkpt lat="47.49372" lon="6.66042">
        <ele>417</ele>
        <time>2015-12-06T09:50:47.000Z</time>
      </trkpt>
      <trkpt lat="47.49373" lon="6.66034">
        <ele>417</ele>
        <time>2015-12-06T09:50:48.000Z</time>
      </trkpt>
      <trkpt lat="47.49375" lon="6.66027">
        <ele>417</ele>
        <time>2015-12-06T09:50:49.000Z</time>
      </trkpt>
      <trkpt lat="47.49376" lon="6.6602">
        <ele>417</ele>
        <time>2015-12-06T09:50:50.000Z</time>
      </trkpt>
      <trkpt lat="47.49377" lon="6.66014">
        <ele>417</ele>
        <time>2015-12-06T09:50:51.000Z</time>
      </trkpt>
      <trkpt lat="47.49378" lon="6.66007">
        <ele>417</ele>
        <time>2015-12-06T09:50:52.000Z</time>
      </trkpt>
      <trkpt lat="47.4938" lon="6.66">
        <ele>416</ele>
        <time>2015-12-06T09:50:53.000Z</time>
      </trkpt>
      <trkpt lat="47.49381" lon="6.65993">
        <ele>416</ele>
        <time>2015-12-06T09:50:54.000Z</time>
      </trkpt>
      <trkpt lat="47.49383" lon="6.65987">
        <ele>416</ele>
        <time>2015-12-06T09:50:55.000Z</time>
      </trkpt>
      <trkpt lat="47.49384" lon="6.6598">
        <ele>416</ele>
        <time>2015-12-06T09:50:56.000Z</time>
      </trkpt>
      <trkpt lat="47.49385" lon="6.65972">
        <ele>416</ele>
        <time>2015-12-06T09:50:57.000Z</time>
      </trkpt>
      <trkpt lat="47.49386" lon="6.65966">
        <ele>416</ele>
        <time>2015-12-06T09:50:58.000Z</time>
      </trkpt>
      <trkpt lat="47.49387" lon="6.65959">
        <ele>416</ele>
        <time>2015-12-06T09:50:59.000Z</time>
      </trkpt>
      <trkpt lat="47.49388" lon="6.65952">
        <ele>416</ele>
        <time>2015-12-06T09:51:00.000Z</time>
      </trkpt>
      <trkpt lat="47.49389" lon="6.65944">
        <ele>416</ele>
        <time>2015-12-06T09:51:01.000Z</time>
      </trkpt>
      <trkpt lat="47.4939" lon="6.65937">
        <ele>416</ele>
        <time>2015-12-06T09:51:01.999Z</time>
      </trkpt>
      <trkpt lat="47.4939" lon="6.65931">
        <ele>416</ele>
        <time>2015-12-06T09:51:03.000Z</time>
      </trkpt>
      <trkpt lat="47.4939" lon="6.65922">
        <ele>416</ele>
        <time>2015-12-06T09:51:04.000Z</time>
      </trkpt>
      <trkpt lat="47.4939" lon="6.65915">
        <ele>415</ele>
        <time>2015-12-06T09:51:05.000Z</time>
      </trkpt>
      <trkpt lat="47.4939" lon="6.65908">
        <ele>415</ele>
        <time>2015-12-06T09:51:06.000Z</time>
      </trkpt>
      <trkpt lat="47.4939" lon="6.65901">
        <ele>415</ele>
        <time>2015-12-06T09:51:06.999Z</time>
      </trkpt>
      <trkpt lat="47.49391" lon="6.65893">
        <ele>415</ele>
        <time>2015-12-06T09:51:07.999Z</time>
      </trkpt>
      <trkpt lat="47.4939" lon="6.65886">
        <ele>415</ele>
        <time>2015-12-06T09:51:09.000Z</time>
      </trkpt>
      <trkpt lat="47.49391" lon="6.65878">
        <ele>415</ele>
        <time>2015-12-06T09:51:10.000Z</time>
      </trkpt>
      <trkpt lat="47.49391" lon="6.6587">
        <ele>415</ele>
        <time>2015-12-06T09:51:11.000Z</time>
      </trkpt>
      <trkpt lat="47.49391" lon="6.65862">
        <ele>415</ele>
        <time>2015-12-06T09:51:12.000Z</time>
      </trkpt>
      <trkpt lat="47.49391" lon="6.65856">
        <ele>415</ele>
        <time>2015-12-06T09:51:13.000Z</time>
      </trkpt>
      <trkpt lat="47.49391" lon="6.65849">
        <ele>415</ele>
        <time>2015-12-06T09:51:14.000Z</time>
      </trkpt>
      <trkpt lat="47.49391" lon="6.65842">
        <ele>415</ele>
        <time>2015-12-06T09:51:15.000Z</time>
      </trkpt>
      <trkpt lat="47.4939" lon="6.65833">
        <ele>415</ele>
        <time>2015-12-06T09:51:16.000Z</time>
      </trkpt>
      <trkpt lat="47.4939" lon="6.65826">
        <ele>415</ele>
        <time>2015-12-06T09:51:17.001Z</time>
      </trkpt>
      <trkpt lat="47.4939" lon="6.65818">
        <ele>415</ele>
        <time>2015-12-06T09:51:18.000Z</time>
      </trkpt>
      <trkpt lat="47.4939" lon="6.65811">
        <ele>415</ele>
        <time>2015-12-06T09:51:19.000Z</time>
      </trkpt>
      <trkpt lat="47.49391" lon="6.65804">
        <ele>415</ele>
        <time>2015-12-06T09:51:20.000Z</time>
      </trkpt>
      <trkpt lat="47.49391" lon="6.65796">
        <ele>415</ele>
        <time>2015-12-06T09:51:21.000Z</time>
      </trkpt>
      <trkpt lat="47.49393" lon="6.65788">
        <ele>415</ele>
        <time>2015-12-06T09:51:22.000Z</time>
      </trkpt>
      <trkpt lat="47.49395" lon="6.65781">
        <ele>414</ele>
        <time>2015-12-06T09:51:23.000Z</time>
      </trkpt>
      <trkpt lat="47.49396" lon="6.65774">
        <ele>414</ele>
        <time>2015-12-06T09:51:24.000Z</time>
      </trkpt>
      <trkpt lat="47.49398" lon="6.65767">
        <ele>414</ele>
        <time>2015-12-06T09:51:25.000Z</time>
      </trkpt>
      <trkpt lat="47.494" lon="6.65761">
        <ele>414</ele>
        <time>2015-12-06T09:51:26.000Z</time>
      </trkpt>
      <trkpt lat="47.49401" lon="6.65754">
        <ele>414</ele>
        <time>2015-12-06T09:51:27.000Z</time>
      </trkpt>
      <trkpt lat="47.49403" lon="6.65746">
        <ele>414</ele>
        <time>2015-12-06T09:51:28.000Z</time>
      </trkpt>
      <trkpt lat="47.49404" lon="6.65738">
        <ele>414</ele>
        <time>2015-12-06T09:51:29.000Z</time>
      </trkpt>
      <trkpt lat="47.49405" lon="6.65731">
        <ele>414</ele>
        <time>2015-12-06T09:51:30.000Z</time>
      </trkpt>
      <trkpt lat="47.49406" lon="6.65724">
        <ele>413</ele>
        <time>2015-12-06T09:51:31.000Z</time>
      </trkpt>
      <trkpt lat="47.49409" lon="6.65716">
        <ele>413</ele>
        <time>2015-12-06T09:51:32.000Z</time>
      </trkpt>
      <trkpt lat="47.4941" lon="6.65709">
        <ele>413</ele>
        <time>2015-12-06T09:51:33.000Z</time>
      </trkpt>
      <trkpt lat="47.49412" lon="6.65702">
        <ele>413</ele>
        <time>2015-12-06T09:51:34.000Z</time>
      </trkpt>
      <trkpt lat="47.49413" lon="6.65693">
        <ele>413</ele>
        <time>2015-12-06T09:51:35.000Z</time>
      </trkpt>
      <trkpt lat="47.49415" lon="6.65683">
        <ele>413</ele>
        <time>2015-12-06T09:51:36.000Z</time>
      </trkpt>
      <trkpt lat="47.49415" lon="6.65674">
        <ele>413</ele>
        <time>2015-12-06T09:51:37.000Z</time>
      </trkpt>
      <trkpt lat="47.49417" lon="6.65667">
        <ele>413</ele>
        <time>2015-12-06T09:51:38.000Z</time>
      </trkpt>
      <trkpt lat="47.49418" lon="6.65659">
        <ele>413</ele>
        <time>2015-12-06T09:51:39.000Z</time>
      </trkpt>
      <trkpt lat="47.49419" lon="6.65653">
        <ele>413</ele>
        <time>2015-12-06T09:51:40.000Z</time>
      </trkpt>
      <trkpt lat="47.49422" lon="6.65647">
        <ele>413</ele>
        <time>2015-12-06T09:51:41.000Z</time>
      </trkpt>
      <trkpt lat="47.49423" lon="6.6564">
        <ele>413</ele>
        <time>2015-12-06T09:51:42.000Z</time>
      </trkpt>
      <trkpt lat="47.49425" lon="6.65633">
        <ele>413</ele>
        <time>2015-12-06T09:51:43.000Z</time>
      </trkpt>
      <trkpt lat="47.49426" lon="6.65624">
        <ele>413</ele>
        <time>2015-12-06T09:51:44.000Z</time>
      </trkpt>
      <trkpt lat="47.49426" lon="6.65616">
        <ele>413</ele>
        <time>2015-12-06T09:51:45.000Z</time>
      </trkpt>
      <trkpt lat="47.49428" lon="6.65609">
        <ele>413</ele>
        <time>2015-12-06T09:51:46.000Z</time>
      </trkpt>
      <trkpt lat="47.49429" lon="6.65602">
        <ele>413</ele>
        <time>2015-12-06T09:51:47.000Z</time>
      </trkpt>
      <trkpt lat="47.49428" lon="6.65595">
        <ele>413</ele>
        <time>2015-12-06T09:51:48.000Z</time>
      </trkpt>
      <trkpt lat="47.4943" lon="6.65586">
        <ele>413</ele>
        <time>2015-12-06T09:51:49.000Z</time>
      </trkpt>
      <trkpt lat="47.49432" lon="6.65578">
        <ele>412</ele>
        <time>2015-12-06T09:51:50.000Z</time>
      </trkpt>
      <trkpt lat="47.49433" lon="6.65571">
        <ele>412</ele>
        <time>2015-12-06T09:51:51.000Z</time>
      </trkpt>
      <trkpt lat="47.49434" lon="6.65565">
        <ele>412</ele>
        <time>2015-12-06T09:51:52.000Z</time>
      </trkpt>
      <trkpt lat="47.49436" lon="6.65558">
        <ele>412</ele>
        <time>2015-12-06T09:51:53.000Z</time>
      </trkpt>
      <trkpt lat="47.49437" lon="6.65551">
        <ele>412</ele>
        <time>2015-12-06T09:51:54.000Z</time>
      </trkpt>
      <trkpt lat="47.49439" lon="6.65544">
        <ele>411</ele>
        <time>2015-12-06T09:51:55.000Z</time>
      </trkpt>
      <trkpt lat="47.49439" lon="6.65536">
        <ele>411</ele>
        <time>2015-12-06T09:51:56.000Z</time>
      </trkpt>
      <trkpt lat="47.4944" lon="6.65529">
        <ele>411</ele>
        <time>2015-12-06T09:51:57.000Z</time>
      </trkpt>
      <trkpt lat="47.49441" lon="6.65523">
        <ele>411</ele>
        <time>2015-12-06T09:51:58.000Z</time>
      </trkpt>
      <trkpt lat="47.49441" lon="6.65516">
        <ele>411</ele>
        <time>2015-12-06T09:51:59.000Z</time>
      </trkpt>
      <trkpt lat="47.49442" lon="6.65509">
        <ele>411</ele>
        <time>2015-12-06T09:52:00.000Z</time>
      </trkpt>
      <trkpt lat="47.49443" lon="6.65501">
        <ele>411</ele>
        <time>2015-12-06T09:52:01.000Z</time>
      </trkpt>
      <trkpt lat="47.49444" lon="6.65494">
        <ele>410</ele>
        <time>2015-12-06T09:52:02.000Z</time>
      </trkpt>
      <trkpt lat="47.49444" lon="6.65485">
        <ele>410</ele>
        <time>2015-12-06T09:52:03.000Z</time>
      </trkpt>
      <trkpt lat="47.49445" lon="6.65476">
        <ele>410</ele>
        <time>2015-12-06T09:52:04.000Z</time>
      </trkpt>
      <trkpt lat="47.49445" lon="6.65465">
        <ele>410</ele>
        <time>2015-12-06T09:52:05.000Z</time>
      </trkpt>
      <trkpt lat="47.49445" lon="6.65457">
        <ele>410</ele>
        <time>2015-12-06T09:52:06.000Z</time>
      </trkpt>
      <trkpt lat="47.49444" lon="6.65449">
        <ele>410</ele>
        <time>2015-12-06T09:52:06.999Z</time>
      </trkpt>
      <trkpt lat="47.49444" lon="6.65441">
        <ele>409</ele>
        <time>2015-12-06T09:52:08.000Z</time>
      </trkpt>
      <trkpt lat="47.49444" lon="6.65433">
        <ele>409</ele>
        <time>2015-12-06T09:52:09.000Z</time>
      </trkpt>
      <trkpt lat="47.49443" lon="6.65424">
        <ele>409</ele>
        <time>2015-12-06T09:52:10.000Z</time>
      </trkpt>
      <trkpt lat="47.49442" lon="6.65415">
        <ele>408</ele>
        <time>2015-12-06T09:52:11.000Z</time>
      </trkpt>
      <trkpt lat="47.49442" lon="6.65407">
        <ele>408</ele>
        <time>2015-12-06T09:52:12.000Z</time>
      </trkpt>
      <trkpt lat="47.4944" lon="6.65398">
        <ele>408</ele>
        <time>2015-12-06T09:52:13.000Z</time>
      </trkpt>
      <trkpt lat="47.49439" lon="6.65388">
        <ele>408</ele>
        <time>2015-12-06T09:52:14.000Z</time>
      </trkpt>
      <trkpt lat="47.49438" lon="6.65379">
        <ele>408</ele>
        <time>2015-12-06T09:52:15.000Z</time>
      </trkpt>
      <trkpt lat="47.49438" lon="6.6537">
        <ele>408</ele>
        <time>2015-12-06T09:52:16.000Z</time>
      </trkpt>
      <trkpt lat="47.49437" lon="6.65359">
        <ele>407</ele>
        <time>2015-12-06T09:52:17.000Z</time>
      </trkpt>
      <trkpt lat="47.49437" lon="6.6535">
        <ele>407</ele>
        <time>2015-12-06T09:52:18.000Z</time>
      </trkpt>
      <trkpt lat="47.49438" lon="6.6534">
        <ele>407</ele>
        <time>2015-12-06T09:52:19.000Z</time>
      </trkpt>
      <trkpt lat="47.49439" lon="6.65331">
        <ele>406</ele>
        <time>2015-12-06T09:52:20.000Z</time>
      </trkpt>
      <trkpt lat="47.4944" lon="6.65323">
        <ele>405</ele>
        <time>2015-12-06T09:52:21.000Z</time>
      </trkpt>
      <trkpt lat="47.49443" lon="6.65314">
        <ele>405</ele>
        <time>2015-12-06T09:52:22.000Z</time>
      </trkpt>
      <trkpt lat="47.49446" lon="6.65305">
        <ele>405</ele>
        <time>2015-12-06T09:52:23.000Z</time>
      </trkpt>
      <trkpt lat="47.49449" lon="6.65296">
        <ele>405</ele>
        <time>2015-12-06T09:52:24.000Z</time>
      </trkpt>
      <trkpt lat="47.49451" lon="6.65286">
        <ele>405</ele>
        <time>2015-12-06T09:52:25.000Z</time>
      </trkpt>
      <trkpt lat="47.49456" lon="6.65277">
        <ele>405</ele>
        <time>2015-12-06T09:52:26.000Z</time>
      </trkpt>
      <trkpt lat="47.4946" lon="6.65268">
        <ele>405</ele>
        <time>2015-12-06T09:52:27.000Z</time>
      </trkpt>
      <trkpt lat="47.49464" lon="6.65259">
        <ele>404</ele>
        <time>2015-12-06T09:52:28.000Z</time>
      </trkpt>
      <trkpt lat="47.49468" lon="6.6525">
        <ele>402</ele>
        <time>2015-12-06T09:52:29.000Z</time>
      </trkpt>
      <trkpt lat="47.49473" lon="6.65244">
        <ele>402</ele>
        <time>2015-12-06T09:52:30.000Z</time>
      </trkpt>
      <trkpt lat="47.49478" lon="6.65234">
        <ele>402</ele>
        <time>2015-12-06T09:52:31.000Z</time>
      </trkpt>
      <trkpt lat="47.49482" lon="6.65224">
        <ele>402</ele>
        <time>2015-12-06T09:52:32.000Z</time>
      </trkpt>
      <trkpt lat="47.49485" lon="6.65215">
        <ele>402</ele>
        <time>2015-12-06T09:52:33.000Z</time>
      </trkpt>
      <trkpt lat="47.49489" lon="6.65206">
        <ele>402</ele>
        <time>2015-12-06T09:52:34.000Z</time>
      </trkpt>
      <trkpt lat="47.49493" lon="6.65199">
        <ele>401</ele>
        <time>2015-12-06T09:52:35.000Z</time>
      </trkpt>
      <trkpt lat="47.49497" lon="6.65191">
        <ele>401</ele>
        <time>2015-12-06T09:52:36.000Z</time>
      </trkpt>
      <trkpt lat="47.495" lon="6.65183">
        <ele>402</ele>
        <time>2015-12-06T09:52:37.000Z</time>
      </trkpt>
      <trkpt lat="47.49503" lon="6.65175">
        <ele>402</ele>
        <time>2015-12-06T09:52:38.000Z</time>
      </trkpt>
      <trkpt lat="47.49507" lon="6.65168">
        <ele>402</ele>
        <time>2015-12-06T09:52:39.000Z</time>
      </trkpt>
      <trkpt lat="47.49511" lon="6.65159">
        <ele>401</ele>
        <time>2015-12-06T09:52:40.000Z</time>
      </trkpt>
      <trkpt lat="47.49515" lon="6.65152">
        <ele>402</ele>
        <time>2015-12-06T09:52:41.000Z</time>
      </trkpt>
      <trkpt lat="47.49518" lon="6.65144">
        <ele>402</ele>
        <time>2015-12-06T09:52:42.000Z</time>
      </trkpt>
      <trkpt lat="47.49521" lon="6.65139">
        <ele>402</ele>
        <time>2015-12-06T09:52:43.000Z</time>
      </trkpt>
      <trkpt lat="47.49524" lon="6.65133">
        <ele>402</ele>
        <time>2015-12-06T09:52:44.000Z</time>
      </trkpt>
      <trkpt lat="47.49526" lon="6.65127">
        <ele>402</ele>
        <time>2015-12-06T09:52:45.000Z</time>
      </trkpt>
      <trkpt lat="47.49528" lon="6.65122">
        <ele>402</ele>
        <time>2015-12-06T09:52:46.000Z</time>
      </trkpt>
      <trkpt lat="47.4953" lon="6.65117">
        <ele>402</ele>
        <time>2015-12-06T09:52:47.000Z</time>
      </trkpt>
      <trkpt lat="47.49532" lon="6.65113">
        <ele>402</ele>
        <time>2015-12-06T09:52:48.000Z</time>
      </trkpt>
      <trkpt lat="47.49534" lon="6.65107">
        <ele>402</ele>
        <time>2015-12-06T09:52:49.000Z</time>
      </trkpt>
      <trkpt lat="47.49536" lon="6.65103">
        <ele>402</ele>
        <time>2015-12-06T09:52:50.000Z</time>
      </trkpt>
      <trkpt lat="47.49537" lon="6.65099">
        <ele>402</ele>
        <time>2015-12-06T09:52:51.000Z</time>
      </trkpt>
      <trkpt lat="47.49539" lon="6.65093">
        <ele>402</ele>
        <time>2015-12-06T09:52:52.000Z</time>
      </trkpt>
      <trkpt lat="47.4954" lon="6.65088">
        <ele>402</ele>
        <time>2015-12-06T09:52:53.000Z</time>
      </trkpt>
      <trkpt lat="47.49541" lon="6.65084">
        <ele>402</ele>
        <time>2015-12-06T09:52:54.000Z</time>
      </trkpt>
      <trkpt lat="47.49543" lon="6.65079">
        <ele>401</ele>
        <time>2015-12-06T09:52:55.000Z</time>
      </trkpt>
      <trkpt lat="47.49544" lon="6.65075">
        <ele>401</ele>
        <time>2015-12-06T09:52:55.999Z</time>
      </trkpt>
      <trkpt lat="47.49547" lon="6.65071">
        <ele>401</ele>
        <time>2015-12-06T09:52:57.000Z</time>
      </trkpt>
      <trkpt lat="47.49549" lon="6.65067">
        <ele>401</ele>
        <time>2015-12-06T09:52:58.000Z</time>
      </trkpt>
      <trkpt lat="47.49551" lon="6.65063">
        <ele>401</ele>
        <time>2015-12-06T09:52:59.000Z</time>
      </trkpt>
      <trkpt lat="47.49552" lon="6.65057">
        <ele>401</ele>
        <time>2015-12-06T09:53:00.000Z</time>
      </trkpt>
      <trkpt lat="47.49554" lon="6.65051">
        <ele>401</ele>
        <time>2015-12-06T09:53:01.000Z</time>
      </trkpt>
      <trkpt lat="47.49556" lon="6.65045">
        <ele>401</ele>
        <time>2015-12-06T09:53:02.000Z</time>
      </trkpt>
      <trkpt lat="47.49556" lon="6.6504">
        <ele>401</ele>
        <time>2015-12-06T09:53:03.000Z</time>
      </trkpt>
      <trkpt lat="47.49557" lon="6.65034">
        <ele>401</ele>
        <time>2015-12-06T09:53:04.000Z</time>
      </trkpt>
      <trkpt lat="47.49559" lon="6.65028">
        <ele>401</ele>
        <time>2015-12-06T09:53:05.000Z</time>
      </trkpt>
      <trkpt lat="47.49561" lon="6.65023">
        <ele>401</ele>
        <time>2015-12-06T09:53:06.000Z</time>
      </trkpt>
      <trkpt lat="47.49564" lon="6.65017">
        <ele>401</ele>
        <time>2015-12-06T09:53:07.000Z</time>
      </trkpt>
      <trkpt lat="47.49566" lon="6.65011">
        <ele>401</ele>
        <time>2015-12-06T09:53:08.000Z</time>
      </trkpt>
      <trkpt lat="47.49569" lon="6.65005">
        <ele>401</ele>
        <time>2015-12-06T09:53:09.000Z</time>
      </trkpt>
      <trkpt lat="47.49571" lon="6.64999">
        <ele>401</ele>
        <time>2015-12-06T09:53:10.000Z</time>
      </trkpt>
      <trkpt lat="47.49573" lon="6.64994">
        <ele>401</ele>
        <time>2015-12-06T09:53:11.000Z</time>
      </trkpt>
      <trkpt lat="47.49575" lon="6.64989">
        <ele>401</ele>
        <time>2015-12-06T09:53:12.000Z</time>
      </trkpt>
      <trkpt lat="47.49577" lon="6.64984">
        <ele>401</ele>
        <time>2015-12-06T09:53:13.000Z</time>
      </trkpt>
      <trkpt lat="47.49579" lon="6.64979">
        <ele>401</ele>
        <time>2015-12-06T09:53:14.000Z</time>
      </trkpt>
      <trkpt lat="47.49582" lon="6.64974">
        <ele>401</ele>
        <time>2015-12-06T09:53:15.000Z</time>
      </trkpt>
      <trkpt lat="47.49584" lon="6.64969">
        <ele>402</ele>
        <time>2015-12-06T09:53:16.000Z</time>
      </trkpt>
      <trkpt lat="47.49587" lon="6.64964">
        <ele>402</ele>
        <time>2015-12-06T09:53:17.000Z</time>
      </trkpt>
      <trkpt lat="47.49589" lon="6.6496">
        <ele>402</ele>
        <time>2015-12-06T09:53:18.000Z</time>
      </trkpt>
      <trkpt lat="47.49591" lon="6.64956">
        <ele>401</ele>
        <time>2015-12-06T09:53:18.999Z</time>
      </trkpt>
      <trkpt lat="47.49593" lon="6.6495">
        <ele>401</ele>
        <time>2015-12-06T09:53:20.000Z</time>
      </trkpt>
      <trkpt lat="47.49594" lon="6.64945">
        <ele>401</ele>
        <time>2015-12-06T09:53:21.000Z</time>
      </trkpt>
      <trkpt lat="47.49596" lon="6.64937">
        <ele>401</ele>
        <time>2015-12-06T09:53:22.000Z</time>
      </trkpt>
      <trkpt lat="47.49597" lon="6.64931">
        <ele>401</ele>
        <time>2015-12-06T09:53:23.000Z</time>
      </trkpt>
      <trkpt lat="47.49599" lon="6.64925">
        <ele>401</ele>
        <time>2015-12-06T09:53:24.000Z</time>
      </trkpt>
      <trkpt lat="47.496" lon="6.64917">
        <ele>401</ele>
        <time>2015-12-06T09:53:25.000Z</time>
      </trkpt>
      <trkpt lat="47.49602" lon="6.64911">
        <ele>401</ele>
        <time>2015-12-06T09:53:26.000Z</time>
      </trkpt>
      <trkpt lat="47.49604" lon="6.64905">
        <ele>401</ele>
        <time>2015-12-06T09:53:27.000Z</time>
      </trkpt>
      <trkpt lat="47.49607" lon="6.64899">
        <ele>401</ele>
        <time>2015-12-06T09:53:28.000Z</time>
      </trkpt>
      <trkpt lat="47.49608" lon="6.64894">
        <ele>401</ele>
        <time>2015-12-06T09:53:29.000Z</time>
      </trkpt>
      <trkpt lat="47.4961" lon="6.64886">
        <ele>401</ele>
        <time>2015-12-06T09:53:30.000Z</time>
      </trkpt>
      <trkpt lat="47.49612" lon="6.64879">
        <ele>401</ele>
        <time>2015-12-06T09:53:31.000Z</time>
      </trkpt>
      <trkpt lat="47.49614" lon="6.64873">
        <ele>401</ele>
        <time>2015-12-06T09:53:32.000Z</time>
      </trkpt>
      <trkpt lat="47.49615" lon="6.64865">
        <ele>401</ele>
        <time>2015-12-06T09:53:33.000Z</time>
      </trkpt>
      <trkpt lat="47.49617" lon="6.64857">
        <ele>401</ele>
        <time>2015-12-06T09:53:34.000Z</time>
      </trkpt>
      <trkpt lat="47.49619" lon="6.6485">
        <ele>401</ele>
        <time>2015-12-06T09:53:35.000Z</time>
      </trkpt>
      <trkpt lat="47.49621" lon="6.64842">
        <ele>401</ele>
        <time>2015-12-06T09:53:36.000Z</time>
      </trkpt>
      <trkpt lat="47.49624" lon="6.64834">
        <ele>401</ele>
        <time>2015-12-06T09:53:37.000Z</time>
      </trkpt>
      <trkpt lat="47.49626" lon="6.64827">
        <ele>400</ele>
        <time>2015-12-06T09:53:38.000Z</time>
      </trkpt>
      <trkpt lat="47.49629" lon="6.6482">
        <ele>400</ele>
        <time>2015-12-06T09:53:39.000Z</time>
      </trkpt>
      <trkpt lat="47.49631" lon="6.64813">
        <ele>400</ele>
        <time>2015-12-06T09:53:40.000Z</time>
      </trkpt>
      <trkpt lat="47.49633" lon="6.64806">
        <ele>400</ele>
        <time>2015-12-06T09:53:41.000Z</time>
      </trkpt>
      <trkpt lat="47.49635" lon="6.64798">
        <ele>400</ele>
        <time>2015-12-06T09:53:42.000Z</time>
      </trkpt>
      <trkpt lat="47.49637" lon="6.64791">
        <ele>400</ele>
        <time>2015-12-06T09:53:43.000Z</time>
      </trkpt>
      <trkpt lat="47.4964" lon="6.64783">
        <ele>400</ele>
        <time>2015-12-06T09:53:44.000Z</time>
      </trkpt>
      <trkpt lat="47.49642" lon="6.64776">
        <ele>400</ele>
        <time>2015-12-06T09:53:45.000Z</time>
      </trkpt>
      <trkpt lat="47.49645" lon="6.6477">
        <ele>400</ele>
        <time>2015-12-06T09:53:46.000Z</time>
      </trkpt>
      <trkpt lat="47.49647" lon="6.64762">
        <ele>400</ele>
        <time>2015-12-06T09:53:47.000Z</time>
      </trkpt>
      <trkpt lat="47.4965" lon="6.64754">
        <ele>399</ele>
        <time>2015-12-06T09:53:48.000Z</time>
      </trkpt>
      <trkpt lat="47.49652" lon="6.64746">
        <ele>399</ele>
        <time>2015-12-06T09:53:49.000Z</time>
      </trkpt>
      <trkpt lat="47.49654" lon="6.64739">
        <ele>399</ele>
        <time>2015-12-06T09:53:50.000Z</time>
      </trkpt>
      <trkpt lat="47.49657" lon="6.64731">
        <ele>399</ele>
        <time>2015-12-06T09:53:51.000Z</time>
      </trkpt>
      <trkpt lat="47.4966" lon="6.64724">
        <ele>399</ele>
        <time>2015-12-06T09:53:52.000Z</time>
      </trkpt>
      <trkpt lat="47.49663" lon="6.64716">
        <ele>399</ele>
        <time>2015-12-06T09:53:53.000Z</time>
      </trkpt>
      <trkpt lat="47.49665" lon="6.64709">
        <ele>399</ele>
        <time>2015-12-06T09:53:54.000Z</time>
      </trkpt>
      <trkpt lat="47.49668" lon="6.64701">
        <ele>398</ele>
        <time>2015-12-06T09:53:55.000Z</time>
      </trkpt>
      <trkpt lat="47.4967" lon="6.64695">
        <ele>398</ele>
        <time>2015-12-06T09:53:56.000Z</time>
      </trkpt>
      <trkpt lat="47.49673" lon="6.64689">
        <ele>398</ele>
        <time>2015-12-06T09:53:57.000Z</time>
      </trkpt>
      <trkpt lat="47.49677" lon="6.64682">
        <ele>398</ele>
        <time>2015-12-06T09:53:58.000Z</time>
      </trkpt>
      <trkpt lat="47.49679" lon="6.64675">
        <ele>398</ele>
        <time>2015-12-06T09:53:59.000Z</time>
      </trkpt>
      <trkpt lat="47.49681" lon="6.64669">
        <ele>398</ele>
        <time>2015-12-06T09:54:00.000Z</time>
      </trkpt>
      <trkpt lat="47.49685" lon="6.64661">
        <ele>398</ele>
        <time>2015-12-06T09:54:01.000Z</time>
      </trkpt>
      <trkpt lat="47.49687" lon="6.64652">
        <ele>398</ele>
        <time>2015-12-06T09:54:02.000Z</time>
      </trkpt>
      <trkpt lat="47.4969" lon="6.64647">
        <ele>397</ele>
        <time>2015-12-06T09:54:03.000Z</time>
      </trkpt>
      <trkpt lat="47.49693" lon="6.6464">
        <ele>397</ele>
        <time>2015-12-06T09:54:04.000Z</time>
      </trkpt>
      <trkpt lat="47.49697" lon="6.64633">
        <ele>397</ele>
        <time>2015-12-06T09:54:05.000Z</time>
      </trkpt>
      <trkpt lat="47.497" lon="6.64625">
        <ele>397</ele>
        <time>2015-12-06T09:54:06.000Z</time>
      </trkpt>
      <trkpt lat="47.49702" lon="6.64619">
        <ele>397</ele>
        <time>2015-12-06T09:54:07.000Z</time>
      </trkpt>
      <trkpt lat="47.49704" lon="6.64611">
        <ele>397</ele>
        <time>2015-12-06T09:54:08.000Z</time>
      </trkpt>
      <trkpt lat="47.49707" lon="6.64603">
        <ele>397</ele>
        <time>2015-12-06T09:54:09.000Z</time>
      </trkpt>
      <trkpt lat="47.4971" lon="6.64597">
        <ele>397</ele>
        <time>2015-12-06T09:54:10.000Z</time>
      </trkpt>
      <trkpt lat="47.49713" lon="6.64591">
        <ele>397</ele>
        <time>2015-12-06T09:54:11.000Z</time>
      </trkpt>
      <trkpt lat="47.49716" lon="6.64586">
        <ele>397</ele>
        <time>2015-12-06T09:54:12.000Z</time>
      </trkpt>
      <trkpt lat="47.49719" lon="6.64579">
        <ele>397</ele>
        <time>2015-12-06T09:54:13.000Z</time>
      </trkpt>
      <trkpt lat="47.49722" lon="6.64571">
        <ele>397</ele>
        <time>2015-12-06T09:54:14.000Z</time>
      </trkpt>
      <trkpt lat="47.49724" lon="6.64563">
        <ele>397</ele>
        <time>2015-12-06T09:54:15.000Z</time>
      </trkpt>
      <trkpt lat="47.49726" lon="6.64557">
        <ele>397</ele>
        <time>2015-12-06T09:54:16.000Z</time>
      </trkpt>
      <trkpt lat="47.49729" lon="6.6455">
        <ele>397</ele>
        <time>2015-12-06T09:54:17.000Z</time>
      </trkpt>
      <trkpt lat="47.49731" lon="6.64544">
        <ele>397</ele>
        <time>2015-12-06T09:54:18.000Z</time>
      </trkpt>
      <trkpt lat="47.49734" lon="6.64537">
        <ele>397</ele>
        <time>2015-12-06T09:54:19.000Z</time>
      </trkpt>
      <trkpt lat="47.49736" lon="6.64529">
        <ele>397</ele>
        <time>2015-12-06T09:54:20.000Z</time>
      </trkpt>
      <trkpt lat="47.49739" lon="6.64523">
        <ele>397</ele>
        <time>2015-12-06T09:54:21.000Z</time>
      </trkpt>
      <trkpt lat="47.4974" lon="6.64513">
        <ele>396</ele>
        <time>2015-12-06T09:54:22.000Z</time>
      </trkpt>
      <trkpt lat="47.49743" lon="6.64507">
        <ele>396</ele>
        <time>2015-12-06T09:54:23.000Z</time>
      </trkpt>
      <trkpt lat="47.49745" lon="6.64501">
        <ele>396</ele>
        <time>2015-12-06T09:54:24.000Z</time>
      </trkpt>
      <trkpt lat="47.49748" lon="6.64494">
        <ele>396</ele>
        <time>2015-12-06T09:54:25.000Z</time>
      </trkpt>
      <trkpt lat="47.4975" lon="6.64485">
        <ele>395</ele>
        <time>2015-12-06T09:54:26.000Z</time>
      </trkpt>
      <trkpt lat="47.49753" lon="6.64478">
        <ele>395</ele>
        <time>2015-12-06T09:54:27.000Z</time>
      </trkpt>
      <trkpt lat="47.49755" lon="6.6447">
        <ele>394</ele>
        <time>2015-12-06T09:54:28.000Z</time>
      </trkpt>
      <trkpt lat="47.49759" lon="6.64463">
        <ele>394</ele>
        <time>2015-12-06T09:54:29.000Z</time>
      </trkpt>
      <trkpt lat="47.49761" lon="6.64456">
        <ele>394</ele>
        <time>2015-12-06T09:54:30.000Z</time>
      </trkpt>
      <trkpt lat="47.49765" lon="6.64449">
        <ele>394</ele>
        <time>2015-12-06T09:54:31.000Z</time>
      </trkpt>
      <trkpt lat="47.49768" lon="6.64442">
        <ele>394</ele>
        <time>2015-12-06T09:54:32.000Z</time>
      </trkpt>
      <trkpt lat="47.49772" lon="6.64435">
        <ele>394</ele>
        <time>2015-12-06T09:54:33.000Z</time>
      </trkpt>
      <trkpt lat="47.49775" lon="6.64428">
        <ele>393</ele>
        <time>2015-12-06T09:54:34.000Z</time>
      </trkpt>
      <trkpt lat="47.49779" lon="6.64422">
        <ele>393</ele>
        <time>2015-12-06T09:54:35.000Z</time>
      </trkpt>
      <trkpt lat="47.49783" lon="6.64416">
        <ele>392</ele>
        <time>2015-12-06T09:54:36.000Z</time>
      </trkpt>
      <trkpt lat="47.49786" lon="6.64413">
        <ele>392</ele>
        <time>2015-12-06T09:54:37.000Z</time>
      </trkpt>
      <trkpt lat="47.4979" lon="6.64406">
        <ele>392</ele>
        <time>2015-12-06T09:54:38.000Z</time>
      </trkpt>
      <trkpt lat="47.49795" lon="6.64401">
        <ele>392</ele>
        <time>2015-12-06T09:54:39.000Z</time>
      </trkpt>
      <trkpt lat="47.49799" lon="6.64396">
        <ele>392</ele>
        <time>2015-12-06T09:54:39.999Z</time>
      </trkpt>
      <trkpt lat="47.49804" lon="6.64391">
        <ele>392</ele>
        <time>2015-12-06T09:54:41.000Z</time>
      </trkpt>
      <trkpt lat="47.49809" lon="6.64386">
        <ele>392</ele>
        <time>2015-12-06T09:54:42.000Z</time>
      </trkpt>
      <trkpt lat="47.49815" lon="6.64378">
        <ele>392</ele>
        <time>2015-12-06T09:54:43.000Z</time>
      </trkpt>
      <trkpt lat="47.49818" lon="6.64368">
        <ele>392</ele>
        <time>2015-12-06T09:54:44.000Z</time>
      </trkpt>
      <trkpt lat="47.49822" lon="6.64357">
        <ele>391</ele>
        <time>2015-12-06T09:54:45.000Z</time>
      </trkpt>
      <trkpt lat="47.49821" lon="6.64342">
        <ele>391</ele>
        <time>2015-12-06T09:54:46.000Z</time>
      </trkpt>
      <trkpt lat="47.49822" lon="6.64329">
        <ele>391</ele>
        <time>2015-12-06T09:54:47.000Z</time>
      </trkpt>
      <trkpt lat="47.49822" lon="6.64322">
        <ele>391</ele>
        <time>2015-12-06T09:54:48.000Z</time>
      </trkpt>
      <trkpt lat="47.49822" lon="6.64312">
        <ele>392</ele>
        <time>2015-12-06T09:54:49.000Z</time>
      </trkpt>
      <trkpt lat="47.49822" lon="6.64302">
        <ele>392</ele>
        <time>2015-12-06T09:54:50.000Z</time>
      </trkpt>
      <trkpt lat="47.49822" lon="6.64292">
        <ele>392</ele>
        <time>2015-12-06T09:54:51.000Z</time>
      </trkpt>
      <trkpt lat="47.49821" lon="6.64284">
        <ele>392</ele>
        <time>2015-12-06T09:54:52.000Z</time>
      </trkpt>
      <trkpt lat="47.49822" lon="6.64276">
        <ele>392</ele>
        <time>2015-12-06T09:54:53.000Z</time>
      </trkpt>
      <trkpt lat="47.49823" lon="6.64268">
        <ele>392</ele>
        <time>2015-12-06T09:54:54.000Z</time>
      </trkpt>
      <trkpt lat="47.49824" lon="6.6426">
        <ele>392</ele>
        <time>2015-12-06T09:54:55.000Z</time>
      </trkpt>
      <trkpt lat="47.49824" lon="6.64253">
        <ele>393</ele>
        <time>2015-12-06T09:54:56.000Z</time>
      </trkpt>
      <trkpt lat="47.49825" lon="6.64247">
        <ele>394</ele>
        <time>2015-12-06T09:54:57.000Z</time>
      </trkpt>
      <trkpt lat="47.49826" lon="6.6424">
        <ele>395</ele>
        <time>2015-12-06T09:54:58.000Z</time>
      </trkpt>
      <trkpt lat="47.49827" lon="6.64233">
        <ele>395</ele>
        <time>2015-12-06T09:54:59.000Z</time>
      </trkpt>
      <trkpt lat="47.49828" lon="6.64228">
        <ele>396</ele>
        <time>2015-12-06T09:55:00.000Z</time>
      </trkpt>
      <trkpt lat="47.49829" lon="6.64224">
        <ele>396</ele>
        <time>2015-12-06T09:55:01.000Z</time>
      </trkpt>
      <trkpt lat="47.4983" lon="6.6422">
        <ele>396</ele>
        <time>2015-12-06T09:55:02.000Z</time>
      </trkpt>
      <trkpt lat="47.49831" lon="6.64217">
        <ele>396</ele>
        <time>2015-12-06T09:55:03.000Z</time>
      </trkpt>
      <trkpt lat="47.49833" lon="6.64211">
        <ele>397</ele>
        <time>2015-12-06T09:55:04.000Z</time>
      </trkpt>
      <trkpt lat="47.49832" lon="6.64205">
        <ele>397</ele>
        <time>2015-12-06T09:55:05.000Z</time>
      </trkpt>
      <trkpt lat="47.49834" lon="6.64199">
        <ele>398</ele>
        <time>2015-12-06T09:55:06.000Z</time>
      </trkpt>
      <trkpt lat="47.49834" lon="6.64194">
        <ele>398</ele>
        <time>2015-12-06T09:55:07.000Z</time>
      </trkpt>
      <trkpt lat="47.49835" lon="6.64189">
        <ele>399</ele>
        <time>2015-12-06T09:55:08.000Z</time>
      </trkpt>
      <trkpt lat="47.49835" lon="6.64184">
        <ele>399</ele>
        <time>2015-12-06T09:55:09.000Z</time>
      </trkpt>
      <trkpt lat="47.49836" lon="6.64179">
        <ele>400</ele>
        <time>2015-12-06T09:55:10.000Z</time>
      </trkpt>
      <trkpt lat="47.49837" lon="6.64174">
        <ele>400</ele>
        <time>2015-12-06T09:55:11.000Z</time>
      </trkpt>
      <trkpt lat="47.49838" lon="6.6417">
        <ele>400</ele>
        <time>2015-12-06T09:55:12.000Z</time>
      </trkpt>
      <trkpt lat="47.49838" lon="6.64165">
        <ele>402</ele>
        <time>2015-12-06T09:55:13.000Z</time>
      </trkpt>
      <trkpt lat="47.49839" lon="6.64161">
        <ele>403</ele>
        <time>2015-12-06T09:55:14.000Z</time>
      </trkpt>
      <trkpt lat="47.4984" lon="6.64157">
        <ele>404</ele>
        <time>2015-12-06T09:55:15.000Z</time>
      </trkpt>
      <trkpt lat="47.4984" lon="6.64153">
        <ele>404</ele>
        <time>2015-12-06T09:55:16.000Z</time>
      </trkpt>
      <trkpt lat="47.49841" lon="6.64149">
        <ele>405</ele>
        <time>2015-12-06T09:55:17.000Z</time>
      </trkpt>
      <trkpt lat="47.49842" lon="6.64143">
        <ele>406</ele>
        <time>2015-12-06T09:55:19.000Z</time>
      </trkpt>
      <trkpt lat="47.49842" lon="6.64141">
        <ele>406</ele>
        <time>2015-12-06T09:55:20.000Z</time>
      </trkpt>
      <trkpt lat="47.49843" lon="6.64135">
        <ele>407</ele>
        <time>2015-12-06T09:55:23.000Z</time>
      </trkpt>
      <trkpt lat="47.49842" lon="6.64133">
        <ele>407</ele>
        <time>2015-12-06T09:55:24.000Z</time>
      </trkpt>
      <trkpt lat="47.4984" lon="6.64128">
        <ele>408</ele>
        <time>2015-12-06T09:55:27.000Z</time>
      </trkpt>
      <trkpt lat="47.49839" lon="6.64126">
        <ele>408</ele>
        <time>2015-12-06T09:55:28.000Z</time>
      </trkpt>
      <trkpt lat="47.49837" lon="6.64121">
        <ele>409</ele>
        <time>2015-12-06T09:55:31.000Z</time>
      </trkpt>
      <trkpt lat="47.49836" lon="6.64119">
        <ele>409</ele>
        <time>2015-12-06T09:55:32.000Z</time>
      </trkpt>
      <trkpt lat="47.49837" lon="6.64114">
        <ele>409</ele>
        <time>2015-12-06T09:56:17.000Z</time>
      </trkpt>
      <trkpt lat="47.49836" lon="6.6411">
        <ele>410</ele>
        <time>2015-12-06T09:56:18.000Z</time>
      </trkpt>
      <trkpt lat="47.49835" lon="6.64104">
        <ele>410</ele>
        <time>2015-12-06T09:56:20.000Z</time>
      </trkpt>
      <trkpt lat="47.49835" lon="6.64101">
        <ele>411</ele>
        <time>2015-12-06T09:56:21.000Z</time>
      </trkpt>
      <trkpt lat="47.49834" lon="6.64098">
        <ele>411</ele>
        <time>2015-12-06T09:56:22.000Z</time>
      </trkpt>
      <trkpt lat="47.49834" lon="6.64094">
        <ele>412</ele>
        <time>2015-12-06T09:56:23.000Z</time>
      </trkpt>
      <trkpt lat="47.49834" lon="6.64091">
        <ele>412</ele>
        <time>2015-12-06T09:56:24.000Z</time>
      </trkpt>
      <trkpt lat="47.49833" lon="6.64087">
        <ele>412</ele>
        <time>2015-12-06T09:56:25.000Z</time>
      </trkpt>
      <trkpt lat="47.49833" lon="6.64084">
        <ele>413</ele>
        <time>2015-12-06T09:56:26.000Z</time>
      </trkpt>
      <trkpt lat="47.49832" lon="6.6408">
        <ele>413</ele>
        <time>2015-12-06T09:56:27.000Z</time>
      </trkpt>
      <trkpt lat="47.49831" lon="6.64076">
        <ele>413</ele>
        <time>2015-12-06T09:56:28.000Z</time>
      </trkpt>
      <trkpt lat="47.49829" lon="6.64072">
        <ele>414</ele>
        <time>2015-12-06T09:56:29.000Z</time>
      </trkpt>
      <trkpt lat="47.49828" lon="6.64068">
        <ele>414</ele>
        <time>2015-12-06T09:56:30.000Z</time>
      </trkpt>
      <trkpt lat="47.49826" lon="6.64064">
        <ele>414</ele>
        <time>2015-12-06T09:56:31.000Z</time>
      </trkpt>
      <trkpt lat="47.49825" lon="6.64059">
        <ele>414</ele>
        <time>2015-12-06T09:56:32.000Z</time>
      </trkpt>
      <trkpt lat="47.49823" lon="6.64054">
        <ele>414</ele>
        <time>2015-12-06T09:56:33.000Z</time>
      </trkpt>
      <trkpt lat="47.49822" lon="6.6405">
        <ele>415</ele>
        <time>2015-12-06T09:56:34.000Z</time>
      </trkpt>
      <trkpt lat="47.49821" lon="6.64047">
        <ele>415</ele>
        <time>2015-12-06T09:56:35.000Z</time>
      </trkpt>
      <trkpt lat="47.49822" lon="6.64044">
        <ele>415</ele>
        <time>2015-12-06T09:56:36.000Z</time>
      </trkpt>
      <trkpt lat="47.49822" lon="6.6404">
        <ele>415</ele>
        <time>2015-12-06T09:56:37.000Z</time>
      </trkpt>
      <trkpt lat="47.49822" lon="6.64036">
        <ele>415</ele>
        <time>2015-12-06T09:56:38.000Z</time>
      </trkpt>
      <trkpt lat="47.49822" lon="6.64031">
        <ele>416</ele>
        <time>2015-12-06T09:56:39.000Z</time>
      </trkpt>
      <trkpt lat="47.49822" lon="6.64027">
        <ele>416</ele>
        <time>2015-12-06T09:56:40.000Z</time>
      </trkpt>
      <trkpt lat="47.49823" lon="6.64024">
        <ele>416</ele>
        <time>2015-12-06T09:56:41.000Z</time>
      </trkpt>
      <trkpt lat="47.49823" lon="6.6402">
        <ele>416</ele>
        <time>2015-12-06T09:56:42.000Z</time>
      </trkpt>
      <trkpt lat="47.49825" lon="6.64017">
        <ele>417</ele>
        <time>2015-12-06T09:56:43.000Z</time>
      </trkpt>
      <trkpt lat="47.49826" lon="6.64014">
        <ele>417</ele>
        <time>2015-12-06T09:56:44.000Z</time>
      </trkpt>
      <trkpt lat="47.49827" lon="6.6401">
        <ele>417</ele>
        <time>2015-12-06T09:56:45.000Z</time>
      </trkpt>
      <trkpt lat="47.49827" lon="6.64006">
        <ele>418</ele>
        <time>2015-12-06T09:56:46.000Z</time>
      </trkpt>
      <trkpt lat="47.49829" lon="6.64002">
        <ele>418</ele>
        <time>2015-12-06T09:56:47.000Z</time>
      </trkpt>
      <trkpt lat="47.4983" lon="6.63999">
        <ele>419</ele>
        <time>2015-12-06T09:56:48.000Z</time>
      </trkpt>
      <trkpt lat="47.49831" lon="6.63997">
        <ele>419</ele>
        <time>2015-12-06T09:56:49.000Z</time>
      </trkpt>
      <trkpt lat="47.49834" lon="6.63995">
        <ele>420</ele>
        <time>2015-12-06T09:56:50.000Z</time>
      </trkpt>
      <trkpt lat="47.49836" lon="6.63992">
        <ele>421</ele>
        <time>2015-12-06T09:56:51.000Z</time>
      </trkpt>
      <trkpt lat="47.49838" lon="6.63991">
        <ele>421</ele>
        <time>2015-12-06T09:56:52.000Z</time>
      </trkpt>
      <trkpt lat="47.49841" lon="6.63989">
        <ele>421</ele>
        <time>2015-12-06T09:56:53.000Z</time>
      </trkpt>
      <trkpt lat="47.49842" lon="6.63988">
        <ele>421</ele>
        <time>2015-12-06T09:56:54.000Z</time>
      </trkpt>
      <trkpt lat="47.49845" lon="6.63988">
        <ele>422</ele>
        <time>2015-12-06T09:56:55.000Z</time>
      </trkpt>
      <trkpt lat="47.49849" lon="6.63987">
        <ele>422</ele>
        <time>2015-12-06T09:56:57.000Z</time>
      </trkpt>
      <trkpt lat="47.49851" lon="6.63987">
        <ele>422</ele>
        <time>2015-12-06T09:56:58.000Z</time>
      </trkpt>
      <trkpt lat="47.49855" lon="6.63983">
        <ele>423</ele>
        <time>2015-12-06T09:57:00.000Z</time>
      </trkpt>
      <trkpt lat="47.49856" lon="6.63981">
        <ele>423</ele>
        <time>2015-12-06T09:57:01.000Z</time>
      </trkpt>
      <trkpt lat="47.4986" lon="6.63979">
        <ele>423</ele>
        <time>2015-12-06T09:57:03.000Z</time>
      </trkpt>
      <trkpt lat="47.49862" lon="6.63981">
        <ele>423</ele>
        <time>2015-12-06T09:57:04.000Z</time>
      </trkpt>
      <trkpt lat="47.49866" lon="6.63982">
        <ele>423</ele>
        <time>2015-12-06T09:57:06.000Z</time>
      </trkpt>
      <trkpt lat="47.49868" lon="6.63982">
        <ele>424</ele>
        <time>2015-12-06T09:57:07.001Z</time>
      </trkpt>
      <trkpt lat="47.49871" lon="6.63979">
        <ele>424</ele>
        <time>2015-12-06T09:57:10.000Z</time>
      </trkpt>
      <trkpt lat="47.49873" lon="6.63976">
        <ele>424</ele>
        <time>2015-12-06T09:57:11.000Z</time>
      </trkpt>
      <trkpt lat="47.49875" lon="6.63974">
        <ele>424</ele>
        <time>2015-12-06T09:57:12.000Z</time>
      </trkpt>
      <trkpt lat="47.49877" lon="6.63973">
        <ele>424</ele>
        <time>2015-12-06T09:57:13.000Z</time>
      </trkpt>
      <trkpt lat="47.49881" lon="6.63971">
        <ele>424</ele>
        <time>2015-12-06T09:57:15.000Z</time>
      </trkpt>
      <trkpt lat="47.49883" lon="6.63971">
        <ele>425</ele>
        <time>2015-12-06T09:57:16.000Z</time>
      </trkpt>
      <trkpt lat="47.49886" lon="6.6397">
        <ele>425</ele>
        <time>2015-12-06T09:57:17.000Z</time>
      </trkpt>
      <trkpt lat="47.49889" lon="6.6397">
        <ele>425</ele>
        <time>2015-12-06T09:57:18.000Z</time>
      </trkpt>
      <trkpt lat="47.49891" lon="6.63968">
        <ele>425</ele>
        <time>2015-12-06T09:57:19.000Z</time>
      </trkpt>
      <trkpt lat="47.49894" lon="6.63966">
        <ele>425</ele>
        <time>2015-12-06T09:57:20.000Z</time>
      </trkpt>
      <trkpt lat="47.49896" lon="6.63963">
        <ele>425</ele>
        <time>2015-12-06T09:57:21.000Z</time>
      </trkpt>
      <trkpt lat="47.49898" lon="6.63959">
        <ele>425</ele>
        <time>2015-12-06T09:57:22.000Z</time>
      </trkpt>
      <trkpt lat="47.49899" lon="6.63956">
        <ele>426</ele>
        <time>2015-12-06T09:57:23.000Z</time>
      </trkpt>
      <trkpt lat="47.499" lon="6.63953">
        <ele>426</ele>
        <time>2015-12-06T09:57:24.000Z</time>
      </trkpt>
      <trkpt lat="47.49903" lon="6.63949">
        <ele>426</ele>
        <time>2015-12-06T09:57:26.000Z</time>
      </trkpt>
      <trkpt lat="47.49905" lon="6.63947">
        <ele>426</ele>
        <time>2015-12-06T09:57:26.999Z</time>
      </trkpt>
      <trkpt lat="47.49907" lon="6.63941">
        <ele>426</ele>
        <time>2015-12-06T09:57:29.000Z</time>
      </trkpt>
      <trkpt lat="47.49908" lon="6.63938">
        <ele>427</ele>
        <time>2015-12-06T09:57:30.000Z</time>
      </trkpt>
      <trkpt lat="47.4991" lon="6.63933">
        <ele>427</ele>
        <time>2015-12-06T09:57:32.000Z</time>
      </trkpt>
      <trkpt lat="47.49912" lon="6.63931">
        <ele>428</ele>
        <time>2015-12-06T09:57:33.000Z</time>
      </trkpt>
      <trkpt lat="47.49914" lon="6.63927">
        <ele>428</ele>
        <time>2015-12-06T09:57:35.000Z</time>
      </trkpt>
      <trkpt lat="47.49915" lon="6.63925">
        <ele>428</ele>
        <time>2015-12-06T09:57:36.000Z</time>
      </trkpt>
      <trkpt lat="47.49918" lon="6.63922">
        <ele>430</ele>
        <time>2015-12-06T09:57:38.000Z</time>
      </trkpt>
      <trkpt lat="47.49919" lon="6.6392">
        <ele>430</ele>
        <time>2015-12-06T09:57:39.000Z</time>
      </trkpt>
      <trkpt lat="47.4992" lon="6.63917">
        <ele>430</ele>
        <time>2015-12-06T09:57:40.000Z</time>
      </trkpt>
      <trkpt lat="47.49921" lon="6.63914">
        <ele>431</ele>
        <time>2015-12-06T09:57:41.000Z</time>
      </trkpt>
      <trkpt lat="47.49924" lon="6.63908">
        <ele>432</ele>
        <time>2015-12-06T09:57:43.000Z</time>
      </trkpt>
      <trkpt lat="47.49925" lon="6.63905">
        <ele>432</ele>
        <time>2015-12-06T09:57:44.000Z</time>
      </trkpt>
      <trkpt lat="47.49928" lon="6.63902">
        <ele>432</ele>
        <time>2015-12-06T09:57:46.000Z</time>
      </trkpt>
      <trkpt lat="47.49929" lon="6.639">
        <ele>433</ele>
        <time>2015-12-06T09:57:47.000Z</time>
      </trkpt>
      <trkpt lat="47.49933" lon="6.63897">
        <ele>433</ele>
        <time>2015-12-06T09:57:49.000Z</time>
      </trkpt>
      <trkpt lat="47.49935" lon="6.63895">
        <ele>433</ele>
        <time>2015-12-06T09:57:50.000Z</time>
      </trkpt>
      <trkpt lat="47.49938" lon="6.63894">
        <ele>433</ele>
        <time>2015-12-06T09:57:51.000Z</time>
      </trkpt>
      <trkpt lat="47.4994" lon="6.63892">
        <ele>434</ele>
        <time>2015-12-06T09:57:52.000Z</time>
      </trkpt>
      <trkpt lat="47.49942" lon="6.63891">
        <ele>434</ele>
        <time>2015-12-06T09:57:53.000Z</time>
      </trkpt>
      <trkpt lat="47.49945" lon="6.6389">
        <ele>434</ele>
        <time>2015-12-06T09:57:54.000Z</time>
      </trkpt>
      <trkpt lat="47.49949" lon="6.63889">
        <ele>434</ele>
        <time>2015-12-06T09:57:56.000Z</time>
      </trkpt>
      <trkpt lat="47.49951" lon="6.63889">
        <ele>434</ele>
        <time>2015-12-06T09:57:57.000Z</time>
      </trkpt>
      <trkpt lat="47.49954" lon="6.6389">
        <ele>434</ele>
        <time>2015-12-06T09:57:59.000Z</time>
      </trkpt>
      <trkpt lat="47.49956" lon="6.6389">
        <ele>434</ele>
        <time>2015-12-06T09:58:00.000Z</time>
      </trkpt>
      <trkpt lat="47.49959" lon="6.63889">
        <ele>434</ele>
        <time>2015-12-06T09:58:02.000Z</time>
      </trkpt>
      <trkpt lat="47.49961" lon="6.63889">
        <ele>434</ele>
        <time>2015-12-06T09:58:03.000Z</time>
      </trkpt>
      <trkpt lat="47.49963" lon="6.63888">
        <ele>434</ele>
        <time>2015-12-06T09:58:04.000Z</time>
      </trkpt>
      <trkpt lat="47.49966" lon="6.63886">
        <ele>435</ele>
        <time>2015-12-06T09:58:05.000Z</time>
      </trkpt>
      <trkpt lat="47.49968" lon="6.63885">
        <ele>435</ele>
        <time>2015-12-06T09:58:06.000Z</time>
      </trkpt>
      <trkpt lat="47.4997" lon="6.63883">
        <ele>435</ele>
        <time>2015-12-06T09:58:07.000Z</time>
      </trkpt>
      <trkpt lat="47.49972" lon="6.63882">
        <ele>435</ele>
        <time>2015-12-06T09:58:08.000Z</time>
      </trkpt>
      <trkpt lat="47.49974" lon="6.6388">
        <ele>435</ele>
        <time>2015-12-06T09:58:09.000Z</time>
      </trkpt>
      <trkpt lat="47.49977" lon="6.63879">
        <ele>435</ele>
        <time>2015-12-06T09:58:10.000Z</time>
      </trkpt>
      <trkpt lat="47.49979" lon="6.63878">
        <ele>435</ele>
        <time>2015-12-06T09:58:11.000Z</time>
      </trkpt>
      <trkpt lat="47.49981" lon="6.63878">
        <ele>435</ele>
        <time>2015-12-06T09:58:12.000Z</time>
      </trkpt>
      <trkpt lat="47.49983" lon="6.63878">
        <ele>435</ele>
        <time>2015-12-06T09:58:13.000Z</time>
      </trkpt>
      <trkpt lat="47.49987" lon="6.63877">
        <ele>435</ele>
        <time>2015-12-06T09:58:15.000Z</time>
      </trkpt>
      <trkpt lat="47.49989" lon="6.63876">
        <ele>435</ele>
        <time>2015-12-06T09:58:16.000Z</time>
      </trkpt>
      <trkpt lat="47.49992" lon="6.63873">
        <ele>436</ele>
        <time>2015-12-06T09:58:18.000Z</time>
      </trkpt>
      <trkpt lat="47.49994" lon="6.63872">
        <ele>436</ele>
        <time>2015-12-06T09:58:19.000Z</time>
      </trkpt>
      <trkpt lat="47.49996" lon="6.6387">
        <ele>436</ele>
        <time>2015-12-06T09:58:20.000Z</time>
      </trkpt>
      <trkpt lat="47.49998" lon="6.63869">
        <ele>436</ele>
        <time>2015-12-06T09:58:21.000Z</time>
      </trkpt>
      <trkpt lat="47.50002" lon="6.63866">
        <ele>437</ele>
        <time>2015-12-06T09:58:23.000Z</time>
      </trkpt>
      <trkpt lat="47.50004" lon="6.63864">
        <ele>437</ele>
        <time>2015-12-06T09:58:24.000Z</time>
      </trkpt>
      <trkpt lat="47.50006" lon="6.63862">
        <ele>438</ele>
        <time>2015-12-06T09:58:25.000Z</time>
      </trkpt>
      <trkpt lat="47.50008" lon="6.6386">
        <ele>438</ele>
        <time>2015-12-06T09:58:26.000Z</time>
      </trkpt>
      <trkpt lat="47.5001" lon="6.63858">
        <ele>438</ele>
        <time>2015-12-06T09:58:27.000Z</time>
      </trkpt>
      <trkpt lat="47.50012" lon="6.63856">
        <ele>438</ele>
        <time>2015-12-06T09:58:28.000Z</time>
      </trkpt>
      <trkpt lat="47.50016" lon="6.63853">
        <ele>438</ele>
        <time>2015-12-06T09:58:30.000Z</time>
      </trkpt>
      <trkpt lat="47.50018" lon="6.63851">
        <ele>438</ele>
        <time>2015-12-06T09:58:31.000Z</time>
      </trkpt>
      <trkpt lat="47.50022" lon="6.63849">
        <ele>438</ele>
        <time>2015-12-06T09:58:33.000Z</time>
      </trkpt>
      <trkpt lat="47.50024" lon="6.63848">
        <ele>438</ele>
        <time>2015-12-06T09:58:34.000Z</time>
      </trkpt>
      <trkpt lat="47.50028" lon="6.63846">
        <ele>438</ele>
        <time>2015-12-06T09:58:36.000Z</time>
      </trkpt>
      <trkpt lat="47.5003" lon="6.63846">
        <ele>438</ele>
        <time>2015-12-06T09:58:37.000Z</time>
      </trkpt>
      <trkpt lat="47.50032" lon="6.63845">
        <ele>438</ele>
        <time>2015-12-06T09:58:38.000Z</time>
      </trkpt>
      <trkpt lat="47.50035" lon="6.63844">
        <ele>438</ele>
        <time>2015-12-06T09:58:39.000Z</time>
      </trkpt>
      <trkpt lat="47.50037" lon="6.63844">
        <ele>438</ele>
        <time>2015-12-06T09:58:40.000Z</time>
      </trkpt>
      <trkpt lat="47.5004" lon="6.63843">
        <ele>438</ele>
        <time>2015-12-06T09:58:41.000Z</time>
      </trkpt>
      <trkpt lat="47.50043" lon="6.63844">
        <ele>438</ele>
        <time>2015-12-06T09:58:42.000Z</time>
      </trkpt>
      <trkpt lat="47.50046" lon="6.63844">
        <ele>438</ele>
        <time>2015-12-06T09:58:43.000Z</time>
      </trkpt>
      <trkpt lat="47.50049" lon="6.63845">
        <ele>438</ele>
        <time>2015-12-06T09:58:44.000Z</time>
      </trkpt>
      <trkpt lat="47.50051" lon="6.63846">
        <ele>438</ele>
        <time>2015-12-06T09:58:45.000Z</time>
      </trkpt>
      <trkpt lat="47.50054" lon="6.63847">
        <ele>438</ele>
        <time>2015-12-06T09:58:46.000Z</time>
      </trkpt>
      <trkpt lat="47.50057" lon="6.63849">
        <ele>438</ele>
        <time>2015-12-06T09:58:47.000Z</time>
      </trkpt>
      <trkpt lat="47.5006" lon="6.6385">
        <ele>438</ele>
        <time>2015-12-06T09:58:48.000Z</time>
      </trkpt>
      <trkpt lat="47.50063" lon="6.63852">
        <ele>438</ele>
        <time>2015-12-06T09:58:49.000Z</time>
      </trkpt>
      <trkpt lat="47.50066" lon="6.63853">
        <ele>438</ele>
        <time>2015-12-06T09:58:50.000Z</time>
      </trkpt>
      <trkpt lat="47.50068" lon="6.63855">
        <ele>437</ele>
        <time>2015-12-06T09:58:51.000Z</time>
      </trkpt>
      <trkpt lat="47.50071" lon="6.63857">
        <ele>437</ele>
        <time>2015-12-06T09:58:52.000Z</time>
      </trkpt>
      <trkpt lat="47.50073" lon="6.63858">
        <ele>437</ele>
        <time>2015-12-06T09:58:53.000Z</time>
      </trkpt>
      <trkpt lat="47.50076" lon="6.63859">
        <ele>437</ele>
        <time>2015-12-06T09:58:54.000Z</time>
      </trkpt>
      <trkpt lat="47.50078" lon="6.6386">
        <ele>437</ele>
        <time>2015-12-06T09:58:55.000Z</time>
      </trkpt>
      <trkpt lat="47.50081" lon="6.63861">
        <ele>437</ele>
        <time>2015-12-06T09:58:56.000Z</time>
      </trkpt>
      <trkpt lat="47.50083" lon="6.63861">
        <ele>438</ele>
        <time>2015-12-06T09:58:57.000Z</time>
      </trkpt>
      <trkpt lat="47.50086" lon="6.63862">
        <ele>438</ele>
        <time>2015-12-06T09:58:58.000Z</time>
      </trkpt>
      <trkpt lat="47.50089" lon="6.63863">
        <ele>438</ele>
        <time>2015-12-06T09:58:59.000Z</time>
      </trkpt>
      <trkpt lat="47.50093" lon="6.63864">
        <ele>438</ele>
        <time>2015-12-06T09:59:00.000Z</time>
      </trkpt>
      <trkpt lat="47.50096" lon="6.63865">
        <ele>438</ele>
        <time>2015-12-06T09:59:01.000Z</time>
      </trkpt>
      <trkpt lat="47.501" lon="6.63866">
        <ele>438</ele>
        <time>2015-12-06T09:59:02.000Z</time>
      </trkpt>
      <trkpt lat="47.50103" lon="6.63867">
        <ele>438</ele>
        <time>2015-12-06T09:59:03.000Z</time>
      </trkpt>
      <trkpt lat="47.50106" lon="6.63868">
        <ele>438</ele>
        <time>2015-12-06T09:59:04.000Z</time>
      </trkpt>
      <trkpt lat="47.5011" lon="6.63869">
        <ele>438</ele>
        <time>2015-12-06T09:59:05.000Z</time>
      </trkpt>
      <trkpt lat="47.50114" lon="6.63871">
        <ele>438</ele>
        <time>2015-12-06T09:59:06.000Z</time>
      </trkpt>
      <trkpt lat="47.50117" lon="6.63872">
        <ele>438</ele>
        <time>2015-12-06T09:59:07.000Z</time>
      </trkpt>
      <trkpt lat="47.5012" lon="6.63873">
        <ele>438</ele>
        <time>2015-12-06T09:59:08.000Z</time>
      </trkpt>
      <trkpt lat="47.50124" lon="6.63873">
        <ele>438</ele>
        <time>2015-12-06T09:59:09.000Z</time>
      </trkpt>
      <trkpt lat="47.50127" lon="6.63875">
        <ele>438</ele>
        <time>2015-12-06T09:59:10.000Z</time>
      </trkpt>
      <trkpt lat="47.5013" lon="6.63877">
        <ele>437</ele>
        <time>2015-12-06T09:59:11.000Z</time>
      </trkpt>
      <trkpt lat="47.50133" lon="6.63879">
        <ele>437</ele>
        <time>2015-12-06T09:59:12.000Z</time>
      </trkpt>
      <trkpt lat="47.50136" lon="6.6388">
        <ele>437</ele>
        <time>2015-12-06T09:59:13.000Z</time>
      </trkpt>
      <trkpt lat="47.50139" lon="6.63881">
        <ele>437</ele>
        <time>2015-12-06T09:59:14.000Z</time>
      </trkpt>
      <trkpt lat="47.50143" lon="6.63882">
        <ele>437</ele>
        <time>2015-12-06T09:59:15.000Z</time>
      </trkpt>
      <trkpt lat="47.50146" lon="6.63883">
        <ele>437</ele>
        <time>2015-12-06T09:59:16.000Z</time>
      </trkpt>
      <trkpt lat="47.50149" lon="6.63884">
        <ele>437</ele>
        <time>2015-12-06T09:59:17.000Z</time>
      </trkpt>
      <trkpt lat="47.50152" lon="6.63886">
        <ele>437</ele>
        <time>2015-12-06T09:59:18.000Z</time>
      </trkpt>
      <trkpt lat="47.50155" lon="6.63887">
        <ele>437</ele>
        <time>2015-12-06T09:59:19.000Z</time>
      </trkpt>
      <trkpt lat="47.50158" lon="6.63888">
        <ele>437</ele>
        <time>2015-12-06T09:59:20.000Z</time>
      </trkpt>
      <trkpt lat="47.5016" lon="6.63888">
        <ele>437</ele>
        <time>2015-12-06T09:59:21.000Z</time>
      </trkpt>
      <trkpt lat="47.50164" lon="6.63889">
        <ele>437</ele>
        <time>2015-12-06T09:59:22.999Z</time>
      </trkpt>
      <trkpt lat="47.50166" lon="6.6389">
        <ele>437</ele>
        <time>2015-12-06T09:59:24.000Z</time>
      </trkpt>
      <trkpt lat="47.50169" lon="6.63892">
        <ele>441</ele>
        <time>2015-12-06T09:59:26.001Z</time>
      </trkpt>
      <trkpt lat="47.50171" lon="6.63894">
        <ele>441</ele>
        <time>2015-12-06T09:59:27.000Z</time>
      </trkpt>
      <trkpt lat="47.50174" lon="6.63895">
        <ele>441</ele>
        <time>2015-12-06T09:59:29.000Z</time>
      </trkpt>
      <trkpt lat="47.50176" lon="6.63896">
        <ele>441</ele>
        <time>2015-12-06T09:59:30.000Z</time>
      </trkpt>
      <trkpt lat="47.50177" lon="6.63897">
        <ele>441</ele>
        <time>2015-12-06T09:59:31.000Z</time>
      </trkpt>
      <trkpt lat="47.5018" lon="6.63898">
        <ele>441</ele>
        <time>2015-12-06T09:59:32.000Z</time>
      </trkpt>
      <trkpt lat="47.50183" lon="6.63899">
        <ele>441</ele>
        <time>2015-12-06T09:59:33.000Z</time>
      </trkpt>
      <trkpt lat="47.50185" lon="6.63901">
        <ele>442</ele>
        <time>2015-12-06T09:59:34.000Z</time>
      </trkpt>
      <trkpt lat="47.50188" lon="6.63902">
        <ele>442</ele>
        <time>2015-12-06T09:59:35.000Z</time>
      </trkpt>
      <trkpt lat="47.50191" lon="6.63903">
        <ele>442</ele>
        <time>2015-12-06T09:59:36.000Z</time>
      </trkpt>
      <trkpt lat="47.50194" lon="6.63904">
        <ele>442</ele>
        <time>2015-12-06T09:59:37.000Z</time>
      </trkpt>
      <trkpt lat="47.50197" lon="6.63905">
        <ele>443</ele>
        <time>2015-12-06T09:59:38.000Z</time>
      </trkpt>
      <trkpt lat="47.50201" lon="6.63905">
        <ele>443</ele>
        <time>2015-12-06T09:59:39.000Z</time>
      </trkpt>
      <trkpt lat="47.50204" lon="6.63904">
        <ele>444</ele>
        <time>2015-12-06T09:59:40.000Z</time>
      </trkpt>
      <trkpt lat="47.50207" lon="6.63903">
        <ele>444</ele>
        <time>2015-12-06T09:59:41.000Z</time>
      </trkpt>
      <trkpt lat="47.5021" lon="6.63902">
        <ele>444</ele>
        <time>2015-12-06T09:59:42.000Z</time>
      </trkpt>
      <trkpt lat="47.50212" lon="6.639">
        <ele>445</ele>
        <time>2015-12-06T09:59:43.000Z</time>
      </trkpt>
      <trkpt lat="47.50214" lon="6.63898">
        <ele>445</ele>
        <time>2015-12-06T09:59:44.000Z</time>
      </trkpt>
      <trkpt lat="47.50216" lon="6.63895">
        <ele>445</ele>
        <time>2015-12-06T09:59:45.000Z</time>
      </trkpt>
      <trkpt lat="47.50217" lon="6.63892">
        <ele>445</ele>
        <time>2015-12-06T09:59:46.000Z</time>
      </trkpt>
      <trkpt lat="47.50219" lon="6.63888">
        <ele>445</ele>
        <time>2015-12-06T09:59:48.000Z</time>
      </trkpt>
      <trkpt lat="47.50221" lon="6.63888">
        <ele>446</ele>
        <time>2015-12-06T09:59:49.000Z</time>
      </trkpt>
      <trkpt lat="47.50223" lon="6.63884">
        <ele>446</ele>
        <time>2015-12-06T09:59:52.000Z</time>
      </trkpt>
      <trkpt lat="47.50223" lon="6.63882">
        <ele>446</ele>
        <time>2015-12-06T09:59:53.000Z</time>
      </trkpt>
      <trkpt lat="47.50223" lon="6.63876">
        <ele>446</ele>
        <time>2015-12-06T09:59:55.000Z</time>
      </trkpt>
      <trkpt lat="47.50223" lon="6.63873">
        <ele>446</ele>
        <time>2015-12-06T09:59:56.000Z</time>
      </trkpt>
      <trkpt lat="47.50221" lon="6.63867">
        <ele>446</ele>
        <time>2015-12-06T09:59:58.000Z</time>
      </trkpt>
      <trkpt lat="47.50221" lon="6.63865">
        <ele>446</ele>
        <time>2015-12-06T09:59:59.000Z</time>
      </trkpt>
      <trkpt lat="47.50221" lon="6.6386">
        <ele>447</ele>
        <time>2015-12-06T10:00:01.000Z</time>
      </trkpt>
      <trkpt lat="47.50221" lon="6.63857">
        <ele>447</ele>
        <time>2015-12-06T10:00:02.000Z</time>
      </trkpt>
      <trkpt lat="47.50221" lon="6.63852">
        <ele>447</ele>
        <time>2015-12-06T10:00:04.000Z</time>
      </trkpt>
      <trkpt lat="47.50221" lon="6.6385">
        <ele>447</ele>
        <time>2015-12-06T10:00:05.000Z</time>
      </trkpt>
      <trkpt lat="47.50222" lon="6.63845">
        <ele>448</ele>
        <time>2015-12-06T10:00:07.000Z</time>
      </trkpt>
      <trkpt lat="47.50221" lon="6.63842">
        <ele>448</ele>
        <time>2015-12-06T10:00:08.000Z</time>
      </trkpt>
      <trkpt lat="47.50221" lon="6.63836">
        <ele>448</ele>
        <time>2015-12-06T10:00:10.000Z</time>
      </trkpt>
      <trkpt lat="47.50221" lon="6.63833">
        <ele>451</ele>
        <time>2015-12-06T10:00:11.000Z</time>
      </trkpt>
      <trkpt lat="47.50221" lon="6.63829">
        <ele>451</ele>
        <time>2015-12-06T10:00:12.000Z</time>
      </trkpt>
      <trkpt lat="47.50221" lon="6.63826">
        <ele>451</ele>
        <time>2015-12-06T10:00:13.000Z</time>
      </trkpt>
      <trkpt lat="47.50221" lon="6.63822">
        <ele>451</ele>
        <time>2015-12-06T10:00:14.000Z</time>
      </trkpt>
      <trkpt lat="47.50221" lon="6.63819">
        <ele>451</ele>
        <time>2015-12-06T10:00:15.000Z</time>
      </trkpt>
      <trkpt lat="47.5022" lon="6.63813">
        <ele>451</ele>
        <time>2015-12-06T10:00:17.000Z</time>
      </trkpt>
      <trkpt lat="47.5022" lon="6.63811">
        <ele>451</ele>
        <time>2015-12-06T10:00:18.000Z</time>
      </trkpt>
      <trkpt lat="47.5022" lon="6.63804">
        <ele>451</ele>
        <time>2015-12-06T10:00:21.000Z</time>
      </trkpt>
      <trkpt lat="47.5022" lon="6.63802">
        <ele>451</ele>
        <time>2015-12-06T10:00:22.000Z</time>
      </trkpt>
      <trkpt lat="47.5022" lon="6.63797">
        <ele>451</ele>
        <time>2015-12-06T10:00:24.000Z</time>
      </trkpt>
      <trkpt lat="47.5022" lon="6.63794">
        <ele>451</ele>
        <time>2015-12-06T10:00:25.000Z</time>
      </trkpt>
      <trkpt lat="47.5022" lon="6.63791">
        <ele>451</ele>
        <time>2015-12-06T10:00:26.000Z</time>
      </trkpt>
      <trkpt lat="47.50219" lon="6.63787">
        <ele>451</ele>
        <time>2015-12-06T10:00:27.000Z</time>
      </trkpt>
      <trkpt lat="47.50219" lon="6.63783">
        <ele>452</ele>
        <time>2015-12-06T10:00:28.000Z</time>
      </trkpt>
      <trkpt lat="47.50219" lon="6.63779">
        <ele>452</ele>
        <time>2015-12-06T10:00:29.000Z</time>
      </trkpt>
      <trkpt lat="47.50219" lon="6.63775">
        <ele>452</ele>
        <time>2015-12-06T10:00:30.000Z</time>
      </trkpt>
      <trkpt lat="47.50218" lon="6.63772">
        <ele>452</ele>
        <time>2015-12-06T10:00:31.000Z</time>
      </trkpt>
      <trkpt lat="47.50219" lon="6.63765">
        <ele>452</ele>
        <time>2015-12-06T10:00:33.000Z</time>
      </trkpt>
      <trkpt lat="47.50219" lon="6.63762">
        <ele>452</ele>
        <time>2015-12-06T10:00:34.000Z</time>
      </trkpt>
      <trkpt lat="47.50219" lon="6.63757">
        <ele>453</ele>
        <time>2015-12-06T10:00:36.000Z</time>
      </trkpt>
      <trkpt lat="47.50219" lon="6.63754">
        <ele>453</ele>
        <time>2015-12-06T10:00:37.000Z</time>
      </trkpt>
      <trkpt lat="47.50219" lon="6.63748">
        <ele>456</ele>
        <time>2015-12-06T10:00:39.999Z</time>
      </trkpt>
      <trkpt lat="47.50219" lon="6.63746">
        <ele>456</ele>
        <time>2015-12-06T10:00:41.000Z</time>
      </trkpt>
      <trkpt lat="47.50218" lon="6.6374">
        <ele>456</ele>
        <time>2015-12-06T10:00:44.000Z</time>
      </trkpt>
      <trkpt lat="47.50217" lon="6.63739">
        <ele>456</ele>
        <time>2015-12-06T10:00:45.000Z</time>
      </trkpt>
      <trkpt lat="47.50215" lon="6.63733">
        <ele>456</ele>
        <time>2015-12-06T10:00:55.000Z</time>
      </trkpt>
      <trkpt lat="47.50215" lon="6.63733">
        <ele>456</ele>
        <time>2015-12-06T10:00:56.000Z</time>
      </trkpt>
      <trkpt lat="47.50215" lon="6.63727">
        <ele>456</ele>
        <time>2015-12-06T10:01:17.000Z</time>
      </trkpt>
      <trkpt lat="47.50214" lon="6.63725">
        <ele>456</ele>
        <time>2015-12-06T10:01:18.000Z</time>
      </trkpt>
      <trkpt lat="47.50215" lon="6.63719">
        <ele>456</ele>
        <time>2015-12-06T10:01:21.000Z</time>
      </trkpt>
      <trkpt lat="47.50215" lon="6.63717">
        <ele>456</ele>
        <time>2015-12-06T10:01:22.000Z</time>
      </trkpt>
      <trkpt lat="47.50216" lon="6.63712">
        <ele>456</ele>
        <time>2015-12-06T10:01:24.000Z</time>
      </trkpt>
      <trkpt lat="47.50215" lon="6.6371">
        <ele>456</ele>
        <time>2015-12-06T10:01:25.000Z</time>
      </trkpt>
      <trkpt lat="47.50214" lon="6.63706">
        <ele>456</ele>
        <time>2015-12-06T10:01:26.000Z</time>
      </trkpt>
      <trkpt lat="47.50213" lon="6.63702">
        <ele>456</ele>
        <time>2015-12-06T10:01:27.000Z</time>
      </trkpt>
      <trkpt lat="47.50212" lon="6.63698">
        <ele>456</ele>
        <time>2015-12-06T10:01:28.000Z</time>
      </trkpt>
      <trkpt lat="47.50212" lon="6.63695">
        <ele>456</ele>
        <time>2015-12-06T10:01:29.000Z</time>
      </trkpt>
      <trkpt lat="47.50212" lon="6.63688">
        <ele>457</ele>
        <time>2015-12-06T10:01:32.000Z</time>
      </trkpt>
      <trkpt lat="47.50211" lon="6.63686">
        <ele>457</ele>
        <time>2015-12-06T10:01:33.000Z</time>
      </trkpt>
      <trkpt lat="47.50212" lon="6.6368">
        <ele>457</ele>
        <time>2015-12-06T10:01:37.000Z</time>
      </trkpt>
      <trkpt lat="47.50211" lon="6.63678">
        <ele>457</ele>
        <time>2015-12-06T10:01:38.000Z</time>
      </trkpt>
      <trkpt lat="47.50211" lon="6.63672">
        <ele>457</ele>
        <time>2015-12-06T10:01:40.000Z</time>
      </trkpt>
      <trkpt lat="47.50211" lon="6.63669">
        <ele>457</ele>
        <time>2015-12-06T10:01:41.000Z</time>
      </trkpt>
      <trkpt lat="47.50211" lon="6.63664">
        <ele>460</ele>
        <time>2015-12-06T10:01:43.000Z</time>
      </trkpt>
      <trkpt lat="47.50211" lon="6.63662">
        <ele>460</ele>
        <time>2015-12-06T10:01:44.000Z</time>
      </trkpt>
      <trkpt lat="47.50212" lon="6.63658">
        <ele>460</ele>
        <time>2015-12-06T10:01:46.000Z</time>
      </trkpt>
      <trkpt lat="47.50213" lon="6.63656">
        <ele>460</ele>
        <time>2015-12-06T10:01:47.000Z</time>
      </trkpt>
      <trkpt lat="47.50212" lon="6.63651">
        <ele>461</ele>
        <time>2015-12-06T10:01:49.000Z</time>
      </trkpt>
      <trkpt lat="47.50211" lon="6.63647">
        <ele>460</ele>
        <time>2015-12-06T10:01:50.000Z</time>
      </trkpt>
      <trkpt lat="47.5021" lon="6.63644">
        <ele>460</ele>
        <time>2015-12-06T10:01:51.000Z</time>
      </trkpt>
      <trkpt lat="47.5021" lon="6.6364">
        <ele>460</ele>
        <time>2015-12-06T10:01:52.000Z</time>
      </trkpt>
      <trkpt lat="47.50209" lon="6.63634">
        <ele>461</ele>
        <time>2015-12-06T10:01:54.000Z</time>
      </trkpt>
      <trkpt lat="47.5021" lon="6.63631">
        <ele>461</ele>
        <time>2015-12-06T10:01:55.000Z</time>
      </trkpt>
      <trkpt lat="47.5021" lon="6.63626">
        <ele>461</ele>
        <time>2015-12-06T10:01:57.000Z</time>
      </trkpt>
      <trkpt lat="47.50211" lon="6.63624">
        <ele>461</ele>
        <time>2015-12-06T10:01:58.000Z</time>
      </trkpt>
      <trkpt lat="47.50211" lon="6.63617">
        <ele>461</ele>
        <time>2015-12-06T10:02:00.000Z</time>
      </trkpt>
      <trkpt lat="47.50211" lon="6.63614">
        <ele>461</ele>
        <time>2015-12-06T10:02:01.000Z</time>
      </trkpt>
      <trkpt lat="47.50212" lon="6.63609">
        <ele>461</ele>
        <time>2015-12-06T10:02:03.000Z</time>
      </trkpt>
      <trkpt lat="47.50212" lon="6.63606">
        <ele>462</ele>
        <time>2015-12-06T10:02:04.000Z</time>
      </trkpt>
      <trkpt lat="47.50212" lon="6.636">
        <ele>462</ele>
        <time>2015-12-06T10:02:06.000Z</time>
      </trkpt>
      <trkpt lat="47.50212" lon="6.63598">
        <ele>462</ele>
        <time>2015-12-06T10:02:07.000Z</time>
      </trkpt>
      <trkpt lat="47.50213" lon="6.63592">
        <ele>462</ele>
        <time>2015-12-06T10:02:10.000Z</time>
      </trkpt>
      <trkpt lat="47.50213" lon="6.63591">
        <ele>462</ele>
        <time>2015-12-06T10:02:11.000Z</time>
      </trkpt>
      <trkpt lat="47.50213" lon="6.63588">
        <ele>462</ele>
        <time>2015-12-06T10:02:13.000Z</time>
      </trkpt>
      <trkpt lat="47.50211" lon="6.63584">
        <ele>462</ele>
        <time>2015-12-06T10:02:14.000Z</time>
      </trkpt>
      <trkpt lat="47.50211" lon="6.6358">
        <ele>464</ele>
        <time>2015-12-06T10:02:15.000Z</time>
      </trkpt>
      <trkpt lat="47.50211" lon="6.63576">
        <ele>464</ele>
        <time>2015-12-06T10:02:16.000Z</time>
      </trkpt>
      <trkpt lat="47.50212" lon="6.63571">
        <ele>465</ele>
        <time>2015-12-06T10:02:18.000Z</time>
      </trkpt>
      <trkpt lat="47.50213" lon="6.63567">
        <ele>465</ele>
        <time>2015-12-06T10:02:19.000Z</time>
      </trkpt>
      <trkpt lat="47.50214" lon="6.63564">
        <ele>465</ele>
        <time>2015-12-06T10:02:20.000Z</time>
      </trkpt>
      <trkpt lat="47.50214" lon="6.6356">
        <ele>465</ele>
        <time>2015-12-06T10:02:21.000Z</time>
      </trkpt>
      <trkpt lat="47.50214" lon="6.63557">
        <ele>465</ele>
        <time>2015-12-06T10:02:22.000Z</time>
      </trkpt>
      <trkpt lat="47.50214" lon="6.63553">
        <ele>465</ele>
        <time>2015-12-06T10:02:23.000Z</time>
      </trkpt>
      <trkpt lat="47.50213" lon="6.63549">
        <ele>465</ele>
        <time>2015-12-06T10:02:24.000Z</time>
      </trkpt>
      <trkpt lat="47.50213" lon="6.63546">
        <ele>465</ele>
        <time>2015-12-06T10:02:25.001Z</time>
      </trkpt>
      <trkpt lat="47.50212" lon="6.63542">
        <ele>465</ele>
        <time>2015-12-06T10:02:26.000Z</time>
      </trkpt>
      <trkpt lat="47.50213" lon="6.63539">
        <ele>465</ele>
        <time>2015-12-06T10:02:27.000Z</time>
      </trkpt>
      <trkpt lat="47.50211" lon="6.63534">
        <ele>465</ele>
        <time>2015-12-06T10:02:29.000Z</time>
      </trkpt>
      <trkpt lat="47.50211" lon="6.63533">
        <ele>465</ele>
        <time>2015-12-06T10:02:29.999Z</time>
      </trkpt>
      <trkpt lat="47.50209" lon="6.63527">
        <ele>465</ele>
        <time>2015-12-06T10:02:32.000Z</time>
      </trkpt>
      <trkpt lat="47.50208" lon="6.63524">
        <ele>465</ele>
        <time>2015-12-06T10:02:33.000Z</time>
      </trkpt>
      <trkpt lat="47.50207" lon="6.63521">
        <ele>465</ele>
        <time>2015-12-06T10:02:34.000Z</time>
      </trkpt>
      <trkpt lat="47.50206" lon="6.63518">
        <ele>465</ele>
        <time>2015-12-06T10:02:35.000Z</time>
      </trkpt>
      <trkpt lat="47.50203" lon="6.63513">
        <ele>465</ele>
        <time>2015-12-06T10:02:37.001Z</time>
      </trkpt>
      <trkpt lat="47.50201" lon="6.6351">
        <ele>465</ele>
        <time>2015-12-06T10:02:38.000Z</time>
      </trkpt>
      <trkpt lat="47.502" lon="6.63508">
        <ele>464</ele>
        <time>2015-12-06T10:02:39.000Z</time>
      </trkpt>
      <trkpt lat="47.50198" lon="6.63505">
        <ele>464</ele>
        <time>2015-12-06T10:02:40.000Z</time>
      </trkpt>
      <trkpt lat="47.50197" lon="6.63501">
        <ele>464</ele>
        <time>2015-12-06T10:02:41.000Z</time>
      </trkpt>
      <trkpt lat="47.50195" lon="6.63498">
        <ele>466</ele>
        <time>2015-12-06T10:02:42.000Z</time>
      </trkpt>
      <trkpt lat="47.50193" lon="6.63494">
        <ele>466</ele>
        <time>2015-12-06T10:02:43.000Z</time>
      </trkpt>
      <trkpt lat="47.50191" lon="6.63491">
        <ele>466</ele>
        <time>2015-12-06T10:02:44.000Z</time>
      </trkpt>
      <trkpt lat="47.50189" lon="6.63487">
        <ele>466</ele>
        <time>2015-12-06T10:02:45.000Z</time>
      </trkpt>
      <trkpt lat="47.50187" lon="6.63483">
        <ele>466</ele>
        <time>2015-12-06T10:02:46.000Z</time>
      </trkpt>
      <trkpt lat="47.50185" lon="6.63479">
        <ele>466</ele>
        <time>2015-12-06T10:02:47.000Z</time>
      </trkpt>
      <trkpt lat="47.50183" lon="6.63475">
        <ele>466</ele>
        <time>2015-12-06T10:02:48.000Z</time>
      </trkpt>
      <trkpt lat="47.50181" lon="6.63471">
        <ele>466</ele>
        <time>2015-12-06T10:02:49.000Z</time>
      </trkpt>
      <trkpt lat="47.50178" lon="6.63468">
        <ele>466</ele>
        <time>2015-12-06T10:02:50.000Z</time>
      </trkpt>
      <trkpt lat="47.50176" lon="6.63465">
        <ele>466</ele>
        <time>2015-12-06T10:02:51.000Z</time>
      </trkpt>
      <trkpt lat="47.50174" lon="6.63461">
        <ele>466</ele>
        <time>2015-12-06T10:02:52.000Z</time>
      </trkpt>
      <trkpt lat="47.50172" lon="6.63458">
        <ele>467</ele>
        <time>2015-12-06T10:02:53.000Z</time>
      </trkpt>
      <trkpt lat="47.5017" lon="6.63454">
        <ele>467</ele>
        <time>2015-12-06T10:02:54.000Z</time>
      </trkpt>
      <trkpt lat="47.50168" lon="6.63451">
        <ele>467</ele>
        <time>2015-12-06T10:02:55.000Z</time>
      </trkpt>
      <trkpt lat="47.50167" lon="6.63448">
        <ele>463</ele>
        <time>2015-12-06T10:02:56.000Z</time>
      </trkpt>
      <trkpt lat="47.50165" lon="6.63445">
        <ele>464</ele>
        <time>2015-12-06T10:02:57.000Z</time>
      </trkpt>
      <trkpt lat="47.50163" lon="6.63442">
        <ele>464</ele>
        <time>2015-12-06T10:02:58.000Z</time>
      </trkpt>
      <trkpt lat="47.50162" lon="6.63439">
        <ele>464</ele>
        <time>2015-12-06T10:02:59.000Z</time>
      </trkpt>
      <trkpt lat="47.5016" lon="6.63436">
        <ele>464</ele>
        <time>2015-12-06T10:03:00.000Z</time>
      </trkpt>
      <trkpt lat="47.50159" lon="6.63433">
        <ele>464</ele>
        <time>2015-12-06T10:03:01.000Z</time>
      </trkpt>
      <trkpt lat="47.50157" lon="6.63429">
        <ele>464</ele>
        <time>2015-12-06T10:03:02.000Z</time>
      </trkpt>
      <trkpt lat="47.50155" lon="6.63424">
        <ele>465</ele>
        <time>2015-12-06T10:03:03.000Z</time>
      </trkpt>
      <trkpt lat="47.50152" lon="6.63419">
        <ele>465</ele>
        <time>2015-12-06T10:03:04.000Z</time>
      </trkpt>
      <trkpt lat="47.5015" lon="6.63414">
        <ele>466</ele>
        <time>2015-12-06T10:03:05.000Z</time>
      </trkpt>
      <trkpt lat="47.50147" lon="6.63411">
        <ele>466</ele>
        <time>2015-12-06T10:03:06.000Z</time>
      </trkpt>
      <trkpt lat="47.50145" lon="6.63409">
        <ele>466</ele>
        <time>2015-12-06T10:03:07.000Z</time>
      </trkpt>
      <trkpt lat="47.50143" lon="6.63406">
        <ele>466</ele>
        <time>2015-12-06T10:03:08.000Z</time>
      </trkpt>
      <trkpt lat="47.50141" lon="6.63404">
        <ele>466</ele>
        <time>2015-12-06T10:03:09.000Z</time>
      </trkpt>
      <trkpt lat="47.50139" lon="6.63401">
        <ele>466</ele>
        <time>2015-12-06T10:03:10.000Z</time>
      </trkpt>
      <trkpt lat="47.50137" lon="6.63398">
        <ele>466</ele>
        <time>2015-12-06T10:03:11.000Z</time>
      </trkpt>
      <trkpt lat="47.50136" lon="6.63395">
        <ele>466</ele>
        <time>2015-12-06T10:03:12.000Z</time>
      </trkpt>
      <trkpt lat="47.50134" lon="6.63392">
        <ele>466</ele>
        <time>2015-12-06T10:03:13.000Z</time>
      </trkpt>
      <trkpt lat="47.50132" lon="6.63388">
        <ele>466</ele>
        <time>2015-12-06T10:03:14.000Z</time>
      </trkpt>
      <trkpt lat="47.5013" lon="6.63384">
        <ele>466</ele>
        <time>2015-12-06T10:03:15.000Z</time>
      </trkpt>
      <trkpt lat="47.50128" lon="6.63379">
        <ele>466</ele>
        <time>2015-12-06T10:03:16.000Z</time>
      </trkpt>
      <trkpt lat="47.50127" lon="6.63374">
        <ele>466</ele>
        <time>2015-12-06T10:03:17.000Z</time>
      </trkpt>
      <trkpt lat="47.50125" lon="6.6337">
        <ele>466</ele>
        <time>2015-12-06T10:03:18.000Z</time>
      </trkpt>
      <trkpt lat="47.50123" lon="6.63366">
        <ele>466</ele>
        <time>2015-12-06T10:03:19.000Z</time>
      </trkpt>
      <trkpt lat="47.50121" lon="6.63362">
        <ele>466</ele>
        <time>2015-12-06T10:03:20.000Z</time>
      </trkpt>
      <trkpt lat="47.50119" lon="6.63357">
        <ele>466</ele>
        <time>2015-12-06T10:03:21.000Z</time>
      </trkpt>
      <trkpt lat="47.50116" lon="6.63353">
        <ele>466</ele>
        <time>2015-12-06T10:03:22.000Z</time>
      </trkpt>
      <trkpt lat="47.50114" lon="6.63349">
        <ele>466</ele>
        <time>2015-12-06T10:03:23.000Z</time>
      </trkpt>
      <trkpt lat="47.50112" lon="6.63345">
        <ele>466</ele>
        <time>2015-12-06T10:03:24.000Z</time>
      </trkpt>
      <trkpt lat="47.5011" lon="6.63342">
        <ele>466</ele>
        <time>2015-12-06T10:03:25.000Z</time>
      </trkpt>
      <trkpt lat="47.50108" lon="6.63338">
        <ele>466</ele>
        <time>2015-12-06T10:03:26.000Z</time>
      </trkpt>
      <trkpt lat="47.50105" lon="6.63334">
        <ele>466</ele>
        <time>2015-12-06T10:03:27.000Z</time>
      </trkpt>
      <trkpt lat="47.50103" lon="6.63331">
        <ele>466</ele>
        <time>2015-12-06T10:03:28.001Z</time>
      </trkpt>
      <trkpt lat="47.501" lon="6.63326">
        <ele>466</ele>
        <time>2015-12-06T10:03:29.000Z</time>
      </trkpt>
      <trkpt lat="47.50097" lon="6.63322">
        <ele>466</ele>
        <time>2015-12-06T10:03:30.000Z</time>
      </trkpt>
      <trkpt lat="47.50096" lon="6.63319">
        <ele>466</ele>
        <time>2015-12-06T10:03:31.000Z</time>
      </trkpt>
      <trkpt lat="47.50093" lon="6.63315">
        <ele>466</ele>
        <time>2015-12-06T10:03:32.002Z</time>
      </trkpt>
      <trkpt lat="47.50091" lon="6.63311">
        <ele>466</ele>
        <time>2015-12-06T10:03:33.000Z</time>
      </trkpt>
      <trkpt lat="47.50089" lon="6.63308">
        <ele>466</ele>
        <time>2015-12-06T10:03:34.000Z</time>
      </trkpt>
      <trkpt lat="47.50087" lon="6.63304">
        <ele>466</ele>
        <time>2015-12-06T10:03:35.000Z</time>
      </trkpt>
      <trkpt lat="47.50085" lon="6.63301">
        <ele>465</ele>
        <time>2015-12-06T10:03:36.000Z</time>
      </trkpt>
      <trkpt lat="47.50084" lon="6.63298">
        <ele>465</ele>
        <time>2015-12-06T10:03:37.000Z</time>
      </trkpt>
      <trkpt lat="47.50082" lon="6.63295">
        <ele>468</ele>
        <time>2015-12-06T10:03:38.000Z</time>
      </trkpt>
      <trkpt lat="47.50081" lon="6.63291">
        <ele>468</ele>
        <time>2015-12-06T10:03:39.000Z</time>
      </trkpt>
      <trkpt lat="47.50079" lon="6.63288">
        <ele>468</ele>
        <time>2015-12-06T10:03:40.000Z</time>
      </trkpt>
      <trkpt lat="47.50078" lon="6.63285">
        <ele>468</ele>
        <time>2015-12-06T10:03:41.000Z</time>
      </trkpt>
      <trkpt lat="47.50077" lon="6.63281">
        <ele>468</ele>
        <time>2015-12-06T10:03:42.000Z</time>
      </trkpt>
      <trkpt lat="47.50075" lon="6.63278">
        <ele>468</ele>
        <time>2015-12-06T10:03:43.000Z</time>
      </trkpt>
      <trkpt lat="47.50073" lon="6.63275">
        <ele>468</ele>
        <time>2015-12-06T10:03:44.000Z</time>
      </trkpt>
      <trkpt lat="47.50071" lon="6.63272">
        <ele>468</ele>
        <time>2015-12-06T10:03:45.000Z</time>
      </trkpt>
      <trkpt lat="47.5007" lon="6.63269">
        <ele>468</ele>
        <time>2015-12-06T10:03:46.000Z</time>
      </trkpt>
      <trkpt lat="47.50068" lon="6.63267">
        <ele>468</ele>
        <time>2015-12-06T10:03:47.000Z</time>
      </trkpt>
      <trkpt lat="47.50064" lon="6.63265">
        <ele>468</ele>
        <time>2015-12-06T10:03:56.000Z</time>
      </trkpt>
      <trkpt lat="47.50064" lon="6.63265">
        <ele>468</ele>
        <time>2015-12-06T10:03:57.000Z</time>
      </trkpt>
      <trkpt lat="47.50062" lon="6.63264">
        <ele>468</ele>
        <time>2015-12-06T10:04:23.001Z</time>
      </trkpt>
      <trkpt lat="47.50058" lon="6.63258">
        <ele>468</ele>
        <time>2015-12-06T10:04:24.000Z</time>
      </trkpt>
      <trkpt lat="47.50054" lon="6.63254">
        <ele>469</ele>
        <time>2015-12-06T10:04:25.000Z</time>
      </trkpt>
      <trkpt lat="47.50045" lon="6.63244">
        <ele>466</ele>
        <time>2015-12-06T10:04:26.000Z</time>
      </trkpt>
      <trkpt lat="47.50042" lon="6.63241">
        <ele>466</ele>
        <time>2015-12-06T10:04:27.000Z</time>
      </trkpt>
      <trkpt lat="47.50037" lon="6.63237">
        <ele>466</ele>
        <time>2015-12-06T10:04:28.000Z</time>
      </trkpt>
      <trkpt lat="47.50034" lon="6.63232">
        <ele>466</ele>
        <time>2015-12-06T10:04:29.000Z</time>
      </trkpt>
      <trkpt lat="47.50031" lon="6.63228">
        <ele>466</ele>
        <time>2015-12-06T10:04:30.000Z</time>
      </trkpt>
      <trkpt lat="47.50028" lon="6.63226">
        <ele>466</ele>
        <time>2015-12-06T10:04:31.000Z</time>
      </trkpt>
      <trkpt lat="47.50026" lon="6.63224">
        <ele>466</ele>
        <time>2015-12-06T10:04:34.000Z</time>
      </trkpt>
      <trkpt lat="47.50024" lon="6.63222">
        <ele>466</ele>
        <time>2015-12-06T10:04:35.000Z</time>
      </trkpt>
      <trkpt lat="47.50021" lon="6.63221">
        <ele>466</ele>
        <time>2015-12-06T10:04:38.000Z</time>
      </trkpt>
      <trkpt lat="47.5002" lon="6.6322">
        <ele>466</ele>
        <time>2015-12-06T10:04:39.000Z</time>
      </trkpt>
      <trkpt lat="47.50017" lon="6.63219">
        <ele>466</ele>
        <time>2015-12-06T10:04:41.000Z</time>
      </trkpt>
      <trkpt lat="47.50015" lon="6.63218">
        <ele>466</ele>
        <time>2015-12-06T10:04:42.000Z</time>
      </trkpt>
      <trkpt lat="47.50011" lon="6.63216">
        <ele>466</ele>
        <time>2015-12-06T10:04:45.000Z</time>
      </trkpt>
      <trkpt lat="47.5001" lon="6.63216">
        <ele>466</ele>
        <time>2015-12-06T10:04:46.000Z</time>
      </trkpt>
      <trkpt lat="47.50006" lon="6.63213">
        <ele>466</ele>
        <time>2015-12-06T10:04:48.000Z</time>
      </trkpt>
      <trkpt lat="47.50004" lon="6.63212">
        <ele>466</ele>
        <time>2015-12-06T10:04:49.000Z</time>
      </trkpt>
      <trkpt lat="47.5" lon="6.63209">
        <ele>466</ele>
        <time>2015-12-06T10:04:51.000Z</time>
      </trkpt>
      <trkpt lat="47.49999" lon="6.63207">
        <ele>470</ele>
        <time>2015-12-06T10:04:52.000Z</time>
      </trkpt>
      <trkpt lat="47.49996" lon="6.63202">
        <ele>469</ele>
        <time>2015-12-06T10:04:54.000Z</time>
      </trkpt>
      <trkpt lat="47.49993" lon="6.63199">
        <ele>469</ele>
        <time>2015-12-06T10:04:55.000Z</time>
      </trkpt>
      <trkpt lat="47.49991" lon="6.63197">
        <ele>469</ele>
        <time>2015-12-06T10:04:55.999Z</time>
      </trkpt>
      <trkpt lat="47.49988" lon="6.63196">
        <ele>469</ele>
        <time>2015-12-06T10:04:57.000Z</time>
      </trkpt>
      <trkpt lat="47.49986" lon="6.63193">
        <ele>469</ele>
        <time>2015-12-06T10:04:58.000Z</time>
      </trkpt>
      <trkpt lat="47.49983" lon="6.63191">
        <ele>469</ele>
        <time>2015-12-06T10:04:59.000Z</time>
      </trkpt>
      <trkpt lat="47.49981" lon="6.63189">
        <ele>469</ele>
        <time>2015-12-06T10:05:00.000Z</time>
      </trkpt>
      <trkpt lat="47.49978" lon="6.63188">
        <ele>469</ele>
        <time>2015-12-06T10:05:01.000Z</time>
      </trkpt>
      <trkpt lat="47.49975" lon="6.63186">
        <ele>469</ele>
        <time>2015-12-06T10:05:02.000Z</time>
      </trkpt>
      <trkpt lat="47.49973" lon="6.63184">
        <ele>469</ele>
        <time>2015-12-06T10:05:03.000Z</time>
      </trkpt>
      <trkpt lat="47.4997" lon="6.63181">
        <ele>469</ele>
        <time>2015-12-06T10:05:04.000Z</time>
      </trkpt>
      <trkpt lat="47.49968" lon="6.63178">
        <ele>469</ele>
        <time>2015-12-06T10:05:05.001Z</time>
      </trkpt>
      <trkpt lat="47.49965" lon="6.63177">
        <ele>469</ele>
        <time>2015-12-06T10:05:06.000Z</time>
      </trkpt>
      <trkpt lat="47.49962" lon="6.63174">
        <ele>469</ele>
        <time>2015-12-06T10:05:07.000Z</time>
      </trkpt>
      <trkpt lat="47.4996" lon="6.63171">
        <ele>469</ele>
        <time>2015-12-06T10:05:08.000Z</time>
      </trkpt>
      <trkpt lat="47.49956" lon="6.6317">
        <ele>469</ele>
        <time>2015-12-06T10:05:09.000Z</time>
      </trkpt>
      <trkpt lat="47.49954" lon="6.63167">
        <ele>469</ele>
        <time>2015-12-06T10:05:09.999Z</time>
      </trkpt>
      <trkpt lat="47.4995" lon="6.63167">
        <ele>470</ele>
        <time>2015-12-06T10:05:11.000Z</time>
      </trkpt>
      <trkpt lat="47.49948" lon="6.63166">
        <ele>464</ele>
        <time>2015-12-06T10:05:12.000Z</time>
      </trkpt>
      <trkpt lat="47.49944" lon="6.63166">
        <ele>464</ele>
        <time>2015-12-06T10:05:13.000Z</time>
      </trkpt>
      <trkpt lat="47.49941" lon="6.63166">
        <ele>464</ele>
        <time>2015-12-06T10:05:14.000Z</time>
      </trkpt>
      <trkpt lat="47.49937" lon="6.63166">
        <ele>465</ele>
        <time>2015-12-06T10:05:15.000Z</time>
      </trkpt>
      <trkpt lat="47.49934" lon="6.63165">
        <ele>465</ele>
        <time>2015-12-06T10:05:16.000Z</time>
      </trkpt>
      <trkpt lat="47.49931" lon="6.63164">
        <ele>466</ele>
        <time>2015-12-06T10:05:17.001Z</time>
      </trkpt>
      <trkpt lat="47.49929" lon="6.63162">
        <ele>466</ele>
        <time>2015-12-06T10:05:18.000Z</time>
      </trkpt>
      <trkpt lat="47.49926" lon="6.63161">
        <ele>467</ele>
        <time>2015-12-06T10:05:19.000Z</time>
      </trkpt>
      <trkpt lat="47.49923" lon="6.63161">
        <ele>467</ele>
        <time>2015-12-06T10:05:20.000Z</time>
      </trkpt>
      <trkpt lat="47.4992" lon="6.6316">
        <ele>468</ele>
        <time>2015-12-06T10:05:21.000Z</time>
      </trkpt>
      <trkpt lat="47.49918" lon="6.63159">
        <ele>467</ele>
        <time>2015-12-06T10:05:22.000Z</time>
      </trkpt>
      <trkpt lat="47.49916" lon="6.63158">
        <ele>468</ele>
        <time>2015-12-06T10:05:23.000Z</time>
      </trkpt>
      <trkpt lat="47.49911" lon="6.63156">
        <ele>468</ele>
        <time>2015-12-06T10:05:25.000Z</time>
      </trkpt>
      <trkpt lat="47.49909" lon="6.63156">
        <ele>468</ele>
        <time>2015-12-06T10:05:26.000Z</time>
      </trkpt>
      <trkpt lat="47.49906" lon="6.63155">
        <ele>467</ele>
        <time>2015-12-06T10:05:27.000Z</time>
      </trkpt>
      <trkpt lat="47.49904" lon="6.63154">
        <ele>467</ele>
        <time>2015-12-06T10:05:28.000Z</time>
      </trkpt>
      <trkpt lat="47.49901" lon="6.63153">
        <ele>467</ele>
        <time>2015-12-06T10:05:29.000Z</time>
      </trkpt>
      <trkpt lat="47.49899" lon="6.63152">
        <ele>467</ele>
        <time>2015-12-06T10:05:30.000Z</time>
      </trkpt>
      <trkpt lat="47.49894" lon="6.6315">
        <ele>466</ele>
        <time>2015-12-06T10:05:32.000Z</time>
      </trkpt>
      <trkpt lat="47.49892" lon="6.6315">
        <ele>466</ele>
        <time>2015-12-06T10:05:33.000Z</time>
      </trkpt>
      <trkpt lat="47.49889" lon="6.63149">
        <ele>466</ele>
        <time>2015-12-06T10:05:35.000Z</time>
      </trkpt>
      <trkpt lat="47.49886" lon="6.63148">
        <ele>466</ele>
        <time>2015-12-06T10:05:36.000Z</time>
      </trkpt>
      <trkpt lat="47.49882" lon="6.63149">
        <ele>466</ele>
        <time>2015-12-06T10:05:38.000Z</time>
      </trkpt>
      <trkpt lat="47.4988" lon="6.6315">
        <ele>466</ele>
        <time>2015-12-06T10:05:39.000Z</time>
      </trkpt>
      <trkpt lat="47.49879" lon="6.63151">
        <ele>466</ele>
        <time>2015-12-06T10:05:40.000Z</time>
      </trkpt>
      <trkpt lat="47.49876" lon="6.63153">
        <ele>466</ele>
        <time>2015-12-06T10:05:41.000Z</time>
      </trkpt>
      <trkpt lat="47.49874" lon="6.63156">
        <ele>466</ele>
        <time>2015-12-06T10:05:42.000Z</time>
      </trkpt>
      <trkpt lat="47.49872" lon="6.63157">
        <ele>466</ele>
        <time>2015-12-06T10:05:43.000Z</time>
      </trkpt>
      <trkpt lat="47.4987" lon="6.63158">
        <ele>466</ele>
        <time>2015-12-06T10:05:44.000Z</time>
      </trkpt>
      <trkpt lat="47.49867" lon="6.63159">
        <ele>466</ele>
        <time>2015-12-06T10:05:45.000Z</time>
      </trkpt>
      <trkpt lat="47.49865" lon="6.63158">
        <ele>466</ele>
        <time>2015-12-06T10:05:46.000Z</time>
      </trkpt>
      <trkpt lat="47.49862" lon="6.63157">
        <ele>466</ele>
        <time>2015-12-06T10:05:47.000Z</time>
      </trkpt>
      <trkpt lat="47.4986" lon="6.63155">
        <ele>466</ele>
        <time>2015-12-06T10:05:48.000Z</time>
      </trkpt>
      <trkpt lat="47.49857" lon="6.63153">
        <ele>466</ele>
        <time>2015-12-06T10:05:49.000Z</time>
      </trkpt>
      <trkpt lat="47.49855" lon="6.63152">
        <ele>466</ele>
        <time>2015-12-06T10:05:50.000Z</time>
      </trkpt>
      <trkpt lat="47.49853" lon="6.6315">
        <ele>466</ele>
        <time>2015-12-06T10:05:51.000Z</time>
      </trkpt>
      <trkpt lat="47.49851" lon="6.63148">
        <ele>466</ele>
        <time>2015-12-06T10:05:52.000Z</time>
      </trkpt>
      <trkpt lat="47.49848" lon="6.63147">
        <ele>466</ele>
        <time>2015-12-06T10:05:53.000Z</time>
      </trkpt>
      <trkpt lat="47.49846" lon="6.63146">
        <ele>466</ele>
        <time>2015-12-06T10:05:54.000Z</time>
      </trkpt>
      <trkpt lat="47.49844" lon="6.63145">
        <ele>466</ele>
        <time>2015-12-06T10:05:55.000Z</time>
      </trkpt>
      <trkpt lat="47.4984" lon="6.63145">
        <ele>466</ele>
        <time>2015-12-06T10:05:57.000Z</time>
      </trkpt>
      <trkpt lat="47.49839" lon="6.63144">
        <ele>466</ele>
        <time>2015-12-06T10:05:58.000Z</time>
      </trkpt>
      <trkpt lat="47.49835" lon="6.63143">
        <ele>466</ele>
        <time>2015-12-06T10:06:00.000Z</time>
      </trkpt>
      <trkpt lat="47.49833" lon="6.63142">
        <ele>466</ele>
        <time>2015-12-06T10:06:01.000Z</time>
      </trkpt>
      <trkpt lat="47.49831" lon="6.63142">
        <ele>466</ele>
        <time>2015-12-06T10:06:02.000Z</time>
      </trkpt>
      <trkpt lat="47.49828" lon="6.63141">
        <ele>465</ele>
        <time>2015-12-06T10:06:03.000Z</time>
      </trkpt>
      <trkpt lat="47.49826" lon="6.6314">
        <ele>465</ele>
        <time>2015-12-06T10:06:04.000Z</time>
      </trkpt>
      <trkpt lat="47.49823" lon="6.63139">
        <ele>465</ele>
        <time>2015-12-06T10:06:05.000Z</time>
      </trkpt>
      <trkpt lat="47.49821" lon="6.63138">
        <ele>465</ele>
        <time>2015-12-06T10:06:06.000Z</time>
      </trkpt>
      <trkpt lat="47.49819" lon="6.63137">
        <ele>465</ele>
        <time>2015-12-06T10:06:07.000Z</time>
      </trkpt>
      <trkpt lat="47.49817" lon="6.63136">
        <ele>465</ele>
        <time>2015-12-06T10:06:08.000Z</time>
      </trkpt>
      <trkpt lat="47.49814" lon="6.63136">
        <ele>465</ele>
        <time>2015-12-06T10:06:09.000Z</time>
      </trkpt>
      <trkpt lat="47.49811" lon="6.63134">
        <ele>465</ele>
        <time>2015-12-06T10:06:10.000Z</time>
      </trkpt>
      <trkpt lat="47.49809" lon="6.63133">
        <ele>464</ele>
        <time>2015-12-06T10:06:11.000Z</time>
      </trkpt>
      <trkpt lat="47.49806" lon="6.63131">
        <ele>464</ele>
        <time>2015-12-06T10:06:12.000Z</time>
      </trkpt>
      <trkpt lat="47.49803" lon="6.6313">
        <ele>464</ele>
        <time>2015-12-06T10:06:13.000Z</time>
      </trkpt>
      <trkpt lat="47.498" lon="6.63129">
        <ele>464</ele>
        <time>2015-12-06T10:06:14.000Z</time>
      </trkpt>
      <trkpt lat="47.49798" lon="6.63128">
        <ele>464</ele>
        <time>2015-12-06T10:06:15.000Z</time>
      </trkpt>
      <trkpt lat="47.49795" lon="6.63127">
        <ele>464</ele>
        <time>2015-12-06T10:06:16.000Z</time>
      </trkpt>
      <trkpt lat="47.49791" lon="6.63126">
        <ele>464</ele>
        <time>2015-12-06T10:06:17.000Z</time>
      </trkpt>
      <trkpt lat="47.49788" lon="6.63124">
        <ele>464</ele>
        <time>2015-12-06T10:06:18.000Z</time>
      </trkpt>
      <trkpt lat="47.49784" lon="6.63123">
        <ele>464</ele>
        <time>2015-12-06T10:06:19.000Z</time>
      </trkpt>
      <trkpt lat="47.4978" lon="6.63122">
        <ele>463</ele>
        <time>2015-12-06T10:06:20.000Z</time>
      </trkpt>
      <trkpt lat="47.49776" lon="6.6312">
        <ele>463</ele>
        <time>2015-12-06T10:06:21.000Z</time>
      </trkpt>
      <trkpt lat="47.49772" lon="6.63118">
        <ele>463</ele>
        <time>2015-12-06T10:06:22.000Z</time>
      </trkpt>
      <trkpt lat="47.49767" lon="6.63116">
        <ele>463</ele>
        <time>2015-12-06T10:06:23.000Z</time>
      </trkpt>
      <trkpt lat="47.49761" lon="6.63114">
        <ele>463</ele>
        <time>2015-12-06T10:06:24.000Z</time>
      </trkpt>
      <trkpt lat="47.49755" lon="6.63112">
        <ele>463</ele>
        <time>2015-12-06T10:06:25.000Z</time>
      </trkpt>
      <trkpt lat="47.49748" lon="6.6311">
        <ele>462</ele>
        <time>2015-12-06T10:06:26.000Z</time>
      </trkpt>
      <trkpt lat="47.4973" lon="6.6311">
        <ele>463</ele>
        <time>2015-12-06T10:06:27.000Z</time>
      </trkpt>
      <trkpt lat="47.49724" lon="6.63108">
        <ele>463</ele>
        <time>2015-12-06T10:06:28.000Z</time>
      </trkpt>
      <trkpt lat="47.49719" lon="6.63107">
        <ele>463</ele>
        <time>2015-12-06T10:06:29.000Z</time>
      </trkpt>
      <trkpt lat="47.49714" lon="6.63105">
        <ele>463</ele>
        <time>2015-12-06T10:06:30.000Z</time>
      </trkpt>
      <trkpt lat="47.4971" lon="6.63103">
        <ele>463</ele>
        <time>2015-12-06T10:06:31.000Z</time>
      </trkpt>
      <trkpt lat="47.497" lon="6.63098">
        <ele>463</ele>
        <time>2015-12-06T10:06:33.000Z</time>
      </trkpt>
      <trkpt lat="47.49692" lon="6.63095">
        <ele>463</ele>
        <time>2015-12-06T10:06:34.000Z</time>
      </trkpt>
      <trkpt lat="47.49688" lon="6.63092">
        <ele>464</ele>
        <time>2015-12-06T10:06:35.000Z</time>
      </trkpt>
      <trkpt lat="47.49682" lon="6.63091">
        <ele>464</ele>
        <time>2015-12-06T10:06:36.000Z</time>
      </trkpt>
      <trkpt lat="47.49678" lon="6.63087">
        <ele>464</ele>
        <time>2015-12-06T10:06:37.000Z</time>
      </trkpt>
      <trkpt lat="47.49674" lon="6.63083">
        <ele>463</ele>
        <time>2015-12-06T10:06:38.000Z</time>
      </trkpt>
      <trkpt lat="47.4967" lon="6.6308">
        <ele>464</ele>
        <time>2015-12-06T10:06:39.000Z</time>
      </trkpt>
      <trkpt lat="47.49665" lon="6.63077">
        <ele>463</ele>
        <time>2015-12-06T10:06:40.000Z</time>
      </trkpt>
      <trkpt lat="47.49661" lon="6.63074">
        <ele>463</ele>
        <time>2015-12-06T10:06:41.000Z</time>
      </trkpt>
      <trkpt lat="47.49656" lon="6.63071">
        <ele>462</ele>
        <time>2015-12-06T10:06:42.000Z</time>
      </trkpt>
      <trkpt lat="47.4965" lon="6.63068">
        <ele>461</ele>
        <time>2015-12-06T10:06:43.000Z</time>
      </trkpt>
      <trkpt lat="47.49645" lon="6.63065">
        <ele>461</ele>
        <time>2015-12-06T10:06:44.000Z</time>
      </trkpt>
      <trkpt lat="47.49639" lon="6.63062">
        <ele>461</ele>
        <time>2015-12-06T10:06:45.000Z</time>
      </trkpt>
      <trkpt lat="47.49633" lon="6.6306">
        <ele>460</ele>
        <time>2015-12-06T10:06:46.000Z</time>
      </trkpt>
      <trkpt lat="47.49628" lon="6.63059">
        <ele>460</ele>
        <time>2015-12-06T10:06:47.000Z</time>
      </trkpt>
      <trkpt lat="47.49622" lon="6.63057">
        <ele>460</ele>
        <time>2015-12-06T10:06:48.000Z</time>
      </trkpt>
      <trkpt lat="47.49618" lon="6.63057">
        <ele>460</ele>
        <time>2015-12-06T10:06:49.000Z</time>
      </trkpt>
      <trkpt lat="47.49613" lon="6.63057">
        <ele>460</ele>
        <time>2015-12-06T10:06:50.000Z</time>
      </trkpt>
      <trkpt lat="47.49609" lon="6.63057">
        <ele>460</ele>
        <time>2015-12-06T10:06:51.000Z</time>
      </trkpt>
      <trkpt lat="47.49605" lon="6.63058">
        <ele>460</ele>
        <time>2015-12-06T10:06:52.000Z</time>
      </trkpt>
      <trkpt lat="47.49601" lon="6.63059">
        <ele>461</ele>
        <time>2015-12-06T10:06:53.000Z</time>
      </trkpt>
      <trkpt lat="47.49597" lon="6.6306">
        <ele>461</ele>
        <time>2015-12-06T10:06:54.000Z</time>
      </trkpt>
      <trkpt lat="47.49594" lon="6.63062">
        <ele>461</ele>
        <time>2015-12-06T10:06:55.000Z</time>
      </trkpt>
      <trkpt lat="47.49592" lon="6.63064">
        <ele>462</ele>
        <time>2015-12-06T10:06:56.000Z</time>
      </trkpt>
      <trkpt lat="47.4959" lon="6.63067">
        <ele>462</ele>
        <time>2015-12-06T10:06:57.000Z</time>
      </trkpt>
      <trkpt lat="47.49587" lon="6.63069">
        <ele>462</ele>
        <time>2015-12-06T10:06:58.000Z</time>
      </trkpt>
      <trkpt lat="47.49584" lon="6.6307">
        <ele>463</ele>
        <time>2015-12-06T10:06:59.000Z</time>
      </trkpt>
      <trkpt lat="47.49581" lon="6.6307">
        <ele>462</ele>
        <time>2015-12-06T10:07:00.000Z</time>
      </trkpt>
      <trkpt lat="47.49577" lon="6.63069">
        <ele>462</ele>
        <time>2015-12-06T10:07:01.000Z</time>
      </trkpt>
      <trkpt lat="47.49574" lon="6.63067">
        <ele>462</ele>
        <time>2015-12-06T10:07:02.000Z</time>
      </trkpt>
      <trkpt lat="47.4957" lon="6.63065">
        <ele>461</ele>
        <time>2015-12-06T10:07:03.000Z</time>
      </trkpt>
      <trkpt lat="47.49567" lon="6.63063">
        <ele>461</ele>
        <time>2015-12-06T10:07:04.000Z</time>
      </trkpt>
      <trkpt lat="47.49563" lon="6.6306">
        <ele>461</ele>
        <time>2015-12-06T10:07:05.000Z</time>
      </trkpt>
      <trkpt lat="47.49559" lon="6.63058">
        <ele>460</ele>
        <time>2015-12-06T10:07:06.000Z</time>
      </trkpt>
      <trkpt lat="47.49555" lon="6.63055">
        <ele>460</ele>
        <time>2015-12-06T10:07:07.000Z</time>
      </trkpt>
      <trkpt lat="47.4955" lon="6.63052">
        <ele>460</ele>
        <time>2015-12-06T10:07:08.000Z</time>
      </trkpt>
      <trkpt lat="47.49547" lon="6.63049">
        <ele>460</ele>
        <time>2015-12-06T10:07:09.000Z</time>
      </trkpt>
      <trkpt lat="47.49533" lon="6.63041">
        <ele>459</ele>
        <time>2015-12-06T10:07:10.000Z</time>
      </trkpt>
      <trkpt lat="47.49529" lon="6.63038">
        <ele>459</ele>
        <time>2015-12-06T10:07:11.000Z</time>
      </trkpt>
      <trkpt lat="47.49525" lon="6.63034">
        <ele>459</ele>
        <time>2015-12-06T10:07:12.000Z</time>
      </trkpt>
      <trkpt lat="47.49523" lon="6.63036">
        <ele>459</ele>
        <time>2015-12-06T10:07:13.000Z</time>
      </trkpt>
      <trkpt lat="47.49518" lon="6.63032">
        <ele>459</ele>
        <time>2015-12-06T10:07:14.000Z</time>
      </trkpt>
      <trkpt lat="47.49514" lon="6.6303">
        <ele>459</ele>
        <time>2015-12-06T10:07:15.000Z</time>
      </trkpt>
      <trkpt lat="47.4951" lon="6.63027">
        <ele>458</ele>
        <time>2015-12-06T10:07:16.000Z</time>
      </trkpt>
      <trkpt lat="47.49506" lon="6.63024">
        <ele>458</ele>
        <time>2015-12-06T10:07:17.000Z</time>
      </trkpt>
      <trkpt lat="47.49503" lon="6.63021">
        <ele>458</ele>
        <time>2015-12-06T10:07:18.000Z</time>
      </trkpt>
      <trkpt lat="47.49499" lon="6.63019">
        <ele>456</ele>
        <time>2015-12-06T10:07:19.000Z</time>
      </trkpt>
      <trkpt lat="47.49496" lon="6.63016">
        <ele>456</ele>
        <time>2015-12-06T10:07:20.000Z</time>
      </trkpt>
      <trkpt lat="47.49492" lon="6.63014">
        <ele>456</ele>
        <time>2015-12-06T10:07:21.000Z</time>
      </trkpt>
      <trkpt lat="47.49485" lon="6.6301">
        <ele>456</ele>
        <time>2015-12-06T10:07:22.000Z</time>
      </trkpt>
      <trkpt lat="47.49479" lon="6.63009">
        <ele>456</ele>
        <time>2015-12-06T10:07:23.000Z</time>
      </trkpt>
      <trkpt lat="47.49473" lon="6.63005">
        <ele>456</ele>
        <time>2015-12-06T10:07:24.000Z</time>
      </trkpt>
      <trkpt lat="47.49466" lon="6.63001">
        <ele>456</ele>
        <time>2015-12-06T10:07:25.000Z</time>
      </trkpt>
      <trkpt lat="47.4946" lon="6.62998">
        <ele>451</ele>
        <time>2015-12-06T10:07:26.000Z</time>
      </trkpt>
      <trkpt lat="47.49453" lon="6.62994">
        <ele>451</ele>
        <time>2015-12-06T10:07:27.000Z</time>
      </trkpt>
      <trkpt lat="47.49447" lon="6.62989">
        <ele>451</ele>
        <time>2015-12-06T10:07:28.000Z</time>
      </trkpt>
      <trkpt lat="47.49438" lon="6.62988">
        <ele>451</ele>
        <time>2015-12-06T10:07:29.000Z</time>
      </trkpt>
      <trkpt lat="47.4943" lon="6.62986">
        <ele>451</ele>
        <time>2015-12-06T10:07:30.000Z</time>
      </trkpt>
      <trkpt lat="47.49422" lon="6.62982">
        <ele>451</ele>
        <time>2015-12-06T10:07:31.000Z</time>
      </trkpt>
      <trkpt lat="47.49415" lon="6.62974">
        <ele>450</ele>
        <time>2015-12-06T10:07:32.000Z</time>
      </trkpt>
      <trkpt lat="47.49406" lon="6.62971">
        <ele>450</ele>
        <time>2015-12-06T10:07:33.000Z</time>
      </trkpt>
      <trkpt lat="47.49397" lon="6.62968">
        <ele>449</ele>
        <time>2015-12-06T10:07:34.000Z</time>
      </trkpt>
      <trkpt lat="47.49389" lon="6.62968">
        <ele>449</ele>
        <time>2015-12-06T10:07:35.000Z</time>
      </trkpt>
      <trkpt lat="47.49381" lon="6.62964">
        <ele>449</ele>
        <time>2015-12-06T10:07:36.000Z</time>
      </trkpt>
      <trkpt lat="47.49374" lon="6.6296">
        <ele>449</ele>
        <time>2015-12-06T10:07:37.000Z</time>
      </trkpt>
      <trkpt lat="47.49367" lon="6.62957">
        <ele>448</ele>
        <time>2015-12-06T10:07:38.000Z</time>
      </trkpt>
      <trkpt lat="47.4936" lon="6.62953">
        <ele>448</ele>
        <time>2015-12-06T10:07:39.000Z</time>
      </trkpt>
      <trkpt lat="47.49353" lon="6.6295">
        <ele>448</ele>
        <time>2015-12-06T10:07:40.000Z</time>
      </trkpt>
      <trkpt lat="47.49346" lon="6.62949">
        <ele>448</ele>
        <time>2015-12-06T10:07:41.000Z</time>
      </trkpt>
      <trkpt lat="47.49341" lon="6.62945">
        <ele>447</ele>
        <time>2015-12-06T10:07:42.000Z</time>
      </trkpt>
      <trkpt lat="47.49334" lon="6.6294">
        <ele>447</ele>
        <time>2015-12-06T10:07:43.000Z</time>
      </trkpt>
      <trkpt lat="47.49327" lon="6.62936">
        <ele>445</ele>
        <time>2015-12-06T10:07:44.000Z</time>
      </trkpt>
      <trkpt lat="47.4932" lon="6.62932">
        <ele>445</ele>
        <time>2015-12-06T10:07:45.000Z</time>
      </trkpt>
      <trkpt lat="47.49313" lon="6.62928">
        <ele>445</ele>
        <time>2015-12-06T10:07:46.000Z</time>
      </trkpt>
      <trkpt lat="47.49306" lon="6.62926">
        <ele>445</ele>
        <time>2015-12-06T10:07:47.000Z</time>
      </trkpt>
      <trkpt lat="47.49298" lon="6.62922">
        <ele>445</ele>
        <time>2015-12-06T10:07:48.000Z</time>
      </trkpt>
      <trkpt lat="47.49291" lon="6.62919">
        <ele>445</ele>
        <time>2015-12-06T10:07:49.000Z</time>
      </trkpt>
      <trkpt lat="47.49283" lon="6.62916">
        <ele>441</ele>
        <time>2015-12-06T10:07:50.000Z</time>
      </trkpt>
      <trkpt lat="47.49277" lon="6.62909">
        <ele>441</ele>
        <time>2015-12-06T10:07:51.000Z</time>
      </trkpt>
      <trkpt lat="47.49268" lon="6.62911">
        <ele>441</ele>
        <time>2015-12-06T10:07:52.000Z</time>
      </trkpt>
      <trkpt lat="47.49261" lon="6.62909">
        <ele>441</ele>
        <time>2015-12-06T10:07:53.000Z</time>
      </trkpt>
      <trkpt lat="47.49254" lon="6.62905">
        <ele>441</ele>
        <time>2015-12-06T10:07:54.000Z</time>
      </trkpt>
      <trkpt lat="47.49248" lon="6.62902">
        <ele>440</ele>
        <time>2015-12-06T10:07:55.000Z</time>
      </trkpt>
      <trkpt lat="47.49242" lon="6.62899">
        <ele>439</ele>
        <time>2015-12-06T10:07:56.000Z</time>
      </trkpt>
      <trkpt lat="47.49236" lon="6.62895">
        <ele>439</ele>
        <time>2015-12-06T10:07:57.000Z</time>
      </trkpt>
      <trkpt lat="47.49229" lon="6.62893">
        <ele>438</ele>
        <time>2015-12-06T10:07:58.000Z</time>
      </trkpt>
      <trkpt lat="47.49224" lon="6.62889">
        <ele>438</ele>
        <time>2015-12-06T10:07:59.000Z</time>
      </trkpt>
      <trkpt lat="47.49216" lon="6.62886">
        <ele>437</ele>
        <time>2015-12-06T10:08:00.000Z</time>
      </trkpt>
      <trkpt lat="47.49209" lon="6.62882">
        <ele>437</ele>
        <time>2015-12-06T10:08:01.000Z</time>
      </trkpt>
      <trkpt lat="47.49202" lon="6.62879">
        <ele>436</ele>
        <time>2015-12-06T10:08:02.000Z</time>
      </trkpt>
      <trkpt lat="47.49195" lon="6.62876">
        <ele>436</ele>
        <time>2015-12-06T10:08:03.000Z</time>
      </trkpt>
      <trkpt lat="47.49188" lon="6.62874">
        <ele>436</ele>
        <time>2015-12-06T10:08:04.000Z</time>
      </trkpt>
      <trkpt lat="47.4918" lon="6.62873">
        <ele>436</ele>
        <time>2015-12-06T10:08:05.000Z</time>
      </trkpt>
      <trkpt lat="47.49173" lon="6.62872">
        <ele>435</ele>
        <time>2015-12-06T10:08:06.000Z</time>
      </trkpt>
      <trkpt lat="47.49165" lon="6.62874">
        <ele>432</ele>
        <time>2015-12-06T10:08:07.000Z</time>
      </trkpt>
      <trkpt lat="47.49159" lon="6.62874">
        <ele>432</ele>
        <time>2015-12-06T10:08:08.000Z</time>
      </trkpt>
      <trkpt lat="47.49155" lon="6.62872">
        <ele>432</ele>
        <time>2015-12-06T10:08:09.000Z</time>
      </trkpt>
      <trkpt lat="47.49149" lon="6.62874">
        <ele>432</ele>
        <time>2015-12-06T10:08:10.000Z</time>
      </trkpt>
      <trkpt lat="47.49144" lon="6.62874">
        <ele>432</ele>
        <time>2015-12-06T10:08:11.000Z</time>
      </trkpt>
      <trkpt lat="47.49139" lon="6.62873">
        <ele>432</ele>
        <time>2015-12-06T10:08:12.000Z</time>
      </trkpt>
      <trkpt lat="47.49136" lon="6.62873">
        <ele>432</ele>
        <time>2015-12-06T10:08:13.000Z</time>
      </trkpt>
      <trkpt lat="47.49131" lon="6.62871">
        <ele>432</ele>
        <time>2015-12-06T10:08:14.000Z</time>
      </trkpt>
      <trkpt lat="47.49127" lon="6.6287">
        <ele>432</ele>
        <time>2015-12-06T10:08:15.000Z</time>
      </trkpt>
      <trkpt lat="47.49122" lon="6.62865">
        <ele>432</ele>
        <time>2015-12-06T10:08:16.000Z</time>
      </trkpt>
      <trkpt lat="47.49118" lon="6.62862">
        <ele>432</ele>
        <time>2015-12-06T10:08:17.000Z</time>
      </trkpt>
      <trkpt lat="47.49113" lon="6.62863">
        <ele>431</ele>
        <time>2015-12-06T10:08:18.000Z</time>
      </trkpt>
      <trkpt lat="47.49109" lon="6.62863">
        <ele>431</ele>
        <time>2015-12-06T10:08:19.000Z</time>
      </trkpt>
      <trkpt lat="47.49104" lon="6.62863">
        <ele>431</ele>
        <time>2015-12-06T10:08:20.000Z</time>
      </trkpt>
      <trkpt lat="47.49099" lon="6.62862">
        <ele>431</ele>
        <time>2015-12-06T10:08:21.000Z</time>
      </trkpt>
      <trkpt lat="47.49094" lon="6.62863">
        <ele>431</ele>
        <time>2015-12-06T10:08:22.000Z</time>
      </trkpt>
      <trkpt lat="47.49087" lon="6.62864">
        <ele>431</ele>
        <time>2015-12-06T10:08:23.000Z</time>
      </trkpt>
      <trkpt lat="47.49081" lon="6.62865">
        <ele>429</ele>
        <time>2015-12-06T10:08:24.000Z</time>
      </trkpt>
      <trkpt lat="47.49076" lon="6.6286">
        <ele>430</ele>
        <time>2015-12-06T10:08:25.000Z</time>
      </trkpt>
      <trkpt lat="47.49069" lon="6.62858">
        <ele>429</ele>
        <time>2015-12-06T10:08:26.000Z</time>
      </trkpt>
      <trkpt lat="47.49062" lon="6.62857">
        <ele>429</ele>
        <time>2015-12-06T10:08:27.000Z</time>
      </trkpt>
      <trkpt lat="47.49057" lon="6.62857">
        <ele>429</ele>
        <time>2015-12-06T10:08:28.000Z</time>
      </trkpt>
      <trkpt lat="47.49052" lon="6.62857">
        <ele>429</ele>
        <time>2015-12-06T10:08:29.000Z</time>
      </trkpt>
      <trkpt lat="47.49048" lon="6.62856">
        <ele>429</ele>
        <time>2015-12-06T10:08:30.001Z</time>
      </trkpt>
      <trkpt lat="47.49047" lon="6.62855">
        <ele>429</ele>
        <time>2015-12-06T10:08:31.000Z</time>
      </trkpt>
      <trkpt lat="47.49047" lon="6.62861">
        <ele>429</ele>
        <time>2015-12-06T10:09:36.000Z</time>
      </trkpt>
      <trkpt lat="47.49047" lon="6.62862">
        <ele>429</ele>
        <time>2015-12-06T10:09:37.000Z</time>
      </trkpt>
      <trkpt lat="47.49049" lon="6.62865">
        <ele>429</ele>
        <time>2015-12-06T10:09:38.000Z</time>
      </trkpt>
      <trkpt lat="47.4905" lon="6.62869">
        <ele>429</ele>
        <time>2015-12-06T10:09:39.000Z</time>
      </trkpt>
      <trkpt lat="47.49052" lon="6.62874">
        <ele>429</ele>
        <time>2015-12-06T10:09:40.000Z</time>
      </trkpt>
      <trkpt lat="47.49053" lon="6.62879">
        <ele>429</ele>
        <time>2015-12-06T10:09:41.000Z</time>
      </trkpt>
      <trkpt lat="47.49053" lon="6.62884">
        <ele>428</ele>
        <time>2015-12-06T10:09:42.000Z</time>
      </trkpt>
      <trkpt lat="47.49054" lon="6.62889">
        <ele>428</ele>
        <time>2015-12-06T10:09:43.000Z</time>
      </trkpt>
      <trkpt lat="47.49055" lon="6.62894">
        <ele>428</ele>
        <time>2015-12-06T10:09:44.000Z</time>
      </trkpt>
      <trkpt lat="47.49056" lon="6.62899">
        <ele>428</ele>
        <time>2015-12-06T10:09:45.000Z</time>
      </trkpt>
      <trkpt lat="47.49058" lon="6.62904">
        <ele>428</ele>
        <time>2015-12-06T10:09:46.000Z</time>
      </trkpt>
      <trkpt lat="47.49059" lon="6.62908">
        <ele>428</ele>
        <time>2015-12-06T10:09:47.000Z</time>
      </trkpt>
      <trkpt lat="47.49059" lon="6.62913">
        <ele>428</ele>
        <time>2015-12-06T10:09:48.000Z</time>
      </trkpt>
      <trkpt lat="47.4906" lon="6.62917">
        <ele>428</ele>
        <time>2015-12-06T10:09:49.000Z</time>
      </trkpt>
      <trkpt lat="47.4906" lon="6.6292">
        <ele>426</ele>
        <time>2015-12-06T10:09:50.000Z</time>
      </trkpt>
      <trkpt lat="47.4906" lon="6.62924">
        <ele>426</ele>
        <time>2015-12-06T10:09:51.000Z</time>
      </trkpt>
      <trkpt lat="47.49061" lon="6.62928">
        <ele>426</ele>
        <time>2015-12-06T10:09:52.000Z</time>
      </trkpt>
      <trkpt lat="47.49063" lon="6.62931">
        <ele>426</ele>
        <time>2015-12-06T10:09:53.000Z</time>
      </trkpt>
      <trkpt lat="47.49064" lon="6.62935">
        <ele>426</ele>
        <time>2015-12-06T10:09:54.000Z</time>
      </trkpt>
      <trkpt lat="47.49065" lon="6.62939">
        <ele>426</ele>
        <time>2015-12-06T10:09:55.000Z</time>
      </trkpt>
      <trkpt lat="47.49065" lon="6.62943">
        <ele>426</ele>
        <time>2015-12-06T10:09:56.000Z</time>
      </trkpt>
      <trkpt lat="47.49066" lon="6.62948">
        <ele>426</ele>
        <time>2015-12-06T10:09:57.000Z</time>
      </trkpt>
      <trkpt lat="47.49067" lon="6.62953">
        <ele>426</ele>
        <time>2015-12-06T10:09:58.000Z</time>
      </trkpt>
      <trkpt lat="47.49068" lon="6.62958">
        <ele>426</ele>
        <time>2015-12-06T10:09:59.000Z</time>
      </trkpt>
      <trkpt lat="47.49069" lon="6.62963">
        <ele>426</ele>
        <time>2015-12-06T10:10:00.000Z</time>
      </trkpt>
      <trkpt lat="47.4907" lon="6.62968">
        <ele>426</ele>
        <time>2015-12-06T10:10:01.000Z</time>
      </trkpt>
      <trkpt lat="47.49072" lon="6.62972">
        <ele>426</ele>
        <time>2015-12-06T10:10:02.000Z</time>
      </trkpt>
      <trkpt lat="47.49073" lon="6.62977">
        <ele>426</ele>
        <time>2015-12-06T10:10:03.000Z</time>
      </trkpt>
      <trkpt lat="47.49074" lon="6.62983">
        <ele>425</ele>
        <time>2015-12-06T10:10:04.000Z</time>
      </trkpt>
      <trkpt lat="47.49074" lon="6.62988">
        <ele>425</ele>
        <time>2015-12-06T10:10:05.000Z</time>
      </trkpt>
      <trkpt lat="47.49075" lon="6.62995">
        <ele>425</ele>
        <time>2015-12-06T10:10:06.000Z</time>
      </trkpt>
      <trkpt lat="47.49074" lon="6.63001">
        <ele>425</ele>
        <time>2015-12-06T10:10:07.000Z</time>
      </trkpt>
      <trkpt lat="47.49074" lon="6.63005">
        <ele>425</ele>
        <time>2015-12-06T10:10:08.000Z</time>
      </trkpt>
      <trkpt lat="47.49074" lon="6.6301">
        <ele>425</ele>
        <time>2015-12-06T10:10:09.000Z</time>
      </trkpt>
      <trkpt lat="47.49074" lon="6.63014">
        <ele>425</ele>
        <time>2015-12-06T10:10:10.000Z</time>
      </trkpt>
      <trkpt lat="47.49074" lon="6.63018">
        <ele>425</ele>
        <time>2015-12-06T10:10:11.000Z</time>
      </trkpt>
      <trkpt lat="47.49075" lon="6.63023">
        <ele>425</ele>
        <time>2015-12-06T10:10:12.000Z</time>
      </trkpt>
      <trkpt lat="47.49075" lon="6.63028">
        <ele>425</ele>
        <time>2015-12-06T10:10:13.000Z</time>
      </trkpt>
      <trkpt lat="47.49076" lon="6.63034">
        <ele>425</ele>
        <time>2015-12-06T10:10:14.000Z</time>
      </trkpt>
      <trkpt lat="47.49076" lon="6.63039">
        <ele>425</ele>
        <time>2015-12-06T10:10:15.000Z</time>
      </trkpt>
      <trkpt lat="47.49075" lon="6.63044">
        <ele>425</ele>
        <time>2015-12-06T10:10:16.000Z</time>
      </trkpt>
      <trkpt lat="47.49075" lon="6.63048">
        <ele>425</ele>
        <time>2015-12-06T10:10:17.000Z</time>
      </trkpt>
      <trkpt lat="47.49076" lon="6.63052">
        <ele>425</ele>
        <time>2015-12-06T10:10:18.000Z</time>
      </trkpt>
      <trkpt lat="47.49076" lon="6.63058">
        <ele>425</ele>
        <time>2015-12-06T10:10:20.000Z</time>
      </trkpt>
      <trkpt lat="47.49076" lon="6.63062">
        <ele>425</ele>
        <time>2015-12-06T10:10:21.000Z</time>
      </trkpt>
      <trkpt lat="47.49077" lon="6.63067">
        <ele>425</ele>
        <time>2015-12-06T10:10:22.000Z</time>
      </trkpt>
      <trkpt lat="47.49077" lon="6.63072">
        <ele>425</ele>
        <time>2015-12-06T10:10:23.000Z</time>
      </trkpt>
      <trkpt lat="47.49077" lon="6.63078">
        <ele>425</ele>
        <time>2015-12-06T10:10:24.000Z</time>
      </trkpt>
      <trkpt lat="47.49077" lon="6.63084">
        <ele>425</ele>
        <time>2015-12-06T10:10:25.000Z</time>
      </trkpt>
      <trkpt lat="47.49078" lon="6.63089">
        <ele>425</ele>
        <time>2015-12-06T10:10:26.000Z</time>
      </trkpt>
      <trkpt lat="47.49078" lon="6.63094">
        <ele>426</ele>
        <time>2015-12-06T10:10:27.000Z</time>
      </trkpt>
      <trkpt lat="47.49078" lon="6.631">
        <ele>426</ele>
        <time>2015-12-06T10:10:28.000Z</time>
      </trkpt>
      <trkpt lat="47.49077" lon="6.63105">
        <ele>426</ele>
        <time>2015-12-06T10:10:29.000Z</time>
      </trkpt>
      <trkpt lat="47.49076" lon="6.63112">
        <ele>426</ele>
        <time>2015-12-06T10:10:30.000Z</time>
      </trkpt>
      <trkpt lat="47.49075" lon="6.63119">
        <ele>426</ele>
        <time>2015-12-06T10:10:31.000Z</time>
      </trkpt>
      <trkpt lat="47.49075" lon="6.63126">
        <ele>427</ele>
        <time>2015-12-06T10:10:32.000Z</time>
      </trkpt>
      <trkpt lat="47.49074" lon="6.63132">
        <ele>427</ele>
        <time>2015-12-06T10:10:33.000Z</time>
      </trkpt>
      <trkpt lat="47.49073" lon="6.63138">
        <ele>427</ele>
        <time>2015-12-06T10:10:34.000Z</time>
      </trkpt>
      <trkpt lat="47.49072" lon="6.63144">
        <ele>427</ele>
        <time>2015-12-06T10:10:35.000Z</time>
      </trkpt>
      <trkpt lat="47.49071" lon="6.63149">
        <ele>427</ele>
        <time>2015-12-06T10:10:36.000Z</time>
      </trkpt>
      <trkpt lat="47.4907" lon="6.63154">
        <ele>427</ele>
        <time>2015-12-06T10:10:37.000Z</time>
      </trkpt>
      <trkpt lat="47.4907" lon="6.63164">
        <ele>428</ele>
        <time>2015-12-06T10:10:38.000Z</time>
      </trkpt>
      <trkpt lat="47.49069" lon="6.63171">
        <ele>428</ele>
        <time>2015-12-06T10:10:39.000Z</time>
      </trkpt>
      <trkpt lat="47.49071" lon="6.63177">
        <ele>428</ele>
        <time>2015-12-06T10:10:40.000Z</time>
      </trkpt>
      <trkpt lat="47.49071" lon="6.63182">
        <ele>428</ele>
        <time>2015-12-06T10:10:41.000Z</time>
      </trkpt>
      <trkpt lat="47.49073" lon="6.63186">
        <ele>428</ele>
        <time>2015-12-06T10:10:42.000Z</time>
      </trkpt>
      <trkpt lat="47.49073" lon="6.63191">
        <ele>428</ele>
        <time>2015-12-06T10:10:43.000Z</time>
      </trkpt>
      <trkpt lat="47.49074" lon="6.63196">
        <ele>428</ele>
        <time>2015-12-06T10:10:44.000Z</time>
      </trkpt>
      <trkpt lat="47.49069" lon="6.63201">
        <ele>428</ele>
        <time>2015-12-06T10:10:45.000Z</time>
      </trkpt>
      <trkpt lat="47.49071" lon="6.63206">
        <ele>428</ele>
        <time>2015-12-06T10:10:46.000Z</time>
      </trkpt>
      <trkpt lat="47.49072" lon="6.63211">
        <ele>428</ele>
        <time>2015-12-06T10:10:47.000Z</time>
      </trkpt>
      <trkpt lat="47.49071" lon="6.63216">
        <ele>428</ele>
        <time>2015-12-06T10:10:48.000Z</time>
      </trkpt>
      <trkpt lat="47.49071" lon="6.6322">
        <ele>428</ele>
        <time>2015-12-06T10:10:49.000Z</time>
      </trkpt>
      <trkpt lat="47.49072" lon="6.63225">
        <ele>428</ele>
        <time>2015-12-06T10:10:50.000Z</time>
      </trkpt>
      <trkpt lat="47.49072" lon="6.6323">
        <ele>427</ele>
        <time>2015-12-06T10:10:51.000Z</time>
      </trkpt>
      <trkpt lat="47.49072" lon="6.63235">
        <ele>427</ele>
        <time>2015-12-06T10:10:52.000Z</time>
      </trkpt>
      <trkpt lat="47.49073" lon="6.6324">
        <ele>427</ele>
        <time>2015-12-06T10:10:53.000Z</time>
      </trkpt>
      <trkpt lat="47.49073" lon="6.63245">
        <ele>427</ele>
        <time>2015-12-06T10:10:54.000Z</time>
      </trkpt>
      <trkpt lat="47.49074" lon="6.6325">
        <ele>426</ele>
        <time>2015-12-06T10:10:55.000Z</time>
      </trkpt>
      <trkpt lat="47.49075" lon="6.63256">
        <ele>426</ele>
        <time>2015-12-06T10:10:56.000Z</time>
      </trkpt>
      <trkpt lat="47.49075" lon="6.63261">
        <ele>426</ele>
        <time>2015-12-06T10:10:57.000Z</time>
      </trkpt>
      <trkpt lat="47.49075" lon="6.63267">
        <ele>426</ele>
        <time>2015-12-06T10:10:58.000Z</time>
      </trkpt>
      <trkpt lat="47.49075" lon="6.63272">
        <ele>425</ele>
        <time>2015-12-06T10:10:59.000Z</time>
      </trkpt>
      <trkpt lat="47.49076" lon="6.63277">
        <ele>425</ele>
        <time>2015-12-06T10:11:00.000Z</time>
      </trkpt>
      <trkpt lat="47.49076" lon="6.63282">
        <ele>425</ele>
        <time>2015-12-06T10:11:01.000Z</time>
      </trkpt>
      <trkpt lat="47.49078" lon="6.63287">
        <ele>425</ele>
        <time>2015-12-06T10:11:02.000Z</time>
      </trkpt>
      <trkpt lat="47.49079" lon="6.63292">
        <ele>425</ele>
        <time>2015-12-06T10:11:03.000Z</time>
      </trkpt>
      <trkpt lat="47.49081" lon="6.63299">
        <ele>424</ele>
        <time>2015-12-06T10:11:04.000Z</time>
      </trkpt>
      <trkpt lat="47.49082" lon="6.63306">
        <ele>424</ele>
        <time>2015-12-06T10:11:05.000Z</time>
      </trkpt>
      <trkpt lat="47.49083" lon="6.63314">
        <ele>424</ele>
        <time>2015-12-06T10:11:06.000Z</time>
      </trkpt>
      <trkpt lat="47.49083" lon="6.63321">
        <ele>424</ele>
        <time>2015-12-06T10:11:07.000Z</time>
      </trkpt>
      <trkpt lat="47.49084" lon="6.63328">
        <ele>423</ele>
        <time>2015-12-06T10:11:08.000Z</time>
      </trkpt>
      <trkpt lat="47.49085" lon="6.63334">
        <ele>423</ele>
        <time>2015-12-06T10:11:09.000Z</time>
      </trkpt>
      <trkpt lat="47.49086" lon="6.6334">
        <ele>423</ele>
        <time>2015-12-06T10:11:10.000Z</time>
      </trkpt>
      <trkpt lat="47.49087" lon="6.63346">
        <ele>423</ele>
        <time>2015-12-06T10:11:11.000Z</time>
      </trkpt>
      <trkpt lat="47.49088" lon="6.63351">
        <ele>422</ele>
        <time>2015-12-06T10:11:12.000Z</time>
      </trkpt>
      <trkpt lat="47.49089" lon="6.63357">
        <ele>422</ele>
        <time>2015-12-06T10:11:13.000Z</time>
      </trkpt>
      <trkpt lat="47.49089" lon="6.63362">
        <ele>422</ele>
        <time>2015-12-06T10:11:14.000Z</time>
      </trkpt>
      <trkpt lat="47.49091" lon="6.63368">
        <ele>422</ele>
        <time>2015-12-06T10:11:15.000Z</time>
      </trkpt>
      <trkpt lat="47.49092" lon="6.63374">
        <ele>422</ele>
        <time>2015-12-06T10:11:16.000Z</time>
      </trkpt>
      <trkpt lat="47.49094" lon="6.6338">
        <ele>422</ele>
        <time>2015-12-06T10:11:17.000Z</time>
      </trkpt>
      <trkpt lat="47.49095" lon="6.63386">
        <ele>421</ele>
        <time>2015-12-06T10:11:18.000Z</time>
      </trkpt>
      <trkpt lat="47.49097" lon="6.63392">
        <ele>421</ele>
        <time>2015-12-06T10:11:19.000Z</time>
      </trkpt>
      <trkpt lat="47.49098" lon="6.63398">
        <ele>421</ele>
        <time>2015-12-06T10:11:20.000Z</time>
      </trkpt>
      <trkpt lat="47.49098" lon="6.63404">
        <ele>421</ele>
        <time>2015-12-06T10:11:21.000Z</time>
      </trkpt>
      <trkpt lat="47.49099" lon="6.6341">
        <ele>421</ele>
        <time>2015-12-06T10:11:22.000Z</time>
      </trkpt>
      <trkpt lat="47.491" lon="6.63416">
        <ele>421</ele>
        <time>2015-12-06T10:11:23.000Z</time>
      </trkpt>
      <trkpt lat="47.49101" lon="6.63422">
        <ele>419</ele>
        <time>2015-12-06T10:11:24.000Z</time>
      </trkpt>
      <trkpt lat="47.49102" lon="6.63427">
        <ele>419</ele>
        <time>2015-12-06T10:11:25.000Z</time>
      </trkpt>
      <trkpt lat="47.49103" lon="6.63433">
        <ele>419</ele>
        <time>2015-12-06T10:11:26.000Z</time>
      </trkpt>
      <trkpt lat="47.49105" lon="6.63439">
        <ele>419</ele>
        <time>2015-12-06T10:11:27.000Z</time>
      </trkpt>
      <trkpt lat="47.49106" lon="6.63445">
        <ele>419</ele>
        <time>2015-12-06T10:11:28.000Z</time>
      </trkpt>
      <trkpt lat="47.49107" lon="6.6345">
        <ele>419</ele>
        <time>2015-12-06T10:11:29.000Z</time>
      </trkpt>
      <trkpt lat="47.49108" lon="6.63455">
        <ele>419</ele>
        <time>2015-12-06T10:11:30.000Z</time>
      </trkpt>
      <trkpt lat="47.49109" lon="6.63459">
        <ele>419</ele>
        <time>2015-12-06T10:11:31.000Z</time>
      </trkpt>
      <trkpt lat="47.4911" lon="6.63462">
        <ele>419</ele>
        <time>2015-12-06T10:11:32.000Z</time>
      </trkpt>
      <trkpt lat="47.4911" lon="6.63467">
        <ele>418</ele>
        <time>2015-12-06T10:11:33.000Z</time>
      </trkpt>
      <trkpt lat="47.4911" lon="6.63472">
        <ele>418</ele>
        <time>2015-12-06T10:11:34.000Z</time>
      </trkpt>
      <trkpt lat="47.4911" lon="6.63476">
        <ele>418</ele>
        <time>2015-12-06T10:11:35.000Z</time>
      </trkpt>
      <trkpt lat="47.4911" lon="6.63482">
        <ele>418</ele>
        <time>2015-12-06T10:11:36.000Z</time>
      </trkpt>
      <trkpt lat="47.49109" lon="6.63487">
        <ele>418</ele>
        <time>2015-12-06T10:11:37.000Z</time>
      </trkpt>
      <trkpt lat="47.49108" lon="6.63492">
        <ele>418</ele>
        <time>2015-12-06T10:11:38.000Z</time>
      </trkpt>
      <trkpt lat="47.49107" lon="6.63498">
        <ele>417</ele>
        <time>2015-12-06T10:11:39.000Z</time>
      </trkpt>
      <trkpt lat="47.49106" lon="6.63504">
        <ele>416</ele>
        <time>2015-12-06T10:11:40.000Z</time>
      </trkpt>
      <trkpt lat="47.49104" lon="6.63509">
        <ele>416</ele>
        <time>2015-12-06T10:11:41.000Z</time>
      </trkpt>
      <trkpt lat="47.49102" lon="6.63515">
        <ele>416</ele>
        <time>2015-12-06T10:11:42.000Z</time>
      </trkpt>
      <trkpt lat="47.491" lon="6.6352">
        <ele>416</ele>
        <time>2015-12-06T10:11:43.000Z</time>
      </trkpt>
      <trkpt lat="47.49098" lon="6.63524">
        <ele>416</ele>
        <time>2015-12-06T10:11:44.000Z</time>
      </trkpt>
      <trkpt lat="47.49095" lon="6.63528">
        <ele>416</ele>
        <time>2015-12-06T10:11:45.000Z</time>
      </trkpt>
      <trkpt lat="47.49093" lon="6.63533">
        <ele>416</ele>
        <time>2015-12-06T10:11:46.000Z</time>
      </trkpt>
      <trkpt lat="47.4909" lon="6.6354">
        <ele>416</ele>
        <time>2015-12-06T10:11:47.000Z</time>
      </trkpt>
      <trkpt lat="47.49088" lon="6.63548">
        <ele>416</ele>
        <time>2015-12-06T10:11:48.000Z</time>
      </trkpt>
      <trkpt lat="47.49086" lon="6.63557">
        <ele>416</ele>
        <time>2015-12-06T10:11:49.000Z</time>
      </trkpt>
      <trkpt lat="47.49085" lon="6.63589">
        <ele>416</ele>
        <time>2015-12-06T10:11:50.000Z</time>
      </trkpt>
      <trkpt lat="47.49084" lon="6.63598">
        <ele>416</ele>
        <time>2015-12-06T10:11:51.000Z</time>
      </trkpt>
      <trkpt lat="47.49084" lon="6.63606">
        <ele>416</ele>
        <time>2015-12-06T10:11:52.000Z</time>
      </trkpt>
      <trkpt lat="47.49083" lon="6.63614">
        <ele>417</ele>
        <time>2015-12-06T10:11:53.000Z</time>
      </trkpt>
      <trkpt lat="47.49083" lon="6.63621">
        <ele>417</ele>
        <time>2015-12-06T10:11:54.000Z</time>
      </trkpt>
      <trkpt lat="47.49083" lon="6.63629">
        <ele>417</ele>
        <time>2015-12-06T10:11:55.000Z</time>
      </trkpt>
      <trkpt lat="47.49083" lon="6.63637">
        <ele>417</ele>
        <time>2015-12-06T10:11:56.000Z</time>
      </trkpt>
      <trkpt lat="47.49083" lon="6.63644">
        <ele>417</ele>
        <time>2015-12-06T10:11:57.000Z</time>
      </trkpt>
      <trkpt lat="47.49083" lon="6.63651">
        <ele>417</ele>
        <time>2015-12-06T10:11:58.000Z</time>
      </trkpt>
      <trkpt lat="47.49084" lon="6.63656">
        <ele>417</ele>
        <time>2015-12-06T10:11:59.000Z</time>
      </trkpt>
      <trkpt lat="47.49084" lon="6.63662">
        <ele>417</ele>
        <time>2015-12-06T10:12:00.000Z</time>
      </trkpt>
      <trkpt lat="47.49085" lon="6.63668">
        <ele>417</ele>
        <time>2015-12-06T10:12:01.000Z</time>
      </trkpt>
      <trkpt lat="47.49087" lon="6.63674">
        <ele>417</ele>
        <time>2015-12-06T10:12:02.000Z</time>
      </trkpt>
      <trkpt lat="47.49088" lon="6.6368">
        <ele>417</ele>
        <time>2015-12-06T10:12:03.000Z</time>
      </trkpt>
      <trkpt lat="47.49089" lon="6.63686">
        <ele>417</ele>
        <time>2015-12-06T10:12:04.000Z</time>
      </trkpt>
      <trkpt lat="47.4909" lon="6.63691">
        <ele>417</ele>
        <time>2015-12-06T10:12:05.000Z</time>
      </trkpt>
      <trkpt lat="47.49091" lon="6.63697">
        <ele>417</ele>
        <time>2015-12-06T10:12:06.000Z</time>
      </trkpt>
      <trkpt lat="47.49093" lon="6.63702">
        <ele>417</ele>
        <time>2015-12-06T10:12:07.000Z</time>
      </trkpt>
      <trkpt lat="47.49094" lon="6.63708">
        <ele>417</ele>
        <time>2015-12-06T10:12:08.000Z</time>
      </trkpt>
      <trkpt lat="47.49095" lon="6.63713">
        <ele>417</ele>
        <time>2015-12-06T10:12:09.000Z</time>
      </trkpt>
      <trkpt lat="47.49096" lon="6.63719">
        <ele>417</ele>
        <time>2015-12-06T10:12:10.000Z</time>
      </trkpt>
      <trkpt lat="47.49098" lon="6.63725">
        <ele>417</ele>
        <time>2015-12-06T10:12:11.000Z</time>
      </trkpt>
      <trkpt lat="47.49099" lon="6.6373">
        <ele>417</ele>
        <time>2015-12-06T10:12:12.000Z</time>
      </trkpt>
      <trkpt lat="47.491" lon="6.63734">
        <ele>417</ele>
        <time>2015-12-06T10:12:13.000Z</time>
      </trkpt>
      <trkpt lat="47.491" lon="6.63739">
        <ele>417</ele>
        <time>2015-12-06T10:12:14.000Z</time>
      </trkpt>
      <trkpt lat="47.49101" lon="6.63744">
        <ele>417</ele>
        <time>2015-12-06T10:12:15.000Z</time>
      </trkpt>
      <trkpt lat="47.49102" lon="6.63749">
        <ele>417</ele>
        <time>2015-12-06T10:12:16.000Z</time>
      </trkpt>
      <trkpt lat="47.49102" lon="6.63754">
        <ele>418</ele>
        <time>2015-12-06T10:12:17.000Z</time>
      </trkpt>
      <trkpt lat="47.49103" lon="6.63758">
        <ele>417</ele>
        <time>2015-12-06T10:12:18.000Z</time>
      </trkpt>
      <trkpt lat="47.49104" lon="6.63763">
        <ele>417</ele>
        <time>2015-12-06T10:12:19.000Z</time>
      </trkpt>
      <trkpt lat="47.49105" lon="6.63768">
        <ele>417</ele>
        <time>2015-12-06T10:12:20.000Z</time>
      </trkpt>
      <trkpt lat="47.49106" lon="6.63772">
        <ele>417</ele>
        <time>2015-12-06T10:12:21.000Z</time>
      </trkpt>
      <trkpt lat="47.49107" lon="6.63776">
        <ele>417</ele>
        <time>2015-12-06T10:12:22.000Z</time>
      </trkpt>
      <trkpt lat="47.49107" lon="6.63779">
        <ele>417</ele>
        <time>2015-12-06T10:12:23.000Z</time>
      </trkpt>
      <trkpt lat="47.49107" lon="6.63784">
        <ele>417</ele>
        <time>2015-12-06T10:12:24.000Z</time>
      </trkpt>
      <trkpt lat="47.49107" lon="6.63789">
        <ele>417</ele>
        <time>2015-12-06T10:12:25.000Z</time>
      </trkpt>
      <trkpt lat="47.49107" lon="6.63794">
        <ele>417</ele>
        <time>2015-12-06T10:12:26.000Z</time>
      </trkpt>
      <trkpt lat="47.49107" lon="6.638">
        <ele>417</ele>
        <time>2015-12-06T10:12:27.000Z</time>
      </trkpt>
      <trkpt lat="47.49107" lon="6.63807">
        <ele>417</ele>
        <time>2015-12-06T10:12:28.000Z</time>
      </trkpt>
      <trkpt lat="47.49108" lon="6.63813">
        <ele>417</ele>
        <time>2015-12-06T10:12:29.000Z</time>
      </trkpt>
      <trkpt lat="47.49108" lon="6.6382">
        <ele>417</ele>
        <time>2015-12-06T10:12:30.000Z</time>
      </trkpt>
      <trkpt lat="47.49109" lon="6.63826">
        <ele>417</ele>
        <time>2015-12-06T10:12:31.000Z</time>
      </trkpt>
      <trkpt lat="47.4911" lon="6.63837">
        <ele>416</ele>
        <time>2015-12-06T10:12:33.000Z</time>
      </trkpt>
      <trkpt lat="47.4911" lon="6.63842">
        <ele>416</ele>
        <time>2015-12-06T10:12:34.000Z</time>
      </trkpt>
      <trkpt lat="47.49111" lon="6.63848">
        <ele>416</ele>
        <time>2015-12-06T10:12:35.000Z</time>
      </trkpt>
      <trkpt lat="47.49112" lon="6.63855">
        <ele>416</ele>
        <time>2015-12-06T10:12:36.000Z</time>
      </trkpt>
      <trkpt lat="47.49117" lon="6.63872">
        <ele>416</ele>
        <time>2015-12-06T10:12:37.000Z</time>
      </trkpt>
      <trkpt lat="47.49118" lon="6.63884">
        <ele>415</ele>
        <time>2015-12-06T10:12:38.000Z</time>
      </trkpt>
      <trkpt lat="47.49122" lon="6.63895">
        <ele>415</ele>
        <time>2015-12-06T10:12:39.000Z</time>
      </trkpt>
      <trkpt lat="47.49124" lon="6.63905">
        <ele>415</ele>
        <time>2015-12-06T10:12:40.000Z</time>
      </trkpt>
      <trkpt lat="47.49125" lon="6.63915">
        <ele>415</ele>
        <time>2015-12-06T10:12:41.000Z</time>
      </trkpt>
      <trkpt lat="47.49127" lon="6.63925">
        <ele>414</ele>
        <time>2015-12-06T10:12:42.000Z</time>
      </trkpt>
      <trkpt lat="47.49127" lon="6.63934">
        <ele>414</ele>
        <time>2015-12-06T10:12:43.000Z</time>
      </trkpt>
      <trkpt lat="47.49128" lon="6.63942">
        <ele>414</ele>
        <time>2015-12-06T10:12:44.000Z</time>
      </trkpt>
      <trkpt lat="47.49129" lon="6.6395">
        <ele>414</ele>
        <time>2015-12-06T10:12:45.000Z</time>
      </trkpt>
      <trkpt lat="47.49131" lon="6.63958">
        <ele>414</ele>
        <time>2015-12-06T10:12:46.000Z</time>
      </trkpt>
      <trkpt lat="47.49135" lon="6.63962">
        <ele>415</ele>
        <time>2015-12-06T10:12:47.000Z</time>
      </trkpt>
      <trkpt lat="47.49135" lon="6.63968">
        <ele>415</ele>
        <time>2015-12-06T10:12:48.000Z</time>
      </trkpt>
      <trkpt lat="47.49137" lon="6.63972">
        <ele>415</ele>
        <time>2015-12-06T10:12:49.000Z</time>
      </trkpt>
      <trkpt lat="47.4914" lon="6.63976">
        <ele>415</ele>
        <time>2015-12-06T10:12:50.000Z</time>
      </trkpt>
      <trkpt lat="47.4914" lon="6.6398">
        <ele>415</ele>
        <time>2015-12-06T10:12:51.000Z</time>
      </trkpt>
      <trkpt lat="47.49139" lon="6.63985">
        <ele>415</ele>
        <time>2015-12-06T10:12:53.000Z</time>
      </trkpt>
      <trkpt lat="47.49139" lon="6.63987">
        <ele>415</ele>
        <time>2015-12-06T10:12:54.000Z</time>
      </trkpt>
      <trkpt lat="47.49138" lon="6.63992">
        <ele>415</ele>
        <time>2015-12-06T10:12:56.000Z</time>
      </trkpt>
      <trkpt lat="47.49138" lon="6.63994">
        <ele>415</ele>
        <time>2015-12-06T10:12:57.000Z</time>
      </trkpt>
      <trkpt lat="47.49139" lon="6.63998">
        <ele>415</ele>
        <time>2015-12-06T10:12:59.000Z</time>
      </trkpt>
      <trkpt lat="47.49139" lon="6.64001">
        <ele>415</ele>
        <time>2015-12-06T10:13:00.000Z</time>
      </trkpt>
      <trkpt lat="47.49139" lon="6.64008">
        <ele>415</ele>
        <time>2015-12-06T10:13:02.000Z</time>
      </trkpt>
      <trkpt lat="47.49138" lon="6.64011">
        <ele>415</ele>
        <time>2015-12-06T10:13:03.000Z</time>
      </trkpt>
      <trkpt lat="47.49138" lon="6.64014">
        <ele>415</ele>
        <time>2015-12-06T10:13:04.000Z</time>
      </trkpt>
      <trkpt lat="47.49138" lon="6.64018">
        <ele>415</ele>
        <time>2015-12-06T10:13:05.000Z</time>
      </trkpt>
      <trkpt lat="47.49138" lon="6.64022">
        <ele>415</ele>
        <time>2015-12-06T10:13:06.000Z</time>
      </trkpt>
      <trkpt lat="47.49137" lon="6.64027">
        <ele>415</ele>
        <time>2015-12-06T10:13:07.000Z</time>
      </trkpt>
      <trkpt lat="47.49137" lon="6.64032">
        <ele>415</ele>
        <time>2015-12-06T10:13:08.000Z</time>
      </trkpt>
      <trkpt lat="47.49138" lon="6.64037">
        <ele>415</ele>
        <time>2015-12-06T10:13:09.000Z</time>
      </trkpt>
      <trkpt lat="47.49138" lon="6.64042">
        <ele>415</ele>
        <time>2015-12-06T10:13:10.000Z</time>
      </trkpt>
      <trkpt lat="47.49139" lon="6.64045">
        <ele>415</ele>
        <time>2015-12-06T10:13:11.000Z</time>
      </trkpt>
      <trkpt lat="47.4914" lon="6.64049">
        <ele>415</ele>
        <time>2015-12-06T10:13:12.000Z</time>
      </trkpt>
      <trkpt lat="47.49141" lon="6.64052">
        <ele>415</ele>
        <time>2015-12-06T10:13:13.000Z</time>
      </trkpt>
      <trkpt lat="47.49142" lon="6.64055">
        <ele>415</ele>
        <time>2015-12-06T10:13:14.000Z</time>
      </trkpt>
      <trkpt lat="47.49143" lon="6.64059">
        <ele>415</ele>
        <time>2015-12-06T10:13:15.000Z</time>
      </trkpt>
      <trkpt lat="47.49143" lon="6.64062">
        <ele>415</ele>
        <time>2015-12-06T10:13:16.000Z</time>
      </trkpt>
      <trkpt lat="47.49143" lon="6.64066">
        <ele>415</ele>
        <time>2015-12-06T10:13:17.000Z</time>
      </trkpt>
      <trkpt lat="47.49143" lon="6.6407">
        <ele>415</ele>
        <time>2015-12-06T10:13:18.000Z</time>
      </trkpt>
      <trkpt lat="47.49143" lon="6.64075">
        <ele>415</ele>
        <time>2015-12-06T10:13:19.000Z</time>
      </trkpt>
      <trkpt lat="47.49144" lon="6.64079">
        <ele>415</ele>
        <time>2015-12-06T10:13:20.000Z</time>
      </trkpt>
      <trkpt lat="47.49144" lon="6.64084">
        <ele>416</ele>
        <time>2015-12-06T10:13:21.000Z</time>
      </trkpt>
      <trkpt lat="47.49145" lon="6.64089">
        <ele>416</ele>
        <time>2015-12-06T10:13:22.000Z</time>
      </trkpt>
      <trkpt lat="47.49145" lon="6.64093">
        <ele>416</ele>
        <time>2015-12-06T10:13:23.000Z</time>
      </trkpt>
      <trkpt lat="47.49144" lon="6.64097">
        <ele>416</ele>
        <time>2015-12-06T10:13:24.000Z</time>
      </trkpt>
      <trkpt lat="47.49143" lon="6.64101">
        <ele>416</ele>
        <time>2015-12-06T10:13:25.000Z</time>
      </trkpt>
      <trkpt lat="47.49143" lon="6.64105">
        <ele>416</ele>
        <time>2015-12-06T10:13:26.000Z</time>
      </trkpt>
      <trkpt lat="47.49143" lon="6.64109">
        <ele>415</ele>
        <time>2015-12-06T10:13:26.999Z</time>
      </trkpt>
      <trkpt lat="47.49146" lon="6.64112">
        <ele>416</ele>
        <time>2015-12-06T10:13:28.000Z</time>
      </trkpt>
      <trkpt lat="47.49148" lon="6.64116">
        <ele>416</ele>
        <time>2015-12-06T10:13:29.000Z</time>
      </trkpt>
      <trkpt lat="47.49149" lon="6.64122">
        <ele>416</ele>
        <time>2015-12-06T10:13:30.999Z</time>
      </trkpt>
      <trkpt lat="47.49149" lon="6.6413">
        <ele>416</ele>
        <time>2015-12-06T10:13:33.000Z</time>
      </trkpt>
      <trkpt lat="47.49149" lon="6.64134">
        <ele>416</ele>
        <time>2015-12-06T10:13:34.000Z</time>
      </trkpt>
      <trkpt lat="47.49149" lon="6.64138">
        <ele>416</ele>
        <time>2015-12-06T10:13:35.000Z</time>
      </trkpt>
      <trkpt lat="47.49149" lon="6.64142">
        <ele>416</ele>
        <time>2015-12-06T10:13:36.000Z</time>
      </trkpt>
      <trkpt lat="47.49148" lon="6.64146">
        <ele>416</ele>
        <time>2015-12-06T10:13:37.000Z</time>
      </trkpt>
      <trkpt lat="47.49147" lon="6.6415">
        <ele>416</ele>
        <time>2015-12-06T10:13:38.000Z</time>
      </trkpt>
      <trkpt lat="47.49146" lon="6.64154">
        <ele>416</ele>
        <time>2015-12-06T10:13:38.999Z</time>
      </trkpt>
      <trkpt lat="47.49146" lon="6.64159">
        <ele>416</ele>
        <time>2015-12-06T10:13:40.000Z</time>
      </trkpt>
      <trkpt lat="47.49147" lon="6.64163">
        <ele>416</ele>
        <time>2015-12-06T10:13:41.000Z</time>
      </trkpt>
      <trkpt lat="47.49148" lon="6.64167">
        <ele>415</ele>
        <time>2015-12-06T10:13:42.000Z</time>
      </trkpt>
      <trkpt lat="47.49149" lon="6.64171">
        <ele>415</ele>
        <time>2015-12-06T10:13:43.000Z</time>
      </trkpt>
      <trkpt lat="47.49149" lon="6.64174">
        <ele>415</ele>
        <time>2015-12-06T10:13:44.000Z</time>
      </trkpt>
      <trkpt lat="47.49151" lon="6.64177">
        <ele>415</ele>
        <time>2015-12-06T10:13:45.000Z</time>
      </trkpt>
      <trkpt lat="47.49152" lon="6.6418">
        <ele>415</ele>
        <time>2015-12-06T10:13:46.000Z</time>
      </trkpt>
      <trkpt lat="47.49153" lon="6.64183">
        <ele>415</ele>
        <time>2015-12-06T10:13:47.000Z</time>
      </trkpt>
      <trkpt lat="47.49154" lon="6.64187">
        <ele>415</ele>
        <time>2015-12-06T10:13:48.000Z</time>
      </trkpt>
      <trkpt lat="47.49155" lon="6.6419">
        <ele>414</ele>
        <time>2015-12-06T10:13:49.000Z</time>
      </trkpt>
      <trkpt lat="47.49156" lon="6.64193">
        <ele>414</ele>
        <time>2015-12-06T10:13:50.000Z</time>
      </trkpt>
      <trkpt lat="47.49157" lon="6.64197">
        <ele>414</ele>
        <time>2015-12-06T10:13:51.000Z</time>
      </trkpt>
      <trkpt lat="47.49158" lon="6.64203">
        <ele>414</ele>
        <time>2015-12-06T10:13:53.000Z</time>
      </trkpt>
      <trkpt lat="47.49158" lon="6.64204">
        <ele>414</ele>
        <time>2015-12-06T10:13:54.000Z</time>
      </trkpt>
      <trkpt lat="47.4916" lon="6.64209">
        <ele>414</ele>
        <time>2015-12-06T10:13:57.000Z</time>
      </trkpt>
      <trkpt lat="47.49163" lon="6.64208">
        <ele>414</ele>
        <time>2015-12-06T10:13:58.000Z</time>
      </trkpt>
      <trkpt lat="47.49165" lon="6.64208">
        <ele>414</ele>
        <time>2015-12-06T10:13:59.000Z</time>
      </trkpt>
      <trkpt lat="47.49168" lon="6.64207">
        <ele>415</ele>
        <time>2015-12-06T10:14:00.000Z</time>
      </trkpt>
      <trkpt lat="47.49171" lon="6.64203">
        <ele>416</ele>
        <time>2015-12-06T10:14:03.000Z</time>
      </trkpt>
      <trkpt lat="47.49171" lon="6.64202">
        <ele>416</ele>
        <time>2015-12-06T10:14:04.000Z</time>
      </trkpt>
      <trkpt lat="47.49168" lon="6.64206">
        <ele>415</ele>
        <time>2015-12-06T10:14:34.000Z</time>
      </trkpt>
      <trkpt lat="47.49168" lon="6.64206">
        <ele>415</ele>
        <time>2015-12-06T10:14:35.000Z</time>
      </trkpt>
      <trkpt lat="47.49164" lon="6.64206">
        <ele>414</ele>
        <time>2015-12-06T10:14:49.000Z</time>
      </trkpt>
      <trkpt lat="47.49163" lon="6.64205">
        <ele>414</ele>
        <time>2015-12-06T10:14:50.000Z</time>
      </trkpt>
      <trkpt lat="47.4916" lon="6.64206">
        <ele>414</ele>
        <time>2015-12-06T10:14:52.000Z</time>
      </trkpt>
      <trkpt lat="47.49158" lon="6.64206">
        <ele>414</ele>
        <time>2015-12-06T10:14:53.000Z</time>
      </trkpt>
      <trkpt lat="47.49155" lon="6.64212">
        <ele>414</ele>
        <time>2015-12-06T10:14:58.000Z</time>
      </trkpt>
      <trkpt lat="47.49155" lon="6.64212">
        <ele>414</ele>
        <time>2015-12-06T10:14:59.000Z</time>
      </trkpt>
      <trkpt lat="47.49153" lon="6.64217">
        <ele>413</ele>
        <time>2015-12-06T10:15:10.000Z</time>
      </trkpt>
      <trkpt lat="47.49153" lon="6.6422">
        <ele>413</ele>
        <time>2015-12-06T10:15:11.000Z</time>
      </trkpt>
      <trkpt lat="47.49152" lon="6.64224">
        <ele>413</ele>
        <time>2015-12-06T10:15:12.000Z</time>
      </trkpt>
      <trkpt lat="47.49151" lon="6.64229">
        <ele>413</ele>
        <time>2015-12-06T10:15:13.000Z</time>
      </trkpt>
      <trkpt lat="47.49149" lon="6.64233">
        <ele>413</ele>
        <time>2015-12-06T10:15:14.000Z</time>
      </trkpt>
      <trkpt lat="47.49143" lon="6.64252">
        <ele>409</ele>
        <time>2015-12-06T10:15:15.000Z</time>
      </trkpt>
      <trkpt lat="47.4914" lon="6.64257">
        <ele>408</ele>
        <time>2015-12-06T10:15:16.000Z</time>
      </trkpt>
      <trkpt lat="47.49136" lon="6.64262">
        <ele>408</ele>
        <time>2015-12-06T10:15:17.000Z</time>
      </trkpt>
      <trkpt lat="47.49133" lon="6.64269">
        <ele>407</ele>
        <time>2015-12-06T10:15:18.000Z</time>
      </trkpt>
      <trkpt lat="47.4913" lon="6.64278">
        <ele>406</ele>
        <time>2015-12-06T10:15:19.000Z</time>
      </trkpt>
      <trkpt lat="47.49125" lon="6.64285">
        <ele>406</ele>
        <time>2015-12-06T10:15:20.000Z</time>
      </trkpt>
      <trkpt lat="47.4912" lon="6.64295">
        <ele>405</ele>
        <time>2015-12-06T10:15:21.000Z</time>
      </trkpt>
      <trkpt lat="47.49117" lon="6.64305">
        <ele>404</ele>
        <time>2015-12-06T10:15:22.000Z</time>
      </trkpt>
      <trkpt lat="47.49114" lon="6.64315">
        <ele>403</ele>
        <time>2015-12-06T10:15:23.000Z</time>
      </trkpt>
      <trkpt lat="47.4911" lon="6.64325">
        <ele>402</ele>
        <time>2015-12-06T10:15:24.000Z</time>
      </trkpt>
      <trkpt lat="47.49106" lon="6.64335">
        <ele>395</ele>
        <time>2015-12-06T10:15:25.000Z</time>
      </trkpt>
      <trkpt lat="47.49105" lon="6.64343">
        <ele>395</ele>
        <time>2015-12-06T10:15:26.000Z</time>
      </trkpt>
      <trkpt lat="47.49104" lon="6.64345">
        <ele>395</ele>
        <time>2015-12-06T10:15:27.000Z</time>
      </trkpt>
      <trkpt lat="47.49102" lon="6.64348">
        <ele>395</ele>
        <time>2015-12-06T10:15:28.000Z</time>
      </trkpt>
      <trkpt lat="47.49099" lon="6.64351">
        <ele>395</ele>
        <time>2015-12-06T10:15:30.000Z</time>
      </trkpt>
      <trkpt lat="47.49097" lon="6.64351">
        <ele>395</ele>
        <time>2015-12-06T10:15:31.000Z</time>
      </trkpt>
      <trkpt lat="47.49095" lon="6.64349">
        <ele>395</ele>
        <time>2015-12-06T10:15:34.000Z</time>
      </trkpt>
      <trkpt lat="47.49093" lon="6.64347">
        <ele>395</ele>
        <time>2015-12-06T10:15:35.000Z</time>
      </trkpt>
      <trkpt lat="47.49091" lon="6.64344">
        <ele>395</ele>
        <time>2015-12-06T10:15:37.000Z</time>
      </trkpt>
      <trkpt lat="47.4909" lon="6.64342">
        <ele>395</ele>
        <time>2015-12-06T10:15:38.000Z</time>
      </trkpt>
      <trkpt lat="47.49087" lon="6.64338">
        <ele>396</ele>
        <time>2015-12-06T10:15:39.000Z</time>
      </trkpt>
      <trkpt lat="47.49084" lon="6.64334">
        <ele>396</ele>
        <time>2015-12-06T10:15:40.000Z</time>
      </trkpt>
      <trkpt lat="47.49081" lon="6.64329">
        <ele>396</ele>
        <time>2015-12-06T10:15:41.000Z</time>
      </trkpt>
      <trkpt lat="47.49078" lon="6.64324">
        <ele>396</ele>
        <time>2015-12-06T10:15:42.000Z</time>
      </trkpt>
      <trkpt lat="47.49075" lon="6.64319">
        <ele>396</ele>
        <time>2015-12-06T10:15:43.000Z</time>
      </trkpt>
      <trkpt lat="47.49073" lon="6.64314">
        <ele>397</ele>
        <time>2015-12-06T10:15:44.000Z</time>
      </trkpt>
      <trkpt lat="47.49071" lon="6.6431">
        <ele>397</ele>
        <time>2015-12-06T10:15:45.000Z</time>
      </trkpt>
      <trkpt lat="47.49069" lon="6.64307">
        <ele>397</ele>
        <time>2015-12-06T10:15:46.000Z</time>
      </trkpt>
      <trkpt lat="47.49066" lon="6.64304">
        <ele>397</ele>
        <time>2015-12-06T10:15:47.000Z</time>
      </trkpt>
      <trkpt lat="47.49064" lon="6.64301">
        <ele>397</ele>
        <time>2015-12-06T10:15:48.000Z</time>
      </trkpt>
      <trkpt lat="47.49062" lon="6.64298">
        <ele>397</ele>
        <time>2015-12-06T10:15:49.000Z</time>
      </trkpt>
      <trkpt lat="47.4906" lon="6.64295">
        <ele>397</ele>
        <time>2015-12-06T10:15:50.000Z</time>
      </trkpt>
      <trkpt lat="47.49058" lon="6.64291">
        <ele>398</ele>
        <time>2015-12-06T10:15:51.000Z</time>
      </trkpt>
      <trkpt lat="47.49056" lon="6.64287">
        <ele>398</ele>
        <time>2015-12-06T10:15:52.000Z</time>
      </trkpt>
      <trkpt lat="47.49055" lon="6.64284">
        <ele>398</ele>
        <time>2015-12-06T10:15:53.000Z</time>
      </trkpt>
      <trkpt lat="47.49053" lon="6.64281">
        <ele>398</ele>
        <time>2015-12-06T10:15:54.000Z</time>
      </trkpt>
      <trkpt lat="47.49052" lon="6.64278">
        <ele>398</ele>
        <time>2015-12-06T10:15:55.000Z</time>
      </trkpt>
      <trkpt lat="47.49051" lon="6.64275">
        <ele>398</ele>
        <time>2015-12-06T10:15:56.000Z</time>
      </trkpt>
      <trkpt lat="47.49049" lon="6.64273">
        <ele>398</ele>
        <time>2015-12-06T10:15:57.000Z</time>
      </trkpt>
      <trkpt lat="47.49047" lon="6.64271">
        <ele>398</ele>
        <time>2015-12-06T10:15:58.000Z</time>
      </trkpt>
      <trkpt lat="47.49045" lon="6.64269">
        <ele>398</ele>
        <time>2015-12-06T10:15:59.000Z</time>
      </trkpt>
      <trkpt lat="47.49042" lon="6.64266">
        <ele>398</ele>
        <time>2015-12-06T10:16:00.000Z</time>
      </trkpt>
      <trkpt lat="47.4904" lon="6.64264">
        <ele>398</ele>
        <time>2015-12-06T10:16:01.000Z</time>
      </trkpt>
      <trkpt lat="47.49037" lon="6.6426">
        <ele>398</ele>
        <time>2015-12-06T10:16:02.000Z</time>
      </trkpt>
      <trkpt lat="47.49035" lon="6.64257">
        <ele>398</ele>
        <time>2015-12-06T10:16:03.000Z</time>
      </trkpt>
      <trkpt lat="47.49033" lon="6.64254">
        <ele>398</ele>
        <time>2015-12-06T10:16:04.000Z</time>
      </trkpt>
      <trkpt lat="47.49029" lon="6.64251">
        <ele>397</ele>
        <time>2015-12-06T10:16:05.000Z</time>
      </trkpt>
      <trkpt lat="47.49026" lon="6.64248">
        <ele>402</ele>
        <time>2015-12-06T10:16:06.000Z</time>
      </trkpt>
      <trkpt lat="47.49022" lon="6.64247">
        <ele>401</ele>
        <time>2015-12-06T10:16:07.000Z</time>
      </trkpt>
      <trkpt lat="47.49019" lon="6.64247">
        <ele>401</ele>
        <time>2015-12-06T10:16:08.000Z</time>
      </trkpt>
      <trkpt lat="47.49016" lon="6.64246">
        <ele>400</ele>
        <time>2015-12-06T10:16:09.000Z</time>
      </trkpt>
      <trkpt lat="47.4901" lon="6.64243">
        <ele>399</ele>
        <time>2015-12-06T10:16:10.000Z</time>
      </trkpt>
      <trkpt lat="47.49006" lon="6.64238">
        <ele>399</ele>
        <time>2015-12-06T10:16:11.000Z</time>
      </trkpt>
      <trkpt lat="47.49002" lon="6.64234">
        <ele>400</ele>
        <time>2015-12-06T10:16:12.000Z</time>
      </trkpt>
      <trkpt lat="47.48996" lon="6.64229">
        <ele>396</ele>
        <time>2015-12-06T10:16:13.000Z</time>
      </trkpt>
      <trkpt lat="47.48991" lon="6.64225">
        <ele>396</ele>
        <time>2015-12-06T10:16:14.000Z</time>
      </trkpt>
      <trkpt lat="47.48986" lon="6.64221">
        <ele>396</ele>
        <time>2015-12-06T10:16:15.000Z</time>
      </trkpt>
      <trkpt lat="47.48983" lon="6.64216">
        <ele>396</ele>
        <time>2015-12-06T10:16:15.999Z</time>
      </trkpt>
      <trkpt lat="47.48979" lon="6.64213">
        <ele>396</ele>
        <time>2015-12-06T10:16:17.000Z</time>
      </trkpt>
      <trkpt lat="47.48975" lon="6.6421">
        <ele>396</ele>
        <time>2015-12-06T10:16:18.000Z</time>
      </trkpt>
      <trkpt lat="47.48971" lon="6.64206">
        <ele>397</ele>
        <time>2015-12-06T10:16:19.000Z</time>
      </trkpt>
      <trkpt lat="47.48967" lon="6.64206">
        <ele>396</ele>
        <time>2015-12-06T10:16:20.000Z</time>
      </trkpt>
      <trkpt lat="47.48963" lon="6.64204">
        <ele>396</ele>
        <time>2015-12-06T10:16:21.000Z</time>
      </trkpt>
      <trkpt lat="47.48957" lon="6.64202">
        <ele>396</ele>
        <time>2015-12-06T10:16:22.000Z</time>
      </trkpt>
      <trkpt lat="47.48952" lon="6.642">
        <ele>396</ele>
        <time>2015-12-06T10:16:23.000Z</time>
      </trkpt>
      <trkpt lat="47.48947" lon="6.642">
        <ele>396</ele>
        <time>2015-12-06T10:16:24.001Z</time>
      </trkpt>
      <trkpt lat="47.48942" lon="6.64199">
        <ele>396</ele>
        <time>2015-12-06T10:16:25.001Z</time>
      </trkpt>
      <trkpt lat="47.48937" lon="6.64196">
        <ele>396</ele>
        <time>2015-12-06T10:16:26.000Z</time>
      </trkpt>
      <trkpt lat="47.48932" lon="6.64195">
        <ele>396</ele>
        <time>2015-12-06T10:16:27.000Z</time>
      </trkpt>
      <trkpt lat="47.48927" lon="6.64194">
        <ele>396</ele>
        <time>2015-12-06T10:16:28.000Z</time>
      </trkpt>
      <trkpt lat="47.48923" lon="6.64192">
        <ele>396</ele>
        <time>2015-12-06T10:16:29.000Z</time>
      </trkpt>
      <trkpt lat="47.48918" lon="6.6419">
        <ele>397</ele>
        <time>2015-12-06T10:16:30.000Z</time>
      </trkpt>
      <trkpt lat="47.48913" lon="6.64188">
        <ele>394</ele>
        <time>2015-12-06T10:16:31.000Z</time>
      </trkpt>
      <trkpt lat="47.48908" lon="6.64184">
        <ele>394</ele>
        <time>2015-12-06T10:16:32.000Z</time>
      </trkpt>
      <trkpt lat="47.48902" lon="6.64181">
        <ele>394</ele>
        <time>2015-12-06T10:16:33.000Z</time>
      </trkpt>
      <trkpt lat="47.48898" lon="6.64178">
        <ele>394</ele>
        <time>2015-12-06T10:16:34.000Z</time>
      </trkpt>
      <trkpt lat="47.48892" lon="6.64175">
        <ele>393</ele>
        <time>2015-12-06T10:16:35.000Z</time>
      </trkpt>
      <trkpt lat="47.48887" lon="6.64172">
        <ele>393</ele>
        <time>2015-12-06T10:16:36.000Z</time>
      </trkpt>
      <trkpt lat="47.48882" lon="6.64169">
        <ele>393</ele>
        <time>2015-12-06T10:16:37.000Z</time>
      </trkpt>
      <trkpt lat="47.48877" lon="6.64168">
        <ele>392</ele>
        <time>2015-12-06T10:16:38.000Z</time>
      </trkpt>
      <trkpt lat="47.48872" lon="6.64167">
        <ele>392</ele>
        <time>2015-12-06T10:16:39.000Z</time>
      </trkpt>
      <trkpt lat="47.48866" lon="6.64167">
        <ele>398</ele>
        <time>2015-12-06T10:16:40.000Z</time>
      </trkpt>
      <trkpt lat="47.48862" lon="6.64165">
        <ele>398</ele>
        <time>2015-12-06T10:16:41.000Z</time>
      </trkpt>
      <trkpt lat="47.48854" lon="6.64165">
        <ele>397</ele>
        <time>2015-12-06T10:16:42.000Z</time>
      </trkpt>
      <trkpt lat="47.48848" lon="6.64162">
        <ele>396</ele>
        <time>2015-12-06T10:16:43.000Z</time>
      </trkpt>
      <trkpt lat="47.48842" lon="6.6416">
        <ele>395</ele>
        <time>2015-12-06T10:16:44.000Z</time>
      </trkpt>
      <trkpt lat="47.48837" lon="6.64158">
        <ele>395</ele>
        <time>2015-12-06T10:16:45.000Z</time>
      </trkpt>
      <trkpt lat="47.48833" lon="6.64156">
        <ele>392</ele>
        <time>2015-12-06T10:16:46.000Z</time>
      </trkpt>
      <trkpt lat="47.4883" lon="6.64156">
        <ele>392</ele>
        <time>2015-12-06T10:16:47.000Z</time>
      </trkpt>
      <trkpt lat="47.48827" lon="6.64156">
        <ele>392</ele>
        <time>2015-12-06T10:16:48.000Z</time>
      </trkpt>
      <trkpt lat="47.48824" lon="6.64155">
        <ele>392</ele>
        <time>2015-12-06T10:16:49.000Z</time>
      </trkpt>
      <trkpt lat="47.4882" lon="6.64153">
        <ele>392</ele>
        <time>2015-12-06T10:16:50.000Z</time>
      </trkpt>
      <trkpt lat="47.48816" lon="6.64153">
        <ele>392</ele>
        <time>2015-12-06T10:16:51.000Z</time>
      </trkpt>
      <trkpt lat="47.48812" lon="6.6415">
        <ele>392</ele>
        <time>2015-12-06T10:16:52.000Z</time>
      </trkpt>
      <trkpt lat="47.48807" lon="6.64147">
        <ele>392</ele>
        <time>2015-12-06T10:16:53.000Z</time>
      </trkpt>
      <trkpt lat="47.48801" lon="6.64143">
        <ele>392</ele>
        <time>2015-12-06T10:16:54.000Z</time>
      </trkpt>
      <trkpt lat="47.48795" lon="6.64141">
        <ele>391</ele>
        <time>2015-12-06T10:16:55.000Z</time>
      </trkpt>
      <trkpt lat="47.48788" lon="6.64138">
        <ele>391</ele>
        <time>2015-12-06T10:16:56.000Z</time>
      </trkpt>
      <trkpt lat="47.48782" lon="6.64135">
        <ele>391</ele>
        <time>2015-12-06T10:16:57.000Z</time>
      </trkpt>
      <trkpt lat="47.48776" lon="6.64131">
        <ele>391</ele>
        <time>2015-12-06T10:16:58.000Z</time>
      </trkpt>
      <trkpt lat="47.48768" lon="6.64128">
        <ele>390</ele>
        <time>2015-12-06T10:16:59.000Z</time>
      </trkpt>
      <trkpt lat="47.48762" lon="6.6412">
        <ele>391</ele>
        <time>2015-12-06T10:17:00.000Z</time>
      </trkpt>
      <trkpt lat="47.48756" lon="6.64115">
        <ele>391</ele>
        <time>2015-12-06T10:17:01.000Z</time>
      </trkpt>
      <trkpt lat="47.4875" lon="6.64111">
        <ele>391</ele>
        <time>2015-12-06T10:17:02.000Z</time>
      </trkpt>
      <trkpt lat="47.48744" lon="6.64107">
        <ele>386</ele>
        <time>2015-12-06T10:17:03.000Z</time>
      </trkpt>
      <trkpt lat="47.48739" lon="6.64099">
        <ele>387</ele>
        <time>2015-12-06T10:17:04.000Z</time>
      </trkpt>
      <trkpt lat="47.48733" lon="6.64095">
        <ele>387</ele>
        <time>2015-12-06T10:17:05.000Z</time>
      </trkpt>
      <trkpt lat="47.48727" lon="6.6409">
        <ele>386</ele>
        <time>2015-12-06T10:17:06.000Z</time>
      </trkpt>
      <trkpt lat="47.48722" lon="6.64086">
        <ele>386</ele>
        <time>2015-12-06T10:17:07.000Z</time>
      </trkpt>
      <trkpt lat="47.48716" lon="6.64082">
        <ele>391</ele>
        <time>2015-12-06T10:17:08.000Z</time>
      </trkpt>
      <trkpt lat="47.4871" lon="6.64077">
        <ele>391</ele>
        <time>2015-12-06T10:17:09.000Z</time>
      </trkpt>
      <trkpt lat="47.48704" lon="6.64072">
        <ele>391</ele>
        <time>2015-12-06T10:17:10.000Z</time>
      </trkpt>
      <trkpt lat="47.48698" lon="6.64068">
        <ele>390</ele>
        <time>2015-12-06T10:17:11.000Z</time>
      </trkpt>
      <trkpt lat="47.48692" lon="6.64064">
        <ele>390</ele>
        <time>2015-12-06T10:17:12.000Z</time>
      </trkpt>
      <trkpt lat="47.48686" lon="6.6406">
        <ele>390</ele>
        <time>2015-12-06T10:17:13.000Z</time>
      </trkpt>
      <trkpt lat="47.4868" lon="6.64059">
        <ele>389</ele>
        <time>2015-12-06T10:17:14.000Z</time>
      </trkpt>
      <trkpt lat="47.48674" lon="6.64056">
        <ele>389</ele>
        <time>2015-12-06T10:17:15.000Z</time>
      </trkpt>
      <trkpt lat="47.48669" lon="6.64051">
        <ele>390</ele>
        <time>2015-12-06T10:17:16.000Z</time>
      </trkpt>
      <trkpt lat="47.48664" lon="6.64047">
        <ele>386</ele>
        <time>2015-12-06T10:17:17.000Z</time>
      </trkpt>
      <trkpt lat="47.48658" lon="6.64046">
        <ele>386</ele>
        <time>2015-12-06T10:17:18.000Z</time>
      </trkpt>
      <trkpt lat="47.48653" lon="6.6404">
        <ele>386</ele>
        <time>2015-12-06T10:17:19.000Z</time>
      </trkpt>
      <trkpt lat="47.48648" lon="6.64036">
        <ele>387</ele>
        <time>2015-12-06T10:17:20.000Z</time>
      </trkpt>
      <trkpt lat="47.48643" lon="6.64035">
        <ele>387</ele>
        <time>2015-12-06T10:17:21.000Z</time>
      </trkpt>
      <trkpt lat="47.48639" lon="6.64032">
        <ele>387</ele>
        <time>2015-12-06T10:17:22.000Z</time>
      </trkpt>
      <trkpt lat="47.48636" lon="6.64028">
        <ele>387</ele>
        <time>2015-12-06T10:17:23.000Z</time>
      </trkpt>
      <trkpt lat="47.48633" lon="6.64026">
        <ele>387</ele>
        <time>2015-12-06T10:17:24.000Z</time>
      </trkpt>
      <trkpt lat="47.48629" lon="6.64026">
        <ele>386</ele>
        <time>2015-12-06T10:17:25.000Z</time>
      </trkpt>
      <trkpt lat="47.48625" lon="6.64028">
        <ele>386</ele>
        <time>2015-12-06T10:17:26.000Z</time>
      </trkpt>
      <trkpt lat="47.48624" lon="6.64032">
        <ele>386</ele>
        <time>2015-12-06T10:17:27.000Z</time>
      </trkpt>
      <trkpt lat="47.48623" lon="6.64036">
        <ele>386</ele>
        <time>2015-12-06T10:17:28.000Z</time>
      </trkpt>
      <trkpt lat="47.48621" lon="6.64041">
        <ele>386</ele>
        <time>2015-12-06T10:17:29.000Z</time>
      </trkpt>
      <trkpt lat="47.48621" lon="6.64048">
        <ele>386</ele>
        <time>2015-12-06T10:17:30.000Z</time>
      </trkpt>
      <trkpt lat="47.4862" lon="6.64052">
        <ele>386</ele>
        <time>2015-12-06T10:17:31.000Z</time>
      </trkpt>
      <trkpt lat="47.48619" lon="6.64058">
        <ele>386</ele>
        <time>2015-12-06T10:17:32.000Z</time>
      </trkpt>
      <trkpt lat="47.48618" lon="6.64063">
        <ele>386</ele>
        <time>2015-12-06T10:17:33.000Z</time>
      </trkpt>
      <trkpt lat="47.48618" lon="6.64067">
        <ele>386</ele>
        <time>2015-12-06T10:17:34.000Z</time>
      </trkpt>
      <trkpt lat="47.48617" lon="6.64072">
        <ele>387</ele>
        <time>2015-12-06T10:17:35.000Z</time>
      </trkpt>
      <trkpt lat="47.48617" lon="6.64076">
        <ele>387</ele>
        <time>2015-12-06T10:17:36.000Z</time>
      </trkpt>
      <trkpt lat="47.48618" lon="6.6408">
        <ele>387</ele>
        <time>2015-12-06T10:17:37.000Z</time>
      </trkpt>
      <trkpt lat="47.48619" lon="6.64083">
        <ele>386</ele>
        <time>2015-12-06T10:17:38.000Z</time>
      </trkpt>
      <trkpt lat="47.48621" lon="6.64086">
        <ele>385</ele>
        <time>2015-12-06T10:17:39.000Z</time>
      </trkpt>
      <trkpt lat="47.48622" lon="6.64089">
        <ele>385</ele>
        <time>2015-12-06T10:17:40.000Z</time>
      </trkpt>
      <trkpt lat="47.48622" lon="6.64093">
        <ele>385</ele>
        <time>2015-12-06T10:17:41.000Z</time>
      </trkpt>
      <trkpt lat="47.48623" lon="6.64096">
        <ele>385</ele>
        <time>2015-12-06T10:17:42.000Z</time>
      </trkpt>
      <trkpt lat="47.48624" lon="6.641">
        <ele>384</ele>
        <time>2015-12-06T10:17:43.000Z</time>
      </trkpt>
      <trkpt lat="47.48626" lon="6.64103">
        <ele>384</ele>
        <time>2015-12-06T10:17:44.000Z</time>
      </trkpt>
      <trkpt lat="47.48633" lon="6.64109">
        <ele>384</ele>
        <time>2015-12-06T10:17:45.000Z</time>
      </trkpt>
      <trkpt lat="47.48629" lon="6.64113">
        <ele>384</ele>
        <time>2015-12-06T10:17:46.000Z</time>
      </trkpt>
      <trkpt lat="47.48626" lon="6.64118">
        <ele>384</ele>
        <time>2015-12-06T10:17:47.000Z</time>
      </trkpt>
      <trkpt lat="47.48624" lon="6.64122">
        <ele>384</ele>
        <time>2015-12-06T10:17:48.000Z</time>
      </trkpt>
      <trkpt lat="47.48623" lon="6.64125">
        <ele>384</ele>
        <time>2015-12-06T10:17:49.000Z</time>
      </trkpt>
      <trkpt lat="47.48623" lon="6.6413">
        <ele>384</ele>
        <time>2015-12-06T10:17:50.000Z</time>
      </trkpt>
      <trkpt lat="47.48624" lon="6.64133">
        <ele>384</ele>
        <time>2015-12-06T10:17:51.000Z</time>
      </trkpt>
      <trkpt lat="47.48622" lon="6.64139">
        <ele>384</ele>
        <time>2015-12-06T10:17:53.000Z</time>
      </trkpt>
      <trkpt lat="47.48622" lon="6.64142">
        <ele>384</ele>
        <time>2015-12-06T10:17:54.000Z</time>
      </trkpt>
      <trkpt lat="47.48621" lon="6.64145">
        <ele>384</ele>
        <time>2015-12-06T10:17:55.000Z</time>
      </trkpt>
      <trkpt lat="47.4862" lon="6.64148">
        <ele>384</ele>
        <time>2015-12-06T10:17:56.000Z</time>
      </trkpt>
      <trkpt lat="47.4862" lon="6.64152">
        <ele>384</ele>
        <time>2015-12-06T10:17:57.000Z</time>
      </trkpt>
      <trkpt lat="47.48619" lon="6.64156">
        <ele>384</ele>
        <time>2015-12-06T10:17:58.000Z</time>
      </trkpt>
      <trkpt lat="47.48618" lon="6.64159">
        <ele>384</ele>
        <time>2015-12-06T10:17:59.000Z</time>
      </trkpt>
      <trkpt lat="47.48618" lon="6.64163">
        <ele>384</ele>
        <time>2015-12-06T10:18:00.000Z</time>
      </trkpt>
      <trkpt lat="47.48616" lon="6.64166">
        <ele>384</ele>
        <time>2015-12-06T10:18:01.000Z</time>
      </trkpt>
      <trkpt lat="47.48615" lon="6.64168">
        <ele>383</ele>
        <time>2015-12-06T10:18:02.000Z</time>
      </trkpt>
      <trkpt lat="47.48613" lon="6.64171">
        <ele>383</ele>
        <time>2015-12-06T10:18:03.000Z</time>
      </trkpt>
      <trkpt lat="47.48611" lon="6.64173">
        <ele>383</ele>
        <time>2015-12-06T10:18:04.000Z</time>
      </trkpt>
      <trkpt lat="47.48609" lon="6.64176">
        <ele>383</ele>
        <time>2015-12-06T10:18:05.000Z</time>
      </trkpt>
      <trkpt lat="47.48607" lon="6.64178">
        <ele>384</ele>
        <time>2015-12-06T10:18:06.000Z</time>
      </trkpt>
      <trkpt lat="47.48605" lon="6.64181">
        <ele>384</ele>
        <time>2015-12-06T10:18:07.000Z</time>
      </trkpt>
      <trkpt lat="47.48604" lon="6.64185">
        <ele>384</ele>
        <time>2015-12-06T10:18:08.000Z</time>
      </trkpt>
      <trkpt lat="47.48602" lon="6.64188">
        <ele>384</ele>
        <time>2015-12-06T10:18:09.000Z</time>
      </trkpt>
      <trkpt lat="47.48601" lon="6.64191">
        <ele>384</ele>
        <time>2015-12-06T10:18:10.000Z</time>
      </trkpt>
      <trkpt lat="47.48599" lon="6.64194">
        <ele>384</ele>
        <time>2015-12-06T10:18:11.000Z</time>
      </trkpt>
      <trkpt lat="47.48598" lon="6.64197">
        <ele>384</ele>
        <time>2015-12-06T10:18:12.000Z</time>
      </trkpt>
      <trkpt lat="47.48596" lon="6.642">
        <ele>384</ele>
        <time>2015-12-06T10:18:13.000Z</time>
      </trkpt>
      <trkpt lat="47.48594" lon="6.64204">
        <ele>384</ele>
        <time>2015-12-06T10:18:14.000Z</time>
      </trkpt>
      <trkpt lat="47.48592" lon="6.64207">
        <ele>384</ele>
        <time>2015-12-06T10:18:15.000Z</time>
      </trkpt>
      <trkpt lat="47.4859" lon="6.64211">
        <ele>384</ele>
        <time>2015-12-06T10:18:16.000Z</time>
      </trkpt>
      <trkpt lat="47.48589" lon="6.64214">
        <ele>384</ele>
        <time>2015-12-06T10:18:17.000Z</time>
      </trkpt>
      <trkpt lat="47.48587" lon="6.64218">
        <ele>384</ele>
        <time>2015-12-06T10:18:18.000Z</time>
      </trkpt>
      <trkpt lat="47.48586" lon="6.64221">
        <ele>384</ele>
        <time>2015-12-06T10:18:19.000Z</time>
      </trkpt>
      <trkpt lat="47.48584" lon="6.64225">
        <ele>384</ele>
        <time>2015-12-06T10:18:20.000Z</time>
      </trkpt>
      <trkpt lat="47.48583" lon="6.64229">
        <ele>386</ele>
        <time>2015-12-06T10:18:21.000Z</time>
      </trkpt>
      <trkpt lat="47.48581" lon="6.64233">
        <ele>386</ele>
        <time>2015-12-06T10:18:22.000Z</time>
      </trkpt>
      <trkpt lat="47.4858" lon="6.64237">
        <ele>385</ele>
        <time>2015-12-06T10:18:23.000Z</time>
      </trkpt>
      <trkpt lat="47.48578" lon="6.64241">
        <ele>385</ele>
        <time>2015-12-06T10:18:24.000Z</time>
      </trkpt>
      <trkpt lat="47.48576" lon="6.64245">
        <ele>385</ele>
        <time>2015-12-06T10:18:25.000Z</time>
      </trkpt>
      <trkpt lat="47.48574" lon="6.6425">
        <ele>385</ele>
        <time>2015-12-06T10:18:26.000Z</time>
      </trkpt>
      <trkpt lat="47.48571" lon="6.64254">
        <ele>386</ele>
        <time>2015-12-06T10:18:27.000Z</time>
      </trkpt>
      <trkpt lat="47.48569" lon="6.64258">
        <ele>386</ele>
        <time>2015-12-06T10:18:28.000Z</time>
      </trkpt>
      <trkpt lat="47.48567" lon="6.64263">
        <ele>386</ele>
        <time>2015-12-06T10:18:29.000Z</time>
      </trkpt>
      <trkpt lat="47.48565" lon="6.64267">
        <ele>386</ele>
        <time>2015-12-06T10:18:30.000Z</time>
      </trkpt>
      <trkpt lat="47.48563" lon="6.64271">
        <ele>386</ele>
        <time>2015-12-06T10:18:31.000Z</time>
      </trkpt>
      <trkpt lat="47.48561" lon="6.64276">
        <ele>386</ele>
        <time>2015-12-06T10:18:32.000Z</time>
      </trkpt>
      <trkpt lat="47.48559" lon="6.64281">
        <ele>386</ele>
        <time>2015-12-06T10:18:33.000Z</time>
      </trkpt>
      <trkpt lat="47.48557" lon="6.64285">
        <ele>387</ele>
        <time>2015-12-06T10:18:34.000Z</time>
      </trkpt>
      <trkpt lat="47.48555" lon="6.6429">
        <ele>387</ele>
        <time>2015-12-06T10:18:35.000Z</time>
      </trkpt>
      <trkpt lat="47.48554" lon="6.64294">
        <ele>387</ele>
        <time>2015-12-06T10:18:36.000Z</time>
      </trkpt>
      <trkpt lat="47.48552" lon="6.64298">
        <ele>387</ele>
        <time>2015-12-06T10:18:37.000Z</time>
      </trkpt>
      <trkpt lat="47.48551" lon="6.64302">
        <ele>387</ele>
        <time>2015-12-06T10:18:38.000Z</time>
      </trkpt>
      <trkpt lat="47.48551" lon="6.64306">
        <ele>387</ele>
        <time>2015-12-06T10:18:39.000Z</time>
      </trkpt>
      <trkpt lat="47.4855" lon="6.6431">
        <ele>387</ele>
        <time>2015-12-06T10:18:40.000Z</time>
      </trkpt>
      <trkpt lat="47.4855" lon="6.64313">
        <ele>387</ele>
        <time>2015-12-06T10:18:41.000Z</time>
      </trkpt>
      <trkpt lat="47.48548" lon="6.64317">
        <ele>387</ele>
        <time>2015-12-06T10:18:42.000Z</time>
      </trkpt>
      <trkpt lat="47.48547" lon="6.6432">
        <ele>387</ele>
        <time>2015-12-06T10:18:43.000Z</time>
      </trkpt>
      <trkpt lat="47.48546" lon="6.64323">
        <ele>387</ele>
        <time>2015-12-06T10:18:44.000Z</time>
      </trkpt>
      <trkpt lat="47.48546" lon="6.64329">
        <ele>388</ele>
        <time>2015-12-06T10:18:46.000Z</time>
      </trkpt>
      <trkpt lat="47.48545" lon="6.64332">
        <ele>388</ele>
        <time>2015-12-06T10:18:47.000Z</time>
      </trkpt>
      <trkpt lat="47.48544" lon="6.64336">
        <ele>392</ele>
        <time>2015-12-06T10:18:49.000Z</time>
      </trkpt>
      <trkpt lat="47.48544" lon="6.64339">
        <ele>392</ele>
        <time>2015-12-06T10:18:50.000Z</time>
      </trkpt>
      <trkpt lat="47.48542" lon="6.64345">
        <ele>393</ele>
        <time>2015-12-06T10:18:52.000Z</time>
      </trkpt>
      <trkpt lat="47.48541" lon="6.64347">
        <ele>393</ele>
        <time>2015-12-06T10:18:53.000Z</time>
      </trkpt>
      <trkpt lat="47.48539" lon="6.64352">
        <ele>393</ele>
        <time>2015-12-06T10:18:55.000Z</time>
      </trkpt>
      <trkpt lat="47.48537" lon="6.64355">
        <ele>393</ele>
        <time>2015-12-06T10:18:56.000Z</time>
      </trkpt>
      <trkpt lat="47.48535" lon="6.64359">
        <ele>394</ele>
        <time>2015-12-06T10:18:58.000Z</time>
      </trkpt>
      <trkpt lat="47.48535" lon="6.64362">
        <ele>394</ele>
        <time>2015-12-06T10:18:59.000Z</time>
      </trkpt>
      <trkpt lat="47.48534" lon="6.64367">
        <ele>394</ele>
        <time>2015-12-06T10:19:01.000Z</time>
      </trkpt>
      <trkpt lat="47.48534" lon="6.64369">
        <ele>394</ele>
        <time>2015-12-06T10:19:02.000Z</time>
      </trkpt>
      <trkpt lat="47.48532" lon="6.64374">
        <ele>394</ele>
        <time>2015-12-06T10:19:05.000Z</time>
      </trkpt>
      <trkpt lat="47.48532" lon="6.64375">
        <ele>395</ele>
        <time>2015-12-06T10:19:06.000Z</time>
      </trkpt>
      <trkpt lat="47.48529" lon="6.64378">
        <ele>395</ele>
        <time>2015-12-06T10:19:08.000Z</time>
      </trkpt>
      <trkpt lat="47.48527" lon="6.64378">
        <ele>395</ele>
        <time>2015-12-06T10:19:09.000Z</time>
      </trkpt>
      <trkpt lat="47.48523" lon="6.64378">
        <ele>395</ele>
        <time>2015-12-06T10:19:11.000Z</time>
      </trkpt>
      <trkpt lat="47.4852" lon="6.64378">
        <ele>395</ele>
        <time>2015-12-06T10:19:12.000Z</time>
      </trkpt>
      <trkpt lat="47.48518" lon="6.64378">
        <ele>395</ele>
        <time>2015-12-06T10:19:12.999Z</time>
      </trkpt>
      <trkpt lat="47.48512" lon="6.64378">
        <ele>395</ele>
        <time>2015-12-06T10:19:14.000Z</time>
      </trkpt>
      <trkpt lat="47.48509" lon="6.64382">
        <ele>396</ele>
        <time>2015-12-06T10:19:16.000Z</time>
      </trkpt>
      <trkpt lat="47.48508" lon="6.64384">
        <ele>396</ele>
        <time>2015-12-06T10:19:17.001Z</time>
      </trkpt>
      <trkpt lat="47.48509" lon="6.64388">
        <ele>396</ele>
        <time>2015-12-06T10:19:18.000Z</time>
      </trkpt>
      <trkpt lat="47.48509" lon="6.64391">
        <ele>397</ele>
        <time>2015-12-06T10:19:19.000Z</time>
      </trkpt>
      <trkpt lat="47.48507" lon="6.64394">
        <ele>397</ele>
        <time>2015-12-06T10:19:20.000Z</time>
      </trkpt>
      <trkpt lat="47.48506" lon="6.64397">
        <ele>398</ele>
        <time>2015-12-06T10:19:21.000Z</time>
      </trkpt>
      <trkpt lat="47.48503" lon="6.644">
        <ele>398</ele>
        <time>2015-12-06T10:19:23.000Z</time>
      </trkpt>
      <trkpt lat="47.48503" lon="6.64402">
        <ele>399</ele>
        <time>2015-12-06T10:19:24.000Z</time>
      </trkpt>
      <trkpt lat="47.48501" lon="6.64408">
        <ele>400</ele>
        <time>2015-12-06T10:19:26.000Z</time>
      </trkpt>
      <trkpt lat="47.485" lon="6.6441">
        <ele>400</ele>
        <time>2015-12-06T10:19:27.000Z</time>
      </trkpt>
      <trkpt lat="47.48497" lon="6.64414">
        <ele>401</ele>
        <time>2015-12-06T10:19:29.000Z</time>
      </trkpt>
      <trkpt lat="47.48495" lon="6.64416">
        <ele>401</ele>
        <time>2015-12-06T10:19:30.000Z</time>
      </trkpt>
      <trkpt lat="47.48493" lon="6.64422">
        <ele>404</ele>
        <time>2015-12-06T10:19:33.000Z</time>
      </trkpt>
      <trkpt lat="47.48492" lon="6.64423">
        <ele>404</ele>
        <time>2015-12-06T10:19:34.001Z</time>
      </trkpt>
      <trkpt lat="47.48494" lon="6.64427">
        <ele>405</ele>
        <time>2015-12-06T10:19:37.000Z</time>
      </trkpt>
      <trkpt lat="47.48495" lon="6.6443">
        <ele>405</ele>
        <time>2015-12-06T10:19:38.000Z</time>
      </trkpt>
      <trkpt lat="47.48496" lon="6.64433">
        <ele>405</ele>
        <time>2015-12-06T10:19:39.000Z</time>
      </trkpt>
      <trkpt lat="47.48498" lon="6.64437">
        <ele>406</ele>
        <time>2015-12-06T10:19:40.000Z</time>
      </trkpt>
      <trkpt lat="47.48499" lon="6.6444">
        <ele>406</ele>
        <time>2015-12-06T10:19:41.000Z</time>
      </trkpt>
      <trkpt lat="47.48499" lon="6.64443">
        <ele>407</ele>
        <time>2015-12-06T10:19:42.000Z</time>
      </trkpt>
      <trkpt lat="47.48498" lon="6.64448">
        <ele>407</ele>
        <time>2015-12-06T10:19:44.000Z</time>
      </trkpt>
      <trkpt lat="47.48497" lon="6.64451">
        <ele>408</ele>
        <time>2015-12-06T10:19:45.000Z</time>
      </trkpt>
      <trkpt lat="47.48494" lon="6.64456">
        <ele>408</ele>
        <time>2015-12-06T10:19:50.000Z</time>
      </trkpt>
      <trkpt lat="47.48494" lon="6.64456">
        <ele>408</ele>
        <time>2015-12-06T10:19:51.000Z</time>
      </trkpt>
      <trkpt lat="47.48491" lon="6.6446">
        <ele>409</ele>
        <time>2015-12-06T10:19:55.000Z</time>
      </trkpt>
      <trkpt lat="47.48491" lon="6.64465">
        <ele>409</ele>
        <time>2015-12-06T10:19:56.000Z</time>
      </trkpt>
      <trkpt lat="47.48489" lon="6.6447">
        <ele>410</ele>
        <time>2015-12-06T10:19:59.000Z</time>
      </trkpt>
      <trkpt lat="47.48488" lon="6.64472">
        <ele>410</ele>
        <time>2015-12-06T10:20:00.000Z</time>
      </trkpt>
      <trkpt lat="47.48487" lon="6.64478">
        <ele>410</ele>
        <time>2015-12-06T10:20:03.000Z</time>
      </trkpt>
      <trkpt lat="47.48486" lon="6.64478">
        <ele>410</ele>
        <time>2015-12-06T10:20:04.000Z</time>
      </trkpt>
      <trkpt lat="47.48484" lon="6.64484">
        <ele>411</ele>
        <time>2015-12-06T10:20:08.000Z</time>
      </trkpt>
      <trkpt lat="47.48483" lon="6.64486">
        <ele>411</ele>
        <time>2015-12-06T10:20:09.000Z</time>
      </trkpt>
      <trkpt lat="47.4848" lon="6.64487">
        <ele>411</ele>
        <time>2015-12-06T10:20:12.000Z</time>
      </trkpt>
      <trkpt lat="47.48479" lon="6.64487">
        <ele>411</ele>
        <time>2015-12-06T10:20:13.000Z</time>
      </trkpt>
      <trkpt lat="47.48475" lon="6.6449">
        <ele>411</ele>
        <time>2015-12-06T10:20:17.000Z</time>
      </trkpt>
      <trkpt lat="47.48475" lon="6.64491">
        <ele>411</ele>
        <time>2015-12-06T10:20:18.000Z</time>
      </trkpt>
      <trkpt lat="47.48479" lon="6.64491">
        <ele>411</ele>
        <time>2015-12-06T10:21:01.000Z</time>
      </trkpt>
      <trkpt lat="47.48479" lon="6.64491">
        <ele>411</ele>
        <time>2015-12-06T10:21:02.000Z</time>
      </trkpt>
      <trkpt lat="47.48482" lon="6.64486">
        <ele>411</ele>
        <time>2015-12-06T10:22:32.000Z</time>
      </trkpt>
      <trkpt lat="47.48482" lon="6.64486">
        <ele>411</ele>
        <time>2015-12-06T10:22:33.000Z</time>
      </trkpt>
      <trkpt lat="47.48478" lon="6.64489">
        <ele>411</ele>
        <time>2015-12-06T10:23:08.000Z</time>
      </trkpt>
      <trkpt lat="47.48478" lon="6.6449">
        <ele>411</ele>
        <time>2015-12-06T10:23:09.000Z</time>
      </trkpt>
      <trkpt lat="47.48477" lon="6.64496">
        <ele>411</ele>
        <time>2015-12-06T10:23:35.000Z</time>
      </trkpt>
      <trkpt lat="47.48475" lon="6.64497">
        <ele>411</ele>
        <time>2015-12-06T10:23:36.000Z</time>
      </trkpt>
      <trkpt lat="47.48472" lon="6.645">
        <ele>411</ele>
        <time>2015-12-06T10:23:44.000Z</time>
      </trkpt>
      <trkpt lat="47.48471" lon="6.64501">
        <ele>418</ele>
        <time>2015-12-06T10:23:45.000Z</time>
      </trkpt>
      <trkpt lat="47.48468" lon="6.64502">
        <ele>418</ele>
        <time>2015-12-06T10:23:49.000Z</time>
      </trkpt>
      <trkpt lat="47.48467" lon="6.64502">
        <ele>418</ele>
        <time>2015-12-06T10:23:50.000Z</time>
      </trkpt>
      <trkpt lat="47.48463" lon="6.64502">
        <ele>418</ele>
        <time>2015-12-06T10:23:53.000Z</time>
      </trkpt>
      <trkpt lat="47.48462" lon="6.64502">
        <ele>418</ele>
        <time>2015-12-06T10:23:54.000Z</time>
      </trkpt>
      <trkpt lat="47.48459" lon="6.64507">
        <ele>418</ele>
        <time>2015-12-06T10:23:58.000Z</time>
      </trkpt>
      <trkpt lat="47.48458" lon="6.64508">
        <ele>418</ele>
        <time>2015-12-06T10:23:59.000Z</time>
      </trkpt>
      <trkpt lat="47.48455" lon="6.64512">
        <ele>418</ele>
        <time>2015-12-06T10:24:02.000Z</time>
      </trkpt>
      <trkpt lat="47.48454" lon="6.64514">
        <ele>419</ele>
        <time>2015-12-06T10:24:03.000Z</time>
      </trkpt>
      <trkpt lat="47.48451" lon="6.64516">
        <ele>419</ele>
        <time>2015-12-06T10:24:05.000Z</time>
      </trkpt>
      <trkpt lat="47.4845" lon="6.64517">
        <ele>419</ele>
        <time>2015-12-06T10:24:06.000Z</time>
      </trkpt>
      <trkpt lat="47.48446" lon="6.64521">
        <ele>419</ele>
        <time>2015-12-06T10:24:09.000Z</time>
      </trkpt>
      <trkpt lat="47.48446" lon="6.64523">
        <ele>419</ele>
        <time>2015-12-06T10:24:10.000Z</time>
      </trkpt>
      <trkpt lat="47.48443" lon="6.64527">
        <ele>419</ele>
        <time>2015-12-06T10:24:13.000Z</time>
      </trkpt>
      <trkpt lat="47.48441" lon="6.64528">
        <ele>419</ele>
        <time>2015-12-06T10:24:14.000Z</time>
      </trkpt>
      <trkpt lat="47.48438" lon="6.6453">
        <ele>419</ele>
        <time>2015-12-06T10:24:17.000Z</time>
      </trkpt>
      <trkpt lat="47.48436" lon="6.6453">
        <ele>419</ele>
        <time>2015-12-06T10:24:18.000Z</time>
      </trkpt>
      <trkpt lat="47.48432" lon="6.64532">
        <ele>420</ele>
        <time>2015-12-06T10:24:20.000Z</time>
      </trkpt>
      <trkpt lat="47.48431" lon="6.64533">
        <ele>420</ele>
        <time>2015-12-06T10:24:21.000Z</time>
      </trkpt>
      <trkpt lat="47.48428" lon="6.64538">
        <ele>420</ele>
        <time>2015-12-06T10:24:26.000Z</time>
      </trkpt>
      <trkpt lat="47.48427" lon="6.64538">
        <ele>420</ele>
        <time>2015-12-06T10:24:27.000Z</time>
      </trkpt>
      <trkpt lat="47.48424" lon="6.64542">
        <ele>421</ele>
        <time>2015-12-06T10:24:38.000Z</time>
      </trkpt>
      <trkpt lat="47.48424" lon="6.64542">
        <ele>421</ele>
        <time>2015-12-06T10:24:39.000Z</time>
      </trkpt>
      <trkpt lat="47.48421" lon="6.64546">
        <ele>421</ele>
        <time>2015-12-06T10:24:59.000Z</time>
      </trkpt>
      <trkpt lat="47.4842" lon="6.64548">
        <ele>421</ele>
        <time>2015-12-06T10:25:00.000Z</time>
      </trkpt>
      <trkpt lat="47.48418" lon="6.64553">
        <ele>422</ele>
        <time>2015-12-06T10:25:06.000Z</time>
      </trkpt>
      <trkpt lat="47.48416" lon="6.64554">
        <ele>422</ele>
        <time>2015-12-06T10:25:07.000Z</time>
      </trkpt>
      <trkpt lat="47.48413" lon="6.64558">
        <ele>422</ele>
        <time>2015-12-06T10:25:11.000Z</time>
      </trkpt>
      <trkpt lat="47.48412" lon="6.64559">
        <ele>422</ele>
        <time>2015-12-06T10:25:12.000Z</time>
      </trkpt>
      <trkpt lat="47.48409" lon="6.6456">
        <ele>423</ele>
        <time>2015-12-06T10:25:15.000Z</time>
      </trkpt>
      <trkpt lat="47.48407" lon="6.64561">
        <ele>423</ele>
        <time>2015-12-06T10:25:16.000Z</time>
      </trkpt>
      <trkpt lat="47.48405" lon="6.64564">
        <ele>423</ele>
        <time>2015-12-06T10:25:18.000Z</time>
      </trkpt>
      <trkpt lat="47.48404" lon="6.64565">
        <ele>423</ele>
        <time>2015-12-06T10:25:19.000Z</time>
      </trkpt>
      <trkpt lat="47.48401" lon="6.6457">
        <ele>423</ele>
        <time>2015-12-06T10:25:26.000Z</time>
      </trkpt>
      <trkpt lat="47.48401" lon="6.6457">
        <ele>423</ele>
        <time>2015-12-06T10:25:27.000Z</time>
      </trkpt>
      <trkpt lat="47.48396" lon="6.64571">
        <ele>423</ele>
        <time>2015-12-06T10:25:31.000Z</time>
      </trkpt>
      <trkpt lat="47.48395" lon="6.64572">
        <ele>423</ele>
        <time>2015-12-06T10:25:32.000Z</time>
      </trkpt>
      <trkpt lat="47.48391" lon="6.64574">
        <ele>423</ele>
        <time>2015-12-06T10:25:35.000Z</time>
      </trkpt>
      <trkpt lat="47.48389" lon="6.64573">
        <ele>423</ele>
        <time>2015-12-06T10:25:36.000Z</time>
      </trkpt>
      <trkpt lat="47.48385" lon="6.64572">
        <ele>422</ele>
        <time>2015-12-06T10:25:38.000Z</time>
      </trkpt>
      <trkpt lat="47.48383" lon="6.64571">
        <ele>422</ele>
        <time>2015-12-06T10:25:39.000Z</time>
      </trkpt>
      <trkpt lat="47.48379" lon="6.64569">
        <ele>422</ele>
        <time>2015-12-06T10:25:41.000Z</time>
      </trkpt>
      <trkpt lat="47.48377" lon="6.64568">
        <ele>422</ele>
        <time>2015-12-06T10:25:42.000Z</time>
      </trkpt>
      <trkpt lat="47.48374" lon="6.64566">
        <ele>422</ele>
        <time>2015-12-06T10:25:44.000Z</time>
      </trkpt>
      <trkpt lat="47.48372" lon="6.64564">
        <ele>421</ele>
        <time>2015-12-06T10:25:45.000Z</time>
      </trkpt>
      <trkpt lat="47.48368" lon="6.64564">
        <ele>421</ele>
        <time>2015-12-06T10:25:48.000Z</time>
      </trkpt>
      <trkpt lat="47.48367" lon="6.64565">
        <ele>422</ele>
        <time>2015-12-06T10:25:49.000Z</time>
      </trkpt>
      <trkpt lat="47.48364" lon="6.64567">
        <ele>422</ele>
        <time>2015-12-06T10:25:51.000Z</time>
      </trkpt>
      <trkpt lat="47.48362" lon="6.64568">
        <ele>422</ele>
        <time>2015-12-06T10:25:52.000Z</time>
      </trkpt>
      <trkpt lat="47.48358" lon="6.64571">
        <ele>422</ele>
        <time>2015-12-06T10:25:54.000Z</time>
      </trkpt>
      <trkpt lat="47.48357" lon="6.64571">
        <ele>422</ele>
        <time>2015-12-06T10:25:55.000Z</time>
      </trkpt>
      <trkpt lat="47.48354" lon="6.6457">
        <ele>422</ele>
        <time>2015-12-06T10:25:57.000Z</time>
      </trkpt>
      <trkpt lat="47.48352" lon="6.6457">
        <ele>423</ele>
        <time>2015-12-06T10:25:58.000Z</time>
      </trkpt>
      <trkpt lat="47.48349" lon="6.6457">
        <ele>423</ele>
        <time>2015-12-06T10:26:00.000Z</time>
      </trkpt>
      <trkpt lat="47.48347" lon="6.6457">
        <ele>423</ele>
        <time>2015-12-06T10:26:01.000Z</time>
      </trkpt>
      <trkpt lat="47.48343" lon="6.64574">
        <ele>424</ele>
        <time>2015-12-06T10:26:04.000Z</time>
      </trkpt>
      <trkpt lat="47.48342" lon="6.64576">
        <ele>424</ele>
        <time>2015-12-06T10:26:05.000Z</time>
      </trkpt>
      <trkpt lat="47.48339" lon="6.64579">
        <ele>425</ele>
        <time>2015-12-06T10:26:08.000Z</time>
      </trkpt>
      <trkpt lat="47.48338" lon="6.6458">
        <ele>425</ele>
        <time>2015-12-06T10:26:09.000Z</time>
      </trkpt>
      <trkpt lat="47.48334" lon="6.64582">
        <ele>427</ele>
        <time>2015-12-06T10:26:15.000Z</time>
      </trkpt>
      <trkpt lat="47.48333" lon="6.64583">
        <ele>427</ele>
        <time>2015-12-06T10:26:16.000Z</time>
      </trkpt>
      <trkpt lat="47.48329" lon="6.64582">
        <ele>425</ele>
        <time>2015-12-06T10:26:26.000Z</time>
      </trkpt>
      <trkpt lat="47.48329" lon="6.64582">
        <ele>425</ele>
        <time>2015-12-06T10:26:27.000Z</time>
      </trkpt>
      <trkpt lat="47.48332" lon="6.64578">
        <ele>425</ele>
        <time>2015-12-06T10:26:39.000Z</time>
      </trkpt>
      <trkpt lat="47.48333" lon="6.64578">
        <ele>425</ele>
        <time>2015-12-06T10:26:40.000Z</time>
      </trkpt>
      <trkpt lat="47.48328" lon="6.64577">
        <ele>424</ele>
        <time>2015-12-06T10:26:51.000Z</time>
      </trkpt>
      <trkpt lat="47.48327" lon="6.64577">
        <ele>424</ele>
        <time>2015-12-06T10:26:52.000Z</time>
      </trkpt>
      <trkpt lat="47.48323" lon="6.64578">
        <ele>423</ele>
        <time>2015-12-06T10:26:55.000Z</time>
      </trkpt>
      <trkpt lat="47.48321" lon="6.64579">
        <ele>423</ele>
        <time>2015-12-06T10:26:56.000Z</time>
      </trkpt>
      <trkpt lat="47.48317" lon="6.6458">
        <ele>422</ele>
        <time>2015-12-06T10:27:01.000Z</time>
      </trkpt>
      <trkpt lat="47.48316" lon="6.6458">
        <ele>422</ele>
        <time>2015-12-06T10:27:02.000Z</time>
      </trkpt>
      <trkpt lat="47.48313" lon="6.64579">
        <ele>421</ele>
        <time>2015-12-06T10:27:08.000Z</time>
      </trkpt>
      <trkpt lat="47.48311" lon="6.64578">
        <ele>421</ele>
        <time>2015-12-06T10:27:09.000Z</time>
      </trkpt>
      <trkpt lat="47.48308" lon="6.64577">
        <ele>421</ele>
        <time>2015-12-06T10:27:10.000Z</time>
      </trkpt>
      <trkpt lat="47.48306" lon="6.64576">
        <ele>420</ele>
        <time>2015-12-06T10:27:11.000Z</time>
      </trkpt>
      <trkpt lat="47.48304" lon="6.64574">
        <ele>420</ele>
        <time>2015-12-06T10:27:12.000Z</time>
      </trkpt>
      <trkpt lat="47.48302" lon="6.64571">
        <ele>420</ele>
        <time>2015-12-06T10:27:13.000Z</time>
      </trkpt>
      <trkpt lat="47.483" lon="6.64569">
        <ele>419</ele>
        <time>2015-12-06T10:27:14.000Z</time>
      </trkpt>
      <trkpt lat="47.48298" lon="6.64567">
        <ele>419</ele>
        <time>2015-12-06T10:27:15.000Z</time>
      </trkpt>
      <trkpt lat="47.48294" lon="6.64565">
        <ele>419</ele>
        <time>2015-12-06T10:27:17.000Z</time>
      </trkpt>
      <trkpt lat="47.48292" lon="6.64564">
        <ele>419</ele>
        <time>2015-12-06T10:27:18.000Z</time>
      </trkpt>
      <trkpt lat="47.48291" lon="6.64558">
        <ele>418</ele>
        <time>2015-12-06T10:27:20.000Z</time>
      </trkpt>
      <trkpt lat="47.4829" lon="6.64555">
        <ele>418</ele>
        <time>2015-12-06T10:27:21.000Z</time>
      </trkpt>
      <trkpt lat="47.4829" lon="6.64548">
        <ele>417</ele>
        <time>2015-12-06T10:27:23.000Z</time>
      </trkpt>
      <trkpt lat="47.4829" lon="6.64545">
        <ele>417</ele>
        <time>2015-12-06T10:27:24.000Z</time>
      </trkpt>
      <trkpt lat="47.4829" lon="6.64542">
        <ele>416</ele>
        <time>2015-12-06T10:27:25.000Z</time>
      </trkpt>
      <trkpt lat="47.4829" lon="6.64538">
        <ele>416</ele>
        <time>2015-12-06T10:27:26.000Z</time>
      </trkpt>
      <trkpt lat="47.4829" lon="6.64535">
        <ele>416</ele>
        <time>2015-12-06T10:27:27.000Z</time>
      </trkpt>
      <trkpt lat="47.4829" lon="6.64531">
        <ele>415</ele>
        <time>2015-12-06T10:27:28.000Z</time>
      </trkpt>
      <trkpt lat="47.48289" lon="6.64525">
        <ele>415</ele>
        <time>2015-12-06T10:27:30.000Z</time>
      </trkpt>
      <trkpt lat="47.48289" lon="6.64523">
        <ele>415</ele>
        <time>2015-12-06T10:27:31.000Z</time>
      </trkpt>
      <trkpt lat="47.48287" lon="6.64518">
        <ele>414</ele>
        <time>2015-12-06T10:27:33.000Z</time>
      </trkpt>
      <trkpt lat="47.48287" lon="6.64516">
        <ele>414</ele>
        <time>2015-12-06T10:27:34.000Z</time>
      </trkpt>
      <trkpt lat="47.48286" lon="6.64513">
        <ele>414</ele>
        <time>2015-12-06T10:27:35.000Z</time>
      </trkpt>
      <trkpt lat="47.48285" lon="6.64509">
        <ele>413</ele>
        <time>2015-12-06T10:27:36.000Z</time>
      </trkpt>
      <trkpt lat="47.48284" lon="6.64503">
        <ele>413</ele>
        <time>2015-12-06T10:27:37.000Z</time>
      </trkpt>
      <trkpt lat="47.48284" lon="6.64497">
        <ele>404</ele>
        <time>2015-12-06T10:27:38.000Z</time>
      </trkpt>
      <trkpt lat="47.48283" lon="6.64491">
        <ele>403</ele>
        <time>2015-12-06T10:27:39.000Z</time>
      </trkpt>
      <trkpt lat="47.48282" lon="6.64484">
        <ele>403</ele>
        <time>2015-12-06T10:27:40.000Z</time>
      </trkpt>
      <trkpt lat="47.48282" lon="6.64479">
        <ele>403</ele>
        <time>2015-12-06T10:27:41.000Z</time>
      </trkpt>
      <trkpt lat="47.48281" lon="6.64474">
        <ele>402</ele>
        <time>2015-12-06T10:27:42.000Z</time>
      </trkpt>
      <trkpt lat="47.48277" lon="6.64473">
        <ele>402</ele>
        <time>2015-12-06T10:27:46.000Z</time>
      </trkpt>
      <trkpt lat="47.48277" lon="6.64473">
        <ele>402</ele>
        <time>2015-12-06T10:27:47.000Z</time>
      </trkpt>
      <trkpt lat="47.48272" lon="6.64471">
        <ele>402</ele>
        <time>2015-12-06T10:27:51.000Z</time>
      </trkpt>
      <trkpt lat="47.48271" lon="6.6447">
        <ele>402</ele>
        <time>2015-12-06T10:27:52.000Z</time>
      </trkpt>
      <trkpt lat="47.48268" lon="6.64466">
        <ele>402</ele>
        <time>2015-12-06T10:27:54.000Z</time>
      </trkpt>
      <trkpt lat="47.48266" lon="6.64463">
        <ele>401</ele>
        <time>2015-12-06T10:27:55.000Z</time>
      </trkpt>
      <trkpt lat="47.48264" lon="6.64461">
        <ele>401</ele>
        <time>2015-12-06T10:27:56.000Z</time>
      </trkpt>
      <trkpt lat="47.48263" lon="6.64459">
        <ele>401</ele>
        <time>2015-12-06T10:27:57.000Z</time>
      </trkpt>
      <trkpt lat="47.4826" lon="6.64456">
        <ele>400</ele>
        <time>2015-12-06T10:27:59.000Z</time>
      </trkpt>
      <trkpt lat="47.48258" lon="6.64455">
        <ele>400</ele>
        <time>2015-12-06T10:28:00.000Z</time>
      </trkpt>
      <trkpt lat="47.48254" lon="6.64452">
        <ele>400</ele>
        <time>2015-12-06T10:28:02.000Z</time>
      </trkpt>
      <trkpt lat="47.48252" lon="6.64451">
        <ele>400</ele>
        <time>2015-12-06T10:28:03.000Z</time>
      </trkpt>
      <trkpt lat="47.4825" lon="6.6445">
        <ele>399</ele>
        <time>2015-12-06T10:28:04.000Z</time>
      </trkpt>
      <trkpt lat="47.48248" lon="6.64448">
        <ele>398</ele>
        <time>2015-12-06T10:28:05.000Z</time>
      </trkpt>
      <trkpt lat="47.48246" lon="6.64448">
        <ele>398</ele>
        <time>2015-12-06T10:28:06.000Z</time>
      </trkpt>
      <trkpt lat="47.48243" lon="6.64447">
        <ele>398</ele>
        <time>2015-12-06T10:28:07.000Z</time>
      </trkpt>
      <trkpt lat="47.48241" lon="6.64446">
        <ele>398</ele>
        <time>2015-12-06T10:28:08.000Z</time>
      </trkpt>
      <trkpt lat="47.48238" lon="6.64445">
        <ele>398</ele>
        <time>2015-12-06T10:28:09.000Z</time>
      </trkpt>
      <trkpt lat="47.48235" lon="6.64443">
        <ele>398</ele>
        <time>2015-12-06T10:28:10.000Z</time>
      </trkpt>
      <trkpt lat="47.48232" lon="6.64441">
        <ele>398</ele>
        <time>2015-12-06T10:28:11.000Z</time>
      </trkpt>
      <trkpt lat="47.48229" lon="6.64439">
        <ele>398</ele>
        <time>2015-12-06T10:28:12.000Z</time>
      </trkpt>
      <trkpt lat="47.48227" lon="6.64437">
        <ele>398</ele>
        <time>2015-12-06T10:28:13.000Z</time>
      </trkpt>
      <trkpt lat="47.48224" lon="6.64437">
        <ele>398</ele>
        <time>2015-12-06T10:28:14.000Z</time>
      </trkpt>
      <trkpt lat="47.48221" lon="6.64436">
        <ele>398</ele>
        <time>2015-12-06T10:28:15.000Z</time>
      </trkpt>
      <trkpt lat="47.48218" lon="6.64436">
        <ele>398</ele>
        <time>2015-12-06T10:28:16.000Z</time>
      </trkpt>
      <trkpt lat="47.48216" lon="6.64436">
        <ele>398</ele>
        <time>2015-12-06T10:28:17.000Z</time>
      </trkpt>
      <trkpt lat="47.48211" lon="6.64435">
        <ele>398</ele>
        <time>2015-12-06T10:28:19.000Z</time>
      </trkpt>
      <trkpt lat="47.48209" lon="6.64434">
        <ele>398</ele>
        <time>2015-12-06T10:28:20.000Z</time>
      </trkpt>
      <trkpt lat="47.48207" lon="6.64433">
        <ele>398</ele>
        <time>2015-12-06T10:28:21.000Z</time>
      </trkpt>
      <trkpt lat="47.48205" lon="6.64432">
        <ele>398</ele>
        <time>2015-12-06T10:28:22.000Z</time>
      </trkpt>
      <trkpt lat="47.48202" lon="6.64431">
        <ele>398</ele>
        <time>2015-12-06T10:28:23.000Z</time>
      </trkpt>
      <trkpt lat="47.48199" lon="6.64429">
        <ele>398</ele>
        <time>2015-12-06T10:28:24.000Z</time>
      </trkpt>
      <trkpt lat="47.48197" lon="6.64428">
        <ele>398</ele>
        <time>2015-12-06T10:28:25.000Z</time>
      </trkpt>
      <trkpt lat="47.48195" lon="6.64427">
        <ele>398</ele>
        <time>2015-12-06T10:28:26.000Z</time>
      </trkpt>
      <trkpt lat="47.48191" lon="6.64426">
        <ele>398</ele>
        <time>2015-12-06T10:28:28.000Z</time>
      </trkpt>
      <trkpt lat="47.48188" lon="6.64424">
        <ele>398</ele>
        <time>2015-12-06T10:28:29.000Z</time>
      </trkpt>
      <trkpt lat="47.48186" lon="6.64422">
        <ele>397</ele>
        <time>2015-12-06T10:28:30.000Z</time>
      </trkpt>
      <trkpt lat="47.48183" lon="6.6442">
        <ele>397</ele>
        <time>2015-12-06T10:28:31.000Z</time>
      </trkpt>
      <trkpt lat="47.4818" lon="6.64418">
        <ele>397</ele>
        <time>2015-12-06T10:28:32.000Z</time>
      </trkpt>
      <trkpt lat="47.48177" lon="6.64418">
        <ele>397</ele>
        <time>2015-12-06T10:28:33.000Z</time>
      </trkpt>
      <trkpt lat="47.48175" lon="6.64418">
        <ele>396</ele>
        <time>2015-12-06T10:28:34.000Z</time>
      </trkpt>
      <trkpt lat="47.48172" lon="6.64419">
        <ele>396</ele>
        <time>2015-12-06T10:28:35.000Z</time>
      </trkpt>
      <trkpt lat="47.4817" lon="6.6442">
        <ele>396</ele>
        <time>2015-12-06T10:28:36.000Z</time>
      </trkpt>
      <trkpt lat="47.48167" lon="6.64421">
        <ele>396</ele>
        <time>2015-12-06T10:28:37.000Z</time>
      </trkpt>
      <trkpt lat="47.48165" lon="6.64421">
        <ele>396</ele>
        <time>2015-12-06T10:28:38.000Z</time>
      </trkpt>
      <trkpt lat="47.48162" lon="6.64421">
        <ele>396</ele>
        <time>2015-12-06T10:28:39.000Z</time>
      </trkpt>
      <trkpt lat="47.4816" lon="6.64421">
        <ele>397</ele>
        <time>2015-12-06T10:28:40.000Z</time>
      </trkpt>
      <trkpt lat="47.48157" lon="6.64421">
        <ele>397</ele>
        <time>2015-12-06T10:28:41.000Z</time>
      </trkpt>
      <trkpt lat="47.48155" lon="6.6442">
        <ele>397</ele>
        <time>2015-12-06T10:28:42.000Z</time>
      </trkpt>
      <trkpt lat="47.48152" lon="6.64419">
        <ele>397</ele>
        <time>2015-12-06T10:28:43.000Z</time>
      </trkpt>
      <trkpt lat="47.48149" lon="6.64419">
        <ele>398</ele>
        <time>2015-12-06T10:28:44.000Z</time>
      </trkpt>
      <trkpt lat="47.48147" lon="6.64418">
        <ele>398</ele>
        <time>2015-12-06T10:28:45.000Z</time>
      </trkpt>
      <trkpt lat="47.48143" lon="6.64418">
        <ele>398</ele>
        <time>2015-12-06T10:28:47.000Z</time>
      </trkpt>
      <trkpt lat="47.48141" lon="6.64418">
        <ele>398</ele>
        <time>2015-12-06T10:28:48.000Z</time>
      </trkpt>
      <trkpt lat="47.48137" lon="6.64418">
        <ele>398</ele>
        <time>2015-12-06T10:28:50.000Z</time>
      </trkpt>
      <trkpt lat="47.48134" lon="6.64419">
        <ele>399</ele>
        <time>2015-12-06T10:28:51.000Z</time>
      </trkpt>
      <trkpt lat="47.48131" lon="6.64419">
        <ele>399</ele>
        <time>2015-12-06T10:28:52.000Z</time>
      </trkpt>
      <trkpt lat="47.48128" lon="6.64419">
        <ele>399</ele>
        <time>2015-12-06T10:28:53.000Z</time>
      </trkpt>
      <trkpt lat="47.48125" lon="6.64419">
        <ele>399</ele>
        <time>2015-12-06T10:28:54.000Z</time>
      </trkpt>
      <trkpt lat="47.48121" lon="6.64419">
        <ele>399</ele>
        <time>2015-12-06T10:28:55.000Z</time>
      </trkpt>
      <trkpt lat="47.48118" lon="6.64419">
        <ele>398</ele>
        <time>2015-12-06T10:28:56.000Z</time>
      </trkpt>
      <trkpt lat="47.48115" lon="6.64419">
        <ele>398</ele>
        <time>2015-12-06T10:28:57.000Z</time>
      </trkpt>
      <trkpt lat="47.48112" lon="6.6442">
        <ele>398</ele>
        <time>2015-12-06T10:28:58.000Z</time>
      </trkpt>
      <trkpt lat="47.4811" lon="6.6442">
        <ele>398</ele>
        <time>2015-12-06T10:28:59.000Z</time>
      </trkpt>
      <trkpt lat="47.48106" lon="6.6442">
        <ele>398</ele>
        <time>2015-12-06T10:29:01.000Z</time>
      </trkpt>
      <trkpt lat="47.48104" lon="6.6442">
        <ele>398</ele>
        <time>2015-12-06T10:29:02.000Z</time>
      </trkpt>
      <trkpt lat="47.48102" lon="6.6442">
        <ele>397</ele>
        <time>2015-12-06T10:29:03.000Z</time>
      </trkpt>
      <trkpt lat="47.481" lon="6.6442">
        <ele>397</ele>
        <time>2015-12-06T10:29:04.000Z</time>
      </trkpt>
      <trkpt lat="47.48097" lon="6.6442">
        <ele>397</ele>
        <time>2015-12-06T10:29:05.000Z</time>
      </trkpt>
      <trkpt lat="47.48095" lon="6.64419">
        <ele>397</ele>
        <time>2015-12-06T10:29:06.000Z</time>
      </trkpt>
      <trkpt lat="47.48093" lon="6.64418">
        <ele>396</ele>
        <time>2015-12-06T10:29:07.000Z</time>
      </trkpt>
      <trkpt lat="47.4809" lon="6.64418">
        <ele>396</ele>
        <time>2015-12-06T10:29:08.000Z</time>
      </trkpt>
      <trkpt lat="47.48088" lon="6.64418">
        <ele>395</ele>
        <time>2015-12-06T10:29:09.000Z</time>
      </trkpt>
      <trkpt lat="47.48085" lon="6.64418">
        <ele>395</ele>
        <time>2015-12-06T10:29:10.000Z</time>
      </trkpt>
      <trkpt lat="47.48083" lon="6.64418">
        <ele>394</ele>
        <time>2015-12-06T10:29:11.000Z</time>
      </trkpt>
      <trkpt lat="47.48079" lon="6.64418">
        <ele>395</ele>
        <time>2015-12-06T10:29:12.000Z</time>
      </trkpt>
      <trkpt lat="47.48076" lon="6.64419">
        <ele>396</ele>
        <time>2015-12-06T10:29:13.000Z</time>
      </trkpt>
      <trkpt lat="47.48073" lon="6.64419">
        <ele>397</ele>
        <time>2015-12-06T10:29:14.000Z</time>
      </trkpt>
      <trkpt lat="47.4807" lon="6.64419">
        <ele>397</ele>
        <time>2015-12-06T10:29:15.000Z</time>
      </trkpt>
      <trkpt lat="47.48067" lon="6.64418">
        <ele>398</ele>
        <time>2015-12-06T10:29:16.000Z</time>
      </trkpt>
      <trkpt lat="47.48063" lon="6.64415">
        <ele>392</ele>
        <time>2015-12-06T10:29:17.000Z</time>
      </trkpt>
      <trkpt lat="47.48062" lon="6.64413">
        <ele>391</ele>
        <time>2015-12-06T10:29:17.960Z</time>
      </trkpt>
      <trkpt lat="47.48057" lon="6.64411">
        <ele>391</ele>
        <time>2015-12-06T10:29:19.000Z</time>
      </trkpt>
      <trkpt lat="47.48054" lon="6.6441">
        <ele>391</ele>
        <time>2015-12-06T10:29:20.000Z</time>
      </trkpt>
      <trkpt lat="47.48051" lon="6.64409">
        <ele>391</ele>
        <time>2015-12-06T10:29:21.000Z</time>
      </trkpt>
      <trkpt lat="47.48048" lon="6.64409">
        <ele>391</ele>
        <time>2015-12-06T10:29:22.000Z</time>
      </trkpt>
      <trkpt lat="47.48045" lon="6.64409">
        <ele>391</ele>
        <time>2015-12-06T10:29:23.000Z</time>
      </trkpt>
      <trkpt lat="47.48043" lon="6.6441">
        <ele>391</ele>
        <time>2015-12-06T10:29:24.000Z</time>
      </trkpt>
      <trkpt lat="47.4804" lon="6.64411">
        <ele>391</ele>
        <time>2015-12-06T10:29:25.000Z</time>
      </trkpt>
      <trkpt lat="47.48037" lon="6.64412">
        <ele>391</ele>
        <time>2015-12-06T10:29:26.000Z</time>
      </trkpt>
      <trkpt lat="47.48034" lon="6.64414">
        <ele>391</ele>
        <time>2015-12-06T10:29:27.000Z</time>
      </trkpt>
      <trkpt lat="47.4803" lon="6.64415">
        <ele>392</ele>
        <time>2015-12-06T10:29:28.000Z</time>
      </trkpt>
      <trkpt lat="47.48027" lon="6.64416">
        <ele>392</ele>
        <time>2015-12-06T10:29:29.000Z</time>
      </trkpt>
      <trkpt lat="47.48024" lon="6.64418">
        <ele>399</ele>
        <time>2015-12-06T10:29:30.000Z</time>
      </trkpt>
      <trkpt lat="47.48021" lon="6.64418">
        <ele>399</ele>
        <time>2015-12-06T10:29:31.000Z</time>
      </trkpt>
      <trkpt lat="47.48018" lon="6.64419">
        <ele>399</ele>
        <time>2015-12-06T10:29:32.000Z</time>
      </trkpt>
      <trkpt lat="47.48015" lon="6.64419">
        <ele>398</ele>
        <time>2015-12-06T10:29:33.000Z</time>
      </trkpt>
      <trkpt lat="47.48012" lon="6.64418">
        <ele>398</ele>
        <time>2015-12-06T10:29:34.000Z</time>
      </trkpt>
      <trkpt lat="47.48009" lon="6.64418">
        <ele>398</ele>
        <time>2015-12-06T10:29:35.000Z</time>
      </trkpt>
      <trkpt lat="47.48006" lon="6.64418">
        <ele>397</ele>
        <time>2015-12-06T10:29:36.000Z</time>
      </trkpt>
      <trkpt lat="47.48002" lon="6.64417">
        <ele>396</ele>
        <time>2015-12-06T10:29:37.000Z</time>
      </trkpt>
      <trkpt lat="47.47999" lon="6.64416">
        <ele>396</ele>
        <time>2015-12-06T10:29:38.000Z</time>
      </trkpt>
      <trkpt lat="47.47995" lon="6.64416">
        <ele>395</ele>
        <time>2015-12-06T10:29:39.000Z</time>
      </trkpt>
      <trkpt lat="47.47991" lon="6.64416">
        <ele>395</ele>
        <time>2015-12-06T10:29:40.000Z</time>
      </trkpt>
      <trkpt lat="47.47987" lon="6.64416">
        <ele>394</ele>
        <time>2015-12-06T10:29:41.000Z</time>
      </trkpt>
      <trkpt lat="47.47983" lon="6.64417">
        <ele>399</ele>
        <time>2015-12-06T10:29:42.000Z</time>
      </trkpt>
      <trkpt lat="47.4798" lon="6.64419">
        <ele>399</ele>
        <time>2015-12-06T10:29:43.000Z</time>
      </trkpt>
      <trkpt lat="47.47976" lon="6.64422">
        <ele>400</ele>
        <time>2015-12-06T10:29:44.000Z</time>
      </trkpt>
      <trkpt lat="47.47972" lon="6.64425">
        <ele>400</ele>
        <time>2015-12-06T10:29:45.000Z</time>
      </trkpt>
      <trkpt lat="47.47969" lon="6.64429">
        <ele>400</ele>
        <time>2015-12-06T10:29:46.000Z</time>
      </trkpt>
      <trkpt lat="47.47966" lon="6.64433">
        <ele>401</ele>
        <time>2015-12-06T10:29:47.000Z</time>
      </trkpt>
      <trkpt lat="47.47963" lon="6.64436">
        <ele>401</ele>
        <time>2015-12-06T10:29:48.000Z</time>
      </trkpt>
      <trkpt lat="47.4796" lon="6.64437">
        <ele>401</ele>
        <time>2015-12-06T10:29:49.000Z</time>
      </trkpt>
      <trkpt lat="47.47957" lon="6.64439">
        <ele>401</ele>
        <time>2015-12-06T10:29:50.000Z</time>
      </trkpt>
      <trkpt lat="47.47954" lon="6.64441">
        <ele>401</ele>
        <time>2015-12-06T10:29:51.000Z</time>
      </trkpt>
      <trkpt lat="47.47951" lon="6.64442">
        <ele>401</ele>
        <time>2015-12-06T10:29:52.000Z</time>
      </trkpt>
      <trkpt lat="47.47948" lon="6.64444">
        <ele>401</ele>
        <time>2015-12-06T10:29:53.000Z</time>
      </trkpt>
      <trkpt lat="47.47945" lon="6.64446">
        <ele>401</ele>
        <time>2015-12-06T10:29:54.000Z</time>
      </trkpt>
      <trkpt lat="47.47943" lon="6.64448">
        <ele>401</ele>
        <time>2015-12-06T10:29:55.000Z</time>
      </trkpt>
      <trkpt lat="47.47941" lon="6.64449">
        <ele>402</ele>
        <time>2015-12-06T10:29:56.000Z</time>
      </trkpt>
      <trkpt lat="47.47939" lon="6.64452">
        <ele>402</ele>
        <time>2015-12-06T10:29:57.000Z</time>
      </trkpt>
      <trkpt lat="47.47936" lon="6.64455">
        <ele>402</ele>
        <time>2015-12-06T10:29:58.000Z</time>
      </trkpt>
      <trkpt lat="47.47934" lon="6.64458">
        <ele>402</ele>
        <time>2015-12-06T10:29:59.000Z</time>
      </trkpt>
      <trkpt lat="47.47932" lon="6.6446">
        <ele>402</ele>
        <time>2015-12-06T10:30:00.000Z</time>
      </trkpt>
      <trkpt lat="47.47929" lon="6.64459">
        <ele>402</ele>
        <time>2015-12-06T10:30:01.000Z</time>
      </trkpt>
      <trkpt lat="47.47927" lon="6.64457">
        <ele>402</ele>
        <time>2015-12-06T10:30:02.000Z</time>
      </trkpt>
      <trkpt lat="47.47926" lon="6.64454">
        <ele>402</ele>
        <time>2015-12-06T10:30:03.000Z</time>
      </trkpt>
      <trkpt lat="47.47924" lon="6.64449">
        <ele>401</ele>
        <time>2015-12-06T10:30:04.000Z</time>
      </trkpt>
      <trkpt lat="47.47923" lon="6.64444">
        <ele>401</ele>
        <time>2015-12-06T10:30:05.000Z</time>
      </trkpt>
      <trkpt lat="47.47923" lon="6.64439">
        <ele>400</ele>
        <time>2015-12-06T10:30:06.000Z</time>
      </trkpt>
      <trkpt lat="47.47922" lon="6.64434">
        <ele>400</ele>
        <time>2015-12-06T10:30:07.000Z</time>
      </trkpt>
      <trkpt lat="47.47922" lon="6.6443">
        <ele>399</ele>
        <time>2015-12-06T10:30:08.000Z</time>
      </trkpt>
      <trkpt lat="47.47921" lon="6.64427">
        <ele>399</ele>
        <time>2015-12-06T10:30:09.000Z</time>
      </trkpt>
      <trkpt lat="47.4792" lon="6.64423">
        <ele>398</ele>
        <time>2015-12-06T10:30:10.000Z</time>
      </trkpt>
      <trkpt lat="47.47919" lon="6.64419">
        <ele>398</ele>
        <time>2015-12-06T10:30:11.000Z</time>
      </trkpt>
      <trkpt lat="47.47918" lon="6.64416">
        <ele>397</ele>
        <time>2015-12-06T10:30:12.000Z</time>
      </trkpt>
      <trkpt lat="47.47916" lon="6.64413">
        <ele>397</ele>
        <time>2015-12-06T10:30:13.000Z</time>
      </trkpt>
      <trkpt lat="47.47914" lon="6.6441">
        <ele>397</ele>
        <time>2015-12-06T10:30:14.000Z</time>
      </trkpt>
      <trkpt lat="47.47911" lon="6.64408">
        <ele>397</ele>
        <time>2015-12-06T10:30:15.000Z</time>
      </trkpt>
      <trkpt lat="47.47908" lon="6.64407">
        <ele>397</ele>
        <time>2015-12-06T10:30:16.000Z</time>
      </trkpt>
      <trkpt lat="47.47905" lon="6.64405">
        <ele>397</ele>
        <time>2015-12-06T10:30:17.000Z</time>
      </trkpt>
      <trkpt lat="47.47903" lon="6.64404">
        <ele>398</ele>
        <time>2015-12-06T10:30:18.000Z</time>
      </trkpt>
      <trkpt lat="47.47901" lon="6.64402">
        <ele>398</ele>
        <time>2015-12-06T10:30:19.000Z</time>
      </trkpt>
      <trkpt lat="47.47898" lon="6.64401">
        <ele>398</ele>
        <time>2015-12-06T10:30:20.000Z</time>
      </trkpt>
      <trkpt lat="47.47895" lon="6.644">
        <ele>398</ele>
        <time>2015-12-06T10:30:21.000Z</time>
      </trkpt>
      <trkpt lat="47.47893" lon="6.64399">
        <ele>398</ele>
        <time>2015-12-06T10:30:22.000Z</time>
      </trkpt>
      <trkpt lat="47.47889" lon="6.64398">
        <ele>398</ele>
        <time>2015-12-06T10:30:23.000Z</time>
      </trkpt>
      <trkpt lat="47.47886" lon="6.64398">
        <ele>398</ele>
        <time>2015-12-06T10:30:24.000Z</time>
      </trkpt>
      <trkpt lat="47.47883" lon="6.64397">
        <ele>398</ele>
        <time>2015-12-06T10:30:25.000Z</time>
      </trkpt>
      <trkpt lat="47.47881" lon="6.64396">
        <ele>399</ele>
        <time>2015-12-06T10:30:26.000Z</time>
      </trkpt>
      <trkpt lat="47.47878" lon="6.64396">
        <ele>399</ele>
        <time>2015-12-06T10:30:27.000Z</time>
      </trkpt>
      <trkpt lat="47.47875" lon="6.64395">
        <ele>399</ele>
        <time>2015-12-06T10:30:28.000Z</time>
      </trkpt>
      <trkpt lat="47.47873" lon="6.64395">
        <ele>399</ele>
        <time>2015-12-06T10:30:29.000Z</time>
      </trkpt>
      <trkpt lat="47.47869" lon="6.64394">
        <ele>399</ele>
        <time>2015-12-06T10:30:31.000Z</time>
      </trkpt>
      <trkpt lat="47.47866" lon="6.64393">
        <ele>399</ele>
        <time>2015-12-06T10:30:32.000Z</time>
      </trkpt>
      <trkpt lat="47.47864" lon="6.64391">
        <ele>400</ele>
        <time>2015-12-06T10:30:33.000Z</time>
      </trkpt>
      <trkpt lat="47.47862" lon="6.64389">
        <ele>400</ele>
        <time>2015-12-06T10:30:34.000Z</time>
      </trkpt>
      <trkpt lat="47.4786" lon="6.64387">
        <ele>400</ele>
        <time>2015-12-06T10:30:35.000Z</time>
      </trkpt>
      <trkpt lat="47.47858" lon="6.64385">
        <ele>400</ele>
        <time>2015-12-06T10:30:36.000Z</time>
      </trkpt>
      <trkpt lat="47.47856" lon="6.64383">
        <ele>400</ele>
        <time>2015-12-06T10:30:37.000Z</time>
      </trkpt>
      <trkpt lat="47.47853" lon="6.64382">
        <ele>400</ele>
        <time>2015-12-06T10:30:38.000Z</time>
      </trkpt>
      <trkpt lat="47.47851" lon="6.6438">
        <ele>400</ele>
        <time>2015-12-06T10:30:39.000Z</time>
      </trkpt>
      <trkpt lat="47.47848" lon="6.64379">
        <ele>400</ele>
        <time>2015-12-06T10:30:40.000Z</time>
      </trkpt>
      <trkpt lat="47.47847" lon="6.64376">
        <ele>400</ele>
        <time>2015-12-06T10:30:41.000Z</time>
      </trkpt>
      <trkpt lat="47.47845" lon="6.64374">
        <ele>400</ele>
        <time>2015-12-06T10:30:42.000Z</time>
      </trkpt>
      <trkpt lat="47.47843" lon="6.64371">
        <ele>400</ele>
        <time>2015-12-06T10:30:43.000Z</time>
      </trkpt>
      <trkpt lat="47.47841" lon="6.64368">
        <ele>399</ele>
        <time>2015-12-06T10:30:44.000Z</time>
      </trkpt>
      <trkpt lat="47.4784" lon="6.64366">
        <ele>399</ele>
        <time>2015-12-06T10:30:45.000Z</time>
      </trkpt>
      <trkpt lat="47.47838" lon="6.64363">
        <ele>399</ele>
        <time>2015-12-06T10:30:46.000Z</time>
      </trkpt>
      <trkpt lat="47.47835" lon="6.6436">
        <ele>399</ele>
        <time>2015-12-06T10:30:48.000Z</time>
      </trkpt>
      <trkpt lat="47.47833" lon="6.64358">
        <ele>404</ele>
        <time>2015-12-06T10:30:49.000Z</time>
      </trkpt>
      <trkpt lat="47.4783" lon="6.64356">
        <ele>404</ele>
        <time>2015-12-06T10:30:51.000Z</time>
      </trkpt>
      <trkpt lat="47.47829" lon="6.64355">
        <ele>404</ele>
        <time>2015-12-06T10:30:52.000Z</time>
      </trkpt>
      <trkpt lat="47.47826" lon="6.64352">
        <ele>403</ele>
        <time>2015-12-06T10:30:54.000Z</time>
      </trkpt>
      <trkpt lat="47.47824" lon="6.6435">
        <ele>403</ele>
        <time>2015-12-06T10:30:55.000Z</time>
      </trkpt>
      <trkpt lat="47.47821" lon="6.64347">
        <ele>403</ele>
        <time>2015-12-06T10:30:57.000Z</time>
      </trkpt>
      <trkpt lat="47.4782" lon="6.64346">
        <ele>403</ele>
        <time>2015-12-06T10:30:58.000Z</time>
      </trkpt>
      <trkpt lat="47.47817" lon="6.64346">
        <ele>403</ele>
        <time>2015-12-06T10:30:59.000Z</time>
      </trkpt>
      <trkpt lat="47.47815" lon="6.64346">
        <ele>404</ele>
        <time>2015-12-06T10:31:00.000Z</time>
      </trkpt>
      <trkpt lat="47.47812" lon="6.64347">
        <ele>404</ele>
        <time>2015-12-06T10:31:01.000Z</time>
      </trkpt>
      <trkpt lat="47.4781" lon="6.64347">
        <ele>404</ele>
        <time>2015-12-06T10:31:02.000Z</time>
      </trkpt>
      <trkpt lat="47.47807" lon="6.64348">
        <ele>404</ele>
        <time>2015-12-06T10:31:03.000Z</time>
      </trkpt>
      <trkpt lat="47.47805" lon="6.64349">
        <ele>405</ele>
        <time>2015-12-06T10:31:04.000Z</time>
      </trkpt>
      <trkpt lat="47.47801" lon="6.64351">
        <ele>405</ele>
        <time>2015-12-06T10:31:06.000Z</time>
      </trkpt>
      <trkpt lat="47.47799" lon="6.64351">
        <ele>405</ele>
        <time>2015-12-06T10:31:07.000Z</time>
      </trkpt>
      <trkpt lat="47.47797" lon="6.64355">
        <ele>405</ele>
        <time>2015-12-06T10:31:09.000Z</time>
      </trkpt>
      <trkpt lat="47.47796" lon="6.64358">
        <ele>405</ele>
        <time>2015-12-06T10:31:10.000Z</time>
      </trkpt>
      <trkpt lat="47.47795" lon="6.64363">
        <ele>406</ele>
        <time>2015-12-06T10:31:12.000Z</time>
      </trkpt>
      <trkpt lat="47.47794" lon="6.64366">
        <ele>406</ele>
        <time>2015-12-06T10:31:13.000Z</time>
      </trkpt>
      <trkpt lat="47.47793" lon="6.64371">
        <ele>406</ele>
        <time>2015-12-06T10:31:17.000Z</time>
      </trkpt>
      <trkpt lat="47.47792" lon="6.64372">
        <ele>406</ele>
        <time>2015-12-06T10:31:18.000Z</time>
      </trkpt>
      <trkpt lat="47.47791" lon="6.64377">
        <ele>406</ele>
        <time>2015-12-06T10:31:21.000Z</time>
      </trkpt>
      <trkpt lat="47.47791" lon="6.64379">
        <ele>406</ele>
        <time>2015-12-06T10:31:22.000Z</time>
      </trkpt>
      <trkpt lat="47.47795" lon="6.6438">
        <ele>406</ele>
        <time>2015-12-06T10:31:28.000Z</time>
      </trkpt>
      <trkpt lat="47.47796" lon="6.64379">
        <ele>406</ele>
        <time>2015-12-06T10:31:29.000Z</time>
      </trkpt>
      <trkpt lat="47.47798" lon="6.64385">
        <ele>406</ele>
        <time>2015-12-06T10:31:33.000Z</time>
      </trkpt>
      <trkpt lat="47.47798" lon="6.64388">
        <ele>406</ele>
        <time>2015-12-06T10:31:34.000Z</time>
      </trkpt>
      <trkpt lat="47.47798" lon="6.64393">
        <ele>406</ele>
        <time>2015-12-06T10:31:37.000Z</time>
      </trkpt>
      <trkpt lat="47.47798" lon="6.64395">
        <ele>406</ele>
        <time>2015-12-06T10:31:38.000Z</time>
      </trkpt>
      <trkpt lat="47.478" lon="6.64398">
        <ele>406</ele>
        <time>2015-12-06T10:31:40.000Z</time>
      </trkpt>
      <trkpt lat="47.47801" lon="6.64401">
        <ele>406</ele>
        <time>2015-12-06T10:31:41.001Z</time>
      </trkpt>
      <trkpt lat="47.47802" lon="6.64406">
        <ele>406</ele>
        <time>2015-12-06T10:31:44.000Z</time>
      </trkpt>
      <trkpt lat="47.47802" lon="6.64408">
        <ele>406</ele>
        <time>2015-12-06T10:31:45.000Z</time>
      </trkpt>
      <trkpt lat="47.47801" lon="6.64414">
        <ele>407</ele>
        <time>2015-12-06T10:31:49.000Z</time>
      </trkpt>
      <trkpt lat="47.47801" lon="6.64415">
        <ele>407</ele>
        <time>2015-12-06T10:31:50.000Z</time>
      </trkpt>
      <trkpt lat="47.47804" lon="6.64419">
        <ele>410</ele>
        <time>2015-12-06T10:31:55.000Z</time>
      </trkpt>
      <trkpt lat="47.47806" lon="6.64419">
        <ele>410</ele>
        <time>2015-12-06T10:31:56.000Z</time>
      </trkpt>
      <trkpt lat="47.47807" lon="6.64424">
        <ele>410</ele>
        <time>2015-12-06T10:31:59.000Z</time>
      </trkpt>
      <trkpt lat="47.47808" lon="6.64426">
        <ele>410</ele>
        <time>2015-12-06T10:32:00.000Z</time>
      </trkpt>
      <trkpt lat="47.47809" lon="6.6443">
        <ele>410</ele>
        <time>2015-12-06T10:32:02.000Z</time>
      </trkpt>
      <trkpt lat="47.4781" lon="6.64433">
        <ele>411</ele>
        <time>2015-12-06T10:32:03.000Z</time>
      </trkpt>
      <trkpt lat="47.47813" lon="6.64437">
        <ele>411</ele>
        <time>2015-12-06T10:32:06.000Z</time>
      </trkpt>
      <trkpt lat="47.47813" lon="6.64438">
        <ele>411</ele>
        <time>2015-12-06T10:32:07.000Z</time>
      </trkpt>
      <trkpt lat="47.47814" lon="6.64443">
        <ele>411</ele>
        <time>2015-12-06T10:32:10.000Z</time>
      </trkpt>
      <trkpt lat="47.47814" lon="6.64445">
        <ele>411</ele>
        <time>2015-12-06T10:32:11.000Z</time>
      </trkpt>
      <trkpt lat="47.47817" lon="6.64449">
        <ele>411</ele>
        <time>2015-12-06T10:32:15.000Z</time>
      </trkpt>
      <trkpt lat="47.47818" lon="6.6445">
        <ele>412</ele>
        <time>2015-12-06T10:32:16.000Z</time>
      </trkpt>
      <trkpt lat="47.4782" lon="6.64453">
        <ele>412</ele>
        <time>2015-12-06T10:32:19.000Z</time>
      </trkpt>
      <trkpt lat="47.47821" lon="6.64455">
        <ele>412</ele>
        <time>2015-12-06T10:32:20.000Z</time>
      </trkpt>
      <trkpt lat="47.47824" lon="6.6446">
        <ele>412</ele>
        <time>2015-12-06T10:32:22.000Z</time>
      </trkpt>
      <trkpt lat="47.47825" lon="6.64462">
        <ele>412</ele>
        <time>2015-12-06T10:32:23.000Z</time>
      </trkpt>
      <trkpt lat="47.47828" lon="6.64466">
        <ele>413</ele>
        <time>2015-12-06T10:32:25.000Z</time>
      </trkpt>
      <trkpt lat="47.4783" lon="6.64468">
        <ele>413</ele>
        <time>2015-12-06T10:32:26.000Z</time>
      </trkpt>
      <trkpt lat="47.47832" lon="6.64473">
        <ele>413</ele>
        <time>2015-12-06T10:32:28.000Z</time>
      </trkpt>
      <trkpt lat="47.47833" lon="6.64475">
        <ele>414</ele>
        <time>2015-12-06T10:32:29.000Z</time>
      </trkpt>
      <trkpt lat="47.47835" lon="6.64479">
        <ele>411</ele>
        <time>2015-12-06T10:32:31.000Z</time>
      </trkpt>
      <trkpt lat="47.47835" lon="6.64481">
        <ele>412</ele>
        <time>2015-12-06T10:32:32.000Z</time>
      </trkpt>
      <trkpt lat="47.47838" lon="6.64485">
        <ele>412</ele>
        <time>2015-12-06T10:32:34.000Z</time>
      </trkpt>
      <trkpt lat="47.47839" lon="6.64487">
        <ele>413</ele>
        <time>2015-12-06T10:32:35.000Z</time>
      </trkpt>
      <trkpt lat="47.47841" lon="6.64492">
        <ele>413</ele>
        <time>2015-12-06T10:32:38.000Z</time>
      </trkpt>
      <trkpt lat="47.47841" lon="6.64493">
        <ele>414</ele>
        <time>2015-12-06T10:32:39.000Z</time>
      </trkpt>
      <trkpt lat="47.47842" lon="6.64497">
        <ele>414</ele>
        <time>2015-12-06T10:32:40.000Z</time>
      </trkpt>
      <trkpt lat="47.47843" lon="6.64501">
        <ele>417</ele>
        <time>2015-12-06T10:32:41.000Z</time>
      </trkpt>
      <trkpt lat="47.47843" lon="6.64504">
        <ele>417</ele>
        <time>2015-12-06T10:32:42.000Z</time>
      </trkpt>
      <trkpt lat="47.47844" lon="6.64508">
        <ele>417</ele>
        <time>2015-12-06T10:32:43.000Z</time>
      </trkpt>
      <trkpt lat="47.47846" lon="6.64514">
        <ele>417</ele>
        <time>2015-12-06T10:32:45.000Z</time>
      </trkpt>
      <trkpt lat="47.47847" lon="6.64516">
        <ele>417</ele>
        <time>2015-12-06T10:32:46.000Z</time>
      </trkpt>
      <trkpt lat="47.47849" lon="6.64522">
        <ele>417</ele>
        <time>2015-12-06T10:32:49.000Z</time>
      </trkpt>
      <trkpt lat="47.47849" lon="6.64524">
        <ele>417</ele>
        <time>2015-12-06T10:32:50.000Z</time>
      </trkpt>
      <trkpt lat="47.47851" lon="6.64528">
        <ele>417</ele>
        <time>2015-12-06T10:32:53.000Z</time>
      </trkpt>
      <trkpt lat="47.47852" lon="6.64529">
        <ele>417</ele>
        <time>2015-12-06T10:32:54.000Z</time>
      </trkpt>
      <trkpt lat="47.47853" lon="6.64535">
        <ele>417</ele>
        <time>2015-12-06T10:32:56.000Z</time>
      </trkpt>
      <trkpt lat="47.47854" lon="6.64538">
        <ele>418</ele>
        <time>2015-12-06T10:32:57.000Z</time>
      </trkpt>
      <trkpt lat="47.47856" lon="6.64543">
        <ele>418</ele>
        <time>2015-12-06T10:32:59.000Z</time>
      </trkpt>
      <trkpt lat="47.47857" lon="6.64545">
        <ele>418</ele>
        <time>2015-12-06T10:33:00.000Z</time>
      </trkpt>
      <trkpt lat="47.47859" lon="6.6455">
        <ele>418</ele>
        <time>2015-12-06T10:33:02.000Z</time>
      </trkpt>
      <trkpt lat="47.4786" lon="6.64551">
        <ele>418</ele>
        <time>2015-12-06T10:33:03.000Z</time>
      </trkpt>
      <trkpt lat="47.47862" lon="6.64556">
        <ele>418</ele>
        <time>2015-12-06T10:33:05.000Z</time>
      </trkpt>
      <trkpt lat="47.47863" lon="6.64559">
        <ele>418</ele>
        <time>2015-12-06T10:33:06.000Z</time>
      </trkpt>
      <trkpt lat="47.47865" lon="6.64562">
        <ele>419</ele>
        <time>2015-12-06T10:33:07.000Z</time>
      </trkpt>
      <trkpt lat="47.47866" lon="6.64566">
        <ele>419</ele>
        <time>2015-12-06T10:33:08.000Z</time>
      </trkpt>
      <trkpt lat="47.47868" lon="6.6457">
        <ele>419</ele>
        <time>2015-12-06T10:33:09.000Z</time>
      </trkpt>
      <trkpt lat="47.4787" lon="6.64573">
        <ele>419</ele>
        <time>2015-12-06T10:33:10.000Z</time>
      </trkpt>
      <trkpt lat="47.47872" lon="6.64577">
        <ele>419</ele>
        <time>2015-12-06T10:33:11.000Z</time>
      </trkpt>
      <trkpt lat="47.47874" lon="6.64581">
        <ele>419</ele>
        <time>2015-12-06T10:33:12.000Z</time>
      </trkpt>
      <trkpt lat="47.47876" lon="6.64584">
        <ele>425</ele>
        <time>2015-12-06T10:33:13.000Z</time>
      </trkpt>
      <trkpt lat="47.47878" lon="6.64587">
        <ele>425</ele>
        <time>2015-12-06T10:33:14.000Z</time>
      </trkpt>
      <trkpt lat="47.4788" lon="6.6459">
        <ele>425</ele>
        <time>2015-12-06T10:33:15.000Z</time>
      </trkpt>
      <trkpt lat="47.47882" lon="6.64594">
        <ele>425</ele>
        <time>2015-12-06T10:33:16.000Z</time>
      </trkpt>
      <trkpt lat="47.47884" lon="6.64598">
        <ele>425</ele>
        <time>2015-12-06T10:33:17.000Z</time>
      </trkpt>
      <trkpt lat="47.47887" lon="6.64602">
        <ele>425</ele>
        <time>2015-12-06T10:33:18.000Z</time>
      </trkpt>
      <trkpt lat="47.47891" lon="6.64606">
        <ele>425</ele>
        <time>2015-12-06T10:33:19.000Z</time>
      </trkpt>
      <trkpt lat="47.47895" lon="6.6461">
        <ele>425</ele>
        <time>2015-12-06T10:33:20.000Z</time>
      </trkpt>
      <trkpt lat="47.47898" lon="6.64614">
        <ele>425</ele>
        <time>2015-12-06T10:33:21.000Z</time>
      </trkpt>
      <trkpt lat="47.47902" lon="6.64617">
        <ele>425</ele>
        <time>2015-12-06T10:33:22.000Z</time>
      </trkpt>
      <trkpt lat="47.47905" lon="6.64621">
        <ele>425</ele>
        <time>2015-12-06T10:33:23.000Z</time>
      </trkpt>
      <trkpt lat="47.47908" lon="6.64625">
        <ele>426</ele>
        <time>2015-12-06T10:33:24.000Z</time>
      </trkpt>
      <trkpt lat="47.4791" lon="6.64629">
        <ele>426</ele>
        <time>2015-12-06T10:33:25.000Z</time>
      </trkpt>
      <trkpt lat="47.47912" lon="6.64633">
        <ele>426</ele>
        <time>2015-12-06T10:33:26.000Z</time>
      </trkpt>
      <trkpt lat="47.47914" lon="6.64636">
        <ele>426</ele>
        <time>2015-12-06T10:33:27.000Z</time>
      </trkpt>
      <trkpt lat="47.47916" lon="6.6464">
        <ele>427</ele>
        <time>2015-12-06T10:33:28.000Z</time>
      </trkpt>
      <trkpt lat="47.47918" lon="6.64644">
        <ele>427</ele>
        <time>2015-12-06T10:33:29.000Z</time>
      </trkpt>
      <trkpt lat="47.47919" lon="6.64647">
        <ele>427</ele>
        <time>2015-12-06T10:33:30.000Z</time>
      </trkpt>
      <trkpt lat="47.4792" lon="6.64651">
        <ele>427</ele>
        <time>2015-12-06T10:33:31.000Z</time>
      </trkpt>
      <trkpt lat="47.47921" lon="6.64655">
        <ele>428</ele>
        <time>2015-12-06T10:33:32.000Z</time>
      </trkpt>
      <trkpt lat="47.47922" lon="6.64659">
        <ele>428</ele>
        <time>2015-12-06T10:33:33.000Z</time>
      </trkpt>
      <trkpt lat="47.47924" lon="6.64663">
        <ele>428</ele>
        <time>2015-12-06T10:33:34.000Z</time>
      </trkpt>
      <trkpt lat="47.47926" lon="6.64667">
        <ele>428</ele>
        <time>2015-12-06T10:33:35.000Z</time>
      </trkpt>
      <trkpt lat="47.47929" lon="6.6467">
        <ele>431</ele>
        <time>2015-12-06T10:33:36.000Z</time>
      </trkpt>
      <trkpt lat="47.47933" lon="6.64673">
        <ele>432</ele>
        <time>2015-12-06T10:33:37.000Z</time>
      </trkpt>
      <trkpt lat="47.47937" lon="6.64677">
        <ele>432</ele>
        <time>2015-12-06T10:33:38.000Z</time>
      </trkpt>
      <trkpt lat="47.4794" lon="6.6468">
        <ele>433</ele>
        <time>2015-12-06T10:33:39.000Z</time>
      </trkpt>
      <trkpt lat="47.47943" lon="6.64683">
        <ele>433</ele>
        <time>2015-12-06T10:33:40.000Z</time>
      </trkpt>
      <trkpt lat="47.47946" lon="6.64685">
        <ele>433</ele>
        <time>2015-12-06T10:33:41.000Z</time>
      </trkpt>
      <trkpt lat="47.47949" lon="6.64687">
        <ele>433</ele>
        <time>2015-12-06T10:33:42.000Z</time>
      </trkpt>
      <trkpt lat="47.47952" lon="6.64689">
        <ele>433</ele>
        <time>2015-12-06T10:33:43.000Z</time>
      </trkpt>
      <trkpt lat="47.47954" lon="6.64691">
        <ele>434</ele>
        <time>2015-12-06T10:33:44.000Z</time>
      </trkpt>
      <trkpt lat="47.47957" lon="6.64693">
        <ele>434</ele>
        <time>2015-12-06T10:33:45.000Z</time>
      </trkpt>
      <trkpt lat="47.4796" lon="6.64695">
        <ele>434</ele>
        <time>2015-12-06T10:33:46.000Z</time>
      </trkpt>
      <trkpt lat="47.47964" lon="6.64697">
        <ele>434</ele>
        <time>2015-12-06T10:33:47.000Z</time>
      </trkpt>
      <trkpt lat="47.47968" lon="6.647">
        <ele>434</ele>
        <time>2015-12-06T10:33:48.000Z</time>
      </trkpt>
      <trkpt lat="47.47971" lon="6.64703">
        <ele>434</ele>
        <time>2015-12-06T10:33:49.000Z</time>
      </trkpt>
      <trkpt lat="47.47975" lon="6.64705">
        <ele>434</ele>
        <time>2015-12-06T10:33:50.000Z</time>
      </trkpt>
      <trkpt lat="47.47978" lon="6.64707">
        <ele>435</ele>
        <time>2015-12-06T10:33:51.000Z</time>
      </trkpt>
      <trkpt lat="47.47981" lon="6.64709">
        <ele>435</ele>
        <time>2015-12-06T10:33:52.000Z</time>
      </trkpt>
      <trkpt lat="47.47984" lon="6.6471">
        <ele>435</ele>
        <time>2015-12-06T10:33:53.000Z</time>
      </trkpt>
      <trkpt lat="47.47987" lon="6.64712">
        <ele>435</ele>
        <time>2015-12-06T10:33:54.000Z</time>
      </trkpt>
      <trkpt lat="47.4799" lon="6.64714">
        <ele>435</ele>
        <time>2015-12-06T10:33:55.000Z</time>
      </trkpt>
      <trkpt lat="47.47993" lon="6.64716">
        <ele>435</ele>
        <time>2015-12-06T10:33:56.000Z</time>
      </trkpt>
      <trkpt lat="47.47996" lon="6.64718">
        <ele>435</ele>
        <time>2015-12-06T10:33:57.000Z</time>
      </trkpt>
      <trkpt lat="47.47999" lon="6.6472">
        <ele>435</ele>
        <time>2015-12-06T10:33:58.000Z</time>
      </trkpt>
      <trkpt lat="47.48002" lon="6.64722">
        <ele>437</ele>
        <time>2015-12-06T10:33:59.000Z</time>
      </trkpt>
      <trkpt lat="47.48004" lon="6.64724">
        <ele>438</ele>
        <time>2015-12-06T10:34:00.000Z</time>
      </trkpt>
      <trkpt lat="47.48006" lon="6.64725">
        <ele>438</ele>
        <time>2015-12-06T10:34:01.000Z</time>
      </trkpt>
      <trkpt lat="47.4801" lon="6.64727">
        <ele>438</ele>
        <time>2015-12-06T10:34:03.000Z</time>
      </trkpt>
      <trkpt lat="47.48011" lon="6.64728">
        <ele>438</ele>
        <time>2015-12-06T10:34:04.000Z</time>
      </trkpt>
      <trkpt lat="47.48015" lon="6.64732">
        <ele>438</ele>
        <time>2015-12-06T10:34:06.000Z</time>
      </trkpt>
      <trkpt lat="47.48016" lon="6.64734">
        <ele>438</ele>
        <time>2015-12-06T10:34:07.000Z</time>
      </trkpt>
      <trkpt lat="47.48019" lon="6.64739">
        <ele>438</ele>
        <time>2015-12-06T10:34:09.000Z</time>
      </trkpt>
      <trkpt lat="47.48021" lon="6.64741">
        <ele>438</ele>
        <time>2015-12-06T10:34:10.000Z</time>
      </trkpt>
      <trkpt lat="47.48022" lon="6.64744">
        <ele>438</ele>
        <time>2015-12-06T10:34:11.000Z</time>
      </trkpt>
      <trkpt lat="47.48024" lon="6.64746">
        <ele>438</ele>
        <time>2015-12-06T10:34:12.000Z</time>
      </trkpt>
      <trkpt lat="47.48026" lon="6.64749">
        <ele>438</ele>
        <time>2015-12-06T10:34:13.000Z</time>
      </trkpt>
      <trkpt lat="47.48027" lon="6.64752">
        <ele>441</ele>
        <time>2015-12-06T10:34:14.000Z</time>
      </trkpt>
      <trkpt lat="47.48029" lon="6.64755">
        <ele>441</ele>
        <time>2015-12-06T10:34:15.000Z</time>
      </trkpt>
      <trkpt lat="47.48031" lon="6.64758">
        <ele>441</ele>
        <time>2015-12-06T10:34:16.000Z</time>
      </trkpt>
      <trkpt lat="47.48033" lon="6.64761">
        <ele>441</ele>
        <time>2015-12-06T10:34:17.000Z</time>
      </trkpt>
      <trkpt lat="47.48034" lon="6.64764">
        <ele>441</ele>
        <time>2015-12-06T10:34:18.000Z</time>
      </trkpt>
      <trkpt lat="47.48036" lon="6.6477">
        <ele>442</ele>
        <time>2015-12-06T10:34:20.000Z</time>
      </trkpt>
      <trkpt lat="47.48036" lon="6.64773">
        <ele>442</ele>
        <time>2015-12-06T10:34:21.000Z</time>
      </trkpt>
      <trkpt lat="47.48038" lon="6.64778">
        <ele>442</ele>
        <time>2015-12-06T10:34:23.000Z</time>
      </trkpt>
      <trkpt lat="47.48039" lon="6.64779">
        <ele>442</ele>
        <time>2015-12-06T10:34:24.000Z</time>
      </trkpt>
      <trkpt lat="47.48042" lon="6.64783">
        <ele>442</ele>
        <time>2015-12-06T10:34:26.000Z</time>
      </trkpt>
      <trkpt lat="47.48043" lon="6.64786">
        <ele>442</ele>
        <time>2015-12-06T10:34:27.000Z</time>
      </trkpt>
      <trkpt lat="47.48046" lon="6.64791">
        <ele>442</ele>
        <time>2015-12-06T10:34:29.000Z</time>
      </trkpt>
      <trkpt lat="47.48047" lon="6.64793">
        <ele>442</ele>
        <time>2015-12-06T10:34:30.000Z</time>
      </trkpt>
      <trkpt lat="47.48049" lon="6.64797">
        <ele>443</ele>
        <time>2015-12-06T10:34:32.000Z</time>
      </trkpt>
      <trkpt lat="47.48051" lon="6.64799">
        <ele>443</ele>
        <time>2015-12-06T10:34:33.000Z</time>
      </trkpt>
      <trkpt lat="47.48053" lon="6.64801">
        <ele>443</ele>
        <time>2015-12-06T10:34:34.000Z</time>
      </trkpt>
      <trkpt lat="47.48055" lon="6.64803">
        <ele>443</ele>
        <time>2015-12-06T10:34:35.000Z</time>
      </trkpt>
      <trkpt lat="47.48057" lon="6.64806">
        <ele>443</ele>
        <time>2015-12-06T10:34:36.000Z</time>
      </trkpt>
      <trkpt lat="47.48058" lon="6.6481">
        <ele>443</ele>
        <time>2015-12-06T10:34:37.000Z</time>
      </trkpt>
      <trkpt lat="47.4806" lon="6.64814">
        <ele>443</ele>
        <time>2015-12-06T10:34:38.000Z</time>
      </trkpt>
      <trkpt lat="47.48061" lon="6.64817">
        <ele>443</ele>
        <time>2015-12-06T10:34:39.000Z</time>
      </trkpt>
      <trkpt lat="47.48062" lon="6.64821">
        <ele>443</ele>
        <time>2015-12-06T10:34:40.000Z</time>
      </trkpt>
      <trkpt lat="47.48063" lon="6.64824">
        <ele>443</ele>
        <time>2015-12-06T10:34:41.000Z</time>
      </trkpt>
      <trkpt lat="47.48066" lon="6.6483">
        <ele>444</ele>
        <time>2015-12-06T10:34:43.000Z</time>
      </trkpt>
      <trkpt lat="47.48067" lon="6.64832">
        <ele>444</ele>
        <time>2015-12-06T10:34:44.000Z</time>
      </trkpt>
      <trkpt lat="47.4807" lon="6.64836">
        <ele>446</ele>
        <time>2015-12-06T10:34:46.000Z</time>
      </trkpt>
      <trkpt lat="47.48071" lon="6.64839">
        <ele>446</ele>
        <time>2015-12-06T10:34:47.000Z</time>
      </trkpt>
      <trkpt lat="47.48074" lon="6.64842">
        <ele>446</ele>
        <time>2015-12-06T10:34:49.000Z</time>
      </trkpt>
      <trkpt lat="47.48074" lon="6.64844">
        <ele>446</ele>
        <time>2015-12-06T10:34:50.000Z</time>
      </trkpt>
      <trkpt lat="47.48076" lon="6.64849">
        <ele>446</ele>
        <time>2015-12-06T10:34:52.000Z</time>
      </trkpt>
      <trkpt lat="47.48076" lon="6.64851">
        <ele>446</ele>
        <time>2015-12-06T10:34:53.000Z</time>
      </trkpt>
      <trkpt lat="47.48078" lon="6.64857">
        <ele>447</ele>
        <time>2015-12-06T10:34:56.000Z</time>
      </trkpt>
      <trkpt lat="47.48078" lon="6.64859">
        <ele>447</ele>
        <time>2015-12-06T10:34:57.000Z</time>
      </trkpt>
      <trkpt lat="47.4808" lon="6.64864">
        <ele>447</ele>
        <time>2015-12-06T10:34:59.000Z</time>
      </trkpt>
      <trkpt lat="47.48081" lon="6.64866">
        <ele>447</ele>
        <time>2015-12-06T10:35:00.000Z</time>
      </trkpt>
      <trkpt lat="47.48082" lon="6.64871">
        <ele>447</ele>
        <time>2015-12-06T10:35:02.000Z</time>
      </trkpt>
      <trkpt lat="47.48082" lon="6.64873">
        <ele>447</ele>
        <time>2015-12-06T10:35:03.000Z</time>
      </trkpt>
      <trkpt lat="47.48083" lon="6.64879">
        <ele>448</ele>
        <time>2015-12-06T10:35:07.000Z</time>
      </trkpt>
      <trkpt lat="47.48084" lon="6.64881">
        <ele>449</ele>
        <time>2015-12-06T10:35:08.000Z</time>
      </trkpt>
      <trkpt lat="47.48086" lon="6.64886">
        <ele>449</ele>
        <time>2015-12-06T10:35:10.000Z</time>
      </trkpt>
      <trkpt lat="47.48088" lon="6.64889">
        <ele>449</ele>
        <time>2015-12-06T10:35:11.000Z</time>
      </trkpt>
      <trkpt lat="47.4809" lon="6.64893">
        <ele>449</ele>
        <time>2015-12-06T10:35:12.000Z</time>
      </trkpt>
      <trkpt lat="47.48092" lon="6.64897">
        <ele>450</ele>
        <time>2015-12-06T10:35:13.000Z</time>
      </trkpt>
      <trkpt lat="47.48094" lon="6.64901">
        <ele>450</ele>
        <time>2015-12-06T10:35:14.000Z</time>
      </trkpt>
      <trkpt lat="47.48096" lon="6.64906">
        <ele>450</ele>
        <time>2015-12-06T10:35:15.000Z</time>
      </trkpt>
      <trkpt lat="47.48097" lon="6.64909">
        <ele>450</ele>
        <time>2015-12-06T10:35:16.000Z</time>
      </trkpt>
      <trkpt lat="47.48099" lon="6.64912">
        <ele>450</ele>
        <time>2015-12-06T10:35:17.000Z</time>
      </trkpt>
      <trkpt lat="47.48101" lon="6.64918">
        <ele>452</ele>
        <time>2015-12-06T10:35:19.000Z</time>
      </trkpt>
      <trkpt lat="47.48102" lon="6.6492">
        <ele>452</ele>
        <time>2015-12-06T10:35:20.000Z</time>
      </trkpt>
      <trkpt lat="47.48102" lon="6.64924">
        <ele>452</ele>
        <time>2015-12-06T10:35:21.000Z</time>
      </trkpt>
      <trkpt lat="47.48103" lon="6.64927">
        <ele>452</ele>
        <time>2015-12-06T10:35:22.000Z</time>
      </trkpt>
      <trkpt lat="47.48103" lon="6.64929">
        <ele>452</ele>
        <time>2015-12-06T10:35:22.998Z</time>
      </trkpt>
      <trkpt lat="47.48104" lon="6.64934">
        <ele>452</ele>
        <time>2015-12-06T10:35:24.000Z</time>
      </trkpt>
      <trkpt lat="47.48105" lon="6.64937">
        <ele>452</ele>
        <time>2015-12-06T10:35:25.000Z</time>
      </trkpt>
      <trkpt lat="47.48106" lon="6.6494">
        <ele>452</ele>
        <time>2015-12-06T10:35:26.000Z</time>
      </trkpt>
      <trkpt lat="47.48107" lon="6.64946">
        <ele>453</ele>
        <time>2015-12-06T10:35:28.000Z</time>
      </trkpt>
      <trkpt lat="47.48108" lon="6.64948">
        <ele>453</ele>
        <time>2015-12-06T10:35:29.000Z</time>
      </trkpt>
      <trkpt lat="47.48109" lon="6.64953">
        <ele>453</ele>
        <time>2015-12-06T10:35:31.000Z</time>
      </trkpt>
      <trkpt lat="47.4811" lon="6.64955">
        <ele>453</ele>
        <time>2015-12-06T10:35:32.000Z</time>
      </trkpt>
      <trkpt lat="47.4811" lon="6.64961">
        <ele>453</ele>
        <time>2015-12-06T10:35:35.000Z</time>
      </trkpt>
      <trkpt lat="47.48111" lon="6.64963">
        <ele>453</ele>
        <time>2015-12-06T10:35:36.000Z</time>
      </trkpt>
      <trkpt lat="47.48113" lon="6.64967">
        <ele>453</ele>
        <time>2015-12-06T10:35:39.000Z</time>
      </trkpt>
      <trkpt lat="47.48114" lon="6.64969">
        <ele>453</ele>
        <time>2015-12-06T10:35:40.000Z</time>
      </trkpt>
      <trkpt lat="47.48115" lon="6.64973">
        <ele>454</ele>
        <time>2015-12-06T10:35:42.000Z</time>
      </trkpt>
      <trkpt lat="47.48116" lon="6.64975">
        <ele>454</ele>
        <time>2015-12-06T10:35:43.000Z</time>
      </trkpt>
      <trkpt lat="47.48117" lon="6.6498">
        <ele>454</ele>
        <time>2015-12-06T10:35:45.000Z</time>
      </trkpt>
      <trkpt lat="47.48118" lon="6.64983">
        <ele>454</ele>
        <time>2015-12-06T10:35:46.000Z</time>
      </trkpt>
      <trkpt lat="47.4812" lon="6.64987">
        <ele>454</ele>
        <time>2015-12-06T10:35:48.000Z</time>
      </trkpt>
      <trkpt lat="47.4812" lon="6.6499">
        <ele>454</ele>
        <time>2015-12-06T10:35:49.000Z</time>
      </trkpt>
      <trkpt lat="47.48119" lon="6.64995">
        <ele>454</ele>
        <time>2015-12-06T10:35:51.000Z</time>
      </trkpt>
      <trkpt lat="47.48119" lon="6.64998">
        <ele>454</ele>
        <time>2015-12-06T10:35:52.000Z</time>
      </trkpt>
      <trkpt lat="47.4812" lon="6.65004">
        <ele>456</ele>
        <time>2015-12-06T10:35:54.000Z</time>
      </trkpt>
      <trkpt lat="47.48121" lon="6.65007">
        <ele>457</ele>
        <time>2015-12-06T10:35:55.000Z</time>
      </trkpt>
      <trkpt lat="47.48122" lon="6.65012">
        <ele>457</ele>
        <time>2015-12-06T10:35:57.000Z</time>
      </trkpt>
      <trkpt lat="47.48123" lon="6.65015">
        <ele>457</ele>
        <time>2015-12-06T10:35:58.000Z</time>
      </trkpt>
      <trkpt lat="47.48125" lon="6.65021">
        <ele>457</ele>
        <time>2015-12-06T10:36:00.000Z</time>
      </trkpt>
      <trkpt lat="47.48125" lon="6.65024">
        <ele>457</ele>
        <time>2015-12-06T10:36:01.000Z</time>
      </trkpt>
      <trkpt lat="47.48126" lon="6.65029">
        <ele>457</ele>
        <time>2015-12-06T10:36:03.000Z</time>
      </trkpt>
      <trkpt lat="47.48126" lon="6.65032">
        <ele>457</ele>
        <time>2015-12-06T10:36:04.000Z</time>
      </trkpt>
      <trkpt lat="47.48126" lon="6.65037">
        <ele>457</ele>
        <time>2015-12-06T10:36:06.000Z</time>
      </trkpt>
      <trkpt lat="47.48126" lon="6.6504">
        <ele>457</ele>
        <time>2015-12-06T10:36:07.000Z</time>
      </trkpt>
      <trkpt lat="47.48127" lon="6.65045">
        <ele>457</ele>
        <time>2015-12-06T10:36:09.000Z</time>
      </trkpt>
      <trkpt lat="47.48128" lon="6.65047">
        <ele>457</ele>
        <time>2015-12-06T10:36:10.000Z</time>
      </trkpt>
      <trkpt lat="47.4813" lon="6.65052">
        <ele>457</ele>
        <time>2015-12-06T10:36:12.000Z</time>
      </trkpt>
      <trkpt lat="47.48131" lon="6.65055">
        <ele>457</ele>
        <time>2015-12-06T10:36:13.000Z</time>
      </trkpt>
      <trkpt lat="47.48133" lon="6.65058">
        <ele>457</ele>
        <time>2015-12-06T10:36:14.000Z</time>
      </trkpt>
      <trkpt lat="47.48134" lon="6.65061">
        <ele>457</ele>
        <time>2015-12-06T10:36:15.000Z</time>
      </trkpt>
      <trkpt lat="47.48135" lon="6.65067">
        <ele>457</ele>
        <time>2015-12-06T10:36:17.000Z</time>
      </trkpt>
      <trkpt lat="47.48136" lon="6.65069">
        <ele>458</ele>
        <time>2015-12-06T10:36:18.000Z</time>
      </trkpt>
      <trkpt lat="47.48136" lon="6.65075">
        <ele>458</ele>
        <time>2015-12-06T10:36:21.000Z</time>
      </trkpt>
      <trkpt lat="47.48136" lon="6.65078">
        <ele>458</ele>
        <time>2015-12-06T10:36:22.000Z</time>
      </trkpt>
      <trkpt lat="47.48137" lon="6.65082">
        <ele>458</ele>
        <time>2015-12-06T10:36:23.000Z</time>
      </trkpt>
      <trkpt lat="47.48137" lon="6.65085">
        <ele>460</ele>
        <time>2015-12-06T10:36:24.000Z</time>
      </trkpt>
      <trkpt lat="47.48137" lon="6.65091">
        <ele>460</ele>
        <time>2015-12-06T10:36:26.000Z</time>
      </trkpt>
      <trkpt lat="47.48136" lon="6.65093">
        <ele>460</ele>
        <time>2015-12-06T10:36:27.000Z</time>
      </trkpt>
      <trkpt lat="47.48136" lon="6.65099">
        <ele>460</ele>
        <time>2015-12-06T10:36:30.000Z</time>
      </trkpt>
      <trkpt lat="47.48136" lon="6.65102">
        <ele>460</ele>
        <time>2015-12-06T10:36:31.000Z</time>
      </trkpt>
      <trkpt lat="47.48136" lon="6.65106">
        <ele>460</ele>
        <time>2015-12-06T10:36:33.000Z</time>
      </trkpt>
      <trkpt lat="47.48135" lon="6.65109">
        <ele>460</ele>
        <time>2015-12-06T10:36:34.000Z</time>
      </trkpt>
      <trkpt lat="47.48135" lon="6.65114">
        <ele>460</ele>
        <time>2015-12-06T10:36:36.000Z</time>
      </trkpt>
      <trkpt lat="47.48136" lon="6.65116">
        <ele>460</ele>
        <time>2015-12-06T10:36:37.000Z</time>
      </trkpt>
      <trkpt lat="47.48136" lon="6.65121">
        <ele>460</ele>
        <time>2015-12-06T10:36:39.000Z</time>
      </trkpt>
      <trkpt lat="47.48136" lon="6.65124">
        <ele>460</ele>
        <time>2015-12-06T10:36:40.000Z</time>
      </trkpt>
      <trkpt lat="47.48136" lon="6.65128">
        <ele>460</ele>
        <time>2015-12-06T10:36:41.000Z</time>
      </trkpt>
      <trkpt lat="47.48136" lon="6.65131">
        <ele>460</ele>
        <time>2015-12-06T10:36:42.000Z</time>
      </trkpt>
      <trkpt lat="47.48135" lon="6.65135">
        <ele>460</ele>
        <time>2015-12-06T10:36:43.000Z</time>
      </trkpt>
      <trkpt lat="47.48135" lon="6.65138">
        <ele>460</ele>
        <time>2015-12-06T10:36:44.000Z</time>
      </trkpt>
      <trkpt lat="47.48135" lon="6.65141">
        <ele>461</ele>
        <time>2015-12-06T10:36:45.000Z</time>
      </trkpt>
      <trkpt lat="47.48136" lon="6.65145">
        <ele>461</ele>
        <time>2015-12-06T10:36:46.000Z</time>
      </trkpt>
      <trkpt lat="47.48136" lon="6.65151">
        <ele>461</ele>
        <time>2015-12-06T10:36:48.000Z</time>
      </trkpt>
      <trkpt lat="47.48137" lon="6.65154">
        <ele>461</ele>
        <time>2015-12-06T10:36:49.000Z</time>
      </trkpt>
      <trkpt lat="47.48137" lon="6.65158">
        <ele>461</ele>
        <time>2015-12-06T10:36:51.000Z</time>
      </trkpt>
      <trkpt lat="47.48137" lon="6.6516">
        <ele>461</ele>
        <time>2015-12-06T10:36:52.000Z</time>
      </trkpt>
      <trkpt lat="47.48137" lon="6.65166">
        <ele>461</ele>
        <time>2015-12-06T10:36:55.000Z</time>
      </trkpt>
      <trkpt lat="47.48137" lon="6.65169">
        <ele>463</ele>
        <time>2015-12-06T10:36:56.000Z</time>
      </trkpt>
      <trkpt lat="47.48137" lon="6.65174">
        <ele>463</ele>
        <time>2015-12-06T10:36:58.000Z</time>
      </trkpt>
      <trkpt lat="47.48137" lon="6.65176">
        <ele>463</ele>
        <time>2015-12-06T10:36:59.000Z</time>
      </trkpt>
      <trkpt lat="47.48137" lon="6.65182">
        <ele>463</ele>
        <time>2015-12-06T10:37:01.000Z</time>
      </trkpt>
      <trkpt lat="47.48138" lon="6.65185">
        <ele>463</ele>
        <time>2015-12-06T10:37:02.000Z</time>
      </trkpt>
      <trkpt lat="47.48139" lon="6.65189">
        <ele>463</ele>
        <time>2015-12-06T10:37:03.000Z</time>
      </trkpt>
      <trkpt lat="47.4814" lon="6.65193">
        <ele>463</ele>
        <time>2015-12-06T10:37:04.000Z</time>
      </trkpt>
      <trkpt lat="47.48141" lon="6.65196">
        <ele>463</ele>
        <time>2015-12-06T10:37:05.000Z</time>
      </trkpt>
      <trkpt lat="47.48141" lon="6.65199">
        <ele>463</ele>
        <time>2015-12-06T10:37:06.000Z</time>
      </trkpt>
      <trkpt lat="47.48142" lon="6.65203">
        <ele>463</ele>
        <time>2015-12-06T10:37:07.000Z</time>
      </trkpt>
      <trkpt lat="47.48143" lon="6.65206">
        <ele>463</ele>
        <time>2015-12-06T10:37:08.000Z</time>
      </trkpt>
      <trkpt lat="47.48145" lon="6.65212">
        <ele>463</ele>
        <time>2015-12-06T10:37:10.000Z</time>
      </trkpt>
      <trkpt lat="47.48146" lon="6.65215">
        <ele>463</ele>
        <time>2015-12-06T10:37:11.000Z</time>
      </trkpt>
      <trkpt lat="47.48148" lon="6.6522">
        <ele>464</ele>
        <time>2015-12-06T10:37:13.000Z</time>
      </trkpt>
      <trkpt lat="47.48148" lon="6.65223">
        <ele>464</ele>
        <time>2015-12-06T10:37:14.000Z</time>
      </trkpt>
      <trkpt lat="47.48149" lon="6.65228">
        <ele>464</ele>
        <time>2015-12-06T10:37:16.000Z</time>
      </trkpt>
      <trkpt lat="47.48148" lon="6.65231">
        <ele>464</ele>
        <time>2015-12-06T10:37:17.000Z</time>
      </trkpt>
      <trkpt lat="47.48148" lon="6.65234">
        <ele>464</ele>
        <time>2015-12-06T10:37:18.000Z</time>
      </trkpt>
      <trkpt lat="47.48147" lon="6.65238">
        <ele>464</ele>
        <time>2015-12-06T10:37:19.000Z</time>
      </trkpt>
      <trkpt lat="47.48147" lon="6.65241">
        <ele>464</ele>
        <time>2015-12-06T10:37:20.000Z</time>
      </trkpt>
      <trkpt lat="47.48146" lon="6.65245">
        <ele>464</ele>
        <time>2015-12-06T10:37:21.000Z</time>
      </trkpt>
      <trkpt lat="47.48146" lon="6.65249">
        <ele>464</ele>
        <time>2015-12-06T10:37:22.000Z</time>
      </trkpt>
      <trkpt lat="47.48146" lon="6.65253">
        <ele>464</ele>
        <time>2015-12-06T10:37:23.000Z</time>
      </trkpt>
      <trkpt lat="47.48146" lon="6.65256">
        <ele>464</ele>
        <time>2015-12-06T10:37:24.000Z</time>
      </trkpt>
      <trkpt lat="47.48146" lon="6.65259">
        <ele>464</ele>
        <time>2015-12-06T10:37:25.000Z</time>
      </trkpt>
      <trkpt lat="47.48145" lon="6.65265">
        <ele>464</ele>
        <time>2015-12-06T10:37:28.000Z</time>
      </trkpt>
      <trkpt lat="47.48145" lon="6.65267">
        <ele>464</ele>
        <time>2015-12-06T10:37:29.000Z</time>
      </trkpt>
      <trkpt lat="47.48143" lon="6.65271">
        <ele>464</ele>
        <time>2015-12-06T10:37:32.000Z</time>
      </trkpt>
      <trkpt lat="47.48142" lon="6.65273">
        <ele>464</ele>
        <time>2015-12-06T10:37:33.000Z</time>
      </trkpt>
      <trkpt lat="47.48139" lon="6.65277">
        <ele>463</ele>
        <time>2015-12-06T10:37:35.000Z</time>
      </trkpt>
      <trkpt lat="47.48138" lon="6.65279">
        <ele>463</ele>
        <time>2015-12-06T10:37:36.000Z</time>
      </trkpt>
      <trkpt lat="47.48137" lon="6.65284">
        <ele>463</ele>
        <time>2015-12-06T10:37:38.000Z</time>
      </trkpt>
      <trkpt lat="47.48136" lon="6.65287">
        <ele>463</ele>
        <time>2015-12-06T10:37:39.000Z</time>
      </trkpt>
      <trkpt lat="47.48137" lon="6.65292">
        <ele>463</ele>
        <time>2015-12-06T10:37:41.000Z</time>
      </trkpt>
      <trkpt lat="47.48138" lon="6.65295">
        <ele>463</ele>
        <time>2015-12-06T10:37:42.000Z</time>
      </trkpt>
      <trkpt lat="47.4814" lon="6.65299">
        <ele>463</ele>
        <time>2015-12-06T10:37:44.000Z</time>
      </trkpt>
      <trkpt lat="47.48141" lon="6.65301">
        <ele>463</ele>
        <time>2015-12-06T10:37:45.000Z</time>
      </trkpt>
      <trkpt lat="47.48144" lon="6.65306">
        <ele>463</ele>
        <time>2015-12-06T10:37:48.000Z</time>
      </trkpt>
      <trkpt lat="47.48145" lon="6.65307">
        <ele>463</ele>
        <time>2015-12-06T10:37:49.000Z</time>
      </trkpt>
      <trkpt lat="47.48148" lon="6.6531">
        <ele>463</ele>
        <time>2015-12-06T10:37:51.000Z</time>
      </trkpt>
      <trkpt lat="47.4815" lon="6.65311">
        <ele>463</ele>
        <time>2015-12-06T10:37:52.000Z</time>
      </trkpt>
      <trkpt lat="47.48152" lon="6.65313">
        <ele>463</ele>
        <time>2015-12-06T10:37:53.000Z</time>
      </trkpt>
      <trkpt lat="47.48154" lon="6.65315">
        <ele>463</ele>
        <time>2015-12-06T10:37:54.000Z</time>
      </trkpt>
      <trkpt lat="47.48156" lon="6.6532">
        <ele>463</ele>
        <time>2015-12-06T10:37:56.000Z</time>
      </trkpt>
      <trkpt lat="47.48156" lon="6.65323">
        <ele>463</ele>
        <time>2015-12-06T10:37:57.000Z</time>
      </trkpt>
      <trkpt lat="47.48158" lon="6.65328">
        <ele>463</ele>
        <time>2015-12-06T10:37:59.000Z</time>
      </trkpt>
      <trkpt lat="47.48158" lon="6.6533">
        <ele>463</ele>
        <time>2015-12-06T10:38:00.000Z</time>
      </trkpt>
      <trkpt lat="47.48161" lon="6.65335">
        <ele>462</ele>
        <time>2015-12-06T10:38:02.000Z</time>
      </trkpt>
      <trkpt lat="47.48162" lon="6.65337">
        <ele>462</ele>
        <time>2015-12-06T10:38:03.001Z</time>
      </trkpt>
      <trkpt lat="47.48164" lon="6.65342">
        <ele>462</ele>
        <time>2015-12-06T10:38:04.999Z</time>
      </trkpt>
      <trkpt lat="47.48165" lon="6.65345">
        <ele>462</ele>
        <time>2015-12-06T10:38:06.000Z</time>
      </trkpt>
      <trkpt lat="47.48166" lon="6.65349">
        <ele>462</ele>
        <time>2015-12-06T10:38:08.000Z</time>
      </trkpt>
      <trkpt lat="47.48167" lon="6.65351">
        <ele>463</ele>
        <time>2015-12-06T10:38:09.000Z</time>
      </trkpt>
      <trkpt lat="47.48169" lon="6.65355">
        <ele>463</ele>
        <time>2015-12-06T10:38:11.000Z</time>
      </trkpt>
      <trkpt lat="47.4817" lon="6.65356">
        <ele>463</ele>
        <time>2015-12-06T10:38:12.000Z</time>
      </trkpt>
      <trkpt lat="47.48172" lon="6.6536">
        <ele>463</ele>
        <time>2015-12-06T10:38:14.000Z</time>
      </trkpt>
      <trkpt lat="47.48174" lon="6.65362">
        <ele>463</ele>
        <time>2015-12-06T10:38:15.000Z</time>
      </trkpt>
      <trkpt lat="47.48176" lon="6.65367">
        <ele>463</ele>
        <time>2015-12-06T10:38:17.000Z</time>
      </trkpt>
      <trkpt lat="47.48178" lon="6.65369">
        <ele>463</ele>
        <time>2015-12-06T10:38:18.000Z</time>
      </trkpt>
      <trkpt lat="47.48181" lon="6.65373">
        <ele>463</ele>
        <time>2015-12-06T10:38:20.000Z</time>
      </trkpt>
      <trkpt lat="47.48182" lon="6.65375">
        <ele>463</ele>
        <time>2015-12-06T10:38:21.000Z</time>
      </trkpt>
      <trkpt lat="47.48183" lon="6.65379">
        <ele>463</ele>
        <time>2015-12-06T10:38:23.000Z</time>
      </trkpt>
      <trkpt lat="47.48184" lon="6.65381">
        <ele>463</ele>
        <time>2015-12-06T10:38:24.000Z</time>
      </trkpt>
      <trkpt lat="47.48187" lon="6.65385">
        <ele>463</ele>
        <time>2015-12-06T10:38:26.000Z</time>
      </trkpt>
      <trkpt lat="47.48189" lon="6.65387">
        <ele>463</ele>
        <time>2015-12-06T10:38:27.000Z</time>
      </trkpt>
      <trkpt lat="47.4819" lon="6.65389">
        <ele>463</ele>
        <time>2015-12-06T10:38:28.000Z</time>
      </trkpt>
      <trkpt lat="47.48192" lon="6.65392">
        <ele>463</ele>
        <time>2015-12-06T10:38:29.000Z</time>
      </trkpt>
      <trkpt lat="47.48194" lon="6.65394">
        <ele>462</ele>
        <time>2015-12-06T10:38:30.000Z</time>
      </trkpt>
      <trkpt lat="47.48196" lon="6.65396">
        <ele>462</ele>
        <time>2015-12-06T10:38:31.000Z</time>
      </trkpt>
      <trkpt lat="47.48199" lon="6.65399">
        <ele>463</ele>
        <time>2015-12-06T10:38:33.000Z</time>
      </trkpt>
      <trkpt lat="47.482" lon="6.65401">
        <ele>463</ele>
        <time>2015-12-06T10:38:34.000Z</time>
      </trkpt>
      <trkpt lat="47.48201" lon="6.65406">
        <ele>462</ele>
        <time>2015-12-06T10:38:36.000Z</time>
      </trkpt>
      <trkpt lat="47.48202" lon="6.65408">
        <ele>462</ele>
        <time>2015-12-06T10:38:37.000Z</time>
      </trkpt>
      <trkpt lat="47.48204" lon="6.65412">
        <ele>463</ele>
        <time>2015-12-06T10:38:39.000Z</time>
      </trkpt>
      <trkpt lat="47.48206" lon="6.65414">
        <ele>463</ele>
        <time>2015-12-06T10:38:40.000Z</time>
      </trkpt>
      <trkpt lat="47.48209" lon="6.65418">
        <ele>460</ele>
        <time>2015-12-06T10:38:42.000Z</time>
      </trkpt>
      <trkpt lat="47.4821" lon="6.6542">
        <ele>460</ele>
        <time>2015-12-06T10:38:43.000Z</time>
      </trkpt>
      <trkpt lat="47.48212" lon="6.65424">
        <ele>460</ele>
        <time>2015-12-06T10:38:44.000Z</time>
      </trkpt>
      <trkpt lat="47.48213" lon="6.65427">
        <ele>460</ele>
        <time>2015-12-06T10:38:45.000Z</time>
      </trkpt>
      <trkpt lat="47.48215" lon="6.6543">
        <ele>460</ele>
        <time>2015-12-06T10:38:46.000Z</time>
      </trkpt>
      <trkpt lat="47.48216" lon="6.65434">
        <ele>460</ele>
        <time>2015-12-06T10:38:47.000Z</time>
      </trkpt>
      <trkpt lat="47.48217" lon="6.65438">
        <ele>460</ele>
        <time>2015-12-06T10:38:48.000Z</time>
      </trkpt>
      <trkpt lat="47.48217" lon="6.65442">
        <ele>460</ele>
        <time>2015-12-06T10:38:49.000Z</time>
      </trkpt>
      <trkpt lat="47.48219" lon="6.65446">
        <ele>460</ele>
        <time>2015-12-06T10:38:51.000Z</time>
      </trkpt>
      <trkpt lat="47.4822" lon="6.65449">
        <ele>460</ele>
        <time>2015-12-06T10:38:52.000Z</time>
      </trkpt>
      <trkpt lat="47.48222" lon="6.65453">
        <ele>460</ele>
        <time>2015-12-06T10:38:54.000Z</time>
      </trkpt>
      <trkpt lat="47.48223" lon="6.65454">
        <ele>460</ele>
        <time>2015-12-06T10:38:55.000Z</time>
      </trkpt>
      <trkpt lat="47.48226" lon="6.65458">
        <ele>460</ele>
        <time>2015-12-06T10:39:02.000Z</time>
      </trkpt>
      <trkpt lat="47.48226" lon="6.65459">
        <ele>459</ele>
        <time>2015-12-06T10:39:03.000Z</time>
      </trkpt>
      <trkpt lat="47.48229" lon="6.65464">
        <ele>459</ele>
        <time>2015-12-06T10:39:48.000Z</time>
      </trkpt>
      <trkpt lat="47.48229" lon="6.65464">
        <ele>459</ele>
        <time>2015-12-06T10:39:49.000Z</time>
      </trkpt>
      <trkpt lat="47.48231" lon="6.65467">
        <ele>459</ele>
        <time>2015-12-06T10:40:11.000Z</time>
      </trkpt>
      <trkpt lat="47.48232" lon="6.65469">
        <ele>459</ele>
        <time>2015-12-06T10:40:12.000Z</time>
      </trkpt>
      <trkpt lat="47.48234" lon="6.65472">
        <ele>459</ele>
        <time>2015-12-06T10:40:13.000Z</time>
      </trkpt>
      <trkpt lat="47.48236" lon="6.65476">
        <ele>459</ele>
        <time>2015-12-06T10:40:14.000Z</time>
      </trkpt>
      <trkpt lat="47.48238" lon="6.6548">
        <ele>459</ele>
        <time>2015-12-06T10:40:15.000Z</time>
      </trkpt>
      <trkpt lat="47.4824" lon="6.65484">
        <ele>459</ele>
        <time>2015-12-06T10:40:16.000Z</time>
      </trkpt>
      <trkpt lat="47.48242" lon="6.65489">
        <ele>459</ele>
        <time>2015-12-06T10:40:17.000Z</time>
      </trkpt>
      <trkpt lat="47.48244" lon="6.65495">
        <ele>458</ele>
        <time>2015-12-06T10:40:18.000Z</time>
      </trkpt>
      <trkpt lat="47.48246" lon="6.65501">
        <ele>458</ele>
        <time>2015-12-06T10:40:19.000Z</time>
      </trkpt>
      <trkpt lat="47.48247" lon="6.65507">
        <ele>457</ele>
        <time>2015-12-06T10:40:20.000Z</time>
      </trkpt>
      <trkpt lat="47.48249" lon="6.65513">
        <ele>457</ele>
        <time>2015-12-06T10:40:21.000Z</time>
      </trkpt>
      <trkpt lat="47.48251" lon="6.65518">
        <ele>457</ele>
        <time>2015-12-06T10:40:22.000Z</time>
      </trkpt>
      <trkpt lat="47.48252" lon="6.65524">
        <ele>456</ele>
        <time>2015-12-06T10:40:23.000Z</time>
      </trkpt>
      <trkpt lat="47.48254" lon="6.65529">
        <ele>456</ele>
        <time>2015-12-06T10:40:24.000Z</time>
      </trkpt>
      <trkpt lat="47.48256" lon="6.65534">
        <ele>456</ele>
        <time>2015-12-06T10:40:25.000Z</time>
      </trkpt>
      <trkpt lat="47.48258" lon="6.6554">
        <ele>456</ele>
        <time>2015-12-06T10:40:26.000Z</time>
      </trkpt>
      <trkpt lat="47.4826" lon="6.65546">
        <ele>455</ele>
        <time>2015-12-06T10:40:27.000Z</time>
      </trkpt>
      <trkpt lat="47.48261" lon="6.65552">
        <ele>455</ele>
        <time>2015-12-06T10:40:28.000Z</time>
      </trkpt>
      <trkpt lat="47.48262" lon="6.65559">
        <ele>455</ele>
        <time>2015-12-06T10:40:29.000Z</time>
      </trkpt>
      <trkpt lat="47.48262" lon="6.65564">
        <ele>455</ele>
        <time>2015-12-06T10:40:30.000Z</time>
      </trkpt>
      <trkpt lat="47.48262" lon="6.65569">
        <ele>455</ele>
        <time>2015-12-06T10:40:31.000Z</time>
      </trkpt>
      <trkpt lat="47.48262" lon="6.65573">
        <ele>455</ele>
        <time>2015-12-06T10:40:32.000Z</time>
      </trkpt>
      <trkpt lat="47.48261" lon="6.65577">
        <ele>455</ele>
        <time>2015-12-06T10:40:33.000Z</time>
      </trkpt>
      <trkpt lat="47.48261" lon="6.6558">
        <ele>455</ele>
        <time>2015-12-06T10:40:34.000Z</time>
      </trkpt>
      <trkpt lat="47.4826" lon="6.65583">
        <ele>454</ele>
        <time>2015-12-06T10:40:35.000Z</time>
      </trkpt>
      <trkpt lat="47.48259" lon="6.65588">
        <ele>454</ele>
        <time>2015-12-06T10:40:36.000Z</time>
      </trkpt>
      <trkpt lat="47.48258" lon="6.65593">
        <ele>454</ele>
        <time>2015-12-06T10:40:37.000Z</time>
      </trkpt>
      <trkpt lat="47.48257" lon="6.65598">
        <ele>454</ele>
        <time>2015-12-06T10:40:38.000Z</time>
      </trkpt>
      <trkpt lat="47.48255" lon="6.65622">
        <ele>453</ele>
        <time>2015-12-06T10:40:39.000Z</time>
      </trkpt>
      <trkpt lat="47.48252" lon="6.65627">
        <ele>453</ele>
        <time>2015-12-06T10:40:40.000Z</time>
      </trkpt>
      <trkpt lat="47.48252" lon="6.65633">
        <ele>454</ele>
        <time>2015-12-06T10:40:41.000Z</time>
      </trkpt>
      <trkpt lat="47.48252" lon="6.65642">
        <ele>454</ele>
        <time>2015-12-06T10:40:42.000Z</time>
      </trkpt>
      <trkpt lat="47.48253" lon="6.6565">
        <ele>454</ele>
        <time>2015-12-06T10:40:43.000Z</time>
      </trkpt>
      <trkpt lat="47.48252" lon="6.65656">
        <ele>455</ele>
        <time>2015-12-06T10:40:44.000Z</time>
      </trkpt>
      <trkpt lat="47.48251" lon="6.65658">
        <ele>455</ele>
        <time>2015-12-06T10:40:45.000Z</time>
      </trkpt>
      <trkpt lat="47.48251" lon="6.65663">
        <ele>455</ele>
        <time>2015-12-06T10:40:47.000Z</time>
      </trkpt>
      <trkpt lat="47.4825" lon="6.65667">
        <ele>456</ele>
        <time>2015-12-06T10:40:48.000Z</time>
      </trkpt>
      <trkpt lat="47.48248" lon="6.65672">
        <ele>456</ele>
        <time>2015-12-06T10:40:50.000Z</time>
      </trkpt>
      <trkpt lat="47.48247" lon="6.65674">
        <ele>455</ele>
        <time>2015-12-06T10:40:51.000Z</time>
      </trkpt>
      <trkpt lat="47.48244" lon="6.65679">
        <ele>455</ele>
        <time>2015-12-06T10:40:53.000Z</time>
      </trkpt>
      <trkpt lat="47.48244" lon="6.65681">
        <ele>455</ele>
        <time>2015-12-06T10:40:54.000Z</time>
      </trkpt>
      <trkpt lat="47.48241" lon="6.65685">
        <ele>455</ele>
        <time>2015-12-06T10:40:56.000Z</time>
      </trkpt>
      <trkpt lat="47.4824" lon="6.65687">
        <ele>455</ele>
        <time>2015-12-06T10:40:57.000Z</time>
      </trkpt>
      <trkpt lat="47.48238" lon="6.65691">
        <ele>455</ele>
        <time>2015-12-06T10:40:58.000Z</time>
      </trkpt>
      <trkpt lat="47.48236" lon="6.65695">
        <ele>455</ele>
        <time>2015-12-06T10:40:59.000Z</time>
      </trkpt>
      <trkpt lat="47.48234" lon="6.65699">
        <ele>454</ele>
        <time>2015-12-06T10:41:00.000Z</time>
      </trkpt>
      <trkpt lat="47.48232" lon="6.65704">
        <ele>454</ele>
        <time>2015-12-06T10:41:01.000Z</time>
      </trkpt>
      <trkpt lat="47.48229" lon="6.65708">
        <ele>454</ele>
        <time>2015-12-06T10:41:02.000Z</time>
      </trkpt>
      <trkpt lat="47.48227" lon="6.65711">
        <ele>454</ele>
        <time>2015-12-06T10:41:03.000Z</time>
      </trkpt>
      <trkpt lat="47.48224" lon="6.65714">
        <ele>454</ele>
        <time>2015-12-06T10:41:04.000Z</time>
      </trkpt>
      <trkpt lat="47.48222" lon="6.65716">
        <ele>454</ele>
        <time>2015-12-06T10:41:05.000Z</time>
      </trkpt>
      <trkpt lat="47.4822" lon="6.65718">
        <ele>454</ele>
        <time>2015-12-06T10:41:06.000Z</time>
      </trkpt>
      <trkpt lat="47.48218" lon="6.6572">
        <ele>454</ele>
        <time>2015-12-06T10:41:07.000Z</time>
      </trkpt>
      <trkpt lat="47.48216" lon="6.65723">
        <ele>454</ele>
        <time>2015-12-06T10:41:08.000Z</time>
      </trkpt>
      <trkpt lat="47.48214" lon="6.65725">
        <ele>454</ele>
        <time>2015-12-06T10:41:09.000Z</time>
      </trkpt>
      <trkpt lat="47.48212" lon="6.65728">
        <ele>454</ele>
        <time>2015-12-06T10:41:10.000Z</time>
      </trkpt>
      <trkpt lat="47.4821" lon="6.65732">
        <ele>454</ele>
        <time>2015-12-06T10:41:11.000Z</time>
      </trkpt>
      <trkpt lat="47.48208" lon="6.65737">
        <ele>454</ele>
        <time>2015-12-06T10:41:12.000Z</time>
      </trkpt>
      <trkpt lat="47.48205" lon="6.65742">
        <ele>454</ele>
        <time>2015-12-06T10:41:13.000Z</time>
      </trkpt>
      <trkpt lat="47.48203" lon="6.65748">
        <ele>454</ele>
        <time>2015-12-06T10:41:14.000Z</time>
      </trkpt>
      <trkpt lat="47.48201" lon="6.65754">
        <ele>454</ele>
        <time>2015-12-06T10:41:15.000Z</time>
      </trkpt>
      <trkpt lat="47.48199" lon="6.65759">
        <ele>453</ele>
        <time>2015-12-06T10:41:16.000Z</time>
      </trkpt>
      <trkpt lat="47.48198" lon="6.65765">
        <ele>453</ele>
        <time>2015-12-06T10:41:17.000Z</time>
      </trkpt>
      <trkpt lat="47.48196" lon="6.6577">
        <ele>453</ele>
        <time>2015-12-06T10:41:18.000Z</time>
      </trkpt>
      <trkpt lat="47.48195" lon="6.65774">
        <ele>453</ele>
        <time>2015-12-06T10:41:19.000Z</time>
      </trkpt>
      <trkpt lat="47.48194" lon="6.65778">
        <ele>453</ele>
        <time>2015-12-06T10:41:20.000Z</time>
      </trkpt>
      <trkpt lat="47.48193" lon="6.65781">
        <ele>453</ele>
        <time>2015-12-06T10:41:21.000Z</time>
      </trkpt>
      <trkpt lat="47.48192" lon="6.65785">
        <ele>453</ele>
        <time>2015-12-06T10:41:22.000Z</time>
      </trkpt>
      <trkpt lat="47.4819" lon="6.65789">
        <ele>453</ele>
        <time>2015-12-06T10:41:23.000Z</time>
      </trkpt>
      <trkpt lat="47.48189" lon="6.65793">
        <ele>453</ele>
        <time>2015-12-06T10:41:24.000Z</time>
      </trkpt>
      <trkpt lat="47.48187" lon="6.65798">
        <ele>453</ele>
        <time>2015-12-06T10:41:25.000Z</time>
      </trkpt>
      <trkpt lat="47.48185" lon="6.65803">
        <ele>453</ele>
        <time>2015-12-06T10:41:26.000Z</time>
      </trkpt>
      <trkpt lat="47.48183" lon="6.65808">
        <ele>453</ele>
        <time>2015-12-06T10:41:27.000Z</time>
      </trkpt>
      <trkpt lat="47.48181" lon="6.65814">
        <ele>453</ele>
        <time>2015-12-06T10:41:28.000Z</time>
      </trkpt>
      <trkpt lat="47.4818" lon="6.6582">
        <ele>453</ele>
        <time>2015-12-06T10:41:31.000Z</time>
      </trkpt>
      <trkpt lat="47.4818" lon="6.65821">
        <ele>453</ele>
        <time>2015-12-06T10:41:32.000Z</time>
      </trkpt>
      <trkpt lat="47.48178" lon="6.65824">
        <ele>453</ele>
        <time>2015-12-06T10:41:34.000Z</time>
      </trkpt>
      <trkpt lat="47.48176" lon="6.65827">
        <ele>452</ele>
        <time>2015-12-06T10:41:35.000Z</time>
      </trkpt>
      <trkpt lat="47.48173" lon="6.6583">
        <ele>452</ele>
        <time>2015-12-06T10:41:36.000Z</time>
      </trkpt>
      <trkpt lat="47.48169" lon="6.65834">
        <ele>452</ele>
        <time>2015-12-06T10:41:37.000Z</time>
      </trkpt>
      <trkpt lat="47.48165" lon="6.65839">
        <ele>451</ele>
        <time>2015-12-06T10:41:38.000Z</time>
      </trkpt>
      <trkpt lat="47.4816" lon="6.65843">
        <ele>451</ele>
        <time>2015-12-06T10:41:39.000Z</time>
      </trkpt>
      <trkpt lat="47.48155" lon="6.65848">
        <ele>451</ele>
        <time>2015-12-06T10:41:40.000Z</time>
      </trkpt>
      <trkpt lat="47.48149" lon="6.65851">
        <ele>450</ele>
        <time>2015-12-06T10:41:41.000Z</time>
      </trkpt>
      <trkpt lat="47.48144" lon="6.65854">
        <ele>450</ele>
        <time>2015-12-06T10:41:42.000Z</time>
      </trkpt>
      <trkpt lat="47.48138" lon="6.65857">
        <ele>450</ele>
        <time>2015-12-06T10:41:43.000Z</time>
      </trkpt>
      <trkpt lat="47.48133" lon="6.65859">
        <ele>449</ele>
        <time>2015-12-06T10:41:44.000Z</time>
      </trkpt>
      <trkpt lat="47.48127" lon="6.6586">
        <ele>449</ele>
        <time>2015-12-06T10:41:45.000Z</time>
      </trkpt>
      <trkpt lat="47.48122" lon="6.65862">
        <ele>449</ele>
        <time>2015-12-06T10:41:46.000Z</time>
      </trkpt>
      <trkpt lat="47.48117" lon="6.65864">
        <ele>449</ele>
        <time>2015-12-06T10:41:47.000Z</time>
      </trkpt>
      <trkpt lat="47.48113" lon="6.65866">
        <ele>449</ele>
        <time>2015-12-06T10:41:48.000Z</time>
      </trkpt>
      <trkpt lat="47.4811" lon="6.65869">
        <ele>449</ele>
        <time>2015-12-06T10:41:49.000Z</time>
      </trkpt>
      <trkpt lat="47.48107" lon="6.65871">
        <ele>449</ele>
        <time>2015-12-06T10:41:50.000Z</time>
      </trkpt>
      <trkpt lat="47.48104" lon="6.65875">
        <ele>449</ele>
        <time>2015-12-06T10:41:51.000Z</time>
      </trkpt>
      <trkpt lat="47.48102" lon="6.65879">
        <ele>449</ele>
        <time>2015-12-06T10:41:52.000Z</time>
      </trkpt>
      <trkpt lat="47.481" lon="6.65885">
        <ele>449</ele>
        <time>2015-12-06T10:41:53.000Z</time>
      </trkpt>
      <trkpt lat="47.48099" lon="6.6589">
        <ele>449</ele>
        <time>2015-12-06T10:41:54.000Z</time>
      </trkpt>
      <trkpt lat="47.48097" lon="6.65895">
        <ele>449</ele>
        <time>2015-12-06T10:41:55.000Z</time>
      </trkpt>
      <trkpt lat="47.48094" lon="6.65902">
        <ele>449</ele>
        <time>2015-12-06T10:41:56.000Z</time>
      </trkpt>
      <trkpt lat="47.48091" lon="6.65908">
        <ele>448</ele>
        <time>2015-12-06T10:41:57.000Z</time>
      </trkpt>
      <trkpt lat="47.48088" lon="6.65914">
        <ele>448</ele>
        <time>2015-12-06T10:41:58.000Z</time>
      </trkpt>
      <trkpt lat="47.48084" lon="6.65922">
        <ele>448</ele>
        <time>2015-12-06T10:41:59.000Z</time>
      </trkpt>
      <trkpt lat="47.48082" lon="6.65928">
        <ele>447</ele>
        <time>2015-12-06T10:42:00.000Z</time>
      </trkpt>
      <trkpt lat="47.48079" lon="6.65934">
        <ele>447</ele>
        <time>2015-12-06T10:42:01.000Z</time>
      </trkpt>
      <trkpt lat="47.48076" lon="6.65939">
        <ele>447</ele>
        <time>2015-12-06T10:42:02.000Z</time>
      </trkpt>
      <trkpt lat="47.48072" lon="6.65944">
        <ele>447</ele>
        <time>2015-12-06T10:42:03.000Z</time>
      </trkpt>
      <trkpt lat="47.48068" lon="6.65949">
        <ele>447</ele>
        <time>2015-12-06T10:42:04.000Z</time>
      </trkpt>
      <trkpt lat="47.48064" lon="6.65954">
        <ele>447</ele>
        <time>2015-12-06T10:42:05.000Z</time>
      </trkpt>
      <trkpt lat="47.4806" lon="6.65958">
        <ele>447</ele>
        <time>2015-12-06T10:42:06.000Z</time>
      </trkpt>
      <trkpt lat="47.48056" lon="6.65963">
        <ele>446</ele>
        <time>2015-12-06T10:42:07.000Z</time>
      </trkpt>
      <trkpt lat="47.48052" lon="6.65967">
        <ele>446</ele>
        <time>2015-12-06T10:42:08.000Z</time>
      </trkpt>
      <trkpt lat="47.48049" lon="6.65972">
        <ele>446</ele>
        <time>2015-12-06T10:42:09.000Z</time>
      </trkpt>
      <trkpt lat="47.48038" lon="6.66007">
        <ele>446</ele>
        <time>2015-12-06T10:42:10.000Z</time>
      </trkpt>
      <trkpt lat="47.48035" lon="6.66016">
        <ele>446</ele>
        <time>2015-12-06T10:42:11.000Z</time>
      </trkpt>
      <trkpt lat="47.48032" lon="6.66023">
        <ele>446</ele>
        <time>2015-12-06T10:42:12.000Z</time>
      </trkpt>
      <trkpt lat="47.48029" lon="6.66031">
        <ele>446</ele>
        <time>2015-12-06T10:42:13.000Z</time>
      </trkpt>
      <trkpt lat="47.48027" lon="6.6604">
        <ele>445</ele>
        <time>2015-12-06T10:42:14.000Z</time>
      </trkpt>
      <trkpt lat="47.48023" lon="6.66049">
        <ele>445</ele>
        <time>2015-12-06T10:42:15.000Z</time>
      </trkpt>
      <trkpt lat="47.48021" lon="6.6606">
        <ele>445</ele>
        <time>2015-12-06T10:42:16.000Z</time>
      </trkpt>
      <trkpt lat="47.4802" lon="6.66071">
        <ele>445</ele>
        <time>2015-12-06T10:42:17.000Z</time>
      </trkpt>
      <trkpt lat="47.48019" lon="6.66083">
        <ele>445</ele>
        <time>2015-12-06T10:42:18.000Z</time>
      </trkpt>
      <trkpt lat="47.48018" lon="6.66094">
        <ele>444</ele>
        <time>2015-12-06T10:42:19.000Z</time>
      </trkpt>
      <trkpt lat="47.48017" lon="6.66105">
        <ele>444</ele>
        <time>2015-12-06T10:42:20.000Z</time>
      </trkpt>
      <trkpt lat="47.48014" lon="6.66116">
        <ele>443</ele>
        <time>2015-12-06T10:42:21.000Z</time>
      </trkpt>
      <trkpt lat="47.48013" lon="6.66125">
        <ele>443</ele>
        <time>2015-12-06T10:42:22.000Z</time>
      </trkpt>
      <trkpt lat="47.48011" lon="6.66137">
        <ele>443</ele>
        <time>2015-12-06T10:42:23.000Z</time>
      </trkpt>
      <trkpt lat="47.4801" lon="6.66149">
        <ele>443</ele>
        <time>2015-12-06T10:42:24.000Z</time>
      </trkpt>
      <trkpt lat="47.4801" lon="6.66162">
        <ele>443</ele>
        <time>2015-12-06T10:42:25.000Z</time>
      </trkpt>
      <trkpt lat="47.48009" lon="6.66176">
        <ele>442</ele>
        <time>2015-12-06T10:42:26.000Z</time>
      </trkpt>
      <trkpt lat="47.48007" lon="6.66189">
        <ele>441</ele>
        <time>2015-12-06T10:42:27.000Z</time>
      </trkpt>
      <trkpt lat="47.48004" lon="6.66201">
        <ele>441</ele>
        <time>2015-12-06T10:42:28.000Z</time>
      </trkpt>
      <trkpt lat="47.48" lon="6.66212">
        <ele>441</ele>
        <time>2015-12-06T10:42:29.000Z</time>
      </trkpt>
      <trkpt lat="47.47996" lon="6.66221">
        <ele>441</ele>
        <time>2015-12-06T10:42:30.000Z</time>
      </trkpt>
      <trkpt lat="47.47991" lon="6.66229">
        <ele>441</ele>
        <time>2015-12-06T10:42:31.000Z</time>
      </trkpt>
      <trkpt lat="47.47986" lon="6.66236">
        <ele>441</ele>
        <time>2015-12-06T10:42:32.000Z</time>
      </trkpt>
      <trkpt lat="47.4798" lon="6.66245">
        <ele>441</ele>
        <time>2015-12-06T10:42:33.000Z</time>
      </trkpt>
      <trkpt lat="47.47977" lon="6.66256">
        <ele>440</ele>
        <time>2015-12-06T10:42:34.000Z</time>
      </trkpt>
      <trkpt lat="47.47973" lon="6.66266">
        <ele>440</ele>
        <time>2015-12-06T10:42:35.000Z</time>
      </trkpt>
      <trkpt lat="47.4797" lon="6.66279">
        <ele>439</ele>
        <time>2015-12-06T10:42:36.000Z</time>
      </trkpt>
      <trkpt lat="47.47967" lon="6.66291">
        <ele>439</ele>
        <time>2015-12-06T10:42:37.000Z</time>
      </trkpt>
      <trkpt lat="47.47966" lon="6.66304">
        <ele>439</ele>
        <time>2015-12-06T10:42:38.000Z</time>
      </trkpt>
      <trkpt lat="47.47962" lon="6.66315">
        <ele>439</ele>
        <time>2015-12-06T10:42:39.000Z</time>
      </trkpt>
      <trkpt lat="47.47958" lon="6.66327">
        <ele>439</ele>
        <time>2015-12-06T10:42:40.000Z</time>
      </trkpt>
      <trkpt lat="47.47957" lon="6.66338">
        <ele>439</ele>
        <time>2015-12-06T10:42:41.000Z</time>
      </trkpt>
      <trkpt lat="47.47952" lon="6.66347">
        <ele>439</ele>
        <time>2015-12-06T10:42:42.000Z</time>
      </trkpt>
      <trkpt lat="47.47948" lon="6.66358">
        <ele>439</ele>
        <time>2015-12-06T10:42:43.000Z</time>
      </trkpt>
      <trkpt lat="47.47943" lon="6.66368">
        <ele>439</ele>
        <time>2015-12-06T10:42:44.000Z</time>
      </trkpt>
      <trkpt lat="47.47938" lon="6.66374">
        <ele>439</ele>
        <time>2015-12-06T10:42:45.000Z</time>
      </trkpt>
      <trkpt lat="47.47934" lon="6.66383">
        <ele>439</ele>
        <time>2015-12-06T10:42:46.000Z</time>
      </trkpt>
      <trkpt lat="47.4793" lon="6.66392">
        <ele>439</ele>
        <time>2015-12-06T10:42:47.000Z</time>
      </trkpt>
      <trkpt lat="47.47927" lon="6.66402">
        <ele>439</ele>
        <time>2015-12-06T10:42:48.000Z</time>
      </trkpt>
      <trkpt lat="47.47924" lon="6.66412">
        <ele>439</ele>
        <time>2015-12-06T10:42:49.000Z</time>
      </trkpt>
      <trkpt lat="47.47922" lon="6.6642">
        <ele>439</ele>
        <time>2015-12-06T10:42:50.000Z</time>
      </trkpt>
      <trkpt lat="47.47922" lon="6.6643">
        <ele>440</ele>
        <time>2015-12-06T10:42:51.000Z</time>
      </trkpt>
      <trkpt lat="47.47921" lon="6.66437">
        <ele>440</ele>
        <time>2015-12-06T10:42:52.000Z</time>
      </trkpt>
      <trkpt lat="47.47922" lon="6.66443">
        <ele>440</ele>
        <time>2015-12-06T10:42:53.000Z</time>
      </trkpt>
      <trkpt lat="47.47922" lon="6.66449">
        <ele>440</ele>
        <time>2015-12-06T10:42:54.000Z</time>
      </trkpt>
      <trkpt lat="47.47921" lon="6.66456">
        <ele>440</ele>
        <time>2015-12-06T10:42:55.000Z</time>
      </trkpt>
      <trkpt lat="47.47919" lon="6.66459">
        <ele>441</ele>
        <time>2015-12-06T10:42:56.000Z</time>
      </trkpt>
      <trkpt lat="47.47917" lon="6.66467">
        <ele>441</ele>
        <time>2015-12-06T10:42:57.000Z</time>
      </trkpt>
      <trkpt lat="47.47915" lon="6.66472">
        <ele>438</ele>
        <time>2015-12-06T10:42:58.000Z</time>
      </trkpt>
      <trkpt lat="47.47914" lon="6.66475">
        <ele>439</ele>
        <time>2015-12-06T10:42:59.000Z</time>
      </trkpt>
      <trkpt lat="47.47914" lon="6.66482">
        <ele>439</ele>
        <time>2015-12-06T10:43:00.000Z</time>
      </trkpt>
      <trkpt lat="47.47915" lon="6.66485">
        <ele>440</ele>
        <time>2015-12-06T10:43:01.000Z</time>
      </trkpt>
      <trkpt lat="47.47914" lon="6.66489">
        <ele>440</ele>
        <time>2015-12-06T10:43:02.000Z</time>
      </trkpt>
      <trkpt lat="47.47914" lon="6.66495">
        <ele>441</ele>
        <time>2015-12-06T10:43:04.000Z</time>
      </trkpt>
      <trkpt lat="47.47914" lon="6.66498">
        <ele>442</ele>
        <time>2015-12-06T10:43:05.000Z</time>
      </trkpt>
      <trkpt lat="47.47913" lon="6.66502">
        <ele>442</ele>
        <time>2015-12-06T10:43:06.000Z</time>
      </trkpt>
      <trkpt lat="47.47913" lon="6.66507">
        <ele>442</ele>
        <time>2015-12-06T10:43:07.000Z</time>
      </trkpt>
      <trkpt lat="47.47912" lon="6.66513">
        <ele>441</ele>
        <time>2015-12-06T10:43:09.000Z</time>
      </trkpt>
      <trkpt lat="47.47912" lon="6.66516">
        <ele>441</ele>
        <time>2015-12-06T10:43:10.000Z</time>
      </trkpt>
      <trkpt lat="47.47913" lon="6.66522">
        <ele>441</ele>
        <time>2015-12-06T10:43:12.000Z</time>
      </trkpt>
      <trkpt lat="47.47913" lon="6.66526">
        <ele>441</ele>
        <time>2015-12-06T10:43:13.000Z</time>
      </trkpt>
      <trkpt lat="47.47913" lon="6.66531">
        <ele>441</ele>
        <time>2015-12-06T10:43:14.000Z</time>
      </trkpt>
      <trkpt lat="47.47912" lon="6.66536">
        <ele>441</ele>
        <time>2015-12-06T10:43:15.000Z</time>
      </trkpt>
      <trkpt lat="47.47912" lon="6.66542">
        <ele>441</ele>
        <time>2015-12-06T10:43:16.000Z</time>
      </trkpt>
      <trkpt lat="47.47911" lon="6.66547">
        <ele>441</ele>
        <time>2015-12-06T10:43:17.000Z</time>
      </trkpt>
      <trkpt lat="47.47911" lon="6.66551">
        <ele>441</ele>
        <time>2015-12-06T10:43:18.000Z</time>
      </trkpt>
      <trkpt lat="47.47911" lon="6.66556">
        <ele>442</ele>
        <time>2015-12-06T10:43:19.000Z</time>
      </trkpt>
      <trkpt lat="47.47911" lon="6.6656">
        <ele>442</ele>
        <time>2015-12-06T10:43:20.000Z</time>
      </trkpt>
      <trkpt lat="47.47911" lon="6.66563">
        <ele>443</ele>
        <time>2015-12-06T10:43:21.000Z</time>
      </trkpt>
      <trkpt lat="47.47912" lon="6.66567">
        <ele>443</ele>
        <time>2015-12-06T10:43:22.000Z</time>
      </trkpt>
      <trkpt lat="47.47912" lon="6.6657">
        <ele>443</ele>
        <time>2015-12-06T10:43:23.000Z</time>
      </trkpt>
      <trkpt lat="47.47912" lon="6.66573">
        <ele>444</ele>
        <time>2015-12-06T10:43:24.000Z</time>
      </trkpt>
      <trkpt lat="47.47912" lon="6.66577">
        <ele>445</ele>
        <time>2015-12-06T10:43:25.000Z</time>
      </trkpt>
      <trkpt lat="47.47912" lon="6.66581">
        <ele>445</ele>
        <time>2015-12-06T10:43:26.000Z</time>
      </trkpt>
      <trkpt lat="47.47912" lon="6.66584">
        <ele>446</ele>
        <time>2015-12-06T10:43:27.000Z</time>
      </trkpt>
      <trkpt lat="47.47912" lon="6.66588">
        <ele>446</ele>
        <time>2015-12-06T10:43:28.000Z</time>
      </trkpt>
      <trkpt lat="47.47913" lon="6.66592">
        <ele>445</ele>
        <time>2015-12-06T10:43:29.000Z</time>
      </trkpt>
      <trkpt lat="47.47913" lon="6.66596">
        <ele>445</ele>
        <time>2015-12-06T10:43:30.000Z</time>
      </trkpt>
      <trkpt lat="47.47914" lon="6.66601">
        <ele>445</ele>
        <time>2015-12-06T10:43:31.000Z</time>
      </trkpt>
      <trkpt lat="47.47915" lon="6.66605">
        <ele>444</ele>
        <time>2015-12-06T10:43:32.000Z</time>
      </trkpt>
      <trkpt lat="47.47915" lon="6.6661">
        <ele>444</ele>
        <time>2015-12-06T10:43:33.000Z</time>
      </trkpt>
      <trkpt lat="47.47915" lon="6.66614">
        <ele>444</ele>
        <time>2015-12-06T10:43:34.000Z</time>
      </trkpt>
      <trkpt lat="47.47916" lon="6.66619">
        <ele>444</ele>
        <time>2015-12-06T10:43:35.000Z</time>
      </trkpt>
      <trkpt lat="47.47916" lon="6.66623">
        <ele>444</ele>
        <time>2015-12-06T10:43:36.000Z</time>
      </trkpt>
      <trkpt lat="47.47916" lon="6.66628">
        <ele>444</ele>
        <time>2015-12-06T10:43:37.000Z</time>
      </trkpt>
      <trkpt lat="47.47917" lon="6.66634">
        <ele>445</ele>
        <time>2015-12-06T10:43:38.000Z</time>
      </trkpt>
      <trkpt lat="47.47917" lon="6.6664">
        <ele>445</ele>
        <time>2015-12-06T10:43:39.000Z</time>
      </trkpt>
      <trkpt lat="47.47917" lon="6.66646">
        <ele>445</ele>
        <time>2015-12-06T10:43:40.000Z</time>
      </trkpt>
      <trkpt lat="47.47917" lon="6.66651">
        <ele>446</ele>
        <time>2015-12-06T10:43:41.000Z</time>
      </trkpt>
      <trkpt lat="47.47916" lon="6.66658">
        <ele>447</ele>
        <time>2015-12-06T10:43:42.000Z</time>
      </trkpt>
      <trkpt lat="47.47916" lon="6.66664">
        <ele>448</ele>
        <time>2015-12-06T10:43:43.000Z</time>
      </trkpt>
      <trkpt lat="47.47916" lon="6.66669">
        <ele>449</ele>
        <time>2015-12-06T10:43:44.000Z</time>
      </trkpt>
      <trkpt lat="47.47917" lon="6.66675">
        <ele>448</ele>
        <time>2015-12-06T10:43:45.000Z</time>
      </trkpt>
      <trkpt lat="47.47917" lon="6.66681">
        <ele>448</ele>
        <time>2015-12-06T10:43:46.000Z</time>
      </trkpt>
      <trkpt lat="47.47918" lon="6.66686">
        <ele>448</ele>
        <time>2015-12-06T10:43:47.000Z</time>
      </trkpt>
      <trkpt lat="47.47918" lon="6.66692">
        <ele>447</ele>
        <time>2015-12-06T10:43:48.000Z</time>
      </trkpt>
      <trkpt lat="47.47918" lon="6.66697">
        <ele>447</ele>
        <time>2015-12-06T10:43:49.000Z</time>
      </trkpt>
      <trkpt lat="47.47919" lon="6.66703">
        <ele>447</ele>
        <time>2015-12-06T10:43:50.000Z</time>
      </trkpt>
      <trkpt lat="47.47919" lon="6.66708">
        <ele>447</ele>
        <time>2015-12-06T10:43:51.000Z</time>
      </trkpt>
      <trkpt lat="47.4792" lon="6.66714">
        <ele>447</ele>
        <time>2015-12-06T10:43:52.000Z</time>
      </trkpt>
      <trkpt lat="47.4792" lon="6.66719">
        <ele>447</ele>
        <time>2015-12-06T10:43:53.000Z</time>
      </trkpt>
      <trkpt lat="47.4792" lon="6.66725">
        <ele>447</ele>
        <time>2015-12-06T10:43:54.000Z</time>
      </trkpt>
      <trkpt lat="47.47921" lon="6.6673">
        <ele>447</ele>
        <time>2015-12-06T10:43:55.000Z</time>
      </trkpt>
      <trkpt lat="47.47921" lon="6.66735">
        <ele>448</ele>
        <time>2015-12-06T10:43:56.000Z</time>
      </trkpt>
      <trkpt lat="47.47921" lon="6.66741">
        <ele>448</ele>
        <time>2015-12-06T10:43:57.000Z</time>
      </trkpt>
      <trkpt lat="47.47921" lon="6.66747">
        <ele>448</ele>
        <time>2015-12-06T10:43:58.000Z</time>
      </trkpt>
      <trkpt lat="47.4792" lon="6.66754">
        <ele>448</ele>
        <time>2015-12-06T10:43:59.000Z</time>
      </trkpt>
      <trkpt lat="47.4792" lon="6.6676">
        <ele>448</ele>
        <time>2015-12-06T10:44:00.000Z</time>
      </trkpt>
      <trkpt lat="47.4792" lon="6.66766">
        <ele>448</ele>
        <time>2015-12-06T10:44:01.000Z</time>
      </trkpt>
      <trkpt lat="47.4792" lon="6.66772">
        <ele>447</ele>
        <time>2015-12-06T10:44:02.000Z</time>
      </trkpt>
      <trkpt lat="47.47923" lon="6.66792">
        <ele>447</ele>
        <time>2015-12-06T10:44:03.000Z</time>
      </trkpt>
      <trkpt lat="47.47924" lon="6.668">
        <ele>447</ele>
        <time>2015-12-06T10:44:04.000Z</time>
      </trkpt>
      <trkpt lat="47.47924" lon="6.66804">
        <ele>447</ele>
        <time>2015-12-06T10:44:05.000Z</time>
      </trkpt>
      <trkpt lat="47.47924" lon="6.6681">
        <ele>447</ele>
        <time>2015-12-06T10:44:06.000Z</time>
      </trkpt>
      <trkpt lat="47.47923" lon="6.66817">
        <ele>448</ele>
        <time>2015-12-06T10:44:07.000Z</time>
      </trkpt>
      <trkpt lat="47.47923" lon="6.66827">
        <ele>449</ele>
        <time>2015-12-06T10:44:08.000Z</time>
      </trkpt>
      <trkpt lat="47.47925" lon="6.66836">
        <ele>448</ele>
        <time>2015-12-06T10:44:09.000Z</time>
      </trkpt>
      <trkpt lat="47.47926" lon="6.66844">
        <ele>448</ele>
        <time>2015-12-06T10:44:10.000Z</time>
      </trkpt>
      <trkpt lat="47.47926" lon="6.66849">
        <ele>447</ele>
        <time>2015-12-06T10:44:11.000Z</time>
      </trkpt>
      <trkpt lat="47.47927" lon="6.66854">
        <ele>447</ele>
        <time>2015-12-06T10:44:12.000Z</time>
      </trkpt>
      <trkpt lat="47.47928" lon="6.6686">
        <ele>446</ele>
        <time>2015-12-06T10:44:13.000Z</time>
      </trkpt>
      <trkpt lat="47.47928" lon="6.66866">
        <ele>446</ele>
        <time>2015-12-06T10:44:14.000Z</time>
      </trkpt>
      <trkpt lat="47.47927" lon="6.6687">
        <ele>446</ele>
        <time>2015-12-06T10:44:15.000Z</time>
      </trkpt>
      <trkpt lat="47.47927" lon="6.66873">
        <ele>446</ele>
        <time>2015-12-06T10:44:16.000Z</time>
      </trkpt>
      <trkpt lat="47.47925" lon="6.66875">
        <ele>446</ele>
        <time>2015-12-06T10:44:17.000Z</time>
      </trkpt>
      <trkpt lat="47.47925" lon="6.6688">
        <ele>446</ele>
        <time>2015-12-06T10:44:18.000Z</time>
      </trkpt>
      <trkpt lat="47.47924" lon="6.66883">
        <ele>446</ele>
        <time>2015-12-06T10:44:19.000Z</time>
      </trkpt>
      <trkpt lat="47.47924" lon="6.66887">
        <ele>446</ele>
        <time>2015-12-06T10:44:20.000Z</time>
      </trkpt>
      <trkpt lat="47.47923" lon="6.6689">
        <ele>447</ele>
        <time>2015-12-06T10:44:21.000Z</time>
      </trkpt>
      <trkpt lat="47.47922" lon="6.66894">
        <ele>447</ele>
        <time>2015-12-06T10:44:22.000Z</time>
      </trkpt>
      <trkpt lat="47.47921" lon="6.66898">
        <ele>447</ele>
        <time>2015-12-06T10:44:23.000Z</time>
      </trkpt>
      <trkpt lat="47.4792" lon="6.66902">
        <ele>447</ele>
        <time>2015-12-06T10:44:24.000Z</time>
      </trkpt>
      <trkpt lat="47.4792" lon="6.66906">
        <ele>448</ele>
        <time>2015-12-06T10:44:25.000Z</time>
      </trkpt>
      <trkpt lat="47.4792" lon="6.6691">
        <ele>449</ele>
        <time>2015-12-06T10:44:26.000Z</time>
      </trkpt>
      <trkpt lat="47.4792" lon="6.66915">
        <ele>449</ele>
        <time>2015-12-06T10:44:27.000Z</time>
      </trkpt>
      <trkpt lat="47.47919" lon="6.66918">
        <ele>449</ele>
        <time>2015-12-06T10:44:28.000Z</time>
      </trkpt>
      <trkpt lat="47.47919" lon="6.66922">
        <ele>449</ele>
        <time>2015-12-06T10:44:29.000Z</time>
      </trkpt>
      <trkpt lat="47.47919" lon="6.66925">
        <ele>448</ele>
        <time>2015-12-06T10:44:30.000Z</time>
      </trkpt>
      <trkpt lat="47.47918" lon="6.66929">
        <ele>448</ele>
        <time>2015-12-06T10:44:31.000Z</time>
      </trkpt>
      <trkpt lat="47.47918" lon="6.66933">
        <ele>448</ele>
        <time>2015-12-06T10:44:32.000Z</time>
      </trkpt>
      <trkpt lat="47.47917" lon="6.66937">
        <ele>447</ele>
        <time>2015-12-06T10:44:33.000Z</time>
      </trkpt>
      <trkpt lat="47.47915" lon="6.66942">
        <ele>450</ele>
        <time>2015-12-06T10:44:34.000Z</time>
      </trkpt>
      <trkpt lat="47.47913" lon="6.66946">
        <ele>450</ele>
        <time>2015-12-06T10:44:35.000Z</time>
      </trkpt>
      <trkpt lat="47.47911" lon="6.66951">
        <ele>450</ele>
        <time>2015-12-06T10:44:36.000Z</time>
      </trkpt>
      <trkpt lat="47.4791" lon="6.66956">
        <ele>451</ele>
        <time>2015-12-06T10:44:37.000Z</time>
      </trkpt>
      <trkpt lat="47.47909" lon="6.6696">
        <ele>451</ele>
        <time>2015-12-06T10:44:38.000Z</time>
      </trkpt>
      <trkpt lat="47.47908" lon="6.66964">
        <ele>451</ele>
        <time>2015-12-06T10:44:39.000Z</time>
      </trkpt>
      <trkpt lat="47.47908" lon="6.66969">
        <ele>451</ele>
        <time>2015-12-06T10:44:40.000Z</time>
      </trkpt>
      <trkpt lat="47.47908" lon="6.66974">
        <ele>451</ele>
        <time>2015-12-06T10:44:41.000Z</time>
      </trkpt>
      <trkpt lat="47.47907" lon="6.66979">
        <ele>452</ele>
        <time>2015-12-06T10:44:42.000Z</time>
      </trkpt>
      <trkpt lat="47.47907" lon="6.66984">
        <ele>452</ele>
        <time>2015-12-06T10:44:43.000Z</time>
      </trkpt>
      <trkpt lat="47.47907" lon="6.66989">
        <ele>452</ele>
        <time>2015-12-06T10:44:44.000Z</time>
      </trkpt>
      <trkpt lat="47.47906" lon="6.66993">
        <ele>452</ele>
        <time>2015-12-06T10:44:45.000Z</time>
      </trkpt>
      <trkpt lat="47.47906" lon="6.66997">
        <ele>453</ele>
        <time>2015-12-06T10:44:46.000Z</time>
      </trkpt>
      <trkpt lat="47.47905" lon="6.67001">
        <ele>452</ele>
        <time>2015-12-06T10:44:47.000Z</time>
      </trkpt>
      <trkpt lat="47.47904" lon="6.67006">
        <ele>452</ele>
        <time>2015-12-06T10:44:48.000Z</time>
      </trkpt>
      <trkpt lat="47.47904" lon="6.6701">
        <ele>452</ele>
        <time>2015-12-06T10:44:49.000Z</time>
      </trkpt>
      <trkpt lat="47.47903" lon="6.67015">
        <ele>452</ele>
        <time>2015-12-06T10:44:50.000Z</time>
      </trkpt>
      <trkpt lat="47.47902" lon="6.6702">
        <ele>451</ele>
        <time>2015-12-06T10:44:51.000Z</time>
      </trkpt>
      <trkpt lat="47.47902" lon="6.67025">
        <ele>451</ele>
        <time>2015-12-06T10:44:52.000Z</time>
      </trkpt>
      <trkpt lat="47.47902" lon="6.6703">
        <ele>451</ele>
        <time>2015-12-06T10:44:53.000Z</time>
      </trkpt>
      <trkpt lat="47.47902" lon="6.67036">
        <ele>451</ele>
        <time>2015-12-06T10:44:54.000Z</time>
      </trkpt>
      <trkpt lat="47.47902" lon="6.67041">
        <ele>451</ele>
        <time>2015-12-06T10:44:55.000Z</time>
      </trkpt>
      <trkpt lat="47.47902" lon="6.67046">
        <ele>450</ele>
        <time>2015-12-06T10:44:56.000Z</time>
      </trkpt>
      <trkpt lat="47.47902" lon="6.67051">
        <ele>450</ele>
        <time>2015-12-06T10:44:57.000Z</time>
      </trkpt>
      <trkpt lat="47.47901" lon="6.67056">
        <ele>450</ele>
        <time>2015-12-06T10:44:58.000Z</time>
      </trkpt>
      <trkpt lat="47.47901" lon="6.6706">
        <ele>450</ele>
        <time>2015-12-06T10:44:59.000Z</time>
      </trkpt>
      <trkpt lat="47.479" lon="6.67064">
        <ele>450</ele>
        <time>2015-12-06T10:45:00.000Z</time>
      </trkpt>
      <trkpt lat="47.47899" lon="6.67068">
        <ele>450</ele>
        <time>2015-12-06T10:45:01.000Z</time>
      </trkpt>
      <trkpt lat="47.47897" lon="6.67071">
        <ele>450</ele>
        <time>2015-12-06T10:45:02.000Z</time>
      </trkpt>
      <trkpt lat="47.47896" lon="6.67073">
        <ele>450</ele>
        <time>2015-12-06T10:45:02.979Z</time>
      </trkpt>
      <trkpt lat="47.47895" lon="6.67078">
        <ele>450</ele>
        <time>2015-12-06T10:45:04.000Z</time>
      </trkpt>
      <trkpt lat="47.47893" lon="6.67083">
        <ele>450</ele>
        <time>2015-12-06T10:45:06.000Z</time>
      </trkpt>
      <trkpt lat="47.47892" lon="6.67085">
        <ele>448</ele>
        <time>2015-12-06T10:45:07.000Z</time>
      </trkpt>
      <trkpt lat="47.47891" lon="6.67088">
        <ele>448</ele>
        <time>2015-12-06T10:45:09.000Z</time>
      </trkpt>
      <trkpt lat="47.4789" lon="6.67091">
        <ele>448</ele>
        <time>2015-12-06T10:45:10.000Z</time>
      </trkpt>
      <trkpt lat="47.47889" lon="6.67097">
        <ele>447</ele>
        <time>2015-12-06T10:45:17.000Z</time>
      </trkpt>
      <trkpt lat="47.47888" lon="6.67097">
        <ele>447</ele>
        <time>2015-12-06T10:45:18.000Z</time>
      </trkpt>
      <trkpt lat="47.47887" lon="6.67103">
        <ele>447</ele>
        <time>2015-12-06T10:45:33.000Z</time>
      </trkpt>
      <trkpt lat="47.47887" lon="6.67104">
        <ele>447</ele>
        <time>2015-12-06T10:45:34.000Z</time>
      </trkpt>
      <trkpt lat="47.47886" lon="6.67109">
        <ele>447</ele>
        <time>2015-12-06T10:45:36.000Z</time>
      </trkpt>
      <trkpt lat="47.47885" lon="6.67112">
        <ele>447</ele>
        <time>2015-12-06T10:45:37.000Z</time>
      </trkpt>
      <trkpt lat="47.47885" lon="6.67115">
        <ele>447</ele>
        <time>2015-12-06T10:45:38.000Z</time>
      </trkpt>
      <trkpt lat="47.47884" lon="6.67119">
        <ele>447</ele>
        <time>2015-12-06T10:45:39.000Z</time>
      </trkpt>
      <trkpt lat="47.47883" lon="6.67125">
        <ele>446</ele>
        <time>2015-12-06T10:45:41.000Z</time>
      </trkpt>
      <trkpt lat="47.47882" lon="6.67128">
        <ele>446</ele>
        <time>2015-12-06T10:45:42.000Z</time>
      </trkpt>
      <trkpt lat="47.47881" lon="6.67134">
        <ele>446</ele>
        <time>2015-12-06T10:45:44.000Z</time>
      </trkpt>
      <trkpt lat="47.47881" lon="6.67137">
        <ele>446</ele>
        <time>2015-12-06T10:45:45.000Z</time>
      </trkpt>
      <trkpt lat="47.47881" lon="6.67143">
        <ele>446</ele>
        <time>2015-12-06T10:45:47.000Z</time>
      </trkpt>
      <trkpt lat="47.47881" lon="6.67146">
        <ele>446</ele>
        <time>2015-12-06T10:45:48.000Z</time>
      </trkpt>
      <trkpt lat="47.4788" lon="6.6715">
        <ele>446</ele>
        <time>2015-12-06T10:45:49.000Z</time>
      </trkpt>
      <trkpt lat="47.4788" lon="6.67154">
        <ele>446</ele>
        <time>2015-12-06T10:45:50.000Z</time>
      </trkpt>
      <trkpt lat="47.47879" lon="6.67158">
        <ele>446</ele>
        <time>2015-12-06T10:45:51.000Z</time>
      </trkpt>
      <trkpt lat="47.47879" lon="6.67162">
        <ele>446</ele>
        <time>2015-12-06T10:45:52.000Z</time>
      </trkpt>
      <trkpt lat="47.47878" lon="6.67166">
        <ele>445</ele>
        <time>2015-12-06T10:45:53.000Z</time>
      </trkpt>
      <trkpt lat="47.47877" lon="6.67171">
        <ele>444</ele>
        <time>2015-12-06T10:45:54.000Z</time>
      </trkpt>
      <trkpt lat="47.47877" lon="6.67176">
        <ele>444</ele>
        <time>2015-12-06T10:45:55.000Z</time>
      </trkpt>
      <trkpt lat="47.47877" lon="6.67181">
        <ele>444</ele>
        <time>2015-12-06T10:45:56.000Z</time>
      </trkpt>
      <trkpt lat="47.47876" lon="6.67186">
        <ele>444</ele>
        <time>2015-12-06T10:45:57.000Z</time>
      </trkpt>
      <trkpt lat="47.47876" lon="6.67192">
        <ele>444</ele>
        <time>2015-12-06T10:45:58.000Z</time>
      </trkpt>
      <trkpt lat="47.47876" lon="6.67198">
        <ele>444</ele>
        <time>2015-12-06T10:45:59.000Z</time>
      </trkpt>
      <trkpt lat="47.47875" lon="6.67203">
        <ele>444</ele>
        <time>2015-12-06T10:46:00.000Z</time>
      </trkpt>
      <trkpt lat="47.47875" lon="6.67209">
        <ele>444</ele>
        <time>2015-12-06T10:46:01.000Z</time>
      </trkpt>
      <trkpt lat="47.47874" lon="6.67215">
        <ele>444</ele>
        <time>2015-12-06T10:46:02.000Z</time>
      </trkpt>
      <trkpt lat="47.47873" lon="6.67221">
        <ele>444</ele>
        <time>2015-12-06T10:46:03.000Z</time>
      </trkpt>
      <trkpt lat="47.47873" lon="6.67227">
        <ele>444</ele>
        <time>2015-12-06T10:46:04.000Z</time>
      </trkpt>
      <trkpt lat="47.47872" lon="6.67233">
        <ele>444</ele>
        <time>2015-12-06T10:46:05.000Z</time>
      </trkpt>
      <trkpt lat="47.47872" lon="6.67238">
        <ele>443</ele>
        <time>2015-12-06T10:46:06.000Z</time>
      </trkpt>
      <trkpt lat="47.47872" lon="6.67244">
        <ele>443</ele>
        <time>2015-12-06T10:46:07.000Z</time>
      </trkpt>
      <trkpt lat="47.47871" lon="6.6725">
        <ele>443</ele>
        <time>2015-12-06T10:46:08.000Z</time>
      </trkpt>
      <trkpt lat="47.4787" lon="6.67256">
        <ele>443</ele>
        <time>2015-12-06T10:46:09.000Z</time>
      </trkpt>
      <trkpt lat="47.47868" lon="6.67262">
        <ele>443</ele>
        <time>2015-12-06T10:46:10.000Z</time>
      </trkpt>
      <trkpt lat="47.47867" lon="6.67267">
        <ele>443</ele>
        <time>2015-12-06T10:46:11.000Z</time>
      </trkpt>
      <trkpt lat="47.47866" lon="6.67273">
        <ele>443</ele>
        <time>2015-12-06T10:46:12.000Z</time>
      </trkpt>
      <trkpt lat="47.47865" lon="6.67279">
        <ele>443</ele>
        <time>2015-12-06T10:46:13.000Z</time>
      </trkpt>
      <trkpt lat="47.47865" lon="6.67286">
        <ele>443</ele>
        <time>2015-12-06T10:46:14.000Z</time>
      </trkpt>
      <trkpt lat="47.47865" lon="6.67294">
        <ele>443</ele>
        <time>2015-12-06T10:46:15.000Z</time>
      </trkpt>
      <trkpt lat="47.47866" lon="6.67311">
        <ele>443</ele>
        <time>2015-12-06T10:46:16.000Z</time>
      </trkpt>
      <trkpt lat="47.47865" lon="6.6732">
        <ele>443</ele>
        <time>2015-12-06T10:46:17.000Z</time>
      </trkpt>
      <trkpt lat="47.47863" lon="6.67328">
        <ele>443</ele>
        <time>2015-12-06T10:46:18.000Z</time>
      </trkpt>
      <trkpt lat="47.47863" lon="6.67334">
        <ele>443</ele>
        <time>2015-12-06T10:46:19.000Z</time>
      </trkpt>
      <trkpt lat="47.47864" lon="6.67337">
        <ele>443</ele>
        <time>2015-12-06T10:46:20.000Z</time>
      </trkpt>
      <trkpt lat="47.47865" lon="6.67342">
        <ele>443</ele>
        <time>2015-12-06T10:46:21.000Z</time>
      </trkpt>
      <trkpt lat="47.47865" lon="6.67346">
        <ele>443</ele>
        <time>2015-12-06T10:46:22.000Z</time>
      </trkpt>
      <trkpt lat="47.47864" lon="6.67352">
        <ele>443</ele>
        <time>2015-12-06T10:46:23.000Z</time>
      </trkpt>
      <trkpt lat="47.47862" lon="6.67359">
        <ele>443</ele>
        <time>2015-12-06T10:46:24.000Z</time>
      </trkpt>
      <trkpt lat="47.47861" lon="6.67364">
        <ele>443</ele>
        <time>2015-12-06T10:46:25.000Z</time>
      </trkpt>
      <trkpt lat="47.4786" lon="6.6737">
        <ele>443</ele>
        <time>2015-12-06T10:46:26.000Z</time>
      </trkpt>
      <trkpt lat="47.47859" lon="6.67375">
        <ele>443</ele>
        <time>2015-12-06T10:46:27.000Z</time>
      </trkpt>
      <trkpt lat="47.47858" lon="6.6738">
        <ele>443</ele>
        <time>2015-12-06T10:46:28.000Z</time>
      </trkpt>
      <trkpt lat="47.47857" lon="6.67384">
        <ele>443</ele>
        <time>2015-12-06T10:46:29.000Z</time>
      </trkpt>
      <trkpt lat="47.47855" lon="6.67389">
        <ele>444</ele>
        <time>2015-12-06T10:46:30.000Z</time>
      </trkpt>
      <trkpt lat="47.47854" lon="6.67393">
        <ele>444</ele>
        <time>2015-12-06T10:46:31.000Z</time>
      </trkpt>
      <trkpt lat="47.47852" lon="6.67398">
        <ele>444</ele>
        <time>2015-12-06T10:46:32.000Z</time>
      </trkpt>
      <trkpt lat="47.47851" lon="6.67402">
        <ele>444</ele>
        <time>2015-12-06T10:46:33.000Z</time>
      </trkpt>
      <trkpt lat="47.4785" lon="6.67407">
        <ele>444</ele>
        <time>2015-12-06T10:46:34.000Z</time>
      </trkpt>
      <trkpt lat="47.47849" lon="6.67411">
        <ele>444</ele>
        <time>2015-12-06T10:46:35.000Z</time>
      </trkpt>
      <trkpt lat="47.47849" lon="6.67416">
        <ele>445</ele>
        <time>2015-12-06T10:46:36.000Z</time>
      </trkpt>
      <trkpt lat="47.47849" lon="6.67431">
        <ele>444</ele>
        <time>2015-12-06T10:46:37.000Z</time>
      </trkpt>
      <trkpt lat="47.47847" lon="6.67439">
        <ele>444</ele>
        <time>2015-12-06T10:46:38.000Z</time>
      </trkpt>
      <trkpt lat="47.47846" lon="6.67445">
        <ele>444</ele>
        <time>2015-12-06T10:46:39.000Z</time>
      </trkpt>
      <trkpt lat="47.47846" lon="6.67451">
        <ele>443</ele>
        <time>2015-12-06T10:46:40.000Z</time>
      </trkpt>
      <trkpt lat="47.47846" lon="6.67456">
        <ele>443</ele>
        <time>2015-12-06T10:46:41.000Z</time>
      </trkpt>
      <trkpt lat="47.47845" lon="6.67461">
        <ele>443</ele>
        <time>2015-12-06T10:46:42.000Z</time>
      </trkpt>
      <trkpt lat="47.47844" lon="6.67465">
        <ele>443</ele>
        <time>2015-12-06T10:46:43.000Z</time>
      </trkpt>
      <trkpt lat="47.47845" lon="6.67471">
        <ele>444</ele>
        <time>2015-12-06T10:46:44.000Z</time>
      </trkpt>
      <trkpt lat="47.47845" lon="6.67478">
        <ele>444</ele>
        <time>2015-12-06T10:46:45.000Z</time>
      </trkpt>
      <trkpt lat="47.47844" lon="6.67485">
        <ele>444</ele>
        <time>2015-12-06T10:46:46.000Z</time>
      </trkpt>
      <trkpt lat="47.47844" lon="6.6749">
        <ele>444</ele>
        <time>2015-12-06T10:46:47.000Z</time>
      </trkpt>
      <trkpt lat="47.47844" lon="6.67495">
        <ele>445</ele>
        <time>2015-12-06T10:46:48.000Z</time>
      </trkpt>
      <trkpt lat="47.47843" lon="6.67502">
        <ele>444</ele>
        <time>2015-12-06T10:46:49.000Z</time>
      </trkpt>
      <trkpt lat="47.47843" lon="6.67507">
        <ele>443</ele>
        <time>2015-12-06T10:46:50.000Z</time>
      </trkpt>
      <trkpt lat="47.47843" lon="6.67512">
        <ele>443</ele>
        <time>2015-12-06T10:46:51.000Z</time>
      </trkpt>
      <trkpt lat="47.47842" lon="6.67517">
        <ele>442</ele>
        <time>2015-12-06T10:46:52.000Z</time>
      </trkpt>
      <trkpt lat="47.47842" lon="6.67521">
        <ele>442</ele>
        <time>2015-12-06T10:46:53.000Z</time>
      </trkpt>
      <trkpt lat="47.47841" lon="6.67526">
        <ele>441</ele>
        <time>2015-12-06T10:46:54.000Z</time>
      </trkpt>
      <trkpt lat="47.4784" lon="6.67531">
        <ele>441</ele>
        <time>2015-12-06T10:46:55.000Z</time>
      </trkpt>
      <trkpt lat="47.47839" lon="6.67537">
        <ele>441</ele>
        <time>2015-12-06T10:46:56.000Z</time>
      </trkpt>
      <trkpt lat="47.47838" lon="6.67542">
        <ele>441</ele>
        <time>2015-12-06T10:46:57.000Z</time>
      </trkpt>
      <trkpt lat="47.47838" lon="6.67546">
        <ele>441</ele>
        <time>2015-12-06T10:46:58.000Z</time>
      </trkpt>
      <trkpt lat="47.47833" lon="6.67559">
        <ele>441</ele>
        <time>2015-12-06T10:46:59.000Z</time>
      </trkpt>
      <trkpt lat="47.47834" lon="6.67565">
        <ele>441</ele>
        <time>2015-12-06T10:47:00.000Z</time>
      </trkpt>
      <trkpt lat="47.47833" lon="6.6757">
        <ele>445</ele>
        <time>2015-12-06T10:47:01.000Z</time>
      </trkpt>
      <trkpt lat="47.47833" lon="6.67575">
        <ele>444</ele>
        <time>2015-12-06T10:47:03.000Z</time>
      </trkpt>
      <trkpt lat="47.47834" lon="6.67578">
        <ele>443</ele>
        <time>2015-12-06T10:47:04.000Z</time>
      </trkpt>
      <trkpt lat="47.47835" lon="6.67584">
        <ele>443</ele>
        <time>2015-12-06T10:47:06.000Z</time>
      </trkpt>
      <trkpt lat="47.47833" lon="6.67585">
        <ele>444</ele>
        <time>2015-12-06T10:47:07.000Z</time>
      </trkpt>
      <trkpt lat="47.4783" lon="6.67589">
        <ele>444</ele>
        <time>2015-12-06T10:47:11.000Z</time>
      </trkpt>
      <trkpt lat="47.4783" lon="6.6759">
        <ele>444</ele>
        <time>2015-12-06T10:47:12.000Z</time>
      </trkpt>
      <trkpt lat="47.47828" lon="6.67595">
        <ele>445</ele>
        <time>2015-12-06T10:47:18.000Z</time>
      </trkpt>
      <trkpt lat="47.47828" lon="6.67597">
        <ele>445</ele>
        <time>2015-12-06T10:47:19.000Z</time>
      </trkpt>
      <trkpt lat="47.47828" lon="6.67603">
        <ele>445</ele>
        <time>2015-12-06T10:47:21.000Z</time>
      </trkpt>
      <trkpt lat="47.47827" lon="6.67606">
        <ele>445</ele>
        <time>2015-12-06T10:47:22.000Z</time>
      </trkpt>
      <trkpt lat="47.47827" lon="6.6761">
        <ele>445</ele>
        <time>2015-12-06T10:47:23.000Z</time>
      </trkpt>
      <trkpt lat="47.47827" lon="6.67614">
        <ele>445</ele>
        <time>2015-12-06T10:47:24.000Z</time>
      </trkpt>
      <trkpt lat="47.47827" lon="6.67618">
        <ele>445</ele>
        <time>2015-12-06T10:47:25.000Z</time>
      </trkpt>
      <trkpt lat="47.47827" lon="6.67622">
        <ele>445</ele>
        <time>2015-12-06T10:47:26.000Z</time>
      </trkpt>
      <trkpt lat="47.47827" lon="6.67626">
        <ele>445</ele>
        <time>2015-12-06T10:47:27.000Z</time>
      </trkpt>
      <trkpt lat="47.47826" lon="6.6763">
        <ele>445</ele>
        <time>2015-12-06T10:47:28.000Z</time>
      </trkpt>
      <trkpt lat="47.47826" lon="6.67634">
        <ele>444</ele>
        <time>2015-12-06T10:47:29.000Z</time>
      </trkpt>
      <trkpt lat="47.47825" lon="6.67638">
        <ele>444</ele>
        <time>2015-12-06T10:47:30.000Z</time>
      </trkpt>
      <trkpt lat="47.47824" lon="6.67644">
        <ele>444</ele>
        <time>2015-12-06T10:47:31.000Z</time>
      </trkpt>
      <trkpt lat="47.47823" lon="6.6765">
        <ele>444</ele>
        <time>2015-12-06T10:47:32.000Z</time>
      </trkpt>
      <trkpt lat="47.47822" lon="6.67658">
        <ele>443</ele>
        <time>2015-12-06T10:47:33.000Z</time>
      </trkpt>
      <trkpt lat="47.47821" lon="6.67667">
        <ele>443</ele>
        <time>2015-12-06T10:47:34.000Z</time>
      </trkpt>
      <trkpt lat="47.4782" lon="6.67677">
        <ele>443</ele>
        <time>2015-12-06T10:47:35.000Z</time>
      </trkpt>
      <trkpt lat="47.47819" lon="6.67685">
        <ele>443</ele>
        <time>2015-12-06T10:47:36.000Z</time>
      </trkpt>
      <trkpt lat="47.47819" lon="6.67694">
        <ele>444</ele>
        <time>2015-12-06T10:47:37.000Z</time>
      </trkpt>
      <trkpt lat="47.47819" lon="6.67701">
        <ele>444</ele>
        <time>2015-12-06T10:47:38.000Z</time>
      </trkpt>
      <trkpt lat="47.47819" lon="6.67708">
        <ele>444</ele>
        <time>2015-12-06T10:47:39.000Z</time>
      </trkpt>
      <trkpt lat="47.47819" lon="6.67714">
        <ele>444</ele>
        <time>2015-12-06T10:47:40.000Z</time>
      </trkpt>
      <trkpt lat="47.47819" lon="6.6772">
        <ele>444</ele>
        <time>2015-12-06T10:47:41.000Z</time>
      </trkpt>
      <trkpt lat="47.4782" lon="6.67725">
        <ele>444</ele>
        <time>2015-12-06T10:47:42.000Z</time>
      </trkpt>
      <trkpt lat="47.47819" lon="6.6773">
        <ele>443</ele>
        <time>2015-12-06T10:47:43.000Z</time>
      </trkpt>
      <trkpt lat="47.47819" lon="6.67734">
        <ele>443</ele>
        <time>2015-12-06T10:47:44.000Z</time>
      </trkpt>
      <trkpt lat="47.47819" lon="6.67739">
        <ele>443</ele>
        <time>2015-12-06T10:47:45.000Z</time>
      </trkpt>
      <trkpt lat="47.47818" lon="6.67743">
        <ele>443</ele>
        <time>2015-12-06T10:47:46.000Z</time>
      </trkpt>
      <trkpt lat="47.47817" lon="6.67748">
        <ele>443</ele>
        <time>2015-12-06T10:47:47.000Z</time>
      </trkpt>
      <trkpt lat="47.47817" lon="6.67754">
        <ele>442</ele>
        <time>2015-12-06T10:47:48.000Z</time>
      </trkpt>
      <trkpt lat="47.47816" lon="6.67761">
        <ele>442</ele>
        <time>2015-12-06T10:47:49.000Z</time>
      </trkpt>
      <trkpt lat="47.47815" lon="6.6778">
        <ele>442</ele>
        <time>2015-12-06T10:47:50.000Z</time>
      </trkpt>
      <trkpt lat="47.47815" lon="6.67788">
        <ele>441</ele>
        <time>2015-12-06T10:47:51.000Z</time>
      </trkpt>
      <trkpt lat="47.47815" lon="6.67795">
        <ele>441</ele>
        <time>2015-12-06T10:47:52.000Z</time>
      </trkpt>
      <trkpt lat="47.47815" lon="6.67801">
        <ele>441</ele>
        <time>2015-12-06T10:47:53.000Z</time>
      </trkpt>
      <trkpt lat="47.47814" lon="6.67806">
        <ele>440</ele>
        <time>2015-12-06T10:47:54.000Z</time>
      </trkpt>
      <trkpt lat="47.47815" lon="6.67811">
        <ele>440</ele>
        <time>2015-12-06T10:47:55.000Z</time>
      </trkpt>
      <trkpt lat="47.47815" lon="6.67816">
        <ele>440</ele>
        <time>2015-12-06T10:47:56.000Z</time>
      </trkpt>
      <trkpt lat="47.47815" lon="6.6782">
        <ele>439</ele>
        <time>2015-12-06T10:47:57.000Z</time>
      </trkpt>
      <trkpt lat="47.47817" lon="6.67825">
        <ele>439</ele>
        <time>2015-12-06T10:47:58.000Z</time>
      </trkpt>
      <trkpt lat="47.47817" lon="6.6783">
        <ele>439</ele>
        <time>2015-12-06T10:47:59.000Z</time>
      </trkpt>
      <trkpt lat="47.47818" lon="6.67834">
        <ele>436</ele>
        <time>2015-12-06T10:48:00.000Z</time>
      </trkpt>
      <trkpt lat="47.47818" lon="6.67837">
        <ele>436</ele>
        <time>2015-12-06T10:48:01.000Z</time>
      </trkpt>
      <trkpt lat="47.47819" lon="6.67841">
        <ele>436</ele>
        <time>2015-12-06T10:48:02.000Z</time>
      </trkpt>
      <trkpt lat="47.47819" lon="6.67845">
        <ele>436</ele>
        <time>2015-12-06T10:48:03.000Z</time>
      </trkpt>
      <trkpt lat="47.47819" lon="6.67849">
        <ele>436</ele>
        <time>2015-12-06T10:48:04.000Z</time>
      </trkpt>
      <trkpt lat="47.4782" lon="6.67854">
        <ele>435</ele>
        <time>2015-12-06T10:48:05.000Z</time>
      </trkpt>
      <trkpt lat="47.4782" lon="6.6786">
        <ele>435</ele>
        <time>2015-12-06T10:48:06.000Z</time>
      </trkpt>
      <trkpt lat="47.47821" lon="6.67866">
        <ele>435</ele>
        <time>2015-12-06T10:48:07.000Z</time>
      </trkpt>
      <trkpt lat="47.47822" lon="6.67873">
        <ele>434</ele>
        <time>2015-12-06T10:48:08.000Z</time>
      </trkpt>
      <trkpt lat="47.47824" lon="6.67894">
        <ele>432</ele>
        <time>2015-12-06T10:48:09.000Z</time>
      </trkpt>
      <trkpt lat="47.47826" lon="6.67902">
        <ele>431</ele>
        <time>2015-12-06T10:48:10.000Z</time>
      </trkpt>
      <trkpt lat="47.47826" lon="6.67909">
        <ele>429</ele>
        <time>2015-12-06T10:48:11.000Z</time>
      </trkpt>
      <trkpt lat="47.47828" lon="6.67917">
        <ele>426</ele>
        <time>2015-12-06T10:48:12.000Z</time>
      </trkpt>
      <trkpt lat="47.4783" lon="6.67918">
        <ele>426</ele>
        <time>2015-12-06T10:48:13.000Z</time>
      </trkpt>
      <trkpt lat="47.47831" lon="6.67922">
        <ele>426</ele>
        <time>2015-12-06T10:48:14.000Z</time>
      </trkpt>
      <trkpt lat="47.47832" lon="6.67926">
        <ele>426</ele>
        <time>2015-12-06T10:48:15.000Z</time>
      </trkpt>
      <trkpt lat="47.47832" lon="6.67929">
        <ele>426</ele>
        <time>2015-12-06T10:48:16.000Z</time>
      </trkpt>
      <trkpt lat="47.47834" lon="6.67935">
        <ele>417</ele>
        <time>2015-12-06T10:48:17.000Z</time>
      </trkpt>
      <trkpt lat="47.47836" lon="6.6794">
        <ele>416</ele>
        <time>2015-12-06T10:48:18.000Z</time>
      </trkpt>
      <trkpt lat="47.47836" lon="6.67946">
        <ele>415</ele>
        <time>2015-12-06T10:48:19.000Z</time>
      </trkpt>
      <trkpt lat="47.47836" lon="6.67954">
        <ele>414</ele>
        <time>2015-12-06T10:48:20.000Z</time>
      </trkpt>
      <trkpt lat="47.47835" lon="6.67959">
        <ele>414</ele>
        <time>2015-12-06T10:48:21.000Z</time>
      </trkpt>
      <trkpt lat="47.47836" lon="6.67964">
        <ele>413</ele>
        <time>2015-12-06T10:48:22.000Z</time>
      </trkpt>
      <trkpt lat="47.47835" lon="6.67967">
        <ele>413</ele>
        <time>2015-12-06T10:48:23.000Z</time>
      </trkpt>
      <trkpt lat="47.47835" lon="6.67971">
        <ele>413</ele>
        <time>2015-12-06T10:48:24.000Z</time>
      </trkpt>
      <trkpt lat="47.47834" lon="6.67975">
        <ele>414</ele>
        <time>2015-12-06T10:48:25.000Z</time>
      </trkpt>
      <trkpt lat="47.47833" lon="6.6798">
        <ele>424</ele>
        <time>2015-12-06T10:48:26.000Z</time>
      </trkpt>
      <trkpt lat="47.47833" lon="6.67984">
        <ele>423</ele>
        <time>2015-12-06T10:48:27.000Z</time>
      </trkpt>
      <trkpt lat="47.47832" lon="6.67988">
        <ele>422</ele>
        <time>2015-12-06T10:48:28.000Z</time>
      </trkpt>
      <trkpt lat="47.47834" lon="6.67992">
        <ele>416</ele>
        <time>2015-12-06T10:48:30.000Z</time>
      </trkpt>
      <trkpt lat="47.47836" lon="6.67993">
        <ele>416</ele>
        <time>2015-12-06T10:48:31.000Z</time>
      </trkpt>
      <trkpt lat="47.4784" lon="6.67996">
        <ele>416</ele>
        <time>2015-12-06T10:48:33.000Z</time>
      </trkpt>
      <trkpt lat="47.47841" lon="6.67997">
        <ele>415</ele>
        <time>2015-12-06T10:48:34.000Z</time>
      </trkpt>
      <trkpt lat="47.47845" lon="6.68001">
        <ele>413</ele>
        <time>2015-12-06T10:48:36.000Z</time>
      </trkpt>
      <trkpt lat="47.47846" lon="6.68003">
        <ele>412</ele>
        <time>2015-12-06T10:48:37.000Z</time>
      </trkpt>
      <trkpt lat="47.47849" lon="6.68007">
        <ele>411</ele>
        <time>2015-12-06T10:48:39.000Z</time>
      </trkpt>
      <trkpt lat="47.47851" lon="6.6801">
        <ele>411</ele>
        <time>2015-12-06T10:48:40.000Z</time>
      </trkpt>
      <trkpt lat="47.47852" lon="6.68013">
        <ele>410</ele>
        <time>2015-12-06T10:48:41.000Z</time>
      </trkpt>
      <trkpt lat="47.47855" lon="6.68016">
        <ele>409</ele>
        <time>2015-12-06T10:48:42.000Z</time>
      </trkpt>
      <trkpt lat="47.47859" lon="6.68019">
        <ele>408</ele>
        <time>2015-12-06T10:48:43.000Z</time>
      </trkpt>
      <trkpt lat="47.47871" lon="6.68026">
        <ele>406</ele>
        <time>2015-12-06T10:48:44.000Z</time>
      </trkpt>
      <trkpt lat="47.47876" lon="6.68029">
        <ele>405</ele>
        <time>2015-12-06T10:48:45.000Z</time>
      </trkpt>
      <trkpt lat="47.47882" lon="6.68033">
        <ele>404</ele>
        <time>2015-12-06T10:48:46.000Z</time>
      </trkpt>
      <trkpt lat="47.47887" lon="6.68042">
        <ele>403</ele>
        <time>2015-12-06T10:48:47.000Z</time>
      </trkpt>
      <trkpt lat="47.47893" lon="6.6805">
        <ele>403</ele>
        <time>2015-12-06T10:48:48.000Z</time>
      </trkpt>
      <trkpt lat="47.47899" lon="6.68056">
        <ele>402</ele>
        <time>2015-12-06T10:48:49.000Z</time>
      </trkpt>
      <trkpt lat="47.47905" lon="6.68062">
        <ele>401</ele>
        <time>2015-12-06T10:48:50.000Z</time>
      </trkpt>
      <trkpt lat="47.47911" lon="6.68065">
        <ele>400</ele>
        <time>2015-12-06T10:48:51.000Z</time>
      </trkpt>
      <trkpt lat="47.47916" lon="6.6807">
        <ele>399</ele>
        <time>2015-12-06T10:48:52.000Z</time>
      </trkpt>
      <trkpt lat="47.4792" lon="6.68076">
        <ele>395</ele>
        <time>2015-12-06T10:48:53.000Z</time>
      </trkpt>
      <trkpt lat="47.47924" lon="6.68082">
        <ele>395</ele>
        <time>2015-12-06T10:48:54.000Z</time>
      </trkpt>
      <trkpt lat="47.47924" lon="6.68087">
        <ele>394</ele>
        <time>2015-12-06T10:48:55.000Z</time>
      </trkpt>
      <trkpt lat="47.47921" lon="6.68092">
        <ele>394</ele>
        <time>2015-12-06T10:48:56.000Z</time>
      </trkpt>
      <trkpt lat="47.47917" lon="6.681">
        <ele>393</ele>
        <time>2015-12-06T10:48:57.000Z</time>
      </trkpt>
      <trkpt lat="47.47917" lon="6.68106">
        <ele>393</ele>
        <time>2015-12-06T10:48:58.000Z</time>
      </trkpt>
      <trkpt lat="47.47917" lon="6.68114">
        <ele>392</ele>
        <time>2015-12-06T10:48:59.000Z</time>
      </trkpt>
      <trkpt lat="47.47916" lon="6.68122">
        <ele>397</ele>
        <time>2015-12-06T10:49:00.000Z</time>
      </trkpt>
      <trkpt lat="47.47916" lon="6.68133">
        <ele>396</ele>
        <time>2015-12-06T10:49:01.000Z</time>
      </trkpt>
      <trkpt lat="47.47916" lon="6.68145">
        <ele>395</ele>
        <time>2015-12-06T10:49:02.000Z</time>
      </trkpt>
      <trkpt lat="47.47915" lon="6.68157">
        <ele>392</ele>
        <time>2015-12-06T10:49:03.000Z</time>
      </trkpt>
      <trkpt lat="47.47913" lon="6.68167">
        <ele>389</ele>
        <time>2015-12-06T10:49:04.000Z</time>
      </trkpt>
      <trkpt lat="47.47913" lon="6.68176">
        <ele>389</ele>
        <time>2015-12-06T10:49:05.000Z</time>
      </trkpt>
      <trkpt lat="47.47911" lon="6.68187">
        <ele>388</ele>
        <time>2015-12-06T10:49:06.000Z</time>
      </trkpt>
      <trkpt lat="47.47909" lon="6.68196">
        <ele>387</ele>
        <time>2015-12-06T10:49:07.000Z</time>
      </trkpt>
      <trkpt lat="47.47908" lon="6.68206">
        <ele>386</ele>
        <time>2015-12-06T10:49:08.000Z</time>
      </trkpt>
      <trkpt lat="47.47906" lon="6.68216">
        <ele>385</ele>
        <time>2015-12-06T10:49:09.000Z</time>
      </trkpt>
      <trkpt lat="47.47904" lon="6.68223">
        <ele>384</ele>
        <time>2015-12-06T10:49:10.000Z</time>
      </trkpt>
      <trkpt lat="47.47903" lon="6.68228">
        <ele>383</ele>
        <time>2015-12-06T10:49:11.000Z</time>
      </trkpt>
      <trkpt lat="47.47902" lon="6.68233">
        <ele>382</ele>
        <time>2015-12-06T10:49:12.000Z</time>
      </trkpt>
      <trkpt lat="47.47901" lon="6.68241">
        <ele>381</ele>
        <time>2015-12-06T10:49:13.000Z</time>
      </trkpt>
      <trkpt lat="47.47901" lon="6.68246">
        <ele>381</ele>
        <time>2015-12-06T10:49:14.000Z</time>
      </trkpt>
      <trkpt lat="47.47901" lon="6.68251">
        <ele>375</ele>
        <time>2015-12-06T10:49:15.000Z</time>
      </trkpt>
      <trkpt lat="47.479" lon="6.68258">
        <ele>375</ele>
        <time>2015-12-06T10:49:16.000Z</time>
      </trkpt>
      <trkpt lat="47.47896" lon="6.68267">
        <ele>374</ele>
        <time>2015-12-06T10:49:17.000Z</time>
      </trkpt>
      <trkpt lat="47.47895" lon="6.68274">
        <ele>374</ele>
        <time>2015-12-06T10:49:18.000Z</time>
      </trkpt>
      <trkpt lat="47.47893" lon="6.68282">
        <ele>374</ele>
        <time>2015-12-06T10:49:19.000Z</time>
      </trkpt>
      <trkpt lat="47.47893" lon="6.68288">
        <ele>373</ele>
        <time>2015-12-06T10:49:20.000Z</time>
      </trkpt>
      <trkpt lat="47.47891" lon="6.68298">
        <ele>373</ele>
        <time>2015-12-06T10:49:21.000Z</time>
      </trkpt>
      <trkpt lat="47.47891" lon="6.68306">
        <ele>372</ele>
        <time>2015-12-06T10:49:22.000Z</time>
      </trkpt>
      <trkpt lat="47.47892" lon="6.68314">
        <ele>371</ele>
        <time>2015-12-06T10:49:23.000Z</time>
      </trkpt>
      <trkpt lat="47.47891" lon="6.68318">
        <ele>371</ele>
        <time>2015-12-06T10:49:24.000Z</time>
      </trkpt>
      <trkpt lat="47.47893" lon="6.68321">
        <ele>370</ele>
        <time>2015-12-06T10:49:25.000Z</time>
      </trkpt>
      <trkpt lat="47.47893" lon="6.68327">
        <ele>370</ele>
        <time>2015-12-06T10:49:26.000Z</time>
      </trkpt>
      <trkpt lat="47.47892" lon="6.68333">
        <ele>370</ele>
        <time>2015-12-06T10:49:27.000Z</time>
      </trkpt>
      <trkpt lat="47.4789" lon="6.68338">
        <ele>365</ele>
        <time>2015-12-06T10:49:28.000Z</time>
      </trkpt>
      <trkpt lat="47.47889" lon="6.68342">
        <ele>365</ele>
        <time>2015-12-06T10:49:29.000Z</time>
      </trkpt>
      <trkpt lat="47.47888" lon="6.68347">
        <ele>365</ele>
        <time>2015-12-06T10:49:30.000Z</time>
      </trkpt>
      <trkpt lat="47.47887" lon="6.68351">
        <ele>365</ele>
        <time>2015-12-06T10:49:31.000Z</time>
      </trkpt>
      <trkpt lat="47.47884" lon="6.68363">
        <ele>365</ele>
        <time>2015-12-06T10:49:32.000Z</time>
      </trkpt>
      <trkpt lat="47.47882" lon="6.6837">
        <ele>365</ele>
        <time>2015-12-06T10:49:33.000Z</time>
      </trkpt>
      <trkpt lat="47.4788" lon="6.68375">
        <ele>365</ele>
        <time>2015-12-06T10:49:34.000Z</time>
      </trkpt>
      <trkpt lat="47.47879" lon="6.6838">
        <ele>365</ele>
        <time>2015-12-06T10:49:35.000Z</time>
      </trkpt>
      <trkpt lat="47.4788" lon="6.68385">
        <ele>365</ele>
        <time>2015-12-06T10:49:37.000Z</time>
      </trkpt>
      <trkpt lat="47.47881" lon="6.68386">
        <ele>365</ele>
        <time>2015-12-06T10:49:38.000Z</time>
      </trkpt>
      <trkpt lat="47.47885" lon="6.68386">
        <ele>365</ele>
        <time>2015-12-06T10:49:41.000Z</time>
      </trkpt>
      <trkpt lat="47.47886" lon="6.68385">
        <ele>365</ele>
        <time>2015-12-06T10:49:42.000Z</time>
      </trkpt>
      <trkpt lat="47.4789" lon="6.68387">
        <ele>365</ele>
        <time>2015-12-06T10:49:46.000Z</time>
      </trkpt>
      <trkpt lat="47.47891" lon="6.68389">
        <ele>365</ele>
        <time>2015-12-06T10:49:47.000Z</time>
      </trkpt>
      <trkpt lat="47.47893" lon="6.68391">
        <ele>365</ele>
        <time>2015-12-06T10:49:48.000Z</time>
      </trkpt>
      <trkpt lat="47.47895" lon="6.68393">
        <ele>364</ele>
        <time>2015-12-06T10:49:49.000Z</time>
      </trkpt>
      <trkpt lat="47.47897" lon="6.68395">
        <ele>364</ele>
        <time>2015-12-06T10:49:50.000Z</time>
      </trkpt>
      <trkpt lat="47.47899" lon="6.68397">
        <ele>364</ele>
        <time>2015-12-06T10:49:51.000Z</time>
      </trkpt>
      <trkpt lat="47.47902" lon="6.68399">
        <ele>364</ele>
        <time>2015-12-06T10:49:52.000Z</time>
      </trkpt>
      <trkpt lat="47.47904" lon="6.684">
        <ele>364</ele>
        <time>2015-12-06T10:49:53.000Z</time>
      </trkpt>
      <trkpt lat="47.47908" lon="6.68397">
        <ele>364</ele>
        <time>2015-12-06T10:50:02.000Z</time>
      </trkpt>
      <trkpt lat="47.47908" lon="6.68397">
        <ele>364</ele>
        <time>2015-12-06T10:50:03.000Z</time>
      </trkpt>
      <trkpt lat="47.47911" lon="6.68394">
        <ele>364</ele>
        <time>2015-12-06T10:50:15.000Z</time>
      </trkpt>
      <trkpt lat="47.47913" lon="6.68393">
        <ele>364</ele>
        <time>2015-12-06T10:50:16.000Z</time>
      </trkpt>
      <trkpt lat="47.47917" lon="6.68393">
        <ele>364</ele>
        <time>2015-12-06T10:50:18.000Z</time>
      </trkpt>
      <trkpt lat="47.47919" lon="6.68393">
        <ele>364</ele>
        <time>2015-12-06T10:50:19.000Z</time>
      </trkpt>
      <trkpt lat="47.47923" lon="6.68392">
        <ele>364</ele>
        <time>2015-12-06T10:50:21.000Z</time>
      </trkpt>
      <trkpt lat="47.47926" lon="6.68392">
        <ele>364</ele>
        <time>2015-12-06T10:50:22.000Z</time>
      </trkpt>
      <trkpt lat="47.47929" lon="6.68392">
        <ele>365</ele>
        <time>2015-12-06T10:50:23.000Z</time>
      </trkpt>
      <trkpt lat="47.47932" lon="6.68392">
        <ele>365</ele>
        <time>2015-12-06T10:50:24.000Z</time>
      </trkpt>
      <trkpt lat="47.47934" lon="6.68391">
        <ele>365</ele>
        <time>2015-12-06T10:50:25.000Z</time>
      </trkpt>
      <trkpt lat="47.47937" lon="6.68391">
        <ele>365</ele>
        <time>2015-12-06T10:50:26.000Z</time>
      </trkpt>
      <trkpt lat="47.4794" lon="6.6839">
        <ele>365</ele>
        <time>2015-12-06T10:50:27.000Z</time>
      </trkpt>
      <trkpt lat="47.47942" lon="6.68388">
        <ele>365</ele>
        <time>2015-12-06T10:50:28.000Z</time>
      </trkpt>
      <trkpt lat="47.47946" lon="6.68386">
        <ele>365</ele>
        <time>2015-12-06T10:50:30.000Z</time>
      </trkpt>
      <trkpt lat="47.47948" lon="6.68385">
        <ele>365</ele>
        <time>2015-12-06T10:50:31.000Z</time>
      </trkpt>
      <trkpt lat="47.47951" lon="6.68384">
        <ele>366</ele>
        <time>2015-12-06T10:50:33.000Z</time>
      </trkpt>
      <trkpt lat="47.47952" lon="6.68383">
        <ele>366</ele>
        <time>2015-12-06T10:50:34.000Z</time>
      </trkpt>
      <trkpt lat="47.47955" lon="6.6838">
        <ele>366</ele>
        <time>2015-12-06T10:50:36.000Z</time>
      </trkpt>
      <trkpt lat="47.47957" lon="6.68376">
        <ele>366</ele>
        <time>2015-12-06T10:50:36.999Z</time>
      </trkpt>
      <trkpt lat="47.4796" lon="6.68372">
        <ele>366</ele>
        <time>2015-12-06T10:50:39.000Z</time>
      </trkpt>
      <trkpt lat="47.4796" lon="6.6837">
        <ele>366</ele>
        <time>2015-12-06T10:50:40.000Z</time>
      </trkpt>
      <trkpt lat="47.47963" lon="6.68365">
        <ele>366</ele>
        <time>2015-12-06T10:50:43.000Z</time>
      </trkpt>
      <trkpt lat="47.47964" lon="6.68363">
        <ele>367</ele>
        <time>2015-12-06T10:50:44.000Z</time>
      </trkpt>
      <trkpt lat="47.47966" lon="6.6836">
        <ele>367</ele>
        <time>2015-12-06T10:50:46.000Z</time>
      </trkpt>
      <trkpt lat="47.47968" lon="6.68359">
        <ele>367</ele>
        <time>2015-12-06T10:50:47.000Z</time>
      </trkpt>
      <trkpt lat="47.47971" lon="6.68357">
        <ele>367</ele>
        <time>2015-12-06T10:50:49.000Z</time>
      </trkpt>
      <trkpt lat="47.47973" lon="6.68356">
        <ele>367</ele>
        <time>2015-12-06T10:50:50.000Z</time>
      </trkpt>
      <trkpt lat="47.47976" lon="6.68352">
        <ele>368</ele>
        <time>2015-12-06T10:50:53.000Z</time>
      </trkpt>
      <trkpt lat="47.47977" lon="6.68351">
        <ele>368</ele>
        <time>2015-12-06T10:50:54.000Z</time>
      </trkpt>
      <trkpt lat="47.47976" lon="6.68345">
        <ele>368</ele>
        <time>2015-12-06T10:51:01.000Z</time>
      </trkpt>
      <trkpt lat="47.47976" lon="6.68344">
        <ele>368</ele>
        <time>2015-12-06T10:51:02.000Z</time>
      </trkpt>
      <trkpt lat="47.47978" lon="6.68341">
        <ele>368</ele>
        <time>2015-12-06T10:51:04.000Z</time>
      </trkpt>
      <trkpt lat="47.4798" lon="6.68339">
        <ele>368</ele>
        <time>2015-12-06T10:51:05.000Z</time>
      </trkpt>
      <trkpt lat="47.47983" lon="6.68337">
        <ele>369</ele>
        <time>2015-12-06T10:51:07.000Z</time>
      </trkpt>
      <trkpt lat="47.47986" lon="6.68337">
        <ele>369</ele>
        <time>2015-12-06T10:51:08.000Z</time>
      </trkpt>
      <trkpt lat="47.47989" lon="6.68338">
        <ele>370</ele>
        <time>2015-12-06T10:51:10.000Z</time>
      </trkpt>
      <trkpt lat="47.47991" lon="6.68339">
        <ele>370</ele>
        <time>2015-12-06T10:51:11.000Z</time>
      </trkpt>
      <trkpt lat="47.47993" lon="6.68342">
        <ele>370</ele>
        <time>2015-12-06T10:51:13.000Z</time>
      </trkpt>
      <trkpt lat="47.47994" lon="6.68343">
        <ele>370</ele>
        <time>2015-12-06T10:51:14.000Z</time>
      </trkpt>
      <trkpt lat="47.47997" lon="6.68345">
        <ele>370</ele>
        <time>2015-12-06T10:51:16.000Z</time>
      </trkpt>
      <trkpt lat="47.47998" lon="6.68346">
        <ele>370</ele>
        <time>2015-12-06T10:51:17.000Z</time>
      </trkpt>
      <trkpt lat="47.48002" lon="6.68349">
        <ele>372</ele>
        <time>2015-12-06T10:51:20.000Z</time>
      </trkpt>
      <trkpt lat="47.48003" lon="6.68349">
        <ele>372</ele>
        <time>2015-12-06T10:51:21.000Z</time>
      </trkpt>
      <trkpt lat="47.48006" lon="6.68346">
        <ele>372</ele>
        <time>2015-12-06T10:51:23.000Z</time>
      </trkpt>
      <trkpt lat="47.48008" lon="6.68344">
        <ele>372</ele>
        <time>2015-12-06T10:51:24.000Z</time>
      </trkpt>
      <trkpt lat="47.48011" lon="6.68341">
        <ele>372</ele>
        <time>2015-12-06T10:51:26.000Z</time>
      </trkpt>
      <trkpt lat="47.48013" lon="6.6834">
        <ele>373</ele>
        <time>2015-12-06T10:51:27.000Z</time>
      </trkpt>
      <trkpt lat="47.48016" lon="6.68337">
        <ele>373</ele>
        <time>2015-12-06T10:51:30.000Z</time>
      </trkpt>
      <trkpt lat="47.48017" lon="6.68337">
        <ele>373</ele>
        <time>2015-12-06T10:51:31.000Z</time>
      </trkpt>
      <trkpt lat="47.48021" lon="6.68337">
        <ele>373</ele>
        <time>2015-12-06T10:52:05.000Z</time>
      </trkpt>
      <trkpt lat="47.48021" lon="6.68337">
        <ele>373</ele>
        <time>2015-12-06T10:52:06.000Z</time>
      </trkpt>
      <trkpt lat="47.48025" lon="6.68335">
        <ele>373</ele>
        <time>2015-12-06T10:52:21.000Z</time>
      </trkpt>
      <trkpt lat="47.48026" lon="6.68335">
        <ele>373</ele>
        <time>2015-12-06T10:52:22.000Z</time>
      </trkpt>
      <trkpt lat="47.48029" lon="6.68337">
        <ele>373</ele>
        <time>2015-12-06T10:52:35.000Z</time>
      </trkpt>
      <trkpt lat="47.4803" lon="6.68339">
        <ele>373</ele>
        <time>2015-12-06T10:52:36.000Z</time>
      </trkpt>
      <trkpt lat="47.4803" lon="6.68342">
        <ele>373</ele>
        <time>2015-12-06T10:52:37.000Z</time>
      </trkpt>
      <trkpt lat="47.48031" lon="6.68346">
        <ele>373</ele>
        <time>2015-12-06T10:52:38.000Z</time>
      </trkpt>
      <trkpt lat="47.48031" lon="6.68351">
        <ele>373</ele>
        <time>2015-12-06T10:52:39.000Z</time>
      </trkpt>
      <trkpt lat="47.48032" lon="6.68358">
        <ele>373</ele>
        <time>2015-12-06T10:52:40.000Z</time>
      </trkpt>
      <trkpt lat="47.48032" lon="6.68365">
        <ele>373</ele>
        <time>2015-12-06T10:52:41.000Z</time>
      </trkpt>
      <trkpt lat="47.48032" lon="6.68369">
        <ele>373</ele>
        <time>2015-12-06T10:52:42.000Z</time>
      </trkpt>
      <trkpt lat="47.48033" lon="6.68373">
        <ele>372</ele>
        <time>2015-12-06T10:52:43.000Z</time>
      </trkpt>
      <trkpt lat="47.48034" lon="6.68379">
        <ele>372</ele>
        <time>2015-12-06T10:52:45.000Z</time>
      </trkpt>
      <trkpt lat="47.48035" lon="6.68384">
        <ele>372</ele>
        <time>2015-12-06T10:52:46.000Z</time>
      </trkpt>
      <trkpt lat="47.48036" lon="6.68389">
        <ele>372</ele>
        <time>2015-12-06T10:52:47.000Z</time>
      </trkpt>
      <trkpt lat="47.48037" lon="6.68394">
        <ele>372</ele>
        <time>2015-12-06T10:52:48.000Z</time>
      </trkpt>
      <trkpt lat="47.48039" lon="6.68398">
        <ele>372</ele>
        <time>2015-12-06T10:52:49.000Z</time>
      </trkpt>
      <trkpt lat="47.4804" lon="6.684">
        <ele>372</ele>
        <time>2015-12-06T10:52:50.000Z</time>
      </trkpt>
      <trkpt lat="47.48044" lon="6.68403">
        <ele>372</ele>
        <time>2015-12-06T10:52:52.000Z</time>
      </trkpt>
      <trkpt lat="47.48046" lon="6.68403">
        <ele>372</ele>
        <time>2015-12-06T10:52:53.000Z</time>
      </trkpt>
      <trkpt lat="47.48049" lon="6.68404">
        <ele>372</ele>
        <time>2015-12-06T10:52:54.000Z</time>
      </trkpt>
      <trkpt lat="47.48051" lon="6.68404">
        <ele>372</ele>
        <time>2015-12-06T10:52:55.000Z</time>
      </trkpt>
      <trkpt lat="47.48054" lon="6.68404">
        <ele>372</ele>
        <time>2015-12-06T10:52:56.000Z</time>
      </trkpt>
      <trkpt lat="47.48056" lon="6.68405">
        <ele>372</ele>
        <time>2015-12-06T10:52:57.000Z</time>
      </trkpt>
      <trkpt lat="47.48059" lon="6.68406">
        <ele>372</ele>
        <time>2015-12-06T10:52:58.000Z</time>
      </trkpt>
      <trkpt lat="47.48062" lon="6.68406">
        <ele>372</ele>
        <time>2015-12-06T10:52:59.000Z</time>
      </trkpt>
      <trkpt lat="47.48064" lon="6.68407">
        <ele>372</ele>
        <time>2015-12-06T10:53:00.000Z</time>
      </trkpt>
      <trkpt lat="47.48066" lon="6.68408">
        <ele>372</ele>
        <time>2015-12-06T10:53:01.000Z</time>
      </trkpt>
      <trkpt lat="47.4807" lon="6.68408">
        <ele>372</ele>
        <time>2015-12-06T10:53:03.000Z</time>
      </trkpt>
      <trkpt lat="47.48072" lon="6.68408">
        <ele>372</ele>
        <time>2015-12-06T10:53:04.000Z</time>
      </trkpt>
      <trkpt lat="47.48075" lon="6.68408">
        <ele>372</ele>
        <time>2015-12-06T10:53:05.000Z</time>
      </trkpt>
      <trkpt lat="47.48077" lon="6.68407">
        <ele>372</ele>
        <time>2015-12-06T10:53:06.000Z</time>
      </trkpt>
      <trkpt lat="47.4808" lon="6.68407">
        <ele>372</ele>
        <time>2015-12-06T10:53:07.000Z</time>
      </trkpt>
      <trkpt lat="47.48082" lon="6.68406">
        <ele>372</ele>
        <time>2015-12-06T10:53:08.000Z</time>
      </trkpt>
      <trkpt lat="47.48086" lon="6.68406">
        <ele>375</ele>
        <time>2015-12-06T10:53:10.000Z</time>
      </trkpt>
      <trkpt lat="47.48088" lon="6.68407">
        <ele>375</ele>
        <time>2015-12-06T10:53:11.000Z</time>
      </trkpt>
      <trkpt lat="47.48091" lon="6.68407">
        <ele>375</ele>
        <time>2015-12-06T10:53:13.000Z</time>
      </trkpt>
      <trkpt lat="47.48093" lon="6.68408">
        <ele>375</ele>
        <time>2015-12-06T10:53:14.000Z</time>
      </trkpt>
      <trkpt lat="47.48097" lon="6.68409">
        <ele>376</ele>
        <time>2015-12-06T10:53:17.000Z</time>
      </trkpt>
      <trkpt lat="47.48099" lon="6.6841">
        <ele>376</ele>
        <time>2015-12-06T10:53:18.000Z</time>
      </trkpt>
      <trkpt lat="47.48102" lon="6.68411">
        <ele>377</ele>
        <time>2015-12-06T10:53:20.000Z</time>
      </trkpt>
      <trkpt lat="47.48104" lon="6.68412">
        <ele>377</ele>
        <time>2015-12-06T10:53:21.000Z</time>
      </trkpt>
      <trkpt lat="47.48107" lon="6.68412">
        <ele>377</ele>
        <time>2015-12-06T10:53:23.000Z</time>
      </trkpt>
      <trkpt lat="47.48109" lon="6.68412">
        <ele>378</ele>
        <time>2015-12-06T10:53:24.000Z</time>
      </trkpt>
      <trkpt lat="47.48114" lon="6.68413">
        <ele>378</ele>
        <time>2015-12-06T10:53:26.000Z</time>
      </trkpt>
      <trkpt lat="47.48116" lon="6.68412">
        <ele>379</ele>
        <time>2015-12-06T10:53:27.000Z</time>
      </trkpt>
      <trkpt lat="47.48118" lon="6.68412">
        <ele>379</ele>
        <time>2015-12-06T10:53:28.000Z</time>
      </trkpt>
      <trkpt lat="47.48121" lon="6.68411">
        <ele>379</ele>
        <time>2015-12-06T10:53:29.000Z</time>
      </trkpt>
      <trkpt lat="47.48124" lon="6.6841">
        <ele>380</ele>
        <time>2015-12-06T10:53:30.000Z</time>
      </trkpt>
      <trkpt lat="47.48126" lon="6.68408">
        <ele>380</ele>
        <time>2015-12-06T10:53:31.000Z</time>
      </trkpt>
      <trkpt lat="47.4813" lon="6.68405">
        <ele>380</ele>
        <time>2015-12-06T10:53:33.000Z</time>
      </trkpt>
      <trkpt lat="47.48131" lon="6.68404">
        <ele>380</ele>
        <time>2015-12-06T10:53:34.000Z</time>
      </trkpt>
      <trkpt lat="47.48134" lon="6.68404">
        <ele>381</ele>
        <time>2015-12-06T10:53:36.000Z</time>
      </trkpt>
      <trkpt lat="47.48136" lon="6.68404">
        <ele>381</ele>
        <time>2015-12-06T10:53:37.000Z</time>
      </trkpt>
      <trkpt lat="47.4814" lon="6.68405">
        <ele>381</ele>
        <time>2015-12-06T10:53:39.000Z</time>
      </trkpt>
      <trkpt lat="47.48142" lon="6.68405">
        <ele>381</ele>
        <time>2015-12-06T10:53:40.000Z</time>
      </trkpt>
      <trkpt lat="47.48145" lon="6.68407">
        <ele>381</ele>
        <time>2015-12-06T10:53:42.000Z</time>
      </trkpt>
      <trkpt lat="47.48147" lon="6.68408">
        <ele>382</ele>
        <time>2015-12-06T10:53:43.000Z</time>
      </trkpt>
      <trkpt lat="47.4815" lon="6.6841">
        <ele>382</ele>
        <time>2015-12-06T10:53:45.000Z</time>
      </trkpt>
      <trkpt lat="47.48153" lon="6.68411">
        <ele>382</ele>
        <time>2015-12-06T10:53:46.000Z</time>
      </trkpt>
      <trkpt lat="47.48157" lon="6.6841">
        <ele>382</ele>
        <time>2015-12-06T10:53:48.000Z</time>
      </trkpt>
      <trkpt lat="47.48159" lon="6.6841">
        <ele>382</ele>
        <time>2015-12-06T10:53:49.000Z</time>
      </trkpt>
      <trkpt lat="47.48162" lon="6.68411">
        <ele>382</ele>
        <time>2015-12-06T10:53:51.000Z</time>
      </trkpt>
      <trkpt lat="47.48164" lon="6.68412">
        <ele>383</ele>
        <time>2015-12-06T10:53:52.000Z</time>
      </trkpt>
      <trkpt lat="47.48166" lon="6.68413">
        <ele>383</ele>
        <time>2015-12-06T10:53:54.000Z</time>
      </trkpt>
      <trkpt lat="47.48168" lon="6.68413">
        <ele>384</ele>
        <time>2015-12-06T10:53:55.000Z</time>
      </trkpt>
      <trkpt lat="47.48172" lon="6.68413">
        <ele>384</ele>
        <time>2015-12-06T10:53:57.000Z</time>
      </trkpt>
      <trkpt lat="47.48175" lon="6.68412">
        <ele>385</ele>
        <time>2015-12-06T10:53:58.000Z</time>
      </trkpt>
      <trkpt lat="47.48179" lon="6.68411">
        <ele>385</ele>
        <time>2015-12-06T10:54:00.000Z</time>
      </trkpt>
      <trkpt lat="47.48181" lon="6.68411">
        <ele>385</ele>
        <time>2015-12-06T10:54:01.000Z</time>
      </trkpt>
      <trkpt lat="47.48185" lon="6.68413">
        <ele>386</ele>
        <time>2015-12-06T10:54:03.000Z</time>
      </trkpt>
      <trkpt lat="47.48187" lon="6.68413">
        <ele>386</ele>
        <time>2015-12-06T10:54:04.000Z</time>
      </trkpt>
      <trkpt lat="47.48191" lon="6.68415">
        <ele>386</ele>
        <time>2015-12-06T10:54:06.000Z</time>
      </trkpt>
      <trkpt lat="47.48193" lon="6.68416">
        <ele>386</ele>
        <time>2015-12-06T10:54:07.000Z</time>
      </trkpt>
      <trkpt lat="47.48197" lon="6.68418">
        <ele>383</ele>
        <time>2015-12-06T10:54:09.000Z</time>
      </trkpt>
      <trkpt lat="47.48199" lon="6.68419">
        <ele>383</ele>
        <time>2015-12-06T10:54:10.000Z</time>
      </trkpt>
      <trkpt lat="47.48202" lon="6.68421">
        <ele>383</ele>
        <time>2015-12-06T10:54:12.000Z</time>
      </trkpt>
      <trkpt lat="47.48204" lon="6.68422">
        <ele>383</ele>
        <time>2015-12-06T10:54:13.000Z</time>
      </trkpt>
      <trkpt lat="47.48207" lon="6.68425">
        <ele>383</ele>
        <time>2015-12-06T10:54:15.000Z</time>
      </trkpt>
      <trkpt lat="47.48209" lon="6.68426">
        <ele>383</ele>
        <time>2015-12-06T10:54:16.000Z</time>
      </trkpt>
      <trkpt lat="47.48213" lon="6.68428">
        <ele>383</ele>
        <time>2015-12-06T10:54:18.000Z</time>
      </trkpt>
      <trkpt lat="47.48216" lon="6.68429">
        <ele>383</ele>
        <time>2015-12-06T10:54:19.000Z</time>
      </trkpt>
      <trkpt lat="47.48219" lon="6.68431">
        <ele>383</ele>
        <time>2015-12-06T10:54:21.000Z</time>
      </trkpt>
      <trkpt lat="47.48221" lon="6.68432">
        <ele>383</ele>
        <time>2015-12-06T10:54:22.000Z</time>
      </trkpt>
      <trkpt lat="47.48224" lon="6.68434">
        <ele>384</ele>
        <time>2015-12-06T10:54:24.000Z</time>
      </trkpt>
      <trkpt lat="47.48226" lon="6.68435">
        <ele>384</ele>
        <time>2015-12-06T10:54:25.000Z</time>
      </trkpt>
      <trkpt lat="47.48229" lon="6.68437">
        <ele>384</ele>
        <time>2015-12-06T10:54:27.000Z</time>
      </trkpt>
      <trkpt lat="47.4823" lon="6.68437">
        <ele>384</ele>
        <time>2015-12-06T10:54:28.000Z</time>
      </trkpt>
      <trkpt lat="47.48234" lon="6.68439">
        <ele>384</ele>
        <time>2015-12-06T10:54:30.000Z</time>
      </trkpt>
      <trkpt lat="47.48236" lon="6.68439">
        <ele>384</ele>
        <time>2015-12-06T10:54:31.000Z</time>
      </trkpt>
      <trkpt lat="47.4824" lon="6.68439">
        <ele>384</ele>
        <time>2015-12-06T10:54:33.000Z</time>
      </trkpt>
      <trkpt lat="47.48241" lon="6.68439">
        <ele>384</ele>
        <time>2015-12-06T10:54:34.000Z</time>
      </trkpt>
      <trkpt lat="47.48246" lon="6.6844">
        <ele>384</ele>
        <time>2015-12-06T10:54:36.000Z</time>
      </trkpt>
      <trkpt lat="47.48248" lon="6.68441">
        <ele>384</ele>
        <time>2015-12-06T10:54:37.000Z</time>
      </trkpt>
      <trkpt lat="47.4825" lon="6.68442">
        <ele>386</ele>
        <time>2015-12-06T10:54:38.000Z</time>
      </trkpt>
      <trkpt lat="47.48253" lon="6.68442">
        <ele>386</ele>
        <time>2015-12-06T10:54:39.000Z</time>
      </trkpt>
      <trkpt lat="47.48256" lon="6.68445">
        <ele>386</ele>
        <time>2015-12-06T10:54:41.000Z</time>
      </trkpt>
      <trkpt lat="47.48257" lon="6.68447">
        <ele>386</ele>
        <time>2015-12-06T10:54:42.000Z</time>
      </trkpt>
      <trkpt lat="47.48259" lon="6.6845">
        <ele>386</ele>
        <time>2015-12-06T10:54:44.000Z</time>
      </trkpt>
      <trkpt lat="47.48261" lon="6.68452">
        <ele>386</ele>
        <time>2015-12-06T10:54:45.000Z</time>
      </trkpt>
      <trkpt lat="47.48263" lon="6.68452">
        <ele>386</ele>
        <time>2015-12-06T10:54:46.000Z</time>
      </trkpt>
      <trkpt lat="47.48266" lon="6.68453">
        <ele>386</ele>
        <time>2015-12-06T10:54:47.000Z</time>
      </trkpt>
      <trkpt lat="47.48268" lon="6.68453">
        <ele>386</ele>
        <time>2015-12-06T10:54:48.000Z</time>
      </trkpt>
      <trkpt lat="47.48271" lon="6.68454">
        <ele>386</ele>
        <time>2015-12-06T10:54:49.000Z</time>
      </trkpt>
      <trkpt lat="47.48273" lon="6.68455">
        <ele>386</ele>
        <time>2015-12-06T10:54:50.000Z</time>
      </trkpt>
      <trkpt lat="47.48276" lon="6.68457">
        <ele>385</ele>
        <time>2015-12-06T10:54:51.000Z</time>
      </trkpt>
      <trkpt lat="47.48278" lon="6.68459">
        <ele>385</ele>
        <time>2015-12-06T10:54:52.000Z</time>
      </trkpt>
      <trkpt lat="47.48281" lon="6.68461">
        <ele>385</ele>
        <time>2015-12-06T10:54:53.000Z</time>
      </trkpt>
      <trkpt lat="47.48284" lon="6.68463">
        <ele>385</ele>
        <time>2015-12-06T10:54:54.000Z</time>
      </trkpt>
      <trkpt lat="47.48287" lon="6.68464">
        <ele>385</ele>
        <time>2015-12-06T10:54:55.000Z</time>
      </trkpt>
      <trkpt lat="47.48291" lon="6.68465">
        <ele>385</ele>
        <time>2015-12-06T10:54:56.000Z</time>
      </trkpt>
      <trkpt lat="47.48294" lon="6.68467">
        <ele>385</ele>
        <time>2015-12-06T10:54:57.000Z</time>
      </trkpt>
      <trkpt lat="47.48298" lon="6.6847">
        <ele>385</ele>
        <time>2015-12-06T10:54:58.000Z</time>
      </trkpt>
      <trkpt lat="47.48301" lon="6.68472">
        <ele>385</ele>
        <time>2015-12-06T10:54:59.000Z</time>
      </trkpt>
      <trkpt lat="47.48305" lon="6.68474">
        <ele>384</ele>
        <time>2015-12-06T10:55:00.000Z</time>
      </trkpt>
      <trkpt lat="47.48308" lon="6.68476">
        <ele>384</ele>
        <time>2015-12-06T10:55:00.998Z</time>
      </trkpt>
      <trkpt lat="47.48311" lon="6.68477">
        <ele>384</ele>
        <time>2015-12-06T10:55:02.000Z</time>
      </trkpt>
      <trkpt lat="47.48314" lon="6.68478">
        <ele>384</ele>
        <time>2015-12-06T10:55:03.000Z</time>
      </trkpt>
      <trkpt lat="47.48317" lon="6.68478">
        <ele>384</ele>
        <time>2015-12-06T10:55:04.000Z</time>
      </trkpt>
      <trkpt lat="47.4832" lon="6.68478">
        <ele>384</ele>
        <time>2015-12-06T10:55:05.000Z</time>
      </trkpt>
      <trkpt lat="47.48323" lon="6.68477">
        <ele>384</ele>
        <time>2015-12-06T10:55:06.000Z</time>
      </trkpt>
      <trkpt lat="47.48326" lon="6.68477">
        <ele>384</ele>
        <time>2015-12-06T10:55:07.000Z</time>
      </trkpt>
      <trkpt lat="47.48329" lon="6.68476">
        <ele>384</ele>
        <time>2015-12-06T10:55:08.000Z</time>
      </trkpt>
      <trkpt lat="47.48332" lon="6.68476">
        <ele>383</ele>
        <time>2015-12-06T10:55:09.000Z</time>
      </trkpt>
      <trkpt lat="47.48334" lon="6.68477">
        <ele>379</ele>
        <time>2015-12-06T10:55:10.000Z</time>
      </trkpt>
      <trkpt lat="47.48337" lon="6.68478">
        <ele>379</ele>
        <time>2015-12-06T10:55:11.000Z</time>
      </trkpt>
      <trkpt lat="47.48341" lon="6.68479">
        <ele>378</ele>
        <time>2015-12-06T10:55:12.000Z</time>
      </trkpt>
      <trkpt lat="47.48344" lon="6.68481">
        <ele>378</ele>
        <time>2015-12-06T10:55:13.000Z</time>
      </trkpt>
      <trkpt lat="47.48346" lon="6.68482">
        <ele>378</ele>
        <time>2015-12-06T10:55:14.000Z</time>
      </trkpt>
      <trkpt lat="47.48348" lon="6.68483">
        <ele>378</ele>
        <time>2015-12-06T10:55:15.000Z</time>
      </trkpt>
      <trkpt lat="47.48353" lon="6.68483">
        <ele>378</ele>
        <time>2015-12-06T10:55:26.000Z</time>
      </trkpt>
      <trkpt lat="47.48354" lon="6.68484">
        <ele>377</ele>
        <time>2015-12-06T10:55:27.000Z</time>
      </trkpt>
      <trkpt lat="47.48356" lon="6.68486">
        <ele>377</ele>
        <time>2015-12-06T10:55:28.000Z</time>
      </trkpt>
      <trkpt lat="47.48358" lon="6.68487">
        <ele>377</ele>
        <time>2015-12-06T10:55:29.000Z</time>
      </trkpt>
      <trkpt lat="47.48361" lon="6.68489">
        <ele>377</ele>
        <time>2015-12-06T10:55:30.000Z</time>
      </trkpt>
      <trkpt lat="47.48373" lon="6.68486">
        <ele>375</ele>
        <time>2015-12-06T10:55:31.000Z</time>
      </trkpt>
      <trkpt lat="47.48379" lon="6.68487">
        <ele>374</ele>
        <time>2015-12-06T10:55:32.000Z</time>
      </trkpt>
      <trkpt lat="47.48383" lon="6.68487">
        <ele>374</ele>
        <time>2015-12-06T10:55:33.000Z</time>
      </trkpt>
      <trkpt lat="47.48389" lon="6.68484">
        <ele>373</ele>
        <time>2015-12-06T10:55:34.000Z</time>
      </trkpt>
      <trkpt lat="47.48395" lon="6.68483">
        <ele>372</ele>
        <time>2015-12-06T10:55:35.000Z</time>
      </trkpt>
      <trkpt lat="47.484" lon="6.68482">
        <ele>371</ele>
        <time>2015-12-06T10:55:36.000Z</time>
      </trkpt>
      <trkpt lat="47.48405" lon="6.68475">
        <ele>372</ele>
        <time>2015-12-06T10:55:37.000Z</time>
      </trkpt>
      <trkpt lat="47.48411" lon="6.68471">
        <ele>372</ele>
        <time>2015-12-06T10:55:38.000Z</time>
      </trkpt>
      <trkpt lat="47.48414" lon="6.6847">
        <ele>372</ele>
        <time>2015-12-06T10:55:39.000Z</time>
      </trkpt>
      <trkpt lat="47.48418" lon="6.68467">
        <ele>361</ele>
        <time>2015-12-06T10:55:40.000Z</time>
      </trkpt>
      <trkpt lat="47.48422" lon="6.68464">
        <ele>361</ele>
        <time>2015-12-06T10:55:41.000Z</time>
      </trkpt>
      <trkpt lat="47.48425" lon="6.68462">
        <ele>362</ele>
        <time>2015-12-06T10:55:42.000Z</time>
      </trkpt>
      <trkpt lat="47.48428" lon="6.68458">
        <ele>362</ele>
        <time>2015-12-06T10:55:43.000Z</time>
      </trkpt>
      <trkpt lat="47.48431" lon="6.68453">
        <ele>362</ele>
        <time>2015-12-06T10:55:44.000Z</time>
      </trkpt>
      <trkpt lat="47.48435" lon="6.6845">
        <ele>362</ele>
        <time>2015-12-06T10:55:45.000Z</time>
      </trkpt>
      <trkpt lat="47.48438" lon="6.68447">
        <ele>362</ele>
        <time>2015-12-06T10:55:46.000Z</time>
      </trkpt>
      <trkpt lat="47.48442" lon="6.68444">
        <ele>362</ele>
        <time>2015-12-06T10:55:47.000Z</time>
      </trkpt>
      <trkpt lat="47.48446" lon="6.68441">
        <ele>361</ele>
        <time>2015-12-06T10:55:48.000Z</time>
      </trkpt>
      <trkpt lat="47.48449" lon="6.68438">
        <ele>361</ele>
        <time>2015-12-06T10:55:49.000Z</time>
      </trkpt>
      <trkpt lat="47.48453" lon="6.68436">
        <ele>361</ele>
        <time>2015-12-06T10:55:50.000Z</time>
      </trkpt>
      <trkpt lat="47.48454" lon="6.68432">
        <ele>361</ele>
        <time>2015-12-06T10:55:51.000Z</time>
      </trkpt>
      <trkpt lat="47.48455" lon="6.68427">
        <ele>360</ele>
        <time>2015-12-06T10:55:52.000Z</time>
      </trkpt>
      <trkpt lat="47.48456" lon="6.68423">
        <ele>360</ele>
        <time>2015-12-06T10:55:53.000Z</time>
      </trkpt>
      <trkpt lat="47.48457" lon="6.68418">
        <ele>360</ele>
        <time>2015-12-06T10:55:54.000Z</time>
      </trkpt>
      <trkpt lat="47.48458" lon="6.68413">
        <ele>364</ele>
        <time>2015-12-06T10:55:55.000Z</time>
      </trkpt>
      <trkpt lat="47.48461" lon="6.68408">
        <ele>363</ele>
        <time>2015-12-06T10:55:56.000Z</time>
      </trkpt>
      <trkpt lat="47.48464" lon="6.68403">
        <ele>363</ele>
        <time>2015-12-06T10:55:57.000Z</time>
      </trkpt>
      <trkpt lat="47.48467" lon="6.68396">
        <ele>362</ele>
        <time>2015-12-06T10:55:58.000Z</time>
      </trkpt>
      <trkpt lat="47.48469" lon="6.6839">
        <ele>362</ele>
        <time>2015-12-06T10:55:59.000Z</time>
      </trkpt>
      <trkpt lat="47.48478" lon="6.68378">
        <ele>361</ele>
        <time>2015-12-06T10:56:00.000Z</time>
      </trkpt>
      <trkpt lat="47.48483" lon="6.68376">
        <ele>360</ele>
        <time>2015-12-06T10:56:01.000Z</time>
      </trkpt>
      <trkpt lat="47.48489" lon="6.68376">
        <ele>360</ele>
        <time>2015-12-06T10:56:02.000Z</time>
      </trkpt>
      <trkpt lat="47.48495" lon="6.68381">
        <ele>359</ele>
        <time>2015-12-06T10:56:03.000Z</time>
      </trkpt>
      <trkpt lat="47.48503" lon="6.68384">
        <ele>348</ele>
        <time>2015-12-06T10:56:04.000Z</time>
      </trkpt>
      <trkpt lat="47.48509" lon="6.68388">
        <ele>348</ele>
        <time>2015-12-06T10:56:05.000Z</time>
      </trkpt>
      <trkpt lat="47.48514" lon="6.68392">
        <ele>348</ele>
        <time>2015-12-06T10:56:06.000Z</time>
      </trkpt>
      <trkpt lat="47.4852" lon="6.68394">
        <ele>348</ele>
        <time>2015-12-06T10:56:07.000Z</time>
      </trkpt>
      <trkpt lat="47.48524" lon="6.68396">
        <ele>348</ele>
        <time>2015-12-06T10:56:08.000Z</time>
      </trkpt>
      <trkpt lat="47.48529" lon="6.68399">
        <ele>348</ele>
        <time>2015-12-06T10:56:09.000Z</time>
      </trkpt>
      <trkpt lat="47.48532" lon="6.68402">
        <ele>348</ele>
        <time>2015-12-06T10:56:10.000Z</time>
      </trkpt>
      <trkpt lat="47.48535" lon="6.68403">
        <ele>348</ele>
        <time>2015-12-06T10:56:11.000Z</time>
      </trkpt>
      <trkpt lat="47.48538" lon="6.68405">
        <ele>347</ele>
        <time>2015-12-06T10:56:12.000Z</time>
      </trkpt>
      <trkpt lat="47.4854" lon="6.68407">
        <ele>347</ele>
        <time>2015-12-06T10:56:13.000Z</time>
      </trkpt>
      <trkpt lat="47.48542" lon="6.68409">
        <ele>347</ele>
        <time>2015-12-06T10:56:14.000Z</time>
      </trkpt>
      <trkpt lat="47.48544" lon="6.68411">
        <ele>347</ele>
        <time>2015-12-06T10:56:15.000Z</time>
      </trkpt>
      <trkpt lat="47.48546" lon="6.68412">
        <ele>347</ele>
        <time>2015-12-06T10:56:16.000Z</time>
      </trkpt>
      <trkpt lat="47.48548" lon="6.68415">
        <ele>347</ele>
        <time>2015-12-06T10:56:17.000Z</time>
      </trkpt>
      <trkpt lat="47.4855" lon="6.68416">
        <ele>347</ele>
        <time>2015-12-06T10:56:18.000Z</time>
      </trkpt>
      <trkpt lat="47.48552" lon="6.68418">
        <ele>348</ele>
        <time>2015-12-06T10:56:19.000Z</time>
      </trkpt>
      <trkpt lat="47.48553" lon="6.6842">
        <ele>348</ele>
        <time>2015-12-06T10:56:19.999Z</time>
      </trkpt>
      <trkpt lat="47.48556" lon="6.68424">
        <ele>348</ele>
        <time>2015-12-06T10:56:21.000Z</time>
      </trkpt>
      <trkpt lat="47.48558" lon="6.68427">
        <ele>348</ele>
        <time>2015-12-06T10:56:22.000Z</time>
      </trkpt>
      <trkpt lat="47.4856" lon="6.6843">
        <ele>348</ele>
        <time>2015-12-06T10:56:23.000Z</time>
      </trkpt>
      <trkpt lat="47.48562" lon="6.68436">
        <ele>348</ele>
        <time>2015-12-06T10:56:24.000Z</time>
      </trkpt>
      <trkpt lat="47.48564" lon="6.6844">
        <ele>348</ele>
        <time>2015-12-06T10:56:25.000Z</time>
      </trkpt>
      <trkpt lat="47.48566" lon="6.68445">
        <ele>348</ele>
        <time>2015-12-06T10:56:26.000Z</time>
      </trkpt>
      <trkpt lat="47.48568" lon="6.68451">
        <ele>348</ele>
        <time>2015-12-06T10:56:27.000Z</time>
      </trkpt>
      <trkpt lat="47.48569" lon="6.68455">
        <ele>348</ele>
        <time>2015-12-06T10:56:28.000Z</time>
      </trkpt>
      <trkpt lat="47.48571" lon="6.68461">
        <ele>348</ele>
        <time>2015-12-06T10:56:29.000Z</time>
      </trkpt>
      <trkpt lat="47.48576" lon="6.6847">
        <ele>348</ele>
        <time>2015-12-06T10:56:30.000Z</time>
      </trkpt>
      <trkpt lat="47.48578" lon="6.68476">
        <ele>349</ele>
        <time>2015-12-06T10:56:30.999Z</time>
      </trkpt>
      <trkpt lat="47.48579" lon="6.6848">
        <ele>349</ele>
        <time>2015-12-06T10:56:32.000Z</time>
      </trkpt>
      <trkpt lat="47.4858" lon="6.68485">
        <ele>349</ele>
        <time>2015-12-06T10:56:33.000Z</time>
      </trkpt>
      <trkpt lat="47.48582" lon="6.68491">
        <ele>349</ele>
        <time>2015-12-06T10:56:34.000Z</time>
      </trkpt>
      <trkpt lat="47.48584" lon="6.685">
        <ele>349</ele>
        <time>2015-12-06T10:56:35.000Z</time>
      </trkpt>
      <trkpt lat="47.48581" lon="6.68506">
        <ele>349</ele>
        <time>2015-12-06T10:56:36.000Z</time>
      </trkpt>
      <trkpt lat="47.48585" lon="6.68512">
        <ele>349</ele>
        <time>2015-12-06T10:56:37.000Z</time>
      </trkpt>
      <trkpt lat="47.48584" lon="6.68516">
        <ele>348</ele>
        <time>2015-12-06T10:56:38.001Z</time>
      </trkpt>
      <trkpt lat="47.48583" lon="6.68519">
        <ele>348</ele>
        <time>2015-12-06T10:56:39.000Z</time>
      </trkpt>
      <trkpt lat="47.48582" lon="6.68525">
        <ele>348</ele>
        <time>2015-12-06T10:56:43.000Z</time>
      </trkpt>
      <trkpt lat="47.48582" lon="6.68528">
        <ele>347</ele>
        <time>2015-12-06T10:56:44.000Z</time>
      </trkpt>
      <trkpt lat="47.48581" lon="6.68532">
        <ele>347</ele>
        <time>2015-12-06T10:56:45.000Z</time>
      </trkpt>
      <trkpt lat="47.48581" lon="6.68535">
        <ele>347</ele>
        <time>2015-12-06T10:56:46.000Z</time>
      </trkpt>
      <trkpt lat="47.48581" lon="6.68538">
        <ele>347</ele>
        <time>2015-12-06T10:56:47.000Z</time>
      </trkpt>
      <trkpt lat="47.48581" lon="6.68542">
        <ele>347</ele>
        <time>2015-12-06T10:56:48.000Z</time>
      </trkpt>
      <trkpt lat="47.48581" lon="6.68546">
        <ele>347</ele>
        <time>2015-12-06T10:56:49.000Z</time>
      </trkpt>
      <trkpt lat="47.48583" lon="6.6855">
        <ele>347</ele>
        <time>2015-12-06T10:56:50.000Z</time>
      </trkpt>
      <trkpt lat="47.48586" lon="6.68555">
        <ele>347</ele>
        <time>2015-12-06T10:56:51.000Z</time>
      </trkpt>
      <trkpt lat="47.48589" lon="6.6856">
        <ele>347</ele>
        <time>2015-12-06T10:56:52.000Z</time>
      </trkpt>
      <trkpt lat="47.48593" lon="6.68565">
        <ele>347</ele>
        <time>2015-12-06T10:56:53.000Z</time>
      </trkpt>
      <trkpt lat="47.48594" lon="6.68569">
        <ele>347</ele>
        <time>2015-12-06T10:56:54.000Z</time>
      </trkpt>
      <trkpt lat="47.48595" lon="6.68573">
        <ele>347</ele>
        <time>2015-12-06T10:56:55.000Z</time>
      </trkpt>
      <trkpt lat="47.48595" lon="6.68577">
        <ele>347</ele>
        <time>2015-12-06T10:56:56.000Z</time>
      </trkpt>
      <trkpt lat="47.48595" lon="6.6858">
        <ele>347</ele>
        <time>2015-12-06T10:56:57.000Z</time>
      </trkpt>
      <trkpt lat="47.48596" lon="6.68586">
        <ele>346</ele>
        <time>2015-12-06T10:56:59.000Z</time>
      </trkpt>
      <trkpt lat="47.48597" lon="6.68588">
        <ele>346</ele>
        <time>2015-12-06T10:57:00.000Z</time>
      </trkpt>
      <trkpt lat="47.48599" lon="6.68591">
        <ele>346</ele>
        <time>2015-12-06T10:57:02.000Z</time>
      </trkpt>
      <trkpt lat="47.48601" lon="6.68593">
        <ele>346</ele>
        <time>2015-12-06T10:57:03.000Z</time>
      </trkpt>
      <trkpt lat="47.48603" lon="6.68597">
        <ele>346</ele>
        <time>2015-12-06T10:57:05.000Z</time>
      </trkpt>
      <trkpt lat="47.48603" lon="6.68599">
        <ele>346</ele>
        <time>2015-12-06T10:57:06.000Z</time>
      </trkpt>
      <trkpt lat="47.48603" lon="6.68604">
        <ele>346</ele>
        <time>2015-12-06T10:57:10.000Z</time>
      </trkpt>
      <trkpt lat="47.48603" lon="6.68605">
        <ele>346</ele>
        <time>2015-12-06T10:57:11.000Z</time>
      </trkpt>
      <trkpt lat="47.48599" lon="6.68608">
        <ele>346</ele>
        <time>2015-12-06T10:57:14.000Z</time>
      </trkpt>
      <trkpt lat="47.48598" lon="6.68608">
        <ele>346</ele>
        <time>2015-12-06T10:57:15.000Z</time>
      </trkpt>
      <trkpt lat="47.48594" lon="6.68607">
        <ele>346</ele>
        <time>2015-12-06T10:57:18.000Z</time>
      </trkpt>
      <trkpt lat="47.48592" lon="6.68608">
        <ele>346</ele>
        <time>2015-12-06T10:57:19.000Z</time>
      </trkpt>
      <trkpt lat="47.4859" lon="6.68612">
        <ele>346</ele>
        <time>2015-12-06T10:57:21.000Z</time>
      </trkpt>
      <trkpt lat="47.48588" lon="6.68616">
        <ele>346</ele>
        <time>2015-12-06T10:57:22.000Z</time>
      </trkpt>
      <trkpt lat="47.48586" lon="6.68619">
        <ele>346</ele>
        <time>2015-12-06T10:57:23.000Z</time>
      </trkpt>
      <trkpt lat="47.48583" lon="6.68622">
        <ele>343</ele>
        <time>2015-12-06T10:57:24.000Z</time>
      </trkpt>
      <trkpt lat="47.48581" lon="6.68624">
        <ele>343</ele>
        <time>2015-12-06T10:57:25.000Z</time>
      </trkpt>
      <trkpt lat="47.48579" lon="6.68626">
        <ele>343</ele>
        <time>2015-12-06T10:57:26.000Z</time>
      </trkpt>
      <trkpt lat="47.48577" lon="6.68628">
        <ele>343</ele>
        <time>2015-12-06T10:57:27.000Z</time>
      </trkpt>
      <trkpt lat="47.48575" lon="6.6863">
        <ele>343</ele>
        <time>2015-12-06T10:57:28.000Z</time>
      </trkpt>
      <trkpt lat="47.48574" lon="6.68634">
        <ele>343</ele>
        <time>2015-12-06T10:57:29.000Z</time>
      </trkpt>
      <trkpt lat="47.48572" lon="6.68639">
        <ele>343</ele>
        <time>2015-12-06T10:57:30.000Z</time>
      </trkpt>
      <trkpt lat="47.4857" lon="6.68644">
        <ele>343</ele>
        <time>2015-12-06T10:57:31.000Z</time>
      </trkpt>
      <trkpt lat="47.48569" lon="6.68649">
        <ele>343</ele>
        <time>2015-12-06T10:57:32.000Z</time>
      </trkpt>
      <trkpt lat="47.48567" lon="6.68653">
        <ele>343</ele>
        <time>2015-12-06T10:57:33.000Z</time>
      </trkpt>
      <trkpt lat="47.48566" lon="6.68656">
        <ele>342</ele>
        <time>2015-12-06T10:57:34.000Z</time>
      </trkpt>
      <trkpt lat="47.48564" lon="6.68658">
        <ele>342</ele>
        <time>2015-12-06T10:57:35.000Z</time>
      </trkpt>
      <trkpt lat="47.48561" lon="6.6866">
        <ele>342</ele>
        <time>2015-12-06T10:57:36.000Z</time>
      </trkpt>
      <trkpt lat="47.48558" lon="6.6866">
        <ele>342</ele>
        <time>2015-12-06T10:57:37.000Z</time>
      </trkpt>
      <trkpt lat="47.48554" lon="6.6866">
        <ele>342</ele>
        <time>2015-12-06T10:57:38.000Z</time>
      </trkpt>
      <trkpt lat="47.48549" lon="6.68659">
        <ele>342</ele>
        <time>2015-12-06T10:57:39.000Z</time>
      </trkpt>
      <trkpt lat="47.48545" lon="6.68658">
        <ele>342</ele>
        <time>2015-12-06T10:57:40.000Z</time>
      </trkpt>
      <trkpt lat="47.48541" lon="6.68656">
        <ele>342</ele>
        <time>2015-12-06T10:57:41.000Z</time>
      </trkpt>
      <trkpt lat="47.48538" lon="6.68654">
        <ele>342</ele>
        <time>2015-12-06T10:57:42.000Z</time>
      </trkpt>
      <trkpt lat="47.48535" lon="6.68653">
        <ele>341</ele>
        <time>2015-12-06T10:57:43.000Z</time>
      </trkpt>
      <trkpt lat="47.48532" lon="6.68652">
        <ele>341</ele>
        <time>2015-12-06T10:57:44.000Z</time>
      </trkpt>
      <trkpt lat="47.48529" lon="6.68652">
        <ele>341</ele>
        <time>2015-12-06T10:57:45.000Z</time>
      </trkpt>
      <trkpt lat="47.48527" lon="6.68654">
        <ele>341</ele>
        <time>2015-12-06T10:57:46.000Z</time>
      </trkpt>
      <trkpt lat="47.48525" lon="6.6866">
        <ele>341</ele>
        <time>2015-12-06T10:57:48.000Z</time>
      </trkpt>
      <trkpt lat="47.48524" lon="6.68662">
        <ele>341</ele>
        <time>2015-12-06T10:57:49.000Z</time>
      </trkpt>
      <trkpt lat="47.48521" lon="6.68665">
        <ele>340</ele>
        <time>2015-12-06T10:57:51.000Z</time>
      </trkpt>
      <trkpt lat="47.48519" lon="6.68666">
        <ele>340</ele>
        <time>2015-12-06T10:57:52.000Z</time>
      </trkpt>
      <trkpt lat="47.48516" lon="6.68669">
        <ele>340</ele>
        <time>2015-12-06T10:57:56.000Z</time>
      </trkpt>
      <trkpt lat="47.48516" lon="6.6867">
        <ele>340</ele>
        <time>2015-12-06T10:57:57.000Z</time>
      </trkpt>
      <trkpt lat="47.48513" lon="6.68675">
        <ele>340</ele>
        <time>2015-12-06T10:58:02.000Z</time>
      </trkpt>
      <trkpt lat="47.48513" lon="6.68677">
        <ele>340</ele>
        <time>2015-12-06T10:58:03.000Z</time>
      </trkpt>
      <trkpt lat="47.48515" lon="6.68683">
        <ele>340</ele>
        <time>2015-12-06T10:58:09.000Z</time>
      </trkpt>
      <trkpt lat="47.48515" lon="6.68684">
        <ele>341</ele>
        <time>2015-12-06T10:58:10.000Z</time>
      </trkpt>
      <trkpt lat="47.48516" lon="6.6869">
        <ele>341</ele>
        <time>2015-12-06T10:58:15.000Z</time>
      </trkpt>
      <trkpt lat="47.48517" lon="6.68691">
        <ele>341</ele>
        <time>2015-12-06T10:58:16.000Z</time>
      </trkpt>
      <trkpt lat="47.48517" lon="6.68697">
        <ele>341</ele>
        <time>2015-12-06T10:58:59.000Z</time>
      </trkpt>
      <trkpt lat="47.48517" lon="6.687">
        <ele>341</ele>
        <time>2015-12-06T10:59:00.000Z</time>
      </trkpt>
      <trkpt lat="47.48515" lon="6.68705">
        <ele>342</ele>
        <time>2015-12-06T10:59:03.000Z</time>
      </trkpt>
      <trkpt lat="47.48514" lon="6.68706">
        <ele>342</ele>
        <time>2015-12-06T10:59:04.000Z</time>
      </trkpt>
      <trkpt lat="47.48512" lon="6.68712">
        <ele>342</ele>
        <time>2015-12-06T10:59:08.000Z</time>
      </trkpt>
      <trkpt lat="47.48512" lon="6.68713">
        <ele>342</ele>
        <time>2015-12-06T10:59:09.000Z</time>
      </trkpt>
      <trkpt lat="47.48509" lon="6.68716">
        <ele>342</ele>
        <time>2015-12-06T10:59:15.000Z</time>
      </trkpt>
      <trkpt lat="47.48508" lon="6.68716">
        <ele>342</ele>
        <time>2015-12-06T10:59:16.000Z</time>
      </trkpt>
      <trkpt lat="47.48505" lon="6.68721">
        <ele>342</ele>
        <time>2015-12-06T10:59:20.000Z</time>
      </trkpt>
      <trkpt lat="47.48504" lon="6.68722">
        <ele>342</ele>
        <time>2015-12-06T10:59:21.000Z</time>
      </trkpt>
      <trkpt lat="47.48502" lon="6.68727">
        <ele>343</ele>
        <time>2015-12-06T10:59:24.000Z</time>
      </trkpt>
      <trkpt lat="47.48502" lon="6.68729">
        <ele>343</ele>
        <time>2015-12-06T10:59:25.000Z</time>
      </trkpt>
      <trkpt lat="47.48498" lon="6.68731">
        <ele>342</ele>
        <time>2015-12-06T10:59:28.000Z</time>
      </trkpt>
      <trkpt lat="47.48497" lon="6.68731">
        <ele>342</ele>
        <time>2015-12-06T10:59:29.000Z</time>
      </trkpt>
      <trkpt lat="47.48495" lon="6.68736">
        <ele>343</ele>
        <time>2015-12-06T10:59:32.000Z</time>
      </trkpt>
      <trkpt lat="47.48495" lon="6.68737">
        <ele>343</ele>
        <time>2015-12-06T10:59:33.000Z</time>
      </trkpt>
      <trkpt lat="47.48492" lon="6.68741">
        <ele>343</ele>
        <time>2015-12-06T10:59:36.000Z</time>
      </trkpt>
      <trkpt lat="47.48491" lon="6.68742">
        <ele>343</ele>
        <time>2015-12-06T10:59:37.000Z</time>
      </trkpt>
      <trkpt lat="47.48487" lon="6.68744">
        <ele>343</ele>
        <time>2015-12-06T10:59:40.000Z</time>
      </trkpt>
      <trkpt lat="47.48485" lon="6.68744">
        <ele>343</ele>
        <time>2015-12-06T10:59:41.000Z</time>
      </trkpt>
      <trkpt lat="47.48481" lon="6.68745">
        <ele>343</ele>
        <time>2015-12-06T10:59:45.000Z</time>
      </trkpt>
      <trkpt lat="47.48481" lon="6.68745">
        <ele>343</ele>
        <time>2015-12-06T10:59:46.000Z</time>
      </trkpt>
      <trkpt lat="47.48478" lon="6.68748">
        <ele>343</ele>
        <time>2015-12-06T10:59:51.000Z</time>
      </trkpt>
      <trkpt lat="47.48476" lon="6.68749">
        <ele>343</ele>
        <time>2015-12-06T10:59:52.000Z</time>
      </trkpt>
      <trkpt lat="47.48474" lon="6.6875">
        <ele>343</ele>
        <time>2015-12-06T10:59:53.000Z</time>
      </trkpt>
      <trkpt lat="47.48472" lon="6.6875">
        <ele>346</ele>
        <time>2015-12-06T10:59:54.000Z</time>
      </trkpt>
      <trkpt lat="47.48468" lon="6.68752">
        <ele>346</ele>
        <time>2015-12-06T10:59:56.000Z</time>
      </trkpt>
      <trkpt lat="47.48467" lon="6.68753">
        <ele>346</ele>
        <time>2015-12-06T10:59:57.000Z</time>
      </trkpt>
      <trkpt lat="47.48466" lon="6.68757">
        <ele>346</ele>
        <time>2015-12-06T11:00:00.000Z</time>
      </trkpt>
      <trkpt lat="47.48466" lon="6.68759">
        <ele>346</ele>
        <time>2015-12-06T11:00:01.000Z</time>
      </trkpt>
      <trkpt lat="47.48465" lon="6.68765">
        <ele>346</ele>
        <time>2015-12-06T11:00:04.000Z</time>
      </trkpt>
      <trkpt lat="47.48465" lon="6.68767">
        <ele>346</ele>
        <time>2015-12-06T11:00:05.000Z</time>
      </trkpt>
      <trkpt lat="47.48463" lon="6.68772">
        <ele>346</ele>
        <time>2015-12-06T11:00:08.000Z</time>
      </trkpt>
      <trkpt lat="47.48462" lon="6.68774">
        <ele>346</ele>
        <time>2015-12-06T11:00:09.000Z</time>
      </trkpt>
      <trkpt lat="47.4846" lon="6.68779">
        <ele>347</ele>
        <time>2015-12-06T11:00:13.000Z</time>
      </trkpt>
      <trkpt lat="47.4846" lon="6.68781">
        <ele>347</ele>
        <time>2015-12-06T11:00:14.000Z</time>
      </trkpt>
      <trkpt lat="47.48459" lon="6.68785">
        <ele>347</ele>
        <time>2015-12-06T11:00:16.000Z</time>
      </trkpt>
      <trkpt lat="47.48458" lon="6.68787">
        <ele>347</ele>
        <time>2015-12-06T11:00:17.000Z</time>
      </trkpt>
      <trkpt lat="47.48456" lon="6.68792">
        <ele>347</ele>
        <time>2015-12-06T11:00:20.000Z</time>
      </trkpt>
      <trkpt lat="47.48455" lon="6.68794">
        <ele>347</ele>
        <time>2015-12-06T11:00:21.000Z</time>
      </trkpt>
      <trkpt lat="47.48453" lon="6.68798">
        <ele>347</ele>
        <time>2015-12-06T11:00:23.000Z</time>
      </trkpt>
      <trkpt lat="47.48452" lon="6.688">
        <ele>347</ele>
        <time>2015-12-06T11:00:24.000Z</time>
      </trkpt>
      <trkpt lat="47.48451" lon="6.68806">
        <ele>347</ele>
        <time>2015-12-06T11:00:27.000Z</time>
      </trkpt>
      <trkpt lat="47.48452" lon="6.68809">
        <ele>348</ele>
        <time>2015-12-06T11:00:28.000Z</time>
      </trkpt>
      <trkpt lat="47.48453" lon="6.68815">
        <ele>348</ele>
        <time>2015-12-06T11:00:31.000Z</time>
      </trkpt>
      <trkpt lat="47.48453" lon="6.68815">
        <ele>348</ele>
        <time>2015-12-06T11:00:32.000Z</time>
      </trkpt>
      <trkpt lat="47.48454" lon="6.68821">
        <ele>348</ele>
        <time>2015-12-06T11:00:36.000Z</time>
      </trkpt>
      <trkpt lat="47.48455" lon="6.68823">
        <ele>348</ele>
        <time>2015-12-06T11:00:37.000Z</time>
      </trkpt>
      <trkpt lat="47.48457" lon="6.68825">
        <ele>348</ele>
        <time>2015-12-06T11:00:38.000Z</time>
      </trkpt>
      <trkpt lat="47.48459" lon="6.68827">
        <ele>348</ele>
        <time>2015-12-06T11:00:39.000Z</time>
      </trkpt>
      <trkpt lat="47.48462" lon="6.68832">
        <ele>348</ele>
        <time>2015-12-06T11:00:41.000Z</time>
      </trkpt>
      <trkpt lat="47.48463" lon="6.68835">
        <ele>350</ele>
        <time>2015-12-06T11:00:42.001Z</time>
      </trkpt>
      <trkpt lat="47.48465" lon="6.68838">
        <ele>350</ele>
        <time>2015-12-06T11:00:43.000Z</time>
      </trkpt>
      <trkpt lat="47.48466" lon="6.6884">
        <ele>350</ele>
        <time>2015-12-06T11:00:44.000Z</time>
      </trkpt>
      <trkpt lat="47.48469" lon="6.68845">
        <ele>350</ele>
        <time>2015-12-06T11:00:46.000Z</time>
      </trkpt>
      <trkpt lat="47.4847" lon="6.68847">
        <ele>350</ele>
        <time>2015-12-06T11:00:47.000Z</time>
      </trkpt>
      <trkpt lat="47.48473" lon="6.68852">
        <ele>350</ele>
        <time>2015-12-06T11:00:49.000Z</time>
      </trkpt>
      <trkpt lat="47.48474" lon="6.68854">
        <ele>350</ele>
        <time>2015-12-06T11:00:50.000Z</time>
      </trkpt>
      <trkpt lat="47.48476" lon="6.68859">
        <ele>350</ele>
        <time>2015-12-06T11:00:52.000Z</time>
      </trkpt>
      <trkpt lat="47.48476" lon="6.68862">
        <ele>350</ele>
        <time>2015-12-06T11:00:53.000Z</time>
      </trkpt>
      <trkpt lat="47.48477" lon="6.68867">
        <ele>350</ele>
        <time>2015-12-06T11:00:55.000Z</time>
      </trkpt>
      <trkpt lat="47.48476" lon="6.68871">
        <ele>350</ele>
        <time>2015-12-06T11:00:56.000Z</time>
      </trkpt>
      <trkpt lat="47.48476" lon="6.68877">
        <ele>350</ele>
        <time>2015-12-06T11:00:58.000Z</time>
      </trkpt>
      <trkpt lat="47.48476" lon="6.68879">
        <ele>350</ele>
        <time>2015-12-06T11:00:59.000Z</time>
      </trkpt>
      <trkpt lat="47.48477" lon="6.68884">
        <ele>351</ele>
        <time>2015-12-06T11:01:02.000Z</time>
      </trkpt>
      <trkpt lat="47.48477" lon="6.68885">
        <ele>351</ele>
        <time>2015-12-06T11:01:03.000Z</time>
      </trkpt>
      <trkpt lat="47.4848" lon="6.6889">
        <ele>351</ele>
        <time>2015-12-06T11:01:06.000Z</time>
      </trkpt>
      <trkpt lat="47.48481" lon="6.68891">
        <ele>351</ele>
        <time>2015-12-06T11:01:07.000Z</time>
      </trkpt>
      <trkpt lat="47.48482" lon="6.68895">
        <ele>351</ele>
        <time>2015-12-06T11:01:09.000Z</time>
      </trkpt>
      <trkpt lat="47.48483" lon="6.68897">
        <ele>351</ele>
        <time>2015-12-06T11:01:10.000Z</time>
      </trkpt>
      <trkpt lat="47.48485" lon="6.68902">
        <ele>351</ele>
        <time>2015-12-06T11:01:12.000Z</time>
      </trkpt>
      <trkpt lat="47.48486" lon="6.68905">
        <ele>351</ele>
        <time>2015-12-06T11:01:13.000Z</time>
      </trkpt>
      <trkpt lat="47.48487" lon="6.68909">
        <ele>351</ele>
        <time>2015-12-06T11:01:15.000Z</time>
      </trkpt>
      <trkpt lat="47.48488" lon="6.68911">
        <ele>351</ele>
        <time>2015-12-06T11:01:16.000Z</time>
      </trkpt>
      <trkpt lat="47.4849" lon="6.68915">
        <ele>351</ele>
        <time>2015-12-06T11:01:18.000Z</time>
      </trkpt>
      <trkpt lat="47.48491" lon="6.68918">
        <ele>352</ele>
        <time>2015-12-06T11:01:19.000Z</time>
      </trkpt>
      <trkpt lat="47.48492" lon="6.68922">
        <ele>353</ele>
        <time>2015-12-06T11:01:21.000Z</time>
      </trkpt>
      <trkpt lat="47.48493" lon="6.68925">
        <ele>353</ele>
        <time>2015-12-06T11:01:22.000Z</time>
      </trkpt>
      <trkpt lat="47.48495" lon="6.68929">
        <ele>353</ele>
        <time>2015-12-06T11:01:24.000Z</time>
      </trkpt>
      <trkpt lat="47.48496" lon="6.68931">
        <ele>353</ele>
        <time>2015-12-06T11:01:25.000Z</time>
      </trkpt>
      <trkpt lat="47.48498" lon="6.68935">
        <ele>354</ele>
        <time>2015-12-06T11:01:27.000Z</time>
      </trkpt>
      <trkpt lat="47.48499" lon="6.68937">
        <ele>354</ele>
        <time>2015-12-06T11:01:28.000Z</time>
      </trkpt>
      <trkpt lat="47.48501" lon="6.68942">
        <ele>353</ele>
        <time>2015-12-06T11:01:31.000Z</time>
      </trkpt>
      <trkpt lat="47.48501" lon="6.68943">
        <ele>353</ele>
        <time>2015-12-06T11:01:32.000Z</time>
      </trkpt>
      <trkpt lat="47.48504" lon="6.68947">
        <ele>353</ele>
        <time>2015-12-06T11:01:35.000Z</time>
      </trkpt>
      <trkpt lat="47.48505" lon="6.68949">
        <ele>353</ele>
        <time>2015-12-06T11:01:36.000Z</time>
      </trkpt>
      <trkpt lat="47.48507" lon="6.68953">
        <ele>353</ele>
        <time>2015-12-06T11:01:38.000Z</time>
      </trkpt>
      <trkpt lat="47.48508" lon="6.68955">
        <ele>353</ele>
        <time>2015-12-06T11:01:39.000Z</time>
      </trkpt>
      <trkpt lat="47.4851" lon="6.6896">
        <ele>354</ele>
        <time>2015-12-06T11:01:41.000Z</time>
      </trkpt>
      <trkpt lat="47.4851" lon="6.68963">
        <ele>354</ele>
        <time>2015-12-06T11:01:42.000Z</time>
      </trkpt>
      <trkpt lat="47.48512" lon="6.68967">
        <ele>354</ele>
        <time>2015-12-06T11:01:44.000Z</time>
      </trkpt>
      <trkpt lat="47.48514" lon="6.68969">
        <ele>354</ele>
        <time>2015-12-06T11:01:45.000Z</time>
      </trkpt>
      <trkpt lat="47.48516" lon="6.68974">
        <ele>355</ele>
        <time>2015-12-06T11:01:47.000Z</time>
      </trkpt>
      <trkpt lat="47.48517" lon="6.68977">
        <ele>355</ele>
        <time>2015-12-06T11:01:48.000Z</time>
      </trkpt>
      <trkpt lat="47.48518" lon="6.68982">
        <ele>355</ele>
        <time>2015-12-06T11:01:50.000Z</time>
      </trkpt>
      <trkpt lat="47.4852" lon="6.68984">
        <ele>355</ele>
        <time>2015-12-06T11:01:51.000Z</time>
      </trkpt>
      <trkpt lat="47.48522" lon="6.68988">
        <ele>355</ele>
        <time>2015-12-06T11:01:53.000Z</time>
      </trkpt>
      <trkpt lat="47.48523" lon="6.6899">
        <ele>355</ele>
        <time>2015-12-06T11:01:54.000Z</time>
      </trkpt>
      <trkpt lat="47.48527" lon="6.68994">
        <ele>355</ele>
        <time>2015-12-06T11:01:56.000Z</time>
      </trkpt>
      <trkpt lat="47.48528" lon="6.68996">
        <ele>355</ele>
        <time>2015-12-06T11:01:57.000Z</time>
      </trkpt>
      <trkpt lat="47.48531" lon="6.69">
        <ele>355</ele>
        <time>2015-12-06T11:01:59.000Z</time>
      </trkpt>
      <trkpt lat="47.48532" lon="6.69002">
        <ele>357</ele>
        <time>2015-12-06T11:02:00.002Z</time>
      </trkpt>
      <trkpt lat="47.48534" lon="6.69005">
        <ele>357</ele>
        <time>2015-12-06T11:02:01.000Z</time>
      </trkpt>
      <trkpt lat="47.48536" lon="6.69007">
        <ele>357</ele>
        <time>2015-12-06T11:02:02.000Z</time>
      </trkpt>
      <trkpt lat="47.48539" lon="6.6901">
        <ele>357</ele>
        <time>2015-12-06T11:02:04.000Z</time>
      </trkpt>
      <trkpt lat="47.4854" lon="6.69011">
        <ele>357</ele>
        <time>2015-12-06T11:02:05.000Z</time>
      </trkpt>
      <trkpt lat="47.48543" lon="6.69014">
        <ele>357</ele>
        <time>2015-12-06T11:02:07.000Z</time>
      </trkpt>
      <trkpt lat="47.48544" lon="6.69016">
        <ele>357</ele>
        <time>2015-12-06T11:02:08.000Z</time>
      </trkpt>
      <trkpt lat="47.48546" lon="6.69018">
        <ele>357</ele>
        <time>2015-12-06T11:02:10.000Z</time>
      </trkpt>
      <trkpt lat="47.48547" lon="6.6902">
        <ele>357</ele>
        <time>2015-12-06T11:02:11.000Z</time>
      </trkpt>
      <trkpt lat="47.48549" lon="6.69024">
        <ele>357</ele>
        <time>2015-12-06T11:02:13.000Z</time>
      </trkpt>
      <trkpt lat="47.4855" lon="6.69026">
        <ele>357</ele>
        <time>2015-12-06T11:02:14.000Z</time>
      </trkpt>
      <trkpt lat="47.48552" lon="6.6903">
        <ele>357</ele>
        <time>2015-12-06T11:02:16.000Z</time>
      </trkpt>
      <trkpt lat="47.48553" lon="6.69032">
        <ele>357</ele>
        <time>2015-12-06T11:02:17.000Z</time>
      </trkpt>
      <trkpt lat="47.48555" lon="6.69037">
        <ele>357</ele>
        <time>2015-12-06T11:02:20.000Z</time>
      </trkpt>
      <trkpt lat="47.48556" lon="6.69039">
        <ele>357</ele>
        <time>2015-12-06T11:02:21.000Z</time>
      </trkpt>
      <trkpt lat="47.48559" lon="6.69043">
        <ele>357</ele>
        <time>2015-12-06T11:02:24.000Z</time>
      </trkpt>
      <trkpt lat="47.48561" lon="6.69042">
        <ele>356</ele>
        <time>2015-12-06T11:02:25.000Z</time>
      </trkpt>
      <trkpt lat="47.48565" lon="6.69042">
        <ele>356</ele>
        <time>2015-12-06T11:02:28.000Z</time>
      </trkpt>
      <trkpt lat="47.48566" lon="6.69042">
        <ele>356</ele>
        <time>2015-12-06T11:02:29.000Z</time>
      </trkpt>
      <trkpt lat="47.48567" lon="6.69049">
        <ele>356</ele>
        <time>2015-12-06T11:02:33.000Z</time>
      </trkpt>
      <trkpt lat="47.48567" lon="6.69051">
        <ele>356</ele>
        <time>2015-12-06T11:02:34.000Z</time>
      </trkpt>
      <trkpt lat="47.4857" lon="6.69053">
        <ele>356</ele>
        <time>2015-12-06T11:02:37.000Z</time>
      </trkpt>
      <trkpt lat="47.48571" lon="6.69053">
        <ele>356</ele>
        <time>2015-12-06T11:02:38.000Z</time>
      </trkpt>
      <trkpt lat="47.48574" lon="6.69051">
        <ele>356</ele>
        <time>2015-12-06T11:02:40.000Z</time>
      </trkpt>
      <trkpt lat="47.48576" lon="6.6905">
        <ele>356</ele>
        <time>2015-12-06T11:02:41.000Z</time>
      </trkpt>
      <trkpt lat="47.4858" lon="6.69048">
        <ele>356</ele>
        <time>2015-12-06T11:02:43.000Z</time>
      </trkpt>
      <trkpt lat="47.48583" lon="6.69047">
        <ele>356</ele>
        <time>2015-12-06T11:02:44.000Z</time>
      </trkpt>
      <trkpt lat="47.48586" lon="6.69047">
        <ele>350</ele>
        <time>2015-12-06T11:02:45.000Z</time>
      </trkpt>
      <trkpt lat="47.48588" lon="6.69047">
        <ele>350</ele>
        <time>2015-12-06T11:02:46.000Z</time>
      </trkpt>
      <trkpt lat="47.48592" lon="6.69049">
        <ele>350</ele>
        <time>2015-12-06T11:02:49.000Z</time>
      </trkpt>
      <trkpt lat="47.48593" lon="6.69051">
        <ele>350</ele>
        <time>2015-12-06T11:02:50.000Z</time>
      </trkpt>
      <trkpt lat="47.48596" lon="6.69055">
        <ele>350</ele>
        <time>2015-12-06T11:02:52.000Z</time>
      </trkpt>
      <trkpt lat="47.48596" lon="6.69058">
        <ele>350</ele>
        <time>2015-12-06T11:02:53.000Z</time>
      </trkpt>
      <trkpt lat="47.48597" lon="6.69062">
        <ele>350</ele>
        <time>2015-12-06T11:02:54.000Z</time>
      </trkpt>
      <trkpt lat="47.48598" lon="6.69066">
        <ele>350</ele>
        <time>2015-12-06T11:02:55.000Z</time>
      </trkpt>
      <trkpt lat="47.48598" lon="6.69071">
        <ele>350</ele>
        <time>2015-12-06T11:02:56.000Z</time>
      </trkpt>
      <trkpt lat="47.48598" lon="6.69075">
        <ele>351</ele>
        <time>2015-12-06T11:02:57.000Z</time>
      </trkpt>
      <trkpt lat="47.486" lon="6.6908">
        <ele>351</ele>
        <time>2015-12-06T11:02:59.000Z</time>
      </trkpt>
      <trkpt lat="47.48601" lon="6.69081">
        <ele>351</ele>
        <time>2015-12-06T11:03:00.000Z</time>
      </trkpt>
      <trkpt lat="47.48605" lon="6.69083">
        <ele>350</ele>
        <time>2015-12-06T11:03:03.000Z</time>
      </trkpt>
      <trkpt lat="47.48607" lon="6.69083">
        <ele>352</ele>
        <time>2015-12-06T11:03:04.000Z</time>
      </trkpt>
      <trkpt lat="47.4861" lon="6.69086">
        <ele>352</ele>
        <time>2015-12-06T11:03:06.000Z</time>
      </trkpt>
      <trkpt lat="47.48611" lon="6.69088">
        <ele>352</ele>
        <time>2015-12-06T11:03:07.000Z</time>
      </trkpt>
      <trkpt lat="47.48615" lon="6.69092">
        <ele>352</ele>
        <time>2015-12-06T11:03:09.000Z</time>
      </trkpt>
      <trkpt lat="47.48616" lon="6.69093">
        <ele>352</ele>
        <time>2015-12-06T11:03:10.000Z</time>
      </trkpt>
      <trkpt lat="47.48618" lon="6.69096">
        <ele>352</ele>
        <time>2015-12-06T11:03:12.000Z</time>
      </trkpt>
      <trkpt lat="47.48619" lon="6.69098">
        <ele>352</ele>
        <time>2015-12-06T11:03:13.000Z</time>
      </trkpt>
      <trkpt lat="47.48621" lon="6.69102">
        <ele>352</ele>
        <time>2015-12-06T11:03:15.000Z</time>
      </trkpt>
      <trkpt lat="47.48622" lon="6.69104">
        <ele>352</ele>
        <time>2015-12-06T11:03:16.000Z</time>
      </trkpt>
      <trkpt lat="47.48624" lon="6.69108">
        <ele>352</ele>
        <time>2015-12-06T11:03:18.000Z</time>
      </trkpt>
      <trkpt lat="47.48626" lon="6.6911">
        <ele>352</ele>
        <time>2015-12-06T11:03:19.000Z</time>
      </trkpt>
      <trkpt lat="47.48628" lon="6.69113">
        <ele>352</ele>
        <time>2015-12-06T11:03:21.000Z</time>
      </trkpt>
      <trkpt lat="47.4863" lon="6.69115">
        <ele>352</ele>
        <time>2015-12-06T11:03:22.000Z</time>
      </trkpt>
      <trkpt lat="47.48631" lon="6.6912">
        <ele>352</ele>
        <time>2015-12-06T11:03:24.000Z</time>
      </trkpt>
      <trkpt lat="47.48632" lon="6.69124">
        <ele>352</ele>
        <time>2015-12-06T11:03:25.000Z</time>
      </trkpt>
      <trkpt lat="47.48633" lon="6.69127">
        <ele>352</ele>
        <time>2015-12-06T11:03:26.000Z</time>
      </trkpt>
      <trkpt lat="47.48634" lon="6.6913">
        <ele>352</ele>
        <time>2015-12-06T11:03:27.000Z</time>
      </trkpt>
      <trkpt lat="47.48636" lon="6.69134">
        <ele>353</ele>
        <time>2015-12-06T11:03:29.000Z</time>
      </trkpt>
      <trkpt lat="47.48637" lon="6.69136">
        <ele>353</ele>
        <time>2015-12-06T11:03:30.000Z</time>
      </trkpt>
      <trkpt lat="47.4864" lon="6.6914">
        <ele>353</ele>
        <time>2015-12-06T11:03:32.000Z</time>
      </trkpt>
      <trkpt lat="47.48642" lon="6.6914">
        <ele>353</ele>
        <time>2015-12-06T11:03:33.000Z</time>
      </trkpt>
      <trkpt lat="47.48645" lon="6.69143">
        <ele>353</ele>
        <time>2015-12-06T11:03:36.000Z</time>
      </trkpt>
      <trkpt lat="47.48646" lon="6.69144">
        <ele>353</ele>
        <time>2015-12-06T11:03:37.000Z</time>
      </trkpt>
      <trkpt lat="47.48649" lon="6.69147">
        <ele>353</ele>
        <time>2015-12-06T11:03:39.000Z</time>
      </trkpt>
      <trkpt lat="47.48651" lon="6.69148">
        <ele>353</ele>
        <time>2015-12-06T11:03:40.000Z</time>
      </trkpt>
      <trkpt lat="47.48653" lon="6.69151">
        <ele>353</ele>
        <time>2015-12-06T11:03:42.000Z</time>
      </trkpt>
      <trkpt lat="47.48655" lon="6.69153">
        <ele>353</ele>
        <time>2015-12-06T11:03:43.000Z</time>
      </trkpt>
      <trkpt lat="47.48657" lon="6.69157">
        <ele>353</ele>
        <time>2015-12-06T11:03:45.000Z</time>
      </trkpt>
      <trkpt lat="47.48658" lon="6.69159">
        <ele>353</ele>
        <time>2015-12-06T11:03:46.000Z</time>
      </trkpt>
      <trkpt lat="47.4866" lon="6.69161">
        <ele>354</ele>
        <time>2015-12-06T11:03:47.000Z</time>
      </trkpt>
      <trkpt lat="47.48662" lon="6.69163">
        <ele>354</ele>
        <time>2015-12-06T11:03:48.000Z</time>
      </trkpt>
      <trkpt lat="47.48665" lon="6.69167">
        <ele>354</ele>
        <time>2015-12-06T11:03:50.000Z</time>
      </trkpt>
      <trkpt lat="47.48667" lon="6.69168">
        <ele>354</ele>
        <time>2015-12-06T11:03:51.000Z</time>
      </trkpt>
      <trkpt lat="47.48669" lon="6.69169">
        <ele>354</ele>
        <time>2015-12-06T11:03:52.000Z</time>
      </trkpt>
      <trkpt lat="47.48671" lon="6.69171">
        <ele>354</ele>
        <time>2015-12-06T11:03:53.000Z</time>
      </trkpt>
      <trkpt lat="47.48674" lon="6.69174">
        <ele>354</ele>
        <time>2015-12-06T11:03:55.000Z</time>
      </trkpt>
      <trkpt lat="47.48676" lon="6.69176">
        <ele>354</ele>
        <time>2015-12-06T11:03:56.000Z</time>
      </trkpt>
      <trkpt lat="47.48678" lon="6.69181">
        <ele>355</ele>
        <time>2015-12-06T11:03:58.000Z</time>
      </trkpt>
      <trkpt lat="47.48679" lon="6.69183">
        <ele>355</ele>
        <time>2015-12-06T11:03:59.000Z</time>
      </trkpt>
      <trkpt lat="47.48682" lon="6.69188">
        <ele>355</ele>
        <time>2015-12-06T11:04:01.000Z</time>
      </trkpt>
      <trkpt lat="47.48683" lon="6.6919">
        <ele>355</ele>
        <time>2015-12-06T11:04:02.000Z</time>
      </trkpt>
      <trkpt lat="47.48686" lon="6.69194">
        <ele>355</ele>
        <time>2015-12-06T11:04:04.000Z</time>
      </trkpt>
      <trkpt lat="47.48687" lon="6.69196">
        <ele>355</ele>
        <time>2015-12-06T11:04:05.000Z</time>
      </trkpt>
      <trkpt lat="47.48689" lon="6.69202">
        <ele>355</ele>
        <time>2015-12-06T11:04:07.000Z</time>
      </trkpt>
      <trkpt lat="47.4869" lon="6.69205">
        <ele>355</ele>
        <time>2015-12-06T11:04:08.000Z</time>
      </trkpt>
      <trkpt lat="47.48693" lon="6.69209">
        <ele>356</ele>
        <time>2015-12-06T11:04:10.000Z</time>
      </trkpt>
      <trkpt lat="47.48695" lon="6.69211">
        <ele>356</ele>
        <time>2015-12-06T11:04:11.000Z</time>
      </trkpt>
      <trkpt lat="47.48697" lon="6.69213">
        <ele>356</ele>
        <time>2015-12-06T11:04:12.000Z</time>
      </trkpt>
      <trkpt lat="47.48699" lon="6.69216">
        <ele>356</ele>
        <time>2015-12-06T11:04:13.000Z</time>
      </trkpt>
      <trkpt lat="47.48702" lon="6.69219">
        <ele>356</ele>
        <time>2015-12-06T11:04:15.000Z</time>
      </trkpt>
      <trkpt lat="47.48703" lon="6.69221">
        <ele>356</ele>
        <time>2015-12-06T11:04:16.000Z</time>
      </trkpt>
      <trkpt lat="47.48706" lon="6.69223">
        <ele>356</ele>
        <time>2015-12-06T11:04:18.000Z</time>
      </trkpt>
      <trkpt lat="47.48707" lon="6.69224">
        <ele>356</ele>
        <time>2015-12-06T11:04:19.000Z</time>
      </trkpt>
      <trkpt lat="47.48709" lon="6.69225">
        <ele>356</ele>
        <time>2015-12-06T11:04:20.000Z</time>
      </trkpt>
      <trkpt lat="47.48712" lon="6.69225">
        <ele>356</ele>
        <time>2015-12-06T11:04:21.000Z</time>
      </trkpt>
      <trkpt lat="47.48715" lon="6.69226">
        <ele>356</ele>
        <time>2015-12-06T11:04:22.000Z</time>
      </trkpt>
      <trkpt lat="47.48718" lon="6.69227">
        <ele>356</ele>
        <time>2015-12-06T11:04:23.000Z</time>
      </trkpt>
      <trkpt lat="47.4872" lon="6.69229">
        <ele>356</ele>
        <time>2015-12-06T11:04:24.000Z</time>
      </trkpt>
      <trkpt lat="47.48723" lon="6.6923">
        <ele>356</ele>
        <time>2015-12-06T11:04:25.000Z</time>
      </trkpt>
      <trkpt lat="47.48725" lon="6.69231">
        <ele>356</ele>
        <time>2015-12-06T11:04:26.000Z</time>
      </trkpt>
      <trkpt lat="47.48727" lon="6.69233">
        <ele>356</ele>
        <time>2015-12-06T11:04:27.000Z</time>
      </trkpt>
      <trkpt lat="47.48729" lon="6.69235">
        <ele>356</ele>
        <time>2015-12-06T11:04:28.000Z</time>
      </trkpt>
      <trkpt lat="47.48732" lon="6.69237">
        <ele>356</ele>
        <time>2015-12-06T11:04:29.000Z</time>
      </trkpt>
      <trkpt lat="47.48735" lon="6.69239">
        <ele>356</ele>
        <time>2015-12-06T11:04:30.000Z</time>
      </trkpt>
      <trkpt lat="47.48737" lon="6.69243">
        <ele>356</ele>
        <time>2015-12-06T11:04:31.000Z</time>
      </trkpt>
      <trkpt lat="47.48739" lon="6.69246">
        <ele>356</ele>
        <time>2015-12-06T11:04:32.000Z</time>
      </trkpt>
      <trkpt lat="47.48741" lon="6.69249">
        <ele>357</ele>
        <time>2015-12-06T11:04:33.000Z</time>
      </trkpt>
      <trkpt lat="47.48743" lon="6.69251">
        <ele>358</ele>
        <time>2015-12-06T11:04:34.000Z</time>
      </trkpt>
      <trkpt lat="47.48745" lon="6.69253">
        <ele>358</ele>
        <time>2015-12-06T11:04:35.000Z</time>
      </trkpt>
      <trkpt lat="47.48749" lon="6.69255">
        <ele>358</ele>
        <time>2015-12-06T11:04:37.000Z</time>
      </trkpt>
      <trkpt lat="47.48752" lon="6.69256">
        <ele>357</ele>
        <time>2015-12-06T11:04:38.000Z</time>
      </trkpt>
      <trkpt lat="47.48755" lon="6.69257">
        <ele>357</ele>
        <time>2015-12-06T11:04:39.000Z</time>
      </trkpt>
      <trkpt lat="47.48758" lon="6.69257">
        <ele>357</ele>
        <time>2015-12-06T11:04:40.000Z</time>
      </trkpt>
      <trkpt lat="47.48762" lon="6.69257">
        <ele>357</ele>
        <time>2015-12-06T11:04:41.000Z</time>
      </trkpt>
      <trkpt lat="47.48766" lon="6.69257">
        <ele>357</ele>
        <time>2015-12-06T11:04:42.000Z</time>
      </trkpt>
      <trkpt lat="47.4877" lon="6.69258">
        <ele>357</ele>
        <time>2015-12-06T11:04:43.000Z</time>
      </trkpt>
      <trkpt lat="47.48774" lon="6.69258">
        <ele>357</ele>
        <time>2015-12-06T11:04:44.000Z</time>
      </trkpt>
      <trkpt lat="47.48778" lon="6.69259">
        <ele>357</ele>
        <time>2015-12-06T11:04:45.000Z</time>
      </trkpt>
      <trkpt lat="47.48782" lon="6.6926">
        <ele>357</ele>
        <time>2015-12-06T11:04:46.000Z</time>
      </trkpt>
      <trkpt lat="47.48786" lon="6.69262">
        <ele>356</ele>
        <time>2015-12-06T11:04:47.000Z</time>
      </trkpt>
      <trkpt lat="47.48789" lon="6.69263">
        <ele>356</ele>
        <time>2015-12-06T11:04:48.000Z</time>
      </trkpt>
      <trkpt lat="47.48793" lon="6.69265">
        <ele>356</ele>
        <time>2015-12-06T11:04:49.000Z</time>
      </trkpt>
      <trkpt lat="47.48796" lon="6.69267">
        <ele>356</ele>
        <time>2015-12-06T11:04:50.000Z</time>
      </trkpt>
      <trkpt lat="47.48803" lon="6.69272">
        <ele>356</ele>
        <time>2015-12-06T11:04:51.000Z</time>
      </trkpt>
      <trkpt lat="47.48806" lon="6.69274">
        <ele>356</ele>
        <time>2015-12-06T11:04:52.000Z</time>
      </trkpt>
      <trkpt lat="47.48809" lon="6.69276">
        <ele>356</ele>
        <time>2015-12-06T11:04:53.000Z</time>
      </trkpt>
      <trkpt lat="47.48811" lon="6.69278">
        <ele>356</ele>
        <time>2015-12-06T11:04:54.000Z</time>
      </trkpt>
      <trkpt lat="47.48815" lon="6.69279">
        <ele>356</ele>
        <time>2015-12-06T11:04:55.000Z</time>
      </trkpt>
      <trkpt lat="47.4882" lon="6.69279">
        <ele>356</ele>
        <time>2015-12-06T11:04:56.000Z</time>
      </trkpt>
      <trkpt lat="47.48823" lon="6.6928">
        <ele>356</ele>
        <time>2015-12-06T11:04:57.000Z</time>
      </trkpt>
      <trkpt lat="47.48827" lon="6.69282">
        <ele>356</ele>
        <time>2015-12-06T11:04:58.000Z</time>
      </trkpt>
      <trkpt lat="47.48831" lon="6.69283">
        <ele>356</ele>
        <time>2015-12-06T11:04:59.000Z</time>
      </trkpt>
      <trkpt lat="47.48834" lon="6.69284">
        <ele>353</ele>
        <time>2015-12-06T11:05:00.000Z</time>
      </trkpt>
      <trkpt lat="47.48838" lon="6.69286">
        <ele>353</ele>
        <time>2015-12-06T11:05:01.000Z</time>
      </trkpt>
      <trkpt lat="47.48842" lon="6.69287">
        <ele>353</ele>
        <time>2015-12-06T11:05:02.000Z</time>
      </trkpt>
      <trkpt lat="47.48845" lon="6.69288">
        <ele>353</ele>
        <time>2015-12-06T11:05:03.000Z</time>
      </trkpt>
      <trkpt lat="47.48848" lon="6.69288">
        <ele>353</ele>
        <time>2015-12-06T11:05:04.000Z</time>
      </trkpt>
      <trkpt lat="47.48851" lon="6.69289">
        <ele>353</ele>
        <time>2015-12-06T11:05:05.000Z</time>
      </trkpt>
      <trkpt lat="47.48855" lon="6.69289">
        <ele>353</ele>
        <time>2015-12-06T11:05:06.000Z</time>
      </trkpt>
      <trkpt lat="47.48859" lon="6.6929">
        <ele>353</ele>
        <time>2015-12-06T11:05:07.000Z</time>
      </trkpt>
      <trkpt lat="47.48862" lon="6.69291">
        <ele>353</ele>
        <time>2015-12-06T11:05:08.000Z</time>
      </trkpt>
      <trkpt lat="47.48866" lon="6.69294">
        <ele>353</ele>
        <time>2015-12-06T11:05:09.000Z</time>
      </trkpt>
      <trkpt lat="47.48869" lon="6.69297">
        <ele>353</ele>
        <time>2015-12-06T11:05:10.000Z</time>
      </trkpt>
      <trkpt lat="47.48872" lon="6.693">
        <ele>353</ele>
        <time>2015-12-06T11:05:11.000Z</time>
      </trkpt>
      <trkpt lat="47.48876" lon="6.69303">
        <ele>353</ele>
        <time>2015-12-06T11:05:12.000Z</time>
      </trkpt>
      <trkpt lat="47.48879" lon="6.69305">
        <ele>353</ele>
        <time>2015-12-06T11:05:13.000Z</time>
      </trkpt>
      <trkpt lat="47.48883" lon="6.69306">
        <ele>353</ele>
        <time>2015-12-06T11:05:14.000Z</time>
      </trkpt>
      <trkpt lat="47.48888" lon="6.69305">
        <ele>353</ele>
        <time>2015-12-06T11:05:15.000Z</time>
      </trkpt>
      <trkpt lat="47.48893" lon="6.69304">
        <ele>353</ele>
        <time>2015-12-06T11:05:16.000Z</time>
      </trkpt>
      <trkpt lat="47.48899" lon="6.69304">
        <ele>352</ele>
        <time>2015-12-06T11:05:17.000Z</time>
      </trkpt>
      <trkpt lat="47.48903" lon="6.69303">
        <ele>352</ele>
        <time>2015-12-06T11:05:18.000Z</time>
      </trkpt>
      <trkpt lat="47.48908" lon="6.69302">
        <ele>352</ele>
        <time>2015-12-06T11:05:19.000Z</time>
      </trkpt>
      <trkpt lat="47.48912" lon="6.69301">
        <ele>352</ele>
        <time>2015-12-06T11:05:20.000Z</time>
      </trkpt>
      <trkpt lat="47.48926" lon="6.69299">
        <ele>351</ele>
        <time>2015-12-06T11:05:21.000Z</time>
      </trkpt>
      <trkpt lat="47.4893" lon="6.69298">
        <ele>351</ele>
        <time>2015-12-06T11:05:22.000Z</time>
      </trkpt>
      <trkpt lat="47.48935" lon="6.693">
        <ele>351</ele>
        <time>2015-12-06T11:05:23.000Z</time>
      </trkpt>
      <trkpt lat="47.4894" lon="6.693">
        <ele>351</ele>
        <time>2015-12-06T11:05:24.000Z</time>
      </trkpt>
      <trkpt lat="47.48944" lon="6.69299">
        <ele>351</ele>
        <time>2015-12-06T11:05:25.000Z</time>
      </trkpt>
      <trkpt lat="47.48947" lon="6.693">
        <ele>351</ele>
        <time>2015-12-06T11:05:26.000Z</time>
      </trkpt>
      <trkpt lat="47.48951" lon="6.693">
        <ele>351</ele>
        <time>2015-12-06T11:05:27.000Z</time>
      </trkpt>
      <trkpt lat="47.48955" lon="6.693">
        <ele>351</ele>
        <time>2015-12-06T11:05:28.000Z</time>
      </trkpt>
      <trkpt lat="47.4896" lon="6.69299">
        <ele>351</ele>
        <time>2015-12-06T11:05:29.000Z</time>
      </trkpt>
      <trkpt lat="47.48965" lon="6.69299">
        <ele>351</ele>
        <time>2015-12-06T11:05:30.000Z</time>
      </trkpt>
      <trkpt lat="47.4897" lon="6.69299">
        <ele>351</ele>
        <time>2015-12-06T11:05:31.000Z</time>
      </trkpt>
      <trkpt lat="47.48974" lon="6.69303">
        <ele>351</ele>
        <time>2015-12-06T11:05:32.000Z</time>
      </trkpt>
      <trkpt lat="47.4898" lon="6.69303">
        <ele>351</ele>
        <time>2015-12-06T11:05:33.000Z</time>
      </trkpt>
      <trkpt lat="47.48984" lon="6.69303">
        <ele>351</ele>
        <time>2015-12-06T11:05:34.000Z</time>
      </trkpt>
      <trkpt lat="47.48989" lon="6.69303">
        <ele>351</ele>
        <time>2015-12-06T11:05:35.000Z</time>
      </trkpt>
      <trkpt lat="47.48992" lon="6.69308">
        <ele>351</ele>
        <time>2015-12-06T11:05:36.000Z</time>
      </trkpt>
      <trkpt lat="47.48995" lon="6.69311">
        <ele>352</ele>
        <time>2015-12-06T11:05:37.000Z</time>
      </trkpt>
      <trkpt lat="47.48999" lon="6.6931">
        <ele>352</ele>
        <time>2015-12-06T11:05:40.000Z</time>
      </trkpt>
      <trkpt lat="47.49" lon="6.6931">
        <ele>352</ele>
        <time>2015-12-06T11:05:41.000Z</time>
      </trkpt>
      <trkpt lat="47.49004" lon="6.6931">
        <ele>352</ele>
        <time>2015-12-06T11:05:53.000Z</time>
      </trkpt>
      <trkpt lat="47.49005" lon="6.69311">
        <ele>352</ele>
        <time>2015-12-06T11:05:54.000Z</time>
      </trkpt>
      <trkpt lat="47.49002" lon="6.69316">
        <ele>352</ele>
        <time>2015-12-06T11:06:06.000Z</time>
      </trkpt>
      <trkpt lat="47.49001" lon="6.69316">
        <ele>352</ele>
        <time>2015-12-06T11:06:07.000Z</time>
      </trkpt>
      <trkpt lat="47.48997" lon="6.69319">
        <ele>352</ele>
        <time>2015-12-06T11:06:11.000Z</time>
      </trkpt>
      <trkpt lat="47.48997" lon="6.69321">
        <ele>352</ele>
        <time>2015-12-06T11:06:12.000Z</time>
      </trkpt>
      <trkpt lat="47.48995" lon="6.69325">
        <ele>352</ele>
        <time>2015-12-06T11:06:14.000Z</time>
      </trkpt>
      <trkpt lat="47.48994" lon="6.69328">
        <ele>352</ele>
        <time>2015-12-06T11:06:15.000Z</time>
      </trkpt>
      <trkpt lat="47.48993" lon="6.69333">
        <ele>352</ele>
        <time>2015-12-06T11:06:17.000Z</time>
      </trkpt>
      <trkpt lat="47.48993" lon="6.69335">
        <ele>354</ele>
        <time>2015-12-06T11:06:18.000Z</time>
      </trkpt>
      <trkpt lat="47.48994" lon="6.6934">
        <ele>354</ele>
        <time>2015-12-06T11:06:20.000Z</time>
      </trkpt>
      <trkpt lat="47.48994" lon="6.69343">
        <ele>354</ele>
        <time>2015-12-06T11:06:21.000Z</time>
      </trkpt>
      <trkpt lat="47.48994" lon="6.69349">
        <ele>354</ele>
        <time>2015-12-06T11:06:23.000Z</time>
      </trkpt>
      <trkpt lat="47.48995" lon="6.69352">
        <ele>355</ele>
        <time>2015-12-06T11:06:24.000Z</time>
      </trkpt>
      <trkpt lat="47.48995" lon="6.69355">
        <ele>355</ele>
        <time>2015-12-06T11:06:25.000Z</time>
      </trkpt>
      <trkpt lat="47.48996" lon="6.69358">
        <ele>355</ele>
        <time>2015-12-06T11:06:26.000Z</time>
      </trkpt>
      <trkpt lat="47.48998" lon="6.69361">
        <ele>355</ele>
        <time>2015-12-06T11:06:27.000Z</time>
      </trkpt>
      <trkpt lat="47.49" lon="6.69364">
        <ele>355</ele>
        <time>2015-12-06T11:06:28.000Z</time>
      </trkpt>
      <trkpt lat="47.49003" lon="6.69367">
        <ele>355</ele>
        <time>2015-12-06T11:06:29.000Z</time>
      </trkpt>
      <trkpt lat="47.49006" lon="6.6937">
        <ele>355</ele>
        <time>2015-12-06T11:06:30.000Z</time>
      </trkpt>
      <trkpt lat="47.49009" lon="6.69373">
        <ele>355</ele>
        <time>2015-12-06T11:06:31.000Z</time>
      </trkpt>
      <trkpt lat="47.49012" lon="6.69375">
        <ele>355</ele>
        <time>2015-12-06T11:06:32.000Z</time>
      </trkpt>
      <trkpt lat="47.49014" lon="6.69379">
        <ele>355</ele>
        <time>2015-12-06T11:06:33.000Z</time>
      </trkpt>
      <trkpt lat="47.49016" lon="6.69382">
        <ele>355</ele>
        <time>2015-12-06T11:06:34.000Z</time>
      </trkpt>
      <trkpt lat="47.49018" lon="6.69385">
        <ele>356</ele>
        <time>2015-12-06T11:06:35.000Z</time>
      </trkpt>
      <trkpt lat="47.4902" lon="6.69388">
        <ele>356</ele>
        <time>2015-12-06T11:06:36.000Z</time>
      </trkpt>
      <trkpt lat="47.49025" lon="6.6939">
        <ele>356</ele>
        <time>2015-12-06T11:06:37.000Z</time>
      </trkpt>
      <trkpt lat="47.49028" lon="6.69393">
        <ele>356</ele>
        <time>2015-12-06T11:06:38.000Z</time>
      </trkpt>
      <trkpt lat="47.49031" lon="6.69396">
        <ele>356</ele>
        <time>2015-12-06T11:06:39.000Z</time>
      </trkpt>
      <trkpt lat="47.49032" lon="6.69398">
        <ele>356</ele>
        <time>2015-12-06T11:06:40.000Z</time>
      </trkpt>
      <trkpt lat="47.49033" lon="6.69402">
        <ele>356</ele>
        <time>2015-12-06T11:06:41.000Z</time>
      </trkpt>
      <trkpt lat="47.49035" lon="6.69405">
        <ele>356</ele>
        <time>2015-12-06T11:06:42.000Z</time>
      </trkpt>
      <trkpt lat="47.49037" lon="6.69408">
        <ele>356</ele>
        <time>2015-12-06T11:06:43.000Z</time>
      </trkpt>
      <trkpt lat="47.49037" lon="6.69412">
        <ele>356</ele>
        <time>2015-12-06T11:06:44.000Z</time>
      </trkpt>
      <trkpt lat="47.49037" lon="6.69416">
        <ele>356</ele>
        <time>2015-12-06T11:06:45.000Z</time>
      </trkpt>
      <trkpt lat="47.49039" lon="6.69418">
        <ele>359</ele>
        <time>2015-12-06T11:06:46.000Z</time>
      </trkpt>
      <trkpt lat="47.49041" lon="6.6942">
        <ele>359</ele>
        <time>2015-12-06T11:06:47.000Z</time>
      </trkpt>
      <trkpt lat="47.49042" lon="6.69423">
        <ele>359</ele>
        <time>2015-12-06T11:06:48.000Z</time>
      </trkpt>
      <trkpt lat="47.49044" lon="6.69426">
        <ele>359</ele>
        <time>2015-12-06T11:06:49.000Z</time>
      </trkpt>
      <trkpt lat="47.49046" lon="6.69428">
        <ele>359</ele>
        <time>2015-12-06T11:06:50.000Z</time>
      </trkpt>
      <trkpt lat="47.49047" lon="6.69431">
        <ele>359</ele>
        <time>2015-12-06T11:06:51.000Z</time>
      </trkpt>
      <trkpt lat="47.4905" lon="6.69436">
        <ele>359</ele>
        <time>2015-12-06T11:06:53.000Z</time>
      </trkpt>
      <trkpt lat="47.49051" lon="6.69439">
        <ele>359</ele>
        <time>2015-12-06T11:06:54.000Z</time>
      </trkpt>
      <trkpt lat="47.49052" lon="6.69444">
        <ele>359</ele>
        <time>2015-12-06T11:06:56.000Z</time>
      </trkpt>
      <trkpt lat="47.49053" lon="6.69446">
        <ele>359</ele>
        <time>2015-12-06T11:06:57.000Z</time>
      </trkpt>
      <trkpt lat="47.49055" lon="6.69451">
        <ele>359</ele>
        <time>2015-12-06T11:06:59.000Z</time>
      </trkpt>
      <trkpt lat="47.49056" lon="6.69453">
        <ele>359</ele>
        <time>2015-12-06T11:07:00.000Z</time>
      </trkpt>
      <trkpt lat="47.49058" lon="6.69458">
        <ele>359</ele>
        <time>2015-12-06T11:07:02.000Z</time>
      </trkpt>
      <trkpt lat="47.49059" lon="6.6946">
        <ele>359</ele>
        <time>2015-12-06T11:07:03.000Z</time>
      </trkpt>
      <trkpt lat="47.49061" lon="6.69465">
        <ele>359</ele>
        <time>2015-12-06T11:07:05.000Z</time>
      </trkpt>
      <trkpt lat="47.49062" lon="6.69468">
        <ele>359</ele>
        <time>2015-12-06T11:07:06.000Z</time>
      </trkpt>
      <trkpt lat="47.49064" lon="6.69473">
        <ele>359</ele>
        <time>2015-12-06T11:07:08.000Z</time>
      </trkpt>
      <trkpt lat="47.49065" lon="6.69475">
        <ele>359</ele>
        <time>2015-12-06T11:07:09.000Z</time>
      </trkpt>
      <trkpt lat="47.49067" lon="6.69477">
        <ele>359</ele>
        <time>2015-12-06T11:07:10.000Z</time>
      </trkpt>
      <trkpt lat="47.49068" lon="6.6948">
        <ele>359</ele>
        <time>2015-12-06T11:07:11.000Z</time>
      </trkpt>
      <trkpt lat="47.4907" lon="6.69483">
        <ele>359</ele>
        <time>2015-12-06T11:07:12.000Z</time>
      </trkpt>
      <trkpt lat="47.49072" lon="6.69486">
        <ele>359</ele>
        <time>2015-12-06T11:07:13.000Z</time>
      </trkpt>
      <trkpt lat="47.49074" lon="6.69489">
        <ele>359</ele>
        <time>2015-12-06T11:07:14.000Z</time>
      </trkpt>
      <trkpt lat="47.49076" lon="6.69491">
        <ele>359</ele>
        <time>2015-12-06T11:07:15.000Z</time>
      </trkpt>
      <trkpt lat="47.49079" lon="6.69493">
        <ele>359</ele>
        <time>2015-12-06T11:07:16.000Z</time>
      </trkpt>
      <trkpt lat="47.49081" lon="6.69496">
        <ele>359</ele>
        <time>2015-12-06T11:07:17.000Z</time>
      </trkpt>
      <trkpt lat="47.49083" lon="6.69499">
        <ele>359</ele>
        <time>2015-12-06T11:07:18.000Z</time>
      </trkpt>
      <trkpt lat="47.49085" lon="6.69502">
        <ele>359</ele>
        <time>2015-12-06T11:07:19.000Z</time>
      </trkpt>
      <trkpt lat="47.49087" lon="6.69506">
        <ele>359</ele>
        <time>2015-12-06T11:07:20.000Z</time>
      </trkpt>
      <trkpt lat="47.49088" lon="6.6951">
        <ele>359</ele>
        <time>2015-12-06T11:07:21.000Z</time>
      </trkpt>
      <trkpt lat="47.49089" lon="6.69514">
        <ele>359</ele>
        <time>2015-12-06T11:07:22.000Z</time>
      </trkpt>
      <trkpt lat="47.4909" lon="6.69518">
        <ele>359</ele>
        <time>2015-12-06T11:07:23.000Z</time>
      </trkpt>
      <trkpt lat="47.49091" lon="6.69522">
        <ele>359</ele>
        <time>2015-12-06T11:07:24.000Z</time>
      </trkpt>
      <trkpt lat="47.49092" lon="6.69525">
        <ele>359</ele>
        <time>2015-12-06T11:07:25.000Z</time>
      </trkpt>
      <trkpt lat="47.49094" lon="6.69529">
        <ele>359</ele>
        <time>2015-12-06T11:07:26.000Z</time>
      </trkpt>
      <trkpt lat="47.49097" lon="6.69532">
        <ele>359</ele>
        <time>2015-12-06T11:07:27.000Z</time>
      </trkpt>
      <trkpt lat="47.49098" lon="6.69535">
        <ele>359</ele>
        <time>2015-12-06T11:07:28.000Z</time>
      </trkpt>
      <trkpt lat="47.491" lon="6.69538">
        <ele>359</ele>
        <time>2015-12-06T11:07:29.000Z</time>
      </trkpt>
      <trkpt lat="47.49102" lon="6.69542">
        <ele>359</ele>
        <time>2015-12-06T11:07:30.000Z</time>
      </trkpt>
      <trkpt lat="47.49103" lon="6.69545">
        <ele>360</ele>
        <time>2015-12-06T11:07:31.000Z</time>
      </trkpt>
      <trkpt lat="47.49105" lon="6.69548">
        <ele>360</ele>
        <time>2015-12-06T11:07:32.000Z</time>
      </trkpt>
      <trkpt lat="47.49106" lon="6.69552">
        <ele>360</ele>
        <time>2015-12-06T11:07:33.000Z</time>
      </trkpt>
      <trkpt lat="47.49108" lon="6.69555">
        <ele>360</ele>
        <time>2015-12-06T11:07:34.000Z</time>
      </trkpt>
      <trkpt lat="47.49109" lon="6.69558">
        <ele>360</ele>
        <time>2015-12-06T11:07:35.000Z</time>
      </trkpt>
      <trkpt lat="47.49111" lon="6.69562">
        <ele>360</ele>
        <time>2015-12-06T11:07:36.000Z</time>
      </trkpt>
      <trkpt lat="47.49114" lon="6.69565">
        <ele>360</ele>
        <time>2015-12-06T11:07:37.000Z</time>
      </trkpt>
      <trkpt lat="47.49117" lon="6.69568">
        <ele>360</ele>
        <time>2015-12-06T11:07:38.000Z</time>
      </trkpt>
      <trkpt lat="47.49121" lon="6.69572">
        <ele>360</ele>
        <time>2015-12-06T11:07:39.000Z</time>
      </trkpt>
      <trkpt lat="47.49125" lon="6.69576">
        <ele>360</ele>
        <time>2015-12-06T11:07:40.000Z</time>
      </trkpt>
      <trkpt lat="47.49129" lon="6.6958">
        <ele>359</ele>
        <time>2015-12-06T11:07:41.000Z</time>
      </trkpt>
      <trkpt lat="47.49133" lon="6.69584">
        <ele>363</ele>
        <time>2015-12-06T11:07:42.000Z</time>
      </trkpt>
      <trkpt lat="47.49136" lon="6.69588">
        <ele>363</ele>
        <time>2015-12-06T11:07:43.000Z</time>
      </trkpt>
      <trkpt lat="47.49139" lon="6.69593">
        <ele>363</ele>
        <time>2015-12-06T11:07:44.000Z</time>
      </trkpt>
      <trkpt lat="47.49141" lon="6.69597">
        <ele>363</ele>
        <time>2015-12-06T11:07:45.000Z</time>
      </trkpt>
      <trkpt lat="47.49144" lon="6.69601">
        <ele>363</ele>
        <time>2015-12-06T11:07:46.000Z</time>
      </trkpt>
      <trkpt lat="47.49147" lon="6.69605">
        <ele>363</ele>
        <time>2015-12-06T11:07:47.000Z</time>
      </trkpt>
      <trkpt lat="47.49149" lon="6.69609">
        <ele>364</ele>
        <time>2015-12-06T11:07:48.000Z</time>
      </trkpt>
      <trkpt lat="47.49152" lon="6.69613">
        <ele>364</ele>
        <time>2015-12-06T11:07:49.000Z</time>
      </trkpt>
      <trkpt lat="47.49154" lon="6.69617">
        <ele>364</ele>
        <time>2015-12-06T11:07:50.000Z</time>
      </trkpt>
      <trkpt lat="47.49157" lon="6.6962">
        <ele>364</ele>
        <time>2015-12-06T11:07:51.000Z</time>
      </trkpt>
      <trkpt lat="47.4916" lon="6.69624">
        <ele>364</ele>
        <time>2015-12-06T11:07:52.000Z</time>
      </trkpt>
      <trkpt lat="47.49164" lon="6.69628">
        <ele>365</ele>
        <time>2015-12-06T11:07:53.000Z</time>
      </trkpt>
      <trkpt lat="47.49167" lon="6.69632">
        <ele>365</ele>
        <time>2015-12-06T11:07:54.000Z</time>
      </trkpt>
      <trkpt lat="47.49169" lon="6.69635">
        <ele>363</ele>
        <time>2015-12-06T11:07:55.000Z</time>
      </trkpt>
      <trkpt lat="47.49171" lon="6.69638">
        <ele>363</ele>
        <time>2015-12-06T11:07:56.000Z</time>
      </trkpt>
      <trkpt lat="47.49174" lon="6.69641">
        <ele>364</ele>
        <time>2015-12-06T11:07:57.000Z</time>
      </trkpt>
      <trkpt lat="47.49176" lon="6.69644">
        <ele>364</ele>
        <time>2015-12-06T11:07:58.000Z</time>
      </trkpt>
      <trkpt lat="47.49179" lon="6.69647">
        <ele>364</ele>
        <time>2015-12-06T11:07:59.000Z</time>
      </trkpt>
      <trkpt lat="47.49182" lon="6.69649">
        <ele>364</ele>
        <time>2015-12-06T11:08:00.000Z</time>
      </trkpt>
      <trkpt lat="47.49185" lon="6.69652">
        <ele>364</ele>
        <time>2015-12-06T11:08:01.000Z</time>
      </trkpt>
      <trkpt lat="47.49188" lon="6.69655">
        <ele>364</ele>
        <time>2015-12-06T11:08:02.000Z</time>
      </trkpt>
      <trkpt lat="47.4919" lon="6.69658">
        <ele>364</ele>
        <time>2015-12-06T11:08:03.000Z</time>
      </trkpt>
      <trkpt lat="47.49192" lon="6.69661">
        <ele>364</ele>
        <time>2015-12-06T11:08:04.000Z</time>
      </trkpt>
      <trkpt lat="47.49194" lon="6.69664">
        <ele>364</ele>
        <time>2015-12-06T11:08:05.000Z</time>
      </trkpt>
      <trkpt lat="47.49196" lon="6.69667">
        <ele>367</ele>
        <time>2015-12-06T11:08:06.000Z</time>
      </trkpt>
      <trkpt lat="47.49198" lon="6.69671">
        <ele>367</ele>
        <time>2015-12-06T11:08:07.000Z</time>
      </trkpt>
      <trkpt lat="47.492" lon="6.69674">
        <ele>368</ele>
        <time>2015-12-06T11:08:08.000Z</time>
      </trkpt>
      <trkpt lat="47.49203" lon="6.69677">
        <ele>368</ele>
        <time>2015-12-06T11:08:09.000Z</time>
      </trkpt>
      <trkpt lat="47.49205" lon="6.6968">
        <ele>368</ele>
        <time>2015-12-06T11:08:10.000Z</time>
      </trkpt>
      <trkpt lat="47.49207" lon="6.69683">
        <ele>368</ele>
        <time>2015-12-06T11:08:11.000Z</time>
      </trkpt>
      <trkpt lat="47.49209" lon="6.69686">
        <ele>368</ele>
        <time>2015-12-06T11:08:12.000Z</time>
      </trkpt>
      <trkpt lat="47.4921" lon="6.69689">
        <ele>368</ele>
        <time>2015-12-06T11:08:13.000Z</time>
      </trkpt>
      <trkpt lat="47.49213" lon="6.69691">
        <ele>368</ele>
        <time>2015-12-06T11:08:14.000Z</time>
      </trkpt>
      <trkpt lat="47.49215" lon="6.69693">
        <ele>368</ele>
        <time>2015-12-06T11:08:15.000Z</time>
      </trkpt>
      <trkpt lat="47.49217" lon="6.69695">
        <ele>368</ele>
        <time>2015-12-06T11:08:16.000Z</time>
      </trkpt>
      <trkpt lat="47.4922" lon="6.69697">
        <ele>368</ele>
        <time>2015-12-06T11:08:17.000Z</time>
      </trkpt>
      <trkpt lat="47.49222" lon="6.697">
        <ele>368</ele>
        <time>2015-12-06T11:08:18.000Z</time>
      </trkpt>
      <trkpt lat="47.49223" lon="6.69702">
        <ele>368</ele>
        <time>2015-12-06T11:08:19.000Z</time>
      </trkpt>
      <trkpt lat="47.49225" lon="6.69705">
        <ele>368</ele>
        <time>2015-12-06T11:08:20.000Z</time>
      </trkpt>
      <trkpt lat="47.49227" lon="6.69708">
        <ele>368</ele>
        <time>2015-12-06T11:08:21.000Z</time>
      </trkpt>
      <trkpt lat="47.49229" lon="6.6971">
        <ele>368</ele>
        <time>2015-12-06T11:08:22.000Z</time>
      </trkpt>
      <trkpt lat="47.49232" lon="6.69715">
        <ele>369</ele>
        <time>2015-12-06T11:08:24.000Z</time>
      </trkpt>
      <trkpt lat="47.49233" lon="6.69717">
        <ele>369</ele>
        <time>2015-12-06T11:08:25.000Z</time>
      </trkpt>
      <trkpt lat="47.49237" lon="6.69721">
        <ele>369</ele>
        <time>2015-12-06T11:08:27.000Z</time>
      </trkpt>
      <trkpt lat="47.49238" lon="6.69723">
        <ele>369</ele>
        <time>2015-12-06T11:08:28.000Z</time>
      </trkpt>
      <trkpt lat="47.4924" lon="6.69726">
        <ele>369</ele>
        <time>2015-12-06T11:08:29.000Z</time>
      </trkpt>
      <trkpt lat="47.49241" lon="6.69728">
        <ele>369</ele>
        <time>2015-12-06T11:08:30.000Z</time>
      </trkpt>
      <trkpt lat="47.49243" lon="6.69731">
        <ele>369</ele>
        <time>2015-12-06T11:08:31.000Z</time>
      </trkpt>
      <trkpt lat="47.49245" lon="6.69733">
        <ele>369</ele>
        <time>2015-12-06T11:08:32.000Z</time>
      </trkpt>
      <trkpt lat="47.49247" lon="6.69735">
        <ele>369</ele>
        <time>2015-12-06T11:08:33.000Z</time>
      </trkpt>
      <trkpt lat="47.49249" lon="6.69737">
        <ele>369</ele>
        <time>2015-12-06T11:08:34.000Z</time>
      </trkpt>
      <trkpt lat="47.49251" lon="6.69739">
        <ele>369</ele>
        <time>2015-12-06T11:08:35.000Z</time>
      </trkpt>
      <trkpt lat="47.49252" lon="6.69741">
        <ele>369</ele>
        <time>2015-12-06T11:08:36.000Z</time>
      </trkpt>
      <trkpt lat="47.49254" lon="6.69744">
        <ele>370</ele>
        <time>2015-12-06T11:08:37.000Z</time>
      </trkpt>
      <trkpt lat="47.49255" lon="6.69747">
        <ele>370</ele>
        <time>2015-12-06T11:08:38.000Z</time>
      </trkpt>
      <trkpt lat="47.49257" lon="6.6975">
        <ele>370</ele>
        <time>2015-12-06T11:08:39.000Z</time>
      </trkpt>
      <trkpt lat="47.49258" lon="6.69752">
        <ele>372</ele>
        <time>2015-12-06T11:08:40.000Z</time>
      </trkpt>
      <trkpt lat="47.49261" lon="6.69757">
        <ele>373</ele>
        <time>2015-12-06T11:08:42.000Z</time>
      </trkpt>
      <trkpt lat="47.49262" lon="6.6976">
        <ele>373</ele>
        <time>2015-12-06T11:08:43.000Z</time>
      </trkpt>
      <trkpt lat="47.49264" lon="6.69765">
        <ele>374</ele>
        <time>2015-12-06T11:08:44.999Z</time>
      </trkpt>
      <trkpt lat="47.49265" lon="6.69768">
        <ele>374</ele>
        <time>2015-12-06T11:08:46.000Z</time>
      </trkpt>
      <trkpt lat="47.49266" lon="6.69772">
        <ele>374</ele>
        <time>2015-12-06T11:08:48.000Z</time>
      </trkpt>
      <trkpt lat="47.49267" lon="6.69774">
        <ele>375</ele>
        <time>2015-12-06T11:08:49.000Z</time>
      </trkpt>
      <trkpt lat="47.49269" lon="6.69779">
        <ele>375</ele>
        <time>2015-12-06T11:08:52.000Z</time>
      </trkpt>
      <trkpt lat="47.4927" lon="6.69781">
        <ele>375</ele>
        <time>2015-12-06T11:08:53.000Z</time>
      </trkpt>
      <trkpt lat="47.49271" lon="6.69786">
        <ele>376</ele>
        <time>2015-12-06T11:08:55.000Z</time>
      </trkpt>
      <trkpt lat="47.49271" lon="6.69788">
        <ele>376</ele>
        <time>2015-12-06T11:08:56.000Z</time>
      </trkpt>
      <trkpt lat="47.49272" lon="6.69794">
        <ele>376</ele>
        <time>2015-12-06T11:08:59.000Z</time>
      </trkpt>
      <trkpt lat="47.49272" lon="6.69795">
        <ele>377</ele>
        <time>2015-12-06T11:09:00.000Z</time>
      </trkpt>
      <trkpt lat="47.49272" lon="6.698">
        <ele>377</ele>
        <time>2015-12-06T11:09:02.000Z</time>
      </trkpt>
      <trkpt lat="47.49272" lon="6.69803">
        <ele>377</ele>
        <time>2015-12-06T11:09:03.000Z</time>
      </trkpt>
      <trkpt lat="47.49273" lon="6.69807">
        <ele>377</ele>
        <time>2015-12-06T11:09:05.000Z</time>
      </trkpt>
      <trkpt lat="47.49273" lon="6.6981">
        <ele>378</ele>
        <time>2015-12-06T11:09:06.000Z</time>
      </trkpt>
      <trkpt lat="47.49274" lon="6.69816">
        <ele>378</ele>
        <time>2015-12-06T11:09:09.000Z</time>
      </trkpt>
      <trkpt lat="47.49274" lon="6.69818">
        <ele>378</ele>
        <time>2015-12-06T11:09:10.000Z</time>
      </trkpt>
      <trkpt lat="47.49275" lon="6.69822">
        <ele>378</ele>
        <time>2015-12-06T11:09:12.000Z</time>
      </trkpt>
      <trkpt lat="47.49276" lon="6.69825">
        <ele>378</ele>
        <time>2015-12-06T11:09:13.000Z</time>
      </trkpt>
      <trkpt lat="47.49276" lon="6.69829">
        <ele>379</ele>
        <time>2015-12-06T11:09:15.000Z</time>
      </trkpt>
      <trkpt lat="47.49276" lon="6.69832">
        <ele>379</ele>
        <time>2015-12-06T11:09:16.000Z</time>
      </trkpt>
      <trkpt lat="47.49277" lon="6.69836">
        <ele>384</ele>
        <time>2015-12-06T11:09:18.000Z</time>
      </trkpt>
      <trkpt lat="47.49277" lon="6.69839">
        <ele>384</ele>
        <time>2015-12-06T11:09:19.000Z</time>
      </trkpt>
      <trkpt lat="47.49278" lon="6.69845">
        <ele>385</ele>
        <time>2015-12-06T11:09:21.000Z</time>
      </trkpt>
      <trkpt lat="47.49279" lon="6.69848">
        <ele>385</ele>
        <time>2015-12-06T11:09:22.000Z</time>
      </trkpt>
      <trkpt lat="47.49281" lon="6.69853">
        <ele>385</ele>
        <time>2015-12-06T11:09:24.000Z</time>
      </trkpt>
      <trkpt lat="47.49281" lon="6.69855">
        <ele>385</ele>
        <time>2015-12-06T11:09:25.000Z</time>
      </trkpt>
      <trkpt lat="47.49282" lon="6.6986">
        <ele>385</ele>
        <time>2015-12-06T11:09:27.000Z</time>
      </trkpt>
      <trkpt lat="47.49283" lon="6.69862">
        <ele>386</ele>
        <time>2015-12-06T11:09:28.000Z</time>
      </trkpt>
      <trkpt lat="47.49284" lon="6.69868">
        <ele>386</ele>
        <time>2015-12-06T11:09:31.000Z</time>
      </trkpt>
      <trkpt lat="47.49284" lon="6.6987">
        <ele>386</ele>
        <time>2015-12-06T11:09:32.000Z</time>
      </trkpt>
      <trkpt lat="47.49283" lon="6.69875">
        <ele>386</ele>
        <time>2015-12-06T11:09:34.000Z</time>
      </trkpt>
      <trkpt lat="47.49283" lon="6.69877">
        <ele>387</ele>
        <time>2015-12-06T11:09:35.000Z</time>
      </trkpt>
      <trkpt lat="47.49284" lon="6.69883">
        <ele>387</ele>
        <time>2015-12-06T11:09:38.000Z</time>
      </trkpt>
      <trkpt lat="47.49284" lon="6.69885">
        <ele>387</ele>
        <time>2015-12-06T11:09:39.000Z</time>
      </trkpt>
      <trkpt lat="47.49285" lon="6.69891">
        <ele>387</ele>
        <time>2015-12-06T11:09:42.000Z</time>
      </trkpt>
      <trkpt lat="47.49286" lon="6.69893">
        <ele>387</ele>
        <time>2015-12-06T11:09:43.000Z</time>
      </trkpt>
      <trkpt lat="47.49287" lon="6.69897">
        <ele>388</ele>
        <time>2015-12-06T11:09:45.000Z</time>
      </trkpt>
      <trkpt lat="47.49288" lon="6.69899">
        <ele>388</ele>
        <time>2015-12-06T11:09:46.000Z</time>
      </trkpt>
      <trkpt lat="47.49288" lon="6.69904">
        <ele>388</ele>
        <time>2015-12-06T11:09:48.000Z</time>
      </trkpt>
      <trkpt lat="47.49289" lon="6.69906">
        <ele>388</ele>
        <time>2015-12-06T11:09:49.000Z</time>
      </trkpt>
      <trkpt lat="47.4929" lon="6.69911">
        <ele>388</ele>
        <time>2015-12-06T11:09:52.000Z</time>
      </trkpt>
      <trkpt lat="47.49291" lon="6.69913">
        <ele>388</ele>
        <time>2015-12-06T11:09:53.000Z</time>
      </trkpt>
      <trkpt lat="47.49293" lon="6.69916">
        <ele>388</ele>
        <time>2015-12-06T11:09:55.000Z</time>
      </trkpt>
      <trkpt lat="47.49293" lon="6.69919">
        <ele>394</ele>
        <time>2015-12-06T11:09:56.000Z</time>
      </trkpt>
      <trkpt lat="47.49295" lon="6.69923">
        <ele>394</ele>
        <time>2015-12-06T11:09:58.000Z</time>
      </trkpt>
      <trkpt lat="47.49297" lon="6.69925">
        <ele>394</ele>
        <time>2015-12-06T11:09:59.000Z</time>
      </trkpt>
      <trkpt lat="47.49299" lon="6.69929">
        <ele>394</ele>
        <time>2015-12-06T11:10:01.000Z</time>
      </trkpt>
      <trkpt lat="47.493" lon="6.69931">
        <ele>395</ele>
        <time>2015-12-06T11:10:02.000Z</time>
      </trkpt>
      <trkpt lat="47.49302" lon="6.69935">
        <ele>395</ele>
        <time>2015-12-06T11:10:04.000Z</time>
      </trkpt>
      <trkpt lat="47.49303" lon="6.69937">
        <ele>395</ele>
        <time>2015-12-06T11:10:05.000Z</time>
      </trkpt>
      <trkpt lat="47.49305" lon="6.69941">
        <ele>395</ele>
        <time>2015-12-06T11:10:07.000Z</time>
      </trkpt>
      <trkpt lat="47.49306" lon="6.69943">
        <ele>395</ele>
        <time>2015-12-06T11:10:08.000Z</time>
      </trkpt>
      <trkpt lat="47.49309" lon="6.69947">
        <ele>395</ele>
        <time>2015-12-06T11:10:11.000Z</time>
      </trkpt>
      <trkpt lat="47.4931" lon="6.69948">
        <ele>395</ele>
        <time>2015-12-06T11:10:12.000Z</time>
      </trkpt>
      <trkpt lat="47.49313" lon="6.69952">
        <ele>395</ele>
        <time>2015-12-06T11:10:14.000Z</time>
      </trkpt>
      <trkpt lat="47.49314" lon="6.69956">
        <ele>396</ele>
        <time>2015-12-06T11:10:15.000Z</time>
      </trkpt>
      <trkpt lat="47.49316" lon="6.69959">
        <ele>396</ele>
        <time>2015-12-06T11:10:16.000Z</time>
      </trkpt>
      <trkpt lat="47.49317" lon="6.69962">
        <ele>396</ele>
        <time>2015-12-06T11:10:17.000Z</time>
      </trkpt>
      <trkpt lat="47.49318" lon="6.69965">
        <ele>396</ele>
        <time>2015-12-06T11:10:18.000Z</time>
      </trkpt>
      <trkpt lat="47.4932" lon="6.69966">
        <ele>396</ele>
        <time>2015-12-06T11:10:19.000Z</time>
      </trkpt>
      <trkpt lat="47.49323" lon="6.69969">
        <ele>396</ele>
        <time>2015-12-06T11:10:20.000Z</time>
      </trkpt>
      <trkpt lat="47.49326" lon="6.69971">
        <ele>396</ele>
        <time>2015-12-06T11:10:21.000Z</time>
      </trkpt>
      <trkpt lat="47.49329" lon="6.69974">
        <ele>397</ele>
        <time>2015-12-06T11:10:22.000Z</time>
      </trkpt>
      <trkpt lat="47.49331" lon="6.69977">
        <ele>397</ele>
        <time>2015-12-06T11:10:23.000Z</time>
      </trkpt>
      <trkpt lat="47.49333" lon="6.6998">
        <ele>397</ele>
        <time>2015-12-06T11:10:24.000Z</time>
      </trkpt>
      <trkpt lat="47.49336" lon="6.69983">
        <ele>393</ele>
        <time>2015-12-06T11:10:25.000Z</time>
      </trkpt>
      <trkpt lat="47.49338" lon="6.69987">
        <ele>394</ele>
        <time>2015-12-06T11:10:26.000Z</time>
      </trkpt>
      <trkpt lat="47.4934" lon="6.6999">
        <ele>394</ele>
        <time>2015-12-06T11:10:27.000Z</time>
      </trkpt>
      <trkpt lat="47.49343" lon="6.69993">
        <ele>394</ele>
        <time>2015-12-06T11:10:28.000Z</time>
      </trkpt>
      <trkpt lat="47.49345" lon="6.69995">
        <ele>394</ele>
        <time>2015-12-06T11:10:29.000Z</time>
      </trkpt>
      <trkpt lat="47.49347" lon="6.69998">
        <ele>394</ele>
        <time>2015-12-06T11:10:30.000Z</time>
      </trkpt>
      <trkpt lat="47.49349" lon="6.70001">
        <ele>397</ele>
        <time>2015-12-06T11:10:31.000Z</time>
      </trkpt>
      <trkpt lat="47.4935" lon="6.70004">
        <ele>397</ele>
        <time>2015-12-06T11:10:32.000Z</time>
      </trkpt>
      <trkpt lat="47.49352" lon="6.70007">
        <ele>397</ele>
        <time>2015-12-06T11:10:33.000Z</time>
      </trkpt>
      <trkpt lat="47.49354" lon="6.70008">
        <ele>397</ele>
        <time>2015-12-06T11:10:34.000Z</time>
      </trkpt>
      <trkpt lat="47.49361" lon="6.70012">
        <ele>396</ele>
        <time>2015-12-06T11:10:35.000Z</time>
      </trkpt>
      <trkpt lat="47.49364" lon="6.70013">
        <ele>396</ele>
        <time>2015-12-06T11:10:36.000Z</time>
      </trkpt>
      <trkpt lat="47.49368" lon="6.70015">
        <ele>396</ele>
        <time>2015-12-06T11:10:37.000Z</time>
      </trkpt>
      <trkpt lat="47.49371" lon="6.70018">
        <ele>396</ele>
        <time>2015-12-06T11:10:38.000Z</time>
      </trkpt>
      <trkpt lat="47.49373" lon="6.70021">
        <ele>395</ele>
        <time>2015-12-06T11:10:39.000Z</time>
      </trkpt>
      <trkpt lat="47.49375" lon="6.70023">
        <ele>395</ele>
        <time>2015-12-06T11:10:40.000Z</time>
      </trkpt>
      <trkpt lat="47.49377" lon="6.70024">
        <ele>395</ele>
        <time>2015-12-06T11:10:41.000Z</time>
      </trkpt>
      <trkpt lat="47.4938" lon="6.70028">
        <ele>395</ele>
        <time>2015-12-06T11:10:43.000Z</time>
      </trkpt>
      <trkpt lat="47.49382" lon="6.70036">
        <ele>395</ele>
        <time>2015-12-06T11:10:44.000Z</time>
      </trkpt>
      <trkpt lat="47.49384" lon="6.70039">
        <ele>395</ele>
        <time>2015-12-06T11:10:45.000Z</time>
      </trkpt>
      <trkpt lat="47.49385" lon="6.70043">
        <ele>395</ele>
        <time>2015-12-06T11:10:46.000Z</time>
      </trkpt>
      <trkpt lat="47.49387" lon="6.70047">
        <ele>395</ele>
        <time>2015-12-06T11:10:47.000Z</time>
      </trkpt>
      <trkpt lat="47.49389" lon="6.70051">
        <ele>395</ele>
        <time>2015-12-06T11:10:48.000Z</time>
      </trkpt>
      <trkpt lat="47.49391" lon="6.70055">
        <ele>395</ele>
        <time>2015-12-06T11:10:49.000Z</time>
      </trkpt>
      <trkpt lat="47.49393" lon="6.70059">
        <ele>395</ele>
        <time>2015-12-06T11:10:50.000Z</time>
      </trkpt>
      <trkpt lat="47.49394" lon="6.70062">
        <ele>395</ele>
        <time>2015-12-06T11:10:51.000Z</time>
      </trkpt>
      <trkpt lat="47.49396" lon="6.70067">
        <ele>395</ele>
        <time>2015-12-06T11:10:52.000Z</time>
      </trkpt>
      <trkpt lat="47.49398" lon="6.70071">
        <ele>395</ele>
        <time>2015-12-06T11:10:53.000Z</time>
      </trkpt>
      <trkpt lat="47.494" lon="6.70076">
        <ele>394</ele>
        <time>2015-12-06T11:10:54.000Z</time>
      </trkpt>
      <trkpt lat="47.49401" lon="6.7008">
        <ele>394</ele>
        <time>2015-12-06T11:10:55.000Z</time>
      </trkpt>
      <trkpt lat="47.49403" lon="6.70084">
        <ele>397</ele>
        <time>2015-12-06T11:10:56.000Z</time>
      </trkpt>
      <trkpt lat="47.49404" lon="6.70087">
        <ele>396</ele>
        <time>2015-12-06T11:10:57.000Z</time>
      </trkpt>
      <trkpt lat="47.49409" lon="6.70093">
        <ele>396</ele>
        <time>2015-12-06T11:10:58.000Z</time>
      </trkpt>
      <trkpt lat="47.4941" lon="6.70095">
        <ele>396</ele>
        <time>2015-12-06T11:10:59.000Z</time>
      </trkpt>
      <trkpt lat="47.49413" lon="6.70099">
        <ele>397</ele>
        <time>2015-12-06T11:11:00.000Z</time>
      </trkpt>
      <trkpt lat="47.49415" lon="6.70102">
        <ele>397</ele>
        <time>2015-12-06T11:11:01.000Z</time>
      </trkpt>
      <trkpt lat="47.49416" lon="6.70106">
        <ele>398</ele>
        <time>2015-12-06T11:11:02.000Z</time>
      </trkpt>
      <trkpt lat="47.49417" lon="6.70111">
        <ele>390</ele>
        <time>2015-12-06T11:11:04.000Z</time>
      </trkpt>
      <trkpt lat="47.49419" lon="6.70114">
        <ele>390</ele>
        <time>2015-12-06T11:11:05.000Z</time>
      </trkpt>
      <trkpt lat="47.49421" lon="6.70118">
        <ele>390</ele>
        <time>2015-12-06T11:11:06.000Z</time>
      </trkpt>
      <trkpt lat="47.49423" lon="6.7012">
        <ele>390</ele>
        <time>2015-12-06T11:11:07.000Z</time>
      </trkpt>
      <trkpt lat="47.49424" lon="6.70126">
        <ele>390</ele>
        <time>2015-12-06T11:11:09.000Z</time>
      </trkpt>
      <trkpt lat="47.49424" lon="6.70129">
        <ele>391</ele>
        <time>2015-12-06T11:11:10.000Z</time>
      </trkpt>
      <trkpt lat="47.49427" lon="6.70134">
        <ele>391</ele>
        <time>2015-12-06T11:11:12.000Z</time>
      </trkpt>
      <trkpt lat="47.49428" lon="6.70136">
        <ele>391</ele>
        <time>2015-12-06T11:11:13.000Z</time>
      </trkpt>
      <trkpt lat="47.4943" lon="6.7014">
        <ele>392</ele>
        <time>2015-12-06T11:11:15.000Z</time>
      </trkpt>
      <trkpt lat="47.49431" lon="6.70142">
        <ele>392</ele>
        <time>2015-12-06T11:11:16.000Z</time>
      </trkpt>
      <trkpt lat="47.49434" lon="6.70146">
        <ele>392</ele>
        <time>2015-12-06T11:11:18.000Z</time>
      </trkpt>
      <trkpt lat="47.49436" lon="6.70148">
        <ele>392</ele>
        <time>2015-12-06T11:11:19.000Z</time>
      </trkpt>
      <trkpt lat="47.49437" lon="6.7015">
        <ele>392</ele>
        <time>2015-12-06T11:11:20.000Z</time>
      </trkpt>
      <trkpt lat="47.49439" lon="6.70152">
        <ele>392</ele>
        <time>2015-12-06T11:11:21.000Z</time>
      </trkpt>
      <trkpt lat="47.49441" lon="6.70154">
        <ele>392</ele>
        <time>2015-12-06T11:11:22.000Z</time>
      </trkpt>
      <trkpt lat="47.49443" lon="6.70156">
        <ele>391</ele>
        <time>2015-12-06T11:11:23.000Z</time>
      </trkpt>
      <trkpt lat="47.49445" lon="6.70159">
        <ele>391</ele>
        <time>2015-12-06T11:11:25.000Z</time>
      </trkpt>
      <trkpt lat="47.49446" lon="6.70161">
        <ele>391</ele>
        <time>2015-12-06T11:11:26.000Z</time>
      </trkpt>
      <trkpt lat="47.49448" lon="6.70166">
        <ele>391</ele>
        <time>2015-12-06T11:11:28.000Z</time>
      </trkpt>
      <trkpt lat="47.4945" lon="6.70168">
        <ele>397</ele>
        <time>2015-12-06T11:11:29.000Z</time>
      </trkpt>
      <trkpt lat="47.49451" lon="6.70171">
        <ele>397</ele>
        <time>2015-12-06T11:11:30.000Z</time>
      </trkpt>
      <trkpt lat="47.49453" lon="6.70174">
        <ele>397</ele>
        <time>2015-12-06T11:11:31.000Z</time>
      </trkpt>
      <trkpt lat="47.49454" lon="6.70177">
        <ele>396</ele>
        <time>2015-12-06T11:11:32.000Z</time>
      </trkpt>
      <trkpt lat="47.49456" lon="6.70181">
        <ele>396</ele>
        <time>2015-12-06T11:11:33.000Z</time>
      </trkpt>
      <trkpt lat="47.49458" lon="6.70184">
        <ele>396</ele>
        <time>2015-12-06T11:11:34.000Z</time>
      </trkpt>
      <trkpt lat="47.4946" lon="6.70189">
        <ele>396</ele>
        <time>2015-12-06T11:11:35.001Z</time>
      </trkpt>
      <trkpt lat="47.49462" lon="6.70193">
        <ele>396</ele>
        <time>2015-12-06T11:11:36.000Z</time>
      </trkpt>
      <trkpt lat="47.49464" lon="6.70196">
        <ele>396</ele>
        <time>2015-12-06T11:11:37.000Z</time>
      </trkpt>
      <trkpt lat="47.49465" lon="6.70203">
        <ele>396</ele>
        <time>2015-12-06T11:11:39.000Z</time>
      </trkpt>
      <trkpt lat="47.49465" lon="6.70206">
        <ele>397</ele>
        <time>2015-12-06T11:11:40.000Z</time>
      </trkpt>
      <trkpt lat="47.49464" lon="6.70209">
        <ele>397</ele>
        <time>2015-12-06T11:11:41.000Z</time>
      </trkpt>
      <trkpt lat="47.49463" lon="6.70212">
        <ele>397</ele>
        <time>2015-12-06T11:11:42.000Z</time>
      </trkpt>
      <trkpt lat="47.49463" lon="6.70215">
        <ele>397</ele>
        <time>2015-12-06T11:11:43.001Z</time>
      </trkpt>
      <trkpt lat="47.49462" lon="6.70219">
        <ele>398</ele>
        <time>2015-12-06T11:11:44.000Z</time>
      </trkpt>
      <trkpt lat="47.49463" lon="6.70222">
        <ele>398</ele>
        <time>2015-12-06T11:11:45.000Z</time>
      </trkpt>
      <trkpt lat="47.49465" lon="6.70225">
        <ele>398</ele>
        <time>2015-12-06T11:11:46.000Z</time>
      </trkpt>
      <trkpt lat="47.49466" lon="6.70228">
        <ele>398</ele>
        <time>2015-12-06T11:11:47.000Z</time>
      </trkpt>
      <trkpt lat="47.49468" lon="6.70231">
        <ele>398</ele>
        <time>2015-12-06T11:11:48.000Z</time>
      </trkpt>
      <trkpt lat="47.49469" lon="6.70237">
        <ele>398</ele>
        <time>2015-12-06T11:11:50.000Z</time>
      </trkpt>
      <trkpt lat="47.49469" lon="6.7024">
        <ele>398</ele>
        <time>2015-12-06T11:11:51.000Z</time>
      </trkpt>
      <trkpt lat="47.49468" lon="6.70245">
        <ele>398</ele>
        <time>2015-12-06T11:11:53.000Z</time>
      </trkpt>
      <trkpt lat="47.49468" lon="6.70248">
        <ele>398</ele>
        <time>2015-12-06T11:11:54.000Z</time>
      </trkpt>
      <trkpt lat="47.49469" lon="6.70252">
        <ele>403</ele>
        <time>2015-12-06T11:11:55.000Z</time>
      </trkpt>
      <trkpt lat="47.49469" lon="6.70255">
        <ele>403</ele>
        <time>2015-12-06T11:11:56.000Z</time>
      </trkpt>
      <trkpt lat="47.4947" lon="6.70259">
        <ele>403</ele>
        <time>2015-12-06T11:11:57.001Z</time>
      </trkpt>
      <trkpt lat="47.49473" lon="6.70262">
        <ele>403</ele>
        <time>2015-12-06T11:11:58.000Z</time>
      </trkpt>
      <trkpt lat="47.49475" lon="6.70264">
        <ele>403</ele>
        <time>2015-12-06T11:11:59.000Z</time>
      </trkpt>
      <trkpt lat="47.49477" lon="6.70267">
        <ele>403</ele>
        <time>2015-12-06T11:12:00.000Z</time>
      </trkpt>
      <trkpt lat="47.49479" lon="6.70272">
        <ele>403</ele>
        <time>2015-12-06T11:12:02.000Z</time>
      </trkpt>
      <trkpt lat="47.49481" lon="6.70273">
        <ele>403</ele>
        <time>2015-12-06T11:12:03.000Z</time>
      </trkpt>
      <trkpt lat="47.49482" lon="6.70279">
        <ele>403</ele>
        <time>2015-12-06T11:12:05.000Z</time>
      </trkpt>
      <trkpt lat="47.49481" lon="6.70283">
        <ele>404</ele>
        <time>2015-12-06T11:12:06.000Z</time>
      </trkpt>
      <trkpt lat="47.49481" lon="6.70286">
        <ele>404</ele>
        <time>2015-12-06T11:12:07.001Z</time>
      </trkpt>
      <trkpt lat="47.49481" lon="6.70291">
        <ele>404</ele>
        <time>2015-12-06T11:12:08.000Z</time>
      </trkpt>
      <trkpt lat="47.4948" lon="6.70295">
        <ele>405</ele>
        <time>2015-12-06T11:12:09.001Z</time>
      </trkpt>
      <trkpt lat="47.49482" lon="6.70299">
        <ele>405</ele>
        <time>2015-12-06T11:12:10.000Z</time>
      </trkpt>
      <trkpt lat="47.49484" lon="6.70302">
        <ele>405</ele>
        <time>2015-12-06T11:12:11.000Z</time>
      </trkpt>
      <trkpt lat="47.49485" lon="6.70305">
        <ele>405</ele>
        <time>2015-12-06T11:12:12.000Z</time>
      </trkpt>
      <trkpt lat="47.49486" lon="6.70308">
        <ele>405</ele>
        <time>2015-12-06T11:12:13.000Z</time>
      </trkpt>
      <trkpt lat="47.49487" lon="6.70311">
        <ele>405</ele>
        <time>2015-12-06T11:12:14.000Z</time>
      </trkpt>
      <trkpt lat="47.49488" lon="6.70317">
        <ele>405</ele>
        <time>2015-12-06T11:12:16.000Z</time>
      </trkpt>
      <trkpt lat="47.49489" lon="6.7032">
        <ele>405</ele>
        <time>2015-12-06T11:12:17.000Z</time>
      </trkpt>
      <trkpt lat="47.49492" lon="6.70323">
        <ele>404</ele>
        <time>2015-12-06T11:12:18.000Z</time>
      </trkpt>
      <trkpt lat="47.49493" lon="6.70325">
        <ele>404</ele>
        <time>2015-12-06T11:12:19.000Z</time>
      </trkpt>
      <trkpt lat="47.49496" lon="6.7033">
        <ele>404</ele>
        <time>2015-12-06T11:12:21.000Z</time>
      </trkpt>
      <trkpt lat="47.49498" lon="6.70333">
        <ele>403</ele>
        <time>2015-12-06T11:12:22.000Z</time>
      </trkpt>
      <trkpt lat="47.49499" lon="6.70337">
        <ele>404</ele>
        <time>2015-12-06T11:12:23.000Z</time>
      </trkpt>
      <trkpt lat="47.49501" lon="6.7034">
        <ele>401</ele>
        <time>2015-12-06T11:12:24.000Z</time>
      </trkpt>
      <trkpt lat="47.49502" lon="6.70344">
        <ele>401</ele>
        <time>2015-12-06T11:12:25.000Z</time>
      </trkpt>
      <trkpt lat="47.49504" lon="6.70347">
        <ele>400</ele>
        <time>2015-12-06T11:12:26.000Z</time>
      </trkpt>
      <trkpt lat="47.49504" lon="6.7035">
        <ele>400</ele>
        <time>2015-12-06T11:12:27.000Z</time>
      </trkpt>
      <trkpt lat="47.49504" lon="6.70353">
        <ele>400</ele>
        <time>2015-12-06T11:12:27.999Z</time>
      </trkpt>
      <trkpt lat="47.49505" lon="6.70357">
        <ele>400</ele>
        <time>2015-12-06T11:12:29.000Z</time>
      </trkpt>
      <trkpt lat="47.49505" lon="6.7036">
        <ele>400</ele>
        <time>2015-12-06T11:12:30.000Z</time>
      </trkpt>
      <trkpt lat="47.49507" lon="6.70364">
        <ele>400</ele>
        <time>2015-12-06T11:12:31.000Z</time>
      </trkpt>
      <trkpt lat="47.49507" lon="6.70367">
        <ele>400</ele>
        <time>2015-12-06T11:12:32.000Z</time>
      </trkpt>
      <trkpt lat="47.49506" lon="6.70371">
        <ele>400</ele>
        <time>2015-12-06T11:12:34.000Z</time>
      </trkpt>
      <trkpt lat="47.49506" lon="6.70374">
        <ele>400</ele>
        <time>2015-12-06T11:12:35.000Z</time>
      </trkpt>
      <trkpt lat="47.49506" lon="6.70381">
        <ele>401</ele>
        <time>2015-12-06T11:12:37.000Z</time>
      </trkpt>
      <trkpt lat="47.49506" lon="6.70384">
        <ele>401</ele>
        <time>2015-12-06T11:12:38.000Z</time>
      </trkpt>
      <trkpt lat="47.49507" lon="6.70387">
        <ele>401</ele>
        <time>2015-12-06T11:12:39.000Z</time>
      </trkpt>
      <trkpt lat="47.49509" lon="6.70391">
        <ele>402</ele>
        <time>2015-12-06T11:12:40.000Z</time>
      </trkpt>
      <trkpt lat="47.49511" lon="6.70395">
        <ele>402</ele>
        <time>2015-12-06T11:12:41.000Z</time>
      </trkpt>
      <trkpt lat="47.49512" lon="6.70398">
        <ele>403</ele>
        <time>2015-12-06T11:12:42.000Z</time>
      </trkpt>
      <trkpt lat="47.49513" lon="6.70401">
        <ele>403</ele>
        <time>2015-12-06T11:12:43.000Z</time>
      </trkpt>
      <trkpt lat="47.49514" lon="6.70404">
        <ele>403</ele>
        <time>2015-12-06T11:12:44.000Z</time>
      </trkpt>
      <trkpt lat="47.49515" lon="6.70408">
        <ele>404</ele>
        <time>2015-12-06T11:12:45.000Z</time>
      </trkpt>
      <trkpt lat="47.49516" lon="6.70411">
        <ele>404</ele>
        <time>2015-12-06T11:12:46.000Z</time>
      </trkpt>
      <trkpt lat="47.49517" lon="6.70413">
        <ele>404</ele>
        <time>2015-12-06T11:12:47.000Z</time>
      </trkpt>
      <trkpt lat="47.49519" lon="6.70417">
        <ele>403</ele>
        <time>2015-12-06T11:12:48.000Z</time>
      </trkpt>
      <trkpt lat="47.49521" lon="6.70422">
        <ele>407</ele>
        <time>2015-12-06T11:12:50.000Z</time>
      </trkpt>
      <trkpt lat="47.49523" lon="6.70424">
        <ele>406</ele>
        <time>2015-12-06T11:12:51.000Z</time>
      </trkpt>
      <trkpt lat="47.49525" lon="6.70429">
        <ele>406</ele>
        <time>2015-12-06T11:12:53.000Z</time>
      </trkpt>
      <trkpt lat="47.49525" lon="6.70432">
        <ele>406</ele>
        <time>2015-12-06T11:12:54.000Z</time>
      </trkpt>
      <trkpt lat="47.49525" lon="6.70435">
        <ele>406</ele>
        <time>2015-12-06T11:12:55.000Z</time>
      </trkpt>
      <trkpt lat="47.49526" lon="6.70439">
        <ele>406</ele>
        <time>2015-12-06T11:12:56.000Z</time>
      </trkpt>
      <trkpt lat="47.49528" lon="6.70442">
        <ele>406</ele>
        <time>2015-12-06T11:12:57.000Z</time>
      </trkpt>
      <trkpt lat="47.49531" lon="6.70446">
        <ele>405</ele>
        <time>2015-12-06T11:12:58.000Z</time>
      </trkpt>
      <trkpt lat="47.49533" lon="6.70449">
        <ele>405</ele>
        <time>2015-12-06T11:12:59.000Z</time>
      </trkpt>
      <trkpt lat="47.49535" lon="6.70453">
        <ele>405</ele>
        <time>2015-12-06T11:13:00.000Z</time>
      </trkpt>
      <trkpt lat="47.49536" lon="6.70456">
        <ele>405</ele>
        <time>2015-12-06T11:13:01.000Z</time>
      </trkpt>
      <trkpt lat="47.49538" lon="6.7046">
        <ele>405</ele>
        <time>2015-12-06T11:13:02.000Z</time>
      </trkpt>
      <trkpt lat="47.49539" lon="6.70464">
        <ele>405</ele>
        <time>2015-12-06T11:13:03.000Z</time>
      </trkpt>
      <trkpt lat="47.49541" lon="6.70468">
        <ele>405</ele>
        <time>2015-12-06T11:13:04.000Z</time>
      </trkpt>
      <trkpt lat="47.49542" lon="6.70472">
        <ele>405</ele>
        <time>2015-12-06T11:13:05.000Z</time>
      </trkpt>
      <trkpt lat="47.49544" lon="6.70477">
        <ele>405</ele>
        <time>2015-12-06T11:13:06.000Z</time>
      </trkpt>
      <trkpt lat="47.49547" lon="6.70481">
        <ele>405</ele>
        <time>2015-12-06T11:13:07.000Z</time>
      </trkpt>
      <trkpt lat="47.49549" lon="6.70485">
        <ele>404</ele>
        <time>2015-12-06T11:13:08.000Z</time>
      </trkpt>
      <trkpt lat="47.49551" lon="6.70489">
        <ele>404</ele>
        <time>2015-12-06T11:13:09.000Z</time>
      </trkpt>
      <trkpt lat="47.49553" lon="6.70493">
        <ele>404</ele>
        <time>2015-12-06T11:13:10.000Z</time>
      </trkpt>
      <trkpt lat="47.49555" lon="6.70497">
        <ele>404</ele>
        <time>2015-12-06T11:13:11.000Z</time>
      </trkpt>
      <trkpt lat="47.49556" lon="6.70499">
        <ele>403</ele>
        <time>2015-12-06T11:13:12.000Z</time>
      </trkpt>
      <trkpt lat="47.49558" lon="6.70505">
        <ele>407</ele>
        <time>2015-12-06T11:13:14.000Z</time>
      </trkpt>
      <trkpt lat="47.49559" lon="6.70509">
        <ele>407</ele>
        <time>2015-12-06T11:13:15.000Z</time>
      </trkpt>
      <trkpt lat="47.49561" lon="6.70512">
        <ele>407</ele>
        <time>2015-12-06T11:13:16.000Z</time>
      </trkpt>
      <trkpt lat="47.49562" lon="6.70515">
        <ele>407</ele>
        <time>2015-12-06T11:13:17.000Z</time>
      </trkpt>
      <trkpt lat="47.49564" lon="6.70518">
        <ele>407</ele>
        <time>2015-12-06T11:13:18.000Z</time>
      </trkpt>
      <trkpt lat="47.49565" lon="6.70522">
        <ele>408</ele>
        <time>2015-12-06T11:13:19.000Z</time>
      </trkpt>
      <trkpt lat="47.49567" lon="6.70526">
        <ele>408</ele>
        <time>2015-12-06T11:13:20.000Z</time>
      </trkpt>
      <trkpt lat="47.49568" lon="6.7053">
        <ele>408</ele>
        <time>2015-12-06T11:13:21.000Z</time>
      </trkpt>
      <trkpt lat="47.49569" lon="6.70533">
        <ele>409</ele>
        <time>2015-12-06T11:13:22.000Z</time>
      </trkpt>
      <trkpt lat="47.49569" lon="6.70536">
        <ele>409</ele>
        <time>2015-12-06T11:13:23.000Z</time>
      </trkpt>
      <trkpt lat="47.49569" lon="6.70542">
        <ele>409</ele>
        <time>2015-12-06T11:13:25.000Z</time>
      </trkpt>
      <trkpt lat="47.4957" lon="6.70545">
        <ele>410</ele>
        <time>2015-12-06T11:13:26.000Z</time>
      </trkpt>
      <trkpt lat="47.49572" lon="6.7055">
        <ele>410</ele>
        <time>2015-12-06T11:13:28.000Z</time>
      </trkpt>
      <trkpt lat="47.49573" lon="6.70553">
        <ele>410</ele>
        <time>2015-12-06T11:13:29.000Z</time>
      </trkpt>
      <trkpt lat="47.49574" lon="6.70556">
        <ele>410</ele>
        <time>2015-12-06T11:13:30.000Z</time>
      </trkpt>
      <trkpt lat="47.49575" lon="6.70559">
        <ele>410</ele>
        <time>2015-12-06T11:13:31.000Z</time>
      </trkpt>
      <trkpt lat="47.49576" lon="6.70562">
        <ele>410</ele>
        <time>2015-12-06T11:13:32.000Z</time>
      </trkpt>
      <trkpt lat="47.49578" lon="6.70565">
        <ele>410</ele>
        <time>2015-12-06T11:13:33.000Z</time>
      </trkpt>
      <trkpt lat="47.49579" lon="6.70571">
        <ele>409</ele>
        <time>2015-12-06T11:13:35.000Z</time>
      </trkpt>
      <trkpt lat="47.49579" lon="6.70574">
        <ele>409</ele>
        <time>2015-12-06T11:13:36.000Z</time>
      </trkpt>
      <trkpt lat="47.4958" lon="6.7058">
        <ele>409</ele>
        <time>2015-12-06T11:13:38.000Z</time>
      </trkpt>
      <trkpt lat="47.49581" lon="6.70582">
        <ele>408</ele>
        <time>2015-12-06T11:13:39.000Z</time>
      </trkpt>
      <trkpt lat="47.49582" lon="6.70585">
        <ele>409</ele>
        <time>2015-12-06T11:13:40.000Z</time>
      </trkpt>
      <trkpt lat="47.49583" lon="6.70589">
        <ele>410</ele>
        <time>2015-12-06T11:13:41.000Z</time>
      </trkpt>
      <trkpt lat="47.49584" lon="6.70592">
        <ele>406</ele>
        <time>2015-12-06T11:13:42.000Z</time>
      </trkpt>
      <trkpt lat="47.49585" lon="6.70595">
        <ele>405</ele>
        <time>2015-12-06T11:13:43.000Z</time>
      </trkpt>
      <trkpt lat="47.49587" lon="6.70598">
        <ele>405</ele>
        <time>2015-12-06T11:13:44.000Z</time>
      </trkpt>
      <trkpt lat="47.49588" lon="6.70601">
        <ele>405</ele>
        <time>2015-12-06T11:13:45.000Z</time>
      </trkpt>
      <trkpt lat="47.49589" lon="6.70603">
        <ele>404</ele>
        <time>2015-12-06T11:13:46.000Z</time>
      </trkpt>
      <trkpt lat="47.49591" lon="6.70606">
        <ele>404</ele>
        <time>2015-12-06T11:13:47.000Z</time>
      </trkpt>
      <trkpt lat="47.49593" lon="6.70609">
        <ele>404</ele>
        <time>2015-12-06T11:13:48.000Z</time>
      </trkpt>
      <trkpt lat="47.49594" lon="6.70612">
        <ele>404</ele>
        <time>2015-12-06T11:13:49.000Z</time>
      </trkpt>
      <trkpt lat="47.49596" lon="6.70618">
        <ele>404</ele>
        <time>2015-12-06T11:13:51.000Z</time>
      </trkpt>
      <trkpt lat="47.49597" lon="6.70621">
        <ele>404</ele>
        <time>2015-12-06T11:13:52.000Z</time>
      </trkpt>
      <trkpt lat="47.49598" lon="6.70624">
        <ele>404</ele>
        <time>2015-12-06T11:13:53.000Z</time>
      </trkpt>
      <trkpt lat="47.49599" lon="6.70627">
        <ele>404</ele>
        <time>2015-12-06T11:13:54.000Z</time>
      </trkpt>
      <trkpt lat="47.49601" lon="6.7063">
        <ele>404</ele>
        <time>2015-12-06T11:13:55.000Z</time>
      </trkpt>
      <trkpt lat="47.49603" lon="6.70634">
        <ele>404</ele>
        <time>2015-12-06T11:13:56.000Z</time>
      </trkpt>
      <trkpt lat="47.49605" lon="6.70638">
        <ele>404</ele>
        <time>2015-12-06T11:13:57.000Z</time>
      </trkpt>
      <trkpt lat="47.49607" lon="6.70642">
        <ele>404</ele>
        <time>2015-12-06T11:13:58.000Z</time>
      </trkpt>
      <trkpt lat="47.49609" lon="6.70645">
        <ele>404</ele>
        <time>2015-12-06T11:13:59.000Z</time>
      </trkpt>
      <trkpt lat="47.49611" lon="6.70649">
        <ele>404</ele>
        <time>2015-12-06T11:14:00.000Z</time>
      </trkpt>
      <trkpt lat="47.49611" lon="6.70653">
        <ele>404</ele>
        <time>2015-12-06T11:14:01.000Z</time>
      </trkpt>
      <trkpt lat="47.49612" lon="6.70656">
        <ele>404</ele>
        <time>2015-12-06T11:14:02.000Z</time>
      </trkpt>
      <trkpt lat="47.49612" lon="6.7066">
        <ele>404</ele>
        <time>2015-12-06T11:14:03.000Z</time>
      </trkpt>
      <trkpt lat="47.49613" lon="6.70663">
        <ele>404</ele>
        <time>2015-12-06T11:14:04.001Z</time>
      </trkpt>
      <trkpt lat="47.49614" lon="6.70669">
        <ele>408</ele>
        <time>2015-12-06T11:14:06.000Z</time>
      </trkpt>
      <trkpt lat="47.49614" lon="6.70672">
        <ele>408</ele>
        <time>2015-12-06T11:14:07.001Z</time>
      </trkpt>
      <trkpt lat="47.49614" lon="6.70675">
        <ele>408</ele>
        <time>2015-12-06T11:14:08.000Z</time>
      </trkpt>
      <trkpt lat="47.49615" lon="6.70679">
        <ele>408</ele>
        <time>2015-12-06T11:14:09.000Z</time>
      </trkpt>
      <trkpt lat="47.49616" lon="6.70685">
        <ele>408</ele>
        <time>2015-12-06T11:14:11.000Z</time>
      </trkpt>
      <trkpt lat="47.49617" lon="6.70685">
        <ele>408</ele>
        <time>2015-12-06T11:14:12.000Z</time>
      </trkpt>
      <trkpt lat="47.49622" lon="6.70687">
        <ele>407</ele>
        <time>2015-12-06T11:14:29.000Z</time>
      </trkpt>
      <trkpt lat="47.49622" lon="6.70687">
        <ele>407</ele>
        <time>2015-12-06T11:14:30.000Z</time>
      </trkpt>
      <trkpt lat="47.49625" lon="6.70691">
        <ele>407</ele>
        <time>2015-12-06T11:15:25.000Z</time>
      </trkpt>
      <trkpt lat="47.49627" lon="6.70693">
        <ele>406</ele>
        <time>2015-12-06T11:15:26.000Z</time>
      </trkpt>
      <trkpt lat="47.49631" lon="6.70695">
        <ele>406</ele>
        <time>2015-12-06T11:15:27.000Z</time>
      </trkpt>
      <trkpt lat="47.49634" lon="6.70698">
        <ele>405</ele>
        <time>2015-12-06T11:15:28.000Z</time>
      </trkpt>
      <trkpt lat="47.49638" lon="6.70699">
        <ele>405</ele>
        <time>2015-12-06T11:15:29.000Z</time>
      </trkpt>
      <trkpt lat="47.49642" lon="6.707">
        <ele>404</ele>
        <time>2015-12-06T11:15:30.000Z</time>
      </trkpt>
      <trkpt lat="47.49646" lon="6.70701">
        <ele>404</ele>
        <time>2015-12-06T11:15:31.000Z</time>
      </trkpt>
      <trkpt lat="47.49649" lon="6.70701">
        <ele>404</ele>
        <time>2015-12-06T11:15:32.000Z</time>
      </trkpt>
      <trkpt lat="47.49652" lon="6.70698">
        <ele>403</ele>
        <time>2015-12-06T11:15:35.000Z</time>
      </trkpt>
      <trkpt lat="47.49653" lon="6.70696">
        <ele>403</ele>
        <time>2015-12-06T11:15:36.000Z</time>
      </trkpt>
      <trkpt lat="47.49655" lon="6.70694">
        <ele>402</ele>
        <time>2015-12-06T11:15:38.000Z</time>
      </trkpt>
      <trkpt lat="47.49657" lon="6.70694">
        <ele>402</ele>
        <time>2015-12-06T11:15:39.000Z</time>
      </trkpt>
      <trkpt lat="47.49661" lon="6.70695">
        <ele>402</ele>
        <time>2015-12-06T11:15:41.000Z</time>
      </trkpt>
      <trkpt lat="47.49663" lon="6.70696">
        <ele>402</ele>
        <time>2015-12-06T11:15:42.000Z</time>
      </trkpt>
      <trkpt lat="47.49665" lon="6.70696">
        <ele>401</ele>
        <time>2015-12-06T11:15:43.000Z</time>
      </trkpt>
      <trkpt lat="47.49669" lon="6.70694">
        <ele>390</ele>
        <time>2015-12-06T11:15:44.000Z</time>
      </trkpt>
      <trkpt lat="47.49673" lon="6.70692">
        <ele>389</ele>
        <time>2015-12-06T11:15:45.000Z</time>
      </trkpt>
      <trkpt lat="47.49686" lon="6.70686">
        <ele>389</ele>
        <time>2015-12-06T11:15:46.000Z</time>
      </trkpt>
      <trkpt lat="47.49692" lon="6.70685">
        <ele>388</ele>
        <time>2015-12-06T11:15:47.000Z</time>
      </trkpt>
      <trkpt lat="47.49699" lon="6.70684">
        <ele>387</ele>
        <time>2015-12-06T11:15:48.000Z</time>
      </trkpt>
      <trkpt lat="47.49707" lon="6.7068">
        <ele>386</ele>
        <time>2015-12-06T11:15:49.000Z</time>
      </trkpt>
      <trkpt lat="47.49715" lon="6.70677">
        <ele>385</ele>
        <time>2015-12-06T11:15:50.000Z</time>
      </trkpt>
      <trkpt lat="47.49721" lon="6.70673">
        <ele>384</ele>
        <time>2015-12-06T11:15:51.000Z</time>
      </trkpt>
      <trkpt lat="47.49728" lon="6.70669">
        <ele>383</ele>
        <time>2015-12-06T11:15:52.000Z</time>
      </trkpt>
      <trkpt lat="47.49734" lon="6.70666">
        <ele>380</ele>
        <time>2015-12-06T11:15:53.000Z</time>
      </trkpt>
      <trkpt lat="47.4974" lon="6.70662">
        <ele>379</ele>
        <time>2015-12-06T11:15:54.000Z</time>
      </trkpt>
      <trkpt lat="47.49745" lon="6.70658">
        <ele>379</ele>
        <time>2015-12-06T11:15:55.000Z</time>
      </trkpt>
      <trkpt lat="47.49751" lon="6.70654">
        <ele>376</ele>
        <time>2015-12-06T11:15:56.001Z</time>
      </trkpt>
      <trkpt lat="47.49756" lon="6.70651">
        <ele>376</ele>
        <time>2015-12-06T11:15:57.000Z</time>
      </trkpt>
      <trkpt lat="47.49763" lon="6.70647">
        <ele>376</ele>
        <time>2015-12-06T11:15:58.000Z</time>
      </trkpt>
      <trkpt lat="47.49768" lon="6.70644">
        <ele>375</ele>
        <time>2015-12-06T11:15:59.000Z</time>
      </trkpt>
      <trkpt lat="47.49773" lon="6.70639">
        <ele>375</ele>
        <time>2015-12-06T11:16:00.000Z</time>
      </trkpt>
      <trkpt lat="47.49779" lon="6.70635">
        <ele>375</ele>
        <time>2015-12-06T11:16:01.000Z</time>
      </trkpt>
      <trkpt lat="47.49784" lon="6.70631">
        <ele>375</ele>
        <time>2015-12-06T11:16:02.000Z</time>
      </trkpt>
      <trkpt lat="47.4979" lon="6.70628">
        <ele>375</ele>
        <time>2015-12-06T11:16:03.000Z</time>
      </trkpt>
      <trkpt lat="47.49796" lon="6.70624">
        <ele>375</ele>
        <time>2015-12-06T11:16:04.000Z</time>
      </trkpt>
      <trkpt lat="47.498" lon="6.70619">
        <ele>375</ele>
        <time>2015-12-06T11:16:05.000Z</time>
      </trkpt>
      <trkpt lat="47.49805" lon="6.70615">
        <ele>374</ele>
        <time>2015-12-06T11:16:06.000Z</time>
      </trkpt>
      <trkpt lat="47.4981" lon="6.70613">
        <ele>374</ele>
        <time>2015-12-06T11:16:07.000Z</time>
      </trkpt>
      <trkpt lat="47.49815" lon="6.7061">
        <ele>374</ele>
        <time>2015-12-06T11:16:08.000Z</time>
      </trkpt>
      <trkpt lat="47.49819" lon="6.70608">
        <ele>374</ele>
        <time>2015-12-06T11:16:08.999Z</time>
      </trkpt>
      <trkpt lat="47.49822" lon="6.70601">
        <ele>374</ele>
        <time>2015-12-06T11:16:10.000Z</time>
      </trkpt>
      <trkpt lat="47.49827" lon="6.70597">
        <ele>374</ele>
        <time>2015-12-06T11:16:11.000Z</time>
      </trkpt>
      <trkpt lat="47.4983" lon="6.70593">
        <ele>374</ele>
        <time>2015-12-06T11:16:12.000Z</time>
      </trkpt>
      <trkpt lat="47.49833" lon="6.70589">
        <ele>373</ele>
        <time>2015-12-06T11:16:13.000Z</time>
      </trkpt>
      <trkpt lat="47.49835" lon="6.70584">
        <ele>373</ele>
        <time>2015-12-06T11:16:14.000Z</time>
      </trkpt>
      <trkpt lat="47.49838" lon="6.70578">
        <ele>373</ele>
        <time>2015-12-06T11:16:15.000Z</time>
      </trkpt>
      <trkpt lat="47.49841" lon="6.70575">
        <ele>373</ele>
        <time>2015-12-06T11:16:16.000Z</time>
      </trkpt>
      <trkpt lat="47.49844" lon="6.70571">
        <ele>374</ele>
        <time>2015-12-06T11:16:17.000Z</time>
      </trkpt>
      <trkpt lat="47.49847" lon="6.70567">
        <ele>374</ele>
        <time>2015-12-06T11:16:18.000Z</time>
      </trkpt>
      <trkpt lat="47.4985" lon="6.70563">
        <ele>374</ele>
        <time>2015-12-06T11:16:19.000Z</time>
      </trkpt>
      <trkpt lat="47.49854" lon="6.70559">
        <ele>374</ele>
        <time>2015-12-06T11:16:20.000Z</time>
      </trkpt>
      <trkpt lat="47.49857" lon="6.70555">
        <ele>374</ele>
        <time>2015-12-06T11:16:21.000Z</time>
      </trkpt>
      <trkpt lat="47.49859" lon="6.70548">
        <ele>374</ele>
        <time>2015-12-06T11:16:22.000Z</time>
      </trkpt>
      <trkpt lat="47.49862" lon="6.70542">
        <ele>374</ele>
        <time>2015-12-06T11:16:23.000Z</time>
      </trkpt>
      <trkpt lat="47.49866" lon="6.70538">
        <ele>374</ele>
        <time>2015-12-06T11:16:23.999Z</time>
      </trkpt>
      <trkpt lat="47.49869" lon="6.70532">
        <ele>374</ele>
        <time>2015-12-06T11:16:25.000Z</time>
      </trkpt>
      <trkpt lat="47.49872" lon="6.70526">
        <ele>374</ele>
        <time>2015-12-06T11:16:26.000Z</time>
      </trkpt>
      <trkpt lat="47.49875" lon="6.70521">
        <ele>374</ele>
        <time>2015-12-06T11:16:27.000Z</time>
      </trkpt>
      <trkpt lat="47.49878" lon="6.70515">
        <ele>374</ele>
        <time>2015-12-06T11:16:28.000Z</time>
      </trkpt>
      <trkpt lat="47.49882" lon="6.7051">
        <ele>374</ele>
        <time>2015-12-06T11:16:29.000Z</time>
      </trkpt>
      <trkpt lat="47.49886" lon="6.70507">
        <ele>374</ele>
        <time>2015-12-06T11:16:30.000Z</time>
      </trkpt>
      <trkpt lat="47.49889" lon="6.70504">
        <ele>374</ele>
        <time>2015-12-06T11:16:31.000Z</time>
      </trkpt>
      <trkpt lat="47.49893" lon="6.70501">
        <ele>374</ele>
        <time>2015-12-06T11:16:32.000Z</time>
      </trkpt>
      <trkpt lat="47.49898" lon="6.70509">
        <ele>375</ele>
        <time>2015-12-06T11:16:34.000Z</time>
      </trkpt>
      <trkpt lat="47.49899" lon="6.70515">
        <ele>375</ele>
        <time>2015-12-06T11:16:35.000Z</time>
      </trkpt>
      <trkpt lat="47.49898" lon="6.70521">
        <ele>375</ele>
        <time>2015-12-06T11:16:36.000Z</time>
      </trkpt>
      <trkpt lat="47.49898" lon="6.70527">
        <ele>375</ele>
        <time>2015-12-06T11:16:37.000Z</time>
      </trkpt>
      <trkpt lat="47.49897" lon="6.70533">
        <ele>375</ele>
        <time>2015-12-06T11:16:38.000Z</time>
      </trkpt>
      <trkpt lat="47.49897" lon="6.70541">
        <ele>375</ele>
        <time>2015-12-06T11:16:39.000Z</time>
      </trkpt>
      <trkpt lat="47.49897" lon="6.70549">
        <ele>375</ele>
        <time>2015-12-06T11:16:40.000Z</time>
      </trkpt>
      <trkpt lat="47.49897" lon="6.70558">
        <ele>375</ele>
        <time>2015-12-06T11:16:41.000Z</time>
      </trkpt>
      <trkpt lat="47.49897" lon="6.70566">
        <ele>375</ele>
        <time>2015-12-06T11:16:42.000Z</time>
      </trkpt>
      <trkpt lat="47.49897" lon="6.70575">
        <ele>375</ele>
        <time>2015-12-06T11:16:43.000Z</time>
      </trkpt>
      <trkpt lat="47.49897" lon="6.70584">
        <ele>375</ele>
        <time>2015-12-06T11:16:44.000Z</time>
      </trkpt>
      <trkpt lat="47.49897" lon="6.70592">
        <ele>375</ele>
        <time>2015-12-06T11:16:45.000Z</time>
      </trkpt>
      <trkpt lat="47.49897" lon="6.70601">
        <ele>375</ele>
        <time>2015-12-06T11:16:46.000Z</time>
      </trkpt>
      <trkpt lat="47.49897" lon="6.70608">
        <ele>375</ele>
        <time>2015-12-06T11:16:47.000Z</time>
      </trkpt>
      <trkpt lat="47.49897" lon="6.70615">
        <ele>375</ele>
        <time>2015-12-06T11:16:48.000Z</time>
      </trkpt>
      <trkpt lat="47.49897" lon="6.70624">
        <ele>375</ele>
        <time>2015-12-06T11:16:49.000Z</time>
      </trkpt>
      <trkpt lat="47.49897" lon="6.70631">
        <ele>375</ele>
        <time>2015-12-06T11:16:50.000Z</time>
      </trkpt>
      <trkpt lat="47.49898" lon="6.70639">
        <ele>376</ele>
        <time>2015-12-06T11:16:51.000Z</time>
      </trkpt>
      <trkpt lat="47.49898" lon="6.70646">
        <ele>376</ele>
        <time>2015-12-06T11:16:52.000Z</time>
      </trkpt>
      <trkpt lat="47.49899" lon="6.70654">
        <ele>376</ele>
        <time>2015-12-06T11:16:53.000Z</time>
      </trkpt>
      <trkpt lat="47.49899" lon="6.70662">
        <ele>376</ele>
        <time>2015-12-06T11:16:54.000Z</time>
      </trkpt>
      <trkpt lat="47.499" lon="6.7067">
        <ele>376</ele>
        <time>2015-12-06T11:16:55.000Z</time>
      </trkpt>
      <trkpt lat="47.499" lon="6.70678">
        <ele>376</ele>
        <time>2015-12-06T11:16:56.000Z</time>
      </trkpt>
      <trkpt lat="47.49901" lon="6.70687">
        <ele>376</ele>
        <time>2015-12-06T11:16:57.000Z</time>
      </trkpt>
      <trkpt lat="47.49901" lon="6.70697">
        <ele>376</ele>
        <time>2015-12-06T11:16:58.000Z</time>
      </trkpt>
      <trkpt lat="47.49901" lon="6.70708">
        <ele>376</ele>
        <time>2015-12-06T11:16:59.000Z</time>
      </trkpt>
      <trkpt lat="47.49901" lon="6.70718">
        <ele>376</ele>
        <time>2015-12-06T11:17:00.000Z</time>
      </trkpt>
      <trkpt lat="47.49901" lon="6.7073">
        <ele>376</ele>
        <time>2015-12-06T11:17:01.000Z</time>
      </trkpt>
      <trkpt lat="47.49902" lon="6.70741">
        <ele>376</ele>
        <time>2015-12-06T11:17:02.000Z</time>
      </trkpt>
      <trkpt lat="47.49902" lon="6.70753">
        <ele>376</ele>
        <time>2015-12-06T11:17:03.000Z</time>
      </trkpt>
      <trkpt lat="47.49903" lon="6.70765">
        <ele>376</ele>
        <time>2015-12-06T11:17:04.000Z</time>
      </trkpt>
      <trkpt lat="47.49904" lon="6.70776">
        <ele>376</ele>
        <time>2015-12-06T11:17:05.000Z</time>
      </trkpt>
      <trkpt lat="47.49904" lon="6.70786">
        <ele>376</ele>
        <time>2015-12-06T11:17:06.000Z</time>
      </trkpt>
      <trkpt lat="47.49904" lon="6.70797">
        <ele>376</ele>
        <time>2015-12-06T11:17:07.000Z</time>
      </trkpt>
      <trkpt lat="47.49903" lon="6.70807">
        <ele>376</ele>
        <time>2015-12-06T11:17:08.000Z</time>
      </trkpt>
      <trkpt lat="47.49904" lon="6.70818">
        <ele>376</ele>
        <time>2015-12-06T11:17:09.000Z</time>
      </trkpt>
      <trkpt lat="47.49904" lon="6.70828">
        <ele>375</ele>
        <time>2015-12-06T11:17:10.000Z</time>
      </trkpt>
      <trkpt lat="47.49903" lon="6.70838">
        <ele>375</ele>
        <time>2015-12-06T11:17:11.000Z</time>
      </trkpt>
      <trkpt lat="47.49902" lon="6.70848">
        <ele>375</ele>
        <time>2015-12-06T11:17:12.000Z</time>
      </trkpt>
      <trkpt lat="47.49901" lon="6.70858">
        <ele>375</ele>
        <time>2015-12-06T11:17:13.000Z</time>
      </trkpt>
      <trkpt lat="47.499" lon="6.70868">
        <ele>375</ele>
        <time>2015-12-06T11:17:14.000Z</time>
      </trkpt>
      <trkpt lat="47.499" lon="6.70878">
        <ele>374</ele>
        <time>2015-12-06T11:17:15.000Z</time>
      </trkpt>
      <trkpt lat="47.49899" lon="6.70889">
        <ele>374</ele>
        <time>2015-12-06T11:17:16.000Z</time>
      </trkpt>
      <trkpt lat="47.49898" lon="6.70901">
        <ele>374</ele>
        <time>2015-12-06T11:17:17.000Z</time>
      </trkpt>
      <trkpt lat="47.49897" lon="6.70912">
        <ele>374</ele>
        <time>2015-12-06T11:17:18.000Z</time>
      </trkpt>
      <trkpt lat="47.49897" lon="6.70923">
        <ele>373</ele>
        <time>2015-12-06T11:17:19.000Z</time>
      </trkpt>
      <trkpt lat="47.49896" lon="6.70936">
        <ele>373</ele>
        <time>2015-12-06T11:17:20.000Z</time>
      </trkpt>
      <trkpt lat="47.49895" lon="6.70949">
        <ele>373</ele>
        <time>2015-12-06T11:17:21.000Z</time>
      </trkpt>
      <trkpt lat="47.49895" lon="6.70961">
        <ele>373</ele>
        <time>2015-12-06T11:17:21.999Z</time>
      </trkpt>
      <trkpt lat="47.49894" lon="6.70974">
        <ele>373</ele>
        <time>2015-12-06T11:17:23.000Z</time>
      </trkpt>
      <trkpt lat="47.49893" lon="6.70987">
        <ele>373</ele>
        <time>2015-12-06T11:17:24.000Z</time>
      </trkpt>
      <trkpt lat="47.49892" lon="6.70998">
        <ele>372</ele>
        <time>2015-12-06T11:17:25.000Z</time>
      </trkpt>
      <trkpt lat="47.49891" lon="6.71012">
        <ele>372</ele>
        <time>2015-12-06T11:17:26.000Z</time>
      </trkpt>
      <trkpt lat="47.4989" lon="6.71024">
        <ele>372</ele>
        <time>2015-12-06T11:17:27.000Z</time>
      </trkpt>
      <trkpt lat="47.49889" lon="6.71035">
        <ele>372</ele>
        <time>2015-12-06T11:17:28.000Z</time>
      </trkpt>
      <trkpt lat="47.49889" lon="6.71047">
        <ele>372</ele>
        <time>2015-12-06T11:17:29.000Z</time>
      </trkpt>
      <trkpt lat="47.49888" lon="6.71059">
        <ele>371</ele>
        <time>2015-12-06T11:17:30.000Z</time>
      </trkpt>
      <trkpt lat="47.49889" lon="6.7107">
        <ele>371</ele>
        <time>2015-12-06T11:17:31.000Z</time>
      </trkpt>
      <trkpt lat="47.4989" lon="6.71082">
        <ele>371</ele>
        <time>2015-12-06T11:17:32.000Z</time>
      </trkpt>
      <trkpt lat="47.49892" lon="6.71093">
        <ele>371</ele>
        <time>2015-12-06T11:17:33.000Z</time>
      </trkpt>
      <trkpt lat="47.49892" lon="6.71103">
        <ele>371</ele>
        <time>2015-12-06T11:17:34.000Z</time>
      </trkpt>
      <trkpt lat="47.49892" lon="6.71114">
        <ele>371</ele>
        <time>2015-12-06T11:17:35.000Z</time>
      </trkpt>
      <trkpt lat="47.49892" lon="6.71124">
        <ele>371</ele>
        <time>2015-12-06T11:17:36.000Z</time>
      </trkpt>
      <trkpt lat="47.49893" lon="6.71134">
        <ele>371</ele>
        <time>2015-12-06T11:17:37.000Z</time>
      </trkpt>
      <trkpt lat="47.49894" lon="6.71143">
        <ele>370</ele>
        <time>2015-12-06T11:17:38.000Z</time>
      </trkpt>
      <trkpt lat="47.49894" lon="6.71152">
        <ele>370</ele>
        <time>2015-12-06T11:17:39.000Z</time>
      </trkpt>
      <trkpt lat="47.49895" lon="6.71161">
        <ele>370</ele>
        <time>2015-12-06T11:17:40.000Z</time>
      </trkpt>
      <trkpt lat="47.49896" lon="6.7117">
        <ele>370</ele>
        <time>2015-12-06T11:17:40.999Z</time>
      </trkpt>
      <trkpt lat="47.49896" lon="6.7118">
        <ele>370</ele>
        <time>2015-12-06T11:17:42.000Z</time>
      </trkpt>
      <trkpt lat="47.49896" lon="6.7119">
        <ele>370</ele>
        <time>2015-12-06T11:17:43.000Z</time>
      </trkpt>
      <trkpt lat="47.49896" lon="6.712">
        <ele>371</ele>
        <time>2015-12-06T11:17:44.000Z</time>
      </trkpt>
      <trkpt lat="47.49897" lon="6.7121">
        <ele>371</ele>
        <time>2015-12-06T11:17:45.000Z</time>
      </trkpt>
      <trkpt lat="47.49897" lon="6.71221">
        <ele>371</ele>
        <time>2015-12-06T11:17:46.000Z</time>
      </trkpt>
      <trkpt lat="47.49897" lon="6.7123">
        <ele>370</ele>
        <time>2015-12-06T11:17:47.000Z</time>
      </trkpt>
      <trkpt lat="47.49897" lon="6.7124">
        <ele>370</ele>
        <time>2015-12-06T11:17:48.000Z</time>
      </trkpt>
      <trkpt lat="47.49898" lon="6.71252">
        <ele>370</ele>
        <time>2015-12-06T11:17:49.000Z</time>
      </trkpt>
      <trkpt lat="47.49899" lon="6.71263">
        <ele>370</ele>
        <time>2015-12-06T11:17:50.000Z</time>
      </trkpt>
      <trkpt lat="47.499" lon="6.71273">
        <ele>370</ele>
        <time>2015-12-06T11:17:51.000Z</time>
      </trkpt>
      <trkpt lat="47.49901" lon="6.71283">
        <ele>370</ele>
        <time>2015-12-06T11:17:52.000Z</time>
      </trkpt>
      <trkpt lat="47.49903" lon="6.71295">
        <ele>370</ele>
        <time>2015-12-06T11:17:53.000Z</time>
      </trkpt>
      <trkpt lat="47.49902" lon="6.71306">
        <ele>370</ele>
        <time>2015-12-06T11:17:54.000Z</time>
      </trkpt>
      <trkpt lat="47.49903" lon="6.71317">
        <ele>369</ele>
        <time>2015-12-06T11:17:55.000Z</time>
      </trkpt>
      <trkpt lat="47.49903" lon="6.7133">
        <ele>369</ele>
        <time>2015-12-06T11:17:56.000Z</time>
      </trkpt>
      <trkpt lat="47.49903" lon="6.71342">
        <ele>368</ele>
        <time>2015-12-06T11:17:57.000Z</time>
      </trkpt>
      <trkpt lat="47.49903" lon="6.71354">
        <ele>369</ele>
        <time>2015-12-06T11:17:58.000Z</time>
      </trkpt>
      <trkpt lat="47.49904" lon="6.71366">
        <ele>369</ele>
        <time>2015-12-06T11:17:59.000Z</time>
      </trkpt>
      <trkpt lat="47.49905" lon="6.71378">
        <ele>369</ele>
        <time>2015-12-06T11:18:00.000Z</time>
      </trkpt>
      <trkpt lat="47.49904" lon="6.71389">
        <ele>369</ele>
        <time>2015-12-06T11:18:01.000Z</time>
      </trkpt>
      <trkpt lat="47.49903" lon="6.71401">
        <ele>368</ele>
        <time>2015-12-06T11:18:02.000Z</time>
      </trkpt>
      <trkpt lat="47.49904" lon="6.71413">
        <ele>367</ele>
        <time>2015-12-06T11:18:03.000Z</time>
      </trkpt>
      <trkpt lat="47.49903" lon="6.71424">
        <ele>367</ele>
        <time>2015-12-06T11:18:04.000Z</time>
      </trkpt>
      <trkpt lat="47.49902" lon="6.71435">
        <ele>367</ele>
        <time>2015-12-06T11:18:05.000Z</time>
      </trkpt>
      <trkpt lat="47.49902" lon="6.71446">
        <ele>367</ele>
        <time>2015-12-06T11:18:06.000Z</time>
      </trkpt>
      <trkpt lat="47.49902" lon="6.71458">
        <ele>367</ele>
        <time>2015-12-06T11:18:07.000Z</time>
      </trkpt>
      <trkpt lat="47.49901" lon="6.71469">
        <ele>367</ele>
        <time>2015-12-06T11:18:08.000Z</time>
      </trkpt>
      <trkpt lat="47.499" lon="6.71481">
        <ele>366</ele>
        <time>2015-12-06T11:18:09.000Z</time>
      </trkpt>
      <trkpt lat="47.49899" lon="6.71492">
        <ele>365</ele>
        <time>2015-12-06T11:18:10.000Z</time>
      </trkpt>
      <trkpt lat="47.49898" lon="6.71504">
        <ele>364</ele>
        <time>2015-12-06T11:18:11.000Z</time>
      </trkpt>
      <trkpt lat="47.49897" lon="6.71517">
        <ele>365</ele>
        <time>2015-12-06T11:18:12.000Z</time>
      </trkpt>
      <trkpt lat="47.49896" lon="6.7153">
        <ele>365</ele>
        <time>2015-12-06T11:18:12.999Z</time>
      </trkpt>
      <trkpt lat="47.49896" lon="6.71542">
        <ele>365</ele>
        <time>2015-12-06T11:18:14.000Z</time>
      </trkpt>
      <trkpt lat="47.49896" lon="6.71554">
        <ele>365</ele>
        <time>2015-12-06T11:18:15.000Z</time>
      </trkpt>
      <trkpt lat="47.49895" lon="6.71567">
        <ele>365</ele>
        <time>2015-12-06T11:18:16.000Z</time>
      </trkpt>
      <trkpt lat="47.49895" lon="6.71579">
        <ele>364</ele>
        <time>2015-12-06T11:18:17.000Z</time>
      </trkpt>
      <trkpt lat="47.49896" lon="6.71591">
        <ele>364</ele>
        <time>2015-12-06T11:18:18.000Z</time>
      </trkpt>
      <trkpt lat="47.49896" lon="6.71602">
        <ele>364</ele>
        <time>2015-12-06T11:18:19.000Z</time>
      </trkpt>
      <trkpt lat="47.49896" lon="6.71613">
        <ele>364</ele>
        <time>2015-12-06T11:18:20.000Z</time>
      </trkpt>
      <trkpt lat="47.49897" lon="6.71625">
        <ele>364</ele>
        <time>2015-12-06T11:18:21.000Z</time>
      </trkpt>
      <trkpt lat="47.49899" lon="6.71636">
        <ele>364</ele>
        <time>2015-12-06T11:18:22.000Z</time>
      </trkpt>
      <trkpt lat="47.49901" lon="6.71647">
        <ele>364</ele>
        <time>2015-12-06T11:18:23.000Z</time>
      </trkpt>
      <trkpt lat="47.49903" lon="6.71658">
        <ele>363</ele>
        <time>2015-12-06T11:18:24.000Z</time>
      </trkpt>
      <trkpt lat="47.49905" lon="6.71668">
        <ele>362</ele>
        <time>2015-12-06T11:18:25.000Z</time>
      </trkpt>
      <trkpt lat="47.49907" lon="6.7168">
        <ele>362</ele>
        <time>2015-12-06T11:18:26.000Z</time>
      </trkpt>
      <trkpt lat="47.49908" lon="6.71692">
        <ele>363</ele>
        <time>2015-12-06T11:18:27.000Z</time>
      </trkpt>
      <trkpt lat="47.49908" lon="6.71702">
        <ele>363</ele>
        <time>2015-12-06T11:18:28.000Z</time>
      </trkpt>
      <trkpt lat="47.49909" lon="6.71713">
        <ele>363</ele>
        <time>2015-12-06T11:18:29.000Z</time>
      </trkpt>
      <trkpt lat="47.49911" lon="6.71726">
        <ele>362</ele>
        <time>2015-12-06T11:18:29.999Z</time>
      </trkpt>
      <trkpt lat="47.49912" lon="6.71738">
        <ele>362</ele>
        <time>2015-12-06T11:18:31.001Z</time>
      </trkpt>
      <trkpt lat="47.49914" lon="6.71748">
        <ele>360</ele>
        <time>2015-12-06T11:18:32.000Z</time>
      </trkpt>
      <trkpt lat="47.49915" lon="6.71757">
        <ele>361</ele>
        <time>2015-12-06T11:18:33.000Z</time>
      </trkpt>
      <trkpt lat="47.49915" lon="6.71771">
        <ele>361</ele>
        <time>2015-12-06T11:18:34.000Z</time>
      </trkpt>
      <trkpt lat="47.49916" lon="6.71781">
        <ele>361</ele>
        <time>2015-12-06T11:18:35.000Z</time>
      </trkpt>
      <trkpt lat="47.49917" lon="6.71793">
        <ele>360</ele>
        <time>2015-12-06T11:18:36.000Z</time>
      </trkpt>
      <trkpt lat="47.49919" lon="6.71803">
        <ele>360</ele>
        <time>2015-12-06T11:18:37.000Z</time>
      </trkpt>
      <trkpt lat="47.4992" lon="6.71816">
        <ele>360</ele>
        <time>2015-12-06T11:18:38.000Z</time>
      </trkpt>
      <trkpt lat="47.49921" lon="6.71827">
        <ele>360</ele>
        <time>2015-12-06T11:18:39.000Z</time>
      </trkpt>
      <trkpt lat="47.49923" lon="6.71839">
        <ele>360</ele>
        <time>2015-12-06T11:18:40.000Z</time>
      </trkpt>
      <trkpt lat="47.49923" lon="6.71851">
        <ele>359</ele>
        <time>2015-12-06T11:18:41.000Z</time>
      </trkpt>
      <trkpt lat="47.49924" lon="6.71863">
        <ele>359</ele>
        <time>2015-12-06T11:18:42.000Z</time>
      </trkpt>
      <trkpt lat="47.49926" lon="6.71874">
        <ele>359</ele>
        <time>2015-12-06T11:18:43.000Z</time>
      </trkpt>
      <trkpt lat="47.49926" lon="6.71886">
        <ele>359</ele>
        <time>2015-12-06T11:18:44.000Z</time>
      </trkpt>
      <trkpt lat="47.49927" lon="6.71897">
        <ele>359</ele>
        <time>2015-12-06T11:18:45.000Z</time>
      </trkpt>
      <trkpt lat="47.49929" lon="6.71909">
        <ele>359</ele>
        <time>2015-12-06T11:18:46.000Z</time>
      </trkpt>
      <trkpt lat="47.4993" lon="6.71921">
        <ele>358</ele>
        <time>2015-12-06T11:18:47.000Z</time>
      </trkpt>
      <trkpt lat="47.49932" lon="6.71932">
        <ele>358</ele>
        <time>2015-12-06T11:18:48.000Z</time>
      </trkpt>
      <trkpt lat="47.49934" lon="6.71945">
        <ele>358</ele>
        <time>2015-12-06T11:18:49.000Z</time>
      </trkpt>
      <trkpt lat="47.49935" lon="6.71956">
        <ele>358</ele>
        <time>2015-12-06T11:18:50.000Z</time>
      </trkpt>
      <trkpt lat="47.49937" lon="6.71969">
        <ele>358</ele>
        <time>2015-12-06T11:18:51.000Z</time>
      </trkpt>
      <trkpt lat="47.49938" lon="6.71981">
        <ele>358</ele>
        <time>2015-12-06T11:18:52.000Z</time>
      </trkpt>
      <trkpt lat="47.49939" lon="6.71992">
        <ele>358</ele>
        <time>2015-12-06T11:18:53.000Z</time>
      </trkpt>
      <trkpt lat="47.4994" lon="6.72003">
        <ele>357</ele>
        <time>2015-12-06T11:18:54.000Z</time>
      </trkpt>
      <trkpt lat="47.49941" lon="6.72014">
        <ele>357</ele>
        <time>2015-12-06T11:18:55.000Z</time>
      </trkpt>
      <trkpt lat="47.49943" lon="6.72027">
        <ele>356</ele>
        <time>2015-12-06T11:18:56.000Z</time>
      </trkpt>
      <trkpt lat="47.49943" lon="6.72038">
        <ele>356</ele>
        <time>2015-12-06T11:18:57.000Z</time>
      </trkpt>
      <trkpt lat="47.49944" lon="6.7205">
        <ele>356</ele>
        <time>2015-12-06T11:18:58.000Z</time>
      </trkpt>
      <trkpt lat="47.49946" lon="6.72062">
        <ele>356</ele>
        <time>2015-12-06T11:18:59.000Z</time>
      </trkpt>
      <trkpt lat="47.49945" lon="6.72075">
        <ele>356</ele>
        <time>2015-12-06T11:19:00.000Z</time>
      </trkpt>
      <trkpt lat="47.49945" lon="6.72087">
        <ele>355</ele>
        <time>2015-12-06T11:19:01.000Z</time>
      </trkpt>
      <trkpt lat="47.49945" lon="6.72101">
        <ele>355</ele>
        <time>2015-12-06T11:19:02.000Z</time>
      </trkpt>
      <trkpt lat="47.49942" lon="6.72112">
        <ele>354</ele>
        <time>2015-12-06T11:19:03.000Z</time>
      </trkpt>
      <trkpt lat="47.4994" lon="6.72123">
        <ele>354</ele>
        <time>2015-12-06T11:19:04.000Z</time>
      </trkpt>
      <trkpt lat="47.49938" lon="6.72136">
        <ele>354</ele>
        <time>2015-12-06T11:19:05.000Z</time>
      </trkpt>
      <trkpt lat="47.49935" lon="6.72145">
        <ele>354</ele>
        <time>2015-12-06T11:19:06.000Z</time>
      </trkpt>
      <trkpt lat="47.49933" lon="6.72154">
        <ele>354</ele>
        <time>2015-12-06T11:19:07.000Z</time>
      </trkpt>
      <trkpt lat="47.49929" lon="6.72166">
        <ele>354</ele>
        <time>2015-12-06T11:19:08.000Z</time>
      </trkpt>
      <trkpt lat="47.49927" lon="6.72177">
        <ele>353</ele>
        <time>2015-12-06T11:19:09.000Z</time>
      </trkpt>
      <trkpt lat="47.49925" lon="6.72188">
        <ele>353</ele>
        <time>2015-12-06T11:19:10.000Z</time>
      </trkpt>
      <trkpt lat="47.49923" lon="6.72199">
        <ele>353</ele>
        <time>2015-12-06T11:19:11.000Z</time>
      </trkpt>
      <trkpt lat="47.49921" lon="6.72212">
        <ele>353</ele>
        <time>2015-12-06T11:19:12.000Z</time>
      </trkpt>
      <trkpt lat="47.4992" lon="6.72222">
        <ele>352</ele>
        <time>2015-12-06T11:19:13.000Z</time>
      </trkpt>
      <trkpt lat="47.4992" lon="6.72234">
        <ele>352</ele>
        <time>2015-12-06T11:19:14.000Z</time>
      </trkpt>
      <trkpt lat="47.4992" lon="6.72244">
        <ele>351</ele>
        <time>2015-12-06T11:19:15.000Z</time>
      </trkpt>
      <trkpt lat="47.4992" lon="6.72254">
        <ele>351</ele>
        <time>2015-12-06T11:19:16.000Z</time>
      </trkpt>
      <trkpt lat="47.49921" lon="6.72265">
        <ele>351</ele>
        <time>2015-12-06T11:19:17.000Z</time>
      </trkpt>
      <trkpt lat="47.49922" lon="6.72275">
        <ele>351</ele>
        <time>2015-12-06T11:19:18.000Z</time>
      </trkpt>
      <trkpt lat="47.49922" lon="6.72286">
        <ele>351</ele>
        <time>2015-12-06T11:19:19.000Z</time>
      </trkpt>
      <trkpt lat="47.49922" lon="6.72295">
        <ele>351</ele>
        <time>2015-12-06T11:19:20.000Z</time>
      </trkpt>
      <trkpt lat="47.49922" lon="6.72306">
        <ele>351</ele>
        <time>2015-12-06T11:19:21.000Z</time>
      </trkpt>
      <trkpt lat="47.49921" lon="6.72317">
        <ele>351</ele>
        <time>2015-12-06T11:19:22.000Z</time>
      </trkpt>
      <trkpt lat="47.49921" lon="6.72328">
        <ele>350</ele>
        <time>2015-12-06T11:19:23.000Z</time>
      </trkpt>
      <trkpt lat="47.49921" lon="6.72339">
        <ele>350</ele>
        <time>2015-12-06T11:19:24.000Z</time>
      </trkpt>
      <trkpt lat="47.49921" lon="6.72349">
        <ele>350</ele>
        <time>2015-12-06T11:19:25.000Z</time>
      </trkpt>
      <trkpt lat="47.4992" lon="6.72359">
        <ele>350</ele>
        <time>2015-12-06T11:19:26.000Z</time>
      </trkpt>
      <trkpt lat="47.49919" lon="6.7237">
        <ele>349</ele>
        <time>2015-12-06T11:19:27.000Z</time>
      </trkpt>
      <trkpt lat="47.49918" lon="6.72379">
        <ele>349</ele>
        <time>2015-12-06T11:19:28.000Z</time>
      </trkpt>
      <trkpt lat="47.49918" lon="6.7239">
        <ele>349</ele>
        <time>2015-12-06T11:19:29.000Z</time>
      </trkpt>
      <trkpt lat="47.49917" lon="6.72401">
        <ele>348</ele>
        <time>2015-12-06T11:19:30.000Z</time>
      </trkpt>
      <trkpt lat="47.49917" lon="6.72411">
        <ele>348</ele>
        <time>2015-12-06T11:19:31.000Z</time>
      </trkpt>
      <trkpt lat="47.49917" lon="6.72421">
        <ele>347</ele>
        <time>2015-12-06T11:19:32.000Z</time>
      </trkpt>
      <trkpt lat="47.49917" lon="6.72433">
        <ele>347</ele>
        <time>2015-12-06T11:19:33.000Z</time>
      </trkpt>
      <trkpt lat="47.49916" lon="6.72443">
        <ele>348</ele>
        <time>2015-12-06T11:19:34.000Z</time>
      </trkpt>
      <trkpt lat="47.49917" lon="6.72454">
        <ele>347</ele>
        <time>2015-12-06T11:19:35.000Z</time>
      </trkpt>
      <trkpt lat="47.49918" lon="6.72464">
        <ele>347</ele>
        <time>2015-12-06T11:19:36.000Z</time>
      </trkpt>
      <trkpt lat="47.49919" lon="6.72475">
        <ele>347</ele>
        <time>2015-12-06T11:19:37.000Z</time>
      </trkpt>
      <trkpt lat="47.4992" lon="6.72487">
        <ele>347</ele>
        <time>2015-12-06T11:19:38.000Z</time>
      </trkpt>
      <trkpt lat="47.4992" lon="6.72497">
        <ele>346</ele>
        <time>2015-12-06T11:19:39.000Z</time>
      </trkpt>
      <trkpt lat="47.4992" lon="6.72507">
        <ele>346</ele>
        <time>2015-12-06T11:19:40.000Z</time>
      </trkpt>
      <trkpt lat="47.49921" lon="6.72519">
        <ele>346</ele>
        <time>2015-12-06T11:19:41.000Z</time>
      </trkpt>
      <trkpt lat="47.49921" lon="6.72531">
        <ele>346</ele>
        <time>2015-12-06T11:19:42.000Z</time>
      </trkpt>
      <trkpt lat="47.49922" lon="6.72542">
        <ele>346</ele>
        <time>2015-12-06T11:19:43.000Z</time>
      </trkpt>
      <trkpt lat="47.49923" lon="6.72554">
        <ele>346</ele>
        <time>2015-12-06T11:19:44.000Z</time>
      </trkpt>
      <trkpt lat="47.49924" lon="6.72564">
        <ele>346</ele>
        <time>2015-12-06T11:19:45.000Z</time>
      </trkpt>
      <trkpt lat="47.49925" lon="6.72574">
        <ele>346</ele>
        <time>2015-12-06T11:19:46.000Z</time>
      </trkpt>
      <trkpt lat="47.49925" lon="6.72585">
        <ele>345</ele>
        <time>2015-12-06T11:19:47.000Z</time>
      </trkpt>
      <trkpt lat="47.49924" lon="6.72597">
        <ele>345</ele>
        <time>2015-12-06T11:19:48.000Z</time>
      </trkpt>
      <trkpt lat="47.49924" lon="6.72608">
        <ele>345</ele>
        <time>2015-12-06T11:19:49.000Z</time>
      </trkpt>
      <trkpt lat="47.49923" lon="6.72619">
        <ele>345</ele>
        <time>2015-12-06T11:19:50.000Z</time>
      </trkpt>
      <trkpt lat="47.49922" lon="6.7263">
        <ele>345</ele>
        <time>2015-12-06T11:19:51.000Z</time>
      </trkpt>
      <trkpt lat="47.49922" lon="6.7264">
        <ele>344</ele>
        <time>2015-12-06T11:19:52.000Z</time>
      </trkpt>
      <trkpt lat="47.49921" lon="6.7265">
        <ele>344</ele>
        <time>2015-12-06T11:19:53.000Z</time>
      </trkpt>
      <trkpt lat="47.49921" lon="6.7266">
        <ele>344</ele>
        <time>2015-12-06T11:19:54.000Z</time>
      </trkpt>
      <trkpt lat="47.4992" lon="6.72669">
        <ele>343</ele>
        <time>2015-12-06T11:19:55.000Z</time>
      </trkpt>
      <trkpt lat="47.49919" lon="6.7268">
        <ele>343</ele>
        <time>2015-12-06T11:19:56.000Z</time>
      </trkpt>
      <trkpt lat="47.49919" lon="6.7269">
        <ele>343</ele>
        <time>2015-12-06T11:19:57.000Z</time>
      </trkpt>
      <trkpt lat="47.49919" lon="6.72701">
        <ele>343</ele>
        <time>2015-12-06T11:19:58.000Z</time>
      </trkpt>
      <trkpt lat="47.49919" lon="6.7271">
        <ele>343</ele>
        <time>2015-12-06T11:19:59.000Z</time>
      </trkpt>
      <trkpt lat="47.4992" lon="6.7272">
        <ele>343</ele>
        <time>2015-12-06T11:20:00.000Z</time>
      </trkpt>
      <trkpt lat="47.49921" lon="6.7273">
        <ele>343</ele>
        <time>2015-12-06T11:20:01.000Z</time>
      </trkpt>
      <trkpt lat="47.49922" lon="6.72741">
        <ele>342</ele>
        <time>2015-12-06T11:20:02.000Z</time>
      </trkpt>
      <trkpt lat="47.49925" lon="6.7275">
        <ele>342</ele>
        <time>2015-12-06T11:20:03.000Z</time>
      </trkpt>
      <trkpt lat="47.49927" lon="6.72759">
        <ele>342</ele>
        <time>2015-12-06T11:20:04.000Z</time>
      </trkpt>
      <trkpt lat="47.49927" lon="6.72769">
        <ele>342</ele>
        <time>2015-12-06T11:20:05.000Z</time>
      </trkpt>
      <trkpt lat="47.49928" lon="6.72779">
        <ele>342</ele>
        <time>2015-12-06T11:20:06.000Z</time>
      </trkpt>
      <trkpt lat="47.49929" lon="6.72788">
        <ele>342</ele>
        <time>2015-12-06T11:20:07.000Z</time>
      </trkpt>
      <trkpt lat="47.4993" lon="6.72795">
        <ele>342</ele>
        <time>2015-12-06T11:20:08.000Z</time>
      </trkpt>
      <trkpt lat="47.4993" lon="6.72799">
        <ele>342</ele>
        <time>2015-12-06T11:20:09.000Z</time>
      </trkpt>
      <trkpt lat="47.49931" lon="6.72803">
        <ele>342</ele>
        <time>2015-12-06T11:20:10.000Z</time>
      </trkpt>
      <trkpt lat="47.49931" lon="6.72809">
        <ele>342</ele>
        <time>2015-12-06T11:21:04.000Z</time>
      </trkpt>
      <trkpt lat="47.49932" lon="6.72811">
        <ele>342</ele>
        <time>2015-12-06T11:21:05.000Z</time>
      </trkpt>
      <trkpt lat="47.49933" lon="6.72815">
        <ele>342</ele>
        <time>2015-12-06T11:21:08.000Z</time>
      </trkpt>
      <trkpt lat="47.49934" lon="6.72817">
        <ele>342</ele>
        <time>2015-12-06T11:21:09.000Z</time>
      </trkpt>
      <trkpt lat="47.49935" lon="6.72821">
        <ele>342</ele>
        <time>2015-12-06T11:21:10.000Z</time>
      </trkpt>
      <trkpt lat="47.49937" lon="6.72826">
        <ele>342</ele>
        <time>2015-12-06T11:21:11.000Z</time>
      </trkpt>
      <trkpt lat="47.49938" lon="6.72831">
        <ele>342</ele>
        <time>2015-12-06T11:21:12.000Z</time>
      </trkpt>
      <trkpt lat="47.49939" lon="6.72838">
        <ele>342</ele>
        <time>2015-12-06T11:21:13.000Z</time>
      </trkpt>
      <trkpt lat="47.49941" lon="6.72848">
        <ele>341</ele>
        <time>2015-12-06T11:21:14.000Z</time>
      </trkpt>
      <trkpt lat="47.49942" lon="6.72854">
        <ele>341</ele>
        <time>2015-12-06T11:21:15.000Z</time>
      </trkpt>
      <trkpt lat="47.49942" lon="6.72861">
        <ele>341</ele>
        <time>2015-12-06T11:21:16.000Z</time>
      </trkpt>
      <trkpt lat="47.49943" lon="6.72867">
        <ele>341</ele>
        <time>2015-12-06T11:21:17.000Z</time>
      </trkpt>
      <trkpt lat="47.49944" lon="6.72874">
        <ele>341</ele>
        <time>2015-12-06T11:21:18.000Z</time>
      </trkpt>
      <trkpt lat="47.49946" lon="6.72882">
        <ele>341</ele>
        <time>2015-12-06T11:21:19.000Z</time>
      </trkpt>
      <trkpt lat="47.49948" lon="6.72889">
        <ele>341</ele>
        <time>2015-12-06T11:21:20.000Z</time>
      </trkpt>
      <trkpt lat="47.49952" lon="6.72895">
        <ele>340</ele>
        <time>2015-12-06T11:21:21.000Z</time>
      </trkpt>
      <trkpt lat="47.49956" lon="6.72902">
        <ele>340</ele>
        <time>2015-12-06T11:21:22.000Z</time>
      </trkpt>
      <trkpt lat="47.4996" lon="6.72907">
        <ele>340</ele>
        <time>2015-12-06T11:21:23.000Z</time>
      </trkpt>
      <trkpt lat="47.49964" lon="6.72913">
        <ele>340</ele>
        <time>2015-12-06T11:21:24.000Z</time>
      </trkpt>
      <trkpt lat="47.49968" lon="6.7292">
        <ele>339</ele>
        <time>2015-12-06T11:21:25.000Z</time>
      </trkpt>
      <trkpt lat="47.49972" lon="6.72925">
        <ele>339</ele>
        <time>2015-12-06T11:21:26.000Z</time>
      </trkpt>
      <trkpt lat="47.49976" lon="6.72931">
        <ele>339</ele>
        <time>2015-12-06T11:21:27.000Z</time>
      </trkpt>
      <trkpt lat="47.49979" lon="6.72938">
        <ele>339</ele>
        <time>2015-12-06T11:21:28.000Z</time>
      </trkpt>
      <trkpt lat="47.49982" lon="6.72947">
        <ele>338</ele>
        <time>2015-12-06T11:21:29.000Z</time>
      </trkpt>
      <trkpt lat="47.49983" lon="6.72956">
        <ele>338</ele>
        <time>2015-12-06T11:21:30.000Z</time>
      </trkpt>
      <trkpt lat="47.49983" lon="6.72964">
        <ele>338</ele>
        <time>2015-12-06T11:21:31.000Z</time>
      </trkpt>
      <trkpt lat="47.49983" lon="6.72972">
        <ele>338</ele>
        <time>2015-12-06T11:21:32.000Z</time>
      </trkpt>
      <trkpt lat="47.49983" lon="6.7298">
        <ele>338</ele>
        <time>2015-12-06T11:21:33.000Z</time>
      </trkpt>
      <trkpt lat="47.49984" lon="6.72986">
        <ele>338</ele>
        <time>2015-12-06T11:21:34.000Z</time>
      </trkpt>
      <trkpt lat="47.49987" lon="6.72992">
        <ele>338</ele>
        <time>2015-12-06T11:21:35.000Z</time>
      </trkpt>
      <trkpt lat="47.49991" lon="6.73">
        <ele>337</ele>
        <time>2015-12-06T11:21:36.000Z</time>
      </trkpt>
      <trkpt lat="47.49993" lon="6.73006">
        <ele>337</ele>
        <time>2015-12-06T11:21:37.000Z</time>
      </trkpt>
      <trkpt lat="47.49996" lon="6.73012">
        <ele>337</ele>
        <time>2015-12-06T11:21:38.000Z</time>
      </trkpt>
      <trkpt lat="47.5" lon="6.73018">
        <ele>337</ele>
        <time>2015-12-06T11:21:39.000Z</time>
      </trkpt>
      <trkpt lat="47.50004" lon="6.73023">
        <ele>337</ele>
        <time>2015-12-06T11:21:40.000Z</time>
      </trkpt>
      <trkpt lat="47.50006" lon="6.73029">
        <ele>337</ele>
        <time>2015-12-06T11:21:41.000Z</time>
      </trkpt>
      <trkpt lat="47.5001" lon="6.73034">
        <ele>337</ele>
        <time>2015-12-06T11:21:42.000Z</time>
      </trkpt>
      <trkpt lat="47.50014" lon="6.73039">
        <ele>337</ele>
        <time>2015-12-06T11:21:43.000Z</time>
      </trkpt>
      <trkpt lat="47.50018" lon="6.73044">
        <ele>337</ele>
        <time>2015-12-06T11:21:44.000Z</time>
      </trkpt>
      <trkpt lat="47.50022" lon="6.73049">
        <ele>337</ele>
        <time>2015-12-06T11:21:45.000Z</time>
      </trkpt>
      <trkpt lat="47.50027" lon="6.73053">
        <ele>337</ele>
        <time>2015-12-06T11:21:46.000Z</time>
      </trkpt>
      <trkpt lat="47.50031" lon="6.73058">
        <ele>337</ele>
        <time>2015-12-06T11:21:47.000Z</time>
      </trkpt>
      <trkpt lat="47.50036" lon="6.73062">
        <ele>337</ele>
        <time>2015-12-06T11:21:48.000Z</time>
      </trkpt>
      <trkpt lat="47.5004" lon="6.73065">
        <ele>337</ele>
        <time>2015-12-06T11:21:49.000Z</time>
      </trkpt>
      <trkpt lat="47.50045" lon="6.73069">
        <ele>337</ele>
        <time>2015-12-06T11:21:50.000Z</time>
      </trkpt>
      <trkpt lat="47.50049" lon="6.73073">
        <ele>337</ele>
        <time>2015-12-06T11:21:51.000Z</time>
      </trkpt>
      <trkpt lat="47.50053" lon="6.73076">
        <ele>337</ele>
        <time>2015-12-06T11:21:52.000Z</time>
      </trkpt>
      <trkpt lat="47.50058" lon="6.73081">
        <ele>337</ele>
        <time>2015-12-06T11:21:53.000Z</time>
      </trkpt>
      <trkpt lat="47.50062" lon="6.73085">
        <ele>337</ele>
        <time>2015-12-06T11:21:54.000Z</time>
      </trkpt>
      <trkpt lat="47.50066" lon="6.73089">
        <ele>337</ele>
        <time>2015-12-06T11:21:55.000Z</time>
      </trkpt>
      <trkpt lat="47.5007" lon="6.73093">
        <ele>338</ele>
        <time>2015-12-06T11:21:55.999Z</time>
      </trkpt>
      <trkpt lat="47.50076" lon="6.73096">
        <ele>338</ele>
        <time>2015-12-06T11:21:57.000Z</time>
      </trkpt>
      <trkpt lat="47.50081" lon="6.73101">
        <ele>338</ele>
        <time>2015-12-06T11:21:58.000Z</time>
      </trkpt>
      <trkpt lat="47.50085" lon="6.73104">
        <ele>339</ele>
        <time>2015-12-06T11:21:59.000Z</time>
      </trkpt>
      <trkpt lat="47.5009" lon="6.73108">
        <ele>339</ele>
        <time>2015-12-06T11:22:00.000Z</time>
      </trkpt>
      <trkpt lat="47.50094" lon="6.73112">
        <ele>339</ele>
        <time>2015-12-06T11:22:01.000Z</time>
      </trkpt>
      <trkpt lat="47.50099" lon="6.73114">
        <ele>339</ele>
        <time>2015-12-06T11:22:02.000Z</time>
      </trkpt>
      <trkpt lat="47.50104" lon="6.73116">
        <ele>339</ele>
        <time>2015-12-06T11:22:03.000Z</time>
      </trkpt>
      <trkpt lat="47.50109" lon="6.73117">
        <ele>339</ele>
        <time>2015-12-06T11:22:04.000Z</time>
      </trkpt>
      <trkpt lat="47.50113" lon="6.73118">
        <ele>339</ele>
        <time>2015-12-06T11:22:05.000Z</time>
      </trkpt>
      <trkpt lat="47.50117" lon="6.73119">
        <ele>339</ele>
        <time>2015-12-06T11:22:05.998Z</time>
      </trkpt>
      <trkpt lat="47.50123" lon="6.73123">
        <ele>339</ele>
        <time>2015-12-06T11:22:07.000Z</time>
      </trkpt>
      <trkpt lat="47.50127" lon="6.73125">
        <ele>340</ele>
        <time>2015-12-06T11:22:08.000Z</time>
      </trkpt>
      <trkpt lat="47.50131" lon="6.73126">
        <ele>340</ele>
        <time>2015-12-06T11:22:09.000Z</time>
      </trkpt>
      <trkpt lat="47.50134" lon="6.73124">
        <ele>340</ele>
        <time>2015-12-06T11:22:10.000Z</time>
      </trkpt>
      <trkpt lat="47.50137" lon="6.73124">
        <ele>340</ele>
        <time>2015-12-06T11:22:10.998Z</time>
      </trkpt>
      <trkpt lat="47.50141" lon="6.73123">
        <ele>340</ele>
        <time>2015-12-06T11:22:12.000Z</time>
      </trkpt>
      <trkpt lat="47.50144" lon="6.73122">
        <ele>340</ele>
        <time>2015-12-06T11:22:12.999Z</time>
      </trkpt>
      <trkpt lat="47.50149" lon="6.73122">
        <ele>340</ele>
        <time>2015-12-06T11:22:14.000Z</time>
      </trkpt>
      <trkpt lat="47.50152" lon="6.73122">
        <ele>340</ele>
        <time>2015-12-06T11:22:15.000Z</time>
      </trkpt>
      <trkpt lat="47.50155" lon="6.73123">
        <ele>340</ele>
        <time>2015-12-06T11:22:15.999Z</time>
      </trkpt>
      <trkpt lat="47.50159" lon="6.73126">
        <ele>340</ele>
        <time>2015-12-06T11:22:17.000Z</time>
      </trkpt>
      <trkpt lat="47.50162" lon="6.73128">
        <ele>340</ele>
        <time>2015-12-06T11:22:17.999Z</time>
      </trkpt>
      <trkpt lat="47.50165" lon="6.73133">
        <ele>340</ele>
        <time>2015-12-06T11:22:19.000Z</time>
      </trkpt>
      <trkpt lat="47.50167" lon="6.73138">
        <ele>341</ele>
        <time>2015-12-06T11:22:20.000Z</time>
      </trkpt>
      <trkpt lat="47.50169" lon="6.73143">
        <ele>341</ele>
        <time>2015-12-06T11:22:21.000Z</time>
      </trkpt>
      <trkpt lat="47.50169" lon="6.73148">
        <ele>342</ele>
        <time>2015-12-06T11:22:22.000Z</time>
      </trkpt>
      <trkpt lat="47.50169" lon="6.73153">
        <ele>342</ele>
        <time>2015-12-06T11:22:23.000Z</time>
      </trkpt>
      <trkpt lat="47.50168" lon="6.73159">
        <ele>342</ele>
        <time>2015-12-06T11:22:24.000Z</time>
      </trkpt>
      <trkpt lat="47.50166" lon="6.73164">
        <ele>342</ele>
        <time>2015-12-06T11:22:25.000Z</time>
      </trkpt>
      <trkpt lat="47.50164" lon="6.73168">
        <ele>342</ele>
        <time>2015-12-06T11:22:26.000Z</time>
      </trkpt>
      <trkpt lat="47.50162" lon="6.73174">
        <ele>342</ele>
        <time>2015-12-06T11:22:27.000Z</time>
      </trkpt>
      <trkpt lat="47.50161" lon="6.73179">
        <ele>341</ele>
        <time>2015-12-06T11:22:28.000Z</time>
      </trkpt>
      <trkpt lat="47.5016" lon="6.73185">
        <ele>341</ele>
        <time>2015-12-06T11:22:29.000Z</time>
      </trkpt>
      <trkpt lat="47.5016" lon="6.73191">
        <ele>341</ele>
        <time>2015-12-06T11:22:30.000Z</time>
      </trkpt>
      <trkpt lat="47.50159" lon="6.73196">
        <ele>341</ele>
        <time>2015-12-06T11:22:31.000Z</time>
      </trkpt>
      <trkpt lat="47.50158" lon="6.73201">
        <ele>341</ele>
        <time>2015-12-06T11:22:32.000Z</time>
      </trkpt>
      <trkpt lat="47.50157" lon="6.73205">
        <ele>341</ele>
        <time>2015-12-06T11:22:33.000Z</time>
      </trkpt>
      <trkpt lat="47.50156" lon="6.7321">
        <ele>341</ele>
        <time>2015-12-06T11:22:34.000Z</time>
      </trkpt>
      <trkpt lat="47.50154" lon="6.73215">
        <ele>341</ele>
        <time>2015-12-06T11:22:35.000Z</time>
      </trkpt>
      <trkpt lat="47.50153" lon="6.73219">
        <ele>341</ele>
        <time>2015-12-06T11:22:36.000Z</time>
      </trkpt>
      <trkpt lat="47.50152" lon="6.73224">
        <ele>341</ele>
        <time>2015-12-06T11:22:37.000Z</time>
      </trkpt>
      <trkpt lat="47.50151" lon="6.73228">
        <ele>341</ele>
        <time>2015-12-06T11:22:38.000Z</time>
      </trkpt>
      <trkpt lat="47.50149" lon="6.73233">
        <ele>341</ele>
        <time>2015-12-06T11:22:39.000Z</time>
      </trkpt>
      <trkpt lat="47.50147" lon="6.73238">
        <ele>341</ele>
        <time>2015-12-06T11:22:40.000Z</time>
      </trkpt>
      <trkpt lat="47.50146" lon="6.73243">
        <ele>341</ele>
        <time>2015-12-06T11:22:41.000Z</time>
      </trkpt>
      <trkpt lat="47.50144" lon="6.73248">
        <ele>341</ele>
        <time>2015-12-06T11:22:42.000Z</time>
      </trkpt>
      <trkpt lat="47.50142" lon="6.73254">
        <ele>343</ele>
        <time>2015-12-06T11:22:43.000Z</time>
      </trkpt>
      <trkpt lat="47.50141" lon="6.73259">
        <ele>343</ele>
        <time>2015-12-06T11:22:44.000Z</time>
      </trkpt>
      <trkpt lat="47.50139" lon="6.73265">
        <ele>343</ele>
        <time>2015-12-06T11:22:45.000Z</time>
      </trkpt>
      <trkpt lat="47.50137" lon="6.73271">
        <ele>343</ele>
        <time>2015-12-06T11:22:46.000Z</time>
      </trkpt>
      <trkpt lat="47.50135" lon="6.73277">
        <ele>343</ele>
        <time>2015-12-06T11:22:47.000Z</time>
      </trkpt>
      <trkpt lat="47.50133" lon="6.73283">
        <ele>343</ele>
        <time>2015-12-06T11:22:48.000Z</time>
      </trkpt>
      <trkpt lat="47.50131" lon="6.73289">
        <ele>343</ele>
        <time>2015-12-06T11:22:49.000Z</time>
      </trkpt>
      <trkpt lat="47.50129" lon="6.73296">
        <ele>343</ele>
        <time>2015-12-06T11:22:50.000Z</time>
      </trkpt>
      <trkpt lat="47.50128" lon="6.73303">
        <ele>343</ele>
        <time>2015-12-06T11:22:51.000Z</time>
      </trkpt>
      <trkpt lat="47.50126" lon="6.73309">
        <ele>343</ele>
        <time>2015-12-06T11:22:52.000Z</time>
      </trkpt>
      <trkpt lat="47.50124" lon="6.73314">
        <ele>343</ele>
        <time>2015-12-06T11:22:53.000Z</time>
      </trkpt>
      <trkpt lat="47.50122" lon="6.7332">
        <ele>344</ele>
        <time>2015-12-06T11:22:54.000Z</time>
      </trkpt>
      <trkpt lat="47.5012" lon="6.73326">
        <ele>344</ele>
        <time>2015-12-06T11:22:55.000Z</time>
      </trkpt>
      <trkpt lat="47.50118" lon="6.73332">
        <ele>344</ele>
        <time>2015-12-06T11:22:56.000Z</time>
      </trkpt>
      <trkpt lat="47.50116" lon="6.73337">
        <ele>346</ele>
        <time>2015-12-06T11:22:57.000Z</time>
      </trkpt>
      <trkpt lat="47.50115" lon="6.73343">
        <ele>346</ele>
        <time>2015-12-06T11:22:58.000Z</time>
      </trkpt>
      <trkpt lat="47.50112" lon="6.73348">
        <ele>346</ele>
        <time>2015-12-06T11:22:59.000Z</time>
      </trkpt>
      <trkpt lat="47.5011" lon="6.73354">
        <ele>346</ele>
        <time>2015-12-06T11:23:00.000Z</time>
      </trkpt>
      <trkpt lat="47.50108" lon="6.73359">
        <ele>346</ele>
        <time>2015-12-06T11:23:01.000Z</time>
      </trkpt>
      <trkpt lat="47.50105" lon="6.73365">
        <ele>346</ele>
        <time>2015-12-06T11:23:02.000Z</time>
      </trkpt>
      <trkpt lat="47.50103" lon="6.73372">
        <ele>346</ele>
        <time>2015-12-06T11:23:03.000Z</time>
      </trkpt>
      <trkpt lat="47.50101" lon="6.73378">
        <ele>346</ele>
        <time>2015-12-06T11:23:04.000Z</time>
      </trkpt>
      <trkpt lat="47.50098" lon="6.73384">
        <ele>346</ele>
        <time>2015-12-06T11:23:05.001Z</time>
      </trkpt>
      <trkpt lat="47.50097" lon="6.7339">
        <ele>347</ele>
        <time>2015-12-06T11:23:06.000Z</time>
      </trkpt>
      <trkpt lat="47.50096" lon="6.73396">
        <ele>347</ele>
        <time>2015-12-06T11:23:07.000Z</time>
      </trkpt>
      <trkpt lat="47.50094" lon="6.73402">
        <ele>347</ele>
        <time>2015-12-06T11:23:08.000Z</time>
      </trkpt>
      <trkpt lat="47.50092" lon="6.73407">
        <ele>346</ele>
        <time>2015-12-06T11:23:09.000Z</time>
      </trkpt>
      <trkpt lat="47.5009" lon="6.73413">
        <ele>346</ele>
        <time>2015-12-06T11:23:10.000Z</time>
      </trkpt>
      <trkpt lat="47.50088" lon="6.73419">
        <ele>347</ele>
        <time>2015-12-06T11:23:11.000Z</time>
      </trkpt>
      <trkpt lat="47.50086" lon="6.73425">
        <ele>347</ele>
        <time>2015-12-06T11:23:12.000Z</time>
      </trkpt>
      <trkpt lat="47.50085" lon="6.7343">
        <ele>348</ele>
        <time>2015-12-06T11:23:13.000Z</time>
      </trkpt>
      <trkpt lat="47.50084" lon="6.73435">
        <ele>348</ele>
        <time>2015-12-06T11:23:14.000Z</time>
      </trkpt>
      <trkpt lat="47.50083" lon="6.73441">
        <ele>349</ele>
        <time>2015-12-06T11:23:15.000Z</time>
      </trkpt>
      <trkpt lat="47.50082" lon="6.73448">
        <ele>344</ele>
        <time>2015-12-06T11:23:16.000Z</time>
      </trkpt>
      <trkpt lat="47.50081" lon="6.73454">
        <ele>344</ele>
        <time>2015-12-06T11:23:17.000Z</time>
      </trkpt>
      <trkpt lat="47.50079" lon="6.73459">
        <ele>344</ele>
        <time>2015-12-06T11:23:18.000Z</time>
      </trkpt>
      <trkpt lat="47.50077" lon="6.73465">
        <ele>344</ele>
        <time>2015-12-06T11:23:19.000Z</time>
      </trkpt>
      <trkpt lat="47.50076" lon="6.73472">
        <ele>345</ele>
        <time>2015-12-06T11:23:20.000Z</time>
      </trkpt>
      <trkpt lat="47.50075" lon="6.7348">
        <ele>345</ele>
        <time>2015-12-06T11:23:21.000Z</time>
      </trkpt>
      <trkpt lat="47.50073" lon="6.73488">
        <ele>345</ele>
        <time>2015-12-06T11:23:22.000Z</time>
      </trkpt>
      <trkpt lat="47.50071" lon="6.73495">
        <ele>345</ele>
        <time>2015-12-06T11:23:23.000Z</time>
      </trkpt>
      <trkpt lat="47.5007" lon="6.73502">
        <ele>346</ele>
        <time>2015-12-06T11:23:24.000Z</time>
      </trkpt>
      <trkpt lat="47.50069" lon="6.7351">
        <ele>346</ele>
        <time>2015-12-06T11:23:25.000Z</time>
      </trkpt>
      <trkpt lat="47.50068" lon="6.73519">
        <ele>346</ele>
        <time>2015-12-06T11:23:26.000Z</time>
      </trkpt>
      <trkpt lat="47.50066" lon="6.73527">
        <ele>346</ele>
        <time>2015-12-06T11:23:27.000Z</time>
      </trkpt>
      <trkpt lat="47.50065" lon="6.73535">
        <ele>346</ele>
        <time>2015-12-06T11:23:28.000Z</time>
      </trkpt>
      <trkpt lat="47.50063" lon="6.73543">
        <ele>346</ele>
        <time>2015-12-06T11:23:29.000Z</time>
      </trkpt>
      <trkpt lat="47.50061" lon="6.73551">
        <ele>346</ele>
        <time>2015-12-06T11:23:29.999Z</time>
      </trkpt>
      <trkpt lat="47.5006" lon="6.73558">
        <ele>346</ele>
        <time>2015-12-06T11:23:31.000Z</time>
      </trkpt>
      <trkpt lat="47.50061" lon="6.73566">
        <ele>346</ele>
        <time>2015-12-06T11:23:32.000Z</time>
      </trkpt>
      <trkpt lat="47.50061" lon="6.73581">
        <ele>347</ele>
        <time>2015-12-06T11:23:34.000Z</time>
      </trkpt>
      <trkpt lat="47.50061" lon="6.73589">
        <ele>348</ele>
        <time>2015-12-06T11:23:35.000Z</time>
      </trkpt>
      <trkpt lat="47.50061" lon="6.73596">
        <ele>348</ele>
        <time>2015-12-06T11:23:36.000Z</time>
      </trkpt>
      <trkpt lat="47.5006" lon="6.73604">
        <ele>348</ele>
        <time>2015-12-06T11:23:37.000Z</time>
      </trkpt>
      <trkpt lat="47.5006" lon="6.73611">
        <ele>348</ele>
        <time>2015-12-06T11:23:38.000Z</time>
      </trkpt>
      <trkpt lat="47.50062" lon="6.73618">
        <ele>348</ele>
        <time>2015-12-06T11:23:39.000Z</time>
      </trkpt>
      <trkpt lat="47.50061" lon="6.73626">
        <ele>348</ele>
        <time>2015-12-06T11:23:40.000Z</time>
      </trkpt>
      <trkpt lat="47.50061" lon="6.73633">
        <ele>349</ele>
        <time>2015-12-06T11:23:41.000Z</time>
      </trkpt>
      <trkpt lat="47.50061" lon="6.73639">
        <ele>349</ele>
        <time>2015-12-06T11:23:42.000Z</time>
      </trkpt>
      <trkpt lat="47.50061" lon="6.73645">
        <ele>349</ele>
        <time>2015-12-06T11:23:43.000Z</time>
      </trkpt>
      <trkpt lat="47.50061" lon="6.73652">
        <ele>350</ele>
        <time>2015-12-06T11:23:44.000Z</time>
      </trkpt>
      <trkpt lat="47.50061" lon="6.73659">
        <ele>350</ele>
        <time>2015-12-06T11:23:45.000Z</time>
      </trkpt>
      <trkpt lat="47.50061" lon="6.73666">
        <ele>350</ele>
        <time>2015-12-06T11:23:46.000Z</time>
      </trkpt>
      <trkpt lat="47.50061" lon="6.73672">
        <ele>351</ele>
        <time>2015-12-06T11:23:47.000Z</time>
      </trkpt>
      <trkpt lat="47.50061" lon="6.73678">
        <ele>351</ele>
        <time>2015-12-06T11:23:48.000Z</time>
      </trkpt>
      <trkpt lat="47.5006" lon="6.73683">
        <ele>351</ele>
        <time>2015-12-06T11:23:49.000Z</time>
      </trkpt>
      <trkpt lat="47.50059" lon="6.73689">
        <ele>351</ele>
        <time>2015-12-06T11:23:50.000Z</time>
      </trkpt>
      <trkpt lat="47.50057" lon="6.73698">
        <ele>351</ele>
        <time>2015-12-06T11:23:51.000Z</time>
      </trkpt>
      <trkpt lat="47.50057" lon="6.73706">
        <ele>351</ele>
        <time>2015-12-06T11:23:52.000Z</time>
      </trkpt>
      <trkpt lat="47.50057" lon="6.73713">
        <ele>351</ele>
        <time>2015-12-06T11:23:53.000Z</time>
      </trkpt>
      <trkpt lat="47.50059" lon="6.7372">
        <ele>351</ele>
        <time>2015-12-06T11:23:54.000Z</time>
      </trkpt>
      <trkpt lat="47.50059" lon="6.73727">
        <ele>352</ele>
        <time>2015-12-06T11:23:55.000Z</time>
      </trkpt>
      <trkpt lat="47.50058" lon="6.73734">
        <ele>352</ele>
        <time>2015-12-06T11:23:56.000Z</time>
      </trkpt>
      <trkpt lat="47.50059" lon="6.73743">
        <ele>352</ele>
        <time>2015-12-06T11:23:57.000Z</time>
      </trkpt>
      <trkpt lat="47.5006" lon="6.73751">
        <ele>353</ele>
        <time>2015-12-06T11:23:58.000Z</time>
      </trkpt>
      <trkpt lat="47.5006" lon="6.73757">
        <ele>353</ele>
        <time>2015-12-06T11:23:59.000Z</time>
      </trkpt>
      <trkpt lat="47.5006" lon="6.73763">
        <ele>353</ele>
        <time>2015-12-06T11:24:00.000Z</time>
      </trkpt>
      <trkpt lat="47.5006" lon="6.73771">
        <ele>353</ele>
        <time>2015-12-06T11:24:01.000Z</time>
      </trkpt>
      <trkpt lat="47.5006" lon="6.73778">
        <ele>353</ele>
        <time>2015-12-06T11:24:02.000Z</time>
      </trkpt>
      <trkpt lat="47.5006" lon="6.73784">
        <ele>353</ele>
        <time>2015-12-06T11:24:03.000Z</time>
      </trkpt>
      <trkpt lat="47.5006" lon="6.7379">
        <ele>353</ele>
        <time>2015-12-06T11:24:04.000Z</time>
      </trkpt>
      <trkpt lat="47.5006" lon="6.73798">
        <ele>353</ele>
        <time>2015-12-06T11:24:05.001Z</time>
      </trkpt>
      <trkpt lat="47.50061" lon="6.73804">
        <ele>353</ele>
        <time>2015-12-06T11:24:05.999Z</time>
      </trkpt>
      <trkpt lat="47.50062" lon="6.7381">
        <ele>353</ele>
        <time>2015-12-06T11:24:07.000Z</time>
      </trkpt>
      <trkpt lat="47.50062" lon="6.73815">
        <ele>353</ele>
        <time>2015-12-06T11:24:08.000Z</time>
      </trkpt>
      <trkpt lat="47.50063" lon="6.73821">
        <ele>354</ele>
        <time>2015-12-06T11:24:09.000Z</time>
      </trkpt>
      <trkpt lat="47.50064" lon="6.73826">
        <ele>354</ele>
        <time>2015-12-06T11:24:10.000Z</time>
      </trkpt>
      <trkpt lat="47.50064" lon="6.73832">
        <ele>354</ele>
        <time>2015-12-06T11:24:11.001Z</time>
      </trkpt>
      <trkpt lat="47.50064" lon="6.73841">
        <ele>354</ele>
        <time>2015-12-06T11:24:11.999Z</time>
      </trkpt>
      <trkpt lat="47.50065" lon="6.73848">
        <ele>354</ele>
        <time>2015-12-06T11:24:13.000Z</time>
      </trkpt>
      <trkpt lat="47.50065" lon="6.73854">
        <ele>354</ele>
        <time>2015-12-06T11:24:14.000Z</time>
      </trkpt>
      <trkpt lat="47.50065" lon="6.73862">
        <ele>354</ele>
        <time>2015-12-06T11:24:15.000Z</time>
      </trkpt>
      <trkpt lat="47.50064" lon="6.73868">
        <ele>353</ele>
        <time>2015-12-06T11:24:16.000Z</time>
      </trkpt>
      <trkpt lat="47.50063" lon="6.73873">
        <ele>353</ele>
        <time>2015-12-06T11:24:17.000Z</time>
      </trkpt>
      <trkpt lat="47.50064" lon="6.73877">
        <ele>353</ele>
        <time>2015-12-06T11:24:18.000Z</time>
      </trkpt>
      <trkpt lat="47.50065" lon="6.73882">
        <ele>353</ele>
        <time>2015-12-06T11:24:19.000Z</time>
      </trkpt>
      <trkpt lat="47.50068" lon="6.73888">
        <ele>353</ele>
        <time>2015-12-06T11:24:20.000Z</time>
      </trkpt>
      <trkpt lat="47.5007" lon="6.73892">
        <ele>354</ele>
        <time>2015-12-06T11:24:21.000Z</time>
      </trkpt>
      <trkpt lat="47.5007" lon="6.73898">
        <ele>354</ele>
        <time>2015-12-06T11:24:22.000Z</time>
      </trkpt>
      <trkpt lat="47.50071" lon="6.73901">
        <ele>354</ele>
        <time>2015-12-06T11:24:23.001Z</time>
      </trkpt>
      <trkpt lat="47.50075" lon="6.73905">
        <ele>354</ele>
        <time>2015-12-06T11:24:24.000Z</time>
      </trkpt>
      <trkpt lat="47.50076" lon="6.7391">
        <ele>355</ele>
        <time>2015-12-06T11:24:25.000Z</time>
      </trkpt>
      <trkpt lat="47.50077" lon="6.73915">
        <ele>355</ele>
        <time>2015-12-06T11:24:25.999Z</time>
      </trkpt>
      <trkpt lat="47.50077" lon="6.73919">
        <ele>355</ele>
        <time>2015-12-06T11:24:27.000Z</time>
      </trkpt>
      <trkpt lat="47.50077" lon="6.73922">
        <ele>355</ele>
        <time>2015-12-06T11:24:28.000Z</time>
      </trkpt>
      <trkpt lat="47.50077" lon="6.73927">
        <ele>355</ele>
        <time>2015-12-06T11:24:29.000Z</time>
      </trkpt>
      <trkpt lat="47.50078" lon="6.73931">
        <ele>355</ele>
        <time>2015-12-06T11:24:30.000Z</time>
      </trkpt>
      <trkpt lat="47.50078" lon="6.73936">
        <ele>355</ele>
        <time>2015-12-06T11:24:31.000Z</time>
      </trkpt>
      <trkpt lat="47.50079" lon="6.73941">
        <ele>355</ele>
        <time>2015-12-06T11:24:32.000Z</time>
      </trkpt>
      <trkpt lat="47.50081" lon="6.73947">
        <ele>355</ele>
        <time>2015-12-06T11:24:33.000Z</time>
      </trkpt>
      <trkpt lat="47.50081" lon="6.73952">
        <ele>355</ele>
        <time>2015-12-06T11:24:34.000Z</time>
      </trkpt>
      <trkpt lat="47.50081" lon="6.73957">
        <ele>355</ele>
        <time>2015-12-06T11:24:35.000Z</time>
      </trkpt>
      <trkpt lat="47.50081" lon="6.73962">
        <ele>355</ele>
        <time>2015-12-06T11:24:36.000Z</time>
      </trkpt>
      <trkpt lat="47.5008" lon="6.73967">
        <ele>355</ele>
        <time>2015-12-06T11:24:37.000Z</time>
      </trkpt>
      <trkpt lat="47.50079" lon="6.73972">
        <ele>355</ele>
        <time>2015-12-06T11:24:38.000Z</time>
      </trkpt>
      <trkpt lat="47.5008" lon="6.73978">
        <ele>355</ele>
        <time>2015-12-06T11:24:39.000Z</time>
      </trkpt>
      <trkpt lat="47.50081" lon="6.73983">
        <ele>356</ele>
        <time>2015-12-06T11:24:40.000Z</time>
      </trkpt>
      <trkpt lat="47.50082" lon="6.73988">
        <ele>356</ele>
        <time>2015-12-06T11:24:41.000Z</time>
      </trkpt>
      <trkpt lat="47.50084" lon="6.73993">
        <ele>359</ele>
        <time>2015-12-06T11:24:42.000Z</time>
      </trkpt>
      <trkpt lat="47.50086" lon="6.73999">
        <ele>358</ele>
        <time>2015-12-06T11:24:43.000Z</time>
      </trkpt>
      <trkpt lat="47.50088" lon="6.74004">
        <ele>359</ele>
        <time>2015-12-06T11:24:44.000Z</time>
      </trkpt>
      <trkpt lat="47.5009" lon="6.74009">
        <ele>361</ele>
        <time>2015-12-06T11:24:45.000Z</time>
      </trkpt>
      <trkpt lat="47.50092" lon="6.74014">
        <ele>362</ele>
        <time>2015-12-06T11:24:46.000Z</time>
      </trkpt>
      <trkpt lat="47.50095" lon="6.74019">
        <ele>363</ele>
        <time>2015-12-06T11:24:47.000Z</time>
      </trkpt>
      <trkpt lat="47.50097" lon="6.74024">
        <ele>364</ele>
        <time>2015-12-06T11:24:48.000Z</time>
      </trkpt>
      <trkpt lat="47.50099" lon="6.74029">
        <ele>365</ele>
        <time>2015-12-06T11:24:49.000Z</time>
      </trkpt>
      <trkpt lat="47.501" lon="6.74035">
        <ele>366</ele>
        <time>2015-12-06T11:24:50.000Z</time>
      </trkpt>
      <trkpt lat="47.50101" lon="6.7404">
        <ele>366</ele>
        <time>2015-12-06T11:24:51.000Z</time>
      </trkpt>
      <trkpt lat="47.50102" lon="6.74045">
        <ele>366</ele>
        <time>2015-12-06T11:24:52.000Z</time>
      </trkpt>
      <trkpt lat="47.50104" lon="6.7405">
        <ele>367</ele>
        <time>2015-12-06T11:24:53.000Z</time>
      </trkpt>
      <trkpt lat="47.50106" lon="6.74055">
        <ele>367</ele>
        <time>2015-12-06T11:24:54.000Z</time>
      </trkpt>
      <trkpt lat="47.50108" lon="6.74059">
        <ele>367</ele>
        <time>2015-12-06T11:24:55.000Z</time>
      </trkpt>
      <trkpt lat="47.5011" lon="6.74064">
        <ele>368</ele>
        <time>2015-12-06T11:24:56.000Z</time>
      </trkpt>
      <trkpt lat="47.50112" lon="6.7407">
        <ele>368</ele>
        <time>2015-12-06T11:24:57.000Z</time>
      </trkpt>
      <trkpt lat="47.50114" lon="6.74074">
        <ele>368</ele>
        <time>2015-12-06T11:24:58.000Z</time>
      </trkpt>
      <trkpt lat="47.50115" lon="6.74078">
        <ele>368</ele>
        <time>2015-12-06T11:24:59.000Z</time>
      </trkpt>
      <trkpt lat="47.50117" lon="6.74083">
        <ele>368</ele>
        <time>2015-12-06T11:25:00.000Z</time>
      </trkpt>
      <trkpt lat="47.50117" lon="6.74087">
        <ele>370</ele>
        <time>2015-12-06T11:25:01.000Z</time>
      </trkpt>
      <trkpt lat="47.50118" lon="6.74091">
        <ele>370</ele>
        <time>2015-12-06T11:25:02.000Z</time>
      </trkpt>
      <trkpt lat="47.50119" lon="6.74095">
        <ele>370</ele>
        <time>2015-12-06T11:25:03.000Z</time>
      </trkpt>
      <trkpt lat="47.5012" lon="6.741">
        <ele>370</ele>
        <time>2015-12-06T11:25:04.000Z</time>
      </trkpt>
      <trkpt lat="47.50122" lon="6.74104">
        <ele>370</ele>
        <time>2015-12-06T11:25:05.000Z</time>
      </trkpt>
      <trkpt lat="47.50124" lon="6.74109">
        <ele>370</ele>
        <time>2015-12-06T11:25:06.000Z</time>
      </trkpt>
      <trkpt lat="47.50125" lon="6.74114">
        <ele>370</ele>
        <time>2015-12-06T11:25:07.000Z</time>
      </trkpt>
      <trkpt lat="47.50127" lon="6.74119">
        <ele>370</ele>
        <time>2015-12-06T11:25:08.000Z</time>
      </trkpt>
      <trkpt lat="47.50128" lon="6.74123">
        <ele>370</ele>
        <time>2015-12-06T11:25:09.000Z</time>
      </trkpt>
      <trkpt lat="47.5013" lon="6.74128">
        <ele>370</ele>
        <time>2015-12-06T11:25:10.000Z</time>
      </trkpt>
      <trkpt lat="47.50133" lon="6.74132">
        <ele>370</ele>
        <time>2015-12-06T11:25:11.000Z</time>
      </trkpt>
      <trkpt lat="47.50134" lon="6.74136">
        <ele>370</ele>
        <time>2015-12-06T11:25:12.000Z</time>
      </trkpt>
      <trkpt lat="47.50136" lon="6.7414">
        <ele>370</ele>
        <time>2015-12-06T11:25:13.000Z</time>
      </trkpt>
      <trkpt lat="47.50138" lon="6.74144">
        <ele>370</ele>
        <time>2015-12-06T11:25:14.000Z</time>
      </trkpt>
      <trkpt lat="47.5014" lon="6.74148">
        <ele>370</ele>
        <time>2015-12-06T11:25:15.000Z</time>
      </trkpt>
      <trkpt lat="47.50141" lon="6.74152">
        <ele>370</ele>
        <time>2015-12-06T11:25:15.998Z</time>
      </trkpt>
      <trkpt lat="47.50143" lon="6.74157">
        <ele>370</ele>
        <time>2015-12-06T11:25:17.000Z</time>
      </trkpt>
      <trkpt lat="47.50144" lon="6.74161">
        <ele>370</ele>
        <time>2015-12-06T11:25:18.000Z</time>
      </trkpt>
      <trkpt lat="47.50146" lon="6.74166">
        <ele>370</ele>
        <time>2015-12-06T11:25:19.000Z</time>
      </trkpt>
      <trkpt lat="47.50147" lon="6.7417">
        <ele>368</ele>
        <time>2015-12-06T11:25:20.000Z</time>
      </trkpt>
      <trkpt lat="47.50148" lon="6.74175">
        <ele>368</ele>
        <time>2015-12-06T11:25:21.000Z</time>
      </trkpt>
      <trkpt lat="47.5015" lon="6.74179">
        <ele>367</ele>
        <time>2015-12-06T11:25:21.999Z</time>
      </trkpt>
      <trkpt lat="47.50151" lon="6.74185">
        <ele>367</ele>
        <time>2015-12-06T11:25:23.000Z</time>
      </trkpt>
      <trkpt lat="47.50153" lon="6.74191">
        <ele>367</ele>
        <time>2015-12-06T11:25:24.000Z</time>
      </trkpt>
      <trkpt lat="47.50154" lon="6.74196">
        <ele>366</ele>
        <time>2015-12-06T11:25:24.999Z</time>
      </trkpt>
      <trkpt lat="47.50156" lon="6.74203">
        <ele>366</ele>
        <time>2015-12-06T11:25:26.000Z</time>
      </trkpt>
      <trkpt lat="47.50159" lon="6.74208">
        <ele>365</ele>
        <time>2015-12-06T11:25:27.000Z</time>
      </trkpt>
      <trkpt lat="47.50161" lon="6.74215">
        <ele>365</ele>
        <time>2015-12-06T11:25:28.000Z</time>
      </trkpt>
      <trkpt lat="47.50164" lon="6.74221">
        <ele>365</ele>
        <time>2015-12-06T11:25:29.001Z</time>
      </trkpt>
      <trkpt lat="47.50169" lon="6.74227">
        <ele>368</ele>
        <time>2015-12-06T11:25:29.999Z</time>
      </trkpt>
      <trkpt lat="47.50173" lon="6.74233">
        <ele>367</ele>
        <time>2015-12-06T11:25:31.000Z</time>
      </trkpt>
      <trkpt lat="47.50177" lon="6.7424">
        <ele>366</ele>
        <time>2015-12-06T11:25:32.000Z</time>
      </trkpt>
      <trkpt lat="47.50181" lon="6.74246">
        <ele>367</ele>
        <time>2015-12-06T11:25:33.000Z</time>
      </trkpt>
      <trkpt lat="47.50186" lon="6.74252">
        <ele>363</ele>
        <time>2015-12-06T11:25:34.000Z</time>
      </trkpt>
      <trkpt lat="47.5019" lon="6.74258">
        <ele>364</ele>
        <time>2015-12-06T11:25:35.000Z</time>
      </trkpt>
      <trkpt lat="47.50194" lon="6.74265">
        <ele>364</ele>
        <time>2015-12-06T11:25:36.000Z</time>
      </trkpt>
      <trkpt lat="47.50198" lon="6.74275">
        <ele>364</ele>
        <time>2015-12-06T11:25:37.000Z</time>
      </trkpt>
      <trkpt lat="47.50205" lon="6.74282">
        <ele>364</ele>
        <time>2015-12-06T11:25:38.000Z</time>
      </trkpt>
      <trkpt lat="47.50209" lon="6.74289">
        <ele>364</ele>
        <time>2015-12-06T11:25:39.000Z</time>
      </trkpt>
      <trkpt lat="47.50214" lon="6.74298">
        <ele>364</ele>
        <time>2015-12-06T11:25:40.000Z</time>
      </trkpt>
      <trkpt lat="47.50217" lon="6.74306">
        <ele>363</ele>
        <time>2015-12-06T11:25:41.000Z</time>
      </trkpt>
      <trkpt lat="47.50221" lon="6.74314">
        <ele>363</ele>
        <time>2015-12-06T11:25:42.000Z</time>
      </trkpt>
      <trkpt lat="47.50228" lon="6.74322">
        <ele>363</ele>
        <time>2015-12-06T11:25:43.000Z</time>
      </trkpt>
      <trkpt lat="47.50233" lon="6.7433">
        <ele>362</ele>
        <time>2015-12-06T11:25:44.000Z</time>
      </trkpt>
      <trkpt lat="47.50238" lon="6.74337">
        <ele>359</ele>
        <time>2015-12-06T11:25:45.000Z</time>
      </trkpt>
      <trkpt lat="47.50243" lon="6.74345">
        <ele>359</ele>
        <time>2015-12-06T11:25:46.000Z</time>
      </trkpt>
      <trkpt lat="47.50248" lon="6.74354">
        <ele>358</ele>
        <time>2015-12-06T11:25:47.000Z</time>
      </trkpt>
      <trkpt lat="47.50252" lon="6.74363">
        <ele>359</ele>
        <time>2015-12-06T11:25:48.000Z</time>
      </trkpt>
      <trkpt lat="47.50255" lon="6.74372">
        <ele>358</ele>
        <time>2015-12-06T11:25:49.000Z</time>
      </trkpt>
      <trkpt lat="47.50258" lon="6.74383">
        <ele>357</ele>
        <time>2015-12-06T11:25:50.000Z</time>
      </trkpt>
      <trkpt lat="47.50262" lon="6.74393">
        <ele>357</ele>
        <time>2015-12-06T11:25:51.000Z</time>
      </trkpt>
      <trkpt lat="47.50265" lon="6.74404">
        <ele>356</ele>
        <time>2015-12-06T11:25:52.000Z</time>
      </trkpt>
      <trkpt lat="47.50268" lon="6.74414">
        <ele>355</ele>
        <time>2015-12-06T11:25:53.000Z</time>
      </trkpt>
      <trkpt lat="47.50271" lon="6.74424">
        <ele>352</ele>
        <time>2015-12-06T11:25:54.000Z</time>
      </trkpt>
      <trkpt lat="47.50273" lon="6.74436">
        <ele>352</ele>
        <time>2015-12-06T11:25:55.000Z</time>
      </trkpt>
      <trkpt lat="47.50275" lon="6.74448">
        <ele>352</ele>
        <time>2015-12-06T11:25:56.000Z</time>
      </trkpt>
      <trkpt lat="47.50277" lon="6.7446">
        <ele>351</ele>
        <time>2015-12-06T11:25:57.000Z</time>
      </trkpt>
      <trkpt lat="47.50279" lon="6.74473">
        <ele>351</ele>
        <time>2015-12-06T11:25:58.000Z</time>
      </trkpt>
      <trkpt lat="47.5028" lon="6.74487">
        <ele>351</ele>
        <time>2015-12-06T11:25:59.000Z</time>
      </trkpt>
      <trkpt lat="47.50281" lon="6.74501">
        <ele>349</ele>
        <time>2015-12-06T11:26:00.000Z</time>
      </trkpt>
      <trkpt lat="47.50281" lon="6.74515">
        <ele>349</ele>
        <time>2015-12-06T11:26:01.000Z</time>
      </trkpt>
      <trkpt lat="47.50281" lon="6.74529">
        <ele>348</ele>
        <time>2015-12-06T11:26:02.000Z</time>
      </trkpt>
      <trkpt lat="47.50279" lon="6.74543">
        <ele>348</ele>
        <time>2015-12-06T11:26:03.000Z</time>
      </trkpt>
      <trkpt lat="47.50277" lon="6.74557">
        <ele>348</ele>
        <time>2015-12-06T11:26:04.000Z</time>
      </trkpt>
      <trkpt lat="47.50275" lon="6.74571">
        <ele>347</ele>
        <time>2015-12-06T11:26:04.999Z</time>
      </trkpt>
      <trkpt lat="47.50273" lon="6.74585">
        <ele>345</ele>
        <time>2015-12-06T11:26:06.000Z</time>
      </trkpt>
      <trkpt lat="47.50277" lon="6.74601">
        <ele>345</ele>
        <time>2015-12-06T11:26:07.000Z</time>
      </trkpt>
      <trkpt lat="47.5028" lon="6.74616">
        <ele>345</ele>
        <time>2015-12-06T11:26:08.000Z</time>
      </trkpt>
      <trkpt lat="47.50282" lon="6.74631">
        <ele>345</ele>
        <time>2015-12-06T11:26:09.000Z</time>
      </trkpt>
      <trkpt lat="47.50282" lon="6.74646">
        <ele>344</ele>
        <time>2015-12-06T11:26:09.999Z</time>
      </trkpt>
      <trkpt lat="47.50282" lon="6.7466">
        <ele>344</ele>
        <time>2015-12-06T11:26:11.000Z</time>
      </trkpt>
      <trkpt lat="47.50283" lon="6.74675">
        <ele>343</ele>
        <time>2015-12-06T11:26:12.000Z</time>
      </trkpt>
      <trkpt lat="47.50284" lon="6.74689">
        <ele>343</ele>
        <time>2015-12-06T11:26:13.000Z</time>
      </trkpt>
      <trkpt lat="47.50284" lon="6.74704">
        <ele>343</ele>
        <time>2015-12-06T11:26:14.000Z</time>
      </trkpt>
      <trkpt lat="47.50283" lon="6.74718">
        <ele>342</ele>
        <time>2015-12-06T11:26:15.000Z</time>
      </trkpt>
      <trkpt lat="47.50281" lon="6.74732">
        <ele>342</ele>
        <time>2015-12-06T11:26:16.000Z</time>
      </trkpt>
      <trkpt lat="47.50279" lon="6.74745">
        <ele>341</ele>
        <time>2015-12-06T11:26:17.000Z</time>
      </trkpt>
      <trkpt lat="47.50276" lon="6.74759">
        <ele>340</ele>
        <time>2015-12-06T11:26:18.000Z</time>
      </trkpt>
      <trkpt lat="47.50272" lon="6.74773">
        <ele>340</ele>
        <time>2015-12-06T11:26:19.000Z</time>
      </trkpt>
      <trkpt lat="47.50268" lon="6.74787">
        <ele>340</ele>
        <time>2015-12-06T11:26:20.000Z</time>
      </trkpt>
      <trkpt lat="47.50264" lon="6.74801">
        <ele>340</ele>
        <time>2015-12-06T11:26:21.000Z</time>
      </trkpt>
      <trkpt lat="47.50261" lon="6.74815">
        <ele>339</ele>
        <time>2015-12-06T11:26:22.000Z</time>
      </trkpt>
      <trkpt lat="47.50258" lon="6.74829">
        <ele>338</ele>
        <time>2015-12-06T11:26:23.000Z</time>
      </trkpt>
      <trkpt lat="47.50254" lon="6.74842">
        <ele>338</ele>
        <time>2015-12-06T11:26:24.000Z</time>
      </trkpt>
      <trkpt lat="47.5025" lon="6.74854">
        <ele>336</ele>
        <time>2015-12-06T11:26:25.000Z</time>
      </trkpt>
      <trkpt lat="47.50247" lon="6.74868">
        <ele>336</ele>
        <time>2015-12-06T11:26:26.000Z</time>
      </trkpt>
      <trkpt lat="47.50244" lon="6.74881">
        <ele>336</ele>
        <time>2015-12-06T11:26:27.000Z</time>
      </trkpt>
      <trkpt lat="47.50241" lon="6.74895">
        <ele>336</ele>
        <time>2015-12-06T11:26:28.000Z</time>
      </trkpt>
      <trkpt lat="47.50238" lon="6.74909">
        <ele>336</ele>
        <time>2015-12-06T11:26:28.999Z</time>
      </trkpt>
      <trkpt lat="47.50236" lon="6.74921">
        <ele>336</ele>
        <time>2015-12-06T11:26:30.000Z</time>
      </trkpt>
      <trkpt lat="47.50233" lon="6.74933">
        <ele>336</ele>
        <time>2015-12-06T11:26:31.000Z</time>
      </trkpt>
      <trkpt lat="47.50229" lon="6.74946">
        <ele>336</ele>
        <time>2015-12-06T11:26:32.000Z</time>
      </trkpt>
      <trkpt lat="47.50225" lon="6.74956">
        <ele>336</ele>
        <time>2015-12-06T11:26:33.000Z</time>
      </trkpt>
      <trkpt lat="47.50218" lon="6.74965">
        <ele>336</ele>
        <time>2015-12-06T11:26:34.000Z</time>
      </trkpt>
      <trkpt lat="47.50211" lon="6.74974">
        <ele>336</ele>
        <time>2015-12-06T11:26:35.000Z</time>
      </trkpt>
      <trkpt lat="47.50206" lon="6.74985">
        <ele>335</ele>
        <time>2015-12-06T11:26:36.000Z</time>
      </trkpt>
      <trkpt lat="47.50201" lon="6.74994">
        <ele>335</ele>
        <time>2015-12-06T11:26:37.000Z</time>
      </trkpt>
      <trkpt lat="47.50198" lon="6.75008">
        <ele>334</ele>
        <time>2015-12-06T11:26:38.000Z</time>
      </trkpt>
      <trkpt lat="47.50196" lon="6.7502">
        <ele>334</ele>
        <time>2015-12-06T11:26:39.000Z</time>
      </trkpt>
      <trkpt lat="47.50194" lon="6.75033">
        <ele>333</ele>
        <time>2015-12-06T11:26:40.000Z</time>
      </trkpt>
      <trkpt lat="47.50192" lon="6.75045">
        <ele>333</ele>
        <time>2015-12-06T11:26:41.000Z</time>
      </trkpt>
      <trkpt lat="47.50191" lon="6.75058">
        <ele>333</ele>
        <time>2015-12-06T11:26:42.000Z</time>
      </trkpt>
      <trkpt lat="47.50189" lon="6.75072">
        <ele>332</ele>
        <time>2015-12-06T11:26:43.000Z</time>
      </trkpt>
      <trkpt lat="47.50188" lon="6.75084">
        <ele>329</ele>
        <time>2015-12-06T11:26:44.000Z</time>
      </trkpt>
      <trkpt lat="47.50186" lon="6.75095">
        <ele>329</ele>
        <time>2015-12-06T11:26:44.999Z</time>
      </trkpt>
      <trkpt lat="47.50186" lon="6.75104">
        <ele>329</ele>
        <time>2015-12-06T11:26:46.000Z</time>
      </trkpt>
      <trkpt lat="47.50188" lon="6.75114">
        <ele>329</ele>
        <time>2015-12-06T11:26:47.000Z</time>
      </trkpt>
      <trkpt lat="47.50191" lon="6.75122">
        <ele>329</ele>
        <time>2015-12-06T11:26:48.000Z</time>
      </trkpt>
      <trkpt lat="47.50194" lon="6.75128">
        <ele>329</ele>
        <time>2015-12-06T11:26:49.000Z</time>
      </trkpt>
      <trkpt lat="47.50198" lon="6.75134">
        <ele>329</ele>
        <time>2015-12-06T11:26:50.001Z</time>
      </trkpt>
      <trkpt lat="47.50204" lon="6.75137">
        <ele>329</ele>
        <time>2015-12-06T11:26:51.000Z</time>
      </trkpt>
      <trkpt lat="47.5021" lon="6.7514">
        <ele>329</ele>
        <time>2015-12-06T11:26:52.000Z</time>
      </trkpt>
      <trkpt lat="47.50215" lon="6.75143">
        <ele>329</ele>
        <time>2015-12-06T11:26:53.000Z</time>
      </trkpt>
      <trkpt lat="47.50219" lon="6.75148">
        <ele>329</ele>
        <time>2015-12-06T11:26:54.000Z</time>
      </trkpt>
      <trkpt lat="47.50223" lon="6.75152">
        <ele>329</ele>
        <time>2015-12-06T11:26:55.000Z</time>
      </trkpt>
      <trkpt lat="47.50227" lon="6.75157">
        <ele>329</ele>
        <time>2015-12-06T11:26:56.000Z</time>
      </trkpt>
      <trkpt lat="47.50228" lon="6.75162">
        <ele>329</ele>
        <time>2015-12-06T11:26:57.000Z</time>
      </trkpt>
      <trkpt lat="47.50232" lon="6.75166">
        <ele>330</ele>
        <time>2015-12-06T11:26:58.000Z</time>
      </trkpt>
      <trkpt lat="47.50236" lon="6.75171">
        <ele>327</ele>
        <time>2015-12-06T11:26:59.000Z</time>
      </trkpt>
      <trkpt lat="47.5024" lon="6.75175">
        <ele>327</ele>
        <time>2015-12-06T11:27:00.000Z</time>
      </trkpt>
      <trkpt lat="47.50245" lon="6.75178">
        <ele>328</ele>
        <time>2015-12-06T11:27:01.000Z</time>
      </trkpt>
      <trkpt lat="47.5025" lon="6.75181">
        <ele>329</ele>
        <time>2015-12-06T11:27:02.000Z</time>
      </trkpt>
      <trkpt lat="47.50255" lon="6.75183">
        <ele>329</ele>
        <time>2015-12-06T11:27:03.000Z</time>
      </trkpt>
      <trkpt lat="47.50261" lon="6.75182">
        <ele>329</ele>
        <time>2015-12-06T11:27:04.000Z</time>
      </trkpt>
      <trkpt lat="47.50267" lon="6.75181">
        <ele>329</ele>
        <time>2015-12-06T11:27:05.000Z</time>
      </trkpt>
      <trkpt lat="47.50272" lon="6.7518">
        <ele>330</ele>
        <time>2015-12-06T11:27:06.000Z</time>
      </trkpt>
      <trkpt lat="47.50279" lon="6.7518">
        <ele>330</ele>
        <time>2015-12-06T11:27:07.000Z</time>
      </trkpt>
      <trkpt lat="47.50284" lon="6.75179">
        <ele>330</ele>
        <time>2015-12-06T11:27:08.000Z</time>
      </trkpt>
      <trkpt lat="47.50291" lon="6.75178">
        <ele>331</ele>
        <time>2015-12-06T11:27:09.000Z</time>
      </trkpt>
      <trkpt lat="47.50297" lon="6.75176">
        <ele>331</ele>
        <time>2015-12-06T11:27:10.000Z</time>
      </trkpt>
      <trkpt lat="47.50303" lon="6.75175">
        <ele>332</ele>
        <time>2015-12-06T11:27:11.000Z</time>
      </trkpt>
      <trkpt lat="47.5031" lon="6.75174">
        <ele>333</ele>
        <time>2015-12-06T11:27:12.000Z</time>
      </trkpt>
      <trkpt lat="47.50316" lon="6.75172">
        <ele>334</ele>
        <time>2015-12-06T11:27:13.000Z</time>
      </trkpt>
      <trkpt lat="47.50322" lon="6.75171">
        <ele>335</ele>
        <time>2015-12-06T11:27:14.000Z</time>
      </trkpt>
      <trkpt lat="47.50329" lon="6.7517">
        <ele>337</ele>
        <time>2015-12-06T11:27:15.000Z</time>
      </trkpt>
      <trkpt lat="47.50336" lon="6.7517">
        <ele>337</ele>
        <time>2015-12-06T11:27:16.000Z</time>
      </trkpt>
      <trkpt lat="47.50343" lon="6.7517">
        <ele>336</ele>
        <time>2015-12-06T11:27:17.000Z</time>
      </trkpt>
      <trkpt lat="47.5035" lon="6.75169">
        <ele>334</ele>
        <time>2015-12-06T11:27:18.000Z</time>
      </trkpt>
      <trkpt lat="47.50358" lon="6.75168">
        <ele>333</ele>
        <time>2015-12-06T11:27:19.000Z</time>
      </trkpt>
      <trkpt lat="47.50365" lon="6.75168">
        <ele>333</ele>
        <time>2015-12-06T11:27:20.000Z</time>
      </trkpt>
      <trkpt lat="47.50372" lon="6.75168">
        <ele>332</ele>
        <time>2015-12-06T11:27:21.000Z</time>
      </trkpt>
      <trkpt lat="47.50379" lon="6.75168">
        <ele>332</ele>
        <time>2015-12-06T11:27:22.000Z</time>
      </trkpt>
      <trkpt lat="47.50386" lon="6.75168">
        <ele>331</ele>
        <time>2015-12-06T11:27:23.000Z</time>
      </trkpt>
      <trkpt lat="47.50393" lon="6.75167">
        <ele>331</ele>
        <time>2015-12-06T11:27:24.000Z</time>
      </trkpt>
      <trkpt lat="47.504" lon="6.75166">
        <ele>337</ele>
        <time>2015-12-06T11:27:25.000Z</time>
      </trkpt>
      <trkpt lat="47.50407" lon="6.75166">
        <ele>335</ele>
        <time>2015-12-06T11:27:26.000Z</time>
      </trkpt>
      <trkpt lat="47.50414" lon="6.75166">
        <ele>333</ele>
        <time>2015-12-06T11:27:27.000Z</time>
      </trkpt>
      <trkpt lat="47.5042" lon="6.75166">
        <ele>332</ele>
        <time>2015-12-06T11:27:28.000Z</time>
      </trkpt>
      <trkpt lat="47.50426" lon="6.75166">
        <ele>333</ele>
        <time>2015-12-06T11:27:29.000Z</time>
      </trkpt>
      <trkpt lat="47.50433" lon="6.75166">
        <ele>333</ele>
        <time>2015-12-06T11:27:30.000Z</time>
      </trkpt>
      <trkpt lat="47.50439" lon="6.75166">
        <ele>334</ele>
        <time>2015-12-06T11:27:31.000Z</time>
      </trkpt>
      <trkpt lat="47.50444" lon="6.75166">
        <ele>334</ele>
        <time>2015-12-06T11:27:32.000Z</time>
      </trkpt>
      <trkpt lat="47.5045" lon="6.75166">
        <ele>334</ele>
        <time>2015-12-06T11:27:33.000Z</time>
      </trkpt>
      <trkpt lat="47.50456" lon="6.75167">
        <ele>328</ele>
        <time>2015-12-06T11:27:34.000Z</time>
      </trkpt>
      <trkpt lat="47.50462" lon="6.75167">
        <ele>333</ele>
        <time>2015-12-06T11:27:35.000Z</time>
      </trkpt>
      <trkpt lat="47.50467" lon="6.75167">
        <ele>333</ele>
        <time>2015-12-06T11:27:36.000Z</time>
      </trkpt>
      <trkpt lat="47.50473" lon="6.75167">
        <ele>328</ele>
        <time>2015-12-06T11:27:37.000Z</time>
      </trkpt>
      <trkpt lat="47.50477" lon="6.75171">
        <ele>328</ele>
        <time>2015-12-06T11:27:38.000Z</time>
      </trkpt>
      <trkpt lat="47.50482" lon="6.75179">
        <ele>328</ele>
        <time>2015-12-06T11:27:39.000Z</time>
      </trkpt>
      <trkpt lat="47.50484" lon="6.75188">
        <ele>327</ele>
        <time>2015-12-06T11:27:40.000Z</time>
      </trkpt>
      <trkpt lat="47.50484" lon="6.75198">
        <ele>327</ele>
        <time>2015-12-06T11:27:41.000Z</time>
      </trkpt>
      <trkpt lat="47.50485" lon="6.75208">
        <ele>327</ele>
        <time>2015-12-06T11:27:42.000Z</time>
      </trkpt>
      <trkpt lat="47.50486" lon="6.75218">
        <ele>327</ele>
        <time>2015-12-06T11:27:43.000Z</time>
      </trkpt>
      <trkpt lat="47.50488" lon="6.75228">
        <ele>326</ele>
        <time>2015-12-06T11:27:44.000Z</time>
      </trkpt>
      <trkpt lat="47.50489" lon="6.75236">
        <ele>326</ele>
        <time>2015-12-06T11:27:45.000Z</time>
      </trkpt>
      <trkpt lat="47.50491" lon="6.75244">
        <ele>326</ele>
        <time>2015-12-06T11:27:46.000Z</time>
      </trkpt>
      <trkpt lat="47.50492" lon="6.75253">
        <ele>325</ele>
        <time>2015-12-06T11:27:47.000Z</time>
      </trkpt>
      <trkpt lat="47.50493" lon="6.75261">
        <ele>325</ele>
        <time>2015-12-06T11:27:48.000Z</time>
      </trkpt>
      <trkpt lat="47.50494" lon="6.75268">
        <ele>325</ele>
        <time>2015-12-06T11:27:49.000Z</time>
      </trkpt>
      <trkpt lat="47.50495" lon="6.75274">
        <ele>325</ele>
        <time>2015-12-06T11:27:50.000Z</time>
      </trkpt>
      <trkpt lat="47.50495" lon="6.75281">
        <ele>325</ele>
        <time>2015-12-06T11:27:51.000Z</time>
      </trkpt>
      <trkpt lat="47.50495" lon="6.75288">
        <ele>325</ele>
        <time>2015-12-06T11:27:52.000Z</time>
      </trkpt>
      <trkpt lat="47.50495" lon="6.75296">
        <ele>325</ele>
        <time>2015-12-06T11:27:53.000Z</time>
      </trkpt>
      <trkpt lat="47.50496" lon="6.75302">
        <ele>325</ele>
        <time>2015-12-06T11:27:54.000Z</time>
      </trkpt>
      <trkpt lat="47.50496" lon="6.75309">
        <ele>325</ele>
        <time>2015-12-06T11:27:55.000Z</time>
      </trkpt>
      <trkpt lat="47.50497" lon="6.75314">
        <ele>325</ele>
        <time>2015-12-06T11:27:56.000Z</time>
      </trkpt>
      <trkpt lat="47.50498" lon="6.7532">
        <ele>326</ele>
        <time>2015-12-06T11:27:57.000Z</time>
      </trkpt>
      <trkpt lat="47.505" lon="6.75326">
        <ele>326</ele>
        <time>2015-12-06T11:27:58.000Z</time>
      </trkpt>
      <trkpt lat="47.50502" lon="6.75333">
        <ele>326</ele>
        <time>2015-12-06T11:27:59.000Z</time>
      </trkpt>
      <trkpt lat="47.50504" lon="6.7534">
        <ele>327</ele>
        <time>2015-12-06T11:28:00.000Z</time>
      </trkpt>
      <trkpt lat="47.50506" lon="6.75346">
        <ele>328</ele>
        <time>2015-12-06T11:28:01.000Z</time>
      </trkpt>
      <trkpt lat="47.50507" lon="6.75352">
        <ele>329</ele>
        <time>2015-12-06T11:28:02.000Z</time>
      </trkpt>
      <trkpt lat="47.50511" lon="6.75355">
        <ele>329</ele>
        <time>2015-12-06T11:28:03.000Z</time>
      </trkpt>
      <trkpt lat="47.50514" lon="6.7536">
        <ele>330</ele>
        <time>2015-12-06T11:28:04.000Z</time>
      </trkpt>
      <trkpt lat="47.50518" lon="6.75363">
        <ele>330</ele>
        <time>2015-12-06T11:28:05.000Z</time>
      </trkpt>
      <trkpt lat="47.50522" lon="6.75367">
        <ele>330</ele>
        <time>2015-12-06T11:28:06.000Z</time>
      </trkpt>
      <trkpt lat="47.50526" lon="6.75371">
        <ele>331</ele>
        <time>2015-12-06T11:28:06.999Z</time>
      </trkpt>
      <trkpt lat="47.5053" lon="6.75372">
        <ele>331</ele>
        <time>2015-12-06T11:28:08.000Z</time>
      </trkpt>
      <trkpt lat="47.50533" lon="6.75374">
        <ele>331</ele>
        <time>2015-12-06T11:28:09.000Z</time>
      </trkpt>
      <trkpt lat="47.50537" lon="6.75377">
        <ele>331</ele>
        <time>2015-12-06T11:28:09.999Z</time>
      </trkpt>
      <trkpt lat="47.50541" lon="6.75378">
        <ele>331</ele>
        <time>2015-12-06T11:28:11.000Z</time>
      </trkpt>
      <trkpt lat="47.50546" lon="6.7538">
        <ele>331</ele>
        <time>2015-12-06T11:28:12.000Z</time>
      </trkpt>
      <trkpt lat="47.5055" lon="6.75382">
        <ele>331</ele>
        <time>2015-12-06T11:28:13.000Z</time>
      </trkpt>
      <trkpt lat="47.50554" lon="6.75384">
        <ele>332</ele>
        <time>2015-12-06T11:28:13.999Z</time>
      </trkpt>
      <trkpt lat="47.50558" lon="6.75384">
        <ele>332</ele>
        <time>2015-12-06T11:28:15.000Z</time>
      </trkpt>
      <trkpt lat="47.50563" lon="6.75386">
        <ele>332</ele>
        <time>2015-12-06T11:28:16.000Z</time>
      </trkpt>
      <trkpt lat="47.50567" lon="6.75387">
        <ele>332</ele>
        <time>2015-12-06T11:28:17.000Z</time>
      </trkpt>
      <trkpt lat="47.50571" lon="6.75387">
        <ele>332</ele>
        <time>2015-12-06T11:28:18.000Z</time>
      </trkpt>
      <trkpt lat="47.50576" lon="6.7539">
        <ele>332</ele>
        <time>2015-12-06T11:28:19.000Z</time>
      </trkpt>
      <trkpt lat="47.50579" lon="6.75392">
        <ele>333</ele>
        <time>2015-12-06T11:28:20.000Z</time>
      </trkpt>
      <trkpt lat="47.50584" lon="6.75393">
        <ele>333</ele>
        <time>2015-12-06T11:28:21.000Z</time>
      </trkpt>
      <trkpt lat="47.50588" lon="6.75394">
        <ele>333</ele>
        <time>2015-12-06T11:28:22.000Z</time>
      </trkpt>
      <trkpt lat="47.50592" lon="6.75394">
        <ele>332</ele>
        <time>2015-12-06T11:28:23.000Z</time>
      </trkpt>
      <trkpt lat="47.50596" lon="6.75395">
        <ele>332</ele>
        <time>2015-12-06T11:28:24.000Z</time>
      </trkpt>
      <trkpt lat="47.50599" lon="6.75394">
        <ele>332</ele>
        <time>2015-12-06T11:28:25.000Z</time>
      </trkpt>
      <trkpt lat="47.50603" lon="6.75394">
        <ele>332</ele>
        <time>2015-12-06T11:28:26.000Z</time>
      </trkpt>
      <trkpt lat="47.50606" lon="6.75395">
        <ele>332</ele>
        <time>2015-12-06T11:28:27.000Z</time>
      </trkpt>
      <trkpt lat="47.50609" lon="6.75394">
        <ele>332</ele>
        <time>2015-12-06T11:28:28.000Z</time>
      </trkpt>
      <trkpt lat="47.50613" lon="6.75393">
        <ele>332</ele>
        <time>2015-12-06T11:28:29.000Z</time>
      </trkpt>
      <trkpt lat="47.50616" lon="6.75393">
        <ele>332</ele>
        <time>2015-12-06T11:28:30.000Z</time>
      </trkpt>
      <trkpt lat="47.50619" lon="6.75393">
        <ele>332</ele>
        <time>2015-12-06T11:28:31.000Z</time>
      </trkpt>
      <trkpt lat="47.50623" lon="6.75393">
        <ele>332</ele>
        <time>2015-12-06T11:28:32.000Z</time>
      </trkpt>
      <trkpt lat="47.50626" lon="6.75393">
        <ele>332</ele>
        <time>2015-12-06T11:28:33.000Z</time>
      </trkpt>
      <trkpt lat="47.50629" lon="6.75394">
        <ele>332</ele>
        <time>2015-12-06T11:28:34.000Z</time>
      </trkpt>
      <trkpt lat="47.50633" lon="6.75395">
        <ele>332</ele>
        <time>2015-12-06T11:28:35.000Z</time>
      </trkpt>
      <trkpt lat="47.50636" lon="6.75397">
        <ele>332</ele>
        <time>2015-12-06T11:28:36.000Z</time>
      </trkpt>
      <trkpt lat="47.50638" lon="6.75398">
        <ele>332</ele>
        <time>2015-12-06T11:28:37.000Z</time>
      </trkpt>
      <trkpt lat="47.50641" lon="6.754">
        <ele>332</ele>
        <time>2015-12-06T11:28:38.000Z</time>
      </trkpt>
      <trkpt lat="47.50644" lon="6.75402">
        <ele>332</ele>
        <time>2015-12-06T11:28:39.000Z</time>
      </trkpt>
      <trkpt lat="47.50646" lon="6.75403">
        <ele>332</ele>
        <time>2015-12-06T11:28:40.000Z</time>
      </trkpt>
      <trkpt lat="47.50649" lon="6.75404">
        <ele>332</ele>
        <time>2015-12-06T11:28:41.000Z</time>
      </trkpt>
      <trkpt lat="47.50652" lon="6.75406">
        <ele>332</ele>
        <time>2015-12-06T11:28:42.000Z</time>
      </trkpt>
      <trkpt lat="47.50654" lon="6.75408">
        <ele>333</ele>
        <time>2015-12-06T11:28:43.000Z</time>
      </trkpt>
      <trkpt lat="47.50656" lon="6.7541">
        <ele>333</ele>
        <time>2015-12-06T11:28:44.000Z</time>
      </trkpt>
      <trkpt lat="47.50658" lon="6.75411">
        <ele>333</ele>
        <time>2015-12-06T11:28:45.000Z</time>
      </trkpt>
      <trkpt lat="47.5066" lon="6.75413">
        <ele>333</ele>
        <time>2015-12-06T11:28:46.000Z</time>
      </trkpt>
      <trkpt lat="47.50662" lon="6.75415">
        <ele>333</ele>
        <time>2015-12-06T11:28:47.000Z</time>
      </trkpt>
      <trkpt lat="47.50664" lon="6.75417">
        <ele>335</ele>
        <time>2015-12-06T11:28:48.000Z</time>
      </trkpt>
      <trkpt lat="47.50666" lon="6.75419">
        <ele>335</ele>
        <time>2015-12-06T11:28:49.000Z</time>
      </trkpt>
      <trkpt lat="47.50668" lon="6.75422">
        <ele>335</ele>
        <time>2015-12-06T11:28:50.000Z</time>
      </trkpt>
      <trkpt lat="47.50669" lon="6.75425">
        <ele>336</ele>
        <time>2015-12-06T11:28:51.000Z</time>
      </trkpt>
      <trkpt lat="47.50671" lon="6.75427">
        <ele>336</ele>
        <time>2015-12-06T11:28:52.000Z</time>
      </trkpt>
      <trkpt lat="47.50672" lon="6.7543">
        <ele>337</ele>
        <time>2015-12-06T11:28:53.000Z</time>
      </trkpt>
      <trkpt lat="47.50673" lon="6.75433">
        <ele>337</ele>
        <time>2015-12-06T11:28:54.000Z</time>
      </trkpt>
      <trkpt lat="47.50674" lon="6.75436">
        <ele>337</ele>
        <time>2015-12-06T11:28:55.000Z</time>
      </trkpt>
      <trkpt lat="47.50676" lon="6.75439">
        <ele>338</ele>
        <time>2015-12-06T11:28:56.000Z</time>
      </trkpt>
      <trkpt lat="47.50677" lon="6.75442">
        <ele>338</ele>
        <time>2015-12-06T11:28:57.000Z</time>
      </trkpt>
      <trkpt lat="47.50679" lon="6.75445">
        <ele>338</ele>
        <time>2015-12-06T11:28:58.000Z</time>
      </trkpt>
      <trkpt lat="47.5068" lon="6.75448">
        <ele>339</ele>
        <time>2015-12-06T11:28:59.000Z</time>
      </trkpt>
      <trkpt lat="47.50681" lon="6.75451">
        <ele>339</ele>
        <time>2015-12-06T11:29:00.000Z</time>
      </trkpt>
      <trkpt lat="47.50682" lon="6.75454">
        <ele>339</ele>
        <time>2015-12-06T11:29:01.000Z</time>
      </trkpt>
      <trkpt lat="47.50683" lon="6.75458">
        <ele>339</ele>
        <time>2015-12-06T11:29:02.000Z</time>
      </trkpt>
      <trkpt lat="47.50684" lon="6.75461">
        <ele>340</ele>
        <time>2015-12-06T11:29:03.000Z</time>
      </trkpt>
      <trkpt lat="47.50685" lon="6.75464">
        <ele>340</ele>
        <time>2015-12-06T11:29:04.000Z</time>
      </trkpt>
      <trkpt lat="47.50686" lon="6.75467">
        <ele>340</ele>
        <time>2015-12-06T11:29:05.000Z</time>
      </trkpt>
      <trkpt lat="47.50687" lon="6.7547">
        <ele>340</ele>
        <time>2015-12-06T11:29:06.000Z</time>
      </trkpt>
      <trkpt lat="47.50688" lon="6.75474">
        <ele>340</ele>
        <time>2015-12-06T11:29:07.000Z</time>
      </trkpt>
      <trkpt lat="47.50689" lon="6.75477">
        <ele>341</ele>
        <time>2015-12-06T11:29:08.000Z</time>
      </trkpt>
      <trkpt lat="47.50691" lon="6.7548">
        <ele>341</ele>
        <time>2015-12-06T11:29:09.000Z</time>
      </trkpt>
      <trkpt lat="47.50692" lon="6.75483">
        <ele>341</ele>
        <time>2015-12-06T11:29:10.000Z</time>
      </trkpt>
      <trkpt lat="47.50693" lon="6.75486">
        <ele>341</ele>
        <time>2015-12-06T11:29:11.000Z</time>
      </trkpt>
      <trkpt lat="47.50694" lon="6.7549">
        <ele>341</ele>
        <time>2015-12-06T11:29:12.000Z</time>
      </trkpt>
      <trkpt lat="47.50696" lon="6.75493">
        <ele>341</ele>
        <time>2015-12-06T11:29:13.000Z</time>
      </trkpt>
      <trkpt lat="47.50698" lon="6.75497">
        <ele>341</ele>
        <time>2015-12-06T11:29:14.000Z</time>
      </trkpt>
      <trkpt lat="47.507" lon="6.755">
        <ele>346</ele>
        <time>2015-12-06T11:29:15.000Z</time>
      </trkpt>
      <trkpt lat="47.50702" lon="6.75504">
        <ele>346</ele>
        <time>2015-12-06T11:29:16.000Z</time>
      </trkpt>
      <trkpt lat="47.50703" lon="6.75507">
        <ele>346</ele>
        <time>2015-12-06T11:29:17.000Z</time>
      </trkpt>
      <trkpt lat="47.50704" lon="6.75511">
        <ele>346</ele>
        <time>2015-12-06T11:29:18.000Z</time>
      </trkpt>
      <trkpt lat="47.50706" lon="6.75514">
        <ele>346</ele>
        <time>2015-12-06T11:29:19.000Z</time>
      </trkpt>
      <trkpt lat="47.50707" lon="6.75518">
        <ele>347</ele>
        <time>2015-12-06T11:29:20.000Z</time>
      </trkpt>
      <trkpt lat="47.50708" lon="6.75521">
        <ele>347</ele>
        <time>2015-12-06T11:29:21.000Z</time>
      </trkpt>
      <trkpt lat="47.50708" lon="6.75524">
        <ele>347</ele>
        <time>2015-12-06T11:29:22.000Z</time>
      </trkpt>
      <trkpt lat="47.50709" lon="6.75528">
        <ele>347</ele>
        <time>2015-12-06T11:29:23.000Z</time>
      </trkpt>
      <trkpt lat="47.50709" lon="6.75531">
        <ele>347</ele>
        <time>2015-12-06T11:29:24.000Z</time>
      </trkpt>
      <trkpt lat="47.5071" lon="6.75534">
        <ele>347</ele>
        <time>2015-12-06T11:29:25.000Z</time>
      </trkpt>
      <trkpt lat="47.5071" lon="6.75538">
        <ele>347</ele>
        <time>2015-12-06T11:29:26.000Z</time>
      </trkpt>
      <trkpt lat="47.5071" lon="6.75541">
        <ele>347</ele>
        <time>2015-12-06T11:29:27.000Z</time>
      </trkpt>
      <trkpt lat="47.50711" lon="6.75544">
        <ele>348</ele>
        <time>2015-12-06T11:29:28.000Z</time>
      </trkpt>
      <trkpt lat="47.50711" lon="6.75548">
        <ele>348</ele>
        <time>2015-12-06T11:29:29.000Z</time>
      </trkpt>
      <trkpt lat="47.50711" lon="6.75551">
        <ele>348</ele>
        <time>2015-12-06T11:29:30.000Z</time>
      </trkpt>
      <trkpt lat="47.50712" lon="6.75555">
        <ele>348</ele>
        <time>2015-12-06T11:29:31.000Z</time>
      </trkpt>
      <trkpt lat="47.50713" lon="6.75558">
        <ele>348</ele>
        <time>2015-12-06T11:29:32.000Z</time>
      </trkpt>
      <trkpt lat="47.50713" lon="6.75562">
        <ele>348</ele>
        <time>2015-12-06T11:29:33.000Z</time>
      </trkpt>
      <trkpt lat="47.50714" lon="6.75566">
        <ele>348</ele>
        <time>2015-12-06T11:29:34.000Z</time>
      </trkpt>
      <trkpt lat="47.50715" lon="6.7557">
        <ele>349</ele>
        <time>2015-12-06T11:29:35.000Z</time>
      </trkpt>
      <trkpt lat="47.50715" lon="6.75574">
        <ele>349</ele>
        <time>2015-12-06T11:29:36.000Z</time>
      </trkpt>
      <trkpt lat="47.50716" lon="6.75578">
        <ele>349</ele>
        <time>2015-12-06T11:29:37.000Z</time>
      </trkpt>
      <trkpt lat="47.50717" lon="6.75582">
        <ele>349</ele>
        <time>2015-12-06T11:29:38.000Z</time>
      </trkpt>
      <trkpt lat="47.50717" lon="6.75586">
        <ele>354</ele>
        <time>2015-12-06T11:29:39.000Z</time>
      </trkpt>
      <trkpt lat="47.50718" lon="6.7559">
        <ele>354</ele>
        <time>2015-12-06T11:29:40.000Z</time>
      </trkpt>
      <trkpt lat="47.50718" lon="6.75594">
        <ele>354</ele>
        <time>2015-12-06T11:29:41.000Z</time>
      </trkpt>
      <trkpt lat="47.50718" lon="6.75598">
        <ele>354</ele>
        <time>2015-12-06T11:29:42.000Z</time>
      </trkpt>
      <trkpt lat="47.50718" lon="6.75602">
        <ele>354</ele>
        <time>2015-12-06T11:29:43.000Z</time>
      </trkpt>
      <trkpt lat="47.50718" lon="6.75606">
        <ele>354</ele>
        <time>2015-12-06T11:29:43.999Z</time>
      </trkpt>
      <trkpt lat="47.50718" lon="6.7561">
        <ele>354</ele>
        <time>2015-12-06T11:29:45.000Z</time>
      </trkpt>
      <trkpt lat="47.50718" lon="6.75613">
        <ele>355</ele>
        <time>2015-12-06T11:29:46.000Z</time>
      </trkpt>
      <trkpt lat="47.50719" lon="6.75616">
        <ele>355</ele>
        <time>2015-12-06T11:29:47.000Z</time>
      </trkpt>
      <trkpt lat="47.5072" lon="6.7562">
        <ele>355</ele>
        <time>2015-12-06T11:29:48.000Z</time>
      </trkpt>
      <trkpt lat="47.5072" lon="6.75623">
        <ele>355</ele>
        <time>2015-12-06T11:29:49.000Z</time>
      </trkpt>
      <trkpt lat="47.50721" lon="6.75627">
        <ele>355</ele>
        <time>2015-12-06T11:29:50.000Z</time>
      </trkpt>
      <trkpt lat="47.50721" lon="6.75631">
        <ele>355</ele>
        <time>2015-12-06T11:29:51.000Z</time>
      </trkpt>
      <trkpt lat="47.50721" lon="6.75634">
        <ele>356</ele>
        <time>2015-12-06T11:29:52.000Z</time>
      </trkpt>
      <trkpt lat="47.5072" lon="6.75638">
        <ele>356</ele>
        <time>2015-12-06T11:29:53.000Z</time>
      </trkpt>
      <trkpt lat="47.50719" lon="6.75642">
        <ele>356</ele>
        <time>2015-12-06T11:29:54.000Z</time>
      </trkpt>
      <trkpt lat="47.50718" lon="6.75646">
        <ele>356</ele>
        <time>2015-12-06T11:29:55.000Z</time>
      </trkpt>
      <trkpt lat="47.50718" lon="6.7565">
        <ele>356</ele>
        <time>2015-12-06T11:29:56.000Z</time>
      </trkpt>
      <trkpt lat="47.50717" lon="6.75654">
        <ele>356</ele>
        <time>2015-12-06T11:29:57.000Z</time>
      </trkpt>
      <trkpt lat="47.50717" lon="6.75657">
        <ele>357</ele>
        <time>2015-12-06T11:29:58.000Z</time>
      </trkpt>
      <trkpt lat="47.50717" lon="6.7566">
        <ele>357</ele>
        <time>2015-12-06T11:29:59.000Z</time>
      </trkpt>
      <trkpt lat="47.50717" lon="6.75664">
        <ele>357</ele>
        <time>2015-12-06T11:30:00.000Z</time>
      </trkpt>
      <trkpt lat="47.50717" lon="6.75667">
        <ele>362</ele>
        <time>2015-12-06T11:30:01.000Z</time>
      </trkpt>
      <trkpt lat="47.50718" lon="6.75671">
        <ele>362</ele>
        <time>2015-12-06T11:30:02.000Z</time>
      </trkpt>
      <trkpt lat="47.50718" lon="6.75674">
        <ele>362</ele>
        <time>2015-12-06T11:30:03.000Z</time>
      </trkpt>
      <trkpt lat="47.50719" lon="6.75678">
        <ele>362</ele>
        <time>2015-12-06T11:30:04.000Z</time>
      </trkpt>
      <trkpt lat="47.50719" lon="6.75681">
        <ele>362</ele>
        <time>2015-12-06T11:30:05.000Z</time>
      </trkpt>
      <trkpt lat="47.50718" lon="6.75685">
        <ele>362</ele>
        <time>2015-12-06T11:30:06.000Z</time>
      </trkpt>
      <trkpt lat="47.50717" lon="6.75689">
        <ele>363</ele>
        <time>2015-12-06T11:30:07.000Z</time>
      </trkpt>
      <trkpt lat="47.50716" lon="6.75692">
        <ele>363</ele>
        <time>2015-12-06T11:30:08.000Z</time>
      </trkpt>
      <trkpt lat="47.50715" lon="6.75696">
        <ele>363</ele>
        <time>2015-12-06T11:30:09.000Z</time>
      </trkpt>
      <trkpt lat="47.50714" lon="6.757">
        <ele>363</ele>
        <time>2015-12-06T11:30:10.000Z</time>
      </trkpt>
      <trkpt lat="47.50714" lon="6.75703">
        <ele>364</ele>
        <time>2015-12-06T11:30:11.000Z</time>
      </trkpt>
      <trkpt lat="47.50714" lon="6.75709">
        <ele>364</ele>
        <time>2015-12-06T11:30:13.000Z</time>
      </trkpt>
      <trkpt lat="47.50715" lon="6.75712">
        <ele>364</ele>
        <time>2015-12-06T11:30:14.000Z</time>
      </trkpt>
      <trkpt lat="47.50715" lon="6.75718">
        <ele>364</ele>
        <time>2015-12-06T11:30:16.000Z</time>
      </trkpt>
      <trkpt lat="47.50715" lon="6.75721">
        <ele>364</ele>
        <time>2015-12-06T11:30:17.000Z</time>
      </trkpt>
      <trkpt lat="47.50715" lon="6.75728">
        <ele>365</ele>
        <time>2015-12-06T11:30:19.000Z</time>
      </trkpt>
      <trkpt lat="47.50715" lon="6.75731">
        <ele>365</ele>
        <time>2015-12-06T11:30:20.000Z</time>
      </trkpt>
      <trkpt lat="47.50714" lon="6.75734">
        <ele>365</ele>
        <time>2015-12-06T11:30:21.000Z</time>
      </trkpt>
      <trkpt lat="47.50712" lon="6.75738">
        <ele>365</ele>
        <time>2015-12-06T11:30:22.000Z</time>
      </trkpt>
      <trkpt lat="47.5071" lon="6.75741">
        <ele>365</ele>
        <time>2015-12-06T11:30:23.000Z</time>
      </trkpt>
      <trkpt lat="47.5071" lon="6.75745">
        <ele>365</ele>
        <time>2015-12-06T11:30:24.000Z</time>
      </trkpt>
      <trkpt lat="47.5071" lon="6.75748">
        <ele>366</ele>
        <time>2015-12-06T11:30:25.000Z</time>
      </trkpt>
      <trkpt lat="47.5071" lon="6.75752">
        <ele>371</ele>
        <time>2015-12-06T11:30:26.000Z</time>
      </trkpt>
      <trkpt lat="47.50709" lon="6.75756">
        <ele>371</ele>
        <time>2015-12-06T11:30:27.000Z</time>
      </trkpt>
      <trkpt lat="47.50708" lon="6.75759">
        <ele>371</ele>
        <time>2015-12-06T11:30:28.000Z</time>
      </trkpt>
      <trkpt lat="47.50707" lon="6.75763">
        <ele>371</ele>
        <time>2015-12-06T11:30:29.000Z</time>
      </trkpt>
      <trkpt lat="47.50706" lon="6.75767">
        <ele>371</ele>
        <time>2015-12-06T11:30:30.000Z</time>
      </trkpt>
      <trkpt lat="47.50706" lon="6.7577">
        <ele>371</ele>
        <time>2015-12-06T11:30:31.000Z</time>
      </trkpt>
      <trkpt lat="47.50707" lon="6.75774">
        <ele>371</ele>
        <time>2015-12-06T11:30:32.000Z</time>
      </trkpt>
      <trkpt lat="47.50707" lon="6.75777">
        <ele>371</ele>
        <time>2015-12-06T11:30:33.000Z</time>
      </trkpt>
      <trkpt lat="47.50708" lon="6.7578">
        <ele>372</ele>
        <time>2015-12-06T11:30:34.000Z</time>
      </trkpt>
      <trkpt lat="47.50707" lon="6.75784">
        <ele>372</ele>
        <time>2015-12-06T11:30:35.000Z</time>
      </trkpt>
      <trkpt lat="47.50702" lon="6.75787">
        <ele>372</ele>
        <time>2015-12-06T11:30:36.000Z</time>
      </trkpt>
      <trkpt lat="47.50698" lon="6.75789">
        <ele>372</ele>
        <time>2015-12-06T11:30:37.000Z</time>
      </trkpt>
      <trkpt lat="47.507" lon="6.75793">
        <ele>372</ele>
        <time>2015-12-06T11:30:38.000Z</time>
      </trkpt>
      <trkpt lat="47.50699" lon="6.75796">
        <ele>373</ele>
        <time>2015-12-06T11:30:38.999Z</time>
      </trkpt>
      <trkpt lat="47.50702" lon="6.75799">
        <ele>373</ele>
        <time>2015-12-06T11:30:40.000Z</time>
      </trkpt>
      <trkpt lat="47.50703" lon="6.75803">
        <ele>373</ele>
        <time>2015-12-06T11:30:41.000Z</time>
      </trkpt>
      <trkpt lat="47.50703" lon="6.75807">
        <ele>373</ele>
        <time>2015-12-06T11:30:41.999Z</time>
      </trkpt>
      <trkpt lat="47.50704" lon="6.7581">
        <ele>373</ele>
        <time>2015-12-06T11:30:43.000Z</time>
      </trkpt>
      <trkpt lat="47.50704" lon="6.75813">
        <ele>373</ele>
        <time>2015-12-06T11:30:44.000Z</time>
      </trkpt>
      <trkpt lat="47.50704" lon="6.75817">
        <ele>373</ele>
        <time>2015-12-06T11:30:45.000Z</time>
      </trkpt>
      <trkpt lat="47.50704" lon="6.75822">
        <ele>373</ele>
        <time>2015-12-06T11:30:47.000Z</time>
      </trkpt>
      <trkpt lat="47.50705" lon="6.75825">
        <ele>373</ele>
        <time>2015-12-06T11:30:48.000Z</time>
      </trkpt>
      <trkpt lat="47.50703" lon="6.75831">
        <ele>374</ele>
        <time>2015-12-06T11:30:50.000Z</time>
      </trkpt>
      <trkpt lat="47.50702" lon="6.75834">
        <ele>377</ele>
        <time>2015-12-06T11:30:51.000Z</time>
      </trkpt>
      <trkpt lat="47.507" lon="6.7584">
        <ele>378</ele>
        <time>2015-12-06T11:30:53.000Z</time>
      </trkpt>
      <trkpt lat="47.507" lon="6.75843">
        <ele>378</ele>
        <time>2015-12-06T11:30:54.000Z</time>
      </trkpt>
      <trkpt lat="47.507" lon="6.75849">
        <ele>378</ele>
        <time>2015-12-06T11:30:56.000Z</time>
      </trkpt>
      <trkpt lat="47.50699" lon="6.75853">
        <ele>378</ele>
        <time>2015-12-06T11:30:57.000Z</time>
      </trkpt>
      <trkpt lat="47.50698" lon="6.75856">
        <ele>378</ele>
        <time>2015-12-06T11:30:58.000Z</time>
      </trkpt>
      <trkpt lat="47.50697" lon="6.7586">
        <ele>378</ele>
        <time>2015-12-06T11:30:59.000Z</time>
      </trkpt>
      <trkpt lat="47.50696" lon="6.75863">
        <ele>378</ele>
        <time>2015-12-06T11:30:59.999Z</time>
      </trkpt>
      <trkpt lat="47.50695" lon="6.75866">
        <ele>378</ele>
        <time>2015-12-06T11:31:01.000Z</time>
      </trkpt>
      <trkpt lat="47.50694" lon="6.7587">
        <ele>378</ele>
        <time>2015-12-06T11:31:02.000Z</time>
      </trkpt>
      <trkpt lat="47.50695" lon="6.75874">
        <ele>378</ele>
        <time>2015-12-06T11:31:03.000Z</time>
      </trkpt>
      <trkpt lat="47.50695" lon="6.75877">
        <ele>379</ele>
        <time>2015-12-06T11:31:04.000Z</time>
      </trkpt>
      <trkpt lat="47.50695" lon="6.75881">
        <ele>379</ele>
        <time>2015-12-06T11:31:05.000Z</time>
      </trkpt>
      <trkpt lat="47.50696" lon="6.75884">
        <ele>379</ele>
        <time>2015-12-06T11:31:06.000Z</time>
      </trkpt>
      <trkpt lat="47.50697" lon="6.75888">
        <ele>379</ele>
        <time>2015-12-06T11:31:07.000Z</time>
      </trkpt>
      <trkpt lat="47.50697" lon="6.75892">
        <ele>379</ele>
        <time>2015-12-06T11:31:08.000Z</time>
      </trkpt>
      <trkpt lat="47.50698" lon="6.75895">
        <ele>379</ele>
        <time>2015-12-06T11:31:09.000Z</time>
      </trkpt>
      <trkpt lat="47.50698" lon="6.75898">
        <ele>379</ele>
        <time>2015-12-06T11:31:10.000Z</time>
      </trkpt>
      <trkpt lat="47.507" lon="6.75901">
        <ele>379</ele>
        <time>2015-12-06T11:31:11.000Z</time>
      </trkpt>
      <trkpt lat="47.50701" lon="6.75907">
        <ele>379</ele>
        <time>2015-12-06T11:31:13.000Z</time>
      </trkpt>
      <trkpt lat="47.507" lon="6.75911">
        <ele>379</ele>
        <time>2015-12-06T11:31:14.000Z</time>
      </trkpt>
      <trkpt lat="47.50699" lon="6.75914">
        <ele>379</ele>
        <time>2015-12-06T11:31:15.000Z</time>
      </trkpt>
      <trkpt lat="47.50698" lon="6.75917">
        <ele>382</ele>
        <time>2015-12-06T11:31:15.999Z</time>
      </trkpt>
      <trkpt lat="47.50699" lon="6.75921">
        <ele>382</ele>
        <time>2015-12-06T11:31:17.000Z</time>
      </trkpt>
      <trkpt lat="47.50699" lon="6.75924">
        <ele>383</ele>
        <time>2015-12-06T11:31:18.000Z</time>
      </trkpt>
      <trkpt lat="47.50701" lon="6.75928">
        <ele>383</ele>
        <time>2015-12-06T11:31:19.000Z</time>
      </trkpt>
      <trkpt lat="47.50701" lon="6.75932">
        <ele>383</ele>
        <time>2015-12-06T11:31:20.000Z</time>
      </trkpt>
      <trkpt lat="47.507" lon="6.75936">
        <ele>383</ele>
        <time>2015-12-06T11:31:21.000Z</time>
      </trkpt>
      <trkpt lat="47.507" lon="6.75939">
        <ele>383</ele>
        <time>2015-12-06T11:31:22.000Z</time>
      </trkpt>
      <trkpt lat="47.507" lon="6.75943">
        <ele>383</ele>
        <time>2015-12-06T11:31:23.000Z</time>
      </trkpt>
      <trkpt lat="47.507" lon="6.75947">
        <ele>383</ele>
        <time>2015-12-06T11:31:24.000Z</time>
      </trkpt>
      <trkpt lat="47.50701" lon="6.75951">
        <ele>383</ele>
        <time>2015-12-06T11:31:25.000Z</time>
      </trkpt>
      <trkpt lat="47.50701" lon="6.75956">
        <ele>383</ele>
        <time>2015-12-06T11:31:26.000Z</time>
      </trkpt>
      <trkpt lat="47.50701" lon="6.7596">
        <ele>383</ele>
        <time>2015-12-06T11:31:26.999Z</time>
      </trkpt>
      <trkpt lat="47.50703" lon="6.75964">
        <ele>383</ele>
        <time>2015-12-06T11:31:28.000Z</time>
      </trkpt>
      <trkpt lat="47.50704" lon="6.75969">
        <ele>384</ele>
        <time>2015-12-06T11:31:29.000Z</time>
      </trkpt>
      <trkpt lat="47.50704" lon="6.75973">
        <ele>384</ele>
        <time>2015-12-06T11:31:30.000Z</time>
      </trkpt>
      <trkpt lat="47.50705" lon="6.75977">
        <ele>384</ele>
        <time>2015-12-06T11:31:31.000Z</time>
      </trkpt>
      <trkpt lat="47.50704" lon="6.75981">
        <ele>384</ele>
        <time>2015-12-06T11:31:32.000Z</time>
      </trkpt>
      <trkpt lat="47.50703" lon="6.75987">
        <ele>384</ele>
        <time>2015-12-06T11:31:33.999Z</time>
      </trkpt>
      <trkpt lat="47.50703" lon="6.75989">
        <ele>384</ele>
        <time>2015-12-06T11:31:35.000Z</time>
      </trkpt>
      <trkpt lat="47.50703" lon="6.75995">
        <ele>384</ele>
        <time>2015-12-06T11:31:37.000Z</time>
      </trkpt>
      <trkpt lat="47.50703" lon="6.75999">
        <ele>384</ele>
        <time>2015-12-06T11:31:38.000Z</time>
      </trkpt>
      <trkpt lat="47.50703" lon="6.76002">
        <ele>387</ele>
        <time>2015-12-06T11:31:39.000Z</time>
      </trkpt>
      <trkpt lat="47.50703" lon="6.76006">
        <ele>387</ele>
        <time>2015-12-06T11:31:40.000Z</time>
      </trkpt>
      <trkpt lat="47.50704" lon="6.7601">
        <ele>387</ele>
        <time>2015-12-06T11:31:41.000Z</time>
      </trkpt>
      <trkpt lat="47.50704" lon="6.76014">
        <ele>387</ele>
        <time>2015-12-06T11:31:42.000Z</time>
      </trkpt>
      <trkpt lat="47.50704" lon="6.76018">
        <ele>387</ele>
        <time>2015-12-06T11:31:43.000Z</time>
      </trkpt>
      <trkpt lat="47.50704" lon="6.76022">
        <ele>387</ele>
        <time>2015-12-06T11:31:44.000Z</time>
      </trkpt>
      <trkpt lat="47.50703" lon="6.76026">
        <ele>387</ele>
        <time>2015-12-06T11:31:45.000Z</time>
      </trkpt>
      <trkpt lat="47.50703" lon="6.7603">
        <ele>387</ele>
        <time>2015-12-06T11:31:46.000Z</time>
      </trkpt>
      <trkpt lat="47.50703" lon="6.76033">
        <ele>387</ele>
        <time>2015-12-06T11:31:47.000Z</time>
      </trkpt>
      <trkpt lat="47.50703" lon="6.76037">
        <ele>387</ele>
        <time>2015-12-06T11:31:48.000Z</time>
      </trkpt>
      <trkpt lat="47.50704" lon="6.7604">
        <ele>387</ele>
        <time>2015-12-06T11:31:49.000Z</time>
      </trkpt>
      <trkpt lat="47.50705" lon="6.76044">
        <ele>387</ele>
        <time>2015-12-06T11:31:50.000Z</time>
      </trkpt>
      <trkpt lat="47.50706" lon="6.76048">
        <ele>387</ele>
        <time>2015-12-06T11:31:51.000Z</time>
      </trkpt>
      <trkpt lat="47.50707" lon="6.76052">
        <ele>387</ele>
        <time>2015-12-06T11:31:52.000Z</time>
      </trkpt>
      <trkpt lat="47.50708" lon="6.76056">
        <ele>387</ele>
        <time>2015-12-06T11:31:53.000Z</time>
      </trkpt>
      <trkpt lat="47.50708" lon="6.7606">
        <ele>387</ele>
        <time>2015-12-06T11:31:54.000Z</time>
      </trkpt>
      <trkpt lat="47.50708" lon="6.76064">
        <ele>387</ele>
        <time>2015-12-06T11:31:55.000Z</time>
      </trkpt>
      <trkpt lat="47.50709" lon="6.76068">
        <ele>387</ele>
        <time>2015-12-06T11:31:56.000Z</time>
      </trkpt>
      <trkpt lat="47.50709" lon="6.76071">
        <ele>387</ele>
        <time>2015-12-06T11:31:56.999Z</time>
      </trkpt>
      <trkpt lat="47.50709" lon="6.76076">
        <ele>387</ele>
        <time>2015-12-06T11:31:58.000Z</time>
      </trkpt>
      <trkpt lat="47.50709" lon="6.7608">
        <ele>387</ele>
        <time>2015-12-06T11:31:59.000Z</time>
      </trkpt>
      <trkpt lat="47.50708" lon="6.76084">
        <ele>389</ele>
        <time>2015-12-06T11:32:00.000Z</time>
      </trkpt>
      <trkpt lat="47.50708" lon="6.76089">
        <ele>389</ele>
        <time>2015-12-06T11:32:01.000Z</time>
      </trkpt>
      <trkpt lat="47.50708" lon="6.76093">
        <ele>389</ele>
        <time>2015-12-06T11:32:02.000Z</time>
      </trkpt>
      <trkpt lat="47.50709" lon="6.76099">
        <ele>389</ele>
        <time>2015-12-06T11:32:03.000Z</time>
      </trkpt>
      <trkpt lat="47.50709" lon="6.76104">
        <ele>389</ele>
        <time>2015-12-06T11:32:04.000Z</time>
      </trkpt>
      <trkpt lat="47.50709" lon="6.76109">
        <ele>389</ele>
        <time>2015-12-06T11:32:05.000Z</time>
      </trkpt>
      <trkpt lat="47.50709" lon="6.76114">
        <ele>389</ele>
        <time>2015-12-06T11:32:06.000Z</time>
      </trkpt>
      <trkpt lat="47.50708" lon="6.76118">
        <ele>389</ele>
        <time>2015-12-06T11:32:06.999Z</time>
      </trkpt>
      <trkpt lat="47.50709" lon="6.76123">
        <ele>389</ele>
        <time>2015-12-06T11:32:08.000Z</time>
      </trkpt>
      <trkpt lat="47.5071" lon="6.76128">
        <ele>389</ele>
        <time>2015-12-06T11:32:09.000Z</time>
      </trkpt>
      <trkpt lat="47.50711" lon="6.76133">
        <ele>389</ele>
        <time>2015-12-06T11:32:10.000Z</time>
      </trkpt>
      <trkpt lat="47.50711" lon="6.76139">
        <ele>389</ele>
        <time>2015-12-06T11:32:11.000Z</time>
      </trkpt>
      <trkpt lat="47.50712" lon="6.76144">
        <ele>389</ele>
        <time>2015-12-06T11:32:12.000Z</time>
      </trkpt>
      <trkpt lat="47.50712" lon="6.76149">
        <ele>389</ele>
        <time>2015-12-06T11:32:13.000Z</time>
      </trkpt>
      <trkpt lat="47.50711" lon="6.76153">
        <ele>389</ele>
        <time>2015-12-06T11:32:14.000Z</time>
      </trkpt>
      <trkpt lat="47.5071" lon="6.76158">
        <ele>390</ele>
        <time>2015-12-06T11:32:14.999Z</time>
      </trkpt>
      <trkpt lat="47.50709" lon="6.76163">
        <ele>390</ele>
        <time>2015-12-06T11:32:16.000Z</time>
      </trkpt>
      <trkpt lat="47.50708" lon="6.76167">
        <ele>389</ele>
        <time>2015-12-06T11:32:17.000Z</time>
      </trkpt>
      <trkpt lat="47.50708" lon="6.76172">
        <ele>389</ele>
        <time>2015-12-06T11:32:18.000Z</time>
      </trkpt>
      <trkpt lat="47.50707" lon="6.76177">
        <ele>389</ele>
        <time>2015-12-06T11:32:19.000Z</time>
      </trkpt>
      <trkpt lat="47.50707" lon="6.76182">
        <ele>389</ele>
        <time>2015-12-06T11:32:20.000Z</time>
      </trkpt>
      <trkpt lat="47.50706" lon="6.76187">
        <ele>389</ele>
        <time>2015-12-06T11:32:20.999Z</time>
      </trkpt>
      <trkpt lat="47.50707" lon="6.76192">
        <ele>389</ele>
        <time>2015-12-06T11:32:22.000Z</time>
      </trkpt>
      <trkpt lat="47.50707" lon="6.76197">
        <ele>389</ele>
        <time>2015-12-06T11:32:23.000Z</time>
      </trkpt>
      <trkpt lat="47.50709" lon="6.76202">
        <ele>389</ele>
        <time>2015-12-06T11:32:24.000Z</time>
      </trkpt>
      <trkpt lat="47.50709" lon="6.76207">
        <ele>389</ele>
        <time>2015-12-06T11:32:25.000Z</time>
      </trkpt>
      <trkpt lat="47.5071" lon="6.76212">
        <ele>389</ele>
        <time>2015-12-06T11:32:26.000Z</time>
      </trkpt>
      <trkpt lat="47.5071" lon="6.76216">
        <ele>388</ele>
        <time>2015-12-06T11:32:27.000Z</time>
      </trkpt>
      <trkpt lat="47.50711" lon="6.76221">
        <ele>388</ele>
        <time>2015-12-06T11:32:28.000Z</time>
      </trkpt>
      <trkpt lat="47.50711" lon="6.76225">
        <ele>388</ele>
        <time>2015-12-06T11:32:29.000Z</time>
      </trkpt>
      <trkpt lat="47.5071" lon="6.76229">
        <ele>388</ele>
        <time>2015-12-06T11:32:30.001Z</time>
      </trkpt>
      <trkpt lat="47.5071" lon="6.76233">
        <ele>388</ele>
        <time>2015-12-06T11:32:31.000Z</time>
      </trkpt>
      <trkpt lat="47.5071" lon="6.76237">
        <ele>388</ele>
        <time>2015-12-06T11:32:32.000Z</time>
      </trkpt>
      <trkpt lat="47.5071" lon="6.76241">
        <ele>388</ele>
        <time>2015-12-06T11:32:33.000Z</time>
      </trkpt>
      <trkpt lat="47.50711" lon="6.76245">
        <ele>388</ele>
        <time>2015-12-06T11:32:34.000Z</time>
      </trkpt>
      <trkpt lat="47.50716" lon="6.7625">
        <ele>386</ele>
        <time>2015-12-06T11:32:35.000Z</time>
      </trkpt>
      <trkpt lat="47.50719" lon="6.76256">
        <ele>386</ele>
        <time>2015-12-06T11:32:36.000Z</time>
      </trkpt>
      <trkpt lat="47.50721" lon="6.76261">
        <ele>386</ele>
        <time>2015-12-06T11:32:36.999Z</time>
      </trkpt>
      <trkpt lat="47.50723" lon="6.76265">
        <ele>386</ele>
        <time>2015-12-06T11:32:38.000Z</time>
      </trkpt>
      <trkpt lat="47.50724" lon="6.76269">
        <ele>386</ele>
        <time>2015-12-06T11:32:39.000Z</time>
      </trkpt>
      <trkpt lat="47.50727" lon="6.76275">
        <ele>385</ele>
        <time>2015-12-06T11:32:40.000Z</time>
      </trkpt>
      <trkpt lat="47.50729" lon="6.76279">
        <ele>385</ele>
        <time>2015-12-06T11:32:41.000Z</time>
      </trkpt>
      <trkpt lat="47.50732" lon="6.76283">
        <ele>385</ele>
        <time>2015-12-06T11:32:42.000Z</time>
      </trkpt>
      <trkpt lat="47.50732" lon="6.76287">
        <ele>385</ele>
        <time>2015-12-06T11:32:43.000Z</time>
      </trkpt>
      <trkpt lat="47.50734" lon="6.76291">
        <ele>385</ele>
        <time>2015-12-06T11:32:44.000Z</time>
      </trkpt>
      <trkpt lat="47.50736" lon="6.76296">
        <ele>385</ele>
        <time>2015-12-06T11:32:45.000Z</time>
      </trkpt>
      <trkpt lat="47.50737" lon="6.76301">
        <ele>385</ele>
        <time>2015-12-06T11:32:46.000Z</time>
      </trkpt>
      <trkpt lat="47.50739" lon="6.76305">
        <ele>385</ele>
        <time>2015-12-06T11:32:47.000Z</time>
      </trkpt>
      <trkpt lat="47.50741" lon="6.76309">
        <ele>384</ele>
        <time>2015-12-06T11:32:48.000Z</time>
      </trkpt>
      <trkpt lat="47.50742" lon="6.76313">
        <ele>384</ele>
        <time>2015-12-06T11:32:48.998Z</time>
      </trkpt>
      <trkpt lat="47.50745" lon="6.76316">
        <ele>384</ele>
        <time>2015-12-06T11:32:50.000Z</time>
      </trkpt>
      <trkpt lat="47.50747" lon="6.76319">
        <ele>384</ele>
        <time>2015-12-06T11:32:51.000Z</time>
      </trkpt>
      <trkpt lat="47.50749" lon="6.76323">
        <ele>383</ele>
        <time>2015-12-06T11:32:52.000Z</time>
      </trkpt>
      <trkpt lat="47.5075" lon="6.76326">
        <ele>383</ele>
        <time>2015-12-06T11:32:53.000Z</time>
      </trkpt>
      <trkpt lat="47.50752" lon="6.7633">
        <ele>383</ele>
        <time>2015-12-06T11:32:54.000Z</time>
      </trkpt>
      <trkpt lat="47.50753" lon="6.76333">
        <ele>383</ele>
        <time>2015-12-06T11:32:55.000Z</time>
      </trkpt>
      <trkpt lat="47.50755" lon="6.76337">
        <ele>383</ele>
        <time>2015-12-06T11:32:56.000Z</time>
      </trkpt>
      <trkpt lat="47.50756" lon="6.7634">
        <ele>384</ele>
        <time>2015-12-06T11:32:57.000Z</time>
      </trkpt>
      <trkpt lat="47.50758" lon="6.76343">
        <ele>384</ele>
        <time>2015-12-06T11:32:58.000Z</time>
      </trkpt>
      <trkpt lat="47.50759" lon="6.76346">
        <ele>385</ele>
        <time>2015-12-06T11:32:59.000Z</time>
      </trkpt>
      <trkpt lat="47.50761" lon="6.7635">
        <ele>385</ele>
        <time>2015-12-06T11:33:00.000Z</time>
      </trkpt>
      <trkpt lat="47.50762" lon="6.76353">
        <ele>386</ele>
        <time>2015-12-06T11:33:01.001Z</time>
      </trkpt>
      <trkpt lat="47.50763" lon="6.76357">
        <ele>386</ele>
        <time>2015-12-06T11:33:02.000Z</time>
      </trkpt>
      <trkpt lat="47.50765" lon="6.7636">
        <ele>386</ele>
        <time>2015-12-06T11:33:03.000Z</time>
      </trkpt>
      <trkpt lat="47.50766" lon="6.76362">
        <ele>386</ele>
        <time>2015-12-06T11:33:04.000Z</time>
      </trkpt>
      <trkpt lat="47.50767" lon="6.76365">
        <ele>387</ele>
        <time>2015-12-06T11:33:05.000Z</time>
      </trkpt>
      <trkpt lat="47.50768" lon="6.76368">
        <ele>387</ele>
        <time>2015-12-06T11:33:06.000Z</time>
      </trkpt>
      <trkpt lat="47.5077" lon="6.76371">
        <ele>387</ele>
        <time>2015-12-06T11:33:07.000Z</time>
      </trkpt>
      <trkpt lat="47.50771" lon="6.76374">
        <ele>387</ele>
        <time>2015-12-06T11:33:08.000Z</time>
      </trkpt>
      <trkpt lat="47.50773" lon="6.76377">
        <ele>387</ele>
        <time>2015-12-06T11:33:09.000Z</time>
      </trkpt>
      <trkpt lat="47.50774" lon="6.76381">
        <ele>388</ele>
        <time>2015-12-06T11:33:10.000Z</time>
      </trkpt>
      <trkpt lat="47.50775" lon="6.76384">
        <ele>388</ele>
        <time>2015-12-06T11:33:11.000Z</time>
      </trkpt>
      <trkpt lat="47.50776" lon="6.76388">
        <ele>388</ele>
        <time>2015-12-06T11:33:12.000Z</time>
      </trkpt>
      <trkpt lat="47.50777" lon="6.76391">
        <ele>388</ele>
        <time>2015-12-06T11:33:13.000Z</time>
      </trkpt>
      <trkpt lat="47.50778" lon="6.76395">
        <ele>388</ele>
        <time>2015-12-06T11:33:14.000Z</time>
      </trkpt>
      <trkpt lat="47.50779" lon="6.76399">
        <ele>388</ele>
        <time>2015-12-06T11:33:15.000Z</time>
      </trkpt>
      <trkpt lat="47.5078" lon="6.76402">
        <ele>388</ele>
        <time>2015-12-06T11:33:16.000Z</time>
      </trkpt>
      <trkpt lat="47.50781" lon="6.76405">
        <ele>388</ele>
        <time>2015-12-06T11:33:17.000Z</time>
      </trkpt>
      <trkpt lat="47.50782" lon="6.76409">
        <ele>388</ele>
        <time>2015-12-06T11:33:17.999Z</time>
      </trkpt>
      <trkpt lat="47.50783" lon="6.76412">
        <ele>388</ele>
        <time>2015-12-06T11:33:19.000Z</time>
      </trkpt>
      <trkpt lat="47.50784" lon="6.76415">
        <ele>388</ele>
        <time>2015-12-06T11:33:19.999Z</time>
      </trkpt>
      <trkpt lat="47.50784" lon="6.76422">
        <ele>391</ele>
        <time>2015-12-06T11:33:22.000Z</time>
      </trkpt>
      <trkpt lat="47.50785" lon="6.76425">
        <ele>391</ele>
        <time>2015-12-06T11:33:23.000Z</time>
      </trkpt>
      <trkpt lat="47.50785" lon="6.76431">
        <ele>391</ele>
        <time>2015-12-06T11:33:25.000Z</time>
      </trkpt>
      <trkpt lat="47.50785" lon="6.76434">
        <ele>391</ele>
        <time>2015-12-06T11:33:26.000Z</time>
      </trkpt>
      <trkpt lat="47.50786" lon="6.76437">
        <ele>391</ele>
        <time>2015-12-06T11:33:27.000Z</time>
      </trkpt>
      <trkpt lat="47.50786" lon="6.76441">
        <ele>391</ele>
        <time>2015-12-06T11:33:28.000Z</time>
      </trkpt>
      <trkpt lat="47.50787" lon="6.76444">
        <ele>391</ele>
        <time>2015-12-06T11:33:28.999Z</time>
      </trkpt>
      <trkpt lat="47.50788" lon="6.76447">
        <ele>391</ele>
        <time>2015-12-06T11:33:30.000Z</time>
      </trkpt>
      <trkpt lat="47.50789" lon="6.76451">
        <ele>391</ele>
        <time>2015-12-06T11:33:30.999Z</time>
      </trkpt>
      <trkpt lat="47.50789" lon="6.76454">
        <ele>391</ele>
        <time>2015-12-06T11:33:32.000Z</time>
      </trkpt>
      <trkpt lat="47.50789" lon="6.7646">
        <ele>391</ele>
        <time>2015-12-06T11:33:34.000Z</time>
      </trkpt>
      <trkpt lat="47.50789" lon="6.76463">
        <ele>391</ele>
        <time>2015-12-06T11:33:35.000Z</time>
      </trkpt>
      <trkpt lat="47.5079" lon="6.76469">
        <ele>391</ele>
        <time>2015-12-06T11:33:37.000Z</time>
      </trkpt>
      <trkpt lat="47.5079" lon="6.76472">
        <ele>391</ele>
        <time>2015-12-06T11:33:38.000Z</time>
      </trkpt>
      <trkpt lat="47.50789" lon="6.76478">
        <ele>392</ele>
        <time>2015-12-06T11:33:40.000Z</time>
      </trkpt>
      <trkpt lat="47.50789" lon="6.76481">
        <ele>392</ele>
        <time>2015-12-06T11:33:41.000Z</time>
      </trkpt>
      <trkpt lat="47.50788" lon="6.76485">
        <ele>392</ele>
        <time>2015-12-06T11:33:42.000Z</time>
      </trkpt>
      <trkpt lat="47.50787" lon="6.76488">
        <ele>392</ele>
        <time>2015-12-06T11:33:43.000Z</time>
      </trkpt>
      <trkpt lat="47.50786" lon="6.76492">
        <ele>392</ele>
        <time>2015-12-06T11:33:44.000Z</time>
      </trkpt>
      <trkpt lat="47.50785" lon="6.76497">
        <ele>392</ele>
        <time>2015-12-06T11:33:45.000Z</time>
      </trkpt>
      <trkpt lat="47.50785" lon="6.76501">
        <ele>392</ele>
        <time>2015-12-06T11:33:46.000Z</time>
      </trkpt>
      <trkpt lat="47.50786" lon="6.76505">
        <ele>392</ele>
        <time>2015-12-06T11:33:47.000Z</time>
      </trkpt>
      <trkpt lat="47.50787" lon="6.7651">
        <ele>392</ele>
        <time>2015-12-06T11:33:48.000Z</time>
      </trkpt>
      <trkpt lat="47.50787" lon="6.76514">
        <ele>392</ele>
        <time>2015-12-06T11:33:49.000Z</time>
      </trkpt>
      <trkpt lat="47.50788" lon="6.76518">
        <ele>392</ele>
        <time>2015-12-06T11:33:50.000Z</time>
      </trkpt>
      <trkpt lat="47.50789" lon="6.76523">
        <ele>392</ele>
        <time>2015-12-06T11:33:51.000Z</time>
      </trkpt>
      <trkpt lat="47.5079" lon="6.76527">
        <ele>392</ele>
        <time>2015-12-06T11:33:52.000Z</time>
      </trkpt>
      <trkpt lat="47.50791" lon="6.76532">
        <ele>392</ele>
        <time>2015-12-06T11:33:53.000Z</time>
      </trkpt>
      <trkpt lat="47.50792" lon="6.76537">
        <ele>392</ele>
        <time>2015-12-06T11:33:54.000Z</time>
      </trkpt>
      <trkpt lat="47.50793" lon="6.76542">
        <ele>392</ele>
        <time>2015-12-06T11:33:55.000Z</time>
      </trkpt>
      <trkpt lat="47.50794" lon="6.76547">
        <ele>392</ele>
        <time>2015-12-06T11:33:56.000Z</time>
      </trkpt>
      <trkpt lat="47.50794" lon="6.76552">
        <ele>392</ele>
        <time>2015-12-06T11:33:57.000Z</time>
      </trkpt>
      <trkpt lat="47.50795" lon="6.76558">
        <ele>392</ele>
        <time>2015-12-06T11:33:58.000Z</time>
      </trkpt>
      <trkpt lat="47.50797" lon="6.76566">
        <ele>392</ele>
        <time>2015-12-06T11:33:59.000Z</time>
      </trkpt>
      <trkpt lat="47.508" lon="6.76572">
        <ele>392</ele>
        <time>2015-12-06T11:34:00.000Z</time>
      </trkpt>
      <trkpt lat="47.508" lon="6.76578">
        <ele>391</ele>
        <time>2015-12-06T11:34:01.000Z</time>
      </trkpt>
      <trkpt lat="47.50802" lon="6.76584">
        <ele>391</ele>
        <time>2015-12-06T11:34:02.000Z</time>
      </trkpt>
      <trkpt lat="47.50805" lon="6.7659">
        <ele>391</ele>
        <time>2015-12-06T11:34:03.000Z</time>
      </trkpt>
      <trkpt lat="47.50807" lon="6.76597">
        <ele>390</ele>
        <time>2015-12-06T11:34:04.000Z</time>
      </trkpt>
      <trkpt lat="47.50809" lon="6.76604">
        <ele>390</ele>
        <time>2015-12-06T11:34:05.000Z</time>
      </trkpt>
      <trkpt lat="47.50812" lon="6.76612">
        <ele>390</ele>
        <time>2015-12-06T11:34:06.000Z</time>
      </trkpt>
      <trkpt lat="47.50815" lon="6.76619">
        <ele>390</ele>
        <time>2015-12-06T11:34:07.000Z</time>
      </trkpt>
      <trkpt lat="47.50818" lon="6.76626">
        <ele>390</ele>
        <time>2015-12-06T11:34:08.000Z</time>
      </trkpt>
      <trkpt lat="47.50822" lon="6.76633">
        <ele>390</ele>
        <time>2015-12-06T11:34:09.000Z</time>
      </trkpt>
      <trkpt lat="47.50826" lon="6.76641">
        <ele>390</ele>
        <time>2015-12-06T11:34:10.000Z</time>
      </trkpt>
      <trkpt lat="47.50829" lon="6.7665">
        <ele>390</ele>
        <time>2015-12-06T11:34:11.000Z</time>
      </trkpt>
      <trkpt lat="47.50833" lon="6.76658">
        <ele>389</ele>
        <time>2015-12-06T11:34:12.000Z</time>
      </trkpt>
      <trkpt lat="47.50836" lon="6.76668">
        <ele>388</ele>
        <time>2015-12-06T11:34:13.000Z</time>
      </trkpt>
      <trkpt lat="47.5084" lon="6.76677">
        <ele>387</ele>
        <time>2015-12-06T11:34:14.000Z</time>
      </trkpt>
      <trkpt lat="47.50845" lon="6.76687">
        <ele>386</ele>
        <time>2015-12-06T11:34:15.000Z</time>
      </trkpt>
      <trkpt lat="47.50848" lon="6.76698">
        <ele>385</ele>
        <time>2015-12-06T11:34:16.000Z</time>
      </trkpt>
      <trkpt lat="47.50853" lon="6.76711">
        <ele>384</ele>
        <time>2015-12-06T11:34:17.000Z</time>
      </trkpt>
      <trkpt lat="47.50859" lon="6.76724">
        <ele>384</ele>
        <time>2015-12-06T11:34:18.000Z</time>
      </trkpt>
      <trkpt lat="47.50864" lon="6.76735">
        <ele>384</ele>
        <time>2015-12-06T11:34:19.000Z</time>
      </trkpt>
      <trkpt lat="47.50868" lon="6.76745">
        <ele>383</ele>
        <time>2015-12-06T11:34:20.000Z</time>
      </trkpt>
      <trkpt lat="47.50871" lon="6.76755">
        <ele>382</ele>
        <time>2015-12-06T11:34:21.000Z</time>
      </trkpt>
      <trkpt lat="47.50876" lon="6.76765">
        <ele>382</ele>
        <time>2015-12-06T11:34:22.000Z</time>
      </trkpt>
      <trkpt lat="47.5088" lon="6.76774">
        <ele>382</ele>
        <time>2015-12-06T11:34:23.000Z</time>
      </trkpt>
      <trkpt lat="47.50883" lon="6.76785">
        <ele>381</ele>
        <time>2015-12-06T11:34:24.000Z</time>
      </trkpt>
      <trkpt lat="47.50887" lon="6.76795">
        <ele>381</ele>
        <time>2015-12-06T11:34:25.000Z</time>
      </trkpt>
      <trkpt lat="47.50891" lon="6.76804">
        <ele>381</ele>
        <time>2015-12-06T11:34:26.000Z</time>
      </trkpt>
      <trkpt lat="47.50896" lon="6.76814">
        <ele>381</ele>
        <time>2015-12-06T11:34:27.000Z</time>
      </trkpt>
      <trkpt lat="47.50901" lon="6.76824">
        <ele>381</ele>
        <time>2015-12-06T11:34:28.000Z</time>
      </trkpt>
      <trkpt lat="47.50905" lon="6.76833">
        <ele>381</ele>
        <time>2015-12-06T11:34:29.000Z</time>
      </trkpt>
      <trkpt lat="47.50909" lon="6.76842">
        <ele>380</ele>
        <time>2015-12-06T11:34:30.000Z</time>
      </trkpt>
      <trkpt lat="47.50913" lon="6.76852">
        <ele>380</ele>
        <time>2015-12-06T11:34:31.000Z</time>
      </trkpt>
      <trkpt lat="47.50918" lon="6.76861">
        <ele>378</ele>
        <time>2015-12-06T11:34:32.000Z</time>
      </trkpt>
      <trkpt lat="47.50922" lon="6.7687">
        <ele>378</ele>
        <time>2015-12-06T11:34:33.000Z</time>
      </trkpt>
      <trkpt lat="47.50927" lon="6.76878">
        <ele>378</ele>
        <time>2015-12-06T11:34:34.000Z</time>
      </trkpt>
      <trkpt lat="47.50932" lon="6.76885">
        <ele>378</ele>
        <time>2015-12-06T11:34:35.000Z</time>
      </trkpt>
      <trkpt lat="47.50938" lon="6.76892">
        <ele>378</ele>
        <time>2015-12-06T11:34:36.000Z</time>
      </trkpt>
      <trkpt lat="47.50945" lon="6.76898">
        <ele>378</ele>
        <time>2015-12-06T11:34:37.000Z</time>
      </trkpt>
      <trkpt lat="47.50952" lon="6.76905">
        <ele>377</ele>
        <time>2015-12-06T11:34:38.000Z</time>
      </trkpt>
      <trkpt lat="47.50957" lon="6.76912">
        <ele>377</ele>
        <time>2015-12-06T11:34:39.000Z</time>
      </trkpt>
      <trkpt lat="47.50961" lon="6.76922">
        <ele>374</ele>
        <time>2015-12-06T11:34:40.000Z</time>
      </trkpt>
      <trkpt lat="47.50967" lon="6.76931">
        <ele>374</ele>
        <time>2015-12-06T11:34:41.000Z</time>
      </trkpt>
      <trkpt lat="47.50972" lon="6.76939">
        <ele>374</ele>
        <time>2015-12-06T11:34:42.000Z</time>
      </trkpt>
      <trkpt lat="47.50978" lon="6.76943">
        <ele>374</ele>
        <time>2015-12-06T11:34:43.000Z</time>
      </trkpt>
      <trkpt lat="47.50985" lon="6.76944">
        <ele>374</ele>
        <time>2015-12-06T11:34:44.000Z</time>
      </trkpt>
      <trkpt lat="47.50993" lon="6.76943">
        <ele>374</ele>
        <time>2015-12-06T11:34:45.000Z</time>
      </trkpt>
      <trkpt lat="47.51" lon="6.76943">
        <ele>375</ele>
        <time>2015-12-06T11:34:46.000Z</time>
      </trkpt>
      <trkpt lat="47.51007" lon="6.76943">
        <ele>375</ele>
        <time>2015-12-06T11:34:47.000Z</time>
      </trkpt>
      <trkpt lat="47.51014" lon="6.76946">
        <ele>375</ele>
        <time>2015-12-06T11:34:48.000Z</time>
      </trkpt>
      <trkpt lat="47.5102" lon="6.76949">
        <ele>375</ele>
        <time>2015-12-06T11:34:49.000Z</time>
      </trkpt>
      <trkpt lat="47.51026" lon="6.76953">
        <ele>375</ele>
        <time>2015-12-06T11:34:50.000Z</time>
      </trkpt>
      <trkpt lat="47.51032" lon="6.76958">
        <ele>375</ele>
        <time>2015-12-06T11:34:51.000Z</time>
      </trkpt>
      <trkpt lat="47.51038" lon="6.76963">
        <ele>375</ele>
        <time>2015-12-06T11:34:52.000Z</time>
      </trkpt>
      <trkpt lat="47.51043" lon="6.76969">
        <ele>375</ele>
        <time>2015-12-06T11:34:53.000Z</time>
      </trkpt>
      <trkpt lat="47.51049" lon="6.76974">
        <ele>375</ele>
        <time>2015-12-06T11:34:54.000Z</time>
      </trkpt>
      <trkpt lat="47.51055" lon="6.76979">
        <ele>375</ele>
        <time>2015-12-06T11:34:55.000Z</time>
      </trkpt>
      <trkpt lat="47.51061" lon="6.76985">
        <ele>375</ele>
        <time>2015-12-06T11:34:56.000Z</time>
      </trkpt>
      <trkpt lat="47.51067" lon="6.7699">
        <ele>375</ele>
        <time>2015-12-06T11:34:57.000Z</time>
      </trkpt>
      <trkpt lat="47.51073" lon="6.76995">
        <ele>375</ele>
        <time>2015-12-06T11:34:58.000Z</time>
      </trkpt>
      <trkpt lat="47.51078" lon="6.77">
        <ele>375</ele>
        <time>2015-12-06T11:34:59.000Z</time>
      </trkpt>
      <trkpt lat="47.51083" lon="6.77005">
        <ele>374</ele>
        <time>2015-12-06T11:35:00.000Z</time>
      </trkpt>
      <trkpt lat="47.51089" lon="6.77009">
        <ele>375</ele>
        <time>2015-12-06T11:35:01.000Z</time>
      </trkpt>
      <trkpt lat="47.51095" lon="6.77013">
        <ele>375</ele>
        <time>2015-12-06T11:35:02.000Z</time>
      </trkpt>
      <trkpt lat="47.51099" lon="6.77018">
        <ele>375</ele>
        <time>2015-12-06T11:35:03.000Z</time>
      </trkpt>
      <trkpt lat="47.51104" lon="6.77022">
        <ele>375</ele>
        <time>2015-12-06T11:35:04.000Z</time>
      </trkpt>
      <trkpt lat="47.51109" lon="6.77027">
        <ele>375</ele>
        <time>2015-12-06T11:35:05.000Z</time>
      </trkpt>
      <trkpt lat="47.51114" lon="6.77031">
        <ele>375</ele>
        <time>2015-12-06T11:35:05.999Z</time>
      </trkpt>
      <trkpt lat="47.5112" lon="6.77036">
        <ele>375</ele>
        <time>2015-12-06T11:35:07.000Z</time>
      </trkpt>
      <trkpt lat="47.51125" lon="6.7704">
        <ele>375</ele>
        <time>2015-12-06T11:35:08.000Z</time>
      </trkpt>
      <trkpt lat="47.51129" lon="6.77045">
        <ele>375</ele>
        <time>2015-12-06T11:35:09.000Z</time>
      </trkpt>
      <trkpt lat="47.51133" lon="6.77049">
        <ele>375</ele>
        <time>2015-12-06T11:35:10.000Z</time>
      </trkpt>
      <trkpt lat="47.51138" lon="6.77054">
        <ele>376</ele>
        <time>2015-12-06T11:35:11.000Z</time>
      </trkpt>
      <trkpt lat="47.51143" lon="6.77057">
        <ele>376</ele>
        <time>2015-12-06T11:35:12.000Z</time>
      </trkpt>
      <trkpt lat="47.51146" lon="6.77061">
        <ele>376</ele>
        <time>2015-12-06T11:35:13.000Z</time>
      </trkpt>
      <trkpt lat="47.51151" lon="6.77065">
        <ele>376</ele>
        <time>2015-12-06T11:35:14.000Z</time>
      </trkpt>
      <trkpt lat="47.51155" lon="6.77071">
        <ele>377</ele>
        <time>2015-12-06T11:35:15.000Z</time>
      </trkpt>
      <trkpt lat="47.5116" lon="6.77076">
        <ele>377</ele>
        <time>2015-12-06T11:35:16.000Z</time>
      </trkpt>
      <trkpt lat="47.51163" lon="6.77082">
        <ele>378</ele>
        <time>2015-12-06T11:35:17.000Z</time>
      </trkpt>
      <trkpt lat="47.51167" lon="6.77089">
        <ele>378</ele>
        <time>2015-12-06T11:35:18.000Z</time>
      </trkpt>
      <trkpt lat="47.51169" lon="6.77095">
        <ele>378</ele>
        <time>2015-12-06T11:35:19.000Z</time>
      </trkpt>
      <trkpt lat="47.51173" lon="6.77101">
        <ele>378</ele>
        <time>2015-12-06T11:35:20.000Z</time>
      </trkpt>
      <trkpt lat="47.51177" lon="6.77106">
        <ele>378</ele>
        <time>2015-12-06T11:35:21.000Z</time>
      </trkpt>
      <trkpt lat="47.5118" lon="6.77112">
        <ele>378</ele>
        <time>2015-12-06T11:35:22.000Z</time>
      </trkpt>
      <trkpt lat="47.51184" lon="6.77118">
        <ele>378</ele>
        <time>2015-12-06T11:35:23.000Z</time>
      </trkpt>
      <trkpt lat="47.51187" lon="6.77125">
        <ele>378</ele>
        <time>2015-12-06T11:35:24.000Z</time>
      </trkpt>
      <trkpt lat="47.51189" lon="6.7713">
        <ele>378</ele>
        <time>2015-12-06T11:35:25.000Z</time>
      </trkpt>
      <trkpt lat="47.51192" lon="6.77136">
        <ele>378</ele>
        <time>2015-12-06T11:35:26.000Z</time>
      </trkpt>
      <trkpt lat="47.51195" lon="6.77143">
        <ele>378</ele>
        <time>2015-12-06T11:35:27.000Z</time>
      </trkpt>
      <trkpt lat="47.51198" lon="6.77147">
        <ele>378</ele>
        <time>2015-12-06T11:35:28.000Z</time>
      </trkpt>
      <trkpt lat="47.51201" lon="6.77152">
        <ele>378</ele>
        <time>2015-12-06T11:35:29.000Z</time>
      </trkpt>
      <trkpt lat="47.51204" lon="6.77158">
        <ele>378</ele>
        <time>2015-12-06T11:35:30.000Z</time>
      </trkpt>
      <trkpt lat="47.51206" lon="6.77163">
        <ele>378</ele>
        <time>2015-12-06T11:35:31.000Z</time>
      </trkpt>
      <trkpt lat="47.51209" lon="6.77167">
        <ele>376</ele>
        <time>2015-12-06T11:35:32.000Z</time>
      </trkpt>
      <trkpt lat="47.51212" lon="6.77172">
        <ele>376</ele>
        <time>2015-12-06T11:35:33.000Z</time>
      </trkpt>
      <trkpt lat="47.51214" lon="6.77177">
        <ele>376</ele>
        <time>2015-12-06T11:35:34.000Z</time>
      </trkpt>
      <trkpt lat="47.51216" lon="6.77182">
        <ele>376</ele>
        <time>2015-12-06T11:35:35.000Z</time>
      </trkpt>
      <trkpt lat="47.51219" lon="6.77187">
        <ele>376</ele>
        <time>2015-12-06T11:35:36.000Z</time>
      </trkpt>
      <trkpt lat="47.51221" lon="6.77192">
        <ele>376</ele>
        <time>2015-12-06T11:35:37.000Z</time>
      </trkpt>
      <trkpt lat="47.51223" lon="6.77196">
        <ele>376</ele>
        <time>2015-12-06T11:35:38.000Z</time>
      </trkpt>
      <trkpt lat="47.51225" lon="6.77201">
        <ele>376</ele>
        <time>2015-12-06T11:35:39.000Z</time>
      </trkpt>
      <trkpt lat="47.51227" lon="6.77206">
        <ele>376</ele>
        <time>2015-12-06T11:35:40.000Z</time>
      </trkpt>
      <trkpt lat="47.5123" lon="6.7721">
        <ele>376</ele>
        <time>2015-12-06T11:35:41.000Z</time>
      </trkpt>
      <trkpt lat="47.51232" lon="6.77215">
        <ele>376</ele>
        <time>2015-12-06T11:35:42.000Z</time>
      </trkpt>
      <trkpt lat="47.51235" lon="6.7722">
        <ele>376</ele>
        <time>2015-12-06T11:35:43.000Z</time>
      </trkpt>
      <trkpt lat="47.51237" lon="6.77225">
        <ele>376</ele>
        <time>2015-12-06T11:35:44.000Z</time>
      </trkpt>
      <trkpt lat="47.5124" lon="6.7723">
        <ele>376</ele>
        <time>2015-12-06T11:35:45.000Z</time>
      </trkpt>
      <trkpt lat="47.51243" lon="6.77235">
        <ele>377</ele>
        <time>2015-12-06T11:35:46.000Z</time>
      </trkpt>
      <trkpt lat="47.51248" lon="6.7724">
        <ele>377</ele>
        <time>2015-12-06T11:35:47.000Z</time>
      </trkpt>
      <trkpt lat="47.5125" lon="6.77244">
        <ele>379</ele>
        <time>2015-12-06T11:35:48.000Z</time>
      </trkpt>
      <trkpt lat="47.51253" lon="6.77248">
        <ele>379</ele>
        <time>2015-12-06T11:35:49.000Z</time>
      </trkpt>
      <trkpt lat="47.51257" lon="6.77252">
        <ele>378</ele>
        <time>2015-12-06T11:35:50.000Z</time>
      </trkpt>
      <trkpt lat="47.5126" lon="6.77256">
        <ele>378</ele>
        <time>2015-12-06T11:35:51.000Z</time>
      </trkpt>
      <trkpt lat="47.51263" lon="6.77259">
        <ele>378</ele>
        <time>2015-12-06T11:35:52.000Z</time>
      </trkpt>
      <trkpt lat="47.51266" lon="6.77262">
        <ele>377</ele>
        <time>2015-12-06T11:35:53.000Z</time>
      </trkpt>
      <trkpt lat="47.51273" lon="6.77265">
        <ele>377</ele>
        <time>2015-12-06T11:35:54.000Z</time>
      </trkpt>
      <trkpt lat="47.51278" lon="6.77269">
        <ele>377</ele>
        <time>2015-12-06T11:35:55.000Z</time>
      </trkpt>
      <trkpt lat="47.51282" lon="6.77271">
        <ele>377</ele>
        <time>2015-12-06T11:35:56.000Z</time>
      </trkpt>
      <trkpt lat="47.51288" lon="6.77274">
        <ele>377</ele>
        <time>2015-12-06T11:35:57.000Z</time>
      </trkpt>
      <trkpt lat="47.51293" lon="6.77277">
        <ele>377</ele>
        <time>2015-12-06T11:35:58.000Z</time>
      </trkpt>
      <trkpt lat="47.51299" lon="6.77279">
        <ele>377</ele>
        <time>2015-12-06T11:35:59.000Z</time>
      </trkpt>
      <trkpt lat="47.51304" lon="6.77282">
        <ele>377</ele>
        <time>2015-12-06T11:36:00.001Z</time>
      </trkpt>
      <trkpt lat="47.5131" lon="6.77285">
        <ele>377</ele>
        <time>2015-12-06T11:36:01.000Z</time>
      </trkpt>
      <trkpt lat="47.51316" lon="6.77287">
        <ele>377</ele>
        <time>2015-12-06T11:36:02.000Z</time>
      </trkpt>
      <trkpt lat="47.51322" lon="6.77288">
        <ele>378</ele>
        <time>2015-12-06T11:36:03.000Z</time>
      </trkpt>
      <trkpt lat="47.51328" lon="6.77289">
        <ele>378</ele>
        <time>2015-12-06T11:36:04.000Z</time>
      </trkpt>
      <trkpt lat="47.51335" lon="6.77286">
        <ele>378</ele>
        <time>2015-12-06T11:36:05.000Z</time>
      </trkpt>
      <trkpt lat="47.51342" lon="6.77282">
        <ele>378</ele>
        <time>2015-12-06T11:36:06.000Z</time>
      </trkpt>
      <trkpt lat="47.51348" lon="6.77276">
        <ele>378</ele>
        <time>2015-12-06T11:36:07.000Z</time>
      </trkpt>
      <trkpt lat="47.51355" lon="6.7727">
        <ele>378</ele>
        <time>2015-12-06T11:36:08.000Z</time>
      </trkpt>
      <trkpt lat="47.51362" lon="6.77263">
        <ele>378</ele>
        <time>2015-12-06T11:36:09.000Z</time>
      </trkpt>
      <trkpt lat="47.51369" lon="6.77257">
        <ele>378</ele>
        <time>2015-12-06T11:36:10.000Z</time>
      </trkpt>
      <trkpt lat="47.51378" lon="6.77251">
        <ele>377</ele>
        <time>2015-12-06T11:36:11.000Z</time>
      </trkpt>
      <trkpt lat="47.51386" lon="6.77246">
        <ele>376</ele>
        <time>2015-12-06T11:36:12.000Z</time>
      </trkpt>
      <trkpt lat="47.51394" lon="6.77241">
        <ele>376</ele>
        <time>2015-12-06T11:36:13.000Z</time>
      </trkpt>
      <trkpt lat="47.51403" lon="6.77235">
        <ele>376</ele>
        <time>2015-12-06T11:36:14.000Z</time>
      </trkpt>
      <trkpt lat="47.51411" lon="6.7723">
        <ele>376</ele>
        <time>2015-12-06T11:36:15.000Z</time>
      </trkpt>
      <trkpt lat="47.51419" lon="6.77225">
        <ele>375</ele>
        <time>2015-12-06T11:36:16.000Z</time>
      </trkpt>
      <trkpt lat="47.51428" lon="6.77221">
        <ele>375</ele>
        <time>2015-12-06T11:36:17.000Z</time>
      </trkpt>
      <trkpt lat="47.51437" lon="6.77217">
        <ele>375</ele>
        <time>2015-12-06T11:36:18.000Z</time>
      </trkpt>
      <trkpt lat="47.51445" lon="6.77214">
        <ele>375</ele>
        <time>2015-12-06T11:36:19.000Z</time>
      </trkpt>
      <trkpt lat="47.51453" lon="6.7721">
        <ele>375</ele>
        <time>2015-12-06T11:36:20.000Z</time>
      </trkpt>
      <trkpt lat="47.5146" lon="6.77206">
        <ele>375</ele>
        <time>2015-12-06T11:36:21.000Z</time>
      </trkpt>
      <trkpt lat="47.51467" lon="6.77202">
        <ele>375</ele>
        <time>2015-12-06T11:36:22.000Z</time>
      </trkpt>
      <trkpt lat="47.51473" lon="6.77201">
        <ele>375</ele>
        <time>2015-12-06T11:36:23.000Z</time>
      </trkpt>
      <trkpt lat="47.51478" lon="6.77206">
        <ele>375</ele>
        <time>2015-12-06T11:36:24.000Z</time>
      </trkpt>
      <trkpt lat="47.51483" lon="6.77211">
        <ele>375</ele>
        <time>2015-12-06T11:36:25.000Z</time>
      </trkpt>
      <trkpt lat="47.51483" lon="6.77219">
        <ele>375</ele>
        <time>2015-12-06T11:36:26.000Z</time>
      </trkpt>
      <trkpt lat="47.51484" lon="6.77228">
        <ele>375</ele>
        <time>2015-12-06T11:36:27.000Z</time>
      </trkpt>
      <trkpt lat="47.51485" lon="6.77237">
        <ele>375</ele>
        <time>2015-12-06T11:36:28.000Z</time>
      </trkpt>
      <trkpt lat="47.51485" lon="6.77245">
        <ele>376</ele>
        <time>2015-12-06T11:36:29.000Z</time>
      </trkpt>
      <trkpt lat="47.51486" lon="6.77253">
        <ele>376</ele>
        <time>2015-12-06T11:36:30.000Z</time>
      </trkpt>
      <trkpt lat="47.51487" lon="6.77261">
        <ele>376</ele>
        <time>2015-12-06T11:36:31.000Z</time>
      </trkpt>
      <trkpt lat="47.51487" lon="6.77269">
        <ele>376</ele>
        <time>2015-12-06T11:36:32.000Z</time>
      </trkpt>
      <trkpt lat="47.51488" lon="6.77277">
        <ele>377</ele>
        <time>2015-12-06T11:36:33.000Z</time>
      </trkpt>
      <trkpt lat="47.51487" lon="6.77284">
        <ele>377</ele>
        <time>2015-12-06T11:36:34.000Z</time>
      </trkpt>
      <trkpt lat="47.51488" lon="6.77293">
        <ele>377</ele>
        <time>2015-12-06T11:36:35.000Z</time>
      </trkpt>
      <trkpt lat="47.51488" lon="6.77301">
        <ele>377</ele>
        <time>2015-12-06T11:36:36.000Z</time>
      </trkpt>
      <trkpt lat="47.5149" lon="6.77308">
        <ele>377</ele>
        <time>2015-12-06T11:36:37.000Z</time>
      </trkpt>
      <trkpt lat="47.51493" lon="6.77315">
        <ele>377</ele>
        <time>2015-12-06T11:36:38.000Z</time>
      </trkpt>
      <trkpt lat="47.51496" lon="6.7732">
        <ele>377</ele>
        <time>2015-12-06T11:36:39.000Z</time>
      </trkpt>
      <trkpt lat="47.51501" lon="6.77324">
        <ele>378</ele>
        <time>2015-12-06T11:36:40.000Z</time>
      </trkpt>
      <trkpt lat="47.51506" lon="6.77329">
        <ele>378</ele>
        <time>2015-12-06T11:36:41.000Z</time>
      </trkpt>
      <trkpt lat="47.5151" lon="6.77331">
        <ele>378</ele>
        <time>2015-12-06T11:36:42.000Z</time>
      </trkpt>
      <trkpt lat="47.51513" lon="6.77334">
        <ele>379</ele>
        <time>2015-12-06T11:36:43.000Z</time>
      </trkpt>
      <trkpt lat="47.51515" lon="6.77338">
        <ele>379</ele>
        <time>2015-12-06T11:36:44.000Z</time>
      </trkpt>
      <trkpt lat="47.51518" lon="6.77342">
        <ele>379</ele>
        <time>2015-12-06T11:36:44.999Z</time>
      </trkpt>
      <trkpt lat="47.51521" lon="6.77343">
        <ele>380</ele>
        <time>2015-12-06T11:36:46.000Z</time>
      </trkpt>
      <trkpt lat="47.51524" lon="6.77346">
        <ele>380</ele>
        <time>2015-12-06T11:36:47.000Z</time>
      </trkpt>
      <trkpt lat="47.51526" lon="6.77349">
        <ele>380</ele>
        <time>2015-12-06T11:36:48.000Z</time>
      </trkpt>
      <trkpt lat="47.51528" lon="6.77351">
        <ele>380</ele>
        <time>2015-12-06T11:36:49.000Z</time>
      </trkpt>
      <trkpt lat="47.51531" lon="6.77355">
        <ele>380</ele>
        <time>2015-12-06T11:36:50.000Z</time>
      </trkpt>
      <trkpt lat="47.51533" lon="6.77357">
        <ele>380</ele>
        <time>2015-12-06T11:36:51.000Z</time>
      </trkpt>
      <trkpt lat="47.51536" lon="6.7736">
        <ele>380</ele>
        <time>2015-12-06T11:36:52.000Z</time>
      </trkpt>
      <trkpt lat="47.51538" lon="6.77363">
        <ele>380</ele>
        <time>2015-12-06T11:36:53.000Z</time>
      </trkpt>
      <trkpt lat="47.51541" lon="6.77366">
        <ele>380</ele>
        <time>2015-12-06T11:36:54.000Z</time>
      </trkpt>
      <trkpt lat="47.51543" lon="6.77368">
        <ele>380</ele>
        <time>2015-12-06T11:36:55.000Z</time>
      </trkpt>
      <trkpt lat="47.51545" lon="6.77371">
        <ele>381</ele>
        <time>2015-12-06T11:36:56.000Z</time>
      </trkpt>
      <trkpt lat="47.51547" lon="6.77374">
        <ele>381</ele>
        <time>2015-12-06T11:36:57.000Z</time>
      </trkpt>
      <trkpt lat="47.51549" lon="6.77377">
        <ele>381</ele>
        <time>2015-12-06T11:36:58.000Z</time>
      </trkpt>
      <trkpt lat="47.51552" lon="6.77379">
        <ele>381</ele>
        <time>2015-12-06T11:36:59.000Z</time>
      </trkpt>
      <trkpt lat="47.51555" lon="6.77382">
        <ele>381</ele>
        <time>2015-12-06T11:37:00.000Z</time>
      </trkpt>
      <trkpt lat="47.51556" lon="6.77385">
        <ele>381</ele>
        <time>2015-12-06T11:37:01.000Z</time>
      </trkpt>
      <trkpt lat="47.51558" lon="6.77389">
        <ele>381</ele>
        <time>2015-12-06T11:37:01.999Z</time>
      </trkpt>
      <trkpt lat="47.51562" lon="6.77393">
        <ele>381</ele>
        <time>2015-12-06T11:37:04.000Z</time>
      </trkpt>
      <trkpt lat="47.51564" lon="6.77394">
        <ele>381</ele>
        <time>2015-12-06T11:37:05.000Z</time>
      </trkpt>
      <trkpt lat="47.51566" lon="6.77397">
        <ele>381</ele>
        <time>2015-12-06T11:37:06.000Z</time>
      </trkpt>
      <trkpt lat="47.51568" lon="6.774">
        <ele>382</ele>
        <time>2015-12-06T11:37:07.000Z</time>
      </trkpt>
      <trkpt lat="47.51569" lon="6.77402">
        <ele>382</ele>
        <time>2015-12-06T11:37:08.000Z</time>
      </trkpt>
      <trkpt lat="47.51571" lon="6.77405">
        <ele>382</ele>
        <time>2015-12-06T11:37:09.000Z</time>
      </trkpt>
      <trkpt lat="47.51573" lon="6.77408">
        <ele>382</ele>
        <time>2015-12-06T11:37:10.000Z</time>
      </trkpt>
      <trkpt lat="47.51575" lon="6.77411">
        <ele>382</ele>
        <time>2015-12-06T11:37:11.000Z</time>
      </trkpt>
      <trkpt lat="47.51577" lon="6.77414">
        <ele>382</ele>
        <time>2015-12-06T11:37:12.000Z</time>
      </trkpt>
      <trkpt lat="47.51579" lon="6.77416">
        <ele>383</ele>
        <time>2015-12-06T11:37:13.000Z</time>
      </trkpt>
      <trkpt lat="47.51581" lon="6.77419">
        <ele>383</ele>
        <time>2015-12-06T11:37:14.000Z</time>
      </trkpt>
      <trkpt lat="47.51583" lon="6.77421">
        <ele>383</ele>
        <time>2015-12-06T11:37:15.000Z</time>
      </trkpt>
      <trkpt lat="47.51585" lon="6.77424">
        <ele>384</ele>
        <time>2015-12-06T11:37:16.000Z</time>
      </trkpt>
      <trkpt lat="47.51587" lon="6.77427">
        <ele>384</ele>
        <time>2015-12-06T11:37:17.000Z</time>
      </trkpt>
      <trkpt lat="47.51589" lon="6.77429">
        <ele>384</ele>
        <time>2015-12-06T11:37:18.000Z</time>
      </trkpt>
      <trkpt lat="47.51592" lon="6.77432">
        <ele>384</ele>
        <time>2015-12-06T11:37:19.000Z</time>
      </trkpt>
      <trkpt lat="47.51594" lon="6.77435">
        <ele>385</ele>
        <time>2015-12-06T11:37:20.000Z</time>
      </trkpt>
      <trkpt lat="47.51596" lon="6.77438">
        <ele>385</ele>
        <time>2015-12-06T11:37:21.000Z</time>
      </trkpt>
      <trkpt lat="47.51599" lon="6.77441">
        <ele>385</ele>
        <time>2015-12-06T11:37:22.000Z</time>
      </trkpt>
      <trkpt lat="47.51601" lon="6.77443">
        <ele>385</ele>
        <time>2015-12-06T11:37:23.000Z</time>
      </trkpt>
      <trkpt lat="47.51602" lon="6.77446">
        <ele>385</ele>
        <time>2015-12-06T11:37:24.000Z</time>
      </trkpt>
      <trkpt lat="47.51604" lon="6.77449">
        <ele>385</ele>
        <time>2015-12-06T11:37:25.000Z</time>
      </trkpt>
      <trkpt lat="47.51606" lon="6.77452">
        <ele>385</ele>
        <time>2015-12-06T11:37:26.000Z</time>
      </trkpt>
      <trkpt lat="47.51608" lon="6.77455">
        <ele>385</ele>
        <time>2015-12-06T11:37:27.000Z</time>
      </trkpt>
      <trkpt lat="47.5161" lon="6.77458">
        <ele>385</ele>
        <time>2015-12-06T11:37:28.000Z</time>
      </trkpt>
      <trkpt lat="47.51612" lon="6.77461">
        <ele>386</ele>
        <time>2015-12-06T11:37:29.000Z</time>
      </trkpt>
      <trkpt lat="47.51613" lon="6.77464">
        <ele>386</ele>
        <time>2015-12-06T11:37:30.000Z</time>
      </trkpt>
      <trkpt lat="47.51615" lon="6.77467">
        <ele>386</ele>
        <time>2015-12-06T11:37:31.000Z</time>
      </trkpt>
      <trkpt lat="47.51618" lon="6.77469">
        <ele>386</ele>
        <time>2015-12-06T11:37:32.000Z</time>
      </trkpt>
      <trkpt lat="47.5162" lon="6.77472">
        <ele>386</ele>
        <time>2015-12-06T11:37:33.000Z</time>
      </trkpt>
      <trkpt lat="47.51622" lon="6.77476">
        <ele>386</ele>
        <time>2015-12-06T11:37:34.000Z</time>
      </trkpt>
      <trkpt lat="47.51624" lon="6.77478">
        <ele>386</ele>
        <time>2015-12-06T11:37:35.000Z</time>
      </trkpt>
      <trkpt lat="47.51626" lon="6.77481">
        <ele>386</ele>
        <time>2015-12-06T11:37:36.000Z</time>
      </trkpt>
      <trkpt lat="47.51629" lon="6.77484">
        <ele>386</ele>
        <time>2015-12-06T11:37:37.000Z</time>
      </trkpt>
      <trkpt lat="47.51631" lon="6.77487">
        <ele>386</ele>
        <time>2015-12-06T11:37:38.000Z</time>
      </trkpt>
      <trkpt lat="47.51634" lon="6.77489">
        <ele>386</ele>
        <time>2015-12-06T11:37:39.000Z</time>
      </trkpt>
      <trkpt lat="47.51636" lon="6.77492">
        <ele>387</ele>
        <time>2015-12-06T11:37:40.000Z</time>
      </trkpt>
      <trkpt lat="47.51639" lon="6.77495">
        <ele>387</ele>
        <time>2015-12-06T11:37:41.000Z</time>
      </trkpt>
      <trkpt lat="47.51641" lon="6.77497">
        <ele>387</ele>
        <time>2015-12-06T11:37:42.000Z</time>
      </trkpt>
      <trkpt lat="47.51644" lon="6.775">
        <ele>387</ele>
        <time>2015-12-06T11:37:43.000Z</time>
      </trkpt>
      <trkpt lat="47.51646" lon="6.77502">
        <ele>388</ele>
        <time>2015-12-06T11:37:44.000Z</time>
      </trkpt>
      <trkpt lat="47.51649" lon="6.77505">
        <ele>388</ele>
        <time>2015-12-06T11:37:45.000Z</time>
      </trkpt>
      <trkpt lat="47.51651" lon="6.77508">
        <ele>388</ele>
        <time>2015-12-06T11:37:46.000Z</time>
      </trkpt>
      <trkpt lat="47.51654" lon="6.77511">
        <ele>388</ele>
        <time>2015-12-06T11:37:47.000Z</time>
      </trkpt>
      <trkpt lat="47.51657" lon="6.77514">
        <ele>388</ele>
        <time>2015-12-06T11:37:48.000Z</time>
      </trkpt>
      <trkpt lat="47.51659" lon="6.77517">
        <ele>388</ele>
        <time>2015-12-06T11:37:49.000Z</time>
      </trkpt>
      <trkpt lat="47.51662" lon="6.7752">
        <ele>388</ele>
        <time>2015-12-06T11:37:50.000Z</time>
      </trkpt>
      <trkpt lat="47.51664" lon="6.77523">
        <ele>388</ele>
        <time>2015-12-06T11:37:51.000Z</time>
      </trkpt>
      <trkpt lat="47.51667" lon="6.77526">
        <ele>388</ele>
        <time>2015-12-06T11:37:52.000Z</time>
      </trkpt>
      <trkpt lat="47.51669" lon="6.77528">
        <ele>390</ele>
        <time>2015-12-06T11:37:53.000Z</time>
      </trkpt>
      <trkpt lat="47.51672" lon="6.77531">
        <ele>390</ele>
        <time>2015-12-06T11:37:54.000Z</time>
      </trkpt>
      <trkpt lat="47.51674" lon="6.77534">
        <ele>390</ele>
        <time>2015-12-06T11:37:55.000Z</time>
      </trkpt>
      <trkpt lat="47.51675" lon="6.77537">
        <ele>390</ele>
        <time>2015-12-06T11:37:56.000Z</time>
      </trkpt>
      <trkpt lat="47.51677" lon="6.7754">
        <ele>390</ele>
        <time>2015-12-06T11:37:56.999Z</time>
      </trkpt>
      <trkpt lat="47.51679" lon="6.77543">
        <ele>390</ele>
        <time>2015-12-06T11:37:58.000Z</time>
      </trkpt>
      <trkpt lat="47.51681" lon="6.77546">
        <ele>390</ele>
        <time>2015-12-06T11:37:59.000Z</time>
      </trkpt>
      <trkpt lat="47.51683" lon="6.77549">
        <ele>390</ele>
        <time>2015-12-06T11:38:00.000Z</time>
      </trkpt>
      <trkpt lat="47.51686" lon="6.77551">
        <ele>390</ele>
        <time>2015-12-06T11:38:01.000Z</time>
      </trkpt>
      <trkpt lat="47.51688" lon="6.77554">
        <ele>390</ele>
        <time>2015-12-06T11:38:02.000Z</time>
      </trkpt>
      <trkpt lat="47.5169" lon="6.77557">
        <ele>390</ele>
        <time>2015-12-06T11:38:03.000Z</time>
      </trkpt>
      <trkpt lat="47.51692" lon="6.77559">
        <ele>390</ele>
        <time>2015-12-06T11:38:04.000Z</time>
      </trkpt>
      <trkpt lat="47.51694" lon="6.77562">
        <ele>390</ele>
        <time>2015-12-06T11:38:05.000Z</time>
      </trkpt>
      <trkpt lat="47.51696" lon="6.77564">
        <ele>390</ele>
        <time>2015-12-06T11:38:06.000Z</time>
      </trkpt>
      <trkpt lat="47.51699" lon="6.77565">
        <ele>390</ele>
        <time>2015-12-06T11:38:07.000Z</time>
      </trkpt>
      <trkpt lat="47.51701" lon="6.77565">
        <ele>390</ele>
        <time>2015-12-06T11:38:08.000Z</time>
      </trkpt>
      <trkpt lat="47.51704" lon="6.77563">
        <ele>390</ele>
        <time>2015-12-06T11:38:09.000Z</time>
      </trkpt>
      <trkpt lat="47.51706" lon="6.7756">
        <ele>390</ele>
        <time>2015-12-06T11:38:10.000Z</time>
      </trkpt>
      <trkpt lat="47.51709" lon="6.77556">
        <ele>390</ele>
        <time>2015-12-06T11:38:11.000Z</time>
      </trkpt>
      <trkpt lat="47.51712" lon="6.77553">
        <ele>390</ele>
        <time>2015-12-06T11:38:12.000Z</time>
      </trkpt>
      <trkpt lat="47.51714" lon="6.7755">
        <ele>390</ele>
        <time>2015-12-06T11:38:13.000Z</time>
      </trkpt>
      <trkpt lat="47.51716" lon="6.77547">
        <ele>390</ele>
        <time>2015-12-06T11:38:14.000Z</time>
      </trkpt>
      <trkpt lat="47.51717" lon="6.77543">
        <ele>390</ele>
        <time>2015-12-06T11:38:15.000Z</time>
      </trkpt>
      <trkpt lat="47.51718" lon="6.77539">
        <ele>390</ele>
        <time>2015-12-06T11:38:16.000Z</time>
      </trkpt>
      <trkpt lat="47.51719" lon="6.77534">
        <ele>390</ele>
        <time>2015-12-06T11:38:17.000Z</time>
      </trkpt>
      <trkpt lat="47.5172" lon="6.77529">
        <ele>390</ele>
        <time>2015-12-06T11:38:18.000Z</time>
      </trkpt>
      <trkpt lat="47.51721" lon="6.77524">
        <ele>390</ele>
        <time>2015-12-06T11:38:18.998Z</time>
      </trkpt>
      <trkpt lat="47.51723" lon="6.77518">
        <ele>390</ele>
        <time>2015-12-06T11:38:20.000Z</time>
      </trkpt>
      <trkpt lat="47.51724" lon="6.7751">
        <ele>390</ele>
        <time>2015-12-06T11:38:21.000Z</time>
      </trkpt>
      <trkpt lat="47.51725" lon="6.77503">
        <ele>390</ele>
        <time>2015-12-06T11:38:22.000Z</time>
      </trkpt>
      <trkpt lat="47.51726" lon="6.77497">
        <ele>389</ele>
        <time>2015-12-06T11:38:23.000Z</time>
      </trkpt>
      <trkpt lat="47.51727" lon="6.77491">
        <ele>389</ele>
        <time>2015-12-06T11:38:24.000Z</time>
      </trkpt>
      <trkpt lat="47.51728" lon="6.77485">
        <ele>389</ele>
        <time>2015-12-06T11:38:25.000Z</time>
      </trkpt>
      <trkpt lat="47.51731" lon="6.7748">
        <ele>389</ele>
        <time>2015-12-06T11:38:26.000Z</time>
      </trkpt>
      <trkpt lat="47.51735" lon="6.77478">
        <ele>389</ele>
        <time>2015-12-06T11:38:27.000Z</time>
      </trkpt>
      <trkpt lat="47.51739" lon="6.77477">
        <ele>389</ele>
        <time>2015-12-06T11:38:28.000Z</time>
      </trkpt>
      <trkpt lat="47.51742" lon="6.77478">
        <ele>389</ele>
        <time>2015-12-06T11:38:29.000Z</time>
      </trkpt>
      <trkpt lat="47.51746" lon="6.77479">
        <ele>389</ele>
        <time>2015-12-06T11:38:30.000Z</time>
      </trkpt>
      <trkpt lat="47.5175" lon="6.7748">
        <ele>389</ele>
        <time>2015-12-06T11:38:31.000Z</time>
      </trkpt>
      <trkpt lat="47.51754" lon="6.7748">
        <ele>389</ele>
        <time>2015-12-06T11:38:32.000Z</time>
      </trkpt>
      <trkpt lat="47.51758" lon="6.77482">
        <ele>389</ele>
        <time>2015-12-06T11:38:33.000Z</time>
      </trkpt>
      <trkpt lat="47.51762" lon="6.77483">
        <ele>389</ele>
        <time>2015-12-06T11:38:34.000Z</time>
      </trkpt>
      <trkpt lat="47.51766" lon="6.77484">
        <ele>389</ele>
        <time>2015-12-06T11:38:35.000Z</time>
      </trkpt>
      <trkpt lat="47.51771" lon="6.77485">
        <ele>388</ele>
        <time>2015-12-06T11:38:36.000Z</time>
      </trkpt>
      <trkpt lat="47.51776" lon="6.77487">
        <ele>388</ele>
        <time>2015-12-06T11:38:37.000Z</time>
      </trkpt>
      <trkpt lat="47.51781" lon="6.77491">
        <ele>388</ele>
        <time>2015-12-06T11:38:38.000Z</time>
      </trkpt>
      <trkpt lat="47.51785" lon="6.77493">
        <ele>388</ele>
        <time>2015-12-06T11:38:39.000Z</time>
      </trkpt>
      <trkpt lat="47.5179" lon="6.77495">
        <ele>388</ele>
        <time>2015-12-06T11:38:40.000Z</time>
      </trkpt>
      <trkpt lat="47.51794" lon="6.77497">
        <ele>388</ele>
        <time>2015-12-06T11:38:41.000Z</time>
      </trkpt>
      <trkpt lat="47.51799" lon="6.77497">
        <ele>388</ele>
        <time>2015-12-06T11:38:42.000Z</time>
      </trkpt>
      <trkpt lat="47.51803" lon="6.77497">
        <ele>388</ele>
        <time>2015-12-06T11:38:43.000Z</time>
      </trkpt>
      <trkpt lat="47.51805" lon="6.77496">
        <ele>388</ele>
        <time>2015-12-06T11:38:44.000Z</time>
      </trkpt>
      <trkpt lat="47.51805" lon="6.7749">
        <ele>388</ele>
        <time>2015-12-06T11:38:45.000Z</time>
      </trkpt>
      <trkpt lat="47.51804" lon="6.77488">
        <ele>388</ele>
        <time>2015-12-06T11:38:46.000Z</time>
      </trkpt>
      <trkpt lat="47.51802" lon="6.77483">
        <ele>388</ele>
        <time>2015-12-06T11:38:48.000Z</time>
      </trkpt>
      <trkpt lat="47.51801" lon="6.77481">
        <ele>388</ele>
        <time>2015-12-06T11:38:49.000Z</time>
      </trkpt>
      <trkpt lat="47.51799" lon="6.77476">
        <ele>388</ele>
        <time>2015-12-06T11:39:06.000Z</time>
      </trkpt>
      <trkpt lat="47.51797" lon="6.77476">
        <ele>388</ele>
        <time>2015-12-06T11:39:07.000Z</time>
      </trkpt>
      <trkpt lat="47.51795" lon="6.77472">
        <ele>388</ele>
        <time>2015-12-06T11:39:10.000Z</time>
      </trkpt>
      <trkpt lat="47.51795" lon="6.7747">
        <ele>388</ele>
        <time>2015-12-06T11:39:11.000Z</time>
      </trkpt>
      <trkpt lat="47.51796" lon="6.77465">
        <ele>388</ele>
        <time>2015-12-06T11:39:14.000Z</time>
      </trkpt>
      <trkpt lat="47.51797" lon="6.77464">
        <ele>388</ele>
        <time>2015-12-06T11:39:15.000Z</time>
      </trkpt>
      <trkpt lat="47.51797" lon="6.77458">
        <ele>388</ele>
        <time>2015-12-06T11:39:23.000Z</time>
      </trkpt>
      <trkpt lat="47.51797" lon="6.77457">
        <ele>388</ele>
        <time>2015-12-06T11:39:24.000Z</time>
      </trkpt>
      <trkpt lat="47.51792" lon="6.77457">
        <ele>388</ele>
        <time>2015-12-06T11:40:20.000Z</time>
      </trkpt>
      <trkpt lat="47.51791" lon="6.77457">
        <ele>388</ele>
        <time>2015-12-06T11:40:21.000Z</time>
      </trkpt>
      <trkpt lat="47.51793" lon="6.77463">
        <ele>388</ele>
        <time>2015-12-06T11:40:43.000Z</time>
      </trkpt>
      <trkpt lat="47.51794" lon="6.77463">
        <ele>388</ele>
        <time>2015-12-06T11:40:44.000Z</time>
      </trkpt>
      <trkpt lat="47.51798" lon="6.77466">
        <ele>388</ele>
        <time>2015-12-06T11:40:53.000Z</time>
      </trkpt>
      <trkpt lat="47.51799" lon="6.77466">
        <ele>388</ele>
        <time>2015-12-06T11:40:54.000Z</time>
      </trkpt>
      <trkpt lat="47.51801" lon="6.77471">
        <ele>388</ele>
        <time>2015-12-06T11:42:52.000Z</time>
      </trkpt>
      <trkpt lat="47.51801" lon="6.77472">
        <ele>388</ele>
        <time>2015-12-06T11:42:53.000Z</time>
      </trkpt>
      <trkpt lat="47.51802" lon="6.77474">
        <ele>388</ele>
        <time>2015-12-06T11:43:18.000Z</time>
      </trkpt>
    </trkseg>
  </trk>
</gpx>